<?xml version="1.0" encoding="UTF-8" standalone="no" ?>
<gpx xmlns="http://www.topografix.com/GPX/1/1" xmlns:xsi="http://www.w3.org/2001/XMLSchema-instance" xsi:schemaLocation="http://www.topografix.com/GPX/1/1 http://www.topografix.com/GPX/1/1/gpx.xsd" version="1.1" creator="VisuGPX - https://www.visugpx.com">
  <metadata>
    <name>Bords de loire 2013</name>
    <desc><![CDATA[Sortie club]]></desc>
  </metadata>
  <trk>
    <name><![CDATA[Bords de loire 2013_1]]></name>
    <trkseg>
      <trkpt lat="47.35039" lon="-0.75531">
        <ele>18</ele>
        <time>2013-08-28T06:36:35Z</time>
      </trkpt>
      <trkpt lat="47.35039" lon="-0.75484">
        <ele>17</ele>
        <time>2013-08-28T06:37:12Z</time>
      </trkpt>
      <trkpt lat="47.35039" lon="-0.75479">
        <ele>17</ele>
        <time>2013-08-28T06:37:13Z</time>
      </trkpt>
      <trkpt lat="47.35037" lon="-0.75468">
        <ele>17</ele>
        <time>2013-08-28T06:37:17Z</time>
      </trkpt>
      <trkpt lat="47.35036" lon="-0.75459">
        <ele>17</ele>
        <time>2013-08-28T06:37:17Z</time>
      </trkpt>
      <trkpt lat="47.35036" lon="-0.75454">
        <ele>17</ele>
        <time>2013-08-28T06:37:18Z</time>
      </trkpt>
      <trkpt lat="47.35035" lon="-0.75443">
        <ele>17</ele>
        <time>2013-08-28T06:37:22Z</time>
      </trkpt>
      <trkpt lat="47.35033" lon="-0.75431">
        <ele>17</ele>
        <time>2013-08-28T06:37:22Z</time>
      </trkpt>
      <trkpt lat="47.35033" lon="-0.75423">
        <ele>17</ele>
        <time>2013-08-28T06:37:23Z</time>
      </trkpt>
      <trkpt lat="47.3503" lon="-0.75408">
        <ele>17</ele>
        <time>2013-08-28T06:37:27Z</time>
      </trkpt>
      <trkpt lat="47.35028" lon="-0.75391">
        <ele>17</ele>
        <time>2013-08-28T06:37:27Z</time>
      </trkpt>
      <trkpt lat="47.35028" lon="-0.75381">
        <ele>17</ele>
        <time>2013-08-28T06:37:28Z</time>
      </trkpt>
      <trkpt lat="47.35026" lon="-0.75363">
        <ele>17</ele>
        <time>2013-08-28T06:37:32Z</time>
      </trkpt>
      <trkpt lat="47.35024" lon="-0.75347">
        <ele>17</ele>
        <time>2013-08-28T06:37:32Z</time>
      </trkpt>
      <trkpt lat="47.35023" lon="-0.75339">
        <ele>17</ele>
        <time>2013-08-28T06:37:33Z</time>
      </trkpt>
      <trkpt lat="47.35022" lon="-0.75323">
        <ele>17</ele>
        <time>2013-08-28T06:37:37Z</time>
      </trkpt>
      <trkpt lat="47.35019" lon="-0.75309">
        <ele>17</ele>
        <time>2013-08-28T06:37:37Z</time>
      </trkpt>
      <trkpt lat="47.35018" lon="-0.75302">
        <ele>17</ele>
        <time>2013-08-28T06:37:38Z</time>
      </trkpt>
      <trkpt lat="47.35014" lon="-0.75273">
        <ele>17</ele>
        <time>2013-08-28T06:37:42Z</time>
      </trkpt>
      <trkpt lat="47.35014" lon="-0.75265">
        <ele>17</ele>
        <time>2013-08-28T06:37:43Z</time>
      </trkpt>
      <trkpt lat="47.35013" lon="-0.75257">
        <ele>17</ele>
        <time>2013-08-28T06:37:44Z</time>
      </trkpt>
      <trkpt lat="47.35012" lon="-0.75242">
        <ele>17</ele>
        <time>2013-08-28T06:37:48Z</time>
      </trkpt>
      <trkpt lat="47.35011" lon="-0.75226">
        <ele>17</ele>
        <time>2013-08-28T06:37:48Z</time>
      </trkpt>
      <trkpt lat="47.35009" lon="-0.75218">
        <ele>17</ele>
        <time>2013-08-28T06:37:49Z</time>
      </trkpt>
      <trkpt lat="47.35008" lon="-0.75201">
        <ele>17</ele>
        <time>2013-08-28T06:37:53Z</time>
      </trkpt>
      <trkpt lat="47.35005" lon="-0.75177">
        <ele>17</ele>
        <time>2013-08-28T06:37:54Z</time>
      </trkpt>
      <trkpt lat="47.35004" lon="-0.75169">
        <ele>17</ele>
        <time>2013-08-28T06:37:55Z</time>
      </trkpt>
      <trkpt lat="47.35003" lon="-0.75155">
        <ele>17</ele>
        <time>2013-08-28T06:37:59Z</time>
      </trkpt>
      <trkpt lat="47.34998" lon="-0.75116">
        <ele>17</ele>
        <time>2013-08-28T06:38:02Z</time>
      </trkpt>
      <trkpt lat="47.34998" lon="-0.75108">
        <ele>17</ele>
        <time>2013-08-28T06:38:03Z</time>
      </trkpt>
      <trkpt lat="47.34998" lon="-0.75091">
        <ele>17</ele>
        <time>2013-08-28T06:38:08Z</time>
      </trkpt>
      <trkpt lat="47.34998" lon="-0.75066">
        <ele>17</ele>
        <time>2013-08-28T06:38:08Z</time>
      </trkpt>
      <trkpt lat="47.34998" lon="-0.75059">
        <ele>17</ele>
        <time>2013-08-28T06:38:09Z</time>
      </trkpt>
      <trkpt lat="47.35001" lon="-0.7503">
        <ele>17</ele>
        <time>2013-08-28T06:38:14Z</time>
      </trkpt>
      <trkpt lat="47.35001" lon="-0.75023">
        <ele>17</ele>
        <time>2013-08-28T06:38:14Z</time>
      </trkpt>
      <trkpt lat="47.35002" lon="-0.75016">
        <ele>17</ele>
        <time>2013-08-28T06:38:15Z</time>
      </trkpt>
      <trkpt lat="47.35004" lon="-0.7501">
        <ele>17</ele>
        <time>2013-08-28T06:38:16Z</time>
      </trkpt>
      <trkpt lat="47.35004" lon="-0.75003">
        <ele>17</ele>
        <time>2013-08-28T06:38:17Z</time>
      </trkpt>
      <trkpt lat="47.35006" lon="-0.74997">
        <ele>17</ele>
        <time>2013-08-28T06:38:18Z</time>
      </trkpt>
      <trkpt lat="47.35006" lon="-0.74991">
        <ele>17</ele>
        <time>2013-08-28T06:38:19Z</time>
      </trkpt>
      <trkpt lat="47.35007" lon="-0.74984">
        <ele>18</ele>
        <time>2013-08-28T06:38:20Z</time>
      </trkpt>
      <trkpt lat="47.35009" lon="-0.74977">
        <ele>18</ele>
        <time>2013-08-28T06:38:21Z</time>
      </trkpt>
      <trkpt lat="47.35011" lon="-0.7497">
        <ele>18</ele>
        <time>2013-08-28T06:38:22Z</time>
      </trkpt>
      <trkpt lat="47.35013" lon="-0.74962">
        <ele>18</ele>
        <time>2013-08-28T06:38:23Z</time>
      </trkpt>
      <trkpt lat="47.35016" lon="-0.74954">
        <ele>18</ele>
        <time>2013-08-28T06:38:24Z</time>
      </trkpt>
      <trkpt lat="47.35018" lon="-0.74946">
        <ele>18</ele>
        <time>2013-08-28T06:38:25Z</time>
      </trkpt>
      <trkpt lat="47.3502" lon="-0.74938">
        <ele>18</ele>
        <time>2013-08-28T06:38:26Z</time>
      </trkpt>
      <trkpt lat="47.35023" lon="-0.7493">
        <ele>18</ele>
        <time>2013-08-28T06:38:27Z</time>
      </trkpt>
      <trkpt lat="47.35025" lon="-0.74922">
        <ele>18</ele>
        <time>2013-08-28T06:38:28Z</time>
      </trkpt>
      <trkpt lat="47.35027" lon="-0.74914">
        <ele>18</ele>
        <time>2013-08-28T06:38:29Z</time>
      </trkpt>
      <trkpt lat="47.3503" lon="-0.74906">
        <ele>18</ele>
        <time>2013-08-28T06:38:30Z</time>
      </trkpt>
      <trkpt lat="47.35033" lon="-0.74896">
        <ele>18</ele>
        <time>2013-08-28T06:38:31Z</time>
      </trkpt>
      <trkpt lat="47.35037" lon="-0.74887">
        <ele>18</ele>
        <time>2013-08-28T06:38:32Z</time>
      </trkpt>
      <trkpt lat="47.3504" lon="-0.74878">
        <ele>18</ele>
        <time>2013-08-28T06:38:33Z</time>
      </trkpt>
      <trkpt lat="47.35042" lon="-0.74869">
        <ele>18</ele>
        <time>2013-08-28T06:38:34Z</time>
      </trkpt>
      <trkpt lat="47.35043" lon="-0.7486">
        <ele>18</ele>
        <time>2013-08-28T06:38:35Z</time>
      </trkpt>
      <trkpt lat="47.35045" lon="-0.7485">
        <ele>18</ele>
        <time>2013-08-28T06:38:36Z</time>
      </trkpt>
      <trkpt lat="47.35046" lon="-0.74842">
        <ele>18</ele>
        <time>2013-08-28T06:38:37Z</time>
      </trkpt>
      <trkpt lat="47.35047" lon="-0.74833">
        <ele>18</ele>
        <time>2013-08-28T06:38:38Z</time>
      </trkpt>
      <trkpt lat="47.35049" lon="-0.74824">
        <ele>18</ele>
        <time>2013-08-28T06:38:39Z</time>
      </trkpt>
      <trkpt lat="47.3505" lon="-0.74815">
        <ele>18</ele>
        <time>2013-08-28T06:38:40Z</time>
      </trkpt>
      <trkpt lat="47.35051" lon="-0.74808">
        <ele>18</ele>
        <time>2013-08-28T06:38:41Z</time>
      </trkpt>
      <trkpt lat="47.35052" lon="-0.748">
        <ele>18</ele>
        <time>2013-08-28T06:38:42Z</time>
      </trkpt>
      <trkpt lat="47.35053" lon="-0.74759">
        <ele>18</ele>
        <time>2013-08-28T06:38:47Z</time>
      </trkpt>
      <trkpt lat="47.35053" lon="-0.74752">
        <ele>18</ele>
        <time>2013-08-28T06:38:48Z</time>
      </trkpt>
      <trkpt lat="47.35055" lon="-0.74735">
        <ele>18</ele>
        <time>2013-08-28T06:38:54Z</time>
      </trkpt>
      <trkpt lat="47.35055" lon="-0.74707">
        <ele>18</ele>
        <time>2013-08-28T06:38:54Z</time>
      </trkpt>
      <trkpt lat="47.35056" lon="-0.747">
        <ele>18</ele>
        <time>2013-08-28T06:38:55Z</time>
      </trkpt>
      <trkpt lat="47.35057" lon="-0.74684">
        <ele>18</ele>
        <time>2013-08-28T06:39:00Z</time>
      </trkpt>
      <trkpt lat="47.35061" lon="-0.74651">
        <ele>19</ele>
        <time>2013-08-28T06:39:01Z</time>
      </trkpt>
      <trkpt lat="47.35061" lon="-0.74644">
        <ele>20</ele>
        <time>2013-08-28T06:39:02Z</time>
      </trkpt>
      <trkpt lat="47.35067" lon="-0.74598">
        <ele>20</ele>
        <time>2013-08-28T06:39:07Z</time>
      </trkpt>
      <trkpt lat="47.35067" lon="-0.74588">
        <ele>20</ele>
        <time>2013-08-28T06:39:08Z</time>
      </trkpt>
      <trkpt lat="47.35069" lon="-0.74574">
        <ele>20</ele>
        <time>2013-08-28T06:39:14Z</time>
      </trkpt>
      <trkpt lat="47.35071" lon="-0.74543">
        <ele>20</ele>
        <time>2013-08-28T06:39:14Z</time>
      </trkpt>
      <trkpt lat="47.35072" lon="-0.74534">
        <ele>20</ele>
        <time>2013-08-28T06:39:15Z</time>
      </trkpt>
      <trkpt lat="47.35073" lon="-0.74518">
        <ele>20</ele>
        <time>2013-08-28T06:39:21Z</time>
      </trkpt>
      <trkpt lat="47.35075" lon="-0.74483">
        <ele>20</ele>
        <time>2013-08-28T06:39:21Z</time>
      </trkpt>
      <trkpt lat="47.35076" lon="-0.74474">
        <ele>20</ele>
        <time>2013-08-28T06:39:22Z</time>
      </trkpt>
      <trkpt lat="47.35077" lon="-0.74458">
        <ele>20</ele>
        <time>2013-08-28T06:39:28Z</time>
      </trkpt>
      <trkpt lat="47.3508" lon="-0.74424">
        <ele>20</ele>
        <time>2013-08-28T06:39:28Z</time>
      </trkpt>
      <trkpt lat="47.35079" lon="-0.74417">
        <ele>20</ele>
        <time>2013-08-28T06:39:29Z</time>
      </trkpt>
      <trkpt lat="47.35078" lon="-0.744">
        <ele>20</ele>
        <time>2013-08-28T06:39:35Z</time>
      </trkpt>
      <trkpt lat="47.35072" lon="-0.74367">
        <ele>20</ele>
        <time>2013-08-28T06:39:35Z</time>
      </trkpt>
      <trkpt lat="47.3507" lon="-0.74359">
        <ele>20</ele>
        <time>2013-08-28T06:39:36Z</time>
      </trkpt>
      <trkpt lat="47.35068" lon="-0.74342">
        <ele>20</ele>
        <time>2013-08-28T06:39:42Z</time>
      </trkpt>
      <trkpt lat="47.35064" lon="-0.74307">
        <ele>20</ele>
        <time>2013-08-28T06:39:42Z</time>
      </trkpt>
      <trkpt lat="47.35062" lon="-0.74297">
        <ele>20</ele>
        <time>2013-08-28T06:39:43Z</time>
      </trkpt>
      <trkpt lat="47.35061" lon="-0.74279">
        <ele>20</ele>
        <time>2013-08-28T06:39:49Z</time>
      </trkpt>
      <trkpt lat="47.35055" lon="-0.74247">
        <ele>20</ele>
        <time>2013-08-28T06:39:49Z</time>
      </trkpt>
      <trkpt lat="47.35054" lon="-0.7424">
        <ele>20</ele>
        <time>2013-08-28T06:39:50Z</time>
      </trkpt>
      <trkpt lat="47.35049" lon="-0.74188">
        <ele>20</ele>
        <time>2013-08-28T06:39:56Z</time>
      </trkpt>
      <trkpt lat="47.35048" lon="-0.7418">
        <ele>20</ele>
        <time>2013-08-28T06:39:57Z</time>
      </trkpt>
      <trkpt lat="47.35047" lon="-0.7416">
        <ele>20</ele>
        <time>2013-08-28T06:40:04Z</time>
      </trkpt>
      <trkpt lat="47.35041" lon="-0.74123">
        <ele>20</ele>
        <time>2013-08-28T06:40:04Z</time>
      </trkpt>
      <trkpt lat="47.35041" lon="-0.74115">
        <ele>20</ele>
        <time>2013-08-28T06:40:05Z</time>
      </trkpt>
      <trkpt lat="47.35038" lon="-0.74097">
        <ele>20</ele>
        <time>2013-08-28T06:40:11Z</time>
      </trkpt>
      <trkpt lat="47.35032" lon="-0.74061">
        <ele>20</ele>
        <time>2013-08-28T06:40:11Z</time>
      </trkpt>
      <trkpt lat="47.35032" lon="-0.74051">
        <ele>20</ele>
        <time>2013-08-28T06:40:12Z</time>
      </trkpt>
      <trkpt lat="47.35025" lon="-0.74002">
        <ele>20</ele>
        <time>2013-08-28T06:40:18Z</time>
      </trkpt>
      <trkpt lat="47.35023" lon="-0.73993">
        <ele>20</ele>
        <time>2013-08-28T06:40:19Z</time>
      </trkpt>
      <trkpt lat="47.35019" lon="-0.73976">
        <ele>20</ele>
        <time>2013-08-28T06:40:26Z</time>
      </trkpt>
      <trkpt lat="47.35008" lon="-0.73935">
        <ele>20</ele>
        <time>2013-08-28T06:40:26Z</time>
      </trkpt>
      <trkpt lat="47.35006" lon="-0.73926">
        <ele>19</ele>
        <time>2013-08-28T06:40:27Z</time>
      </trkpt>
      <trkpt lat="47.34991" lon="-0.73879">
        <ele>18</ele>
        <time>2013-08-28T06:40:33Z</time>
      </trkpt>
      <trkpt lat="47.34989" lon="-0.7387">
        <ele>18</ele>
        <time>2013-08-28T06:40:34Z</time>
      </trkpt>
      <trkpt lat="47.34986" lon="-0.73861">
        <ele>17</ele>
        <time>2013-08-28T06:40:35Z</time>
      </trkpt>
      <trkpt lat="47.3497" lon="-0.73813">
        <ele>17</ele>
        <time>2013-08-28T06:40:42Z</time>
      </trkpt>
      <trkpt lat="47.34966" lon="-0.73805">
        <ele>17</ele>
        <time>2013-08-28T06:40:42Z</time>
      </trkpt>
      <trkpt lat="47.34958" lon="-0.7379">
        <ele>17</ele>
        <time>2013-08-28T06:40:48Z</time>
      </trkpt>
      <trkpt lat="47.34943" lon="-0.73763">
        <ele>17</ele>
        <time>2013-08-28T06:40:48Z</time>
      </trkpt>
      <trkpt lat="47.34941" lon="-0.73755">
        <ele>17</ele>
        <time>2013-08-28T06:40:49Z</time>
      </trkpt>
      <trkpt lat="47.34937" lon="-0.73738">
        <ele>17</ele>
        <time>2013-08-28T06:40:54Z</time>
      </trkpt>
      <trkpt lat="47.34935" lon="-0.7371">
        <ele>17</ele>
        <time>2013-08-28T06:40:54Z</time>
      </trkpt>
      <trkpt lat="47.34936" lon="-0.737">
        <ele>17</ele>
        <time>2013-08-28T06:40:55Z</time>
      </trkpt>
      <trkpt lat="47.34937" lon="-0.73693">
        <ele>18</ele>
        <time>2013-08-28T06:40:56Z</time>
      </trkpt>
      <trkpt lat="47.34947" lon="-0.73648">
        <ele>19</ele>
        <time>2013-08-28T06:41:01Z</time>
      </trkpt>
      <trkpt lat="47.34949" lon="-0.73641">
        <ele>19</ele>
        <time>2013-08-28T06:41:02Z</time>
      </trkpt>
      <trkpt lat="47.34951" lon="-0.73622">
        <ele>19</ele>
        <time>2013-08-28T06:41:08Z</time>
      </trkpt>
      <trkpt lat="47.34944" lon="-0.73591">
        <ele>19</ele>
        <time>2013-08-28T06:41:08Z</time>
      </trkpt>
      <trkpt lat="47.3494" lon="-0.73584">
        <ele>19</ele>
        <time>2013-08-28T06:41:09Z</time>
      </trkpt>
      <trkpt lat="47.34937" lon="-0.73577">
        <ele>19</ele>
        <time>2013-08-28T06:41:10Z</time>
      </trkpt>
      <trkpt lat="47.34913" lon="-0.73553">
        <ele>19</ele>
        <time>2013-08-28T06:41:15Z</time>
      </trkpt>
      <trkpt lat="47.34908" lon="-0.73547">
        <ele>19</ele>
        <time>2013-08-28T06:41:16Z</time>
      </trkpt>
      <trkpt lat="47.34904" lon="-0.73542">
        <ele>19</ele>
        <time>2013-08-28T06:41:17Z</time>
      </trkpt>
      <trkpt lat="47.34901" lon="-0.73534">
        <ele>19</ele>
        <time>2013-08-28T06:41:18Z</time>
      </trkpt>
      <trkpt lat="47.34901" lon="-0.73479">
        <ele>19</ele>
        <time>2013-08-28T06:41:24Z</time>
      </trkpt>
      <trkpt lat="47.34901" lon="-0.7347">
        <ele>19</ele>
        <time>2013-08-28T06:41:26Z</time>
      </trkpt>
      <trkpt lat="47.34901" lon="-0.73461">
        <ele>19</ele>
        <time>2013-08-28T06:41:27Z</time>
      </trkpt>
      <trkpt lat="47.349" lon="-0.73443">
        <ele>19</ele>
        <time>2013-08-28T06:41:32Z</time>
      </trkpt>
      <trkpt lat="47.34897" lon="-0.73403">
        <ele>19</ele>
        <time>2013-08-28T06:41:32Z</time>
      </trkpt>
      <trkpt lat="47.34897" lon="-0.73392">
        <ele>19</ele>
        <time>2013-08-28T06:41:33Z</time>
      </trkpt>
      <trkpt lat="47.34896" lon="-0.73371">
        <ele>19</ele>
        <time>2013-08-28T06:41:39Z</time>
      </trkpt>
      <trkpt lat="47.34894" lon="-0.73329">
        <ele>19</ele>
        <time>2013-08-28T06:41:39Z</time>
      </trkpt>
      <trkpt lat="47.34894" lon="-0.7332">
        <ele>19</ele>
        <time>2013-08-28T06:41:40Z</time>
      </trkpt>
      <trkpt lat="47.34883" lon="-0.73262">
        <ele>19</ele>
        <time>2013-08-28T06:41:46Z</time>
      </trkpt>
      <trkpt lat="47.34882" lon="-0.73252">
        <ele>19</ele>
        <time>2013-08-28T06:41:47Z</time>
      </trkpt>
      <trkpt lat="47.3487" lon="-0.73191">
        <ele>19</ele>
        <time>2013-08-28T06:41:53Z</time>
      </trkpt>
      <trkpt lat="47.34868" lon="-0.73181">
        <ele>19</ele>
        <time>2013-08-28T06:41:54Z</time>
      </trkpt>
      <trkpt lat="47.34865" lon="-0.73172">
        <ele>19</ele>
        <time>2013-08-28T06:41:55Z</time>
      </trkpt>
      <trkpt lat="47.34862" lon="-0.73154">
        <ele>19</ele>
        <time>2013-08-28T06:42:01Z</time>
      </trkpt>
      <trkpt lat="47.34858" lon="-0.7312">
        <ele>19</ele>
        <time>2013-08-28T06:42:01Z</time>
      </trkpt>
      <trkpt lat="47.34858" lon="-0.73111">
        <ele>19</ele>
        <time>2013-08-28T06:42:02Z</time>
      </trkpt>
      <trkpt lat="47.34857" lon="-0.73094">
        <ele>19</ele>
        <time>2013-08-28T06:42:08Z</time>
      </trkpt>
      <trkpt lat="47.34858" lon="-0.73059">
        <ele>19</ele>
        <time>2013-08-28T06:42:08Z</time>
      </trkpt>
      <trkpt lat="47.34858" lon="-0.73051">
        <ele>19</ele>
        <time>2013-08-28T06:42:09Z</time>
      </trkpt>
      <trkpt lat="47.34859" lon="-0.73035">
        <ele>19</ele>
        <time>2013-08-28T06:42:16Z</time>
      </trkpt>
      <trkpt lat="47.34865" lon="-0.72989">
        <ele>19</ele>
        <time>2013-08-28T06:42:16Z</time>
      </trkpt>
      <trkpt lat="47.34867" lon="-0.72979">
        <ele>19</ele>
        <time>2013-08-28T06:42:17Z</time>
      </trkpt>
      <trkpt lat="47.34867" lon="-0.72957">
        <ele>20</ele>
        <time>2013-08-28T06:42:23Z</time>
      </trkpt>
      <trkpt lat="47.3486" lon="-0.72916">
        <ele>20</ele>
        <time>2013-08-28T06:42:23Z</time>
      </trkpt>
      <trkpt lat="47.34856" lon="-0.72907">
        <ele>20</ele>
        <time>2013-08-28T06:42:24Z</time>
      </trkpt>
      <trkpt lat="47.34853" lon="-0.72899">
        <ele>20</ele>
        <time>2013-08-28T06:42:26Z</time>
      </trkpt>
      <trkpt lat="47.34844" lon="-0.72882">
        <ele>20</ele>
        <time>2013-08-28T06:42:32Z</time>
      </trkpt>
      <trkpt lat="47.34824" lon="-0.72843">
        <ele>20</ele>
        <time>2013-08-28T06:42:32Z</time>
      </trkpt>
      <trkpt lat="47.3482" lon="-0.72836">
        <ele>20</ele>
        <time>2013-08-28T06:42:33Z</time>
      </trkpt>
      <trkpt lat="47.34815" lon="-0.72821">
        <ele>20</ele>
        <time>2013-08-28T06:42:39Z</time>
      </trkpt>
      <trkpt lat="47.34807" lon="-0.7279">
        <ele>20</ele>
        <time>2013-08-28T06:42:40Z</time>
      </trkpt>
      <trkpt lat="47.34805" lon="-0.72782">
        <ele>19</ele>
        <time>2013-08-28T06:42:40Z</time>
      </trkpt>
      <trkpt lat="47.348" lon="-0.72764">
        <ele>19</ele>
        <time>2013-08-28T06:42:46Z</time>
      </trkpt>
      <trkpt lat="47.34792" lon="-0.72727">
        <ele>19</ele>
        <time>2013-08-28T06:42:46Z</time>
      </trkpt>
      <trkpt lat="47.3479" lon="-0.72717">
        <ele>19</ele>
        <time>2013-08-28T06:42:47Z</time>
      </trkpt>
      <trkpt lat="47.34787" lon="-0.72699">
        <ele>19</ele>
        <time>2013-08-28T06:42:52Z</time>
      </trkpt>
      <trkpt lat="47.34784" lon="-0.72671">
        <ele>19</ele>
        <time>2013-08-28T06:42:52Z</time>
      </trkpt>
      <trkpt lat="47.34784" lon="-0.72663">
        <ele>19</ele>
        <time>2013-08-28T06:42:53Z</time>
      </trkpt>
      <trkpt lat="47.34782" lon="-0.72647">
        <ele>19</ele>
        <time>2013-08-28T06:42:59Z</time>
      </trkpt>
      <trkpt lat="47.34775" lon="-0.72614">
        <ele>19</ele>
        <time>2013-08-28T06:42:59Z</time>
      </trkpt>
      <trkpt lat="47.34773" lon="-0.72606">
        <ele>19</ele>
        <time>2013-08-28T06:43:00Z</time>
      </trkpt>
      <trkpt lat="47.34762" lon="-0.72562">
        <ele>19</ele>
        <time>2013-08-28T06:43:05Z</time>
      </trkpt>
      <trkpt lat="47.3476" lon="-0.72554">
        <ele>19</ele>
        <time>2013-08-28T06:43:06Z</time>
      </trkpt>
      <trkpt lat="47.34757" lon="-0.72537">
        <ele>19</ele>
        <time>2013-08-28T06:43:12Z</time>
      </trkpt>
      <trkpt lat="47.34752" lon="-0.72507">
        <ele>19</ele>
        <time>2013-08-28T06:43:12Z</time>
      </trkpt>
      <trkpt lat="47.34752" lon="-0.72498">
        <ele>20</ele>
        <time>2013-08-28T06:43:13Z</time>
      </trkpt>
      <trkpt lat="47.34752" lon="-0.72479">
        <ele>21</ele>
        <time>2013-08-28T06:43:19Z</time>
      </trkpt>
      <trkpt lat="47.34752" lon="-0.72439">
        <ele>21</ele>
        <time>2013-08-28T06:43:19Z</time>
      </trkpt>
      <trkpt lat="47.34752" lon="-0.72428">
        <ele>21</ele>
        <time>2013-08-28T06:43:20Z</time>
      </trkpt>
      <trkpt lat="47.34753" lon="-0.72378">
        <ele>21</ele>
        <time>2013-08-28T06:43:25Z</time>
      </trkpt>
      <trkpt lat="47.34753" lon="-0.72368">
        <ele>21</ele>
        <time>2013-08-28T06:43:26Z</time>
      </trkpt>
      <trkpt lat="47.34755" lon="-0.72347">
        <ele>21</ele>
        <time>2013-08-28T06:43:32Z</time>
      </trkpt>
      <trkpt lat="47.34753" lon="-0.72308">
        <ele>20</ele>
        <time>2013-08-28T06:43:32Z</time>
      </trkpt>
      <trkpt lat="47.34751" lon="-0.72299">
        <ele>20</ele>
        <time>2013-08-28T06:43:33Z</time>
      </trkpt>
      <trkpt lat="47.34749" lon="-0.7229">
        <ele>19</ele>
        <time>2013-08-28T06:43:35Z</time>
      </trkpt>
      <trkpt lat="47.34745" lon="-0.72273">
        <ele>19</ele>
        <time>2013-08-28T06:43:40Z</time>
      </trkpt>
      <trkpt lat="47.3473" lon="-0.72237">
        <ele>19</ele>
        <time>2013-08-28T06:43:40Z</time>
      </trkpt>
      <trkpt lat="47.34726" lon="-0.72228">
        <ele>19</ele>
        <time>2013-08-28T06:43:42Z</time>
      </trkpt>
      <trkpt lat="47.34718" lon="-0.72209">
        <ele>19</ele>
        <time>2013-08-28T06:43:47Z</time>
      </trkpt>
      <trkpt lat="47.34706" lon="-0.72168">
        <ele>19</ele>
        <time>2013-08-28T06:43:47Z</time>
      </trkpt>
      <trkpt lat="47.34703" lon="-0.72159">
        <ele>19</ele>
        <time>2013-08-28T06:43:48Z</time>
      </trkpt>
      <trkpt lat="47.347" lon="-0.7214">
        <ele>19</ele>
        <time>2013-08-28T06:43:54Z</time>
      </trkpt>
      <trkpt lat="47.34689" lon="-0.721">
        <ele>19</ele>
        <time>2013-08-28T06:43:54Z</time>
      </trkpt>
      <trkpt lat="47.34687" lon="-0.7209">
        <ele>19</ele>
        <time>2013-08-28T06:43:55Z</time>
      </trkpt>
      <trkpt lat="47.34683" lon="-0.7207">
        <ele>19</ele>
        <time>2013-08-28T06:44:01Z</time>
      </trkpt>
      <trkpt lat="47.34679" lon="-0.7203">
        <ele>19</ele>
        <time>2013-08-28T06:44:01Z</time>
      </trkpt>
      <trkpt lat="47.34679" lon="-0.7202">
        <ele>19</ele>
        <time>2013-08-28T06:44:02Z</time>
      </trkpt>
      <trkpt lat="47.34679" lon="-0.72">
        <ele>19</ele>
        <time>2013-08-28T06:44:08Z</time>
      </trkpt>
      <trkpt lat="47.34677" lon="-0.7196">
        <ele>19</ele>
        <time>2013-08-28T06:44:08Z</time>
      </trkpt>
      <trkpt lat="47.34676" lon="-0.7195">
        <ele>19</ele>
        <time>2013-08-28T06:44:09Z</time>
      </trkpt>
      <trkpt lat="47.34673" lon="-0.71929">
        <ele>19</ele>
        <time>2013-08-28T06:44:15Z</time>
      </trkpt>
      <trkpt lat="47.34667" lon="-0.7189">
        <ele>19</ele>
        <time>2013-08-28T06:44:15Z</time>
      </trkpt>
      <trkpt lat="47.34665" lon="-0.71881">
        <ele>19</ele>
        <time>2013-08-28T06:44:16Z</time>
      </trkpt>
      <trkpt lat="47.34645" lon="-0.71826">
        <ele>19</ele>
        <time>2013-08-28T06:44:22Z</time>
      </trkpt>
      <trkpt lat="47.34642" lon="-0.71816">
        <ele>19</ele>
        <time>2013-08-28T06:44:24Z</time>
      </trkpt>
      <trkpt lat="47.34639" lon="-0.71807">
        <ele>19</ele>
        <time>2013-08-28T06:44:24Z</time>
      </trkpt>
      <trkpt lat="47.34619" lon="-0.71751">
        <ele>19</ele>
        <time>2013-08-28T06:44:30Z</time>
      </trkpt>
      <trkpt lat="47.34615" lon="-0.71743">
        <ele>19</ele>
        <time>2013-08-28T06:44:31Z</time>
      </trkpt>
      <trkpt lat="47.34609" lon="-0.71736">
        <ele>19</ele>
        <time>2013-08-28T06:44:32Z</time>
      </trkpt>
      <trkpt lat="47.34598" lon="-0.71723">
        <ele>18</ele>
        <time>2013-08-28T06:44:38Z</time>
      </trkpt>
      <trkpt lat="47.34575" lon="-0.71701">
        <ele>18</ele>
        <time>2013-08-28T06:44:38Z</time>
      </trkpt>
      <trkpt lat="47.3457" lon="-0.71696">
        <ele>18</ele>
        <time>2013-08-28T06:44:39Z</time>
      </trkpt>
      <trkpt lat="47.34561" lon="-0.71688">
        <ele>18</ele>
        <time>2013-08-28T06:44:45Z</time>
      </trkpt>
      <trkpt lat="47.34547" lon="-0.71672">
        <ele>18</ele>
        <time>2013-08-28T06:44:45Z</time>
      </trkpt>
      <trkpt lat="47.34544" lon="-0.71669">
        <ele>18</ele>
        <time>2013-08-28T06:44:46Z</time>
      </trkpt>
      <trkpt lat="47.34539" lon="-0.71659">
        <ele>18</ele>
        <time>2013-08-28T06:44:53Z</time>
      </trkpt>
      <trkpt lat="47.34527" lon="-0.71629">
        <ele>18</ele>
        <time>2013-08-28T06:44:53Z</time>
      </trkpt>
      <trkpt lat="47.34526" lon="-0.71624">
        <ele>18</ele>
        <time>2013-08-28T06:44:54Z</time>
      </trkpt>
      <trkpt lat="47.34524" lon="-0.71618">
        <ele>19</ele>
        <time>2013-08-28T06:44:55Z</time>
      </trkpt>
      <trkpt lat="47.34521" lon="-0.71606">
        <ele>19</ele>
        <time>2013-08-28T06:45:01Z</time>
      </trkpt>
      <trkpt lat="47.34516" lon="-0.71577">
        <ele>20</ele>
        <time>2013-08-28T06:45:01Z</time>
      </trkpt>
      <trkpt lat="47.34513" lon="-0.71571">
        <ele>20</ele>
        <time>2013-08-28T06:45:02Z</time>
      </trkpt>
      <trkpt lat="47.3451" lon="-0.71557">
        <ele>20</ele>
        <time>2013-08-28T06:45:09Z</time>
      </trkpt>
      <trkpt lat="47.34499" lon="-0.71521">
        <ele>21</ele>
        <time>2013-08-28T06:45:09Z</time>
      </trkpt>
      <trkpt lat="47.34497" lon="-0.71514">
        <ele>21</ele>
        <time>2013-08-28T06:45:10Z</time>
      </trkpt>
      <trkpt lat="47.34493" lon="-0.71501">
        <ele>21</ele>
        <time>2013-08-28T06:45:16Z</time>
      </trkpt>
      <trkpt lat="47.34484" lon="-0.71477">
        <ele>21</ele>
        <time>2013-08-28T06:45:16Z</time>
      </trkpt>
      <trkpt lat="47.34482" lon="-0.7147">
        <ele>21</ele>
        <time>2013-08-28T06:45:17Z</time>
      </trkpt>
      <trkpt lat="47.34478" lon="-0.71458">
        <ele>22</ele>
        <time>2013-08-28T06:45:24Z</time>
      </trkpt>
      <trkpt lat="47.34468" lon="-0.71427">
        <ele>23</ele>
        <time>2013-08-28T06:45:24Z</time>
      </trkpt>
      <trkpt lat="47.34466" lon="-0.71421">
        <ele>24</ele>
        <time>2013-08-28T06:45:25Z</time>
      </trkpt>
      <trkpt lat="47.34454" lon="-0.71384">
        <ele>25</ele>
        <time>2013-08-28T06:45:31Z</time>
      </trkpt>
      <trkpt lat="47.34452" lon="-0.71377">
        <ele>25</ele>
        <time>2013-08-28T06:45:32Z</time>
      </trkpt>
      <trkpt lat="47.3445" lon="-0.71371">
        <ele>26</ele>
        <time>2013-08-28T06:45:34Z</time>
      </trkpt>
      <trkpt lat="47.34441" lon="-0.71338">
        <ele>26</ele>
        <time>2013-08-28T06:45:38Z</time>
      </trkpt>
      <trkpt lat="47.34439" lon="-0.71332">
        <ele>26</ele>
        <time>2013-08-28T06:45:39Z</time>
      </trkpt>
      <trkpt lat="47.34436" lon="-0.71319">
        <ele>26</ele>
        <time>2013-08-28T06:45:45Z</time>
      </trkpt>
      <trkpt lat="47.34428" lon="-0.71294">
        <ele>26</ele>
        <time>2013-08-28T06:45:45Z</time>
      </trkpt>
      <trkpt lat="47.34426" lon="-0.71289">
        <ele>26</ele>
        <time>2013-08-28T06:45:46Z</time>
      </trkpt>
      <trkpt lat="47.34422" lon="-0.71277">
        <ele>26</ele>
        <time>2013-08-28T06:45:51Z</time>
      </trkpt>
      <trkpt lat="47.34416" lon="-0.71259">
        <ele>26</ele>
        <time>2013-08-28T06:45:51Z</time>
      </trkpt>
      <trkpt lat="47.34414" lon="-0.71253">
        <ele>26</ele>
        <time>2013-08-28T06:45:52Z</time>
      </trkpt>
      <trkpt lat="47.34409" lon="-0.7124">
        <ele>26</ele>
        <time>2013-08-28T06:45:58Z</time>
      </trkpt>
      <trkpt lat="47.34401" lon="-0.71216">
        <ele>26</ele>
        <time>2013-08-28T06:45:58Z</time>
      </trkpt>
      <trkpt lat="47.34399" lon="-0.71211">
        <ele>26</ele>
        <time>2013-08-28T06:45:59Z</time>
      </trkpt>
      <trkpt lat="47.34396" lon="-0.71198">
        <ele>26</ele>
        <time>2013-08-28T06:46:04Z</time>
      </trkpt>
      <trkpt lat="47.34391" lon="-0.71178">
        <ele>27</ele>
        <time>2013-08-28T06:46:04Z</time>
      </trkpt>
      <trkpt lat="47.34389" lon="-0.71171">
        <ele>28</ele>
        <time>2013-08-28T06:46:05Z</time>
      </trkpt>
      <trkpt lat="47.34387" lon="-0.71157">
        <ele>29</ele>
        <time>2013-08-28T06:46:11Z</time>
      </trkpt>
      <trkpt lat="47.34383" lon="-0.71132">
        <ele>30</ele>
        <time>2013-08-28T06:46:11Z</time>
      </trkpt>
      <trkpt lat="47.34382" lon="-0.71126">
        <ele>31</ele>
        <time>2013-08-28T06:46:12Z</time>
      </trkpt>
      <trkpt lat="47.34378" lon="-0.71092">
        <ele>32</ele>
        <time>2013-08-28T06:46:17Z</time>
      </trkpt>
      <trkpt lat="47.34377" lon="-0.71086">
        <ele>33</ele>
        <time>2013-08-28T06:46:18Z</time>
      </trkpt>
      <trkpt lat="47.34375" lon="-0.71072">
        <ele>34</ele>
        <time>2013-08-28T06:46:24Z</time>
      </trkpt>
      <trkpt lat="47.34366" lon="-0.71051">
        <ele>35</ele>
        <time>2013-08-28T06:46:24Z</time>
      </trkpt>
      <trkpt lat="47.34363" lon="-0.71046">
        <ele>36</ele>
        <time>2013-08-28T06:46:26Z</time>
      </trkpt>
      <trkpt lat="47.34359" lon="-0.71041">
        <ele>37</ele>
        <time>2013-08-28T06:46:27Z</time>
      </trkpt>
      <trkpt lat="47.34334" lon="-0.71026">
        <ele>38</ele>
        <time>2013-08-28T06:46:32Z</time>
      </trkpt>
      <trkpt lat="47.3433" lon="-0.71026">
        <ele>39</ele>
        <time>2013-08-28T06:46:34Z</time>
      </trkpt>
      <trkpt lat="47.34325" lon="-0.71026">
        <ele>39</ele>
        <time>2013-08-28T06:46:35Z</time>
      </trkpt>
      <trkpt lat="47.34316" lon="-0.71027">
        <ele>39</ele>
        <time>2013-08-28T06:46:40Z</time>
      </trkpt>
      <trkpt lat="47.34298" lon="-0.71036">
        <ele>39</ele>
        <time>2013-08-28T06:46:40Z</time>
      </trkpt>
      <trkpt lat="47.34294" lon="-0.71039">
        <ele>39</ele>
        <time>2013-08-28T06:46:42Z</time>
      </trkpt>
      <trkpt lat="47.3429" lon="-0.71042">
        <ele>40</ele>
        <time>2013-08-28T06:46:43Z</time>
      </trkpt>
      <trkpt lat="47.34281" lon="-0.71048">
        <ele>40</ele>
        <time>2013-08-28T06:46:47Z</time>
      </trkpt>
      <trkpt lat="47.34265" lon="-0.71061">
        <ele>41</ele>
        <time>2013-08-28T06:46:48Z</time>
      </trkpt>
      <trkpt lat="47.34261" lon="-0.71065">
        <ele>42</ele>
        <time>2013-08-28T06:46:49Z</time>
      </trkpt>
      <trkpt lat="47.34244" lon="-0.71095">
        <ele>43</ele>
        <time>2013-08-28T06:46:54Z</time>
      </trkpt>
      <trkpt lat="47.34242" lon="-0.71101">
        <ele>44</ele>
        <time>2013-08-28T06:46:56Z</time>
      </trkpt>
      <trkpt lat="47.3424" lon="-0.71107">
        <ele>45</ele>
        <time>2013-08-28T06:46:56Z</time>
      </trkpt>
      <trkpt lat="47.34237" lon="-0.71121">
        <ele>45</ele>
        <time>2013-08-28T06:47:02Z</time>
      </trkpt>
      <trkpt lat="47.34231" lon="-0.71147">
        <ele>45</ele>
        <time>2013-08-28T06:47:02Z</time>
      </trkpt>
      <trkpt lat="47.34229" lon="-0.71153">
        <ele>45</ele>
        <time>2013-08-28T06:47:03Z</time>
      </trkpt>
      <trkpt lat="47.34216" lon="-0.71182">
        <ele>45</ele>
        <time>2013-08-28T06:47:08Z</time>
      </trkpt>
      <trkpt lat="47.34212" lon="-0.71186">
        <ele>45</ele>
        <time>2013-08-28T06:47:10Z</time>
      </trkpt>
      <trkpt lat="47.34209" lon="-0.71189">
        <ele>45</ele>
        <time>2013-08-28T06:47:11Z</time>
      </trkpt>
      <trkpt lat="47.34204" lon="-0.71192">
        <ele>45</ele>
        <time>2013-08-28T06:47:12Z</time>
      </trkpt>
      <trkpt lat="47.34195" lon="-0.71196">
        <ele>45</ele>
        <time>2013-08-28T06:47:17Z</time>
      </trkpt>
      <trkpt lat="47.34176" lon="-0.71194">
        <ele>45</ele>
        <time>2013-08-28T06:47:17Z</time>
      </trkpt>
      <trkpt lat="47.34172" lon="-0.71192">
        <ele>45</ele>
        <time>2013-08-28T06:47:18Z</time>
      </trkpt>
      <trkpt lat="47.34167" lon="-0.7119">
        <ele>45</ele>
        <time>2013-08-28T06:47:19Z</time>
      </trkpt>
      <trkpt lat="47.34158" lon="-0.71185">
        <ele>45</ele>
        <time>2013-08-28T06:47:24Z</time>
      </trkpt>
      <trkpt lat="47.3414" lon="-0.71177">
        <ele>45</ele>
        <time>2013-08-28T06:47:25Z</time>
      </trkpt>
      <trkpt lat="47.34135" lon="-0.71176">
        <ele>45</ele>
        <time>2013-08-28T06:47:26Z</time>
      </trkpt>
      <trkpt lat="47.34126" lon="-0.71177">
        <ele>45</ele>
        <time>2013-08-28T06:47:32Z</time>
      </trkpt>
      <trkpt lat="47.34105" lon="-0.71189">
        <ele>45</ele>
        <time>2013-08-28T06:47:33Z</time>
      </trkpt>
      <trkpt lat="47.341" lon="-0.71193">
        <ele>45</ele>
        <time>2013-08-28T06:47:34Z</time>
      </trkpt>
      <trkpt lat="47.34093" lon="-0.71199">
        <ele>45</ele>
        <time>2013-08-28T06:47:41Z</time>
      </trkpt>
      <trkpt lat="47.34073" lon="-0.7121">
        <ele>45</ele>
        <time>2013-08-28T06:47:41Z</time>
      </trkpt>
      <trkpt lat="47.34069" lon="-0.71211">
        <ele>45</ele>
        <time>2013-08-28T06:47:42Z</time>
      </trkpt>
      <trkpt lat="47.34064" lon="-0.71211">
        <ele>45</ele>
        <time>2013-08-28T06:47:43Z</time>
      </trkpt>
      <trkpt lat="47.34056" lon="-0.71208">
        <ele>45</ele>
        <time>2013-08-28T06:47:49Z</time>
      </trkpt>
      <trkpt lat="47.34041" lon="-0.71192">
        <ele>45</ele>
        <time>2013-08-28T06:47:49Z</time>
      </trkpt>
      <trkpt lat="47.34038" lon="-0.71186">
        <ele>45</ele>
        <time>2013-08-28T06:47:51Z</time>
      </trkpt>
      <trkpt lat="47.34035" lon="-0.7118">
        <ele>45</ele>
        <time>2013-08-28T06:47:52Z</time>
      </trkpt>
      <trkpt lat="47.34031" lon="-0.71168">
        <ele>45</ele>
        <time>2013-08-28T06:47:57Z</time>
      </trkpt>
      <trkpt lat="47.34023" lon="-0.71141">
        <ele>45</ele>
        <time>2013-08-28T06:47:57Z</time>
      </trkpt>
      <trkpt lat="47.34021" lon="-0.71135">
        <ele>45</ele>
        <time>2013-08-28T06:47:58Z</time>
      </trkpt>
      <trkpt lat="47.34016" lon="-0.71122">
        <ele>45</ele>
        <time>2013-08-28T06:48:04Z</time>
      </trkpt>
      <trkpt lat="47.34008" lon="-0.71096">
        <ele>45</ele>
        <time>2013-08-28T06:48:04Z</time>
      </trkpt>
      <trkpt lat="47.34007" lon="-0.7109">
        <ele>45</ele>
        <time>2013-08-28T06:48:05Z</time>
      </trkpt>
      <trkpt lat="47.33995" lon="-0.71051">
        <ele>45</ele>
        <time>2013-08-28T06:48:11Z</time>
      </trkpt>
      <trkpt lat="47.33994" lon="-0.71044">
        <ele>46</ele>
        <time>2013-08-28T06:48:12Z</time>
      </trkpt>
      <trkpt lat="47.33998" lon="-0.70998">
        <ele>47</ele>
        <time>2013-08-28T06:48:18Z</time>
      </trkpt>
      <trkpt lat="47.34" lon="-0.70989">
        <ele>47</ele>
        <time>2013-08-28T06:48:19Z</time>
      </trkpt>
      <trkpt lat="47.34003" lon="-0.70981">
        <ele>47</ele>
        <time>2013-08-28T06:48:20Z</time>
      </trkpt>
      <trkpt lat="47.34007" lon="-0.70967">
        <ele>47</ele>
        <time>2013-08-28T06:48:26Z</time>
      </trkpt>
      <trkpt lat="47.34015" lon="-0.70938">
        <ele>47</ele>
        <time>2013-08-28T06:48:26Z</time>
      </trkpt>
      <trkpt lat="47.34017" lon="-0.70931">
        <ele>47</ele>
        <time>2013-08-28T06:48:27Z</time>
      </trkpt>
      <trkpt lat="47.34022" lon="-0.70916">
        <ele>47</ele>
        <time>2013-08-28T06:48:33Z</time>
      </trkpt>
      <trkpt lat="47.34031" lon="-0.70884">
        <ele>47</ele>
        <time>2013-08-28T06:48:33Z</time>
      </trkpt>
      <trkpt lat="47.34032" lon="-0.70876">
        <ele>47</ele>
        <time>2013-08-28T06:48:34Z</time>
      </trkpt>
      <trkpt lat="47.3404" lon="-0.70826">
        <ele>47</ele>
        <time>2013-08-28T06:48:40Z</time>
      </trkpt>
      <trkpt lat="47.34042" lon="-0.70818">
        <ele>47</ele>
        <time>2013-08-28T06:48:41Z</time>
      </trkpt>
      <trkpt lat="47.34043" lon="-0.70802">
        <ele>46</ele>
        <time>2013-08-28T06:48:48Z</time>
      </trkpt>
      <trkpt lat="47.34046" lon="-0.70762">
        <ele>46</ele>
        <time>2013-08-28T06:48:48Z</time>
      </trkpt>
      <trkpt lat="47.34047" lon="-0.70754">
        <ele>46</ele>
        <time>2013-08-28T06:48:49Z</time>
      </trkpt>
      <trkpt lat="47.34049" lon="-0.70739">
        <ele>46</ele>
        <time>2013-08-28T06:48:55Z</time>
      </trkpt>
      <trkpt lat="47.34053" lon="-0.70709">
        <ele>46</ele>
        <time>2013-08-28T06:48:55Z</time>
      </trkpt>
      <trkpt lat="47.34054" lon="-0.70701">
        <ele>46</ele>
        <time>2013-08-28T06:48:56Z</time>
      </trkpt>
      <trkpt lat="47.34056" lon="-0.70687">
        <ele>46</ele>
        <time>2013-08-28T06:49:02Z</time>
      </trkpt>
      <trkpt lat="47.3406" lon="-0.70657">
        <ele>46</ele>
        <time>2013-08-28T06:49:02Z</time>
      </trkpt>
      <trkpt lat="47.34061" lon="-0.70649">
        <ele>46</ele>
        <time>2013-08-28T06:49:03Z</time>
      </trkpt>
      <trkpt lat="47.34064" lon="-0.70634">
        <ele>46</ele>
        <time>2013-08-28T06:49:10Z</time>
      </trkpt>
      <trkpt lat="47.34069" lon="-0.70599">
        <ele>46</ele>
        <time>2013-08-28T06:49:10Z</time>
      </trkpt>
      <trkpt lat="47.3407" lon="-0.70592">
        <ele>46</ele>
        <time>2013-08-28T06:49:11Z</time>
      </trkpt>
      <trkpt lat="47.34072" lon="-0.70578">
        <ele>46</ele>
        <time>2013-08-28T06:49:17Z</time>
      </trkpt>
      <trkpt lat="47.34077" lon="-0.70551">
        <ele>46</ele>
        <time>2013-08-28T06:49:17Z</time>
      </trkpt>
      <trkpt lat="47.34077" lon="-0.70544">
        <ele>47</ele>
        <time>2013-08-28T06:49:18Z</time>
      </trkpt>
      <trkpt lat="47.34084" lon="-0.70504">
        <ele>48</ele>
        <time>2013-08-28T06:49:24Z</time>
      </trkpt>
      <trkpt lat="47.34085" lon="-0.70497">
        <ele>49</ele>
        <time>2013-08-28T06:49:25Z</time>
      </trkpt>
      <trkpt lat="47.34086" lon="-0.7049">
        <ele>50</ele>
        <time>2013-08-28T06:49:26Z</time>
      </trkpt>
      <trkpt lat="47.34089" lon="-0.70477">
        <ele>51</ele>
        <time>2013-08-28T06:49:32Z</time>
      </trkpt>
      <trkpt lat="47.34093" lon="-0.70449">
        <ele>52</ele>
        <time>2013-08-28T06:49:32Z</time>
      </trkpt>
      <trkpt lat="47.34095" lon="-0.70442">
        <ele>53</ele>
        <time>2013-08-28T06:49:33Z</time>
      </trkpt>
      <trkpt lat="47.34097" lon="-0.70426">
        <ele>54</ele>
        <time>2013-08-28T06:49:39Z</time>
      </trkpt>
      <trkpt lat="47.34103" lon="-0.70386">
        <ele>54</ele>
        <time>2013-08-28T06:49:40Z</time>
      </trkpt>
      <trkpt lat="47.34104" lon="-0.70377">
        <ele>54</ele>
        <time>2013-08-28T06:49:41Z</time>
      </trkpt>
      <trkpt lat="47.34107" lon="-0.7036">
        <ele>54</ele>
        <time>2013-08-28T06:49:47Z</time>
      </trkpt>
      <trkpt lat="47.34113" lon="-0.70324">
        <ele>54</ele>
        <time>2013-08-28T06:49:47Z</time>
      </trkpt>
      <trkpt lat="47.34115" lon="-0.70314">
        <ele>54</ele>
        <time>2013-08-28T06:49:48Z</time>
      </trkpt>
      <trkpt lat="47.34119" lon="-0.70295">
        <ele>54</ele>
        <time>2013-08-28T06:49:55Z</time>
      </trkpt>
      <trkpt lat="47.34126" lon="-0.70248">
        <ele>54</ele>
        <time>2013-08-28T06:49:55Z</time>
      </trkpt>
      <trkpt lat="47.34127" lon="-0.70238">
        <ele>54</ele>
        <time>2013-08-28T06:49:56Z</time>
      </trkpt>
      <trkpt lat="47.34129" lon="-0.70218">
        <ele>54</ele>
        <time>2013-08-28T06:50:02Z</time>
      </trkpt>
      <trkpt lat="47.34128" lon="-0.7018">
        <ele>54</ele>
        <time>2013-08-28T06:50:02Z</time>
      </trkpt>
      <trkpt lat="47.34127" lon="-0.70171">
        <ele>54</ele>
        <time>2013-08-28T06:50:04Z</time>
      </trkpt>
      <trkpt lat="47.34125" lon="-0.70162">
        <ele>54</ele>
        <time>2013-08-28T06:50:04Z</time>
      </trkpt>
      <trkpt lat="47.34116" lon="-0.70106">
        <ele>54</ele>
        <time>2013-08-28T06:50:10Z</time>
      </trkpt>
      <trkpt lat="47.34114" lon="-0.70097">
        <ele>54</ele>
        <time>2013-08-28T06:50:11Z</time>
      </trkpt>
      <trkpt lat="47.34113" lon="-0.70088">
        <ele>54</ele>
        <time>2013-08-28T06:50:12Z</time>
      </trkpt>
      <trkpt lat="47.34108" lon="-0.70034">
        <ele>54</ele>
        <time>2013-08-28T06:50:18Z</time>
      </trkpt>
      <trkpt lat="47.34108" lon="-0.70025">
        <ele>54</ele>
        <time>2013-08-28T06:50:20Z</time>
      </trkpt>
      <trkpt lat="47.34108" lon="-0.70007">
        <ele>54</ele>
        <time>2013-08-28T06:50:25Z</time>
      </trkpt>
      <trkpt lat="47.3411" lon="-0.69972">
        <ele>54</ele>
        <time>2013-08-28T06:50:25Z</time>
      </trkpt>
      <trkpt lat="47.34111" lon="-0.69964">
        <ele>54</ele>
        <time>2013-08-28T06:50:26Z</time>
      </trkpt>
      <trkpt lat="47.34112" lon="-0.69947">
        <ele>54</ele>
        <time>2013-08-28T06:50:31Z</time>
      </trkpt>
      <trkpt lat="47.34113" lon="-0.69921">
        <ele>54</ele>
        <time>2013-08-28T06:50:31Z</time>
      </trkpt>
      <trkpt lat="47.34113" lon="-0.69913">
        <ele>54</ele>
        <time>2013-08-28T06:50:32Z</time>
      </trkpt>
      <trkpt lat="47.34113" lon="-0.69896">
        <ele>54</ele>
        <time>2013-08-28T06:50:37Z</time>
      </trkpt>
      <trkpt lat="47.34114" lon="-0.69865">
        <ele>54</ele>
        <time>2013-08-28T06:50:38Z</time>
      </trkpt>
      <trkpt lat="47.34114" lon="-0.69857">
        <ele>55</ele>
        <time>2013-08-28T06:50:39Z</time>
      </trkpt>
      <trkpt lat="47.34114" lon="-0.69842">
        <ele>55</ele>
        <time>2013-08-28T06:50:44Z</time>
      </trkpt>
      <trkpt lat="47.34116" lon="-0.69819">
        <ele>56</ele>
        <time>2013-08-28T06:50:44Z</time>
      </trkpt>
      <trkpt lat="47.34116" lon="-0.69811">
        <ele>57</ele>
        <time>2013-08-28T06:50:45Z</time>
      </trkpt>
      <trkpt lat="47.34117" lon="-0.69796">
        <ele>57</ele>
        <time>2013-08-28T06:50:51Z</time>
      </trkpt>
      <trkpt lat="47.34118" lon="-0.69765">
        <ele>58</ele>
        <time>2013-08-28T06:50:51Z</time>
      </trkpt>
      <trkpt lat="47.34119" lon="-0.69757">
        <ele>58</ele>
        <time>2013-08-28T06:50:52Z</time>
      </trkpt>
      <trkpt lat="47.34119" lon="-0.69741">
        <ele>59</ele>
        <time>2013-08-28T06:50:57Z</time>
      </trkpt>
      <trkpt lat="47.34121" lon="-0.69717">
        <ele>59</ele>
        <time>2013-08-28T06:50:57Z</time>
      </trkpt>
      <trkpt lat="47.34121" lon="-0.69709">
        <ele>59</ele>
        <time>2013-08-28T06:50:58Z</time>
      </trkpt>
      <trkpt lat="47.34122" lon="-0.69692">
        <ele>59</ele>
        <time>2013-08-28T06:51:04Z</time>
      </trkpt>
      <trkpt lat="47.34124" lon="-0.69659">
        <ele>59</ele>
        <time>2013-08-28T06:51:04Z</time>
      </trkpt>
      <trkpt lat="47.34124" lon="-0.69651">
        <ele>59</ele>
        <time>2013-08-28T06:51:05Z</time>
      </trkpt>
      <trkpt lat="47.34126" lon="-0.69634">
        <ele>59</ele>
        <time>2013-08-28T06:51:10Z</time>
      </trkpt>
      <trkpt lat="47.34127" lon="-0.69608">
        <ele>59</ele>
        <time>2013-08-28T06:51:10Z</time>
      </trkpt>
      <trkpt lat="47.34128" lon="-0.69599">
        <ele>59</ele>
        <time>2013-08-28T06:51:11Z</time>
      </trkpt>
      <trkpt lat="47.34129" lon="-0.69581">
        <ele>59</ele>
        <time>2013-08-28T06:51:17Z</time>
      </trkpt>
      <trkpt lat="47.34132" lon="-0.69544">
        <ele>59</ele>
        <time>2013-08-28T06:51:17Z</time>
      </trkpt>
      <trkpt lat="47.34132" lon="-0.69535">
        <ele>59</ele>
        <time>2013-08-28T06:51:18Z</time>
      </trkpt>
      <trkpt lat="47.34135" lon="-0.69485">
        <ele>59</ele>
        <time>2013-08-28T06:51:23Z</time>
      </trkpt>
      <trkpt lat="47.34136" lon="-0.69475">
        <ele>59</ele>
        <time>2013-08-28T06:51:24Z</time>
      </trkpt>
      <trkpt lat="47.34137" lon="-0.69465">
        <ele>59</ele>
        <time>2013-08-28T06:51:25Z</time>
      </trkpt>
      <trkpt lat="47.34137" lon="-0.69444">
        <ele>59</ele>
        <time>2013-08-28T06:51:30Z</time>
      </trkpt>
      <trkpt lat="47.34139" lon="-0.69414">
        <ele>59</ele>
        <time>2013-08-28T06:51:30Z</time>
      </trkpt>
      <trkpt lat="47.3414" lon="-0.69404">
        <ele>59</ele>
        <time>2013-08-28T06:51:31Z</time>
      </trkpt>
      <trkpt lat="47.34142" lon="-0.69383">
        <ele>59</ele>
        <time>2013-08-28T06:51:37Z</time>
      </trkpt>
      <trkpt lat="47.34157" lon="-0.69344">
        <ele>59</ele>
        <time>2013-08-28T06:51:37Z</time>
      </trkpt>
      <trkpt lat="47.34163" lon="-0.69333">
        <ele>59</ele>
        <time>2013-08-28T06:51:38Z</time>
      </trkpt>
      <trkpt lat="47.34169" lon="-0.69324">
        <ele>59</ele>
        <time>2013-08-28T06:51:39Z</time>
      </trkpt>
      <trkpt lat="47.34201" lon="-0.69284">
        <ele>59</ele>
        <time>2013-08-28T06:51:44Z</time>
      </trkpt>
      <trkpt lat="47.34208" lon="-0.69277">
        <ele>58</ele>
        <time>2013-08-28T06:51:45Z</time>
      </trkpt>
      <trkpt lat="47.34214" lon="-0.69271">
        <ele>57</ele>
        <time>2013-08-28T06:51:46Z</time>
      </trkpt>
      <trkpt lat="47.34246" lon="-0.69237">
        <ele>56</ele>
        <time>2013-08-28T06:51:51Z</time>
      </trkpt>
      <trkpt lat="47.34252" lon="-0.69231">
        <ele>55</ele>
        <time>2013-08-28T06:51:52Z</time>
      </trkpt>
      <trkpt lat="47.34264" lon="-0.69218">
        <ele>54</ele>
        <time>2013-08-28T06:51:58Z</time>
      </trkpt>
      <trkpt lat="47.34288" lon="-0.69193">
        <ele>53</ele>
        <time>2013-08-28T06:51:58Z</time>
      </trkpt>
      <trkpt lat="47.34293" lon="-0.69188">
        <ele>52</ele>
        <time>2013-08-28T06:51:59Z</time>
      </trkpt>
      <trkpt lat="47.34304" lon="-0.69176">
        <ele>51</ele>
        <time>2013-08-28T06:52:05Z</time>
      </trkpt>
      <trkpt lat="47.34325" lon="-0.69155">
        <ele>50</ele>
        <time>2013-08-28T06:52:05Z</time>
      </trkpt>
      <trkpt lat="47.34331" lon="-0.69151">
        <ele>49</ele>
        <time>2013-08-28T06:52:06Z</time>
      </trkpt>
      <trkpt lat="47.34344" lon="-0.69147">
        <ele>48</ele>
        <time>2013-08-28T06:52:12Z</time>
      </trkpt>
      <trkpt lat="47.3437" lon="-0.69152">
        <ele>48</ele>
        <time>2013-08-28T06:52:13Z</time>
      </trkpt>
      <trkpt lat="47.34377" lon="-0.69154">
        <ele>48</ele>
        <time>2013-08-28T06:52:14Z</time>
      </trkpt>
      <trkpt lat="47.34384" lon="-0.69154">
        <ele>48</ele>
        <time>2013-08-28T06:52:15Z</time>
      </trkpt>
      <trkpt lat="47.34397" lon="-0.69148">
        <ele>48</ele>
        <time>2013-08-28T06:52:20Z</time>
      </trkpt>
      <trkpt lat="47.34415" lon="-0.69121">
        <ele>48</ele>
        <time>2013-08-28T06:52:21Z</time>
      </trkpt>
      <trkpt lat="47.34418" lon="-0.69112">
        <ele>48</ele>
        <time>2013-08-28T06:52:22Z</time>
      </trkpt>
      <trkpt lat="47.34421" lon="-0.69102">
        <ele>48</ele>
        <time>2013-08-28T06:52:22Z</time>
      </trkpt>
      <trkpt lat="47.34427" lon="-0.69083">
        <ele>48</ele>
        <time>2013-08-28T06:52:28Z</time>
      </trkpt>
      <trkpt lat="47.34441" lon="-0.69045">
        <ele>48</ele>
        <time>2013-08-28T06:52:28Z</time>
      </trkpt>
      <trkpt lat="47.34444" lon="-0.69036">
        <ele>48</ele>
        <time>2013-08-28T06:52:29Z</time>
      </trkpt>
      <trkpt lat="47.34451" lon="-0.69017">
        <ele>48</ele>
        <time>2013-08-28T06:52:34Z</time>
      </trkpt>
      <trkpt lat="47.34464" lon="-0.6898">
        <ele>47</ele>
        <time>2013-08-28T06:52:35Z</time>
      </trkpt>
      <trkpt lat="47.34467" lon="-0.6897">
        <ele>47</ele>
        <time>2013-08-28T06:52:36Z</time>
      </trkpt>
      <trkpt lat="47.34472" lon="-0.68951">
        <ele>46</ele>
        <time>2013-08-28T06:52:41Z</time>
      </trkpt>
      <trkpt lat="47.34477" lon="-0.68911">
        <ele>45</ele>
        <time>2013-08-28T06:52:42Z</time>
      </trkpt>
      <trkpt lat="47.34476" lon="-0.68901">
        <ele>45</ele>
        <time>2013-08-28T06:52:43Z</time>
      </trkpt>
      <trkpt lat="47.34474" lon="-0.6888">
        <ele>44</ele>
        <time>2013-08-28T06:52:50Z</time>
      </trkpt>
      <trkpt lat="47.34461" lon="-0.68832">
        <ele>44</ele>
        <time>2013-08-28T06:52:50Z</time>
      </trkpt>
      <trkpt lat="47.34458" lon="-0.68812">
        <ele>44</ele>
        <time>2013-08-28T06:52:56Z</time>
      </trkpt>
      <trkpt lat="47.34453" lon="-0.6877">
        <ele>44</ele>
        <time>2013-08-28T06:52:56Z</time>
      </trkpt>
      <trkpt lat="47.34453" lon="-0.68759">
        <ele>43</ele>
        <time>2013-08-28T06:52:57Z</time>
      </trkpt>
      <trkpt lat="47.34452" lon="-0.68737">
        <ele>43</ele>
        <time>2013-08-28T06:53:03Z</time>
      </trkpt>
      <trkpt lat="47.34455" lon="-0.68694">
        <ele>43</ele>
        <time>2013-08-28T06:53:03Z</time>
      </trkpt>
      <trkpt lat="47.34457" lon="-0.68684">
        <ele>43</ele>
        <time>2013-08-28T06:53:04Z</time>
      </trkpt>
      <trkpt lat="47.34461" lon="-0.68663">
        <ele>43</ele>
        <time>2013-08-28T06:53:10Z</time>
      </trkpt>
      <trkpt lat="47.34471" lon="-0.68616">
        <ele>43</ele>
        <time>2013-08-28T06:53:10Z</time>
      </trkpt>
      <trkpt lat="47.34474" lon="-0.68603">
        <ele>43</ele>
        <time>2013-08-28T06:53:11Z</time>
      </trkpt>
      <trkpt lat="47.34478" lon="-0.68578">
        <ele>43</ele>
        <time>2013-08-28T06:53:17Z</time>
      </trkpt>
      <trkpt lat="47.34481" lon="-0.68528">
        <ele>42</ele>
        <time>2013-08-28T06:53:17Z</time>
      </trkpt>
      <trkpt lat="47.3448" lon="-0.68515">
        <ele>42</ele>
        <time>2013-08-28T06:53:18Z</time>
      </trkpt>
      <trkpt lat="47.34478" lon="-0.68503">
        <ele>42</ele>
        <time>2013-08-28T06:53:20Z</time>
      </trkpt>
      <trkpt lat="47.34472" lon="-0.6848">
        <ele>42</ele>
        <time>2013-08-28T06:53:25Z</time>
      </trkpt>
      <trkpt lat="47.34457" lon="-0.68435">
        <ele>42</ele>
        <time>2013-08-28T06:53:25Z</time>
      </trkpt>
      <trkpt lat="47.34454" lon="-0.68424">
        <ele>42</ele>
        <time>2013-08-28T06:53:26Z</time>
      </trkpt>
      <trkpt lat="47.34478" lon="-0.68375">
        <ele>42</ele>
        <time>2013-08-28T06:53:32Z</time>
      </trkpt>
      <trkpt lat="47.34486" lon="-0.68375">
        <ele>42</ele>
        <time>2013-08-28T06:53:34Z</time>
      </trkpt>
      <trkpt lat="47.34495" lon="-0.68378">
        <ele>42</ele>
        <time>2013-08-28T06:53:34Z</time>
      </trkpt>
      <trkpt lat="47.34502" lon="-0.6838">
        <ele>42</ele>
        <time>2013-08-28T06:53:35Z</time>
      </trkpt>
      <trkpt lat="47.34519" lon="-0.68384">
        <ele>42</ele>
        <time>2013-08-28T06:53:41Z</time>
      </trkpt>
      <trkpt lat="47.3455" lon="-0.68367">
        <ele>41</ele>
        <time>2013-08-28T06:53:41Z</time>
      </trkpt>
      <trkpt lat="47.34556" lon="-0.68357">
        <ele>40</ele>
        <time>2013-08-28T06:53:42Z</time>
      </trkpt>
      <trkpt lat="47.3456" lon="-0.68346">
        <ele>39</ele>
        <time>2013-08-28T06:53:43Z</time>
      </trkpt>
      <trkpt lat="47.34564" lon="-0.68322">
        <ele>38</ele>
        <time>2013-08-28T06:53:50Z</time>
      </trkpt>
      <trkpt lat="47.34568" lon="-0.68266">
        <ele>37</ele>
        <time>2013-08-28T06:53:51Z</time>
      </trkpt>
      <trkpt lat="47.3457" lon="-0.68256">
        <ele>36</ele>
        <time>2013-08-28T06:53:51Z</time>
      </trkpt>
      <trkpt lat="47.34579" lon="-0.68231">
        <ele>35</ele>
        <time>2013-08-28T06:53:57Z</time>
      </trkpt>
      <trkpt lat="47.34597" lon="-0.68193">
        <ele>34</ele>
        <time>2013-08-28T06:53:57Z</time>
      </trkpt>
      <trkpt lat="47.34601" lon="-0.68184">
        <ele>33</ele>
        <time>2013-08-28T06:53:58Z</time>
      </trkpt>
      <trkpt lat="47.34616" lon="-0.68117">
        <ele>32</ele>
        <time>2013-08-28T06:54:04Z</time>
      </trkpt>
      <trkpt lat="47.34618" lon="-0.68107">
        <ele>31</ele>
        <time>2013-08-28T06:54:06Z</time>
      </trkpt>
      <trkpt lat="47.34619" lon="-0.68098">
        <ele>30</ele>
        <time>2013-08-28T06:54:07Z</time>
      </trkpt>
      <trkpt lat="47.34639" lon="-0.68037">
        <ele>29</ele>
        <time>2013-08-28T06:54:12Z</time>
      </trkpt>
      <trkpt lat="47.34643" lon="-0.68026">
        <ele>28</ele>
        <time>2013-08-28T06:54:13Z</time>
      </trkpt>
      <trkpt lat="47.3465" lon="-0.68003">
        <ele>27</ele>
        <time>2013-08-28T06:54:19Z</time>
      </trkpt>
      <trkpt lat="47.34664" lon="-0.6794">
        <ele>26</ele>
        <time>2013-08-28T06:54:20Z</time>
      </trkpt>
      <trkpt lat="47.34664" lon="-0.67928">
        <ele>26</ele>
        <time>2013-08-28T06:54:21Z</time>
      </trkpt>
      <trkpt lat="47.34663" lon="-0.67915">
        <ele>25</ele>
        <time>2013-08-28T06:54:22Z</time>
      </trkpt>
      <trkpt lat="47.34663" lon="-0.67892">
        <ele>25</ele>
        <time>2013-08-28T06:54:28Z</time>
      </trkpt>
      <trkpt lat="47.34667" lon="-0.67847">
        <ele>24</ele>
        <time>2013-08-28T06:54:28Z</time>
      </trkpt>
      <trkpt lat="47.34669" lon="-0.67836">
        <ele>24</ele>
        <time>2013-08-28T06:54:29Z</time>
      </trkpt>
      <trkpt lat="47.34672" lon="-0.67812">
        <ele>24</ele>
        <time>2013-08-28T06:54:35Z</time>
      </trkpt>
      <trkpt lat="47.34691" lon="-0.67767">
        <ele>24</ele>
        <time>2013-08-28T06:54:35Z</time>
      </trkpt>
      <trkpt lat="47.34697" lon="-0.67758">
        <ele>24</ele>
        <time>2013-08-28T06:54:36Z</time>
      </trkpt>
      <trkpt lat="47.34701" lon="-0.67749">
        <ele>24</ele>
        <time>2013-08-28T06:54:38Z</time>
      </trkpt>
      <trkpt lat="47.34734" lon="-0.6769">
        <ele>24</ele>
        <time>2013-08-28T06:54:43Z</time>
      </trkpt>
      <trkpt lat="47.34739" lon="-0.67679">
        <ele>24</ele>
        <time>2013-08-28T06:54:44Z</time>
      </trkpt>
      <trkpt lat="47.34747" lon="-0.67656">
        <ele>23</ele>
        <time>2013-08-28T06:54:51Z</time>
      </trkpt>
      <trkpt lat="47.34765" lon="-0.67598">
        <ele>22</ele>
        <time>2013-08-28T06:54:51Z</time>
      </trkpt>
      <trkpt lat="47.34768" lon="-0.67586">
        <ele>21</ele>
        <time>2013-08-28T06:54:52Z</time>
      </trkpt>
      <trkpt lat="47.34774" lon="-0.67562">
        <ele>20</ele>
        <time>2013-08-28T06:54:58Z</time>
      </trkpt>
      <trkpt lat="47.34779" lon="-0.67515">
        <ele>19</ele>
        <time>2013-08-28T06:54:58Z</time>
      </trkpt>
      <trkpt lat="47.34778" lon="-0.67503">
        <ele>18</ele>
        <time>2013-08-28T06:54:59Z</time>
      </trkpt>
      <trkpt lat="47.34777" lon="-0.67491">
        <ele>17</ele>
        <time>2013-08-28T06:55:01Z</time>
      </trkpt>
      <trkpt lat="47.34774" lon="-0.67467">
        <ele>16</ele>
        <time>2013-08-28T06:55:06Z</time>
      </trkpt>
      <trkpt lat="47.34771" lon="-0.67411">
        <ele>15</ele>
        <time>2013-08-28T06:55:07Z</time>
      </trkpt>
      <trkpt lat="47.34772" lon="-0.67399">
        <ele>15</ele>
        <time>2013-08-28T06:55:08Z</time>
      </trkpt>
      <trkpt lat="47.34775" lon="-0.67376">
        <ele>15</ele>
        <time>2013-08-28T06:55:15Z</time>
      </trkpt>
      <trkpt lat="47.34792" lon="-0.67319">
        <ele>15</ele>
        <time>2013-08-28T06:55:15Z</time>
      </trkpt>
      <trkpt lat="47.34797" lon="-0.67309">
        <ele>15</ele>
        <time>2013-08-28T06:55:16Z</time>
      </trkpt>
      <trkpt lat="47.34806" lon="-0.67294">
        <ele>15</ele>
        <time>2013-08-28T06:55:23Z</time>
      </trkpt>
      <trkpt lat="47.34835" lon="-0.67251">
        <ele>15</ele>
        <time>2013-08-28T06:55:24Z</time>
      </trkpt>
      <trkpt lat="47.34865" lon="-0.67208">
        <ele>15</ele>
        <time>2013-08-28T06:55:30Z</time>
      </trkpt>
      <trkpt lat="47.3487" lon="-0.67201">
        <ele>15</ele>
        <time>2013-08-28T06:55:31Z</time>
      </trkpt>
      <trkpt lat="47.3488" lon="-0.67186">
        <ele>15</ele>
        <time>2013-08-28T06:55:38Z</time>
      </trkpt>
      <trkpt lat="47.34902" lon="-0.6715">
        <ele>16</ele>
        <time>2013-08-28T06:55:38Z</time>
      </trkpt>
      <trkpt lat="47.34906" lon="-0.67142">
        <ele>17</ele>
        <time>2013-08-28T06:55:39Z</time>
      </trkpt>
      <trkpt lat="47.34915" lon="-0.67128">
        <ele>18</ele>
        <time>2013-08-28T06:55:45Z</time>
      </trkpt>
      <trkpt lat="47.34938" lon="-0.67089">
        <ele>19</ele>
        <time>2013-08-28T06:55:46Z</time>
      </trkpt>
      <trkpt lat="47.34943" lon="-0.67082">
        <ele>19</ele>
        <time>2013-08-28T06:55:47Z</time>
      </trkpt>
      <trkpt lat="47.34953" lon="-0.67067">
        <ele>19</ele>
        <time>2013-08-28T06:55:53Z</time>
      </trkpt>
      <trkpt lat="47.3497" lon="-0.67038">
        <ele>20</ele>
        <time>2013-08-28T06:55:53Z</time>
      </trkpt>
      <trkpt lat="47.34974" lon="-0.67031">
        <ele>20</ele>
        <time>2013-08-28T06:55:54Z</time>
      </trkpt>
      <trkpt lat="47.34983" lon="-0.67016">
        <ele>21</ele>
        <time>2013-08-28T06:56:01Z</time>
      </trkpt>
      <trkpt lat="47.35004" lon="-0.66979">
        <ele>22</ele>
        <time>2013-08-28T06:56:01Z</time>
      </trkpt>
      <trkpt lat="47.35009" lon="-0.66972">
        <ele>23</ele>
        <time>2013-08-28T06:56:02Z</time>
      </trkpt>
      <trkpt lat="47.35034" lon="-0.66927">
        <ele>23</ele>
        <time>2013-08-28T06:56:08Z</time>
      </trkpt>
      <trkpt lat="47.35039" lon="-0.6692">
        <ele>24</ele>
        <time>2013-08-28T06:56:09Z</time>
      </trkpt>
      <trkpt lat="47.35043" lon="-0.66912">
        <ele>24</ele>
        <time>2013-08-28T06:56:10Z</time>
      </trkpt>
      <trkpt lat="47.3507" lon="-0.66865">
        <ele>24</ele>
        <time>2013-08-28T06:56:16Z</time>
      </trkpt>
      <trkpt lat="47.35074" lon="-0.66856">
        <ele>24</ele>
        <time>2013-08-28T06:56:17Z</time>
      </trkpt>
      <trkpt lat="47.35083" lon="-0.6684">
        <ele>24</ele>
        <time>2013-08-28T06:56:24Z</time>
      </trkpt>
      <trkpt lat="47.35107" lon="-0.66799">
        <ele>24</ele>
        <time>2013-08-28T06:56:25Z</time>
      </trkpt>
      <trkpt lat="47.35112" lon="-0.6679">
        <ele>24</ele>
        <time>2013-08-28T06:56:25Z</time>
      </trkpt>
      <trkpt lat="47.35135" lon="-0.66748">
        <ele>24</ele>
        <time>2013-08-28T06:56:30Z</time>
      </trkpt>
      <trkpt lat="47.35139" lon="-0.66741">
        <ele>23</ele>
        <time>2013-08-28T06:56:31Z</time>
      </trkpt>
      <trkpt lat="47.35148" lon="-0.66726">
        <ele>22</ele>
        <time>2013-08-28T06:56:37Z</time>
      </trkpt>
      <trkpt lat="47.35166" lon="-0.66695">
        <ele>21</ele>
        <time>2013-08-28T06:56:37Z</time>
      </trkpt>
      <trkpt lat="47.3517" lon="-0.66687">
        <ele>21</ele>
        <time>2013-08-28T06:56:38Z</time>
      </trkpt>
      <trkpt lat="47.35178" lon="-0.66673">
        <ele>21</ele>
        <time>2013-08-28T06:56:43Z</time>
      </trkpt>
      <trkpt lat="47.35191" lon="-0.66651">
        <ele>21</ele>
        <time>2013-08-28T06:56:43Z</time>
      </trkpt>
      <trkpt lat="47.35195" lon="-0.66644">
        <ele>21</ele>
        <time>2013-08-28T06:56:44Z</time>
      </trkpt>
      <trkpt lat="47.35204" lon="-0.66628">
        <ele>21</ele>
        <time>2013-08-28T06:56:50Z</time>
      </trkpt>
      <trkpt lat="47.35223" lon="-0.66599">
        <ele>21</ele>
        <time>2013-08-28T06:56:50Z</time>
      </trkpt>
      <trkpt lat="47.35227" lon="-0.66591">
        <ele>21</ele>
        <time>2013-08-28T06:56:51Z</time>
      </trkpt>
      <trkpt lat="47.35237" lon="-0.66575">
        <ele>21</ele>
        <time>2013-08-28T06:56:56Z</time>
      </trkpt>
      <trkpt lat="47.3525" lon="-0.66553">
        <ele>21</ele>
        <time>2013-08-28T06:56:56Z</time>
      </trkpt>
      <trkpt lat="47.35255" lon="-0.66546">
        <ele>21</ele>
        <time>2013-08-28T06:56:57Z</time>
      </trkpt>
      <trkpt lat="47.35264" lon="-0.66531">
        <ele>21</ele>
        <time>2013-08-28T06:57:03Z</time>
      </trkpt>
      <trkpt lat="47.35281" lon="-0.66502">
        <ele>21</ele>
        <time>2013-08-28T06:57:03Z</time>
      </trkpt>
      <trkpt lat="47.35285" lon="-0.66495">
        <ele>21</ele>
        <time>2013-08-28T06:57:04Z</time>
      </trkpt>
      <trkpt lat="47.35294" lon="-0.66481">
        <ele>21</ele>
        <time>2013-08-28T06:57:09Z</time>
      </trkpt>
      <trkpt lat="47.35308" lon="-0.66462">
        <ele>21</ele>
        <time>2013-08-28T06:57:09Z</time>
      </trkpt>
      <trkpt lat="47.35313" lon="-0.66456">
        <ele>21</ele>
        <time>2013-08-28T06:57:10Z</time>
      </trkpt>
      <trkpt lat="47.35324" lon="-0.66444">
        <ele>21</ele>
        <time>2013-08-28T06:57:16Z</time>
      </trkpt>
      <trkpt lat="47.35348" lon="-0.66421">
        <ele>21</ele>
        <time>2013-08-28T06:57:16Z</time>
      </trkpt>
      <trkpt lat="47.35354" lon="-0.66416">
        <ele>21</ele>
        <time>2013-08-28T06:57:17Z</time>
      </trkpt>
      <trkpt lat="47.35367" lon="-0.66406">
        <ele>21</ele>
        <time>2013-08-28T06:57:22Z</time>
      </trkpt>
      <trkpt lat="47.35386" lon="-0.66393">
        <ele>21</ele>
        <time>2013-08-28T06:57:22Z</time>
      </trkpt>
      <trkpt lat="47.35392" lon="-0.66389">
        <ele>20</ele>
        <time>2013-08-28T06:57:23Z</time>
      </trkpt>
      <trkpt lat="47.35403" lon="-0.6638">
        <ele>19</ele>
        <time>2013-08-28T06:57:29Z</time>
      </trkpt>
      <trkpt lat="47.35426" lon="-0.66364">
        <ele>18</ele>
        <time>2013-08-28T06:57:29Z</time>
      </trkpt>
      <trkpt lat="47.35432" lon="-0.6636">
        <ele>17</ele>
        <time>2013-08-28T06:57:30Z</time>
      </trkpt>
      <trkpt lat="47.35445" lon="-0.66353">
        <ele>16</ele>
        <time>2013-08-28T06:57:35Z</time>
      </trkpt>
      <trkpt lat="47.35463" lon="-0.66341">
        <ele>15</ele>
        <time>2013-08-28T06:57:35Z</time>
      </trkpt>
      <trkpt lat="47.35468" lon="-0.66336">
        <ele>14</ele>
        <time>2013-08-28T06:57:36Z</time>
      </trkpt>
      <trkpt lat="47.35479" lon="-0.66326">
        <ele>13</ele>
        <time>2013-08-28T06:57:42Z</time>
      </trkpt>
      <trkpt lat="47.355" lon="-0.66302">
        <ele>12</ele>
        <time>2013-08-28T06:57:42Z</time>
      </trkpt>
      <trkpt lat="47.35504" lon="-0.66296">
        <ele>11</ele>
        <time>2013-08-28T06:57:43Z</time>
      </trkpt>
      <trkpt lat="47.35528" lon="-0.66265">
        <ele>11</ele>
        <time>2013-08-28T06:57:48Z</time>
      </trkpt>
      <trkpt lat="47.35533" lon="-0.66259">
        <ele>11</ele>
        <time>2013-08-28T06:57:49Z</time>
      </trkpt>
      <trkpt lat="47.35543" lon="-0.66247">
        <ele>11</ele>
        <time>2013-08-28T06:57:55Z</time>
      </trkpt>
      <trkpt lat="47.35558" lon="-0.66225">
        <ele>11</ele>
        <time>2013-08-28T06:57:55Z</time>
      </trkpt>
      <trkpt lat="47.35562" lon="-0.66219">
        <ele>12</ele>
        <time>2013-08-28T06:57:56Z</time>
      </trkpt>
      <trkpt lat="47.35569" lon="-0.66206">
        <ele>13</ele>
        <time>2013-08-28T06:58:01Z</time>
      </trkpt>
      <trkpt lat="47.35584" lon="-0.66176">
        <ele>14</ele>
        <time>2013-08-28T06:58:02Z</time>
      </trkpt>
      <trkpt lat="47.35587" lon="-0.66168">
        <ele>15</ele>
        <time>2013-08-28T06:58:03Z</time>
      </trkpt>
      <trkpt lat="47.35594" lon="-0.66151">
        <ele>16</ele>
        <time>2013-08-28T06:58:08Z</time>
      </trkpt>
      <trkpt lat="47.35602" lon="-0.66123">
        <ele>17</ele>
        <time>2013-08-28T06:58:08Z</time>
      </trkpt>
      <trkpt lat="47.35604" lon="-0.66114">
        <ele>18</ele>
        <time>2013-08-28T06:58:09Z</time>
      </trkpt>
      <trkpt lat="47.35609" lon="-0.66096">
        <ele>19</ele>
        <time>2013-08-28T06:58:15Z</time>
      </trkpt>
      <trkpt lat="47.35619" lon="-0.66059">
        <ele>19</ele>
        <time>2013-08-28T06:58:15Z</time>
      </trkpt>
      <trkpt lat="47.35621" lon="-0.6605">
        <ele>19</ele>
        <time>2013-08-28T06:58:16Z</time>
      </trkpt>
      <trkpt lat="47.35625" lon="-0.66033">
        <ele>19</ele>
        <time>2013-08-28T06:58:21Z</time>
      </trkpt>
      <trkpt lat="47.35634" lon="-0.65998">
        <ele>19</ele>
        <time>2013-08-28T06:58:22Z</time>
      </trkpt>
      <trkpt lat="47.35636" lon="-0.65989">
        <ele>19</ele>
        <time>2013-08-28T06:58:23Z</time>
      </trkpt>
      <trkpt lat="47.35647" lon="-0.65946">
        <ele>19</ele>
        <time>2013-08-28T06:58:28Z</time>
      </trkpt>
      <trkpt lat="47.35648" lon="-0.65937">
        <ele>19</ele>
        <time>2013-08-28T06:58:29Z</time>
      </trkpt>
      <trkpt lat="47.35652" lon="-0.65922">
        <ele>19</ele>
        <time>2013-08-28T06:58:35Z</time>
      </trkpt>
      <trkpt lat="47.3566" lon="-0.6589">
        <ele>19</ele>
        <time>2013-08-28T06:58:35Z</time>
      </trkpt>
      <trkpt lat="47.35662" lon="-0.65882">
        <ele>19</ele>
        <time>2013-08-28T06:58:36Z</time>
      </trkpt>
      <trkpt lat="47.35666" lon="-0.65864">
        <ele>19</ele>
        <time>2013-08-28T06:58:42Z</time>
      </trkpt>
      <trkpt lat="47.35674" lon="-0.65833">
        <ele>19</ele>
        <time>2013-08-28T06:58:42Z</time>
      </trkpt>
      <trkpt lat="47.35676" lon="-0.65825">
        <ele>19</ele>
        <time>2013-08-28T06:58:43Z</time>
      </trkpt>
      <trkpt lat="47.35683" lon="-0.65789">
        <ele>19</ele>
        <time>2013-08-28T06:58:48Z</time>
      </trkpt>
      <trkpt lat="47.35685" lon="-0.65782">
        <ele>20</ele>
        <time>2013-08-28T06:58:49Z</time>
      </trkpt>
      <trkpt lat="47.3569" lon="-0.65764">
        <ele>21</ele>
        <time>2013-08-28T06:58:55Z</time>
      </trkpt>
      <trkpt lat="47.357" lon="-0.65733">
        <ele>21</ele>
        <time>2013-08-28T06:58:55Z</time>
      </trkpt>
      <trkpt lat="47.35702" lon="-0.65724">
        <ele>21</ele>
        <time>2013-08-28T06:58:56Z</time>
      </trkpt>
      <trkpt lat="47.35705" lon="-0.65709">
        <ele>21</ele>
        <time>2013-08-28T06:59:02Z</time>
      </trkpt>
      <trkpt lat="47.35712" lon="-0.65677">
        <ele>21</ele>
        <time>2013-08-28T06:59:02Z</time>
      </trkpt>
      <trkpt lat="47.35714" lon="-0.65671">
        <ele>21</ele>
        <time>2013-08-28T06:59:03Z</time>
      </trkpt>
      <trkpt lat="47.35717" lon="-0.65657">
        <ele>21</ele>
        <time>2013-08-28T06:59:08Z</time>
      </trkpt>
      <trkpt lat="47.35722" lon="-0.6563">
        <ele>21</ele>
        <time>2013-08-28T06:59:09Z</time>
      </trkpt>
      <trkpt lat="47.35723" lon="-0.65626">
        <ele>21</ele>
        <time>2013-08-28T06:59:10Z</time>
      </trkpt>
      <trkpt lat="47.35726" lon="-0.6561">
        <ele>21</ele>
        <time>2013-08-28T06:59:15Z</time>
      </trkpt>
      <trkpt lat="47.35728" lon="-0.65605">
        <ele>21</ele>
        <time>2013-08-28T06:59:22Z</time>
      </trkpt>
      <trkpt lat="47.35731" lon="-0.65604">
        <ele>21</ele>
        <time>2013-08-28T06:59:22Z</time>
      </trkpt>
      <trkpt lat="47.35729" lon="-0.65603">
        <ele>22</ele>
        <time>2013-08-28T06:59:25Z</time>
      </trkpt>
      <trkpt lat="47.35732" lon="-0.65604">
        <ele>24</ele>
        <time>2013-08-28T06:59:31Z</time>
      </trkpt>
      <trkpt lat="47.35737" lon="-0.65605">
        <ele>25</ele>
        <time>2013-08-28T06:59:32Z</time>
      </trkpt>
      <trkpt lat="47.35738" lon="-0.65601">
        <ele>27</ele>
        <time>2013-08-28T06:59:39Z</time>
      </trkpt>
      <trkpt lat="47.35739" lon="-0.6558">
        <ele>27</ele>
        <time>2013-08-28T06:59:41Z</time>
      </trkpt>
      <trkpt lat="47.3574" lon="-0.65574">
        <ele>27</ele>
        <time>2013-08-28T06:59:42Z</time>
      </trkpt>
      <trkpt lat="47.35741" lon="-0.65568">
        <ele>27</ele>
        <time>2013-08-28T06:59:42Z</time>
      </trkpt>
      <trkpt lat="47.35748" lon="-0.65535">
        <ele>27</ele>
        <time>2013-08-28T06:59:47Z</time>
      </trkpt>
      <trkpt lat="47.3575" lon="-0.65529">
        <ele>27</ele>
        <time>2013-08-28T06:59:48Z</time>
      </trkpt>
      <trkpt lat="47.35753" lon="-0.65522">
        <ele>27</ele>
        <time>2013-08-28T06:59:49Z</time>
      </trkpt>
      <trkpt lat="47.35761" lon="-0.65487">
        <ele>27</ele>
        <time>2013-08-28T06:59:54Z</time>
      </trkpt>
      <trkpt lat="47.35763" lon="-0.65482">
        <ele>26</ele>
        <time>2013-08-28T06:59:55Z</time>
      </trkpt>
      <trkpt lat="47.35764" lon="-0.65476">
        <ele>26</ele>
        <time>2013-08-28T06:59:56Z</time>
      </trkpt>
      <trkpt lat="47.35771" lon="-0.65442">
        <ele>26</ele>
        <time>2013-08-28T07:00:01Z</time>
      </trkpt>
      <trkpt lat="47.35773" lon="-0.65436">
        <ele>26</ele>
        <time>2013-08-28T07:00:02Z</time>
      </trkpt>
      <trkpt lat="47.35775" lon="-0.65429">
        <ele>26</ele>
        <time>2013-08-28T07:00:03Z</time>
      </trkpt>
      <trkpt lat="47.35783" lon="-0.65389">
        <ele>26</ele>
        <time>2013-08-28T07:00:08Z</time>
      </trkpt>
      <trkpt lat="47.35785" lon="-0.6538">
        <ele>26</ele>
        <time>2013-08-28T07:00:09Z</time>
      </trkpt>
      <trkpt lat="47.35788" lon="-0.65371">
        <ele>26</ele>
        <time>2013-08-28T07:00:10Z</time>
      </trkpt>
      <trkpt lat="47.35797" lon="-0.65328">
        <ele>26</ele>
        <time>2013-08-28T07:00:15Z</time>
      </trkpt>
      <trkpt lat="47.35799" lon="-0.6532">
        <ele>26</ele>
        <time>2013-08-28T07:00:16Z</time>
      </trkpt>
      <trkpt lat="47.35801" lon="-0.65311">
        <ele>26</ele>
        <time>2013-08-28T07:00:17Z</time>
      </trkpt>
      <trkpt lat="47.35811" lon="-0.6527">
        <ele>26</ele>
        <time>2013-08-28T07:00:22Z</time>
      </trkpt>
      <trkpt lat="47.35813" lon="-0.65261">
        <ele>26</ele>
        <time>2013-08-28T07:00:23Z</time>
      </trkpt>
      <trkpt lat="47.35815" lon="-0.65252">
        <ele>25</ele>
        <time>2013-08-28T07:00:24Z</time>
      </trkpt>
      <trkpt lat="47.35819" lon="-0.65235">
        <ele>25</ele>
        <time>2013-08-28T07:00:29Z</time>
      </trkpt>
      <trkpt lat="47.35828" lon="-0.65201">
        <ele>25</ele>
        <time>2013-08-28T07:00:30Z</time>
      </trkpt>
      <trkpt lat="47.3583" lon="-0.65192">
        <ele>25</ele>
        <time>2013-08-28T07:00:31Z</time>
      </trkpt>
      <trkpt lat="47.35835" lon="-0.65174">
        <ele>25</ele>
        <time>2013-08-28T07:00:36Z</time>
      </trkpt>
      <trkpt lat="47.35843" lon="-0.65139">
        <ele>25</ele>
        <time>2013-08-28T07:00:37Z</time>
      </trkpt>
      <trkpt lat="47.35846" lon="-0.6513">
        <ele>25</ele>
        <time>2013-08-28T07:00:38Z</time>
      </trkpt>
      <trkpt lat="47.3585" lon="-0.65112">
        <ele>24</ele>
        <time>2013-08-28T07:00:43Z</time>
      </trkpt>
      <trkpt lat="47.35859" lon="-0.65079">
        <ele>24</ele>
        <time>2013-08-28T07:00:44Z</time>
      </trkpt>
      <trkpt lat="47.35861" lon="-0.65072">
        <ele>24</ele>
        <time>2013-08-28T07:00:45Z</time>
      </trkpt>
      <trkpt lat="47.35865" lon="-0.65055">
        <ele>24</ele>
        <time>2013-08-28T07:00:50Z</time>
      </trkpt>
      <trkpt lat="47.35874" lon="-0.6502">
        <ele>24</ele>
        <time>2013-08-28T07:00:51Z</time>
      </trkpt>
      <trkpt lat="47.35876" lon="-0.65012">
        <ele>24</ele>
        <time>2013-08-28T07:00:52Z</time>
      </trkpt>
      <trkpt lat="47.35881" lon="-0.64996">
        <ele>24</ele>
        <time>2013-08-28T07:00:57Z</time>
      </trkpt>
      <trkpt lat="47.35887" lon="-0.64966">
        <ele>24</ele>
        <time>2013-08-28T07:00:58Z</time>
      </trkpt>
      <trkpt lat="47.3589" lon="-0.64957">
        <ele>24</ele>
        <time>2013-08-28T07:00:59Z</time>
      </trkpt>
      <trkpt lat="47.35895" lon="-0.6494">
        <ele>24</ele>
        <time>2013-08-28T07:01:04Z</time>
      </trkpt>
      <trkpt lat="47.35908" lon="-0.64908">
        <ele>25</ele>
        <time>2013-08-28T07:01:05Z</time>
      </trkpt>
      <trkpt lat="47.35912" lon="-0.649">
        <ele>25</ele>
        <time>2013-08-28T07:01:06Z</time>
      </trkpt>
      <trkpt lat="47.35918" lon="-0.64884">
        <ele>25</ele>
        <time>2013-08-28T07:01:11Z</time>
      </trkpt>
      <trkpt lat="47.3593" lon="-0.64854">
        <ele>25</ele>
        <time>2013-08-28T07:01:12Z</time>
      </trkpt>
      <trkpt lat="47.35933" lon="-0.64846">
        <ele>25</ele>
        <time>2013-08-28T07:01:13Z</time>
      </trkpt>
      <trkpt lat="47.35939" lon="-0.64832">
        <ele>25</ele>
        <time>2013-08-28T07:01:18Z</time>
      </trkpt>
      <trkpt lat="47.3595" lon="-0.64803">
        <ele>25</ele>
        <time>2013-08-28T07:01:19Z</time>
      </trkpt>
      <trkpt lat="47.35953" lon="-0.64796">
        <ele>26</ele>
        <time>2013-08-28T07:01:20Z</time>
      </trkpt>
      <trkpt lat="47.35958" lon="-0.64779">
        <ele>27</ele>
        <time>2013-08-28T07:01:25Z</time>
      </trkpt>
      <trkpt lat="47.35966" lon="-0.64748">
        <ele>27</ele>
        <time>2013-08-28T07:01:26Z</time>
      </trkpt>
      <trkpt lat="47.35968" lon="-0.64741">
        <ele>27</ele>
        <time>2013-08-28T07:01:27Z</time>
      </trkpt>
      <trkpt lat="47.35972" lon="-0.64729">
        <ele>27</ele>
        <time>2013-08-28T07:01:32Z</time>
      </trkpt>
      <trkpt lat="47.35979" lon="-0.64698">
        <ele>27</ele>
        <time>2013-08-28T07:01:33Z</time>
      </trkpt>
      <trkpt lat="47.35981" lon="-0.64688">
        <ele>27</ele>
        <time>2013-08-28T07:01:34Z</time>
      </trkpt>
      <trkpt lat="47.35985" lon="-0.6467">
        <ele>27</ele>
        <time>2013-08-28T07:01:39Z</time>
      </trkpt>
      <trkpt lat="47.35994" lon="-0.64636">
        <ele>27</ele>
        <time>2013-08-28T07:01:40Z</time>
      </trkpt>
      <trkpt lat="47.35996" lon="-0.64627">
        <ele>27</ele>
        <time>2013-08-28T07:01:41Z</time>
      </trkpt>
      <trkpt lat="47.36" lon="-0.6461">
        <ele>27</ele>
        <time>2013-08-28T07:01:46Z</time>
      </trkpt>
      <trkpt lat="47.36009" lon="-0.64576">
        <ele>27</ele>
        <time>2013-08-28T07:01:47Z</time>
      </trkpt>
      <trkpt lat="47.36011" lon="-0.64568">
        <ele>28</ele>
        <time>2013-08-28T07:01:48Z</time>
      </trkpt>
      <trkpt lat="47.36015" lon="-0.64551">
        <ele>29</ele>
        <time>2013-08-28T07:01:54Z</time>
      </trkpt>
      <trkpt lat="47.36024" lon="-0.64518">
        <ele>30</ele>
        <time>2013-08-28T07:01:54Z</time>
      </trkpt>
      <trkpt lat="47.36026" lon="-0.6451">
        <ele>31</ele>
        <time>2013-08-28T07:01:55Z</time>
      </trkpt>
      <trkpt lat="47.3603" lon="-0.64493">
        <ele>31</ele>
        <time>2013-08-28T07:02:01Z</time>
      </trkpt>
      <trkpt lat="47.36039" lon="-0.64458">
        <ele>32</ele>
        <time>2013-08-28T07:02:01Z</time>
      </trkpt>
      <trkpt lat="47.36042" lon="-0.64449">
        <ele>32</ele>
        <time>2013-08-28T07:02:02Z</time>
      </trkpt>
      <trkpt lat="47.36047" lon="-0.64431">
        <ele>32</ele>
        <time>2013-08-28T07:02:08Z</time>
      </trkpt>
      <trkpt lat="47.3606" lon="-0.64389">
        <ele>32</ele>
        <time>2013-08-28T07:02:08Z</time>
      </trkpt>
      <trkpt lat="47.36064" lon="-0.64378">
        <ele>32</ele>
        <time>2013-08-28T07:02:09Z</time>
      </trkpt>
      <trkpt lat="47.36072" lon="-0.64358">
        <ele>31</ele>
        <time>2013-08-28T07:02:15Z</time>
      </trkpt>
      <trkpt lat="47.36087" lon="-0.64316">
        <ele>30</ele>
        <time>2013-08-28T07:02:15Z</time>
      </trkpt>
      <trkpt lat="47.3609" lon="-0.64306">
        <ele>29</ele>
        <time>2013-08-28T07:02:16Z</time>
      </trkpt>
      <trkpt lat="47.36098" lon="-0.64285">
        <ele>27</ele>
        <time>2013-08-28T07:02:22Z</time>
      </trkpt>
      <trkpt lat="47.36115" lon="-0.64242">
        <ele>25</ele>
        <time>2013-08-28T07:02:22Z</time>
      </trkpt>
      <trkpt lat="47.36118" lon="-0.64231">
        <ele>23</ele>
        <time>2013-08-28T07:02:23Z</time>
      </trkpt>
      <trkpt lat="47.36126" lon="-0.6421">
        <ele>21</ele>
        <time>2013-08-28T07:02:29Z</time>
      </trkpt>
      <trkpt lat="47.36142" lon="-0.64166">
        <ele>19</ele>
        <time>2013-08-28T07:02:29Z</time>
      </trkpt>
      <trkpt lat="47.36146" lon="-0.64155">
        <ele>18</ele>
        <time>2013-08-28T07:02:30Z</time>
      </trkpt>
      <trkpt lat="47.36153" lon="-0.64134">
        <ele>17</ele>
        <time>2013-08-28T07:02:36Z</time>
      </trkpt>
      <trkpt lat="47.36169" lon="-0.64091">
        <ele>16</ele>
        <time>2013-08-28T07:02:36Z</time>
      </trkpt>
      <trkpt lat="47.36173" lon="-0.6408">
        <ele>15</ele>
        <time>2013-08-28T07:02:37Z</time>
      </trkpt>
      <trkpt lat="47.3618" lon="-0.64059">
        <ele>14</ele>
        <time>2013-08-28T07:02:43Z</time>
      </trkpt>
      <trkpt lat="47.36193" lon="-0.64025">
        <ele>13</ele>
        <time>2013-08-28T07:02:43Z</time>
      </trkpt>
      <trkpt lat="47.36195" lon="-0.64019">
        <ele>12</ele>
        <time>2013-08-28T07:02:44Z</time>
      </trkpt>
      <trkpt lat="47.36201" lon="-0.64004">
        <ele>12</ele>
        <time>2013-08-28T07:02:50Z</time>
      </trkpt>
      <trkpt lat="47.36213" lon="-0.63977">
        <ele>12</ele>
        <time>2013-08-28T07:02:50Z</time>
      </trkpt>
      <trkpt lat="47.36215" lon="-0.6397">
        <ele>12</ele>
        <time>2013-08-28T07:02:51Z</time>
      </trkpt>
      <trkpt lat="47.36228" lon="-0.63931">
        <ele>13</ele>
        <time>2013-08-28T07:02:57Z</time>
      </trkpt>
      <trkpt lat="47.36231" lon="-0.63924">
        <ele>14</ele>
        <time>2013-08-28T07:02:58Z</time>
      </trkpt>
      <trkpt lat="47.36245" lon="-0.63881">
        <ele>15</ele>
        <time>2013-08-28T07:03:04Z</time>
      </trkpt>
      <trkpt lat="47.36247" lon="-0.63874">
        <ele>16</ele>
        <time>2013-08-28T07:03:05Z</time>
      </trkpt>
      <trkpt lat="47.3625" lon="-0.63867">
        <ele>17</ele>
        <time>2013-08-28T07:03:06Z</time>
      </trkpt>
      <trkpt lat="47.36254" lon="-0.63853">
        <ele>18</ele>
        <time>2013-08-28T07:03:12Z</time>
      </trkpt>
      <trkpt lat="47.36264" lon="-0.63824">
        <ele>19</ele>
        <time>2013-08-28T07:03:12Z</time>
      </trkpt>
      <trkpt lat="47.36267" lon="-0.63816">
        <ele>20</ele>
        <time>2013-08-28T07:03:13Z</time>
      </trkpt>
      <trkpt lat="47.36272" lon="-0.63802">
        <ele>21</ele>
        <time>2013-08-28T07:03:19Z</time>
      </trkpt>
      <trkpt lat="47.36282" lon="-0.63778">
        <ele>22</ele>
        <time>2013-08-28T07:03:19Z</time>
      </trkpt>
      <trkpt lat="47.36284" lon="-0.63771">
        <ele>23</ele>
        <time>2013-08-28T07:03:20Z</time>
      </trkpt>
      <trkpt lat="47.36289" lon="-0.63758">
        <ele>24</ele>
        <time>2013-08-28T07:03:26Z</time>
      </trkpt>
      <trkpt lat="47.363" lon="-0.63732">
        <ele>25</ele>
        <time>2013-08-28T07:03:26Z</time>
      </trkpt>
      <trkpt lat="47.36302" lon="-0.63725">
        <ele>26</ele>
        <time>2013-08-28T07:03:27Z</time>
      </trkpt>
      <trkpt lat="47.36316" lon="-0.63686">
        <ele>27</ele>
        <time>2013-08-28T07:03:33Z</time>
      </trkpt>
      <trkpt lat="47.36319" lon="-0.6368">
        <ele>28</ele>
        <time>2013-08-28T07:03:34Z</time>
      </trkpt>
      <trkpt lat="47.36324" lon="-0.63666">
        <ele>29</ele>
        <time>2013-08-28T07:03:40Z</time>
      </trkpt>
      <trkpt lat="47.36336" lon="-0.63632">
        <ele>30</ele>
        <time>2013-08-28T07:03:41Z</time>
      </trkpt>
      <trkpt lat="47.36338" lon="-0.63625">
        <ele>31</ele>
        <time>2013-08-28T07:03:42Z</time>
      </trkpt>
      <trkpt lat="47.36343" lon="-0.6361">
        <ele>32</ele>
        <time>2013-08-28T07:03:48Z</time>
      </trkpt>
      <trkpt lat="47.36354" lon="-0.6358">
        <ele>33</ele>
        <time>2013-08-28T07:03:48Z</time>
      </trkpt>
      <trkpt lat="47.36358" lon="-0.63572">
        <ele>33</ele>
        <time>2013-08-28T07:03:49Z</time>
      </trkpt>
      <trkpt lat="47.36363" lon="-0.63557">
        <ele>33</ele>
        <time>2013-08-28T07:03:55Z</time>
      </trkpt>
      <trkpt lat="47.36375" lon="-0.63525">
        <ele>33</ele>
        <time>2013-08-28T07:03:55Z</time>
      </trkpt>
      <trkpt lat="47.36378" lon="-0.63517">
        <ele>33</ele>
        <time>2013-08-28T07:03:56Z</time>
      </trkpt>
      <trkpt lat="47.36394" lon="-0.63469">
        <ele>33</ele>
        <time>2013-08-28T07:04:02Z</time>
      </trkpt>
      <trkpt lat="47.36397" lon="-0.6346">
        <ele>33</ele>
        <time>2013-08-28T07:04:03Z</time>
      </trkpt>
      <trkpt lat="47.36401" lon="-0.63444">
        <ele>33</ele>
        <time>2013-08-28T07:04:10Z</time>
      </trkpt>
      <trkpt lat="47.36412" lon="-0.634">
        <ele>33</ele>
        <time>2013-08-28T07:04:10Z</time>
      </trkpt>
      <trkpt lat="47.36414" lon="-0.63392">
        <ele>33</ele>
        <time>2013-08-28T07:04:11Z</time>
      </trkpt>
      <trkpt lat="47.36419" lon="-0.63374">
        <ele>33</ele>
        <time>2013-08-28T07:04:17Z</time>
      </trkpt>
      <trkpt lat="47.36427" lon="-0.63339">
        <ele>33</ele>
        <time>2013-08-28T07:04:17Z</time>
      </trkpt>
      <trkpt lat="47.36428" lon="-0.6333">
        <ele>33</ele>
        <time>2013-08-28T07:04:18Z</time>
      </trkpt>
      <trkpt lat="47.36433" lon="-0.63312">
        <ele>33</ele>
        <time>2013-08-28T07:04:24Z</time>
      </trkpt>
      <trkpt lat="47.36441" lon="-0.63277">
        <ele>33</ele>
        <time>2013-08-28T07:04:24Z</time>
      </trkpt>
      <trkpt lat="47.36443" lon="-0.63268">
        <ele>33</ele>
        <time>2013-08-28T07:04:25Z</time>
      </trkpt>
      <trkpt lat="47.36447" lon="-0.6325">
        <ele>33</ele>
        <time>2013-08-28T07:04:31Z</time>
      </trkpt>
      <trkpt lat="47.36457" lon="-0.63206">
        <ele>33</ele>
        <time>2013-08-28T07:04:32Z</time>
      </trkpt>
      <trkpt lat="47.36459" lon="-0.63197">
        <ele>33</ele>
        <time>2013-08-28T07:04:33Z</time>
      </trkpt>
      <trkpt lat="47.36463" lon="-0.6318">
        <ele>33</ele>
        <time>2013-08-28T07:04:39Z</time>
      </trkpt>
      <trkpt lat="47.36471" lon="-0.63145">
        <ele>33</ele>
        <time>2013-08-28T07:04:39Z</time>
      </trkpt>
      <trkpt lat="47.36474" lon="-0.63137">
        <ele>33</ele>
        <time>2013-08-28T07:04:40Z</time>
      </trkpt>
      <trkpt lat="47.36493" lon="-0.6309">
        <ele>34</ele>
        <time>2013-08-28T07:04:46Z</time>
      </trkpt>
      <trkpt lat="47.36496" lon="-0.63082">
        <ele>35</ele>
        <time>2013-08-28T07:04:47Z</time>
      </trkpt>
      <trkpt lat="47.36503" lon="-0.63067">
        <ele>35</ele>
        <time>2013-08-28T07:04:54Z</time>
      </trkpt>
      <trkpt lat="47.36522" lon="-0.63033">
        <ele>36</ele>
        <time>2013-08-28T07:04:54Z</time>
      </trkpt>
      <trkpt lat="47.36526" lon="-0.63026">
        <ele>37</ele>
        <time>2013-08-28T07:04:55Z</time>
      </trkpt>
      <trkpt lat="47.36535" lon="-0.63012">
        <ele>37</ele>
        <time>2013-08-28T07:05:01Z</time>
      </trkpt>
      <trkpt lat="47.36551" lon="-0.62984">
        <ele>37</ele>
        <time>2013-08-28T07:05:01Z</time>
      </trkpt>
      <trkpt lat="47.36554" lon="-0.62977">
        <ele>38</ele>
        <time>2013-08-28T07:05:02Z</time>
      </trkpt>
      <trkpt lat="47.36579" lon="-0.62933">
        <ele>38</ele>
        <time>2013-08-28T07:05:08Z</time>
      </trkpt>
      <trkpt lat="47.36582" lon="-0.62926">
        <ele>38</ele>
        <time>2013-08-28T07:05:09Z</time>
      </trkpt>
      <trkpt lat="47.36591" lon="-0.62911">
        <ele>38</ele>
        <time>2013-08-28T07:05:16Z</time>
      </trkpt>
      <trkpt lat="47.36612" lon="-0.62875">
        <ele>38</ele>
        <time>2013-08-28T07:05:16Z</time>
      </trkpt>
      <trkpt lat="47.36617" lon="-0.62867">
        <ele>38</ele>
        <time>2013-08-28T07:05:17Z</time>
      </trkpt>
      <trkpt lat="47.36625" lon="-0.62853">
        <ele>38</ele>
        <time>2013-08-28T07:05:23Z</time>
      </trkpt>
      <trkpt lat="47.3664" lon="-0.62824">
        <ele>38</ele>
        <time>2013-08-28T07:05:23Z</time>
      </trkpt>
      <trkpt lat="47.36644" lon="-0.62817">
        <ele>38</ele>
        <time>2013-08-28T07:05:24Z</time>
      </trkpt>
      <trkpt lat="47.36652" lon="-0.62803">
        <ele>38</ele>
        <time>2013-08-28T07:05:30Z</time>
      </trkpt>
      <trkpt lat="47.36673" lon="-0.62768">
        <ele>38</ele>
        <time>2013-08-28T07:05:31Z</time>
      </trkpt>
      <trkpt lat="47.36677" lon="-0.62761">
        <ele>38</ele>
        <time>2013-08-28T07:05:32Z</time>
      </trkpt>
      <trkpt lat="47.36686" lon="-0.62747">
        <ele>38</ele>
        <time>2013-08-28T07:05:38Z</time>
      </trkpt>
      <trkpt lat="47.36703" lon="-0.62719">
        <ele>38</ele>
        <time>2013-08-28T07:05:38Z</time>
      </trkpt>
      <trkpt lat="47.36707" lon="-0.62712">
        <ele>38</ele>
        <time>2013-08-28T07:05:39Z</time>
      </trkpt>
      <trkpt lat="47.36716" lon="-0.62697">
        <ele>38</ele>
        <time>2013-08-28T07:05:45Z</time>
      </trkpt>
      <trkpt lat="47.36737" lon="-0.62662">
        <ele>38</ele>
        <time>2013-08-28T07:05:46Z</time>
      </trkpt>
      <trkpt lat="47.36741" lon="-0.62655">
        <ele>38</ele>
        <time>2013-08-28T07:05:47Z</time>
      </trkpt>
      <trkpt lat="47.36749" lon="-0.6264">
        <ele>38</ele>
        <time>2013-08-28T07:05:53Z</time>
      </trkpt>
      <trkpt lat="47.36766" lon="-0.62612">
        <ele>38</ele>
        <time>2013-08-28T07:05:53Z</time>
      </trkpt>
      <trkpt lat="47.36769" lon="-0.62604">
        <ele>38</ele>
        <time>2013-08-28T07:05:54Z</time>
      </trkpt>
      <trkpt lat="47.36777" lon="-0.62589">
        <ele>38</ele>
        <time>2013-08-28T07:06:00Z</time>
      </trkpt>
      <trkpt lat="47.36792" lon="-0.62546">
        <ele>38</ele>
        <time>2013-08-28T07:06:01Z</time>
      </trkpt>
      <trkpt lat="47.36795" lon="-0.62538">
        <ele>38</ele>
        <time>2013-08-28T07:06:02Z</time>
      </trkpt>
      <trkpt lat="47.368" lon="-0.62521">
        <ele>38</ele>
        <time>2013-08-28T07:06:08Z</time>
      </trkpt>
      <trkpt lat="47.36813" lon="-0.62483">
        <ele>38</ele>
        <time>2013-08-28T07:06:08Z</time>
      </trkpt>
      <trkpt lat="47.36816" lon="-0.62475">
        <ele>38</ele>
        <time>2013-08-28T07:06:09Z</time>
      </trkpt>
      <trkpt lat="47.36821" lon="-0.62459">
        <ele>38</ele>
        <time>2013-08-28T07:06:15Z</time>
      </trkpt>
      <trkpt lat="47.36835" lon="-0.6242">
        <ele>38</ele>
        <time>2013-08-28T07:06:16Z</time>
      </trkpt>
      <trkpt lat="47.36838" lon="-0.62413">
        <ele>38</ele>
        <time>2013-08-28T07:06:17Z</time>
      </trkpt>
      <trkpt lat="47.36844" lon="-0.62398">
        <ele>38</ele>
        <time>2013-08-28T07:06:23Z</time>
      </trkpt>
      <trkpt lat="47.36861" lon="-0.62371">
        <ele>38</ele>
        <time>2013-08-28T07:06:23Z</time>
      </trkpt>
      <trkpt lat="47.36865" lon="-0.62365">
        <ele>38</ele>
        <time>2013-08-28T07:06:24Z</time>
      </trkpt>
      <trkpt lat="47.36873" lon="-0.6235">
        <ele>39</ele>
        <time>2013-08-28T07:06:31Z</time>
      </trkpt>
      <trkpt lat="47.36895" lon="-0.62315">
        <ele>39</ele>
        <time>2013-08-28T07:06:31Z</time>
      </trkpt>
      <trkpt lat="47.369" lon="-0.62308">
        <ele>40</ele>
        <time>2013-08-28T07:06:32Z</time>
      </trkpt>
      <trkpt lat="47.36909" lon="-0.62293">
        <ele>40</ele>
        <time>2013-08-28T07:06:38Z</time>
      </trkpt>
      <trkpt lat="47.36926" lon="-0.62263">
        <ele>40</ele>
        <time>2013-08-28T07:06:38Z</time>
      </trkpt>
      <trkpt lat="47.3693" lon="-0.62256">
        <ele>41</ele>
        <time>2013-08-28T07:06:39Z</time>
      </trkpt>
      <trkpt lat="47.36939" lon="-0.62241">
        <ele>41</ele>
        <time>2013-08-28T07:06:46Z</time>
      </trkpt>
      <trkpt lat="47.36961" lon="-0.62203">
        <ele>41</ele>
        <time>2013-08-28T07:06:46Z</time>
      </trkpt>
      <trkpt lat="47.36965" lon="-0.62195">
        <ele>41</ele>
        <time>2013-08-28T07:06:47Z</time>
      </trkpt>
      <trkpt lat="47.3699" lon="-0.62148">
        <ele>41</ele>
        <time>2013-08-28T07:06:53Z</time>
      </trkpt>
      <trkpt lat="47.36994" lon="-0.6214">
        <ele>41</ele>
        <time>2013-08-28T07:06:54Z</time>
      </trkpt>
      <trkpt lat="47.37003" lon="-0.62124">
        <ele>41</ele>
        <time>2013-08-28T07:07:01Z</time>
      </trkpt>
      <trkpt lat="47.37023" lon="-0.62084">
        <ele>41</ele>
        <time>2013-08-28T07:07:01Z</time>
      </trkpt>
      <trkpt lat="47.37027" lon="-0.62076">
        <ele>41</ele>
        <time>2013-08-28T07:07:02Z</time>
      </trkpt>
      <trkpt lat="47.37035" lon="-0.62059">
        <ele>41</ele>
        <time>2013-08-28T07:07:08Z</time>
      </trkpt>
      <trkpt lat="47.37055" lon="-0.62019">
        <ele>41</ele>
        <time>2013-08-28T07:07:09Z</time>
      </trkpt>
      <trkpt lat="47.37059" lon="-0.62011">
        <ele>41</ele>
        <time>2013-08-28T07:07:10Z</time>
      </trkpt>
      <trkpt lat="47.37068" lon="-0.61995">
        <ele>41</ele>
        <time>2013-08-28T07:07:16Z</time>
      </trkpt>
      <trkpt lat="47.37086" lon="-0.61964">
        <ele>41</ele>
        <time>2013-08-28T07:07:16Z</time>
      </trkpt>
      <trkpt lat="47.3709" lon="-0.61958">
        <ele>41</ele>
        <time>2013-08-28T07:07:17Z</time>
      </trkpt>
      <trkpt lat="47.371" lon="-0.61944">
        <ele>41</ele>
        <time>2013-08-28T07:07:24Z</time>
      </trkpt>
      <trkpt lat="47.37126" lon="-0.61911">
        <ele>41</ele>
        <time>2013-08-28T07:07:24Z</time>
      </trkpt>
      <trkpt lat="47.37132" lon="-0.61904">
        <ele>41</ele>
        <time>2013-08-28T07:07:25Z</time>
      </trkpt>
      <trkpt lat="47.37142" lon="-0.61891">
        <ele>41</ele>
        <time>2013-08-28T07:07:31Z</time>
      </trkpt>
      <trkpt lat="47.37168" lon="-0.61859">
        <ele>41</ele>
        <time>2013-08-28T07:07:32Z</time>
      </trkpt>
      <trkpt lat="47.37173" lon="-0.61853">
        <ele>41</ele>
        <time>2013-08-28T07:07:33Z</time>
      </trkpt>
      <trkpt lat="47.37184" lon="-0.6184">
        <ele>41</ele>
        <time>2013-08-28T07:07:39Z</time>
      </trkpt>
      <trkpt lat="47.37205" lon="-0.61814">
        <ele>41</ele>
        <time>2013-08-28T07:07:39Z</time>
      </trkpt>
      <trkpt lat="47.3721" lon="-0.61807">
        <ele>41</ele>
        <time>2013-08-28T07:07:40Z</time>
      </trkpt>
      <trkpt lat="47.37221" lon="-0.61794">
        <ele>41</ele>
        <time>2013-08-28T07:07:47Z</time>
      </trkpt>
      <trkpt lat="47.37248" lon="-0.61761">
        <ele>40</ele>
        <time>2013-08-28T07:07:47Z</time>
      </trkpt>
      <trkpt lat="47.37253" lon="-0.61755">
        <ele>39</ele>
        <time>2013-08-28T07:07:48Z</time>
      </trkpt>
      <trkpt lat="47.37263" lon="-0.61741">
        <ele>38</ele>
        <time>2013-08-28T07:07:55Z</time>
      </trkpt>
      <trkpt lat="47.3729" lon="-0.61709">
        <ele>37</ele>
        <time>2013-08-28T07:07:55Z</time>
      </trkpt>
      <trkpt lat="47.37296" lon="-0.61703">
        <ele>36</ele>
        <time>2013-08-28T07:07:56Z</time>
      </trkpt>
      <trkpt lat="47.37328" lon="-0.61665">
        <ele>36</ele>
        <time>2013-08-28T07:08:03Z</time>
      </trkpt>
      <trkpt lat="47.37334" lon="-0.61658">
        <ele>36</ele>
        <time>2013-08-28T07:08:03Z</time>
      </trkpt>
      <trkpt lat="47.37344" lon="-0.61646">
        <ele>36</ele>
        <time>2013-08-28T07:08:09Z</time>
      </trkpt>
      <trkpt lat="47.37366" lon="-0.6162">
        <ele>36</ele>
        <time>2013-08-28T07:08:09Z</time>
      </trkpt>
      <trkpt lat="47.37371" lon="-0.61614">
        <ele>36</ele>
        <time>2013-08-28T07:08:10Z</time>
      </trkpt>
      <trkpt lat="47.37381" lon="-0.61601">
        <ele>36</ele>
        <time>2013-08-28T07:08:15Z</time>
      </trkpt>
      <trkpt lat="47.37398" lon="-0.61581">
        <ele>36</ele>
        <time>2013-08-28T07:08:15Z</time>
      </trkpt>
      <trkpt lat="47.37403" lon="-0.61574">
        <ele>36</ele>
        <time>2013-08-28T07:08:16Z</time>
      </trkpt>
      <trkpt lat="47.37414" lon="-0.61561">
        <ele>36</ele>
        <time>2013-08-28T07:08:22Z</time>
      </trkpt>
      <trkpt lat="47.37436" lon="-0.61535">
        <ele>35</ele>
        <time>2013-08-28T07:08:22Z</time>
      </trkpt>
      <trkpt lat="47.37441" lon="-0.61528">
        <ele>35</ele>
        <time>2013-08-28T07:08:23Z</time>
      </trkpt>
      <trkpt lat="47.37452" lon="-0.61515">
        <ele>35</ele>
        <time>2013-08-28T07:08:28Z</time>
      </trkpt>
      <trkpt lat="47.37469" lon="-0.61494">
        <ele>35</ele>
        <time>2013-08-28T07:08:28Z</time>
      </trkpt>
      <trkpt lat="47.37475" lon="-0.61488">
        <ele>34</ele>
        <time>2013-08-28T07:08:29Z</time>
      </trkpt>
      <trkpt lat="47.37486" lon="-0.61475">
        <ele>34</ele>
        <time>2013-08-28T07:08:34Z</time>
      </trkpt>
      <trkpt lat="47.37508" lon="-0.61447">
        <ele>34</ele>
        <time>2013-08-28T07:08:35Z</time>
      </trkpt>
      <trkpt lat="47.37514" lon="-0.6144">
        <ele>34</ele>
        <time>2013-08-28T07:08:36Z</time>
      </trkpt>
      <trkpt lat="47.37524" lon="-0.61427">
        <ele>34</ele>
        <time>2013-08-28T07:08:41Z</time>
      </trkpt>
      <trkpt lat="47.37539" lon="-0.61405">
        <ele>34</ele>
        <time>2013-08-28T07:08:41Z</time>
      </trkpt>
      <trkpt lat="47.37543" lon="-0.61396">
        <ele>34</ele>
        <time>2013-08-28T07:08:42Z</time>
      </trkpt>
      <trkpt lat="47.37553" lon="-0.6138">
        <ele>34</ele>
        <time>2013-08-28T07:08:47Z</time>
      </trkpt>
      <trkpt lat="47.37569" lon="-0.61347">
        <ele>34</ele>
        <time>2013-08-28T07:08:48Z</time>
      </trkpt>
      <trkpt lat="47.37574" lon="-0.61338">
        <ele>34</ele>
        <time>2013-08-28T07:08:49Z</time>
      </trkpt>
      <trkpt lat="47.37581" lon="-0.6132">
        <ele>34</ele>
        <time>2013-08-28T07:08:54Z</time>
      </trkpt>
      <trkpt lat="47.37593" lon="-0.61293">
        <ele>34</ele>
        <time>2013-08-28T07:08:54Z</time>
      </trkpt>
      <trkpt lat="47.37597" lon="-0.61283">
        <ele>34</ele>
        <time>2013-08-28T07:08:55Z</time>
      </trkpt>
      <trkpt lat="47.37604" lon="-0.61265">
        <ele>33</ele>
        <time>2013-08-28T07:09:00Z</time>
      </trkpt>
      <trkpt lat="47.37617" lon="-0.61229">
        <ele>32</ele>
        <time>2013-08-28T07:09:01Z</time>
      </trkpt>
      <trkpt lat="47.37621" lon="-0.6122">
        <ele>32</ele>
        <time>2013-08-28T07:09:02Z</time>
      </trkpt>
      <trkpt lat="47.37627" lon="-0.61202">
        <ele>31</ele>
        <time>2013-08-28T07:09:07Z</time>
      </trkpt>
      <trkpt lat="47.37637" lon="-0.61176">
        <ele>31</ele>
        <time>2013-08-28T07:09:07Z</time>
      </trkpt>
      <trkpt lat="47.3764" lon="-0.61168">
        <ele>31</ele>
        <time>2013-08-28T07:09:08Z</time>
      </trkpt>
      <trkpt lat="47.37646" lon="-0.61151">
        <ele>31</ele>
        <time>2013-08-28T07:09:13Z</time>
      </trkpt>
      <trkpt lat="47.3766" lon="-0.61116">
        <ele>31</ele>
        <time>2013-08-28T07:09:14Z</time>
      </trkpt>
      <trkpt lat="47.37663" lon="-0.61107">
        <ele>31</ele>
        <time>2013-08-28T07:09:15Z</time>
      </trkpt>
      <trkpt lat="47.37668" lon="-0.61089">
        <ele>31</ele>
        <time>2013-08-28T07:09:20Z</time>
      </trkpt>
      <trkpt lat="47.37679" lon="-0.61062">
        <ele>31</ele>
        <time>2013-08-28T07:09:20Z</time>
      </trkpt>
      <trkpt lat="47.37682" lon="-0.61054">
        <ele>30</ele>
        <time>2013-08-28T07:09:21Z</time>
      </trkpt>
      <trkpt lat="47.37689" lon="-0.61036">
        <ele>29</ele>
        <time>2013-08-28T07:09:27Z</time>
      </trkpt>
      <trkpt lat="47.37708" lon="-0.61008">
        <ele>29</ele>
        <time>2013-08-28T07:09:27Z</time>
      </trkpt>
      <trkpt lat="47.37712" lon="-0.61">
        <ele>29</ele>
        <time>2013-08-28T07:09:28Z</time>
      </trkpt>
      <trkpt lat="47.37721" lon="-0.60986">
        <ele>29</ele>
        <time>2013-08-28T07:09:33Z</time>
      </trkpt>
      <trkpt lat="47.37732" lon="-0.60967">
        <ele>29</ele>
        <time>2013-08-28T07:09:33Z</time>
      </trkpt>
      <trkpt lat="47.37736" lon="-0.60961">
        <ele>29</ele>
        <time>2013-08-28T07:09:34Z</time>
      </trkpt>
      <trkpt lat="47.37745" lon="-0.60947">
        <ele>29</ele>
        <time>2013-08-28T07:09:40Z</time>
      </trkpt>
      <trkpt lat="47.3776" lon="-0.60923">
        <ele>29</ele>
        <time>2013-08-28T07:09:40Z</time>
      </trkpt>
      <trkpt lat="47.37764" lon="-0.60917">
        <ele>29</ele>
        <time>2013-08-28T07:09:41Z</time>
      </trkpt>
      <trkpt lat="47.37771" lon="-0.60905">
        <ele>29</ele>
        <time>2013-08-28T07:09:46Z</time>
      </trkpt>
      <trkpt lat="47.37782" lon="-0.6089">
        <ele>28</ele>
        <time>2013-08-28T07:09:46Z</time>
      </trkpt>
      <trkpt lat="47.37786" lon="-0.60884">
        <ele>28</ele>
        <time>2013-08-28T07:09:47Z</time>
      </trkpt>
      <trkpt lat="47.37793" lon="-0.60873">
        <ele>28</ele>
        <time>2013-08-28T07:09:53Z</time>
      </trkpt>
      <trkpt lat="47.37806" lon="-0.60851">
        <ele>28</ele>
        <time>2013-08-28T07:09:53Z</time>
      </trkpt>
      <trkpt lat="47.37811" lon="-0.60846">
        <ele>28</ele>
        <time>2013-08-28T07:09:54Z</time>
      </trkpt>
      <trkpt lat="47.37818" lon="-0.60836">
        <ele>28</ele>
        <time>2013-08-28T07:09:59Z</time>
      </trkpt>
      <trkpt lat="47.37827" lon="-0.60818">
        <ele>28</ele>
        <time>2013-08-28T07:09:59Z</time>
      </trkpt>
      <trkpt lat="47.3783" lon="-0.60813">
        <ele>28</ele>
        <time>2013-08-28T07:10:00Z</time>
      </trkpt>
      <trkpt lat="47.37837" lon="-0.60803">
        <ele>28</ele>
        <time>2013-08-28T07:10:06Z</time>
      </trkpt>
      <trkpt lat="47.37853" lon="-0.60785">
        <ele>28</ele>
        <time>2013-08-28T07:10:06Z</time>
      </trkpt>
      <trkpt lat="47.37856" lon="-0.6078">
        <ele>28</ele>
        <time>2013-08-28T07:10:07Z</time>
      </trkpt>
      <trkpt lat="47.37868" lon="-0.60761">
        <ele>28</ele>
        <time>2013-08-28T07:10:12Z</time>
      </trkpt>
      <trkpt lat="47.3787" lon="-0.6076">
        <ele>28</ele>
        <time>2013-08-28T07:10:13Z</time>
      </trkpt>
      <trkpt lat="47.37873" lon="-0.60759">
        <ele>28</ele>
        <time>2013-08-28T07:10:14Z</time>
      </trkpt>
      <trkpt lat="47.37878" lon="-0.60759">
        <ele>28</ele>
        <time>2013-08-28T07:10:19Z</time>
      </trkpt>
      <trkpt lat="47.37888" lon="-0.60762">
        <ele>28</ele>
        <time>2013-08-28T07:10:19Z</time>
      </trkpt>
      <trkpt lat="47.37891" lon="-0.60763">
        <ele>28</ele>
        <time>2013-08-28T07:10:21Z</time>
      </trkpt>
      <trkpt lat="47.37899" lon="-0.60762">
        <ele>28</ele>
        <time>2013-08-28T07:10:26Z</time>
      </trkpt>
      <trkpt lat="47.37915" lon="-0.60759">
        <ele>28</ele>
        <time>2013-08-28T07:10:26Z</time>
      </trkpt>
      <trkpt lat="47.37919" lon="-0.60757">
        <ele>28</ele>
        <time>2013-08-28T07:10:28Z</time>
      </trkpt>
      <trkpt lat="47.37922" lon="-0.60753">
        <ele>28</ele>
        <time>2013-08-28T07:10:29Z</time>
      </trkpt>
      <trkpt lat="47.3793" lon="-0.60747">
        <ele>28</ele>
        <time>2013-08-28T07:10:33Z</time>
      </trkpt>
      <trkpt lat="47.37949" lon="-0.60729">
        <ele>28</ele>
        <time>2013-08-28T07:10:34Z</time>
      </trkpt>
      <trkpt lat="47.37953" lon="-0.60724">
        <ele>29</ele>
        <time>2013-08-28T07:10:35Z</time>
      </trkpt>
      <trkpt lat="47.37963" lon="-0.60713">
        <ele>30</ele>
        <time>2013-08-28T07:10:40Z</time>
      </trkpt>
      <trkpt lat="47.37978" lon="-0.60693">
        <ele>30</ele>
        <time>2013-08-28T07:10:40Z</time>
      </trkpt>
      <trkpt lat="47.37983" lon="-0.60685">
        <ele>30</ele>
        <time>2013-08-28T07:10:41Z</time>
      </trkpt>
      <trkpt lat="47.37988" lon="-0.60678">
        <ele>30</ele>
        <time>2013-08-28T07:10:42Z</time>
      </trkpt>
      <trkpt lat="47.37996" lon="-0.60662">
        <ele>30</ele>
        <time>2013-08-28T07:10:47Z</time>
      </trkpt>
      <trkpt lat="47.3801" lon="-0.60639">
        <ele>30</ele>
        <time>2013-08-28T07:10:47Z</time>
      </trkpt>
      <trkpt lat="47.38014" lon="-0.60631">
        <ele>30</ele>
        <time>2013-08-28T07:10:48Z</time>
      </trkpt>
      <trkpt lat="47.38024" lon="-0.60621">
        <ele>30</ele>
        <time>2013-08-28T07:10:54Z</time>
      </trkpt>
      <trkpt lat="47.38036" lon="-0.60601">
        <ele>30</ele>
        <time>2013-08-28T07:10:55Z</time>
      </trkpt>
      <trkpt lat="47.38039" lon="-0.60596">
        <ele>30</ele>
        <time>2013-08-28T07:10:55Z</time>
      </trkpt>
      <trkpt lat="47.38041" lon="-0.60593">
        <ele>30</ele>
        <time>2013-08-28T07:10:57Z</time>
      </trkpt>
      <trkpt lat="47.38046" lon="-0.60593">
        <ele>30</ele>
        <time>2013-08-28T07:11:02Z</time>
      </trkpt>
      <trkpt lat="47.38063" lon="-0.60613">
        <ele>29</ele>
        <time>2013-08-28T07:11:02Z</time>
      </trkpt>
      <trkpt lat="47.38068" lon="-0.60618">
        <ele>29</ele>
        <time>2013-08-28T07:11:03Z</time>
      </trkpt>
      <trkpt lat="47.38073" lon="-0.60623">
        <ele>29</ele>
        <time>2013-08-28T07:11:04Z</time>
      </trkpt>
      <trkpt lat="47.38098" lon="-0.60655">
        <ele>29</ele>
        <time>2013-08-28T07:11:09Z</time>
      </trkpt>
      <trkpt lat="47.38102" lon="-0.60664">
        <ele>28</ele>
        <time>2013-08-28T07:11:10Z</time>
      </trkpt>
      <trkpt lat="47.38106" lon="-0.60673">
        <ele>27</ele>
        <time>2013-08-28T07:11:11Z</time>
      </trkpt>
      <trkpt lat="47.38124" lon="-0.60725">
        <ele>26</ele>
        <time>2013-08-28T07:11:16Z</time>
      </trkpt>
      <trkpt lat="47.38128" lon="-0.60735">
        <ele>25</ele>
        <time>2013-08-28T07:11:17Z</time>
      </trkpt>
      <trkpt lat="47.38135" lon="-0.60759">
        <ele>24</ele>
        <time>2013-08-28T07:11:23Z</time>
      </trkpt>
      <trkpt lat="47.38151" lon="-0.60807">
        <ele>23</ele>
        <time>2013-08-28T07:11:23Z</time>
      </trkpt>
      <trkpt lat="47.38156" lon="-0.60817">
        <ele>22</ele>
        <time>2013-08-28T07:11:24Z</time>
      </trkpt>
      <trkpt lat="47.38167" lon="-0.60834">
        <ele>21</ele>
        <time>2013-08-28T07:11:29Z</time>
      </trkpt>
      <trkpt lat="47.38191" lon="-0.60861">
        <ele>20</ele>
        <time>2013-08-28T07:11:30Z</time>
      </trkpt>
      <trkpt lat="47.38197" lon="-0.60866">
        <ele>19</ele>
        <time>2013-08-28T07:11:32Z</time>
      </trkpt>
      <trkpt lat="47.38204" lon="-0.60871">
        <ele>19</ele>
        <time>2013-08-28T07:11:32Z</time>
      </trkpt>
      <trkpt lat="47.38234" lon="-0.60901">
        <ele>19</ele>
        <time>2013-08-28T07:11:37Z</time>
      </trkpt>
      <trkpt lat="47.3824" lon="-0.60907">
        <ele>19</ele>
        <time>2013-08-28T07:11:38Z</time>
      </trkpt>
      <trkpt lat="47.38252" lon="-0.60918">
        <ele>19</ele>
        <time>2013-08-28T07:11:44Z</time>
      </trkpt>
      <trkpt lat="47.38275" lon="-0.6094">
        <ele>19</ele>
        <time>2013-08-28T07:11:44Z</time>
      </trkpt>
      <trkpt lat="47.38281" lon="-0.60946">
        <ele>19</ele>
        <time>2013-08-28T07:11:45Z</time>
      </trkpt>
      <trkpt lat="47.38293" lon="-0.60958">
        <ele>19</ele>
        <time>2013-08-28T07:11:51Z</time>
      </trkpt>
      <trkpt lat="47.38316" lon="-0.60982">
        <ele>19</ele>
        <time>2013-08-28T07:11:51Z</time>
      </trkpt>
      <trkpt lat="47.38322" lon="-0.60987">
        <ele>19</ele>
        <time>2013-08-28T07:11:52Z</time>
      </trkpt>
      <trkpt lat="47.3835" lon="-0.61016">
        <ele>19</ele>
        <time>2013-08-28T07:11:57Z</time>
      </trkpt>
      <trkpt lat="47.38356" lon="-0.61022">
        <ele>19</ele>
        <time>2013-08-28T07:11:58Z</time>
      </trkpt>
      <trkpt lat="47.38368" lon="-0.61036">
        <ele>19</ele>
        <time>2013-08-28T07:12:04Z</time>
      </trkpt>
      <trkpt lat="47.38391" lon="-0.61059">
        <ele>19</ele>
        <time>2013-08-28T07:12:04Z</time>
      </trkpt>
      <trkpt lat="47.38397" lon="-0.61066">
        <ele>19</ele>
        <time>2013-08-28T07:12:05Z</time>
      </trkpt>
      <trkpt lat="47.38408" lon="-0.61078">
        <ele>19</ele>
        <time>2013-08-28T07:12:10Z</time>
      </trkpt>
      <trkpt lat="47.3843" lon="-0.61102">
        <ele>19</ele>
        <time>2013-08-28T07:12:11Z</time>
      </trkpt>
      <trkpt lat="47.38436" lon="-0.61108">
        <ele>19</ele>
        <time>2013-08-28T07:12:12Z</time>
      </trkpt>
      <trkpt lat="47.38462" lon="-0.61138">
        <ele>19</ele>
        <time>2013-08-28T07:12:17Z</time>
      </trkpt>
      <trkpt lat="47.38467" lon="-0.61145">
        <ele>19</ele>
        <time>2013-08-28T07:12:18Z</time>
      </trkpt>
      <trkpt lat="47.38478" lon="-0.61158">
        <ele>19</ele>
        <time>2013-08-28T07:12:24Z</time>
      </trkpt>
      <trkpt lat="47.38501" lon="-0.6118">
        <ele>19</ele>
        <time>2013-08-28T07:12:24Z</time>
      </trkpt>
      <trkpt lat="47.38507" lon="-0.61186">
        <ele>19</ele>
        <time>2013-08-28T07:12:25Z</time>
      </trkpt>
      <trkpt lat="47.38519" lon="-0.61197">
        <ele>19</ele>
        <time>2013-08-28T07:12:31Z</time>
      </trkpt>
      <trkpt lat="47.38544" lon="-0.61218">
        <ele>19</ele>
        <time>2013-08-28T07:12:31Z</time>
      </trkpt>
      <trkpt lat="47.3855" lon="-0.61223">
        <ele>19</ele>
        <time>2013-08-28T07:12:32Z</time>
      </trkpt>
      <trkpt lat="47.3858" lon="-0.61248">
        <ele>19</ele>
        <time>2013-08-28T07:12:37Z</time>
      </trkpt>
      <trkpt lat="47.38586" lon="-0.61252">
        <ele>19</ele>
        <time>2013-08-28T07:12:38Z</time>
      </trkpt>
      <trkpt lat="47.38597" lon="-0.61261">
        <ele>19</ele>
        <time>2013-08-28T07:12:44Z</time>
      </trkpt>
      <trkpt lat="47.38622" lon="-0.6128">
        <ele>19</ele>
        <time>2013-08-28T07:12:44Z</time>
      </trkpt>
      <trkpt lat="47.38628" lon="-0.61285">
        <ele>19</ele>
        <time>2013-08-28T07:12:45Z</time>
      </trkpt>
      <trkpt lat="47.3864" lon="-0.61295">
        <ele>18</ele>
        <time>2013-08-28T07:12:51Z</time>
      </trkpt>
      <trkpt lat="47.38667" lon="-0.61311">
        <ele>17</ele>
        <time>2013-08-28T07:12:51Z</time>
      </trkpt>
      <trkpt lat="47.38673" lon="-0.61315">
        <ele>16</ele>
        <time>2013-08-28T07:12:52Z</time>
      </trkpt>
      <trkpt lat="47.38686" lon="-0.61321">
        <ele>16</ele>
        <time>2013-08-28T07:12:57Z</time>
      </trkpt>
      <trkpt lat="47.38712" lon="-0.61329">
        <ele>15</ele>
        <time>2013-08-28T07:12:58Z</time>
      </trkpt>
      <trkpt lat="47.38718" lon="-0.6133">
        <ele>15</ele>
        <time>2013-08-28T07:12:59Z</time>
      </trkpt>
      <trkpt lat="47.38752" lon="-0.61336">
        <ele>14</ele>
        <time>2013-08-28T07:13:04Z</time>
      </trkpt>
      <trkpt lat="47.38758" lon="-0.61337">
        <ele>14</ele>
        <time>2013-08-28T07:13:05Z</time>
      </trkpt>
      <trkpt lat="47.38772" lon="-0.61339">
        <ele>13</ele>
        <time>2013-08-28T07:13:11Z</time>
      </trkpt>
      <trkpt lat="47.38799" lon="-0.61343">
        <ele>12</ele>
        <time>2013-08-28T07:13:11Z</time>
      </trkpt>
      <trkpt lat="47.38806" lon="-0.61345">
        <ele>11</ele>
        <time>2013-08-28T07:13:12Z</time>
      </trkpt>
      <trkpt lat="47.3882" lon="-0.61347">
        <ele>10</ele>
        <time>2013-08-28T07:13:18Z</time>
      </trkpt>
      <trkpt lat="47.38847" lon="-0.61346">
        <ele>10</ele>
        <time>2013-08-28T07:13:18Z</time>
      </trkpt>
      <trkpt lat="47.38854" lon="-0.61344">
        <ele>9</ele>
        <time>2013-08-28T07:13:19Z</time>
      </trkpt>
      <trkpt lat="47.38861" lon="-0.61342">
        <ele>9</ele>
        <time>2013-08-28T07:13:21Z</time>
      </trkpt>
      <trkpt lat="47.38875" lon="-0.61338">
        <ele>9</ele>
        <time>2013-08-28T07:13:26Z</time>
      </trkpt>
      <trkpt lat="47.38903" lon="-0.61329">
        <ele>9</ele>
        <time>2013-08-28T07:13:26Z</time>
      </trkpt>
      <trkpt lat="47.3891" lon="-0.61327">
        <ele>9</ele>
        <time>2013-08-28T07:13:27Z</time>
      </trkpt>
      <trkpt lat="47.38924" lon="-0.61325">
        <ele>9</ele>
        <time>2013-08-28T07:13:32Z</time>
      </trkpt>
      <trkpt lat="47.38951" lon="-0.61328">
        <ele>9</ele>
        <time>2013-08-28T07:13:33Z</time>
      </trkpt>
      <trkpt lat="47.38958" lon="-0.61331">
        <ele>9</ele>
        <time>2013-08-28T07:13:34Z</time>
      </trkpt>
      <trkpt lat="47.38972" lon="-0.61337">
        <ele>9</ele>
        <time>2013-08-28T07:13:40Z</time>
      </trkpt>
      <trkpt lat="47.39003" lon="-0.61349">
        <ele>9</ele>
        <time>2013-08-28T07:13:41Z</time>
      </trkpt>
      <trkpt lat="47.39017" lon="-0.61355">
        <ele>9</ele>
        <time>2013-08-28T07:13:47Z</time>
      </trkpt>
      <trkpt lat="47.39041" lon="-0.61367">
        <ele>9</ele>
        <time>2013-08-28T07:13:47Z</time>
      </trkpt>
      <trkpt lat="47.39048" lon="-0.61369">
        <ele>9</ele>
        <time>2013-08-28T07:13:48Z</time>
      </trkpt>
      <trkpt lat="47.39061" lon="-0.61374">
        <ele>9</ele>
        <time>2013-08-28T07:13:53Z</time>
      </trkpt>
      <trkpt lat="47.39087" lon="-0.61374">
        <ele>9</ele>
        <time>2013-08-28T07:13:54Z</time>
      </trkpt>
      <trkpt lat="47.39094" lon="-0.61373">
        <ele>9</ele>
        <time>2013-08-28T07:13:55Z</time>
      </trkpt>
      <trkpt lat="47.39133" lon="-0.61356">
        <ele>9</ele>
        <time>2013-08-28T07:14:01Z</time>
      </trkpt>
      <trkpt lat="47.39139" lon="-0.61352">
        <ele>9</ele>
        <time>2013-08-28T07:14:02Z</time>
      </trkpt>
      <trkpt lat="47.39145" lon="-0.61347">
        <ele>9</ele>
        <time>2013-08-28T07:14:03Z</time>
      </trkpt>
      <trkpt lat="47.39156" lon="-0.61336">
        <ele>10</ele>
        <time>2013-08-28T07:14:08Z</time>
      </trkpt>
      <trkpt lat="47.39178" lon="-0.61309">
        <ele>11</ele>
        <time>2013-08-28T07:14:09Z</time>
      </trkpt>
      <trkpt lat="47.39183" lon="-0.61303">
        <ele>11</ele>
        <time>2013-08-28T07:14:10Z</time>
      </trkpt>
      <trkpt lat="47.3921" lon="-0.61269">
        <ele>11</ele>
        <time>2013-08-28T07:14:15Z</time>
      </trkpt>
      <trkpt lat="47.39215" lon="-0.61262">
        <ele>12</ele>
        <time>2013-08-28T07:14:16Z</time>
      </trkpt>
      <trkpt lat="47.3922" lon="-0.61256">
        <ele>12</ele>
        <time>2013-08-28T07:14:17Z</time>
      </trkpt>
      <trkpt lat="47.39246" lon="-0.61223">
        <ele>12</ele>
        <time>2013-08-28T07:14:22Z</time>
      </trkpt>
      <trkpt lat="47.39251" lon="-0.61217">
        <ele>12</ele>
        <time>2013-08-28T07:14:23Z</time>
      </trkpt>
      <trkpt lat="47.39257" lon="-0.61212">
        <ele>12</ele>
        <time>2013-08-28T07:14:24Z</time>
      </trkpt>
      <trkpt lat="47.39288" lon="-0.61195">
        <ele>12</ele>
        <time>2013-08-28T07:14:29Z</time>
      </trkpt>
      <trkpt lat="47.39295" lon="-0.61193">
        <ele>12</ele>
        <time>2013-08-28T07:14:30Z</time>
      </trkpt>
      <trkpt lat="47.39302" lon="-0.61191">
        <ele>12</ele>
        <time>2013-08-28T07:14:31Z</time>
      </trkpt>
      <trkpt lat="47.39315" lon="-0.6119">
        <ele>12</ele>
        <time>2013-08-28T07:14:36Z</time>
      </trkpt>
      <trkpt lat="47.39339" lon="-0.61195">
        <ele>12</ele>
        <time>2013-08-28T07:14:37Z</time>
      </trkpt>
      <trkpt lat="47.39345" lon="-0.61197">
        <ele>12</ele>
        <time>2013-08-28T07:14:38Z</time>
      </trkpt>
      <trkpt lat="47.39351" lon="-0.61199">
        <ele>12</ele>
        <time>2013-08-28T07:14:39Z</time>
      </trkpt>
      <trkpt lat="47.39361" lon="-0.61203">
        <ele>12</ele>
        <time>2013-08-28T07:14:44Z</time>
      </trkpt>
      <trkpt lat="47.39382" lon="-0.61214">
        <ele>12</ele>
        <time>2013-08-28T07:14:45Z</time>
      </trkpt>
      <trkpt lat="47.39388" lon="-0.61217">
        <ele>12</ele>
        <time>2013-08-28T07:14:46Z</time>
      </trkpt>
      <trkpt lat="47.394" lon="-0.61224">
        <ele>12</ele>
        <time>2013-08-28T07:14:51Z</time>
      </trkpt>
      <trkpt lat="47.39423" lon="-0.61235">
        <ele>12</ele>
        <time>2013-08-28T07:14:52Z</time>
      </trkpt>
      <trkpt lat="47.39429" lon="-0.61238">
        <ele>12</ele>
        <time>2013-08-28T07:14:53Z</time>
      </trkpt>
      <trkpt lat="47.39441" lon="-0.61245">
        <ele>13</ele>
        <time>2013-08-28T07:14:58Z</time>
      </trkpt>
      <trkpt lat="47.39467" lon="-0.61259">
        <ele>13</ele>
        <time>2013-08-28T07:14:59Z</time>
      </trkpt>
      <trkpt lat="47.39473" lon="-0.61263">
        <ele>13</ele>
        <time>2013-08-28T07:15:00Z</time>
      </trkpt>
      <trkpt lat="47.39487" lon="-0.6127">
        <ele>13</ele>
        <time>2013-08-28T07:15:05Z</time>
      </trkpt>
      <trkpt lat="47.39516" lon="-0.61285">
        <ele>14</ele>
        <time>2013-08-28T07:15:06Z</time>
      </trkpt>
      <trkpt lat="47.39522" lon="-0.61289">
        <ele>14</ele>
        <time>2013-08-28T07:15:07Z</time>
      </trkpt>
      <trkpt lat="47.39536" lon="-0.61297">
        <ele>14</ele>
        <time>2013-08-28T07:15:12Z</time>
      </trkpt>
      <trkpt lat="47.39562" lon="-0.61317">
        <ele>14</ele>
        <time>2013-08-28T07:15:13Z</time>
      </trkpt>
      <trkpt lat="47.39568" lon="-0.61322">
        <ele>14</ele>
        <time>2013-08-28T07:15:14Z</time>
      </trkpt>
      <trkpt lat="47.39581" lon="-0.61333">
        <ele>14</ele>
        <time>2013-08-28T07:15:19Z</time>
      </trkpt>
      <trkpt lat="47.39605" lon="-0.61355">
        <ele>14</ele>
        <time>2013-08-28T07:15:20Z</time>
      </trkpt>
      <trkpt lat="47.3961" lon="-0.61359">
        <ele>14</ele>
        <time>2013-08-28T07:15:21Z</time>
      </trkpt>
      <trkpt lat="47.39622" lon="-0.6137">
        <ele>14</ele>
        <time>2013-08-28T07:15:26Z</time>
      </trkpt>
      <trkpt lat="47.39644" lon="-0.6139">
        <ele>15</ele>
        <time>2013-08-28T07:15:27Z</time>
      </trkpt>
      <trkpt lat="47.39651" lon="-0.61394">
        <ele>16</ele>
        <time>2013-08-28T07:15:28Z</time>
      </trkpt>
      <trkpt lat="47.39663" lon="-0.61403">
        <ele>17</ele>
        <time>2013-08-28T07:15:33Z</time>
      </trkpt>
      <trkpt lat="47.39688" lon="-0.61421">
        <ele>18</ele>
        <time>2013-08-28T07:15:34Z</time>
      </trkpt>
      <trkpt lat="47.39694" lon="-0.61427">
        <ele>19</ele>
        <time>2013-08-28T07:15:35Z</time>
      </trkpt>
      <trkpt lat="47.39706" lon="-0.61437">
        <ele>19</ele>
        <time>2013-08-28T07:15:40Z</time>
      </trkpt>
      <trkpt lat="47.39725" lon="-0.61465">
        <ele>19</ele>
        <time>2013-08-28T07:15:41Z</time>
      </trkpt>
      <trkpt lat="47.39729" lon="-0.61473">
        <ele>19</ele>
        <time>2013-08-28T07:15:42Z</time>
      </trkpt>
      <trkpt lat="47.39737" lon="-0.61488">
        <ele>19</ele>
        <time>2013-08-28T07:15:48Z</time>
      </trkpt>
      <trkpt lat="47.39757" lon="-0.61524">
        <ele>19</ele>
        <time>2013-08-28T07:15:49Z</time>
      </trkpt>
      <trkpt lat="47.39767" lon="-0.61532">
        <ele>19</ele>
        <time>2013-08-28T07:15:55Z</time>
      </trkpt>
      <trkpt lat="47.39789" lon="-0.61515">
        <ele>19</ele>
        <time>2013-08-28T07:15:55Z</time>
      </trkpt>
      <trkpt lat="47.39795" lon="-0.6151">
        <ele>19</ele>
        <time>2013-08-28T07:15:56Z</time>
      </trkpt>
      <trkpt lat="47.39801" lon="-0.61506">
        <ele>19</ele>
        <time>2013-08-28T07:15:58Z</time>
      </trkpt>
      <trkpt lat="47.39813" lon="-0.61498">
        <ele>18</ele>
        <time>2013-08-28T07:16:03Z</time>
      </trkpt>
      <trkpt lat="47.39836" lon="-0.61485">
        <ele>17</ele>
        <time>2013-08-28T07:16:03Z</time>
      </trkpt>
      <trkpt lat="47.39843" lon="-0.61483">
        <ele>16</ele>
        <time>2013-08-28T07:16:04Z</time>
      </trkpt>
      <trkpt lat="47.39856" lon="-0.61479">
        <ele>15</ele>
        <time>2013-08-28T07:16:10Z</time>
      </trkpt>
      <trkpt lat="47.39881" lon="-0.61467">
        <ele>15</ele>
        <time>2013-08-28T07:16:10Z</time>
      </trkpt>
      <trkpt lat="47.39888" lon="-0.61465">
        <ele>14</ele>
        <time>2013-08-28T07:16:11Z</time>
      </trkpt>
      <trkpt lat="47.399" lon="-0.61459">
        <ele>14</ele>
        <time>2013-08-28T07:16:17Z</time>
      </trkpt>
      <trkpt lat="47.39925" lon="-0.61447">
        <ele>14</ele>
        <time>2013-08-28T07:16:17Z</time>
      </trkpt>
      <trkpt lat="47.39931" lon="-0.61443">
        <ele>14</ele>
        <time>2013-08-28T07:16:18Z</time>
      </trkpt>
      <trkpt lat="47.39943" lon="-0.61432">
        <ele>13</ele>
        <time>2013-08-28T07:16:24Z</time>
      </trkpt>
      <trkpt lat="47.39966" lon="-0.61411">
        <ele>13</ele>
        <time>2013-08-28T07:16:24Z</time>
      </trkpt>
      <trkpt lat="47.39972" lon="-0.61405">
        <ele>13</ele>
        <time>2013-08-28T07:16:25Z</time>
      </trkpt>
      <trkpt lat="47.39983" lon="-0.61392">
        <ele>13</ele>
        <time>2013-08-28T07:16:31Z</time>
      </trkpt>
      <trkpt lat="47.40002" lon="-0.61364">
        <ele>13</ele>
        <time>2013-08-28T07:16:31Z</time>
      </trkpt>
      <trkpt lat="47.40006" lon="-0.61356">
        <ele>13</ele>
        <time>2013-08-28T07:16:32Z</time>
      </trkpt>
      <trkpt lat="47.40014" lon="-0.6134">
        <ele>13</ele>
        <time>2013-08-28T07:16:38Z</time>
      </trkpt>
      <trkpt lat="47.40029" lon="-0.61306">
        <ele>13</ele>
        <time>2013-08-28T07:16:38Z</time>
      </trkpt>
      <trkpt lat="47.40033" lon="-0.61298">
        <ele>13</ele>
        <time>2013-08-28T07:16:39Z</time>
      </trkpt>
      <trkpt lat="47.40042" lon="-0.61281">
        <ele>12</ele>
        <time>2013-08-28T07:16:45Z</time>
      </trkpt>
      <trkpt lat="47.40058" lon="-0.6125">
        <ele>12</ele>
        <time>2013-08-28T07:16:45Z</time>
      </trkpt>
      <trkpt lat="47.40063" lon="-0.61242">
        <ele>12</ele>
        <time>2013-08-28T07:16:46Z</time>
      </trkpt>
      <trkpt lat="47.40075" lon="-0.61229">
        <ele>12</ele>
        <time>2013-08-28T07:16:52Z</time>
      </trkpt>
      <trkpt lat="47.40099" lon="-0.61207">
        <ele>12</ele>
        <time>2013-08-28T07:16:52Z</time>
      </trkpt>
      <trkpt lat="47.40105" lon="-0.61203">
        <ele>12</ele>
        <time>2013-08-28T07:16:54Z</time>
      </trkpt>
      <trkpt lat="47.40111" lon="-0.612">
        <ele>11</ele>
        <time>2013-08-28T07:16:55Z</time>
      </trkpt>
      <trkpt lat="47.40125" lon="-0.61193">
        <ele>11</ele>
        <time>2013-08-28T07:17:00Z</time>
      </trkpt>
      <trkpt lat="47.40151" lon="-0.6118">
        <ele>10</ele>
        <time>2013-08-28T07:17:00Z</time>
      </trkpt>
      <trkpt lat="47.40157" lon="-0.61177">
        <ele>9</ele>
        <time>2013-08-28T07:17:01Z</time>
      </trkpt>
      <trkpt lat="47.40171" lon="-0.6117">
        <ele>8</ele>
        <time>2013-08-28T07:17:07Z</time>
      </trkpt>
      <trkpt lat="47.40196" lon="-0.61155">
        <ele>8</ele>
        <time>2013-08-28T07:17:07Z</time>
      </trkpt>
      <trkpt lat="47.40202" lon="-0.61151">
        <ele>7</ele>
        <time>2013-08-28T07:17:08Z</time>
      </trkpt>
      <trkpt lat="47.40215" lon="-0.61143">
        <ele>7</ele>
        <time>2013-08-28T07:17:14Z</time>
      </trkpt>
      <trkpt lat="47.4024" lon="-0.61127">
        <ele>6</ele>
        <time>2013-08-28T07:17:14Z</time>
      </trkpt>
      <trkpt lat="47.40246" lon="-0.61122">
        <ele>6</ele>
        <time>2013-08-28T07:17:15Z</time>
      </trkpt>
      <trkpt lat="47.40258" lon="-0.61114">
        <ele>6</ele>
        <time>2013-08-28T07:17:21Z</time>
      </trkpt>
      <trkpt lat="47.40282" lon="-0.61098">
        <ele>6</ele>
        <time>2013-08-28T07:17:21Z</time>
      </trkpt>
      <trkpt lat="47.40289" lon="-0.61094">
        <ele>6</ele>
        <time>2013-08-28T07:17:22Z</time>
      </trkpt>
      <trkpt lat="47.40301" lon="-0.61086">
        <ele>6</ele>
        <time>2013-08-28T07:17:28Z</time>
      </trkpt>
      <trkpt lat="47.40325" lon="-0.6107">
        <ele>6</ele>
        <time>2013-08-28T07:17:28Z</time>
      </trkpt>
      <trkpt lat="47.40332" lon="-0.61066">
        <ele>6</ele>
        <time>2013-08-28T07:17:29Z</time>
      </trkpt>
      <trkpt lat="47.40344" lon="-0.61058">
        <ele>6</ele>
        <time>2013-08-28T07:17:35Z</time>
      </trkpt>
      <trkpt lat="47.40366" lon="-0.6104">
        <ele>6</ele>
        <time>2013-08-28T07:17:35Z</time>
      </trkpt>
      <trkpt lat="47.40371" lon="-0.61035">
        <ele>6</ele>
        <time>2013-08-28T07:17:36Z</time>
      </trkpt>
      <trkpt lat="47.40382" lon="-0.61027">
        <ele>6</ele>
        <time>2013-08-28T07:17:42Z</time>
      </trkpt>
      <trkpt lat="47.40408" lon="-0.61013">
        <ele>6</ele>
        <time>2013-08-28T07:17:42Z</time>
      </trkpt>
      <trkpt lat="47.40415" lon="-0.6101">
        <ele>6</ele>
        <time>2013-08-28T07:17:43Z</time>
      </trkpt>
      <trkpt lat="47.40451" lon="-0.60987">
        <ele>6</ele>
        <time>2013-08-28T07:17:49Z</time>
      </trkpt>
      <trkpt lat="47.40457" lon="-0.60983">
        <ele>6</ele>
        <time>2013-08-28T07:17:50Z</time>
      </trkpt>
      <trkpt lat="47.40493" lon="-0.60958">
        <ele>6</ele>
        <time>2013-08-28T07:17:56Z</time>
      </trkpt>
      <trkpt lat="47.40499" lon="-0.60953">
        <ele>6</ele>
        <time>2013-08-28T07:17:57Z</time>
      </trkpt>
      <trkpt lat="47.40511" lon="-0.60944">
        <ele>6</ele>
        <time>2013-08-28T07:18:03Z</time>
      </trkpt>
      <trkpt lat="47.4054" lon="-0.60915">
        <ele>6</ele>
        <time>2013-08-28T07:18:04Z</time>
      </trkpt>
      <trkpt lat="47.40545" lon="-0.60908">
        <ele>6</ele>
        <time>2013-08-28T07:18:05Z</time>
      </trkpt>
      <trkpt lat="47.40556" lon="-0.60896">
        <ele>6</ele>
        <time>2013-08-28T07:18:11Z</time>
      </trkpt>
      <trkpt lat="47.40577" lon="-0.6087">
        <ele>6</ele>
        <time>2013-08-28T07:18:11Z</time>
      </trkpt>
      <trkpt lat="47.40583" lon="-0.60864">
        <ele>6</ele>
        <time>2013-08-28T07:18:12Z</time>
      </trkpt>
      <trkpt lat="47.40594" lon="-0.60852">
        <ele>7</ele>
        <time>2013-08-28T07:18:18Z</time>
      </trkpt>
      <trkpt lat="47.40617" lon="-0.60834">
        <ele>7</ele>
        <time>2013-08-28T07:18:18Z</time>
      </trkpt>
      <trkpt lat="47.40623" lon="-0.6083">
        <ele>7</ele>
        <time>2013-08-28T07:18:19Z</time>
      </trkpt>
      <trkpt lat="47.4063" lon="-0.60826">
        <ele>7</ele>
        <time>2013-08-28T07:18:20Z</time>
      </trkpt>
      <trkpt lat="47.40643" lon="-0.60819">
        <ele>7</ele>
        <time>2013-08-28T07:18:26Z</time>
      </trkpt>
      <trkpt lat="47.40672" lon="-0.60813">
        <ele>7</ele>
        <time>2013-08-28T07:18:26Z</time>
      </trkpt>
      <trkpt lat="47.40679" lon="-0.60813">
        <ele>7</ele>
        <time>2013-08-28T07:18:27Z</time>
      </trkpt>
      <trkpt lat="47.40686" lon="-0.60813">
        <ele>7</ele>
        <time>2013-08-28T07:18:28Z</time>
      </trkpt>
      <trkpt lat="47.40701" lon="-0.60813">
        <ele>7</ele>
        <time>2013-08-28T07:18:34Z</time>
      </trkpt>
      <trkpt lat="47.40728" lon="-0.60809">
        <ele>7</ele>
        <time>2013-08-28T07:18:34Z</time>
      </trkpt>
      <trkpt lat="47.40736" lon="-0.60808">
        <ele>7</ele>
        <time>2013-08-28T07:18:35Z</time>
      </trkpt>
      <trkpt lat="47.40749" lon="-0.60805">
        <ele>7</ele>
        <time>2013-08-28T07:18:41Z</time>
      </trkpt>
      <trkpt lat="47.40775" lon="-0.60799">
        <ele>7</ele>
        <time>2013-08-28T07:18:41Z</time>
      </trkpt>
      <trkpt lat="47.40782" lon="-0.60798">
        <ele>7</ele>
        <time>2013-08-28T07:18:42Z</time>
      </trkpt>
      <trkpt lat="47.40795" lon="-0.60794">
        <ele>7</ele>
        <time>2013-08-28T07:18:48Z</time>
      </trkpt>
      <trkpt lat="47.40818" lon="-0.60779">
        <ele>7</ele>
        <time>2013-08-28T07:18:48Z</time>
      </trkpt>
      <trkpt lat="47.40821" lon="-0.60772">
        <ele>7</ele>
        <time>2013-08-28T07:18:49Z</time>
      </trkpt>
      <trkpt lat="47.40824" lon="-0.60764">
        <ele>7</ele>
        <time>2013-08-28T07:18:51Z</time>
      </trkpt>
      <trkpt lat="47.40824" lon="-0.60755">
        <ele>7</ele>
        <time>2013-08-28T07:18:52Z</time>
      </trkpt>
      <trkpt lat="47.40824" lon="-0.60736">
        <ele>7</ele>
        <time>2013-08-28T07:18:58Z</time>
      </trkpt>
      <trkpt lat="47.40823" lon="-0.60689">
        <ele>7</ele>
        <time>2013-08-28T07:18:59Z</time>
      </trkpt>
      <trkpt lat="47.40823" lon="-0.6067">
        <ele>7</ele>
        <time>2013-08-28T07:19:04Z</time>
      </trkpt>
      <trkpt lat="47.40823" lon="-0.60631">
        <ele>7</ele>
        <time>2013-08-28T07:19:04Z</time>
      </trkpt>
      <trkpt lat="47.40823" lon="-0.60621">
        <ele>8</ele>
        <time>2013-08-28T07:19:05Z</time>
      </trkpt>
      <trkpt lat="47.40824" lon="-0.60561">
        <ele>9</ele>
        <time>2013-08-28T07:19:11Z</time>
      </trkpt>
      <trkpt lat="47.40824" lon="-0.60552">
        <ele>10</ele>
        <time>2013-08-28T07:19:12Z</time>
      </trkpt>
      <trkpt lat="47.40824" lon="-0.60542">
        <ele>11</ele>
        <time>2013-08-28T07:19:13Z</time>
      </trkpt>
      <trkpt lat="47.40824" lon="-0.60522">
        <ele>11</ele>
        <time>2013-08-28T07:19:19Z</time>
      </trkpt>
      <trkpt lat="47.40825" lon="-0.60481">
        <ele>11</ele>
        <time>2013-08-28T07:19:19Z</time>
      </trkpt>
      <trkpt lat="47.40826" lon="-0.6047">
        <ele>11</ele>
        <time>2013-08-28T07:19:20Z</time>
      </trkpt>
      <trkpt lat="47.40826" lon="-0.60449">
        <ele>11</ele>
        <time>2013-08-28T07:19:26Z</time>
      </trkpt>
      <trkpt lat="47.40826" lon="-0.60409">
        <ele>11</ele>
        <time>2013-08-28T07:19:26Z</time>
      </trkpt>
      <trkpt lat="47.40826" lon="-0.60399">
        <ele>11</ele>
        <time>2013-08-28T07:19:27Z</time>
      </trkpt>
      <trkpt lat="47.40827" lon="-0.60378">
        <ele>11</ele>
        <time>2013-08-28T07:19:33Z</time>
      </trkpt>
      <trkpt lat="47.40828" lon="-0.60337">
        <ele>11</ele>
        <time>2013-08-28T07:19:33Z</time>
      </trkpt>
      <trkpt lat="47.40828" lon="-0.60327">
        <ele>11</ele>
        <time>2013-08-28T07:19:34Z</time>
      </trkpt>
      <trkpt lat="47.40836" lon="-0.60266">
        <ele>12</ele>
        <time>2013-08-28T07:19:40Z</time>
      </trkpt>
      <trkpt lat="47.40838" lon="-0.60256">
        <ele>12</ele>
        <time>2013-08-28T07:19:41Z</time>
      </trkpt>
      <trkpt lat="47.40842" lon="-0.60237">
        <ele>12</ele>
        <time>2013-08-28T07:19:47Z</time>
      </trkpt>
      <trkpt lat="47.40853" lon="-0.60188">
        <ele>12</ele>
        <time>2013-08-28T07:19:48Z</time>
      </trkpt>
      <trkpt lat="47.40856" lon="-0.60178">
        <ele>12</ele>
        <time>2013-08-28T07:19:49Z</time>
      </trkpt>
      <trkpt lat="47.40863" lon="-0.60159">
        <ele>12</ele>
        <time>2013-08-28T07:19:55Z</time>
      </trkpt>
      <trkpt lat="47.40881" lon="-0.6013">
        <ele>12</ele>
        <time>2013-08-28T07:19:55Z</time>
      </trkpt>
      <trkpt lat="47.40886" lon="-0.60124">
        <ele>12</ele>
        <time>2013-08-28T07:19:56Z</time>
      </trkpt>
      <trkpt lat="47.40892" lon="-0.60118">
        <ele>12</ele>
        <time>2013-08-28T07:19:58Z</time>
      </trkpt>
      <trkpt lat="47.40903" lon="-0.60106">
        <ele>12</ele>
        <time>2013-08-28T07:20:03Z</time>
      </trkpt>
      <trkpt lat="47.40924" lon="-0.60085">
        <ele>12</ele>
        <time>2013-08-28T07:20:03Z</time>
      </trkpt>
      <trkpt lat="47.40929" lon="-0.60079">
        <ele>12</ele>
        <time>2013-08-28T07:20:04Z</time>
      </trkpt>
      <trkpt lat="47.40963" lon="-0.60044">
        <ele>12</ele>
        <time>2013-08-28T07:20:10Z</time>
      </trkpt>
      <trkpt lat="47.40968" lon="-0.60038">
        <ele>12</ele>
        <time>2013-08-28T07:20:11Z</time>
      </trkpt>
      <trkpt lat="47.40979" lon="-0.60025">
        <ele>12</ele>
        <time>2013-08-28T07:20:17Z</time>
      </trkpt>
      <trkpt lat="47.41003" lon="-0.59986">
        <ele>12</ele>
        <time>2013-08-28T07:20:18Z</time>
      </trkpt>
      <trkpt lat="47.41005" lon="-0.59976">
        <ele>12</ele>
        <time>2013-08-28T07:20:20Z</time>
      </trkpt>
      <trkpt lat="47.41007" lon="-0.59967">
        <ele>12</ele>
        <time>2013-08-28T07:20:21Z</time>
      </trkpt>
      <trkpt lat="47.41008" lon="-0.59948">
        <ele>12</ele>
        <time>2013-08-28T07:20:27Z</time>
      </trkpt>
      <trkpt lat="47.41011" lon="-0.59898">
        <ele>12</ele>
        <time>2013-08-28T07:20:27Z</time>
      </trkpt>
      <trkpt lat="47.41012" lon="-0.59877">
        <ele>12</ele>
        <time>2013-08-28T07:20:33Z</time>
      </trkpt>
      <trkpt lat="47.41015" lon="-0.59827">
        <ele>12</ele>
        <time>2013-08-28T07:20:34Z</time>
      </trkpt>
      <trkpt lat="47.41016" lon="-0.59817">
        <ele>12</ele>
        <time>2013-08-28T07:20:35Z</time>
      </trkpt>
      <trkpt lat="47.41019" lon="-0.59797">
        <ele>12</ele>
        <time>2013-08-28T07:20:41Z</time>
      </trkpt>
      <trkpt lat="47.41023" lon="-0.59756">
        <ele>12</ele>
        <time>2013-08-28T07:20:41Z</time>
      </trkpt>
      <trkpt lat="47.41024" lon="-0.59747">
        <ele>12</ele>
        <time>2013-08-28T07:20:42Z</time>
      </trkpt>
      <trkpt lat="47.41027" lon="-0.59727">
        <ele>12</ele>
        <time>2013-08-28T07:20:48Z</time>
      </trkpt>
      <trkpt lat="47.4103" lon="-0.5969">
        <ele>12</ele>
        <time>2013-08-28T07:20:48Z</time>
      </trkpt>
      <trkpt lat="47.41031" lon="-0.5968">
        <ele>12</ele>
        <time>2013-08-28T07:20:49Z</time>
      </trkpt>
      <trkpt lat="47.41029" lon="-0.59622">
        <ele>12</ele>
        <time>2013-08-28T07:20:55Z</time>
      </trkpt>
      <trkpt lat="47.41028" lon="-0.59611">
        <ele>13</ele>
        <time>2013-08-28T07:20:56Z</time>
      </trkpt>
      <trkpt lat="47.41027" lon="-0.59601">
        <ele>14</ele>
        <time>2013-08-28T07:20:57Z</time>
      </trkpt>
      <trkpt lat="47.41026" lon="-0.59579">
        <ele>15</ele>
        <time>2013-08-28T07:21:03Z</time>
      </trkpt>
      <trkpt lat="47.41023" lon="-0.59538">
        <ele>15</ele>
        <time>2013-08-28T07:21:03Z</time>
      </trkpt>
      <trkpt lat="47.41022" lon="-0.59527">
        <ele>15</ele>
        <time>2013-08-28T07:21:04Z</time>
      </trkpt>
      <trkpt lat="47.41021" lon="-0.59509">
        <ele>15</ele>
        <time>2013-08-28T07:21:10Z</time>
      </trkpt>
      <trkpt lat="47.41021" lon="-0.59467">
        <ele>15</ele>
        <time>2013-08-28T07:21:10Z</time>
      </trkpt>
      <trkpt lat="47.4102" lon="-0.59456">
        <ele>15</ele>
        <time>2013-08-28T07:21:11Z</time>
      </trkpt>
      <trkpt lat="47.41022" lon="-0.59434">
        <ele>15</ele>
        <time>2013-08-28T07:21:17Z</time>
      </trkpt>
      <trkpt lat="47.41029" lon="-0.59386">
        <ele>15</ele>
        <time>2013-08-28T07:21:18Z</time>
      </trkpt>
      <trkpt lat="47.4103" lon="-0.59376">
        <ele>15</ele>
        <time>2013-08-28T07:21:19Z</time>
      </trkpt>
      <trkpt lat="47.41035" lon="-0.59358">
        <ele>15</ele>
        <time>2013-08-28T07:21:25Z</time>
      </trkpt>
      <trkpt lat="47.4104" lon="-0.59316">
        <ele>15</ele>
        <time>2013-08-28T07:21:25Z</time>
      </trkpt>
      <trkpt lat="47.41042" lon="-0.59306">
        <ele>15</ele>
        <time>2013-08-28T07:21:26Z</time>
      </trkpt>
      <trkpt lat="47.4105" lon="-0.59247">
        <ele>15</ele>
        <time>2013-08-28T07:21:32Z</time>
      </trkpt>
      <trkpt lat="47.41051" lon="-0.59237">
        <ele>15</ele>
        <time>2013-08-28T07:21:33Z</time>
      </trkpt>
      <trkpt lat="47.41053" lon="-0.59218">
        <ele>15</ele>
        <time>2013-08-28T07:21:40Z</time>
      </trkpt>
      <trkpt lat="47.41062" lon="-0.5918">
        <ele>15</ele>
        <time>2013-08-28T07:21:40Z</time>
      </trkpt>
      <trkpt lat="47.41064" lon="-0.59172">
        <ele>15</ele>
        <time>2013-08-28T07:21:41Z</time>
      </trkpt>
      <trkpt lat="47.41068" lon="-0.59156">
        <ele>15</ele>
        <time>2013-08-28T07:21:47Z</time>
      </trkpt>
      <trkpt lat="47.41076" lon="-0.59125">
        <ele>15</ele>
        <time>2013-08-28T07:21:47Z</time>
      </trkpt>
      <trkpt lat="47.41077" lon="-0.59117">
        <ele>15</ele>
        <time>2013-08-28T07:21:48Z</time>
      </trkpt>
      <trkpt lat="47.4108" lon="-0.59065">
        <ele>15</ele>
        <time>2013-08-28T07:21:54Z</time>
      </trkpt>
      <trkpt lat="47.41081" lon="-0.59056">
        <ele>15</ele>
        <time>2013-08-28T07:21:55Z</time>
      </trkpt>
      <trkpt lat="47.41081" lon="-0.59038">
        <ele>15</ele>
        <time>2013-08-28T07:22:02Z</time>
      </trkpt>
      <trkpt lat="47.41081" lon="-0.58991">
        <ele>15</ele>
        <time>2013-08-28T07:22:02Z</time>
      </trkpt>
      <trkpt lat="47.4108" lon="-0.58982">
        <ele>15</ele>
        <time>2013-08-28T07:22:03Z</time>
      </trkpt>
      <trkpt lat="47.41078" lon="-0.58963">
        <ele>16</ele>
        <time>2013-08-28T07:22:09Z</time>
      </trkpt>
      <trkpt lat="47.41075" lon="-0.58922">
        <ele>16</ele>
        <time>2013-08-28T07:22:09Z</time>
      </trkpt>
      <trkpt lat="47.41074" lon="-0.58912">
        <ele>16</ele>
        <time>2013-08-28T07:22:10Z</time>
      </trkpt>
      <trkpt lat="47.41072" lon="-0.58853">
        <ele>16</ele>
        <time>2013-08-28T07:22:16Z</time>
      </trkpt>
      <trkpt lat="47.41072" lon="-0.58843">
        <ele>16</ele>
        <time>2013-08-28T07:22:17Z</time>
      </trkpt>
      <trkpt lat="47.41071" lon="-0.58834">
        <ele>16</ele>
        <time>2013-08-28T07:22:18Z</time>
      </trkpt>
      <trkpt lat="47.41069" lon="-0.58815">
        <ele>16</ele>
        <time>2013-08-28T07:22:24Z</time>
      </trkpt>
      <trkpt lat="47.41066" lon="-0.58776">
        <ele>16</ele>
        <time>2013-08-28T07:22:24Z</time>
      </trkpt>
      <trkpt lat="47.41066" lon="-0.58768">
        <ele>16</ele>
        <time>2013-08-28T07:22:25Z</time>
      </trkpt>
      <trkpt lat="47.41067" lon="-0.58711">
        <ele>16</ele>
        <time>2013-08-28T07:22:31Z</time>
      </trkpt>
      <trkpt lat="47.41067" lon="-0.58701">
        <ele>16</ele>
        <time>2013-08-28T07:22:32Z</time>
      </trkpt>
      <trkpt lat="47.41068" lon="-0.58692">
        <ele>16</ele>
        <time>2013-08-28T07:22:33Z</time>
      </trkpt>
      <trkpt lat="47.41068" lon="-0.58674">
        <ele>16</ele>
        <time>2013-08-28T07:22:39Z</time>
      </trkpt>
      <trkpt lat="47.41069" lon="-0.58634">
        <ele>16</ele>
        <time>2013-08-28T07:22:39Z</time>
      </trkpt>
      <trkpt lat="47.4107" lon="-0.58623">
        <ele>16</ele>
        <time>2013-08-28T07:22:40Z</time>
      </trkpt>
      <trkpt lat="47.41072" lon="-0.58561">
        <ele>16</ele>
        <time>2013-08-28T07:22:46Z</time>
      </trkpt>
      <trkpt lat="47.41073" lon="-0.5855">
        <ele>16</ele>
        <time>2013-08-28T07:22:47Z</time>
      </trkpt>
      <trkpt lat="47.41073" lon="-0.5854">
        <ele>16</ele>
        <time>2013-08-28T07:22:48Z</time>
      </trkpt>
      <trkpt lat="47.41073" lon="-0.58518">
        <ele>16</ele>
        <time>2013-08-28T07:22:54Z</time>
      </trkpt>
      <trkpt lat="47.41072" lon="-0.58476">
        <ele>16</ele>
        <time>2013-08-28T07:22:54Z</time>
      </trkpt>
      <trkpt lat="47.41072" lon="-0.58465">
        <ele>16</ele>
        <time>2013-08-28T07:22:55Z</time>
      </trkpt>
      <trkpt lat="47.41072" lon="-0.58402">
        <ele>16</ele>
        <time>2013-08-28T07:23:01Z</time>
      </trkpt>
      <trkpt lat="47.41072" lon="-0.58391">
        <ele>16</ele>
        <time>2013-08-28T07:23:02Z</time>
      </trkpt>
      <trkpt lat="47.41071" lon="-0.58381">
        <ele>16</ele>
        <time>2013-08-28T07:23:03Z</time>
      </trkpt>
      <trkpt lat="47.41071" lon="-0.58359">
        <ele>16</ele>
        <time>2013-08-28T07:23:09Z</time>
      </trkpt>
      <trkpt lat="47.41068" lon="-0.58318">
        <ele>16</ele>
        <time>2013-08-28T07:23:09Z</time>
      </trkpt>
      <trkpt lat="47.41068" lon="-0.58307">
        <ele>16</ele>
        <time>2013-08-28T07:23:10Z</time>
      </trkpt>
      <trkpt lat="47.41066" lon="-0.58286">
        <ele>16</ele>
        <time>2013-08-28T07:23:16Z</time>
      </trkpt>
      <trkpt lat="47.41063" lon="-0.58237">
        <ele>16</ele>
        <time>2013-08-28T07:23:17Z</time>
      </trkpt>
      <trkpt lat="47.41062" lon="-0.58227">
        <ele>16</ele>
        <time>2013-08-28T07:23:18Z</time>
      </trkpt>
      <trkpt lat="47.41064" lon="-0.58208">
        <ele>16</ele>
        <time>2013-08-28T07:23:24Z</time>
      </trkpt>
      <trkpt lat="47.41065" lon="-0.58167">
        <ele>16</ele>
        <time>2013-08-28T07:23:24Z</time>
      </trkpt>
      <trkpt lat="47.41066" lon="-0.58157">
        <ele>16</ele>
        <time>2013-08-28T07:23:25Z</time>
      </trkpt>
      <trkpt lat="47.41067" lon="-0.58137">
        <ele>16</ele>
        <time>2013-08-28T07:23:31Z</time>
      </trkpt>
      <trkpt lat="47.4107" lon="-0.58086">
        <ele>16</ele>
        <time>2013-08-28T07:23:32Z</time>
      </trkpt>
      <trkpt lat="47.4107" lon="-0.58076">
        <ele>16</ele>
        <time>2013-08-28T07:23:33Z</time>
      </trkpt>
      <trkpt lat="47.4107" lon="-0.58056">
        <ele>16</ele>
        <time>2013-08-28T07:23:39Z</time>
      </trkpt>
      <trkpt lat="47.41071" lon="-0.58016">
        <ele>16</ele>
        <time>2013-08-28T07:23:39Z</time>
      </trkpt>
      <trkpt lat="47.41071" lon="-0.58006">
        <ele>16</ele>
        <time>2013-08-28T07:23:40Z</time>
      </trkpt>
      <trkpt lat="47.41072" lon="-0.57987">
        <ele>16</ele>
        <time>2013-08-28T07:23:46Z</time>
      </trkpt>
      <trkpt lat="47.41078" lon="-0.57937">
        <ele>16</ele>
        <time>2013-08-28T07:23:47Z</time>
      </trkpt>
      <trkpt lat="47.41079" lon="-0.57927">
        <ele>16</ele>
        <time>2013-08-28T07:23:48Z</time>
      </trkpt>
      <trkpt lat="47.41082" lon="-0.57908">
        <ele>16</ele>
        <time>2013-08-28T07:23:54Z</time>
      </trkpt>
      <trkpt lat="47.4109" lon="-0.57871">
        <ele>16</ele>
        <time>2013-08-28T07:23:54Z</time>
      </trkpt>
      <trkpt lat="47.4109" lon="-0.57861">
        <ele>16</ele>
        <time>2013-08-28T07:23:55Z</time>
      </trkpt>
      <trkpt lat="47.4109" lon="-0.57841">
        <ele>16</ele>
        <time>2013-08-28T07:24:01Z</time>
      </trkpt>
      <trkpt lat="47.41092" lon="-0.57793">
        <ele>16</ele>
        <time>2013-08-28T07:24:02Z</time>
      </trkpt>
      <trkpt lat="47.41092" lon="-0.57783">
        <ele>16</ele>
        <time>2013-08-28T07:24:03Z</time>
      </trkpt>
      <trkpt lat="47.41092" lon="-0.57764">
        <ele>16</ele>
        <time>2013-08-28T07:24:09Z</time>
      </trkpt>
      <trkpt lat="47.41093" lon="-0.57723">
        <ele>16</ele>
        <time>2013-08-28T07:24:09Z</time>
      </trkpt>
      <trkpt lat="47.41093" lon="-0.57713">
        <ele>16</ele>
        <time>2013-08-28T07:24:10Z</time>
      </trkpt>
      <trkpt lat="47.41094" lon="-0.57694">
        <ele>16</ele>
        <time>2013-08-28T07:24:16Z</time>
      </trkpt>
      <trkpt lat="47.41099" lon="-0.57645">
        <ele>16</ele>
        <time>2013-08-28T07:24:17Z</time>
      </trkpt>
      <trkpt lat="47.411" lon="-0.57636">
        <ele>16</ele>
        <time>2013-08-28T07:24:18Z</time>
      </trkpt>
      <trkpt lat="47.41102" lon="-0.57617">
        <ele>16</ele>
        <time>2013-08-28T07:24:24Z</time>
      </trkpt>
      <trkpt lat="47.41108" lon="-0.57578">
        <ele>16</ele>
        <time>2013-08-28T07:24:24Z</time>
      </trkpt>
      <trkpt lat="47.41109" lon="-0.57568">
        <ele>16</ele>
        <time>2013-08-28T07:24:25Z</time>
      </trkpt>
      <trkpt lat="47.41113" lon="-0.57548">
        <ele>16</ele>
        <time>2013-08-28T07:24:31Z</time>
      </trkpt>
      <trkpt lat="47.41124" lon="-0.57498">
        <ele>16</ele>
        <time>2013-08-28T07:24:32Z</time>
      </trkpt>
      <trkpt lat="47.41125" lon="-0.57488">
        <ele>16</ele>
        <time>2013-08-28T07:24:33Z</time>
      </trkpt>
      <trkpt lat="47.41129" lon="-0.57468">
        <ele>16</ele>
        <time>2013-08-28T07:24:39Z</time>
      </trkpt>
      <trkpt lat="47.41133" lon="-0.57428">
        <ele>16</ele>
        <time>2013-08-28T07:24:39Z</time>
      </trkpt>
      <trkpt lat="47.41134" lon="-0.57417">
        <ele>16</ele>
        <time>2013-08-28T07:24:40Z</time>
      </trkpt>
      <trkpt lat="47.41136" lon="-0.57397">
        <ele>16</ele>
        <time>2013-08-28T07:24:47Z</time>
      </trkpt>
      <trkpt lat="47.4114" lon="-0.57341">
        <ele>16</ele>
        <time>2013-08-28T07:24:47Z</time>
      </trkpt>
      <trkpt lat="47.41141" lon="-0.57331">
        <ele>16</ele>
        <time>2013-08-28T07:24:48Z</time>
      </trkpt>
      <trkpt lat="47.41142" lon="-0.5731">
        <ele>16</ele>
        <time>2013-08-28T07:24:54Z</time>
      </trkpt>
      <trkpt lat="47.41143" lon="-0.57266">
        <ele>16</ele>
        <time>2013-08-28T07:24:54Z</time>
      </trkpt>
      <trkpt lat="47.41143" lon="-0.57256">
        <ele>16</ele>
        <time>2013-08-28T07:24:55Z</time>
      </trkpt>
      <trkpt lat="47.41144" lon="-0.57235">
        <ele>16</ele>
        <time>2013-08-28T07:25:02Z</time>
      </trkpt>
      <trkpt lat="47.41148" lon="-0.57186">
        <ele>16</ele>
        <time>2013-08-28T07:25:02Z</time>
      </trkpt>
      <trkpt lat="47.41149" lon="-0.57175">
        <ele>16</ele>
        <time>2013-08-28T07:25:03Z</time>
      </trkpt>
      <trkpt lat="47.41156" lon="-0.57116">
        <ele>16</ele>
        <time>2013-08-28T07:25:09Z</time>
      </trkpt>
      <trkpt lat="47.41159" lon="-0.57106">
        <ele>16</ele>
        <time>2013-08-28T07:25:10Z</time>
      </trkpt>
      <trkpt lat="47.4116" lon="-0.57097">
        <ele>16</ele>
        <time>2013-08-28T07:25:12Z</time>
      </trkpt>
      <trkpt lat="47.41163" lon="-0.57077">
        <ele>16</ele>
        <time>2013-08-28T07:25:17Z</time>
      </trkpt>
      <trkpt lat="47.41172" lon="-0.57026">
        <ele>16</ele>
        <time>2013-08-28T07:25:18Z</time>
      </trkpt>
      <trkpt lat="47.41174" lon="-0.57016">
        <ele>16</ele>
        <time>2013-08-28T07:25:19Z</time>
      </trkpt>
      <trkpt lat="47.41177" lon="-0.56994">
        <ele>16</ele>
        <time>2013-08-28T07:25:25Z</time>
      </trkpt>
      <trkpt lat="47.41182" lon="-0.56954">
        <ele>16</ele>
        <time>2013-08-28T07:25:25Z</time>
      </trkpt>
      <trkpt lat="47.41183" lon="-0.56944">
        <ele>16</ele>
        <time>2013-08-28T07:25:26Z</time>
      </trkpt>
      <trkpt lat="47.41186" lon="-0.56921">
        <ele>16</ele>
        <time>2013-08-28T07:25:33Z</time>
      </trkpt>
      <trkpt lat="47.41194" lon="-0.56871">
        <ele>16</ele>
        <time>2013-08-28T07:25:33Z</time>
      </trkpt>
      <trkpt lat="47.41196" lon="-0.56861">
        <ele>16</ele>
        <time>2013-08-28T07:25:34Z</time>
      </trkpt>
      <trkpt lat="47.41207" lon="-0.56804">
        <ele>16</ele>
        <time>2013-08-28T07:25:40Z</time>
      </trkpt>
      <trkpt lat="47.41209" lon="-0.56794">
        <ele>16</ele>
        <time>2013-08-28T07:25:41Z</time>
      </trkpt>
      <trkpt lat="47.4121" lon="-0.56784">
        <ele>16</ele>
        <time>2013-08-28T07:25:42Z</time>
      </trkpt>
      <trkpt lat="47.41212" lon="-0.56765">
        <ele>16</ele>
        <time>2013-08-28T07:25:48Z</time>
      </trkpt>
      <trkpt lat="47.41217" lon="-0.56728">
        <ele>16</ele>
        <time>2013-08-28T07:25:48Z</time>
      </trkpt>
      <trkpt lat="47.41219" lon="-0.56719">
        <ele>16</ele>
        <time>2013-08-28T07:25:49Z</time>
      </trkpt>
      <trkpt lat="47.41224" lon="-0.56699">
        <ele>16</ele>
        <time>2013-08-28T07:25:56Z</time>
      </trkpt>
      <trkpt lat="47.41231" lon="-0.56653">
        <ele>16</ele>
        <time>2013-08-28T07:25:56Z</time>
      </trkpt>
      <trkpt lat="47.41234" lon="-0.56643">
        <ele>16</ele>
        <time>2013-08-28T07:25:57Z</time>
      </trkpt>
      <trkpt lat="47.41241" lon="-0.56625">
        <ele>16</ele>
        <time>2013-08-28T07:26:03Z</time>
      </trkpt>
      <trkpt lat="47.41261" lon="-0.56581">
        <ele>16</ele>
        <time>2013-08-28T07:26:04Z</time>
      </trkpt>
      <trkpt lat="47.41264" lon="-0.56572">
        <ele>15</ele>
        <time>2013-08-28T07:26:05Z</time>
      </trkpt>
      <trkpt lat="47.41271" lon="-0.56554">
        <ele>15</ele>
        <time>2013-08-28T07:26:11Z</time>
      </trkpt>
      <trkpt lat="47.4128" lon="-0.56516">
        <ele>14</ele>
        <time>2013-08-28T07:26:11Z</time>
      </trkpt>
      <trkpt lat="47.41281" lon="-0.56506">
        <ele>13</ele>
        <time>2013-08-28T07:26:13Z</time>
      </trkpt>
      <trkpt lat="47.41283" lon="-0.56497">
        <ele>13</ele>
        <time>2013-08-28T07:26:13Z</time>
      </trkpt>
      <trkpt lat="47.41285" lon="-0.56478">
        <ele>13</ele>
        <time>2013-08-28T07:26:20Z</time>
      </trkpt>
      <trkpt lat="47.41292" lon="-0.56429">
        <ele>13</ele>
        <time>2013-08-28T07:26:20Z</time>
      </trkpt>
      <trkpt lat="47.41294" lon="-0.5642">
        <ele>13</ele>
        <time>2013-08-28T07:26:21Z</time>
      </trkpt>
      <trkpt lat="47.41299" lon="-0.564">
        <ele>13</ele>
        <time>2013-08-28T07:26:27Z</time>
      </trkpt>
      <trkpt lat="47.41311" lon="-0.56352">
        <ele>13</ele>
        <time>2013-08-28T07:26:28Z</time>
      </trkpt>
      <trkpt lat="47.41313" lon="-0.56343">
        <ele>13</ele>
        <time>2013-08-28T07:26:29Z</time>
      </trkpt>
      <trkpt lat="47.41321" lon="-0.56284">
        <ele>13</ele>
        <time>2013-08-28T07:26:35Z</time>
      </trkpt>
      <trkpt lat="47.41322" lon="-0.56275">
        <ele>13</ele>
        <time>2013-08-28T07:26:36Z</time>
      </trkpt>
      <trkpt lat="47.41323" lon="-0.56257">
        <ele>13</ele>
        <time>2013-08-28T07:26:43Z</time>
      </trkpt>
      <trkpt lat="47.41327" lon="-0.56208">
        <ele>13</ele>
        <time>2013-08-28T07:26:43Z</time>
      </trkpt>
      <trkpt lat="47.41327" lon="-0.56199">
        <ele>13</ele>
        <time>2013-08-28T07:26:44Z</time>
      </trkpt>
      <trkpt lat="47.41328" lon="-0.56179">
        <ele>13</ele>
        <time>2013-08-28T07:26:50Z</time>
      </trkpt>
      <trkpt lat="47.4133" lon="-0.56127">
        <ele>14</ele>
        <time>2013-08-28T07:26:51Z</time>
      </trkpt>
      <trkpt lat="47.4133" lon="-0.56117">
        <ele>15</ele>
        <time>2013-08-28T07:26:52Z</time>
      </trkpt>
      <trkpt lat="47.41336" lon="-0.56057">
        <ele>15</ele>
        <time>2013-08-28T07:26:58Z</time>
      </trkpt>
      <trkpt lat="47.41337" lon="-0.56047">
        <ele>16</ele>
        <time>2013-08-28T07:26:59Z</time>
      </trkpt>
      <trkpt lat="47.4134" lon="-0.56025">
        <ele>16</ele>
        <time>2013-08-28T07:27:06Z</time>
      </trkpt>
      <trkpt lat="47.41349" lon="-0.55975">
        <ele>17</ele>
        <time>2013-08-28T07:27:06Z</time>
      </trkpt>
      <trkpt lat="47.41351" lon="-0.55964">
        <ele>17</ele>
        <time>2013-08-28T07:27:07Z</time>
      </trkpt>
      <trkpt lat="47.41355" lon="-0.55945">
        <ele>17</ele>
        <time>2013-08-28T07:27:14Z</time>
      </trkpt>
      <trkpt lat="47.41362" lon="-0.55891">
        <ele>17</ele>
        <time>2013-08-28T07:27:14Z</time>
      </trkpt>
      <trkpt lat="47.41363" lon="-0.5588">
        <ele>17</ele>
        <time>2013-08-28T07:27:15Z</time>
      </trkpt>
      <trkpt lat="47.41365" lon="-0.5586">
        <ele>17</ele>
        <time>2013-08-28T07:27:22Z</time>
      </trkpt>
      <trkpt lat="47.41365" lon="-0.55809">
        <ele>17</ele>
        <time>2013-08-28T07:27:22Z</time>
      </trkpt>
      <trkpt lat="47.41365" lon="-0.55799">
        <ele>17</ele>
        <time>2013-08-28T07:27:23Z</time>
      </trkpt>
      <trkpt lat="47.41367" lon="-0.55779">
        <ele>17</ele>
        <time>2013-08-28T07:27:28Z</time>
      </trkpt>
      <trkpt lat="47.41369" lon="-0.55748">
        <ele>17</ele>
        <time>2013-08-28T07:27:28Z</time>
      </trkpt>
      <trkpt lat="47.41369" lon="-0.55738">
        <ele>17</ele>
        <time>2013-08-28T07:27:29Z</time>
      </trkpt>
      <trkpt lat="47.41378" lon="-0.55688">
        <ele>17</ele>
        <time>2013-08-28T07:27:34Z</time>
      </trkpt>
      <trkpt lat="47.4138" lon="-0.55677">
        <ele>17</ele>
        <time>2013-08-28T07:27:35Z</time>
      </trkpt>
      <trkpt lat="47.41381" lon="-0.55668">
        <ele>17</ele>
        <time>2013-08-28T07:27:36Z</time>
      </trkpt>
      <trkpt lat="47.41385" lon="-0.55648">
        <ele>17</ele>
        <time>2013-08-28T07:27:41Z</time>
      </trkpt>
      <trkpt lat="47.4139" lon="-0.55617">
        <ele>17</ele>
        <time>2013-08-28T07:27:41Z</time>
      </trkpt>
      <trkpt lat="47.41391" lon="-0.55607">
        <ele>17</ele>
        <time>2013-08-28T07:27:42Z</time>
      </trkpt>
      <trkpt lat="47.414" lon="-0.55555">
        <ele>17</ele>
        <time>2013-08-28T07:27:47Z</time>
      </trkpt>
      <trkpt lat="47.41402" lon="-0.55545">
        <ele>17</ele>
        <time>2013-08-28T07:27:48Z</time>
      </trkpt>
      <trkpt lat="47.41403" lon="-0.55535">
        <ele>17</ele>
        <time>2013-08-28T07:27:49Z</time>
      </trkpt>
      <trkpt lat="47.41407" lon="-0.55515">
        <ele>17</ele>
        <time>2013-08-28T07:27:54Z</time>
      </trkpt>
      <trkpt lat="47.41412" lon="-0.55485">
        <ele>17</ele>
        <time>2013-08-28T07:27:54Z</time>
      </trkpt>
      <trkpt lat="47.41413" lon="-0.55475">
        <ele>17</ele>
        <time>2013-08-28T07:27:55Z</time>
      </trkpt>
      <trkpt lat="47.41424" lon="-0.55423">
        <ele>17</ele>
        <time>2013-08-28T07:28:00Z</time>
      </trkpt>
      <trkpt lat="47.41426" lon="-0.55412">
        <ele>17</ele>
        <time>2013-08-28T07:28:01Z</time>
      </trkpt>
      <trkpt lat="47.41428" lon="-0.55402">
        <ele>17</ele>
        <time>2013-08-28T07:28:02Z</time>
      </trkpt>
      <trkpt lat="47.41433" lon="-0.55383">
        <ele>17</ele>
        <time>2013-08-28T07:28:07Z</time>
      </trkpt>
      <trkpt lat="47.4144" lon="-0.55351">
        <ele>17</ele>
        <time>2013-08-28T07:28:07Z</time>
      </trkpt>
      <trkpt lat="47.41442" lon="-0.55341">
        <ele>17</ele>
        <time>2013-08-28T07:28:08Z</time>
      </trkpt>
      <trkpt lat="47.41447" lon="-0.5532">
        <ele>17</ele>
        <time>2013-08-28T07:28:13Z</time>
      </trkpt>
      <trkpt lat="47.41457" lon="-0.5528">
        <ele>17</ele>
        <time>2013-08-28T07:28:14Z</time>
      </trkpt>
      <trkpt lat="47.4146" lon="-0.5527">
        <ele>17</ele>
        <time>2013-08-28T07:28:15Z</time>
      </trkpt>
      <trkpt lat="47.41465" lon="-0.5525">
        <ele>17</ele>
        <time>2013-08-28T07:28:20Z</time>
      </trkpt>
      <trkpt lat="47.41471" lon="-0.55221">
        <ele>17</ele>
        <time>2013-08-28T07:28:20Z</time>
      </trkpt>
      <trkpt lat="47.41474" lon="-0.55211">
        <ele>17</ele>
        <time>2013-08-28T07:28:21Z</time>
      </trkpt>
      <trkpt lat="47.41479" lon="-0.55192">
        <ele>17</ele>
        <time>2013-08-28T07:28:26Z</time>
      </trkpt>
      <trkpt lat="47.41488" lon="-0.55152">
        <ele>17</ele>
        <time>2013-08-28T07:28:27Z</time>
      </trkpt>
      <trkpt lat="47.4149" lon="-0.55142">
        <ele>17</ele>
        <time>2013-08-28T07:28:28Z</time>
      </trkpt>
      <trkpt lat="47.41495" lon="-0.55123">
        <ele>17</ele>
        <time>2013-08-28T07:28:33Z</time>
      </trkpt>
      <trkpt lat="47.41502" lon="-0.55094">
        <ele>17</ele>
        <time>2013-08-28T07:28:33Z</time>
      </trkpt>
      <trkpt lat="47.41504" lon="-0.55084">
        <ele>17</ele>
        <time>2013-08-28T07:28:34Z</time>
      </trkpt>
      <trkpt lat="47.41509" lon="-0.55066">
        <ele>17</ele>
        <time>2013-08-28T07:28:39Z</time>
      </trkpt>
      <trkpt lat="47.41521" lon="-0.55026">
        <ele>17</ele>
        <time>2013-08-28T07:28:40Z</time>
      </trkpt>
      <trkpt lat="47.41525" lon="-0.55016">
        <ele>17</ele>
        <time>2013-08-28T07:28:41Z</time>
      </trkpt>
      <trkpt lat="47.41532" lon="-0.54997">
        <ele>17</ele>
        <time>2013-08-28T07:28:46Z</time>
      </trkpt>
      <trkpt lat="47.41543" lon="-0.5497">
        <ele>17</ele>
        <time>2013-08-28T07:28:46Z</time>
      </trkpt>
      <trkpt lat="47.41547" lon="-0.54961">
        <ele>16</ele>
        <time>2013-08-28T07:28:47Z</time>
      </trkpt>
      <trkpt lat="47.41555" lon="-0.54944">
        <ele>16</ele>
        <time>2013-08-28T07:28:52Z</time>
      </trkpt>
      <trkpt lat="47.4157" lon="-0.54908">
        <ele>15</ele>
        <time>2013-08-28T07:28:53Z</time>
      </trkpt>
      <trkpt lat="47.41573" lon="-0.54899">
        <ele>15</ele>
        <time>2013-08-28T07:28:54Z</time>
      </trkpt>
      <trkpt lat="47.41579" lon="-0.5488">
        <ele>15</ele>
        <time>2013-08-28T07:28:59Z</time>
      </trkpt>
      <trkpt lat="47.41588" lon="-0.54853">
        <ele>15</ele>
        <time>2013-08-28T07:28:59Z</time>
      </trkpt>
      <trkpt lat="47.41591" lon="-0.54843">
        <ele>15</ele>
        <time>2013-08-28T07:29:00Z</time>
      </trkpt>
      <trkpt lat="47.41597" lon="-0.54825">
        <ele>15</ele>
        <time>2013-08-28T07:29:05Z</time>
      </trkpt>
      <trkpt lat="47.41607" lon="-0.54788">
        <ele>15</ele>
        <time>2013-08-28T07:29:06Z</time>
      </trkpt>
      <trkpt lat="47.41609" lon="-0.54778">
        <ele>15</ele>
        <time>2013-08-28T07:29:07Z</time>
      </trkpt>
      <trkpt lat="47.41613" lon="-0.54759">
        <ele>15</ele>
        <time>2013-08-28T07:29:12Z</time>
      </trkpt>
      <trkpt lat="47.41618" lon="-0.5473">
        <ele>15</ele>
        <time>2013-08-28T07:29:12Z</time>
      </trkpt>
      <trkpt lat="47.41621" lon="-0.54721">
        <ele>15</ele>
        <time>2013-08-28T07:29:13Z</time>
      </trkpt>
      <trkpt lat="47.41624" lon="-0.54702">
        <ele>15</ele>
        <time>2013-08-28T07:29:18Z</time>
      </trkpt>
      <trkpt lat="47.41629" lon="-0.54666">
        <ele>15</ele>
        <time>2013-08-28T07:29:19Z</time>
      </trkpt>
      <trkpt lat="47.41629" lon="-0.54657">
        <ele>15</ele>
        <time>2013-08-28T07:29:20Z</time>
      </trkpt>
      <trkpt lat="47.41629" lon="-0.54638">
        <ele>15</ele>
        <time>2013-08-28T07:29:25Z</time>
      </trkpt>
      <trkpt lat="47.41629" lon="-0.54606">
        <ele>15</ele>
        <time>2013-08-28T07:29:25Z</time>
      </trkpt>
      <trkpt lat="47.41628" lon="-0.54596">
        <ele>15</ele>
        <time>2013-08-28T07:29:26Z</time>
      </trkpt>
      <trkpt lat="47.41628" lon="-0.54576">
        <ele>15</ele>
        <time>2013-08-28T07:29:31Z</time>
      </trkpt>
      <trkpt lat="47.41632" lon="-0.54537">
        <ele>15</ele>
        <time>2013-08-28T07:29:32Z</time>
      </trkpt>
      <trkpt lat="47.41634" lon="-0.54528">
        <ele>15</ele>
        <time>2013-08-28T07:29:33Z</time>
      </trkpt>
      <trkpt lat="47.41636" lon="-0.54519">
        <ele>15</ele>
        <time>2013-08-28T07:29:35Z</time>
      </trkpt>
      <trkpt lat="47.41642" lon="-0.545">
        <ele>15</ele>
        <time>2013-08-28T07:29:39Z</time>
      </trkpt>
      <trkpt lat="47.41655" lon="-0.54463">
        <ele>15</ele>
        <time>2013-08-28T07:29:40Z</time>
      </trkpt>
      <trkpt lat="47.41658" lon="-0.54454">
        <ele>15</ele>
        <time>2013-08-28T07:29:41Z</time>
      </trkpt>
      <trkpt lat="47.41665" lon="-0.54436">
        <ele>15</ele>
        <time>2013-08-28T07:29:46Z</time>
      </trkpt>
      <trkpt lat="47.41676" lon="-0.5441">
        <ele>15</ele>
        <time>2013-08-28T07:29:46Z</time>
      </trkpt>
      <trkpt lat="47.41681" lon="-0.54401">
        <ele>15</ele>
        <time>2013-08-28T07:29:47Z</time>
      </trkpt>
      <trkpt lat="47.41689" lon="-0.54385">
        <ele>15</ele>
        <time>2013-08-28T07:29:52Z</time>
      </trkpt>
      <trkpt lat="47.41709" lon="-0.54357">
        <ele>15</ele>
        <time>2013-08-28T07:29:53Z</time>
      </trkpt>
      <trkpt lat="47.41714" lon="-0.5435">
        <ele>15</ele>
        <time>2013-08-28T07:29:54Z</time>
      </trkpt>
      <trkpt lat="47.41724" lon="-0.54336">
        <ele>15</ele>
        <time>2013-08-28T07:29:59Z</time>
      </trkpt>
      <trkpt lat="47.41739" lon="-0.54316">
        <ele>15</ele>
        <time>2013-08-28T07:29:59Z</time>
      </trkpt>
      <trkpt lat="47.41744" lon="-0.54308">
        <ele>15</ele>
        <time>2013-08-28T07:30:00Z</time>
      </trkpt>
      <trkpt lat="47.41753" lon="-0.54293">
        <ele>15</ele>
        <time>2013-08-28T07:30:05Z</time>
      </trkpt>
      <trkpt lat="47.41766" lon="-0.54259">
        <ele>15</ele>
        <time>2013-08-28T07:30:06Z</time>
      </trkpt>
      <trkpt lat="47.41769" lon="-0.5425">
        <ele>15</ele>
        <time>2013-08-28T07:30:07Z</time>
      </trkpt>
      <trkpt lat="47.41771" lon="-0.5424">
        <ele>15</ele>
        <time>2013-08-28T07:30:08Z</time>
      </trkpt>
      <trkpt lat="47.41781" lon="-0.54192">
        <ele>15</ele>
        <time>2013-08-28T07:30:13Z</time>
      </trkpt>
      <trkpt lat="47.41782" lon="-0.54182">
        <ele>15</ele>
        <time>2013-08-28T07:30:14Z</time>
      </trkpt>
      <trkpt lat="47.41787" lon="-0.54164">
        <ele>15</ele>
        <time>2013-08-28T07:30:20Z</time>
      </trkpt>
      <trkpt lat="47.41794" lon="-0.54127">
        <ele>15</ele>
        <time>2013-08-28T07:30:20Z</time>
      </trkpt>
      <trkpt lat="47.41796" lon="-0.54117">
        <ele>15</ele>
        <time>2013-08-28T07:30:21Z</time>
      </trkpt>
      <trkpt lat="47.41806" lon="-0.5407">
        <ele>15</ele>
        <time>2013-08-28T07:30:26Z</time>
      </trkpt>
      <trkpt lat="47.41807" lon="-0.54061">
        <ele>15</ele>
        <time>2013-08-28T07:30:27Z</time>
      </trkpt>
      <trkpt lat="47.41811" lon="-0.54041">
        <ele>15</ele>
        <time>2013-08-28T07:30:33Z</time>
      </trkpt>
      <trkpt lat="47.41821" lon="-0.54005">
        <ele>15</ele>
        <time>2013-08-28T07:30:33Z</time>
      </trkpt>
      <trkpt lat="47.41823" lon="-0.53996">
        <ele>15</ele>
        <time>2013-08-28T07:30:34Z</time>
      </trkpt>
      <trkpt lat="47.41837" lon="-0.53952">
        <ele>15</ele>
        <time>2013-08-28T07:30:39Z</time>
      </trkpt>
      <trkpt lat="47.4184" lon="-0.53941">
        <ele>15</ele>
        <time>2013-08-28T07:30:40Z</time>
      </trkpt>
      <trkpt lat="47.41843" lon="-0.53922">
        <ele>15</ele>
        <time>2013-08-28T07:30:46Z</time>
      </trkpt>
      <trkpt lat="47.41847" lon="-0.53884">
        <ele>15</ele>
        <time>2013-08-28T07:30:46Z</time>
      </trkpt>
      <trkpt lat="47.41849" lon="-0.53873">
        <ele>15</ele>
        <time>2013-08-28T07:30:47Z</time>
      </trkpt>
      <trkpt lat="47.41854" lon="-0.53825">
        <ele>15</ele>
        <time>2013-08-28T07:30:52Z</time>
      </trkpt>
      <trkpt lat="47.41855" lon="-0.53815">
        <ele>15</ele>
        <time>2013-08-28T07:30:53Z</time>
      </trkpt>
      <trkpt lat="47.41858" lon="-0.53796">
        <ele>15</ele>
        <time>2013-08-28T07:30:59Z</time>
      </trkpt>
      <trkpt lat="47.41862" lon="-0.53755">
        <ele>15</ele>
        <time>2013-08-28T07:30:59Z</time>
      </trkpt>
      <trkpt lat="47.41862" lon="-0.53745">
        <ele>15</ele>
        <time>2013-08-28T07:31:00Z</time>
      </trkpt>
      <trkpt lat="47.41859" lon="-0.53692">
        <ele>15</ele>
        <time>2013-08-28T07:31:05Z</time>
      </trkpt>
      <trkpt lat="47.41858" lon="-0.53681">
        <ele>15</ele>
        <time>2013-08-28T07:31:06Z</time>
      </trkpt>
      <trkpt lat="47.41855" lon="-0.5366">
        <ele>15</ele>
        <time>2013-08-28T07:31:12Z</time>
      </trkpt>
      <trkpt lat="47.4185" lon="-0.53619">
        <ele>15</ele>
        <time>2013-08-28T07:31:12Z</time>
      </trkpt>
      <trkpt lat="47.41848" lon="-0.53608">
        <ele>15</ele>
        <time>2013-08-28T07:31:13Z</time>
      </trkpt>
      <trkpt lat="47.4184" lon="-0.53559">
        <ele>15</ele>
        <time>2013-08-28T07:31:18Z</time>
      </trkpt>
      <trkpt lat="47.4184" lon="-0.53549">
        <ele>15</ele>
        <time>2013-08-28T07:31:19Z</time>
      </trkpt>
      <trkpt lat="47.4184" lon="-0.53538">
        <ele>15</ele>
        <time>2013-08-28T07:31:20Z</time>
      </trkpt>
      <trkpt lat="47.4184" lon="-0.53518">
        <ele>15</ele>
        <time>2013-08-28T07:31:25Z</time>
      </trkpt>
      <trkpt lat="47.41839" lon="-0.53488">
        <ele>16</ele>
        <time>2013-08-28T07:31:25Z</time>
      </trkpt>
      <trkpt lat="47.4184" lon="-0.53477">
        <ele>16</ele>
        <time>2013-08-28T07:31:26Z</time>
      </trkpt>
      <trkpt lat="47.41841" lon="-0.53457">
        <ele>16</ele>
        <time>2013-08-28T07:31:31Z</time>
      </trkpt>
      <trkpt lat="47.41838" lon="-0.53418">
        <ele>17</ele>
        <time>2013-08-28T07:31:32Z</time>
      </trkpt>
      <trkpt lat="47.41837" lon="-0.53407">
        <ele>17</ele>
        <time>2013-08-28T07:31:33Z</time>
      </trkpt>
      <trkpt lat="47.41836" lon="-0.53385">
        <ele>17</ele>
        <time>2013-08-28T07:31:38Z</time>
      </trkpt>
      <trkpt lat="47.41836" lon="-0.53353">
        <ele>17</ele>
        <time>2013-08-28T07:31:38Z</time>
      </trkpt>
      <trkpt lat="47.41836" lon="-0.53342">
        <ele>18</ele>
        <time>2013-08-28T07:31:39Z</time>
      </trkpt>
      <trkpt lat="47.41835" lon="-0.53321">
        <ele>18</ele>
        <time>2013-08-28T07:31:45Z</time>
      </trkpt>
      <trkpt lat="47.41833" lon="-0.53278">
        <ele>18</ele>
        <time>2013-08-28T07:31:45Z</time>
      </trkpt>
      <trkpt lat="47.41833" lon="-0.53268">
        <ele>18</ele>
        <time>2013-08-28T07:31:46Z</time>
      </trkpt>
      <trkpt lat="47.41834" lon="-0.53215">
        <ele>18</ele>
        <time>2013-08-28T07:31:51Z</time>
      </trkpt>
      <trkpt lat="47.41834" lon="-0.53204">
        <ele>18</ele>
        <time>2013-08-28T07:31:52Z</time>
      </trkpt>
      <trkpt lat="47.41834" lon="-0.53183">
        <ele>18</ele>
        <time>2013-08-28T07:31:58Z</time>
      </trkpt>
      <trkpt lat="47.41832" lon="-0.53141">
        <ele>18</ele>
        <time>2013-08-28T07:31:58Z</time>
      </trkpt>
      <trkpt lat="47.41832" lon="-0.5313">
        <ele>18</ele>
        <time>2013-08-28T07:31:59Z</time>
      </trkpt>
      <trkpt lat="47.41831" lon="-0.53109">
        <ele>18</ele>
        <time>2013-08-28T07:32:04Z</time>
      </trkpt>
      <trkpt lat="47.4183" lon="-0.53067">
        <ele>18</ele>
        <time>2013-08-28T07:32:05Z</time>
      </trkpt>
      <trkpt lat="47.4183" lon="-0.53057">
        <ele>18</ele>
        <time>2013-08-28T07:32:06Z</time>
      </trkpt>
      <trkpt lat="47.41829" lon="-0.53036">
        <ele>18</ele>
        <time>2013-08-28T07:32:11Z</time>
      </trkpt>
      <trkpt lat="47.41828" lon="-0.53006">
        <ele>18</ele>
        <time>2013-08-28T07:32:11Z</time>
      </trkpt>
      <trkpt lat="47.41828" lon="-0.52996">
        <ele>18</ele>
        <time>2013-08-28T07:32:12Z</time>
      </trkpt>
      <trkpt lat="47.41827" lon="-0.52975">
        <ele>18</ele>
        <time>2013-08-28T07:32:18Z</time>
      </trkpt>
      <trkpt lat="47.41819" lon="-0.52934">
        <ele>18</ele>
        <time>2013-08-28T07:32:18Z</time>
      </trkpt>
      <trkpt lat="47.41817" lon="-0.52924">
        <ele>18</ele>
        <time>2013-08-28T07:32:19Z</time>
      </trkpt>
      <trkpt lat="47.41801" lon="-0.52878">
        <ele>18</ele>
        <time>2013-08-28T07:32:24Z</time>
      </trkpt>
      <trkpt lat="47.41798" lon="-0.52869">
        <ele>17</ele>
        <time>2013-08-28T07:32:25Z</time>
      </trkpt>
      <trkpt lat="47.4179" lon="-0.52852">
        <ele>17</ele>
        <time>2013-08-28T07:32:31Z</time>
      </trkpt>
      <trkpt lat="47.41773" lon="-0.52821">
        <ele>16</ele>
        <time>2013-08-28T07:32:31Z</time>
      </trkpt>
      <trkpt lat="47.41768" lon="-0.52815">
        <ele>16</ele>
        <time>2013-08-28T07:32:32Z</time>
      </trkpt>
      <trkpt lat="47.41763" lon="-0.52809">
        <ele>15</ele>
        <time>2013-08-28T07:32:33Z</time>
      </trkpt>
      <trkpt lat="47.41736" lon="-0.52787">
        <ele>14</ele>
        <time>2013-08-28T07:32:38Z</time>
      </trkpt>
      <trkpt lat="47.4173" lon="-0.52785">
        <ele>14</ele>
        <time>2013-08-28T07:32:39Z</time>
      </trkpt>
      <trkpt lat="47.41725" lon="-0.52782">
        <ele>14</ele>
        <time>2013-08-28T07:32:41Z</time>
      </trkpt>
      <trkpt lat="47.4172" lon="-0.52778">
        <ele>14</ele>
        <time>2013-08-28T07:32:41Z</time>
      </trkpt>
      <trkpt lat="47.41714" lon="-0.52766">
        <ele>14</ele>
        <time>2013-08-28T07:32:47Z</time>
      </trkpt>
      <trkpt lat="47.41727" lon="-0.52741">
        <ele>14</ele>
        <time>2013-08-28T07:32:48Z</time>
      </trkpt>
      <trkpt lat="47.4173" lon="-0.52735">
        <ele>14</ele>
        <time>2013-08-28T07:32:49Z</time>
      </trkpt>
      <trkpt lat="47.41734" lon="-0.52728">
        <ele>14</ele>
        <time>2013-08-28T07:32:50Z</time>
      </trkpt>
      <trkpt lat="47.41742" lon="-0.52678">
        <ele>14</ele>
        <time>2013-08-28T07:32:55Z</time>
      </trkpt>
      <trkpt lat="47.41743" lon="-0.5267">
        <ele>14</ele>
        <time>2013-08-28T07:32:56Z</time>
      </trkpt>
      <trkpt lat="47.41745" lon="-0.52651">
        <ele>14</ele>
        <time>2013-08-28T07:33:01Z</time>
      </trkpt>
      <trkpt lat="47.41747" lon="-0.52624">
        <ele>14</ele>
        <time>2013-08-28T07:33:01Z</time>
      </trkpt>
      <trkpt lat="47.41748" lon="-0.52614">
        <ele>14</ele>
        <time>2013-08-28T07:33:02Z</time>
      </trkpt>
      <trkpt lat="47.41749" lon="-0.52597">
        <ele>14</ele>
        <time>2013-08-28T07:33:08Z</time>
      </trkpt>
      <trkpt lat="47.41752" lon="-0.52562">
        <ele>14</ele>
        <time>2013-08-28T07:33:08Z</time>
      </trkpt>
      <trkpt lat="47.41753" lon="-0.52553">
        <ele>14</ele>
        <time>2013-08-28T07:33:09Z</time>
      </trkpt>
      <trkpt lat="47.41756" lon="-0.52535">
        <ele>14</ele>
        <time>2013-08-28T07:33:14Z</time>
      </trkpt>
      <trkpt lat="47.41759" lon="-0.525">
        <ele>14</ele>
        <time>2013-08-28T07:33:15Z</time>
      </trkpt>
      <trkpt lat="47.41759" lon="-0.52492">
        <ele>14</ele>
        <time>2013-08-28T07:33:16Z</time>
      </trkpt>
      <trkpt lat="47.41759" lon="-0.52477">
        <ele>14</ele>
        <time>2013-08-28T07:33:21Z</time>
      </trkpt>
      <trkpt lat="47.41762" lon="-0.52456">
        <ele>14</ele>
        <time>2013-08-28T07:33:21Z</time>
      </trkpt>
      <trkpt lat="47.41763" lon="-0.52451">
        <ele>15</ele>
        <time>2013-08-28T07:33:22Z</time>
      </trkpt>
      <trkpt lat="47.41763" lon="-0.5244">
        <ele>15</ele>
        <time>2013-08-28T07:33:28Z</time>
      </trkpt>
      <trkpt lat="47.4176" lon="-0.5243">
        <ele>15</ele>
        <time>2013-08-28T07:33:28Z</time>
      </trkpt>
      <trkpt lat="47.41758" lon="-0.52429">
        <ele>15</ele>
        <time>2013-08-28T07:33:30Z</time>
      </trkpt>
      <trkpt lat="47.41756" lon="-0.52427">
        <ele>15</ele>
        <time>2013-08-28T07:33:31Z</time>
      </trkpt>
      <trkpt lat="47.41748" lon="-0.52427">
        <ele>15</ele>
        <time>2013-08-28T07:33:37Z</time>
      </trkpt>
      <trkpt lat="47.41731" lon="-0.52419">
        <ele>15</ele>
        <time>2013-08-28T07:33:37Z</time>
      </trkpt>
      <trkpt lat="47.41727" lon="-0.52418">
        <ele>15</ele>
        <time>2013-08-28T07:33:38Z</time>
      </trkpt>
      <trkpt lat="47.4172" lon="-0.52417">
        <ele>15</ele>
        <time>2013-08-28T07:33:43Z</time>
      </trkpt>
      <trkpt lat="47.41707" lon="-0.52414">
        <ele>15</ele>
        <time>2013-08-28T07:33:43Z</time>
      </trkpt>
      <trkpt lat="47.41702" lon="-0.52413">
        <ele>15</ele>
        <time>2013-08-28T07:33:44Z</time>
      </trkpt>
      <trkpt lat="47.41692" lon="-0.52411">
        <ele>15</ele>
        <time>2013-08-28T07:33:50Z</time>
      </trkpt>
      <trkpt lat="47.41676" lon="-0.52408">
        <ele>15</ele>
        <time>2013-08-28T07:33:50Z</time>
      </trkpt>
      <trkpt lat="47.41669" lon="-0.52409">
        <ele>15</ele>
        <time>2013-08-28T07:33:51Z</time>
      </trkpt>
      <trkpt lat="47.41643" lon="-0.52408">
        <ele>15</ele>
        <time>2013-08-28T07:33:56Z</time>
      </trkpt>
      <trkpt lat="47.41639" lon="-0.52407">
        <ele>15</ele>
        <time>2013-08-28T07:33:57Z</time>
      </trkpt>
      <trkpt lat="47.41635" lon="-0.52406">
        <ele>16</ele>
        <time>2013-08-28T07:33:58Z</time>
      </trkpt>
      <trkpt lat="47.41616" lon="-0.524">
        <ele>17</ele>
        <time>2013-08-28T07:34:03Z</time>
      </trkpt>
      <trkpt lat="47.41612" lon="-0.52399">
        <ele>18</ele>
        <time>2013-08-28T07:34:04Z</time>
      </trkpt>
      <trkpt lat="47.41605" lon="-0.52398">
        <ele>19</ele>
        <time>2013-08-28T07:34:10Z</time>
      </trkpt>
      <trkpt lat="47.41589" lon="-0.52395">
        <ele>20</ele>
        <time>2013-08-28T07:34:10Z</time>
      </trkpt>
      <trkpt lat="47.41584" lon="-0.52396">
        <ele>20</ele>
        <time>2013-08-28T07:34:11Z</time>
      </trkpt>
      <trkpt lat="47.41574" lon="-0.52395">
        <ele>21</ele>
        <time>2013-08-28T07:34:16Z</time>
      </trkpt>
      <trkpt lat="47.41554" lon="-0.52384">
        <ele>22</ele>
        <time>2013-08-28T07:34:17Z</time>
      </trkpt>
      <trkpt lat="47.41548" lon="-0.52383">
        <ele>22</ele>
        <time>2013-08-28T07:34:18Z</time>
      </trkpt>
      <trkpt lat="47.41538" lon="-0.5238">
        <ele>23</ele>
        <time>2013-08-28T07:34:23Z</time>
      </trkpt>
      <trkpt lat="47.41532" lon="-0.52375">
        <ele>23</ele>
        <time>2013-08-28T07:34:23Z</time>
      </trkpt>
      <trkpt lat="47.41531" lon="-0.52373">
        <ele>23</ele>
        <time>2013-08-28T07:34:25Z</time>
      </trkpt>
      <trkpt lat="47.4153" lon="-0.52369">
        <ele>23</ele>
        <time>2013-08-28T07:34:26Z</time>
      </trkpt>
      <trkpt lat="47.41525" lon="-0.52363">
        <ele>23</ele>
        <time>2013-08-28T07:34:31Z</time>
      </trkpt>
      <trkpt lat="47.41515" lon="-0.52349">
        <ele>23</ele>
        <time>2013-08-28T07:34:31Z</time>
      </trkpt>
      <trkpt lat="47.41513" lon="-0.52345">
        <ele>23</ele>
        <time>2013-08-28T07:34:32Z</time>
      </trkpt>
      <trkpt lat="47.41509" lon="-0.52337">
        <ele>23</ele>
        <time>2013-08-28T07:34:37Z</time>
      </trkpt>
      <trkpt lat="47.41502" lon="-0.52335">
        <ele>23</ele>
        <time>2013-08-28T07:34:38Z</time>
      </trkpt>
      <trkpt lat="47.41502" lon="-0.52331">
        <ele>23</ele>
        <time>2013-08-28T07:34:46Z</time>
      </trkpt>
      <trkpt lat="47.415" lon="-0.52328">
        <ele>22</ele>
        <time>2013-08-28T07:34:47Z</time>
      </trkpt>
      <trkpt lat="47.415" lon="-0.52326">
        <ele>21</ele>
        <time>2013-08-28T07:34:55Z</time>
      </trkpt>
      <trkpt lat="47.415" lon="-0.5232">
        <ele>20</ele>
        <time>2013-08-28T07:34:56Z</time>
      </trkpt>
      <trkpt lat="47.41499" lon="-0.52315">
        <ele>18</ele>
        <time>2013-08-28T07:35:02Z</time>
      </trkpt>
      <trkpt lat="47.41505" lon="-0.5231">
        <ele>18</ele>
        <time>2013-08-28T07:35:03Z</time>
      </trkpt>
      <trkpt lat="47.41508" lon="-0.5231">
        <ele>18</ele>
        <time>2013-08-28T07:35:04Z</time>
      </trkpt>
      <trkpt lat="47.41512" lon="-0.5231">
        <ele>18</ele>
        <time>2013-08-28T07:35:04Z</time>
      </trkpt>
      <trkpt lat="47.41522" lon="-0.52311">
        <ele>18</ele>
        <time>2013-08-28T07:35:09Z</time>
      </trkpt>
      <trkpt lat="47.41544" lon="-0.52313">
        <ele>18</ele>
        <time>2013-08-28T07:35:10Z</time>
      </trkpt>
      <trkpt lat="47.4155" lon="-0.52314">
        <ele>19</ele>
        <time>2013-08-28T07:35:11Z</time>
      </trkpt>
      <trkpt lat="47.41559" lon="-0.52314">
        <ele>20</ele>
        <time>2013-08-28T07:35:16Z</time>
      </trkpt>
      <trkpt lat="47.41577" lon="-0.52316">
        <ele>20</ele>
        <time>2013-08-28T07:35:16Z</time>
      </trkpt>
      <trkpt lat="47.41583" lon="-0.52316">
        <ele>21</ele>
        <time>2013-08-28T07:35:17Z</time>
      </trkpt>
      <trkpt lat="47.41596" lon="-0.52317">
        <ele>21</ele>
        <time>2013-08-28T07:35:23Z</time>
      </trkpt>
      <trkpt lat="47.41621" lon="-0.52319">
        <ele>21</ele>
        <time>2013-08-28T07:35:23Z</time>
      </trkpt>
      <trkpt lat="47.41627" lon="-0.52319">
        <ele>21</ele>
        <time>2013-08-28T07:35:24Z</time>
      </trkpt>
      <trkpt lat="47.41639" lon="-0.5232">
        <ele>21</ele>
        <time>2013-08-28T07:35:29Z</time>
      </trkpt>
      <trkpt lat="47.41663" lon="-0.52324">
        <ele>21</ele>
        <time>2013-08-28T07:35:30Z</time>
      </trkpt>
      <trkpt lat="47.41668" lon="-0.52325">
        <ele>21</ele>
        <time>2013-08-28T07:35:31Z</time>
      </trkpt>
      <trkpt lat="47.41699" lon="-0.52328">
        <ele>21</ele>
        <time>2013-08-28T07:35:36Z</time>
      </trkpt>
      <trkpt lat="47.41705" lon="-0.52327">
        <ele>21</ele>
        <time>2013-08-28T07:35:37Z</time>
      </trkpt>
      <trkpt lat="47.41717" lon="-0.52327">
        <ele>21</ele>
        <time>2013-08-28T07:35:43Z</time>
      </trkpt>
      <trkpt lat="47.41742" lon="-0.52326">
        <ele>21</ele>
        <time>2013-08-28T07:35:43Z</time>
      </trkpt>
      <trkpt lat="47.41749" lon="-0.52326">
        <ele>21</ele>
        <time>2013-08-28T07:35:44Z</time>
      </trkpt>
      <trkpt lat="47.41761" lon="-0.52327">
        <ele>21</ele>
        <time>2013-08-28T07:35:49Z</time>
      </trkpt>
      <trkpt lat="47.41786" lon="-0.52327">
        <ele>21</ele>
        <time>2013-08-28T07:35:50Z</time>
      </trkpt>
      <trkpt lat="47.41792" lon="-0.52327">
        <ele>21</ele>
        <time>2013-08-28T07:35:51Z</time>
      </trkpt>
      <trkpt lat="47.41804" lon="-0.52328">
        <ele>21</ele>
        <time>2013-08-28T07:35:56Z</time>
      </trkpt>
      <trkpt lat="47.41818" lon="-0.52328">
        <ele>21</ele>
        <time>2013-08-28T07:35:56Z</time>
      </trkpt>
      <trkpt lat="47.41822" lon="-0.52326">
        <ele>21</ele>
        <time>2013-08-28T07:35:57Z</time>
      </trkpt>
      <trkpt lat="47.41826" lon="-0.52323">
        <ele>21</ele>
        <time>2013-08-28T07:35:58Z</time>
      </trkpt>
      <trkpt lat="47.41831" lon="-0.52319">
        <ele>21</ele>
        <time>2013-08-28T07:35:59Z</time>
      </trkpt>
      <trkpt lat="47.41858" lon="-0.52328">
        <ele>21</ele>
        <time>2013-08-28T07:36:04Z</time>
      </trkpt>
      <trkpt lat="47.41864" lon="-0.52331">
        <ele>21</ele>
        <time>2013-08-28T07:36:06Z</time>
      </trkpt>
      <trkpt lat="47.4187" lon="-0.52333">
        <ele>21</ele>
        <time>2013-08-28T07:36:07Z</time>
      </trkpt>
      <trkpt lat="47.41882" lon="-0.52335">
        <ele>21</ele>
        <time>2013-08-28T07:36:08Z</time>
      </trkpt>
      <trkpt lat="47.41911" lon="-0.52338">
        <ele>21</ele>
        <time>2013-08-28T07:36:13Z</time>
      </trkpt>
      <trkpt lat="47.41916" lon="-0.52339">
        <ele>21</ele>
        <time>2013-08-28T07:36:14Z</time>
      </trkpt>
      <trkpt lat="47.41926" lon="-0.52339">
        <ele>21</ele>
        <time>2013-08-28T07:36:20Z</time>
      </trkpt>
      <trkpt lat="47.41949" lon="-0.52338">
        <ele>21</ele>
        <time>2013-08-28T07:36:20Z</time>
      </trkpt>
      <trkpt lat="47.41954" lon="-0.52338">
        <ele>21</ele>
        <time>2013-08-28T07:36:21Z</time>
      </trkpt>
      <trkpt lat="47.41965" lon="-0.52338">
        <ele>21</ele>
        <time>2013-08-28T07:36:26Z</time>
      </trkpt>
      <trkpt lat="47.4199" lon="-0.52341">
        <ele>21</ele>
        <time>2013-08-28T07:36:27Z</time>
      </trkpt>
      <trkpt lat="47.41997" lon="-0.52341">
        <ele>21</ele>
        <time>2013-08-28T07:36:28Z</time>
      </trkpt>
      <trkpt lat="47.42028" lon="-0.52344">
        <ele>21</ele>
        <time>2013-08-28T07:36:33Z</time>
      </trkpt>
      <trkpt lat="47.42034" lon="-0.52345">
        <ele>21</ele>
        <time>2013-08-28T07:36:34Z</time>
      </trkpt>
      <trkpt lat="47.42046" lon="-0.52346">
        <ele>21</ele>
        <time>2013-08-28T07:36:40Z</time>
      </trkpt>
      <trkpt lat="47.42071" lon="-0.52349">
        <ele>21</ele>
        <time>2013-08-28T07:36:40Z</time>
      </trkpt>
      <trkpt lat="47.42077" lon="-0.52349">
        <ele>21</ele>
        <time>2013-08-28T07:36:41Z</time>
      </trkpt>
      <trkpt lat="47.42091" lon="-0.5235">
        <ele>21</ele>
        <time>2013-08-28T07:36:47Z</time>
      </trkpt>
      <trkpt lat="47.42116" lon="-0.52351">
        <ele>21</ele>
        <time>2013-08-28T07:36:47Z</time>
      </trkpt>
      <trkpt lat="47.42123" lon="-0.52352">
        <ele>20</ele>
        <time>2013-08-28T07:36:48Z</time>
      </trkpt>
      <trkpt lat="47.42156" lon="-0.52355">
        <ele>20</ele>
        <time>2013-08-28T07:36:53Z</time>
      </trkpt>
      <trkpt lat="47.42163" lon="-0.52355">
        <ele>20</ele>
        <time>2013-08-28T07:36:54Z</time>
      </trkpt>
      <trkpt lat="47.4217" lon="-0.52356">
        <ele>19</ele>
        <time>2013-08-28T07:36:55Z</time>
      </trkpt>
      <trkpt lat="47.42203" lon="-0.52359">
        <ele>19</ele>
        <time>2013-08-28T07:37:00Z</time>
      </trkpt>
      <trkpt lat="47.4221" lon="-0.52359">
        <ele>19</ele>
        <time>2013-08-28T07:37:01Z</time>
      </trkpt>
      <trkpt lat="47.42223" lon="-0.5236">
        <ele>18</ele>
        <time>2013-08-28T07:37:07Z</time>
      </trkpt>
      <trkpt lat="47.4225" lon="-0.52362">
        <ele>18</ele>
        <time>2013-08-28T07:37:07Z</time>
      </trkpt>
      <trkpt lat="47.42257" lon="-0.52362">
        <ele>17</ele>
        <time>2013-08-28T07:37:08Z</time>
      </trkpt>
      <trkpt lat="47.4227" lon="-0.52364">
        <ele>17</ele>
        <time>2013-08-28T07:37:14Z</time>
      </trkpt>
      <trkpt lat="47.42294" lon="-0.52371">
        <ele>17</ele>
        <time>2013-08-28T07:37:14Z</time>
      </trkpt>
      <trkpt lat="47.42302" lon="-0.52377">
        <ele>17</ele>
        <time>2013-08-28T07:37:15Z</time>
      </trkpt>
      <trkpt lat="47.42308" lon="-0.52383">
        <ele>17</ele>
        <time>2013-08-28T07:37:16Z</time>
      </trkpt>
      <trkpt lat="47.42337" lon="-0.52407">
        <ele>17</ele>
        <time>2013-08-28T07:37:21Z</time>
      </trkpt>
      <trkpt lat="47.42344" lon="-0.52413">
        <ele>17</ele>
        <time>2013-08-28T07:37:22Z</time>
      </trkpt>
      <trkpt lat="47.42355" lon="-0.52423">
        <ele>17</ele>
        <time>2013-08-28T07:37:28Z</time>
      </trkpt>
      <trkpt lat="47.4238" lon="-0.52442">
        <ele>17</ele>
        <time>2013-08-28T07:37:28Z</time>
      </trkpt>
      <trkpt lat="47.42387" lon="-0.52446">
        <ele>17</ele>
        <time>2013-08-28T07:37:29Z</time>
      </trkpt>
      <trkpt lat="47.424" lon="-0.52455">
        <ele>17</ele>
        <time>2013-08-28T07:37:35Z</time>
      </trkpt>
      <trkpt lat="47.42425" lon="-0.52471">
        <ele>17</ele>
        <time>2013-08-28T07:37:35Z</time>
      </trkpt>
      <trkpt lat="47.42431" lon="-0.52476">
        <ele>17</ele>
        <time>2013-08-28T07:37:36Z</time>
      </trkpt>
      <trkpt lat="47.4244" lon="-0.52485">
        <ele>18</ele>
        <time>2013-08-28T07:37:41Z</time>
      </trkpt>
      <trkpt lat="47.42458" lon="-0.52497">
        <ele>19</ele>
        <time>2013-08-28T07:37:42Z</time>
      </trkpt>
      <trkpt lat="47.42463" lon="-0.52499">
        <ele>20</ele>
        <time>2013-08-28T07:37:43Z</time>
      </trkpt>
      <trkpt lat="47.42492" lon="-0.52515">
        <ele>21</ele>
        <time>2013-08-28T07:37:48Z</time>
      </trkpt>
      <trkpt lat="47.425" lon="-0.52519">
        <ele>22</ele>
        <time>2013-08-28T07:37:49Z</time>
      </trkpt>
      <trkpt lat="47.42512" lon="-0.52526">
        <ele>23</ele>
        <time>2013-08-28T07:37:55Z</time>
      </trkpt>
      <trkpt lat="47.42534" lon="-0.52541">
        <ele>24</ele>
        <time>2013-08-28T07:37:55Z</time>
      </trkpt>
      <trkpt lat="47.42539" lon="-0.52544">
        <ele>24</ele>
        <time>2013-08-28T07:37:56Z</time>
      </trkpt>
      <trkpt lat="47.4255" lon="-0.52552">
        <ele>24</ele>
        <time>2013-08-28T07:38:02Z</time>
      </trkpt>
      <trkpt lat="47.42572" lon="-0.52569">
        <ele>24</ele>
        <time>2013-08-28T07:38:02Z</time>
      </trkpt>
      <trkpt lat="47.42577" lon="-0.52572">
        <ele>24</ele>
        <time>2013-08-28T07:38:03Z</time>
      </trkpt>
      <trkpt lat="47.42589" lon="-0.5258">
        <ele>24</ele>
        <time>2013-08-28T07:38:08Z</time>
      </trkpt>
      <trkpt lat="47.42612" lon="-0.52597">
        <ele>24</ele>
        <time>2013-08-28T07:38:09Z</time>
      </trkpt>
      <trkpt lat="47.42618" lon="-0.52602">
        <ele>24</ele>
        <time>2013-08-28T07:38:10Z</time>
      </trkpt>
      <trkpt lat="47.42648" lon="-0.52627">
        <ele>24</ele>
        <time>2013-08-28T07:38:15Z</time>
      </trkpt>
      <trkpt lat="47.42654" lon="-0.52631">
        <ele>24</ele>
        <time>2013-08-28T07:38:16Z</time>
      </trkpt>
      <trkpt lat="47.42665" lon="-0.52639">
        <ele>24</ele>
        <time>2013-08-28T07:38:22Z</time>
      </trkpt>
      <trkpt lat="47.42687" lon="-0.52654">
        <ele>24</ele>
        <time>2013-08-28T07:38:22Z</time>
      </trkpt>
      <trkpt lat="47.42692" lon="-0.52658">
        <ele>24</ele>
        <time>2013-08-28T07:38:23Z</time>
      </trkpt>
      <trkpt lat="47.42702" lon="-0.52665">
        <ele>24</ele>
        <time>2013-08-28T07:38:29Z</time>
      </trkpt>
      <trkpt lat="47.42724" lon="-0.52681">
        <ele>24</ele>
        <time>2013-08-28T07:38:29Z</time>
      </trkpt>
      <trkpt lat="47.42729" lon="-0.52685">
        <ele>23</ele>
        <time>2013-08-28T07:38:30Z</time>
      </trkpt>
      <trkpt lat="47.42741" lon="-0.52693">
        <ele>22</ele>
        <time>2013-08-28T07:38:35Z</time>
      </trkpt>
      <trkpt lat="47.42762" lon="-0.52709">
        <ele>22</ele>
        <time>2013-08-28T07:38:36Z</time>
      </trkpt>
      <trkpt lat="47.42768" lon="-0.52714">
        <ele>21</ele>
        <time>2013-08-28T07:38:37Z</time>
      </trkpt>
      <trkpt lat="47.42799" lon="-0.52732">
        <ele>20</ele>
        <time>2013-08-28T07:38:42Z</time>
      </trkpt>
      <trkpt lat="47.42805" lon="-0.52737">
        <ele>20</ele>
        <time>2013-08-28T07:38:43Z</time>
      </trkpt>
      <trkpt lat="47.42812" lon="-0.52741">
        <ele>20</ele>
        <time>2013-08-28T07:38:44Z</time>
      </trkpt>
      <trkpt lat="47.42847" lon="-0.5276">
        <ele>20</ele>
        <time>2013-08-28T07:38:49Z</time>
      </trkpt>
      <trkpt lat="47.42853" lon="-0.52763">
        <ele>20</ele>
        <time>2013-08-28T07:38:50Z</time>
      </trkpt>
      <trkpt lat="47.4286" lon="-0.52766">
        <ele>20</ele>
        <time>2013-08-28T07:38:51Z</time>
      </trkpt>
      <trkpt lat="47.42893" lon="-0.52783">
        <ele>20</ele>
        <time>2013-08-28T07:38:56Z</time>
      </trkpt>
      <trkpt lat="47.429" lon="-0.52785">
        <ele>21</ele>
        <time>2013-08-28T07:38:57Z</time>
      </trkpt>
      <trkpt lat="47.4291" lon="-0.52787">
        <ele>22</ele>
        <time>2013-08-28T07:39:03Z</time>
      </trkpt>
      <trkpt lat="47.42934" lon="-0.52793">
        <ele>23</ele>
        <time>2013-08-28T07:39:03Z</time>
      </trkpt>
      <trkpt lat="47.42941" lon="-0.52793">
        <ele>24</ele>
        <time>2013-08-28T07:39:04Z</time>
      </trkpt>
      <trkpt lat="47.42951" lon="-0.52793">
        <ele>25</ele>
        <time>2013-08-28T07:39:10Z</time>
      </trkpt>
      <trkpt lat="47.42974" lon="-0.52792">
        <ele>25</ele>
        <time>2013-08-28T07:39:10Z</time>
      </trkpt>
      <trkpt lat="47.4298" lon="-0.52791">
        <ele>25</ele>
        <time>2013-08-28T07:39:11Z</time>
      </trkpt>
      <trkpt lat="47.42993" lon="-0.52795">
        <ele>25</ele>
        <time>2013-08-28T07:39:16Z</time>
      </trkpt>
      <trkpt lat="47.43018" lon="-0.52804">
        <ele>25</ele>
        <time>2013-08-28T07:39:17Z</time>
      </trkpt>
      <trkpt lat="47.43025" lon="-0.52807">
        <ele>25</ele>
        <time>2013-08-28T07:39:18Z</time>
      </trkpt>
      <trkpt lat="47.43035" lon="-0.52811">
        <ele>25</ele>
        <time>2013-08-28T07:39:23Z</time>
      </trkpt>
      <trkpt lat="47.43055" lon="-0.52818">
        <ele>25</ele>
        <time>2013-08-28T07:39:24Z</time>
      </trkpt>
      <trkpt lat="47.4306" lon="-0.52819">
        <ele>25</ele>
        <time>2013-08-28T07:39:25Z</time>
      </trkpt>
      <trkpt lat="47.43086" lon="-0.52831">
        <ele>25</ele>
        <time>2013-08-28T07:39:30Z</time>
      </trkpt>
      <trkpt lat="47.43092" lon="-0.52833">
        <ele>25</ele>
        <time>2013-08-28T07:39:31Z</time>
      </trkpt>
      <trkpt lat="47.43103" lon="-0.52835">
        <ele>25</ele>
        <time>2013-08-28T07:39:37Z</time>
      </trkpt>
      <trkpt lat="47.43125" lon="-0.52844">
        <ele>25</ele>
        <time>2013-08-28T07:39:37Z</time>
      </trkpt>
      <trkpt lat="47.43131" lon="-0.52847">
        <ele>24</ele>
        <time>2013-08-28T07:39:38Z</time>
      </trkpt>
      <trkpt lat="47.43144" lon="-0.52853">
        <ele>24</ele>
        <time>2013-08-28T07:39:44Z</time>
      </trkpt>
      <trkpt lat="47.43166" lon="-0.52863">
        <ele>24</ele>
        <time>2013-08-28T07:39:44Z</time>
      </trkpt>
      <trkpt lat="47.43172" lon="-0.52866">
        <ele>24</ele>
        <time>2013-08-28T07:39:45Z</time>
      </trkpt>
      <trkpt lat="47.43183" lon="-0.52872">
        <ele>24</ele>
        <time>2013-08-28T07:39:51Z</time>
      </trkpt>
      <trkpt lat="47.43201" lon="-0.52882">
        <ele>24</ele>
        <time>2013-08-28T07:39:51Z</time>
      </trkpt>
      <trkpt lat="47.43204" lon="-0.52883">
        <ele>24</ele>
        <time>2013-08-28T07:39:52Z</time>
      </trkpt>
      <trkpt lat="47.43208" lon="-0.52887">
        <ele>24</ele>
        <time>2013-08-28T07:39:57Z</time>
      </trkpt>
      <trkpt lat="47.43205" lon="-0.52904">
        <ele>24</ele>
        <time>2013-08-28T07:39:58Z</time>
      </trkpt>
      <trkpt lat="47.43204" lon="-0.5291">
        <ele>23</ele>
        <time>2013-08-28T07:39:59Z</time>
      </trkpt>
      <trkpt lat="47.43203" lon="-0.52917">
        <ele>22</ele>
        <time>2013-08-28T07:40:00Z</time>
      </trkpt>
      <trkpt lat="47.43201" lon="-0.52931">
        <ele>21</ele>
        <time>2013-08-28T07:40:05Z</time>
      </trkpt>
      <trkpt lat="47.432" lon="-0.52964">
        <ele>20</ele>
        <time>2013-08-28T07:40:06Z</time>
      </trkpt>
      <trkpt lat="47.432" lon="-0.52973">
        <ele>19</ele>
        <time>2013-08-28T07:40:07Z</time>
      </trkpt>
      <trkpt lat="47.43198" lon="-0.53019">
        <ele>18</ele>
        <time>2013-08-28T07:40:12Z</time>
      </trkpt>
      <trkpt lat="47.43198" lon="-0.53027">
        <ele>18</ele>
        <time>2013-08-28T07:40:13Z</time>
      </trkpt>
      <trkpt lat="47.43196" lon="-0.53043">
        <ele>17</ele>
        <time>2013-08-28T07:40:19Z</time>
      </trkpt>
      <trkpt lat="47.43193" lon="-0.53073">
        <ele>17</ele>
        <time>2013-08-28T07:40:19Z</time>
      </trkpt>
      <trkpt lat="47.43192" lon="-0.5308">
        <ele>17</ele>
        <time>2013-08-28T07:40:20Z</time>
      </trkpt>
      <trkpt lat="47.4319" lon="-0.53096">
        <ele>16</ele>
        <time>2013-08-28T07:40:26Z</time>
      </trkpt>
      <trkpt lat="47.43189" lon="-0.53131">
        <ele>16</ele>
        <time>2013-08-28T07:40:26Z</time>
      </trkpt>
      <trkpt lat="47.43189" lon="-0.5314">
        <ele>16</ele>
        <time>2013-08-28T07:40:27Z</time>
      </trkpt>
      <trkpt lat="47.43187" lon="-0.53158">
        <ele>16</ele>
        <time>2013-08-28T07:40:33Z</time>
      </trkpt>
      <trkpt lat="47.43185" lon="-0.53192">
        <ele>16</ele>
        <time>2013-08-28T07:40:33Z</time>
      </trkpt>
      <trkpt lat="47.43185" lon="-0.53201">
        <ele>16</ele>
        <time>2013-08-28T07:40:34Z</time>
      </trkpt>
      <trkpt lat="47.43186" lon="-0.53221">
        <ele>16</ele>
        <time>2013-08-28T07:40:39Z</time>
      </trkpt>
      <trkpt lat="47.43188" lon="-0.53256">
        <ele>16</ele>
        <time>2013-08-28T07:40:40Z</time>
      </trkpt>
      <trkpt lat="47.4319" lon="-0.53265">
        <ele>16</ele>
        <time>2013-08-28T07:40:41Z</time>
      </trkpt>
      <trkpt lat="47.43192" lon="-0.53274">
        <ele>16</ele>
        <time>2013-08-28T07:40:43Z</time>
      </trkpt>
      <trkpt lat="47.43195" lon="-0.53292">
        <ele>16</ele>
        <time>2013-08-28T07:40:48Z</time>
      </trkpt>
      <trkpt lat="47.43201" lon="-0.53326">
        <ele>16</ele>
        <time>2013-08-28T07:40:48Z</time>
      </trkpt>
      <trkpt lat="47.43202" lon="-0.53335">
        <ele>16</ele>
        <time>2013-08-28T07:40:49Z</time>
      </trkpt>
      <trkpt lat="47.43205" lon="-0.5335">
        <ele>16</ele>
        <time>2013-08-28T07:40:55Z</time>
      </trkpt>
      <trkpt lat="47.43213" lon="-0.53373">
        <ele>16</ele>
        <time>2013-08-28T07:40:55Z</time>
      </trkpt>
      <trkpt lat="47.43215" lon="-0.53375">
        <ele>16</ele>
        <time>2013-08-28T07:40:57Z</time>
      </trkpt>
      <trkpt lat="47.43217" lon="-0.53376">
        <ele>16</ele>
        <time>2013-08-28T07:40:58Z</time>
      </trkpt>
      <trkpt lat="47.43218" lon="-0.53376">
        <ele>16</ele>
        <time>2013-08-28T07:40:59Z</time>
      </trkpt>
      <trkpt lat="47.43222" lon="-0.53382">
        <ele>16</ele>
        <time>2013-08-28T07:41:05Z</time>
      </trkpt>
      <trkpt lat="47.43222" lon="-0.53406">
        <ele>16</ele>
        <time>2013-08-28T07:41:06Z</time>
      </trkpt>
      <trkpt lat="47.43221" lon="-0.53412">
        <ele>16</ele>
        <time>2013-08-28T07:41:07Z</time>
      </trkpt>
      <trkpt lat="47.43222" lon="-0.53418">
        <ele>16</ele>
        <time>2013-08-28T07:41:08Z</time>
      </trkpt>
      <trkpt lat="47.43224" lon="-0.53431">
        <ele>16</ele>
        <time>2013-08-28T07:41:14Z</time>
      </trkpt>
      <trkpt lat="47.43237" lon="-0.53462">
        <ele>16</ele>
        <time>2013-08-28T07:41:15Z</time>
      </trkpt>
      <trkpt lat="47.43236" lon="-0.53475">
        <ele>16</ele>
        <time>2013-08-28T07:41:20Z</time>
      </trkpt>
      <trkpt lat="47.43223" lon="-0.53495">
        <ele>16</ele>
        <time>2013-08-28T07:41:21Z</time>
      </trkpt>
      <trkpt lat="47.43219" lon="-0.53497">
        <ele>16</ele>
        <time>2013-08-28T07:41:22Z</time>
      </trkpt>
      <trkpt lat="47.43214" lon="-0.53501">
        <ele>16</ele>
        <time>2013-08-28T07:41:23Z</time>
      </trkpt>
      <trkpt lat="47.43209" lon="-0.53504">
        <ele>16</ele>
        <time>2013-08-28T07:41:23Z</time>
      </trkpt>
      <trkpt lat="47.432" lon="-0.53515">
        <ele>16</ele>
        <time>2013-08-28T07:41:28Z</time>
      </trkpt>
      <trkpt lat="47.43191" lon="-0.53545">
        <ele>16</ele>
        <time>2013-08-28T07:41:29Z</time>
      </trkpt>
      <trkpt lat="47.43189" lon="-0.53554">
        <ele>16</ele>
        <time>2013-08-28T07:41:30Z</time>
      </trkpt>
      <trkpt lat="47.43187" lon="-0.53562">
        <ele>16</ele>
        <time>2013-08-28T07:41:31Z</time>
      </trkpt>
      <trkpt lat="47.43182" lon="-0.53579">
        <ele>16</ele>
        <time>2013-08-28T07:41:36Z</time>
      </trkpt>
      <trkpt lat="47.43172" lon="-0.53614">
        <ele>16</ele>
        <time>2013-08-28T07:41:37Z</time>
      </trkpt>
      <trkpt lat="47.43169" lon="-0.53623">
        <ele>16</ele>
        <time>2013-08-28T07:41:38Z</time>
      </trkpt>
      <trkpt lat="47.43156" lon="-0.5367">
        <ele>16</ele>
        <time>2013-08-28T07:41:43Z</time>
      </trkpt>
      <trkpt lat="47.43153" lon="-0.53679">
        <ele>16</ele>
        <time>2013-08-28T07:41:44Z</time>
      </trkpt>
      <trkpt lat="47.4315" lon="-0.53689">
        <ele>16</ele>
        <time>2013-08-28T07:41:45Z</time>
      </trkpt>
      <trkpt lat="47.43145" lon="-0.53707">
        <ele>16</ele>
        <time>2013-08-28T07:41:50Z</time>
      </trkpt>
      <trkpt lat="47.43134" lon="-0.53744">
        <ele>16</ele>
        <time>2013-08-28T07:41:51Z</time>
      </trkpt>
      <trkpt lat="47.43131" lon="-0.53754">
        <ele>16</ele>
        <time>2013-08-28T07:41:52Z</time>
      </trkpt>
      <trkpt lat="47.43125" lon="-0.53773">
        <ele>16</ele>
        <time>2013-08-28T07:41:57Z</time>
      </trkpt>
      <trkpt lat="47.43114" lon="-0.53812">
        <ele>16</ele>
        <time>2013-08-28T07:41:58Z</time>
      </trkpt>
      <trkpt lat="47.43111" lon="-0.53821">
        <ele>16</ele>
        <time>2013-08-28T07:41:59Z</time>
      </trkpt>
      <trkpt lat="47.43106" lon="-0.53841">
        <ele>16</ele>
        <time>2013-08-28T07:42:04Z</time>
      </trkpt>
      <trkpt lat="47.43095" lon="-0.53879">
        <ele>16</ele>
        <time>2013-08-28T07:42:05Z</time>
      </trkpt>
      <trkpt lat="47.43092" lon="-0.53889">
        <ele>16</ele>
        <time>2013-08-28T07:42:06Z</time>
      </trkpt>
      <trkpt lat="47.43085" lon="-0.53908">
        <ele>16</ele>
        <time>2013-08-28T07:42:11Z</time>
      </trkpt>
      <trkpt lat="47.43074" lon="-0.53947">
        <ele>16</ele>
        <time>2013-08-28T07:42:12Z</time>
      </trkpt>
      <trkpt lat="47.43071" lon="-0.53956">
        <ele>16</ele>
        <time>2013-08-28T07:42:13Z</time>
      </trkpt>
      <trkpt lat="47.43065" lon="-0.53975">
        <ele>16</ele>
        <time>2013-08-28T07:42:18Z</time>
      </trkpt>
      <trkpt lat="47.43053" lon="-0.54014">
        <ele>16</ele>
        <time>2013-08-28T07:42:19Z</time>
      </trkpt>
      <trkpt lat="47.43051" lon="-0.54023">
        <ele>16</ele>
        <time>2013-08-28T07:42:20Z</time>
      </trkpt>
      <trkpt lat="47.43045" lon="-0.54042">
        <ele>16</ele>
        <time>2013-08-28T07:42:25Z</time>
      </trkpt>
      <trkpt lat="47.43034" lon="-0.54079">
        <ele>16</ele>
        <time>2013-08-28T07:42:26Z</time>
      </trkpt>
      <trkpt lat="47.43031" lon="-0.54088">
        <ele>16</ele>
        <time>2013-08-28T07:42:27Z</time>
      </trkpt>
      <trkpt lat="47.43026" lon="-0.54105">
        <ele>16</ele>
        <time>2013-08-28T07:42:32Z</time>
      </trkpt>
      <trkpt lat="47.43019" lon="-0.54135">
        <ele>16</ele>
        <time>2013-08-28T07:42:33Z</time>
      </trkpt>
      <trkpt lat="47.43018" lon="-0.54142">
        <ele>16</ele>
        <time>2013-08-28T07:42:34Z</time>
      </trkpt>
      <trkpt lat="47.43017" lon="-0.5415">
        <ele>16</ele>
        <time>2013-08-28T07:42:35Z</time>
      </trkpt>
      <trkpt lat="47.43008" lon="-0.54195">
        <ele>16</ele>
        <time>2013-08-28T07:42:41Z</time>
      </trkpt>
      <trkpt lat="47.43003" lon="-0.54201">
        <ele>16</ele>
        <time>2013-08-28T07:42:43Z</time>
      </trkpt>
      <trkpt lat="47.42998" lon="-0.54207">
        <ele>16</ele>
        <time>2013-08-28T07:42:44Z</time>
      </trkpt>
      <trkpt lat="47.4299" lon="-0.5422">
        <ele>16</ele>
        <time>2013-08-28T07:42:49Z</time>
      </trkpt>
      <trkpt lat="47.42979" lon="-0.54256">
        <ele>16</ele>
        <time>2013-08-28T07:42:49Z</time>
      </trkpt>
      <trkpt lat="47.42977" lon="-0.54265">
        <ele>16</ele>
        <time>2013-08-28T07:42:50Z</time>
      </trkpt>
      <trkpt lat="47.42974" lon="-0.54274">
        <ele>16</ele>
        <time>2013-08-28T07:42:51Z</time>
      </trkpt>
      <trkpt lat="47.42968" lon="-0.54293">
        <ele>16</ele>
        <time>2013-08-28T07:42:56Z</time>
      </trkpt>
      <trkpt lat="47.42956" lon="-0.54331">
        <ele>16</ele>
        <time>2013-08-28T07:42:57Z</time>
      </trkpt>
      <trkpt lat="47.42953" lon="-0.5434">
        <ele>16</ele>
        <time>2013-08-28T07:42:58Z</time>
      </trkpt>
      <trkpt lat="47.42947" lon="-0.54359">
        <ele>16</ele>
        <time>2013-08-28T07:43:03Z</time>
      </trkpt>
      <trkpt lat="47.42935" lon="-0.54396">
        <ele>16</ele>
        <time>2013-08-28T07:43:04Z</time>
      </trkpt>
      <trkpt lat="47.42932" lon="-0.54406">
        <ele>16</ele>
        <time>2013-08-28T07:43:05Z</time>
      </trkpt>
      <trkpt lat="47.42926" lon="-0.54425">
        <ele>16</ele>
        <time>2013-08-28T07:43:10Z</time>
      </trkpt>
      <trkpt lat="47.42915" lon="-0.54463">
        <ele>16</ele>
        <time>2013-08-28T07:43:11Z</time>
      </trkpt>
      <trkpt lat="47.42913" lon="-0.54473">
        <ele>16</ele>
        <time>2013-08-28T07:43:12Z</time>
      </trkpt>
      <trkpt lat="47.42907" lon="-0.54493">
        <ele>16</ele>
        <time>2013-08-28T07:43:17Z</time>
      </trkpt>
      <trkpt lat="47.42895" lon="-0.54532">
        <ele>16</ele>
        <time>2013-08-28T07:43:18Z</time>
      </trkpt>
      <trkpt lat="47.42891" lon="-0.54542">
        <ele>16</ele>
        <time>2013-08-28T07:43:19Z</time>
      </trkpt>
      <trkpt lat="47.42886" lon="-0.54561">
        <ele>16</ele>
        <time>2013-08-28T07:43:24Z</time>
      </trkpt>
      <trkpt lat="47.42874" lon="-0.54599">
        <ele>16</ele>
        <time>2013-08-28T07:43:25Z</time>
      </trkpt>
      <trkpt lat="47.42871" lon="-0.54608">
        <ele>16</ele>
        <time>2013-08-28T07:43:26Z</time>
      </trkpt>
      <trkpt lat="47.42865" lon="-0.54627">
        <ele>16</ele>
        <time>2013-08-28T07:43:31Z</time>
      </trkpt>
      <trkpt lat="47.42852" lon="-0.54664">
        <ele>16</ele>
        <time>2013-08-28T07:43:32Z</time>
      </trkpt>
      <trkpt lat="47.42849" lon="-0.54673">
        <ele>16</ele>
        <time>2013-08-28T07:43:33Z</time>
      </trkpt>
      <trkpt lat="47.42843" lon="-0.54692">
        <ele>16</ele>
        <time>2013-08-28T07:43:38Z</time>
      </trkpt>
      <trkpt lat="47.4283" lon="-0.54729">
        <ele>16</ele>
        <time>2013-08-28T07:43:39Z</time>
      </trkpt>
      <trkpt lat="47.42827" lon="-0.54738">
        <ele>16</ele>
        <time>2013-08-28T07:43:40Z</time>
      </trkpt>
      <trkpt lat="47.42821" lon="-0.54756">
        <ele>16</ele>
        <time>2013-08-28T07:43:45Z</time>
      </trkpt>
      <trkpt lat="47.4281" lon="-0.54791">
        <ele>16</ele>
        <time>2013-08-28T07:43:46Z</time>
      </trkpt>
      <trkpt lat="47.42807" lon="-0.54799">
        <ele>16</ele>
        <time>2013-08-28T07:43:47Z</time>
      </trkpt>
      <trkpt lat="47.42802" lon="-0.54817">
        <ele>16</ele>
        <time>2013-08-28T07:43:52Z</time>
      </trkpt>
      <trkpt lat="47.42793" lon="-0.54854">
        <ele>16</ele>
        <time>2013-08-28T07:43:53Z</time>
      </trkpt>
      <trkpt lat="47.42791" lon="-0.54863">
        <ele>16</ele>
        <time>2013-08-28T07:43:54Z</time>
      </trkpt>
      <trkpt lat="47.42787" lon="-0.54882">
        <ele>16</ele>
        <time>2013-08-28T07:43:59Z</time>
      </trkpt>
      <trkpt lat="47.42783" lon="-0.54917">
        <ele>16</ele>
        <time>2013-08-28T07:44:00Z</time>
      </trkpt>
      <trkpt lat="47.42782" lon="-0.54924">
        <ele>16</ele>
        <time>2013-08-28T07:44:01Z</time>
      </trkpt>
      <trkpt lat="47.42782" lon="-0.54931">
        <ele>16</ele>
        <time>2013-08-28T07:44:02Z</time>
      </trkpt>
      <trkpt lat="47.42784" lon="-0.54943">
        <ele>16</ele>
        <time>2013-08-28T07:44:07Z</time>
      </trkpt>
      <trkpt lat="47.42784" lon="-0.54972">
        <ele>16</ele>
        <time>2013-08-28T07:44:08Z</time>
      </trkpt>
      <trkpt lat="47.4278" lon="-0.54979">
        <ele>16</ele>
        <time>2013-08-28T07:44:09Z</time>
      </trkpt>
      <trkpt lat="47.42776" lon="-0.54986">
        <ele>16</ele>
        <time>2013-08-28T07:44:10Z</time>
      </trkpt>
      <trkpt lat="47.4277" lon="-0.55002">
        <ele>16</ele>
        <time>2013-08-28T07:44:15Z</time>
      </trkpt>
      <trkpt lat="47.42766" lon="-0.55039">
        <ele>16</ele>
        <time>2013-08-28T07:44:16Z</time>
      </trkpt>
      <trkpt lat="47.42765" lon="-0.55049">
        <ele>16</ele>
        <time>2013-08-28T07:44:18Z</time>
      </trkpt>
      <trkpt lat="47.42765" lon="-0.55058">
        <ele>16</ele>
        <time>2013-08-28T07:44:19Z</time>
      </trkpt>
      <trkpt lat="47.42767" lon="-0.55079">
        <ele>16</ele>
        <time>2013-08-28T07:44:24Z</time>
      </trkpt>
      <trkpt lat="47.42769" lon="-0.55119">
        <ele>16</ele>
        <time>2013-08-28T07:44:24Z</time>
      </trkpt>
      <trkpt lat="47.42769" lon="-0.55129">
        <ele>16</ele>
        <time>2013-08-28T07:44:25Z</time>
      </trkpt>
      <trkpt lat="47.4277" lon="-0.55148">
        <ele>16</ele>
        <time>2013-08-28T07:44:31Z</time>
      </trkpt>
      <trkpt lat="47.42773" lon="-0.55187">
        <ele>16</ele>
        <time>2013-08-28T07:44:31Z</time>
      </trkpt>
      <trkpt lat="47.42773" lon="-0.55197">
        <ele>16</ele>
        <time>2013-08-28T07:44:32Z</time>
      </trkpt>
      <trkpt lat="47.42775" lon="-0.55216">
        <ele>16</ele>
        <time>2013-08-28T07:44:38Z</time>
      </trkpt>
      <trkpt lat="47.42777" lon="-0.55255">
        <ele>16</ele>
        <time>2013-08-28T07:44:38Z</time>
      </trkpt>
      <trkpt lat="47.42777" lon="-0.55265">
        <ele>16</ele>
        <time>2013-08-28T07:44:39Z</time>
      </trkpt>
      <trkpt lat="47.42779" lon="-0.55285">
        <ele>16</ele>
        <time>2013-08-28T07:44:45Z</time>
      </trkpt>
      <trkpt lat="47.42782" lon="-0.55324">
        <ele>16</ele>
        <time>2013-08-28T07:44:45Z</time>
      </trkpt>
      <trkpt lat="47.42783" lon="-0.55334">
        <ele>16</ele>
        <time>2013-08-28T07:44:46Z</time>
      </trkpt>
      <trkpt lat="47.42784" lon="-0.55353">
        <ele>16</ele>
        <time>2013-08-28T07:44:52Z</time>
      </trkpt>
      <trkpt lat="47.42786" lon="-0.55392">
        <ele>16</ele>
        <time>2013-08-28T07:44:52Z</time>
      </trkpt>
      <trkpt lat="47.42787" lon="-0.55402">
        <ele>16</ele>
        <time>2013-08-28T07:44:53Z</time>
      </trkpt>
      <trkpt lat="47.42788" lon="-0.55421">
        <ele>16</ele>
        <time>2013-08-28T07:44:59Z</time>
      </trkpt>
      <trkpt lat="47.42788" lon="-0.55457">
        <ele>16</ele>
        <time>2013-08-28T07:44:59Z</time>
      </trkpt>
      <trkpt lat="47.42789" lon="-0.55466">
        <ele>16</ele>
        <time>2013-08-28T07:45:00Z</time>
      </trkpt>
      <trkpt lat="47.42789" lon="-0.55483">
        <ele>16</ele>
        <time>2013-08-28T07:45:05Z</time>
      </trkpt>
      <trkpt lat="47.42789" lon="-0.55516">
        <ele>16</ele>
        <time>2013-08-28T07:45:06Z</time>
      </trkpt>
      <trkpt lat="47.42789" lon="-0.55523">
        <ele>16</ele>
        <time>2013-08-28T07:45:07Z</time>
      </trkpt>
      <trkpt lat="47.42789" lon="-0.55539">
        <ele>16</ele>
        <time>2013-08-28T07:45:12Z</time>
      </trkpt>
      <trkpt lat="47.42793" lon="-0.55568">
        <ele>16</ele>
        <time>2013-08-28T07:45:13Z</time>
      </trkpt>
      <trkpt lat="47.42795" lon="-0.55577">
        <ele>17</ele>
        <time>2013-08-28T07:45:14Z</time>
      </trkpt>
      <trkpt lat="47.42794" lon="-0.5559">
        <ele>17</ele>
        <time>2013-08-28T07:45:19Z</time>
      </trkpt>
      <trkpt lat="47.42795" lon="-0.55622">
        <ele>17</ele>
        <time>2013-08-28T07:45:20Z</time>
      </trkpt>
      <trkpt lat="47.42795" lon="-0.5563">
        <ele>17</ele>
        <time>2013-08-28T07:45:21Z</time>
      </trkpt>
      <trkpt lat="47.42794" lon="-0.55649">
        <ele>17</ele>
        <time>2013-08-28T07:45:26Z</time>
      </trkpt>
      <trkpt lat="47.42791" lon="-0.55689">
        <ele>17</ele>
        <time>2013-08-28T07:45:27Z</time>
      </trkpt>
      <trkpt lat="47.42791" lon="-0.55699">
        <ele>17</ele>
        <time>2013-08-28T07:45:28Z</time>
      </trkpt>
      <trkpt lat="47.42788" lon="-0.55717">
        <ele>17</ele>
        <time>2013-08-28T07:45:33Z</time>
      </trkpt>
      <trkpt lat="47.42784" lon="-0.55756">
        <ele>17</ele>
        <time>2013-08-28T07:45:34Z</time>
      </trkpt>
      <trkpt lat="47.42783" lon="-0.55766">
        <ele>17</ele>
        <time>2013-08-28T07:45:35Z</time>
      </trkpt>
      <trkpt lat="47.4278" lon="-0.55787">
        <ele>17</ele>
        <time>2013-08-28T07:45:40Z</time>
      </trkpt>
      <trkpt lat="47.42774" lon="-0.55827">
        <ele>17</ele>
        <time>2013-08-28T07:45:41Z</time>
      </trkpt>
      <trkpt lat="47.42773" lon="-0.55837">
        <ele>17</ele>
        <time>2013-08-28T07:45:42Z</time>
      </trkpt>
      <trkpt lat="47.42769" lon="-0.55857">
        <ele>16</ele>
        <time>2013-08-28T07:45:47Z</time>
      </trkpt>
      <trkpt lat="47.42762" lon="-0.55897">
        <ele>16</ele>
        <time>2013-08-28T07:45:48Z</time>
      </trkpt>
      <trkpt lat="47.42759" lon="-0.55907">
        <ele>16</ele>
        <time>2013-08-28T07:45:49Z</time>
      </trkpt>
      <trkpt lat="47.42755" lon="-0.55927">
        <ele>16</ele>
        <time>2013-08-28T07:45:54Z</time>
      </trkpt>
      <trkpt lat="47.42746" lon="-0.55966">
        <ele>16</ele>
        <time>2013-08-28T07:45:55Z</time>
      </trkpt>
      <trkpt lat="47.42744" lon="-0.55975">
        <ele>16</ele>
        <time>2013-08-28T07:45:56Z</time>
      </trkpt>
      <trkpt lat="47.42739" lon="-0.55994">
        <ele>16</ele>
        <time>2013-08-28T07:46:01Z</time>
      </trkpt>
      <trkpt lat="47.42728" lon="-0.5603">
        <ele>16</ele>
        <time>2013-08-28T07:46:02Z</time>
      </trkpt>
      <trkpt lat="47.42725" lon="-0.56039">
        <ele>16</ele>
        <time>2013-08-28T07:46:03Z</time>
      </trkpt>
      <trkpt lat="47.42719" lon="-0.56058">
        <ele>16</ele>
        <time>2013-08-28T07:46:08Z</time>
      </trkpt>
      <trkpt lat="47.42708" lon="-0.56094">
        <ele>16</ele>
        <time>2013-08-28T07:46:09Z</time>
      </trkpt>
      <trkpt lat="47.42705" lon="-0.56104">
        <ele>16</ele>
        <time>2013-08-28T07:46:10Z</time>
      </trkpt>
      <trkpt lat="47.42699" lon="-0.56122">
        <ele>16</ele>
        <time>2013-08-28T07:46:15Z</time>
      </trkpt>
      <trkpt lat="47.42688" lon="-0.56157">
        <ele>16</ele>
        <time>2013-08-28T07:46:16Z</time>
      </trkpt>
      <trkpt lat="47.42685" lon="-0.56166">
        <ele>17</ele>
        <time>2013-08-28T07:46:17Z</time>
      </trkpt>
      <trkpt lat="47.42679" lon="-0.56184">
        <ele>18</ele>
        <time>2013-08-28T07:46:22Z</time>
      </trkpt>
      <trkpt lat="47.42668" lon="-0.5622">
        <ele>19</ele>
        <time>2013-08-28T07:46:23Z</time>
      </trkpt>
      <trkpt lat="47.42665" lon="-0.56229">
        <ele>20</ele>
        <time>2013-08-28T07:46:24Z</time>
      </trkpt>
      <trkpt lat="47.42659" lon="-0.56247">
        <ele>20</ele>
        <time>2013-08-28T07:46:29Z</time>
      </trkpt>
      <trkpt lat="47.42647" lon="-0.56283">
        <ele>21</ele>
        <time>2013-08-28T07:46:30Z</time>
      </trkpt>
      <trkpt lat="47.42644" lon="-0.56293">
        <ele>22</ele>
        <time>2013-08-28T07:46:31Z</time>
      </trkpt>
      <trkpt lat="47.42638" lon="-0.56311">
        <ele>22</ele>
        <time>2013-08-28T07:46:36Z</time>
      </trkpt>
      <trkpt lat="47.42627" lon="-0.56346">
        <ele>23</ele>
        <time>2013-08-28T07:46:37Z</time>
      </trkpt>
      <trkpt lat="47.42625" lon="-0.56355">
        <ele>23</ele>
        <time>2013-08-28T07:46:38Z</time>
      </trkpt>
      <trkpt lat="47.42619" lon="-0.56373">
        <ele>24</ele>
        <time>2013-08-28T07:46:44Z</time>
      </trkpt>
      <trkpt lat="47.42608" lon="-0.56407">
        <ele>24</ele>
        <time>2013-08-28T07:46:44Z</time>
      </trkpt>
      <trkpt lat="47.42604" lon="-0.56415">
        <ele>24</ele>
        <time>2013-08-28T07:46:45Z</time>
      </trkpt>
      <trkpt lat="47.426" lon="-0.5643">
        <ele>24</ele>
        <time>2013-08-28T07:46:51Z</time>
      </trkpt>
      <trkpt lat="47.426" lon="-0.56463">
        <ele>24</ele>
        <time>2013-08-28T07:46:51Z</time>
      </trkpt>
      <trkpt lat="47.426" lon="-0.56472">
        <ele>24</ele>
        <time>2013-08-28T07:46:52Z</time>
      </trkpt>
      <trkpt lat="47.42599" lon="-0.5648">
        <ele>24</ele>
        <time>2013-08-28T07:46:53Z</time>
      </trkpt>
      <trkpt lat="47.42595" lon="-0.56488">
        <ele>24</ele>
        <time>2013-08-28T07:46:54Z</time>
      </trkpt>
      <trkpt lat="47.42591" lon="-0.56494">
        <ele>24</ele>
        <time>2013-08-28T07:46:55Z</time>
      </trkpt>
      <trkpt lat="47.4258" lon="-0.56505">
        <ele>24</ele>
        <time>2013-08-28T07:47:01Z</time>
      </trkpt>
      <trkpt lat="47.4256" lon="-0.56539">
        <ele>24</ele>
        <time>2013-08-28T07:47:02Z</time>
      </trkpt>
      <trkpt lat="47.42557" lon="-0.56548">
        <ele>24</ele>
        <time>2013-08-28T07:47:03Z</time>
      </trkpt>
      <trkpt lat="47.42554" lon="-0.56556">
        <ele>24</ele>
        <time>2013-08-28T07:47:04Z</time>
      </trkpt>
      <trkpt lat="47.42548" lon="-0.56573">
        <ele>24</ele>
        <time>2013-08-28T07:47:09Z</time>
      </trkpt>
      <trkpt lat="47.42534" lon="-0.56607">
        <ele>24</ele>
        <time>2013-08-28T07:47:10Z</time>
      </trkpt>
      <trkpt lat="47.42531" lon="-0.56616">
        <ele>24</ele>
        <time>2013-08-28T07:47:11Z</time>
      </trkpt>
      <trkpt lat="47.42524" lon="-0.56633">
        <ele>24</ele>
        <time>2013-08-28T07:47:16Z</time>
      </trkpt>
      <trkpt lat="47.42509" lon="-0.56667">
        <ele>24</ele>
        <time>2013-08-28T07:47:17Z</time>
      </trkpt>
      <trkpt lat="47.42503" lon="-0.56675">
        <ele>24</ele>
        <time>2013-08-28T07:47:18Z</time>
      </trkpt>
      <trkpt lat="47.42494" lon="-0.56692">
        <ele>24</ele>
        <time>2013-08-28T07:47:24Z</time>
      </trkpt>
      <trkpt lat="47.42476" lon="-0.56726">
        <ele>24</ele>
        <time>2013-08-28T07:47:24Z</time>
      </trkpt>
      <trkpt lat="47.42471" lon="-0.56735">
        <ele>24</ele>
        <time>2013-08-28T07:47:25Z</time>
      </trkpt>
      <trkpt lat="47.42463" lon="-0.56752">
        <ele>24</ele>
        <time>2013-08-28T07:47:31Z</time>
      </trkpt>
      <trkpt lat="47.42447" lon="-0.56787">
        <ele>24</ele>
        <time>2013-08-28T07:47:31Z</time>
      </trkpt>
      <trkpt lat="47.42442" lon="-0.56795">
        <ele>24</ele>
        <time>2013-08-28T07:47:32Z</time>
      </trkpt>
      <trkpt lat="47.42434" lon="-0.56813">
        <ele>24</ele>
        <time>2013-08-28T07:47:38Z</time>
      </trkpt>
      <trkpt lat="47.42417" lon="-0.5685">
        <ele>23</ele>
        <time>2013-08-28T07:47:38Z</time>
      </trkpt>
      <trkpt lat="47.42414" lon="-0.5686">
        <ele>22</ele>
        <time>2013-08-28T07:47:39Z</time>
      </trkpt>
      <trkpt lat="47.42406" lon="-0.56878">
        <ele>21</ele>
        <time>2013-08-28T07:47:45Z</time>
      </trkpt>
      <trkpt lat="47.4239" lon="-0.56914">
        <ele>21</ele>
        <time>2013-08-28T07:47:45Z</time>
      </trkpt>
      <trkpt lat="47.42385" lon="-0.56923">
        <ele>20</ele>
        <time>2013-08-28T07:47:46Z</time>
      </trkpt>
      <trkpt lat="47.42376" lon="-0.5694">
        <ele>19</ele>
        <time>2013-08-28T07:47:52Z</time>
      </trkpt>
      <trkpt lat="47.42359" lon="-0.56973">
        <ele>19</ele>
        <time>2013-08-28T07:47:52Z</time>
      </trkpt>
      <trkpt lat="47.42355" lon="-0.56981">
        <ele>19</ele>
        <time>2013-08-28T07:47:53Z</time>
      </trkpt>
      <trkpt lat="47.42346" lon="-0.56998">
        <ele>19</ele>
        <time>2013-08-28T07:47:59Z</time>
      </trkpt>
      <trkpt lat="47.4233" lon="-0.57032">
        <ele>19</ele>
        <time>2013-08-28T07:47:59Z</time>
      </trkpt>
      <trkpt lat="47.42326" lon="-0.57041">
        <ele>19</ele>
        <time>2013-08-28T07:48:00Z</time>
      </trkpt>
      <trkpt lat="47.42318" lon="-0.57058">
        <ele>19</ele>
        <time>2013-08-28T07:48:06Z</time>
      </trkpt>
      <trkpt lat="47.42302" lon="-0.57094">
        <ele>19</ele>
        <time>2013-08-28T07:48:06Z</time>
      </trkpt>
      <trkpt lat="47.42297" lon="-0.57103">
        <ele>19</ele>
        <time>2013-08-28T07:48:07Z</time>
      </trkpt>
      <trkpt lat="47.42273" lon="-0.57155">
        <ele>19</ele>
        <time>2013-08-28T07:48:13Z</time>
      </trkpt>
      <trkpt lat="47.42269" lon="-0.57164">
        <ele>19</ele>
        <time>2013-08-28T07:48:14Z</time>
      </trkpt>
      <trkpt lat="47.42246" lon="-0.57216">
        <ele>19</ele>
        <time>2013-08-28T07:48:20Z</time>
      </trkpt>
      <trkpt lat="47.42242" lon="-0.57226">
        <ele>19</ele>
        <time>2013-08-28T07:48:21Z</time>
      </trkpt>
      <trkpt lat="47.42238" lon="-0.57235">
        <ele>19</ele>
        <time>2013-08-28T07:48:22Z</time>
      </trkpt>
      <trkpt lat="47.42231" lon="-0.57253">
        <ele>19</ele>
        <time>2013-08-28T07:48:27Z</time>
      </trkpt>
      <trkpt lat="47.42218" lon="-0.57291">
        <ele>19</ele>
        <time>2013-08-28T07:48:28Z</time>
      </trkpt>
      <trkpt lat="47.42215" lon="-0.57301">
        <ele>19</ele>
        <time>2013-08-28T07:48:29Z</time>
      </trkpt>
      <trkpt lat="47.42209" lon="-0.5732">
        <ele>19</ele>
        <time>2013-08-28T07:48:35Z</time>
      </trkpt>
      <trkpt lat="47.42197" lon="-0.5736">
        <ele>19</ele>
        <time>2013-08-28T07:48:35Z</time>
      </trkpt>
      <trkpt lat="47.42194" lon="-0.5737">
        <ele>19</ele>
        <time>2013-08-28T07:48:36Z</time>
      </trkpt>
      <trkpt lat="47.42188" lon="-0.5739">
        <ele>19</ele>
        <time>2013-08-28T07:48:42Z</time>
      </trkpt>
      <trkpt lat="47.42177" lon="-0.57429">
        <ele>19</ele>
        <time>2013-08-28T07:48:42Z</time>
      </trkpt>
      <trkpt lat="47.42174" lon="-0.57438">
        <ele>19</ele>
        <time>2013-08-28T07:48:43Z</time>
      </trkpt>
      <trkpt lat="47.42169" lon="-0.57458">
        <ele>19</ele>
        <time>2013-08-28T07:48:49Z</time>
      </trkpt>
      <trkpt lat="47.42159" lon="-0.57497">
        <ele>19</ele>
        <time>2013-08-28T07:48:49Z</time>
      </trkpt>
      <trkpt lat="47.42157" lon="-0.57507">
        <ele>19</ele>
        <time>2013-08-28T07:48:50Z</time>
      </trkpt>
      <trkpt lat="47.42153" lon="-0.57527">
        <ele>20</ele>
        <time>2013-08-28T07:48:56Z</time>
      </trkpt>
      <trkpt lat="47.42145" lon="-0.57568">
        <ele>21</ele>
        <time>2013-08-28T07:48:56Z</time>
      </trkpt>
      <trkpt lat="47.42143" lon="-0.57578">
        <ele>22</ele>
        <time>2013-08-28T07:48:57Z</time>
      </trkpt>
      <trkpt lat="47.42132" lon="-0.57641">
        <ele>23</ele>
        <time>2013-08-28T07:49:03Z</time>
      </trkpt>
      <trkpt lat="47.42131" lon="-0.57651">
        <ele>24</ele>
        <time>2013-08-28T07:49:04Z</time>
      </trkpt>
      <trkpt lat="47.42124" lon="-0.57715">
        <ele>24</ele>
        <time>2013-08-28T07:49:10Z</time>
      </trkpt>
      <trkpt lat="47.42122" lon="-0.57725">
        <ele>25</ele>
        <time>2013-08-28T07:49:11Z</time>
      </trkpt>
      <trkpt lat="47.4212" lon="-0.57736">
        <ele>26</ele>
        <time>2013-08-28T07:49:12Z</time>
      </trkpt>
      <trkpt lat="47.42118" lon="-0.57757">
        <ele>27</ele>
        <time>2013-08-28T07:49:18Z</time>
      </trkpt>
      <trkpt lat="47.42112" lon="-0.578">
        <ele>27</ele>
        <time>2013-08-28T07:49:18Z</time>
      </trkpt>
      <trkpt lat="47.4211" lon="-0.5781">
        <ele>27</ele>
        <time>2013-08-28T07:49:19Z</time>
      </trkpt>
      <trkpt lat="47.42107" lon="-0.57832">
        <ele>27</ele>
        <time>2013-08-28T07:49:25Z</time>
      </trkpt>
      <trkpt lat="47.42103" lon="-0.57875">
        <ele>27</ele>
        <time>2013-08-28T07:49:25Z</time>
      </trkpt>
      <trkpt lat="47.42102" lon="-0.57886">
        <ele>27</ele>
        <time>2013-08-28T07:49:26Z</time>
      </trkpt>
      <trkpt lat="47.421" lon="-0.57908">
        <ele>27</ele>
        <time>2013-08-28T07:49:32Z</time>
      </trkpt>
      <trkpt lat="47.42096" lon="-0.57952">
        <ele>27</ele>
        <time>2013-08-28T07:49:32Z</time>
      </trkpt>
      <trkpt lat="47.42094" lon="-0.57963">
        <ele>27</ele>
        <time>2013-08-28T07:49:33Z</time>
      </trkpt>
      <trkpt lat="47.42092" lon="-0.57985">
        <ele>27</ele>
        <time>2013-08-28T07:49:39Z</time>
      </trkpt>
      <trkpt lat="47.42087" lon="-0.58028">
        <ele>27</ele>
        <time>2013-08-28T07:49:39Z</time>
      </trkpt>
      <trkpt lat="47.42086" lon="-0.58039">
        <ele>27</ele>
        <time>2013-08-28T07:49:40Z</time>
      </trkpt>
      <trkpt lat="47.42076" lon="-0.58105">
        <ele>27</ele>
        <time>2013-08-28T07:49:46Z</time>
      </trkpt>
      <trkpt lat="47.42075" lon="-0.58115">
        <ele>27</ele>
        <time>2013-08-28T07:49:47Z</time>
      </trkpt>
      <trkpt lat="47.42072" lon="-0.58136">
        <ele>27</ele>
        <time>2013-08-28T07:49:53Z</time>
      </trkpt>
      <trkpt lat="47.42064" lon="-0.58186">
        <ele>26</ele>
        <time>2013-08-28T07:49:54Z</time>
      </trkpt>
      <trkpt lat="47.42064" lon="-0.58195">
        <ele>25</ele>
        <time>2013-08-28T07:49:55Z</time>
      </trkpt>
      <trkpt lat="47.42065" lon="-0.58215">
        <ele>24</ele>
        <time>2013-08-28T07:50:02Z</time>
      </trkpt>
      <trkpt lat="47.42044" lon="-0.58254">
        <ele>23</ele>
        <time>2013-08-28T07:50:02Z</time>
      </trkpt>
      <trkpt lat="47.42041" lon="-0.58263">
        <ele>22</ele>
        <time>2013-08-28T07:50:03Z</time>
      </trkpt>
      <trkpt lat="47.42037" lon="-0.58272">
        <ele>21</ele>
        <time>2013-08-28T07:50:04Z</time>
      </trkpt>
      <trkpt lat="47.42034" lon="-0.58293">
        <ele>20</ele>
        <time>2013-08-28T07:50:11Z</time>
      </trkpt>
      <trkpt lat="47.42025" lon="-0.58345">
        <ele>19</ele>
        <time>2013-08-28T07:50:11Z</time>
      </trkpt>
      <trkpt lat="47.42021" lon="-0.58366">
        <ele>18</ele>
        <time>2013-08-28T07:50:17Z</time>
      </trkpt>
      <trkpt lat="47.42012" lon="-0.58408">
        <ele>17</ele>
        <time>2013-08-28T07:50:17Z</time>
      </trkpt>
      <trkpt lat="47.42009" lon="-0.58418">
        <ele>16</ele>
        <time>2013-08-28T07:50:18Z</time>
      </trkpt>
      <trkpt lat="47.41997" lon="-0.58481">
        <ele>15</ele>
        <time>2013-08-28T07:50:24Z</time>
      </trkpt>
      <trkpt lat="47.41995" lon="-0.58491">
        <ele>14</ele>
        <time>2013-08-28T07:50:25Z</time>
      </trkpt>
      <trkpt lat="47.41992" lon="-0.58512">
        <ele>13</ele>
        <time>2013-08-28T07:50:31Z</time>
      </trkpt>
      <trkpt lat="47.41983" lon="-0.58563">
        <ele>13</ele>
        <time>2013-08-28T07:50:32Z</time>
      </trkpt>
      <trkpt lat="47.41982" lon="-0.58573">
        <ele>13</ele>
        <time>2013-08-28T07:50:33Z</time>
      </trkpt>
      <trkpt lat="47.41978" lon="-0.58593">
        <ele>13</ele>
        <time>2013-08-28T07:50:39Z</time>
      </trkpt>
      <trkpt lat="47.41971" lon="-0.58634">
        <ele>13</ele>
        <time>2013-08-28T07:50:39Z</time>
      </trkpt>
      <trkpt lat="47.41968" lon="-0.58645">
        <ele>13</ele>
        <time>2013-08-28T07:50:40Z</time>
      </trkpt>
      <trkpt lat="47.41965" lon="-0.58666">
        <ele>13</ele>
        <time>2013-08-28T07:50:46Z</time>
      </trkpt>
      <trkpt lat="47.4196" lon="-0.58706">
        <ele>13</ele>
        <time>2013-08-28T07:50:46Z</time>
      </trkpt>
      <trkpt lat="47.41959" lon="-0.58716">
        <ele>13</ele>
        <time>2013-08-28T07:50:47Z</time>
      </trkpt>
      <trkpt lat="47.41956" lon="-0.58738">
        <ele>13</ele>
        <time>2013-08-28T07:50:53Z</time>
      </trkpt>
      <trkpt lat="47.4195" lon="-0.58779">
        <ele>13</ele>
        <time>2013-08-28T07:50:53Z</time>
      </trkpt>
      <trkpt lat="47.41949" lon="-0.5879">
        <ele>13</ele>
        <time>2013-08-28T07:50:54Z</time>
      </trkpt>
      <trkpt lat="47.41937" lon="-0.58855">
        <ele>14</ele>
        <time>2013-08-28T07:51:00Z</time>
      </trkpt>
      <trkpt lat="47.41935" lon="-0.58866">
        <ele>14</ele>
        <time>2013-08-28T07:51:01Z</time>
      </trkpt>
      <trkpt lat="47.41933" lon="-0.58877">
        <ele>15</ele>
        <time>2013-08-28T07:51:02Z</time>
      </trkpt>
      <trkpt lat="47.41929" lon="-0.589">
        <ele>15</ele>
        <time>2013-08-28T07:51:08Z</time>
      </trkpt>
      <trkpt lat="47.41922" lon="-0.58944">
        <ele>15</ele>
        <time>2013-08-28T07:51:08Z</time>
      </trkpt>
      <trkpt lat="47.4192" lon="-0.58955">
        <ele>16</ele>
        <time>2013-08-28T07:51:09Z</time>
      </trkpt>
      <trkpt lat="47.41916" lon="-0.58977">
        <ele>16</ele>
        <time>2013-08-28T07:51:15Z</time>
      </trkpt>
      <trkpt lat="47.4191" lon="-0.59021">
        <ele>16</ele>
        <time>2013-08-28T07:51:15Z</time>
      </trkpt>
      <trkpt lat="47.41908" lon="-0.59032">
        <ele>16</ele>
        <time>2013-08-28T07:51:16Z</time>
      </trkpt>
      <trkpt lat="47.41898" lon="-0.59097">
        <ele>16</ele>
        <time>2013-08-28T07:51:22Z</time>
      </trkpt>
      <trkpt lat="47.41897" lon="-0.59108">
        <ele>16</ele>
        <time>2013-08-28T07:51:23Z</time>
      </trkpt>
      <trkpt lat="47.41895" lon="-0.5913">
        <ele>16</ele>
        <time>2013-08-28T07:51:29Z</time>
      </trkpt>
      <trkpt lat="47.41889" lon="-0.59185">
        <ele>16</ele>
        <time>2013-08-28T07:51:30Z</time>
      </trkpt>
      <trkpt lat="47.41888" lon="-0.59196">
        <ele>16</ele>
        <time>2013-08-28T07:51:31Z</time>
      </trkpt>
      <trkpt lat="47.41887" lon="-0.59218">
        <ele>16</ele>
        <time>2013-08-28T07:51:37Z</time>
      </trkpt>
      <trkpt lat="47.41887" lon="-0.5926">
        <ele>16</ele>
        <time>2013-08-28T07:51:37Z</time>
      </trkpt>
      <trkpt lat="47.41886" lon="-0.59271">
        <ele>16</ele>
        <time>2013-08-28T07:51:38Z</time>
      </trkpt>
      <trkpt lat="47.41886" lon="-0.59293">
        <ele>16</ele>
        <time>2013-08-28T07:51:44Z</time>
      </trkpt>
      <trkpt lat="47.41886" lon="-0.59335">
        <ele>16</ele>
        <time>2013-08-28T07:51:44Z</time>
      </trkpt>
      <trkpt lat="47.41886" lon="-0.59346">
        <ele>17</ele>
        <time>2013-08-28T07:51:45Z</time>
      </trkpt>
      <trkpt lat="47.41887" lon="-0.5941">
        <ele>18</ele>
        <time>2013-08-28T07:51:51Z</time>
      </trkpt>
      <trkpt lat="47.41887" lon="-0.59421">
        <ele>18</ele>
        <time>2013-08-28T07:51:52Z</time>
      </trkpt>
      <trkpt lat="47.41886" lon="-0.59442">
        <ele>18</ele>
        <time>2013-08-28T07:51:58Z</time>
      </trkpt>
      <trkpt lat="47.41887" lon="-0.59494">
        <ele>18</ele>
        <time>2013-08-28T07:51:59Z</time>
      </trkpt>
      <trkpt lat="47.41887" lon="-0.59504">
        <ele>18</ele>
        <time>2013-08-28T07:52:00Z</time>
      </trkpt>
      <trkpt lat="47.41887" lon="-0.59525">
        <ele>18</ele>
        <time>2013-08-28T07:52:06Z</time>
      </trkpt>
      <trkpt lat="47.41888" lon="-0.59562">
        <ele>18</ele>
        <time>2013-08-28T07:52:06Z</time>
      </trkpt>
      <trkpt lat="47.41888" lon="-0.59571">
        <ele>18</ele>
        <time>2013-08-28T07:52:07Z</time>
      </trkpt>
      <trkpt lat="47.41892" lon="-0.59587">
        <ele>18</ele>
        <time>2013-08-28T07:52:13Z</time>
      </trkpt>
      <trkpt lat="47.41899" lon="-0.59615">
        <ele>18</ele>
        <time>2013-08-28T07:52:14Z</time>
      </trkpt>
      <trkpt lat="47.41897" lon="-0.59623">
        <ele>18</ele>
        <time>2013-08-28T07:52:15Z</time>
      </trkpt>
      <trkpt lat="47.41894" lon="-0.59632">
        <ele>18</ele>
        <time>2013-08-28T07:52:16Z</time>
      </trkpt>
      <trkpt lat="47.4189" lon="-0.5964">
        <ele>17</ele>
        <time>2013-08-28T07:52:17Z</time>
      </trkpt>
      <trkpt lat="47.41883" lon="-0.59657">
        <ele>16</ele>
        <time>2013-08-28T07:52:23Z</time>
      </trkpt>
      <trkpt lat="47.41881" lon="-0.59705">
        <ele>16</ele>
        <time>2013-08-28T07:52:23Z</time>
      </trkpt>
      <trkpt lat="47.41881" lon="-0.59715">
        <ele>15</ele>
        <time>2013-08-28T07:52:24Z</time>
      </trkpt>
      <trkpt lat="47.41881" lon="-0.59725">
        <ele>15</ele>
        <time>2013-08-28T07:52:25Z</time>
      </trkpt>
      <trkpt lat="47.41882" lon="-0.59745">
        <ele>15</ele>
        <time>2013-08-28T07:52:31Z</time>
      </trkpt>
      <trkpt lat="47.41883" lon="-0.59787">
        <ele>14</ele>
        <time>2013-08-28T07:52:31Z</time>
      </trkpt>
      <trkpt lat="47.41883" lon="-0.59798">
        <ele>14</ele>
        <time>2013-08-28T07:52:32Z</time>
      </trkpt>
      <trkpt lat="47.41884" lon="-0.59819">
        <ele>14</ele>
        <time>2013-08-28T07:52:38Z</time>
      </trkpt>
      <trkpt lat="47.41886" lon="-0.59861">
        <ele>14</ele>
        <time>2013-08-28T07:52:38Z</time>
      </trkpt>
      <trkpt lat="47.41886" lon="-0.59871">
        <ele>14</ele>
        <time>2013-08-28T07:52:39Z</time>
      </trkpt>
      <trkpt lat="47.41886" lon="-0.59934">
        <ele>14</ele>
        <time>2013-08-28T07:52:45Z</time>
      </trkpt>
      <trkpt lat="47.41886" lon="-0.59945">
        <ele>14</ele>
        <time>2013-08-28T07:52:46Z</time>
      </trkpt>
      <trkpt lat="47.41886" lon="-0.59956">
        <ele>14</ele>
        <time>2013-08-28T07:52:47Z</time>
      </trkpt>
      <trkpt lat="47.41885" lon="-0.59977">
        <ele>13</ele>
        <time>2013-08-28T07:52:53Z</time>
      </trkpt>
      <trkpt lat="47.41885" lon="-0.6002">
        <ele>13</ele>
        <time>2013-08-28T07:52:53Z</time>
      </trkpt>
      <trkpt lat="47.41885" lon="-0.6003">
        <ele>12</ele>
        <time>2013-08-28T07:52:54Z</time>
      </trkpt>
      <trkpt lat="47.41885" lon="-0.60052">
        <ele>11</ele>
        <time>2013-08-28T07:53:00Z</time>
      </trkpt>
      <trkpt lat="47.41886" lon="-0.60093">
        <ele>11</ele>
        <time>2013-08-28T07:53:00Z</time>
      </trkpt>
      <trkpt lat="47.41886" lon="-0.60104">
        <ele>11</ele>
        <time>2013-08-28T07:53:01Z</time>
      </trkpt>
      <trkpt lat="47.41886" lon="-0.60125">
        <ele>10</ele>
        <time>2013-08-28T07:53:07Z</time>
      </trkpt>
      <trkpt lat="47.41888" lon="-0.60179">
        <ele>10</ele>
        <time>2013-08-28T07:53:08Z</time>
      </trkpt>
      <trkpt lat="47.41888" lon="-0.6019">
        <ele>10</ele>
        <time>2013-08-28T07:53:09Z</time>
      </trkpt>
      <trkpt lat="47.41889" lon="-0.60212">
        <ele>10</ele>
        <time>2013-08-28T07:53:15Z</time>
      </trkpt>
      <trkpt lat="47.41892" lon="-0.60255">
        <ele>10</ele>
        <time>2013-08-28T07:53:15Z</time>
      </trkpt>
      <trkpt lat="47.41893" lon="-0.60266">
        <ele>10</ele>
        <time>2013-08-28T07:53:16Z</time>
      </trkpt>
      <trkpt lat="47.41895" lon="-0.60287">
        <ele>10</ele>
        <time>2013-08-28T07:53:22Z</time>
      </trkpt>
      <trkpt lat="47.41899" lon="-0.60331">
        <ele>10</ele>
        <time>2013-08-28T07:53:22Z</time>
      </trkpt>
      <trkpt lat="47.41901" lon="-0.60342">
        <ele>10</ele>
        <time>2013-08-28T07:53:23Z</time>
      </trkpt>
      <trkpt lat="47.41904" lon="-0.60363">
        <ele>10</ele>
        <time>2013-08-28T07:53:29Z</time>
      </trkpt>
      <trkpt lat="47.41912" lon="-0.60415">
        <ele>10</ele>
        <time>2013-08-28T07:53:30Z</time>
      </trkpt>
      <trkpt lat="47.41914" lon="-0.60426">
        <ele>10</ele>
        <time>2013-08-28T07:53:31Z</time>
      </trkpt>
      <trkpt lat="47.41917" lon="-0.60447">
        <ele>9</ele>
        <time>2013-08-28T07:53:37Z</time>
      </trkpt>
      <trkpt lat="47.41925" lon="-0.60489">
        <ele>9</ele>
        <time>2013-08-28T07:53:37Z</time>
      </trkpt>
      <trkpt lat="47.41928" lon="-0.60499">
        <ele>9</ele>
        <time>2013-08-28T07:53:38Z</time>
      </trkpt>
      <trkpt lat="47.41933" lon="-0.60518">
        <ele>9</ele>
        <time>2013-08-28T07:53:44Z</time>
      </trkpt>
      <trkpt lat="47.41943" lon="-0.60557">
        <ele>8</ele>
        <time>2013-08-28T07:53:44Z</time>
      </trkpt>
      <trkpt lat="47.41946" lon="-0.60566">
        <ele>8</ele>
        <time>2013-08-28T07:53:45Z</time>
      </trkpt>
      <trkpt lat="47.41951" lon="-0.60583">
        <ele>8</ele>
        <time>2013-08-28T07:53:51Z</time>
      </trkpt>
      <trkpt lat="47.41963" lon="-0.60627">
        <ele>8</ele>
        <time>2013-08-28T07:53:52Z</time>
      </trkpt>
      <trkpt lat="47.41966" lon="-0.60637">
        <ele>8</ele>
        <time>2013-08-28T07:53:53Z</time>
      </trkpt>
      <trkpt lat="47.41971" lon="-0.60657">
        <ele>8</ele>
        <time>2013-08-28T07:53:59Z</time>
      </trkpt>
      <trkpt lat="47.41982" lon="-0.60693">
        <ele>8</ele>
        <time>2013-08-28T07:53:59Z</time>
      </trkpt>
      <trkpt lat="47.41984" lon="-0.60702">
        <ele>8</ele>
        <time>2013-08-28T07:54:00Z</time>
      </trkpt>
      <trkpt lat="47.4199" lon="-0.60719">
        <ele>8</ele>
        <time>2013-08-28T07:54:06Z</time>
      </trkpt>
      <trkpt lat="47.42" lon="-0.60751">
        <ele>8</ele>
        <time>2013-08-28T07:54:06Z</time>
      </trkpt>
      <trkpt lat="47.42002" lon="-0.60759">
        <ele>8</ele>
        <time>2013-08-28T07:54:07Z</time>
      </trkpt>
      <trkpt lat="47.42007" lon="-0.60773">
        <ele>8</ele>
        <time>2013-08-28T07:54:13Z</time>
      </trkpt>
      <trkpt lat="47.4202" lon="-0.60809">
        <ele>9</ele>
        <time>2013-08-28T07:54:14Z</time>
      </trkpt>
      <trkpt lat="47.42023" lon="-0.60816">
        <ele>10</ele>
        <time>2013-08-28T07:54:15Z</time>
      </trkpt>
      <trkpt lat="47.42028" lon="-0.6083">
        <ele>11</ele>
        <time>2013-08-28T07:54:21Z</time>
      </trkpt>
      <trkpt lat="47.42038" lon="-0.60859">
        <ele>12</ele>
        <time>2013-08-28T07:54:21Z</time>
      </trkpt>
      <trkpt lat="47.42041" lon="-0.60867">
        <ele>13</ele>
        <time>2013-08-28T07:54:22Z</time>
      </trkpt>
      <trkpt lat="47.42059" lon="-0.60918">
        <ele>13</ele>
        <time>2013-08-28T07:54:28Z</time>
      </trkpt>
      <trkpt lat="47.42063" lon="-0.60927">
        <ele>13</ele>
        <time>2013-08-28T07:54:29Z</time>
      </trkpt>
      <trkpt lat="47.42069" lon="-0.60943">
        <ele>13</ele>
        <time>2013-08-28T07:54:35Z</time>
      </trkpt>
      <trkpt lat="47.42083" lon="-0.60976">
        <ele>13</ele>
        <time>2013-08-28T07:54:36Z</time>
      </trkpt>
      <trkpt lat="47.42086" lon="-0.60979">
        <ele>13</ele>
        <time>2013-08-28T07:54:38Z</time>
      </trkpt>
      <trkpt lat="47.4209" lon="-0.60983">
        <ele>13</ele>
        <time>2013-08-28T07:54:39Z</time>
      </trkpt>
      <trkpt lat="47.42094" lon="-0.60985">
        <ele>13</ele>
        <time>2013-08-28T07:54:39Z</time>
      </trkpt>
      <trkpt lat="47.42111" lon="-0.61017">
        <ele>13</ele>
        <time>2013-08-28T07:54:45Z</time>
      </trkpt>
      <trkpt lat="47.42109" lon="-0.61025">
        <ele>12</ele>
        <time>2013-08-28T07:54:46Z</time>
      </trkpt>
      <trkpt lat="47.42105" lon="-0.61032">
        <ele>12</ele>
        <time>2013-08-28T07:54:48Z</time>
      </trkpt>
      <trkpt lat="47.42101" lon="-0.61036">
        <ele>11</ele>
        <time>2013-08-28T07:54:48Z</time>
      </trkpt>
      <trkpt lat="47.42068" lon="-0.61046">
        <ele>11</ele>
        <time>2013-08-28T07:54:55Z</time>
      </trkpt>
      <trkpt lat="47.42063" lon="-0.61049">
        <ele>11</ele>
        <time>2013-08-28T07:54:56Z</time>
      </trkpt>
      <trkpt lat="47.42053" lon="-0.61055">
        <ele>11</ele>
        <time>2013-08-28T07:55:02Z</time>
      </trkpt>
      <trkpt lat="47.42031" lon="-0.6107">
        <ele>11</ele>
        <time>2013-08-28T07:55:02Z</time>
      </trkpt>
      <trkpt lat="47.42025" lon="-0.61074">
        <ele>11</ele>
        <time>2013-08-28T07:55:03Z</time>
      </trkpt>
      <trkpt lat="47.41994" lon="-0.61098">
        <ele>11</ele>
        <time>2013-08-28T07:55:09Z</time>
      </trkpt>
      <trkpt lat="47.41989" lon="-0.61102">
        <ele>11</ele>
        <time>2013-08-28T07:55:10Z</time>
      </trkpt>
      <trkpt lat="47.4198" lon="-0.6111">
        <ele>11</ele>
        <time>2013-08-28T07:55:16Z</time>
      </trkpt>
      <trkpt lat="47.41956" lon="-0.6113">
        <ele>11</ele>
        <time>2013-08-28T07:55:17Z</time>
      </trkpt>
      <trkpt lat="47.41952" lon="-0.61135">
        <ele>11</ele>
        <time>2013-08-28T07:55:18Z</time>
      </trkpt>
      <trkpt lat="47.41943" lon="-0.61142">
        <ele>11</ele>
        <time>2013-08-28T07:55:24Z</time>
      </trkpt>
      <trkpt lat="47.41927" lon="-0.61153">
        <ele>11</ele>
        <time>2013-08-28T07:55:24Z</time>
      </trkpt>
      <trkpt lat="47.41925" lon="-0.61156">
        <ele>11</ele>
        <time>2013-08-28T07:55:25Z</time>
      </trkpt>
      <trkpt lat="47.41922" lon="-0.6116">
        <ele>11</ele>
        <time>2013-08-28T07:55:31Z</time>
      </trkpt>
      <trkpt lat="47.41923" lon="-0.6116">
        <ele>11</ele>
        <time>2013-08-28T07:55:38Z</time>
      </trkpt>
      <trkpt lat="47.41922" lon="-0.6116">
        <ele>11</ele>
        <time>2013-08-28T07:55:46Z</time>
      </trkpt>
      <trkpt lat="47.41921" lon="-0.61158">
        <ele>11</ele>
        <time>2013-08-28T07:55:47Z</time>
      </trkpt>
      <trkpt lat="47.41921" lon="-0.61156">
        <ele>11</ele>
        <time>2013-08-28T07:55:48Z</time>
      </trkpt>
      <trkpt lat="47.41921" lon="-0.61154">
        <ele>11</ele>
        <time>2013-08-28T07:55:49Z</time>
      </trkpt>
      <trkpt lat="47.41922" lon="-0.61151">
        <ele>11</ele>
        <time>2013-08-28T07:55:50Z</time>
      </trkpt>
      <trkpt lat="47.41922" lon="-0.61148">
        <ele>11</ele>
        <time>2013-08-28T07:55:51Z</time>
      </trkpt>
      <trkpt lat="47.41922" lon="-0.61146">
        <ele>11</ele>
        <time>2013-08-28T07:55:52Z</time>
      </trkpt>
      <trkpt lat="47.41922" lon="-0.61143">
        <ele>11</ele>
        <time>2013-08-28T07:55:53Z</time>
      </trkpt>
      <trkpt lat="47.41922" lon="-0.61142">
        <ele>11</ele>
        <time>2013-08-28T07:55:54Z</time>
      </trkpt>
      <trkpt lat="47.41922" lon="-0.6114">
        <ele>11</ele>
        <time>2013-08-28T07:55:56Z</time>
      </trkpt>
      <trkpt lat="47.41927" lon="-0.61151">
        <ele>11</ele>
        <time>2013-08-28T07:56:09Z</time>
      </trkpt>
      <trkpt lat="47.41927" lon="-0.61153">
        <ele>10</ele>
        <time>2013-08-28T07:56:12Z</time>
      </trkpt>
      <trkpt lat="47.41927" lon="-0.61155">
        <ele>10</ele>
        <time>2013-08-28T07:56:13Z</time>
      </trkpt>
      <trkpt lat="47.41927" lon="-0.61157">
        <ele>10</ele>
        <time>2013-08-28T07:56:14Z</time>
      </trkpt>
      <trkpt lat="47.41926" lon="-0.61159">
        <ele>10</ele>
        <time>2013-08-28T07:56:15Z</time>
      </trkpt>
      <trkpt lat="47.41925" lon="-0.6116">
        <ele>10</ele>
        <time>2013-08-28T07:56:16Z</time>
      </trkpt>
      <trkpt lat="47.41924" lon="-0.61162">
        <ele>10</ele>
        <time>2013-08-28T07:56:17Z</time>
      </trkpt>
      <trkpt lat="47.41922" lon="-0.61163">
        <ele>10</ele>
        <time>2013-08-28T07:56:18Z</time>
      </trkpt>
      <trkpt lat="47.41919" lon="-0.61166">
        <ele>10</ele>
        <time>2013-08-28T07:56:19Z</time>
      </trkpt>
      <trkpt lat="47.41916" lon="-0.61168">
        <ele>10</ele>
        <time>2013-08-28T07:56:20Z</time>
      </trkpt>
      <trkpt lat="47.41914" lon="-0.61171">
        <ele>10</ele>
        <time>2013-08-28T07:56:21Z</time>
      </trkpt>
      <trkpt lat="47.41911" lon="-0.61173">
        <ele>10</ele>
        <time>2013-08-28T07:56:22Z</time>
      </trkpt>
      <trkpt lat="47.41907" lon="-0.61176">
        <ele>10</ele>
        <time>2013-08-28T07:56:23Z</time>
      </trkpt>
      <trkpt lat="47.41899" lon="-0.61182">
        <ele>10</ele>
        <time>2013-08-28T07:56:25Z</time>
      </trkpt>
      <trkpt lat="47.41896" lon="-0.61185">
        <ele>10</ele>
        <time>2013-08-28T07:56:26Z</time>
      </trkpt>
      <trkpt lat="47.41891" lon="-0.61189">
        <ele>10</ele>
        <time>2013-08-28T07:56:27Z</time>
      </trkpt>
      <trkpt lat="47.41887" lon="-0.61192">
        <ele>10</ele>
        <time>2013-08-28T07:56:28Z</time>
      </trkpt>
      <trkpt lat="47.41883" lon="-0.61196">
        <ele>10</ele>
        <time>2013-08-28T07:56:29Z</time>
      </trkpt>
      <trkpt lat="47.41879" lon="-0.61199">
        <ele>10</ele>
        <time>2013-08-28T07:56:30Z</time>
      </trkpt>
      <trkpt lat="47.41875" lon="-0.61202">
        <ele>11</ele>
        <time>2013-08-28T07:56:31Z</time>
      </trkpt>
      <trkpt lat="47.41871" lon="-0.61206">
        <ele>12</ele>
        <time>2013-08-28T07:56:32Z</time>
      </trkpt>
      <trkpt lat="47.41867" lon="-0.61209">
        <ele>12</ele>
        <time>2013-08-28T07:56:33Z</time>
      </trkpt>
      <trkpt lat="47.41863" lon="-0.61213">
        <ele>13</ele>
        <time>2013-08-28T07:56:34Z</time>
      </trkpt>
      <trkpt lat="47.41858" lon="-0.61216">
        <ele>14</ele>
        <time>2013-08-28T07:56:35Z</time>
      </trkpt>
      <trkpt lat="47.41853" lon="-0.6122">
        <ele>15</ele>
        <time>2013-08-28T07:56:36Z</time>
      </trkpt>
      <trkpt lat="47.41849" lon="-0.61224">
        <ele>15</ele>
        <time>2013-08-28T07:56:37Z</time>
      </trkpt>
      <trkpt lat="47.41844" lon="-0.61229">
        <ele>16</ele>
        <time>2013-08-28T07:56:38Z</time>
      </trkpt>
      <trkpt lat="47.41839" lon="-0.61233">
        <ele>16</ele>
        <time>2013-08-28T07:56:39Z</time>
      </trkpt>
      <trkpt lat="47.41833" lon="-0.61238">
        <ele>16</ele>
        <time>2013-08-28T07:56:40Z</time>
      </trkpt>
      <trkpt lat="47.41827" lon="-0.61243">
        <ele>17</ele>
        <time>2013-08-28T07:56:41Z</time>
      </trkpt>
      <trkpt lat="47.41822" lon="-0.61247">
        <ele>17</ele>
        <time>2013-08-28T07:56:42Z</time>
      </trkpt>
      <trkpt lat="47.41817" lon="-0.61252">
        <ele>17</ele>
        <time>2013-08-28T07:56:43Z</time>
      </trkpt>
      <trkpt lat="47.41811" lon="-0.61256">
        <ele>17</ele>
        <time>2013-08-28T07:56:44Z</time>
      </trkpt>
      <trkpt lat="47.41806" lon="-0.61261">
        <ele>17</ele>
        <time>2013-08-28T07:56:45Z</time>
      </trkpt>
      <trkpt lat="47.41801" lon="-0.61267">
        <ele>17</ele>
        <time>2013-08-28T07:56:46Z</time>
      </trkpt>
      <trkpt lat="47.41791" lon="-0.61278">
        <ele>17</ele>
        <time>2013-08-28T07:56:52Z</time>
      </trkpt>
      <trkpt lat="47.41768" lon="-0.61311">
        <ele>17</ele>
        <time>2013-08-28T07:56:53Z</time>
      </trkpt>
      <trkpt lat="47.41763" lon="-0.61318">
        <ele>17</ele>
        <time>2013-08-28T07:56:54Z</time>
      </trkpt>
      <trkpt lat="47.41754" lon="-0.61331">
        <ele>17</ele>
        <time>2013-08-28T07:56:59Z</time>
      </trkpt>
      <trkpt lat="47.4174" lon="-0.61359">
        <ele>17</ele>
        <time>2013-08-28T07:57:00Z</time>
      </trkpt>
      <trkpt lat="47.41738" lon="-0.61367">
        <ele>17</ele>
        <time>2013-08-28T07:57:01Z</time>
      </trkpt>
      <trkpt lat="47.41735" lon="-0.61374">
        <ele>17</ele>
        <time>2013-08-28T07:57:02Z</time>
      </trkpt>
      <trkpt lat="47.41729" lon="-0.61389">
        <ele>17</ele>
        <time>2013-08-28T07:57:08Z</time>
      </trkpt>
      <trkpt lat="47.4171" lon="-0.61425">
        <ele>17</ele>
        <time>2013-08-28T07:57:09Z</time>
      </trkpt>
      <trkpt lat="47.41706" lon="-0.61431">
        <ele>17</ele>
        <time>2013-08-28T07:57:10Z</time>
      </trkpt>
      <trkpt lat="47.41699" lon="-0.61444">
        <ele>18</ele>
        <time>2013-08-28T07:57:15Z</time>
      </trkpt>
      <trkpt lat="47.41679" lon="-0.61466">
        <ele>18</ele>
        <time>2013-08-28T07:57:16Z</time>
      </trkpt>
      <trkpt lat="47.41673" lon="-0.6147">
        <ele>18</ele>
        <time>2013-08-28T07:57:17Z</time>
      </trkpt>
      <trkpt lat="47.41668" lon="-0.61475">
        <ele>18</ele>
        <time>2013-08-28T07:57:18Z</time>
      </trkpt>
      <trkpt lat="47.41634" lon="-0.615">
        <ele>18</ele>
        <time>2013-08-28T07:57:24Z</time>
      </trkpt>
      <trkpt lat="47.41629" lon="-0.61504">
        <ele>18</ele>
        <time>2013-08-28T07:57:25Z</time>
      </trkpt>
      <trkpt lat="47.41616" lon="-0.61511">
        <ele>18</ele>
        <time>2013-08-28T07:57:31Z</time>
      </trkpt>
      <trkpt lat="47.41586" lon="-0.61532">
        <ele>18</ele>
        <time>2013-08-28T07:57:32Z</time>
      </trkpt>
      <trkpt lat="47.4158" lon="-0.61537">
        <ele>18</ele>
        <time>2013-08-28T07:57:33Z</time>
      </trkpt>
      <trkpt lat="47.4157" lon="-0.61548">
        <ele>18</ele>
        <time>2013-08-28T07:57:39Z</time>
      </trkpt>
      <trkpt lat="47.4155" lon="-0.61572">
        <ele>18</ele>
        <time>2013-08-28T07:57:39Z</time>
      </trkpt>
      <trkpt lat="47.41545" lon="-0.61577">
        <ele>18</ele>
        <time>2013-08-28T07:57:40Z</time>
      </trkpt>
      <trkpt lat="47.41536" lon="-0.6159">
        <ele>18</ele>
        <time>2013-08-28T07:57:46Z</time>
      </trkpt>
      <trkpt lat="47.41511" lon="-0.61617">
        <ele>18</ele>
        <time>2013-08-28T07:57:47Z</time>
      </trkpt>
      <trkpt lat="47.41505" lon="-0.61621">
        <ele>18</ele>
        <time>2013-08-28T07:57:48Z</time>
      </trkpt>
      <trkpt lat="47.415" lon="-0.61625">
        <ele>18</ele>
        <time>2013-08-28T07:57:49Z</time>
      </trkpt>
      <trkpt lat="47.41491" lon="-0.61629">
        <ele>18</ele>
        <time>2013-08-28T07:57:54Z</time>
      </trkpt>
      <trkpt lat="47.41468" lon="-0.61634">
        <ele>18</ele>
        <time>2013-08-28T07:57:55Z</time>
      </trkpt>
      <trkpt lat="47.41462" lon="-0.61636">
        <ele>18</ele>
        <time>2013-08-28T07:57:56Z</time>
      </trkpt>
      <trkpt lat="47.41451" lon="-0.6164">
        <ele>18</ele>
        <time>2013-08-28T07:58:02Z</time>
      </trkpt>
      <trkpt lat="47.4142" lon="-0.61649">
        <ele>18</ele>
        <time>2013-08-28T07:58:03Z</time>
      </trkpt>
      <trkpt lat="47.41413" lon="-0.61651">
        <ele>18</ele>
        <time>2013-08-28T07:58:04Z</time>
      </trkpt>
      <trkpt lat="47.414" lon="-0.61655">
        <ele>18</ele>
        <time>2013-08-28T07:58:09Z</time>
      </trkpt>
      <trkpt lat="47.41374" lon="-0.61667">
        <ele>18</ele>
        <time>2013-08-28T07:58:10Z</time>
      </trkpt>
      <trkpt lat="47.41368" lon="-0.61671">
        <ele>18</ele>
        <time>2013-08-28T07:58:11Z</time>
      </trkpt>
      <trkpt lat="47.41355" lon="-0.6168">
        <ele>18</ele>
        <time>2013-08-28T07:58:17Z</time>
      </trkpt>
      <trkpt lat="47.41325" lon="-0.61706">
        <ele>18</ele>
        <time>2013-08-28T07:58:18Z</time>
      </trkpt>
      <trkpt lat="47.41319" lon="-0.61712">
        <ele>18</ele>
        <time>2013-08-28T07:58:19Z</time>
      </trkpt>
      <trkpt lat="47.41307" lon="-0.61724">
        <ele>18</ele>
        <time>2013-08-28T07:58:24Z</time>
      </trkpt>
      <trkpt lat="47.41285" lon="-0.61751">
        <ele>18</ele>
        <time>2013-08-28T07:58:25Z</time>
      </trkpt>
      <trkpt lat="47.4128" lon="-0.61757">
        <ele>18</ele>
        <time>2013-08-28T07:58:26Z</time>
      </trkpt>
      <trkpt lat="47.4127" lon="-0.61771">
        <ele>18</ele>
        <time>2013-08-28T07:58:32Z</time>
      </trkpt>
      <trkpt lat="47.41245" lon="-0.61804">
        <ele>18</ele>
        <time>2013-08-28T07:58:33Z</time>
      </trkpt>
      <trkpt lat="47.41239" lon="-0.6181">
        <ele>18</ele>
        <time>2013-08-28T07:58:34Z</time>
      </trkpt>
      <trkpt lat="47.41229" lon="-0.61823">
        <ele>18</ele>
        <time>2013-08-28T07:58:39Z</time>
      </trkpt>
      <trkpt lat="47.41211" lon="-0.61844">
        <ele>18</ele>
        <time>2013-08-28T07:58:40Z</time>
      </trkpt>
      <trkpt lat="47.41206" lon="-0.61848">
        <ele>18</ele>
        <time>2013-08-28T07:58:41Z</time>
      </trkpt>
      <trkpt lat="47.41198" lon="-0.61855">
        <ele>18</ele>
        <time>2013-08-28T07:58:47Z</time>
      </trkpt>
      <trkpt lat="47.41176" lon="-0.61868">
        <ele>18</ele>
        <time>2013-08-28T07:58:48Z</time>
      </trkpt>
      <trkpt lat="47.41172" lon="-0.6187">
        <ele>18</ele>
        <time>2013-08-28T07:58:49Z</time>
      </trkpt>
      <trkpt lat="47.41163" lon="-0.61875">
        <ele>18</ele>
        <time>2013-08-28T07:58:54Z</time>
      </trkpt>
      <trkpt lat="47.41145" lon="-0.61885">
        <ele>18</ele>
        <time>2013-08-28T07:58:55Z</time>
      </trkpt>
      <trkpt lat="47.41141" lon="-0.61888">
        <ele>18</ele>
        <time>2013-08-28T07:58:56Z</time>
      </trkpt>
      <trkpt lat="47.41132" lon="-0.61895">
        <ele>18</ele>
        <time>2013-08-28T07:59:02Z</time>
      </trkpt>
      <trkpt lat="47.41113" lon="-0.61913">
        <ele>18</ele>
        <time>2013-08-28T07:59:03Z</time>
      </trkpt>
      <trkpt lat="47.41109" lon="-0.61917">
        <ele>18</ele>
        <time>2013-08-28T07:59:04Z</time>
      </trkpt>
      <trkpt lat="47.41102" lon="-0.61925">
        <ele>19</ele>
        <time>2013-08-28T07:59:09Z</time>
      </trkpt>
      <trkpt lat="47.41087" lon="-0.61942">
        <ele>19</ele>
        <time>2013-08-28T07:59:10Z</time>
      </trkpt>
      <trkpt lat="47.41083" lon="-0.61946">
        <ele>19</ele>
        <time>2013-08-28T07:59:11Z</time>
      </trkpt>
      <trkpt lat="47.41076" lon="-0.61954">
        <ele>20</ele>
        <time>2013-08-28T07:59:17Z</time>
      </trkpt>
      <trkpt lat="47.41055" lon="-0.61971">
        <ele>20</ele>
        <time>2013-08-28T07:59:18Z</time>
      </trkpt>
      <trkpt lat="47.41051" lon="-0.61975">
        <ele>20</ele>
        <time>2013-08-28T07:59:19Z</time>
      </trkpt>
      <trkpt lat="47.41045" lon="-0.61982">
        <ele>20</ele>
        <time>2013-08-28T07:59:24Z</time>
      </trkpt>
      <trkpt lat="47.41026" lon="-0.61995">
        <ele>20</ele>
        <time>2013-08-28T07:59:25Z</time>
      </trkpt>
      <trkpt lat="47.41021" lon="-0.61998">
        <ele>20</ele>
        <time>2013-08-28T07:59:26Z</time>
      </trkpt>
      <trkpt lat="47.41011" lon="-0.62005">
        <ele>20</ele>
        <time>2013-08-28T07:59:32Z</time>
      </trkpt>
      <trkpt lat="47.40988" lon="-0.62021">
        <ele>21</ele>
        <time>2013-08-28T07:59:33Z</time>
      </trkpt>
      <trkpt lat="47.40983" lon="-0.62024">
        <ele>21</ele>
        <time>2013-08-28T07:59:34Z</time>
      </trkpt>
      <trkpt lat="47.40974" lon="-0.62029">
        <ele>21</ele>
        <time>2013-08-28T07:59:39Z</time>
      </trkpt>
      <trkpt lat="47.40956" lon="-0.62041">
        <ele>21</ele>
        <time>2013-08-28T07:59:40Z</time>
      </trkpt>
      <trkpt lat="47.40953" lon="-0.62046">
        <ele>21</ele>
        <time>2013-08-28T07:59:41Z</time>
      </trkpt>
      <trkpt lat="47.40951" lon="-0.62052">
        <ele>21</ele>
        <time>2013-08-28T07:59:42Z</time>
      </trkpt>
      <trkpt lat="47.40949" lon="-0.62059">
        <ele>21</ele>
        <time>2013-08-28T07:59:43Z</time>
      </trkpt>
      <trkpt lat="47.40947" lon="-0.62074">
        <ele>21</ele>
        <time>2013-08-28T07:59:49Z</time>
      </trkpt>
      <trkpt lat="47.40956" lon="-0.62115">
        <ele>22</ele>
        <time>2013-08-28T07:59:50Z</time>
      </trkpt>
      <trkpt lat="47.40958" lon="-0.62122">
        <ele>22</ele>
        <time>2013-08-28T07:59:51Z</time>
      </trkpt>
      <trkpt lat="47.4096" lon="-0.6213">
        <ele>23</ele>
        <time>2013-08-28T07:59:52Z</time>
      </trkpt>
      <trkpt lat="47.40972" lon="-0.62175">
        <ele>24</ele>
        <time>2013-08-28T07:59:58Z</time>
      </trkpt>
      <trkpt lat="47.40974" lon="-0.62182">
        <ele>25</ele>
        <time>2013-08-28T07:59:59Z</time>
      </trkpt>
      <trkpt lat="47.40977" lon="-0.6219">
        <ele>26</ele>
        <time>2013-08-28T08:00:00Z</time>
      </trkpt>
      <trkpt lat="47.40982" lon="-0.62205">
        <ele>26</ele>
        <time>2013-08-28T08:00:05Z</time>
      </trkpt>
      <trkpt lat="47.40993" lon="-0.62234">
        <ele>26</ele>
        <time>2013-08-28T08:00:06Z</time>
      </trkpt>
      <trkpt lat="47.40996" lon="-0.62242">
        <ele>27</ele>
        <time>2013-08-28T08:00:07Z</time>
      </trkpt>
      <trkpt lat="47.41003" lon="-0.62256">
        <ele>27</ele>
        <time>2013-08-28T08:00:13Z</time>
      </trkpt>
      <trkpt lat="47.41016" lon="-0.62293">
        <ele>27</ele>
        <time>2013-08-28T08:00:14Z</time>
      </trkpt>
      <trkpt lat="47.41019" lon="-0.623">
        <ele>27</ele>
        <time>2013-08-28T08:00:15Z</time>
      </trkpt>
      <trkpt lat="47.41023" lon="-0.62317">
        <ele>27</ele>
        <time>2013-08-28T08:00:20Z</time>
      </trkpt>
      <trkpt lat="47.4103" lon="-0.62353">
        <ele>27</ele>
        <time>2013-08-28T08:00:21Z</time>
      </trkpt>
      <trkpt lat="47.41031" lon="-0.62363">
        <ele>28</ele>
        <time>2013-08-28T08:00:22Z</time>
      </trkpt>
      <trkpt lat="47.41032" lon="-0.62372">
        <ele>28</ele>
        <time>2013-08-28T08:00:23Z</time>
      </trkpt>
      <trkpt lat="47.41031" lon="-0.62431">
        <ele>28</ele>
        <time>2013-08-28T08:00:29Z</time>
      </trkpt>
      <trkpt lat="47.4103" lon="-0.62441">
        <ele>28</ele>
        <time>2013-08-28T08:00:30Z</time>
      </trkpt>
      <trkpt lat="47.41029" lon="-0.62451">
        <ele>28</ele>
        <time>2013-08-28T08:00:31Z</time>
      </trkpt>
      <trkpt lat="47.41025" lon="-0.62469">
        <ele>28</ele>
        <time>2013-08-28T08:00:36Z</time>
      </trkpt>
      <trkpt lat="47.41015" lon="-0.62504">
        <ele>28</ele>
        <time>2013-08-28T08:00:37Z</time>
      </trkpt>
      <trkpt lat="47.41012" lon="-0.62512">
        <ele>28</ele>
        <time>2013-08-28T08:00:38Z</time>
      </trkpt>
      <trkpt lat="47.41006" lon="-0.62528">
        <ele>28</ele>
        <time>2013-08-28T08:00:44Z</time>
      </trkpt>
      <trkpt lat="47.40987" lon="-0.62561">
        <ele>28</ele>
        <time>2013-08-28T08:00:45Z</time>
      </trkpt>
      <trkpt lat="47.40983" lon="-0.62568">
        <ele>28</ele>
        <time>2013-08-28T08:00:46Z</time>
      </trkpt>
      <trkpt lat="47.40974" lon="-0.6258">
        <ele>28</ele>
        <time>2013-08-28T08:00:52Z</time>
      </trkpt>
      <trkpt lat="47.40958" lon="-0.62604">
        <ele>28</ele>
        <time>2013-08-28T08:00:52Z</time>
      </trkpt>
      <trkpt lat="47.40954" lon="-0.62611">
        <ele>28</ele>
        <time>2013-08-28T08:00:53Z</time>
      </trkpt>
      <trkpt lat="47.40948" lon="-0.62626">
        <ele>28</ele>
        <time>2013-08-28T08:00:59Z</time>
      </trkpt>
      <trkpt lat="47.40946" lon="-0.62669">
        <ele>28</ele>
        <time>2013-08-28T08:01:00Z</time>
      </trkpt>
      <trkpt lat="47.40944" lon="-0.62677">
        <ele>28</ele>
        <time>2013-08-28T08:01:01Z</time>
      </trkpt>
      <trkpt lat="47.4094" lon="-0.62682">
        <ele>28</ele>
        <time>2013-08-28T08:01:02Z</time>
      </trkpt>
      <trkpt lat="47.40935" lon="-0.62687">
        <ele>28</ele>
        <time>2013-08-28T08:01:03Z</time>
      </trkpt>
      <trkpt lat="47.40929" lon="-0.62689">
        <ele>28</ele>
        <time>2013-08-28T08:01:04Z</time>
      </trkpt>
      <trkpt lat="47.40918" lon="-0.62685">
        <ele>28</ele>
        <time>2013-08-28T08:01:10Z</time>
      </trkpt>
      <trkpt lat="47.40895" lon="-0.62653">
        <ele>28</ele>
        <time>2013-08-28T08:01:11Z</time>
      </trkpt>
      <trkpt lat="47.40889" lon="-0.62648">
        <ele>28</ele>
        <time>2013-08-28T08:01:12Z</time>
      </trkpt>
      <trkpt lat="47.40876" lon="-0.62642">
        <ele>28</ele>
        <time>2013-08-28T08:01:18Z</time>
      </trkpt>
      <trkpt lat="47.40842" lon="-0.62628">
        <ele>28</ele>
        <time>2013-08-28T08:01:19Z</time>
      </trkpt>
      <trkpt lat="47.40835" lon="-0.62625">
        <ele>28</ele>
        <time>2013-08-28T08:01:20Z</time>
      </trkpt>
      <trkpt lat="47.40789" lon="-0.62603">
        <ele>28</ele>
        <time>2013-08-28T08:01:26Z</time>
      </trkpt>
      <trkpt lat="47.40781" lon="-0.62598">
        <ele>28</ele>
        <time>2013-08-28T08:01:27Z</time>
      </trkpt>
      <trkpt lat="47.40764" lon="-0.62584">
        <ele>28</ele>
        <time>2013-08-28T08:01:33Z</time>
      </trkpt>
      <trkpt lat="47.40727" lon="-0.62537">
        <ele>28</ele>
        <time>2013-08-28T08:01:34Z</time>
      </trkpt>
      <trkpt lat="47.4072" lon="-0.62526">
        <ele>28</ele>
        <time>2013-08-28T08:01:35Z</time>
      </trkpt>
      <trkpt lat="47.40715" lon="-0.62515">
        <ele>28</ele>
        <time>2013-08-28T08:01:36Z</time>
      </trkpt>
      <trkpt lat="47.40704" lon="-0.62492">
        <ele>28</ele>
        <time>2013-08-28T08:01:42Z</time>
      </trkpt>
      <trkpt lat="47.40673" lon="-0.62431">
        <ele>27</ele>
        <time>2013-08-28T08:01:43Z</time>
      </trkpt>
      <trkpt lat="47.40667" lon="-0.6242">
        <ele>26</ele>
        <time>2013-08-28T08:01:44Z</time>
      </trkpt>
      <trkpt lat="47.40618" lon="-0.62367">
        <ele>25</ele>
        <time>2013-08-28T08:01:50Z</time>
      </trkpt>
      <trkpt lat="47.40609" lon="-0.62362">
        <ele>24</ele>
        <time>2013-08-28T08:01:51Z</time>
      </trkpt>
      <trkpt lat="47.406" lon="-0.62358">
        <ele>23</ele>
        <time>2013-08-28T08:01:52Z</time>
      </trkpt>
      <trkpt lat="47.4058" lon="-0.62358">
        <ele>22</ele>
        <time>2013-08-28T08:01:58Z</time>
      </trkpt>
      <trkpt lat="47.40544" lon="-0.62394">
        <ele>21</ele>
        <time>2013-08-28T08:01:59Z</time>
      </trkpt>
      <trkpt lat="47.4054" lon="-0.62403">
        <ele>20</ele>
        <time>2013-08-28T08:02:00Z</time>
      </trkpt>
      <trkpt lat="47.40536" lon="-0.62412">
        <ele>19</ele>
        <time>2013-08-28T08:02:01Z</time>
      </trkpt>
      <trkpt lat="47.40517" lon="-0.62468">
        <ele>18</ele>
        <time>2013-08-28T08:02:07Z</time>
      </trkpt>
      <trkpt lat="47.40514" lon="-0.62477">
        <ele>17</ele>
        <time>2013-08-28T08:02:08Z</time>
      </trkpt>
      <trkpt lat="47.40509" lon="-0.62496">
        <ele>16</ele>
        <time>2013-08-28T08:02:14Z</time>
      </trkpt>
      <trkpt lat="47.40497" lon="-0.62543">
        <ele>16</ele>
        <time>2013-08-28T08:02:15Z</time>
      </trkpt>
      <trkpt lat="47.40495" lon="-0.62552">
        <ele>16</ele>
        <time>2013-08-28T08:02:16Z</time>
      </trkpt>
      <trkpt lat="47.40488" lon="-0.62609">
        <ele>16</ele>
        <time>2013-08-28T08:02:22Z</time>
      </trkpt>
      <trkpt lat="47.40487" lon="-0.62619">
        <ele>16</ele>
        <time>2013-08-28T08:02:23Z</time>
      </trkpt>
      <trkpt lat="47.40486" lon="-0.62629">
        <ele>16</ele>
        <time>2013-08-28T08:02:24Z</time>
      </trkpt>
      <trkpt lat="47.40485" lon="-0.62648">
        <ele>16</ele>
        <time>2013-08-28T08:02:30Z</time>
      </trkpt>
      <trkpt lat="47.40484" lon="-0.62687">
        <ele>16</ele>
        <time>2013-08-28T08:02:30Z</time>
      </trkpt>
      <trkpt lat="47.40484" lon="-0.62696">
        <ele>16</ele>
        <time>2013-08-28T08:02:31Z</time>
      </trkpt>
      <trkpt lat="47.40482" lon="-0.62715">
        <ele>16</ele>
        <time>2013-08-28T08:02:37Z</time>
      </trkpt>
      <trkpt lat="47.40475" lon="-0.6276">
        <ele>16</ele>
        <time>2013-08-28T08:02:38Z</time>
      </trkpt>
      <trkpt lat="47.40474" lon="-0.62768">
        <ele>16</ele>
        <time>2013-08-28T08:02:39Z</time>
      </trkpt>
      <trkpt lat="47.40455" lon="-0.62808">
        <ele>16</ele>
        <time>2013-08-28T08:02:45Z</time>
      </trkpt>
      <trkpt lat="47.40452" lon="-0.62814">
        <ele>16</ele>
        <time>2013-08-28T08:02:46Z</time>
      </trkpt>
      <trkpt lat="47.40448" lon="-0.6282">
        <ele>16</ele>
        <time>2013-08-28T08:02:47Z</time>
      </trkpt>
      <trkpt lat="47.4044" lon="-0.62831">
        <ele>16</ele>
        <time>2013-08-28T08:02:53Z</time>
      </trkpt>
      <trkpt lat="47.40418" lon="-0.62859">
        <ele>16</ele>
        <time>2013-08-28T08:02:54Z</time>
      </trkpt>
      <trkpt lat="47.40414" lon="-0.62865">
        <ele>16</ele>
        <time>2013-08-28T08:02:55Z</time>
      </trkpt>
      <trkpt lat="47.40405" lon="-0.62877">
        <ele>16</ele>
        <time>2013-08-28T08:03:01Z</time>
      </trkpt>
      <trkpt lat="47.40391" lon="-0.629">
        <ele>16</ele>
        <time>2013-08-28T08:03:01Z</time>
      </trkpt>
      <trkpt lat="47.40389" lon="-0.62906">
        <ele>17</ele>
        <time>2013-08-28T08:03:02Z</time>
      </trkpt>
      <trkpt lat="47.40386" lon="-0.62918">
        <ele>18</ele>
        <time>2013-08-28T08:03:08Z</time>
      </trkpt>
      <trkpt lat="47.40375" lon="-0.62946">
        <ele>19</ele>
        <time>2013-08-28T08:03:09Z</time>
      </trkpt>
      <trkpt lat="47.40372" lon="-0.62953">
        <ele>20</ele>
        <time>2013-08-28T08:03:10Z</time>
      </trkpt>
      <trkpt lat="47.40367" lon="-0.62964">
        <ele>21</ele>
        <time>2013-08-28T08:03:16Z</time>
      </trkpt>
      <trkpt lat="47.40352" lon="-0.62991">
        <ele>22</ele>
        <time>2013-08-28T08:03:17Z</time>
      </trkpt>
      <trkpt lat="47.40348" lon="-0.62996">
        <ele>23</ele>
        <time>2013-08-28T08:03:18Z</time>
      </trkpt>
      <trkpt lat="47.40343" lon="-0.63008">
        <ele>24</ele>
        <time>2013-08-28T08:03:24Z</time>
      </trkpt>
      <trkpt lat="47.40333" lon="-0.63034">
        <ele>25</ele>
        <time>2013-08-28T08:03:24Z</time>
      </trkpt>
      <trkpt lat="47.4033" lon="-0.6304">
        <ele>26</ele>
        <time>2013-08-28T08:03:25Z</time>
      </trkpt>
      <trkpt lat="47.40324" lon="-0.63053">
        <ele>27</ele>
        <time>2013-08-28T08:03:31Z</time>
      </trkpt>
      <trkpt lat="47.40308" lon="-0.63082">
        <ele>28</ele>
        <time>2013-08-28T08:03:32Z</time>
      </trkpt>
      <trkpt lat="47.40306" lon="-0.63089">
        <ele>29</ele>
        <time>2013-08-28T08:03:33Z</time>
      </trkpt>
      <trkpt lat="47.40301" lon="-0.63103">
        <ele>30</ele>
        <time>2013-08-28T08:03:39Z</time>
      </trkpt>
      <trkpt lat="47.40291" lon="-0.63139">
        <ele>31</ele>
        <time>2013-08-28T08:03:40Z</time>
      </trkpt>
      <trkpt lat="47.40288" lon="-0.63146">
        <ele>32</ele>
        <time>2013-08-28T08:03:41Z</time>
      </trkpt>
      <trkpt lat="47.40283" lon="-0.6316">
        <ele>33</ele>
        <time>2013-08-28T08:03:47Z</time>
      </trkpt>
      <trkpt lat="47.40272" lon="-0.63189">
        <ele>34</ele>
        <time>2013-08-28T08:03:47Z</time>
      </trkpt>
      <trkpt lat="47.4027" lon="-0.63196">
        <ele>35</ele>
        <time>2013-08-28T08:03:48Z</time>
      </trkpt>
      <trkpt lat="47.40265" lon="-0.6321">
        <ele>36</ele>
        <time>2013-08-28T08:03:54Z</time>
      </trkpt>
      <trkpt lat="47.40255" lon="-0.63246">
        <ele>36</ele>
        <time>2013-08-28T08:03:55Z</time>
      </trkpt>
      <trkpt lat="47.40252" lon="-0.63254">
        <ele>36</ele>
        <time>2013-08-28T08:03:56Z</time>
      </trkpt>
      <trkpt lat="47.40248" lon="-0.63269">
        <ele>36</ele>
        <time>2013-08-28T08:04:02Z</time>
      </trkpt>
      <trkpt lat="47.40234" lon="-0.63304">
        <ele>36</ele>
        <time>2013-08-28T08:04:03Z</time>
      </trkpt>
      <trkpt lat="47.40231" lon="-0.63311">
        <ele>36</ele>
        <time>2013-08-28T08:04:04Z</time>
      </trkpt>
      <trkpt lat="47.40226" lon="-0.63326">
        <ele>36</ele>
        <time>2013-08-28T08:04:10Z</time>
      </trkpt>
      <trkpt lat="47.40219" lon="-0.63353">
        <ele>36</ele>
        <time>2013-08-28T08:04:10Z</time>
      </trkpt>
      <trkpt lat="47.40216" lon="-0.6336">
        <ele>35</ele>
        <time>2013-08-28T08:04:11Z</time>
      </trkpt>
      <trkpt lat="47.40213" lon="-0.63373">
        <ele>35</ele>
        <time>2013-08-28T08:04:17Z</time>
      </trkpt>
      <trkpt lat="47.40203" lon="-0.63409">
        <ele>35</ele>
        <time>2013-08-28T08:04:18Z</time>
      </trkpt>
      <trkpt lat="47.40201" lon="-0.63416">
        <ele>35</ele>
        <time>2013-08-28T08:04:19Z</time>
      </trkpt>
      <trkpt lat="47.40198" lon="-0.63429">
        <ele>35</ele>
        <time>2013-08-28T08:04:25Z</time>
      </trkpt>
      <trkpt lat="47.40187" lon="-0.63455">
        <ele>35</ele>
        <time>2013-08-28T08:04:26Z</time>
      </trkpt>
      <trkpt lat="47.40185" lon="-0.63461">
        <ele>35</ele>
        <time>2013-08-28T08:04:27Z</time>
      </trkpt>
      <trkpt lat="47.4018" lon="-0.63469">
        <ele>35</ele>
        <time>2013-08-28T08:04:33Z</time>
      </trkpt>
      <trkpt lat="47.40166" lon="-0.63488">
        <ele>35</ele>
        <time>2013-08-28T08:04:33Z</time>
      </trkpt>
      <trkpt lat="47.40162" lon="-0.63493">
        <ele>35</ele>
        <time>2013-08-28T08:04:34Z</time>
      </trkpt>
      <trkpt lat="47.40153" lon="-0.63501">
        <ele>35</ele>
        <time>2013-08-28T08:04:40Z</time>
      </trkpt>
      <trkpt lat="47.40133" lon="-0.63521">
        <ele>35</ele>
        <time>2013-08-28T08:04:41Z</time>
      </trkpt>
      <trkpt lat="47.40129" lon="-0.63525">
        <ele>35</ele>
        <time>2013-08-28T08:04:42Z</time>
      </trkpt>
      <trkpt lat="47.40121" lon="-0.63534">
        <ele>36</ele>
        <time>2013-08-28T08:04:48Z</time>
      </trkpt>
      <trkpt lat="47.40101" lon="-0.63553">
        <ele>37</ele>
        <time>2013-08-28T08:04:49Z</time>
      </trkpt>
      <trkpt lat="47.40097" lon="-0.63557">
        <ele>37</ele>
        <time>2013-08-28T08:04:50Z</time>
      </trkpt>
      <trkpt lat="47.40089" lon="-0.63564">
        <ele>37</ele>
        <time>2013-08-28T08:04:56Z</time>
      </trkpt>
      <trkpt lat="47.40074" lon="-0.63579">
        <ele>38</ele>
        <time>2013-08-28T08:04:56Z</time>
      </trkpt>
      <trkpt lat="47.40071" lon="-0.63583">
        <ele>38</ele>
        <time>2013-08-28T08:04:57Z</time>
      </trkpt>
      <trkpt lat="47.40063" lon="-0.6359">
        <ele>38</ele>
        <time>2013-08-28T08:05:03Z</time>
      </trkpt>
      <trkpt lat="47.40044" lon="-0.63608">
        <ele>39</ele>
        <time>2013-08-28T08:05:04Z</time>
      </trkpt>
      <trkpt lat="47.40039" lon="-0.63611">
        <ele>40</ele>
        <time>2013-08-28T08:05:05Z</time>
      </trkpt>
      <trkpt lat="47.4003" lon="-0.63617">
        <ele>40</ele>
        <time>2013-08-28T08:05:11Z</time>
      </trkpt>
      <trkpt lat="47.40004" lon="-0.63623">
        <ele>41</ele>
        <time>2013-08-28T08:05:12Z</time>
      </trkpt>
      <trkpt lat="47.39999" lon="-0.63622">
        <ele>42</ele>
        <time>2013-08-28T08:05:13Z</time>
      </trkpt>
      <trkpt lat="47.39994" lon="-0.6362">
        <ele>42</ele>
        <time>2013-08-28T08:05:14Z</time>
      </trkpt>
      <trkpt lat="47.3997" lon="-0.63596">
        <ele>43</ele>
        <time>2013-08-28T08:05:20Z</time>
      </trkpt>
      <trkpt lat="47.39966" lon="-0.63591">
        <ele>43</ele>
        <time>2013-08-28T08:05:21Z</time>
      </trkpt>
      <trkpt lat="47.39962" lon="-0.63586">
        <ele>44</ele>
        <time>2013-08-28T08:05:22Z</time>
      </trkpt>
      <trkpt lat="47.39955" lon="-0.63576">
        <ele>45</ele>
        <time>2013-08-28T08:05:28Z</time>
      </trkpt>
      <trkpt lat="47.39936" lon="-0.63551">
        <ele>46</ele>
        <time>2013-08-28T08:05:29Z</time>
      </trkpt>
      <trkpt lat="47.39932" lon="-0.63547">
        <ele>47</ele>
        <time>2013-08-28T08:05:30Z</time>
      </trkpt>
      <trkpt lat="47.39925" lon="-0.63538">
        <ele>47</ele>
        <time>2013-08-28T08:05:36Z</time>
      </trkpt>
      <trkpt lat="47.39909" lon="-0.63517">
        <ele>48</ele>
        <time>2013-08-28T08:05:37Z</time>
      </trkpt>
      <trkpt lat="47.39904" lon="-0.63512">
        <ele>49</ele>
        <time>2013-08-28T08:05:38Z</time>
      </trkpt>
      <trkpt lat="47.39876" lon="-0.63487">
        <ele>50</ele>
        <time>2013-08-28T08:05:44Z</time>
      </trkpt>
      <trkpt lat="47.3987" lon="-0.63483">
        <ele>51</ele>
        <time>2013-08-28T08:05:45Z</time>
      </trkpt>
      <trkpt lat="47.39863" lon="-0.63478">
        <ele>52</ele>
        <time>2013-08-28T08:05:46Z</time>
      </trkpt>
      <trkpt lat="47.39854" lon="-0.63469">
        <ele>53</ele>
        <time>2013-08-28T08:05:52Z</time>
      </trkpt>
      <trkpt lat="47.39835" lon="-0.63447">
        <ele>54</ele>
        <time>2013-08-28T08:05:53Z</time>
      </trkpt>
      <trkpt lat="47.39831" lon="-0.63443">
        <ele>54</ele>
        <time>2013-08-28T08:05:54Z</time>
      </trkpt>
      <trkpt lat="47.39801" lon="-0.63431">
        <ele>54</ele>
        <time>2013-08-28T08:06:00Z</time>
      </trkpt>
      <trkpt lat="47.39795" lon="-0.63429">
        <ele>54</ele>
        <time>2013-08-28T08:06:01Z</time>
      </trkpt>
      <trkpt lat="47.3979" lon="-0.63428">
        <ele>54</ele>
        <time>2013-08-28T08:06:02Z</time>
      </trkpt>
      <trkpt lat="47.39784" lon="-0.6343">
        <ele>54</ele>
        <time>2013-08-28T08:06:03Z</time>
      </trkpt>
      <trkpt lat="47.39778" lon="-0.63433">
        <ele>53</ele>
        <time>2013-08-28T08:06:04Z</time>
      </trkpt>
      <trkpt lat="47.39767" lon="-0.63444">
        <ele>52</ele>
        <time>2013-08-28T08:06:11Z</time>
      </trkpt>
      <trkpt lat="47.39743" lon="-0.6348">
        <ele>52</ele>
        <time>2013-08-28T08:06:12Z</time>
      </trkpt>
      <trkpt lat="47.39739" lon="-0.63486">
        <ele>52</ele>
        <time>2013-08-28T08:06:13Z</time>
      </trkpt>
      <trkpt lat="47.39734" lon="-0.63498">
        <ele>52</ele>
        <time>2013-08-28T08:06:19Z</time>
      </trkpt>
      <trkpt lat="47.39721" lon="-0.63529">
        <ele>52</ele>
        <time>2013-08-28T08:06:20Z</time>
      </trkpt>
      <trkpt lat="47.39719" lon="-0.63537">
        <ele>52</ele>
        <time>2013-08-28T08:06:21Z</time>
      </trkpt>
      <trkpt lat="47.39705" lon="-0.63576">
        <ele>52</ele>
        <time>2013-08-28T08:06:27Z</time>
      </trkpt>
      <trkpt lat="47.39703" lon="-0.63583">
        <ele>52</ele>
        <time>2013-08-28T08:06:28Z</time>
      </trkpt>
      <trkpt lat="47.39698" lon="-0.63597">
        <ele>52</ele>
        <time>2013-08-28T08:06:34Z</time>
      </trkpt>
      <trkpt lat="47.39683" lon="-0.63632">
        <ele>52</ele>
        <time>2013-08-28T08:06:35Z</time>
      </trkpt>
      <trkpt lat="47.3968" lon="-0.63639">
        <ele>52</ele>
        <time>2013-08-28T08:06:36Z</time>
      </trkpt>
      <trkpt lat="47.39675" lon="-0.63652">
        <ele>52</ele>
        <time>2013-08-28T08:06:42Z</time>
      </trkpt>
      <trkpt lat="47.39662" lon="-0.63687">
        <ele>52</ele>
        <time>2013-08-28T08:06:43Z</time>
      </trkpt>
      <trkpt lat="47.3966" lon="-0.63694">
        <ele>52</ele>
        <time>2013-08-28T08:06:44Z</time>
      </trkpt>
      <trkpt lat="47.3965" lon="-0.63734">
        <ele>52</ele>
        <time>2013-08-28T08:06:50Z</time>
      </trkpt>
      <trkpt lat="47.39648" lon="-0.6374">
        <ele>52</ele>
        <time>2013-08-28T08:06:51Z</time>
      </trkpt>
      <trkpt lat="47.39642" lon="-0.63753">
        <ele>53</ele>
        <time>2013-08-28T08:06:57Z</time>
      </trkpt>
      <trkpt lat="47.39627" lon="-0.63786">
        <ele>54</ele>
        <time>2013-08-28T08:06:58Z</time>
      </trkpt>
      <trkpt lat="47.39623" lon="-0.63792">
        <ele>55</ele>
        <time>2013-08-28T08:06:59Z</time>
      </trkpt>
      <trkpt lat="47.39616" lon="-0.63806">
        <ele>56</ele>
        <time>2013-08-28T08:07:05Z</time>
      </trkpt>
      <trkpt lat="47.396" lon="-0.6384">
        <ele>56</ele>
        <time>2013-08-28T08:07:06Z</time>
      </trkpt>
      <trkpt lat="47.39597" lon="-0.63846">
        <ele>56</ele>
        <time>2013-08-28T08:07:07Z</time>
      </trkpt>
      <trkpt lat="47.39592" lon="-0.6386">
        <ele>56</ele>
        <time>2013-08-28T08:07:13Z</time>
      </trkpt>
      <trkpt lat="47.39582" lon="-0.63898">
        <ele>56</ele>
        <time>2013-08-28T08:07:14Z</time>
      </trkpt>
      <trkpt lat="47.39581" lon="-0.63906">
        <ele>56</ele>
        <time>2013-08-28T08:07:15Z</time>
      </trkpt>
      <trkpt lat="47.39581" lon="-0.63914">
        <ele>56</ele>
        <time>2013-08-28T08:07:16Z</time>
      </trkpt>
      <trkpt lat="47.39592" lon="-0.63968">
        <ele>56</ele>
        <time>2013-08-28T08:07:22Z</time>
      </trkpt>
      <trkpt lat="47.39595" lon="-0.63977">
        <ele>56</ele>
        <time>2013-08-28T08:07:23Z</time>
      </trkpt>
      <trkpt lat="47.39597" lon="-0.63986">
        <ele>56</ele>
        <time>2013-08-28T08:07:24Z</time>
      </trkpt>
      <trkpt lat="47.39602" lon="-0.64005">
        <ele>56</ele>
        <time>2013-08-28T08:07:30Z</time>
      </trkpt>
      <trkpt lat="47.39614" lon="-0.64052">
        <ele>56</ele>
        <time>2013-08-28T08:07:31Z</time>
      </trkpt>
      <trkpt lat="47.39616" lon="-0.64061">
        <ele>56</ele>
        <time>2013-08-28T08:07:32Z</time>
      </trkpt>
      <trkpt lat="47.39619" lon="-0.64118">
        <ele>56</ele>
        <time>2013-08-28T08:07:38Z</time>
      </trkpt>
      <trkpt lat="47.39617" lon="-0.64128">
        <ele>56</ele>
        <time>2013-08-28T08:07:39Z</time>
      </trkpt>
      <trkpt lat="47.39615" lon="-0.64136">
        <ele>56</ele>
        <time>2013-08-28T08:07:40Z</time>
      </trkpt>
      <trkpt lat="47.3961" lon="-0.64154">
        <ele>56</ele>
        <time>2013-08-28T08:07:46Z</time>
      </trkpt>
      <trkpt lat="47.39601" lon="-0.64201">
        <ele>56</ele>
        <time>2013-08-28T08:07:47Z</time>
      </trkpt>
      <trkpt lat="47.39601" lon="-0.64211">
        <ele>56</ele>
        <time>2013-08-28T08:07:48Z</time>
      </trkpt>
      <trkpt lat="47.39601" lon="-0.64232">
        <ele>56</ele>
        <time>2013-08-28T08:07:54Z</time>
      </trkpt>
      <trkpt lat="47.39608" lon="-0.64286">
        <ele>56</ele>
        <time>2013-08-28T08:07:55Z</time>
      </trkpt>
      <trkpt lat="47.3961" lon="-0.64297">
        <ele>56</ele>
        <time>2013-08-28T08:07:56Z</time>
      </trkpt>
      <trkpt lat="47.39611" lon="-0.6432">
        <ele>56</ele>
        <time>2013-08-28T08:08:01Z</time>
      </trkpt>
      <trkpt lat="47.39612" lon="-0.64367">
        <ele>56</ele>
        <time>2013-08-28T08:08:02Z</time>
      </trkpt>
      <trkpt lat="47.3961" lon="-0.64378">
        <ele>55</ele>
        <time>2013-08-28T08:08:03Z</time>
      </trkpt>
      <trkpt lat="47.39608" lon="-0.6439">
        <ele>54</ele>
        <time>2013-08-28T08:08:04Z</time>
      </trkpt>
      <trkpt lat="47.39601" lon="-0.64411">
        <ele>54</ele>
        <time>2013-08-28T08:08:09Z</time>
      </trkpt>
      <trkpt lat="47.39582" lon="-0.64435">
        <ele>53</ele>
        <time>2013-08-28T08:08:09Z</time>
      </trkpt>
      <trkpt lat="47.39574" lon="-0.64441">
        <ele>52</ele>
        <time>2013-08-28T08:08:10Z</time>
      </trkpt>
      <trkpt lat="47.39565" lon="-0.64445">
        <ele>52</ele>
        <time>2013-08-28T08:08:11Z</time>
      </trkpt>
      <trkpt lat="47.39545" lon="-0.64451">
        <ele>51</ele>
        <time>2013-08-28T08:08:15Z</time>
      </trkpt>
      <trkpt lat="47.39516" lon="-0.6446">
        <ele>51</ele>
        <time>2013-08-28T08:08:16Z</time>
      </trkpt>
      <trkpt lat="47.39507" lon="-0.64465">
        <ele>50</ele>
        <time>2013-08-28T08:08:17Z</time>
      </trkpt>
      <trkpt lat="47.39471" lon="-0.64492">
        <ele>50</ele>
        <time>2013-08-28T08:08:22Z</time>
      </trkpt>
      <trkpt lat="47.39465" lon="-0.64497">
        <ele>50</ele>
        <time>2013-08-28T08:08:23Z</time>
      </trkpt>
      <trkpt lat="47.39459" lon="-0.64502">
        <ele>50</ele>
        <time>2013-08-28T08:08:24Z</time>
      </trkpt>
      <trkpt lat="47.39448" lon="-0.64512">
        <ele>50</ele>
        <time>2013-08-28T08:08:28Z</time>
      </trkpt>
      <trkpt lat="47.39433" lon="-0.64526">
        <ele>50</ele>
        <time>2013-08-28T08:08:29Z</time>
      </trkpt>
      <trkpt lat="47.39428" lon="-0.64531">
        <ele>50</ele>
        <time>2013-08-28T08:08:30Z</time>
      </trkpt>
      <trkpt lat="47.39407" lon="-0.64555">
        <ele>50</ele>
        <time>2013-08-28T08:08:35Z</time>
      </trkpt>
      <trkpt lat="47.39404" lon="-0.64561">
        <ele>50</ele>
        <time>2013-08-28T08:08:36Z</time>
      </trkpt>
      <trkpt lat="47.394" lon="-0.64567">
        <ele>50</ele>
        <time>2013-08-28T08:08:37Z</time>
      </trkpt>
      <trkpt lat="47.39393" lon="-0.6458">
        <ele>51</ele>
        <time>2013-08-28T08:08:41Z</time>
      </trkpt>
      <trkpt lat="47.39382" lon="-0.64598">
        <ele>52</ele>
        <time>2013-08-28T08:08:42Z</time>
      </trkpt>
      <trkpt lat="47.39378" lon="-0.64604">
        <ele>53</ele>
        <time>2013-08-28T08:08:43Z</time>
      </trkpt>
      <trkpt lat="47.3936" lon="-0.64635">
        <ele>53</ele>
        <time>2013-08-28T08:08:48Z</time>
      </trkpt>
      <trkpt lat="47.39356" lon="-0.64642">
        <ele>54</ele>
        <time>2013-08-28T08:08:49Z</time>
      </trkpt>
      <trkpt lat="47.39352" lon="-0.64649">
        <ele>54</ele>
        <time>2013-08-28T08:08:50Z</time>
      </trkpt>
      <trkpt lat="47.39343" lon="-0.64662">
        <ele>54</ele>
        <time>2013-08-28T08:08:54Z</time>
      </trkpt>
      <trkpt lat="47.39331" lon="-0.64685">
        <ele>54</ele>
        <time>2013-08-28T08:08:55Z</time>
      </trkpt>
      <trkpt lat="47.39326" lon="-0.64692">
        <ele>54</ele>
        <time>2013-08-28T08:08:56Z</time>
      </trkpt>
      <trkpt lat="47.39315" lon="-0.64708">
        <ele>54</ele>
        <time>2013-08-28T08:09:01Z</time>
      </trkpt>
      <trkpt lat="47.39287" lon="-0.64734">
        <ele>54</ele>
        <time>2013-08-28T08:09:02Z</time>
      </trkpt>
      <trkpt lat="47.39278" lon="-0.64737">
        <ele>54</ele>
        <time>2013-08-28T08:09:03Z</time>
      </trkpt>
      <trkpt lat="47.39269" lon="-0.64739">
        <ele>54</ele>
        <time>2013-08-28T08:09:04Z</time>
      </trkpt>
      <trkpt lat="47.3922" lon="-0.64752">
        <ele>54</ele>
        <time>2013-08-28T08:09:09Z</time>
      </trkpt>
      <trkpt lat="47.39211" lon="-0.64757">
        <ele>54</ele>
        <time>2013-08-28T08:09:10Z</time>
      </trkpt>
      <trkpt lat="47.39191" lon="-0.64764">
        <ele>53</ele>
        <time>2013-08-28T08:09:15Z</time>
      </trkpt>
      <trkpt lat="47.39151" lon="-0.64768">
        <ele>52</ele>
        <time>2013-08-28T08:09:16Z</time>
      </trkpt>
      <trkpt lat="47.39141" lon="-0.64771">
        <ele>51</ele>
        <time>2013-08-28T08:09:17Z</time>
      </trkpt>
      <trkpt lat="47.39123" lon="-0.64784">
        <ele>50</ele>
        <time>2013-08-28T08:09:21Z</time>
      </trkpt>
      <trkpt lat="47.39099" lon="-0.64803">
        <ele>49</ele>
        <time>2013-08-28T08:09:22Z</time>
      </trkpt>
      <trkpt lat="47.39088" lon="-0.64801">
        <ele>48</ele>
        <time>2013-08-28T08:09:23Z</time>
      </trkpt>
      <trkpt lat="47.39078" lon="-0.64796">
        <ele>47</ele>
        <time>2013-08-28T08:09:24Z</time>
      </trkpt>
      <trkpt lat="47.39069" lon="-0.64787">
        <ele>46</ele>
        <time>2013-08-28T08:09:25Z</time>
      </trkpt>
      <trkpt lat="47.39052" lon="-0.64767">
        <ele>45</ele>
        <time>2013-08-28T08:09:30Z</time>
      </trkpt>
      <trkpt lat="47.39017" lon="-0.64729">
        <ele>44</ele>
        <time>2013-08-28T08:09:31Z</time>
      </trkpt>
      <trkpt lat="47.39008" lon="-0.64722">
        <ele>43</ele>
        <time>2013-08-28T08:09:32Z</time>
      </trkpt>
      <trkpt lat="47.38987" lon="-0.64714">
        <ele>42</ele>
        <time>2013-08-28T08:09:36Z</time>
      </trkpt>
      <trkpt lat="47.38952" lon="-0.64714">
        <ele>41</ele>
        <time>2013-08-28T08:09:37Z</time>
      </trkpt>
      <trkpt lat="47.3894" lon="-0.64713">
        <ele>40</ele>
        <time>2013-08-28T08:09:38Z</time>
      </trkpt>
      <trkpt lat="47.38918" lon="-0.64707">
        <ele>38</ele>
        <time>2013-08-28T08:09:43Z</time>
      </trkpt>
      <trkpt lat="47.38878" lon="-0.6468">
        <ele>36</ele>
        <time>2013-08-28T08:09:44Z</time>
      </trkpt>
      <trkpt lat="47.38868" lon="-0.64673">
        <ele>34</ele>
        <time>2013-08-28T08:09:45Z</time>
      </trkpt>
      <trkpt lat="47.38859" lon="-0.64666">
        <ele>32</ele>
        <time>2013-08-28T08:09:46Z</time>
      </trkpt>
      <trkpt lat="47.38839" lon="-0.64652">
        <ele>30</ele>
        <time>2013-08-28T08:09:51Z</time>
      </trkpt>
      <trkpt lat="47.38801" lon="-0.64623">
        <ele>28</ele>
        <time>2013-08-28T08:09:52Z</time>
      </trkpt>
      <trkpt lat="47.38793" lon="-0.64615">
        <ele>26</ele>
        <time>2013-08-28T08:09:53Z</time>
      </trkpt>
      <trkpt lat="47.38776" lon="-0.646">
        <ele>24</ele>
        <time>2013-08-28T08:09:57Z</time>
      </trkpt>
      <trkpt lat="47.38744" lon="-0.64579">
        <ele>22</ele>
        <time>2013-08-28T08:09:58Z</time>
      </trkpt>
      <trkpt lat="47.38732" lon="-0.64574">
        <ele>20</ele>
        <time>2013-08-28T08:09:59Z</time>
      </trkpt>
      <trkpt lat="47.38707" lon="-0.64564">
        <ele>19</ele>
        <time>2013-08-28T08:10:04Z</time>
      </trkpt>
      <trkpt lat="47.38668" lon="-0.64532">
        <ele>18</ele>
        <time>2013-08-28T08:10:05Z</time>
      </trkpt>
      <trkpt lat="47.38657" lon="-0.64527">
        <ele>17</ele>
        <time>2013-08-28T08:10:06Z</time>
      </trkpt>
      <trkpt lat="47.38637" lon="-0.64513">
        <ele>17</ele>
        <time>2013-08-28T08:10:10Z</time>
      </trkpt>
      <trkpt lat="47.38612" lon="-0.64492">
        <ele>17</ele>
        <time>2013-08-28T08:10:11Z</time>
      </trkpt>
      <trkpt lat="47.38604" lon="-0.64485">
        <ele>17</ele>
        <time>2013-08-28T08:10:12Z</time>
      </trkpt>
      <trkpt lat="47.38573" lon="-0.64482">
        <ele>17</ele>
        <time>2013-08-28T08:10:17Z</time>
      </trkpt>
      <trkpt lat="47.38569" lon="-0.64491">
        <ele>17</ele>
        <time>2013-08-28T08:10:18Z</time>
      </trkpt>
      <trkpt lat="47.38566" lon="-0.645">
        <ele>17</ele>
        <time>2013-08-28T08:10:19Z</time>
      </trkpt>
      <trkpt lat="47.38564" lon="-0.64509">
        <ele>17</ele>
        <time>2013-08-28T08:10:20Z</time>
      </trkpt>
      <trkpt lat="47.38557" lon="-0.64527">
        <ele>17</ele>
        <time>2013-08-28T08:10:25Z</time>
      </trkpt>
      <trkpt lat="47.38548" lon="-0.64553">
        <ele>17</ele>
        <time>2013-08-28T08:10:25Z</time>
      </trkpt>
      <trkpt lat="47.38545" lon="-0.64562">
        <ele>17</ele>
        <time>2013-08-28T08:10:26Z</time>
      </trkpt>
      <trkpt lat="47.38538" lon="-0.6458">
        <ele>17</ele>
        <time>2013-08-28T08:10:31Z</time>
      </trkpt>
      <trkpt lat="47.38524" lon="-0.64614">
        <ele>17</ele>
        <time>2013-08-28T08:10:32Z</time>
      </trkpt>
      <trkpt lat="47.3852" lon="-0.64622">
        <ele>17</ele>
        <time>2013-08-28T08:10:33Z</time>
      </trkpt>
      <trkpt lat="47.38514" lon="-0.64639">
        <ele>17</ele>
        <time>2013-08-28T08:10:37Z</time>
      </trkpt>
      <trkpt lat="47.38503" lon="-0.64665">
        <ele>17</ele>
        <time>2013-08-28T08:10:38Z</time>
      </trkpt>
      <trkpt lat="47.385" lon="-0.64673">
        <ele>17</ele>
        <time>2013-08-28T08:10:39Z</time>
      </trkpt>
      <trkpt lat="47.38481" lon="-0.64715">
        <ele>17</ele>
        <time>2013-08-28T08:10:44Z</time>
      </trkpt>
      <trkpt lat="47.38477" lon="-0.64724">
        <ele>16</ele>
        <time>2013-08-28T08:10:45Z</time>
      </trkpt>
      <trkpt lat="47.38474" lon="-0.64732">
        <ele>16</ele>
        <time>2013-08-28T08:10:46Z</time>
      </trkpt>
      <trkpt lat="47.38467" lon="-0.64749">
        <ele>16</ele>
        <time>2013-08-28T08:10:50Z</time>
      </trkpt>
      <trkpt lat="47.38456" lon="-0.64774">
        <ele>16</ele>
        <time>2013-08-28T08:10:51Z</time>
      </trkpt>
      <trkpt lat="47.38453" lon="-0.64783">
        <ele>16</ele>
        <time>2013-08-28T08:10:52Z</time>
      </trkpt>
      <trkpt lat="47.38435" lon="-0.64824">
        <ele>16</ele>
        <time>2013-08-28T08:10:57Z</time>
      </trkpt>
      <trkpt lat="47.38432" lon="-0.64832">
        <ele>16</ele>
        <time>2013-08-28T08:10:58Z</time>
      </trkpt>
      <trkpt lat="47.38429" lon="-0.64841">
        <ele>16</ele>
        <time>2013-08-28T08:10:59Z</time>
      </trkpt>
      <trkpt lat="47.38422" lon="-0.64858">
        <ele>15</ele>
        <time>2013-08-28T08:11:03Z</time>
      </trkpt>
      <trkpt lat="47.38411" lon="-0.64882">
        <ele>15</ele>
        <time>2013-08-28T08:11:04Z</time>
      </trkpt>
      <trkpt lat="47.38408" lon="-0.64891">
        <ele>15</ele>
        <time>2013-08-28T08:11:05Z</time>
      </trkpt>
      <trkpt lat="47.3839" lon="-0.64934">
        <ele>15</ele>
        <time>2013-08-28T08:11:10Z</time>
      </trkpt>
      <trkpt lat="47.38385" lon="-0.64943">
        <ele>15</ele>
        <time>2013-08-28T08:11:11Z</time>
      </trkpt>
      <trkpt lat="47.38382" lon="-0.64951">
        <ele>15</ele>
        <time>2013-08-28T08:11:12Z</time>
      </trkpt>
      <trkpt lat="47.38375" lon="-0.64968">
        <ele>15</ele>
        <time>2013-08-28T08:11:16Z</time>
      </trkpt>
      <trkpt lat="47.38365" lon="-0.64993">
        <ele>15</ele>
        <time>2013-08-28T08:11:17Z</time>
      </trkpt>
      <trkpt lat="47.38361" lon="-0.65002">
        <ele>15</ele>
        <time>2013-08-28T08:11:18Z</time>
      </trkpt>
      <trkpt lat="47.38343" lon="-0.65044">
        <ele>15</ele>
        <time>2013-08-28T08:11:23Z</time>
      </trkpt>
      <trkpt lat="47.3834" lon="-0.65052">
        <ele>15</ele>
        <time>2013-08-28T08:11:24Z</time>
      </trkpt>
      <trkpt lat="47.38337" lon="-0.6506">
        <ele>15</ele>
        <time>2013-08-28T08:11:25Z</time>
      </trkpt>
      <trkpt lat="47.38329" lon="-0.65076">
        <ele>15</ele>
        <time>2013-08-28T08:11:29Z</time>
      </trkpt>
      <trkpt lat="47.38318" lon="-0.65102">
        <ele>15</ele>
        <time>2013-08-28T08:11:30Z</time>
      </trkpt>
      <trkpt lat="47.38314" lon="-0.65111">
        <ele>15</ele>
        <time>2013-08-28T08:11:31Z</time>
      </trkpt>
      <trkpt lat="47.38307" lon="-0.6513">
        <ele>15</ele>
        <time>2013-08-28T08:11:36Z</time>
      </trkpt>
      <trkpt lat="47.38292" lon="-0.65165">
        <ele>15</ele>
        <time>2013-08-28T08:11:37Z</time>
      </trkpt>
      <trkpt lat="47.38287" lon="-0.65174">
        <ele>15</ele>
        <time>2013-08-28T08:11:38Z</time>
      </trkpt>
      <trkpt lat="47.38279" lon="-0.65191">
        <ele>15</ele>
        <time>2013-08-28T08:11:42Z</time>
      </trkpt>
      <trkpt lat="47.38269" lon="-0.65217">
        <ele>14</ele>
        <time>2013-08-28T08:11:43Z</time>
      </trkpt>
      <trkpt lat="47.38266" lon="-0.65226">
        <ele>14</ele>
        <time>2013-08-28T08:11:44Z</time>
      </trkpt>
      <trkpt lat="47.38259" lon="-0.65242">
        <ele>14</ele>
        <time>2013-08-28T08:11:49Z</time>
      </trkpt>
      <trkpt lat="47.38245" lon="-0.65276">
        <ele>14</ele>
        <time>2013-08-28T08:11:50Z</time>
      </trkpt>
      <trkpt lat="47.38241" lon="-0.65285">
        <ele>14</ele>
        <time>2013-08-28T08:11:51Z</time>
      </trkpt>
      <trkpt lat="47.38233" lon="-0.65302">
        <ele>14</ele>
        <time>2013-08-28T08:11:55Z</time>
      </trkpt>
      <trkpt lat="47.38222" lon="-0.65328">
        <ele>14</ele>
        <time>2013-08-28T08:11:56Z</time>
      </trkpt>
      <trkpt lat="47.38218" lon="-0.65337">
        <ele>13</ele>
        <time>2013-08-28T08:11:57Z</time>
      </trkpt>
      <trkpt lat="47.38211" lon="-0.65354">
        <ele>13</ele>
        <time>2013-08-28T08:12:02Z</time>
      </trkpt>
      <trkpt lat="47.38196" lon="-0.65388">
        <ele>13</ele>
        <time>2013-08-28T08:12:03Z</time>
      </trkpt>
      <trkpt lat="47.38192" lon="-0.65396">
        <ele>13</ele>
        <time>2013-08-28T08:12:04Z</time>
      </trkpt>
      <trkpt lat="47.38184" lon="-0.65412">
        <ele>13</ele>
        <time>2013-08-28T08:12:08Z</time>
      </trkpt>
      <trkpt lat="47.38174" lon="-0.65437">
        <ele>13</ele>
        <time>2013-08-28T08:12:09Z</time>
      </trkpt>
      <trkpt lat="47.38171" lon="-0.65445">
        <ele>13</ele>
        <time>2013-08-28T08:12:10Z</time>
      </trkpt>
      <trkpt lat="47.38164" lon="-0.65462">
        <ele>13</ele>
        <time>2013-08-28T08:12:15Z</time>
      </trkpt>
      <trkpt lat="47.3815" lon="-0.65493">
        <ele>13</ele>
        <time>2013-08-28T08:12:16Z</time>
      </trkpt>
      <trkpt lat="47.38148" lon="-0.655">
        <ele>13</ele>
        <time>2013-08-28T08:12:17Z</time>
      </trkpt>
      <trkpt lat="47.38142" lon="-0.65514">
        <ele>13</ele>
        <time>2013-08-28T08:12:21Z</time>
      </trkpt>
      <trkpt lat="47.38134" lon="-0.65535">
        <ele>13</ele>
        <time>2013-08-28T08:12:22Z</time>
      </trkpt>
      <trkpt lat="47.38131" lon="-0.65543">
        <ele>13</ele>
        <time>2013-08-28T08:12:23Z</time>
      </trkpt>
      <trkpt lat="47.38129" lon="-0.6556">
        <ele>13</ele>
        <time>2013-08-28T08:12:28Z</time>
      </trkpt>
      <trkpt lat="47.38139" lon="-0.65593">
        <ele>13</ele>
        <time>2013-08-28T08:12:29Z</time>
      </trkpt>
      <trkpt lat="47.38144" lon="-0.65599">
        <ele>13</ele>
        <time>2013-08-28T08:12:30Z</time>
      </trkpt>
      <trkpt lat="47.38148" lon="-0.65603">
        <ele>13</ele>
        <time>2013-08-28T08:12:31Z</time>
      </trkpt>
      <trkpt lat="47.38152" lon="-0.65606">
        <ele>13</ele>
        <time>2013-08-28T08:12:32Z</time>
      </trkpt>
      <trkpt lat="47.38161" lon="-0.65632">
        <ele>13</ele>
        <time>2013-08-28T08:12:38Z</time>
      </trkpt>
      <trkpt lat="47.38161" lon="-0.65639">
        <ele>13</ele>
        <time>2013-08-28T08:12:39Z</time>
      </trkpt>
      <trkpt lat="47.38161" lon="-0.65645">
        <ele>12</ele>
        <time>2013-08-28T08:12:40Z</time>
      </trkpt>
      <trkpt lat="47.38158" lon="-0.65659">
        <ele>12</ele>
        <time>2013-08-28T08:12:44Z</time>
      </trkpt>
      <trkpt lat="47.38148" lon="-0.65676">
        <ele>12</ele>
        <time>2013-08-28T08:12:45Z</time>
      </trkpt>
      <trkpt lat="47.38145" lon="-0.65682">
        <ele>12</ele>
        <time>2013-08-28T08:12:46Z</time>
      </trkpt>
      <trkpt lat="47.38142" lon="-0.65687">
        <ele>11</ele>
        <time>2013-08-28T08:12:47Z</time>
      </trkpt>
      <trkpt lat="47.38135" lon="-0.65699">
        <ele>11</ele>
        <time>2013-08-28T08:12:51Z</time>
      </trkpt>
      <trkpt lat="47.38124" lon="-0.65719">
        <ele>11</ele>
        <time>2013-08-28T08:12:52Z</time>
      </trkpt>
      <trkpt lat="47.3812" lon="-0.65726">
        <ele>11</ele>
        <time>2013-08-28T08:12:53Z</time>
      </trkpt>
      <trkpt lat="47.38113" lon="-0.6574">
        <ele>11</ele>
        <time>2013-08-28T08:12:58Z</time>
      </trkpt>
      <trkpt lat="47.38097" lon="-0.65768">
        <ele>11</ele>
        <time>2013-08-28T08:12:59Z</time>
      </trkpt>
      <trkpt lat="47.38093" lon="-0.65775">
        <ele>11</ele>
        <time>2013-08-28T08:13:00Z</time>
      </trkpt>
      <trkpt lat="47.38086" lon="-0.65789">
        <ele>11</ele>
        <time>2013-08-28T08:13:04Z</time>
      </trkpt>
      <trkpt lat="47.38076" lon="-0.65811">
        <ele>11</ele>
        <time>2013-08-28T08:13:05Z</time>
      </trkpt>
      <trkpt lat="47.38073" lon="-0.65818">
        <ele>11</ele>
        <time>2013-08-28T08:13:06Z</time>
      </trkpt>
      <trkpt lat="47.38067" lon="-0.65831">
        <ele>11</ele>
        <time>2013-08-28T08:13:11Z</time>
      </trkpt>
      <trkpt lat="47.38057" lon="-0.65857">
        <ele>11</ele>
        <time>2013-08-28T08:13:12Z</time>
      </trkpt>
      <trkpt lat="47.38058" lon="-0.65864">
        <ele>11</ele>
        <time>2013-08-28T08:13:13Z</time>
      </trkpt>
      <trkpt lat="47.38065" lon="-0.65875">
        <ele>11</ele>
        <time>2013-08-28T08:13:19Z</time>
      </trkpt>
      <trkpt lat="47.38088" lon="-0.65898">
        <ele>11</ele>
        <time>2013-08-28T08:13:20Z</time>
      </trkpt>
      <trkpt lat="47.38093" lon="-0.65903">
        <ele>11</ele>
        <time>2013-08-28T08:13:21Z</time>
      </trkpt>
      <trkpt lat="47.38097" lon="-0.65907">
        <ele>10</ele>
        <time>2013-08-28T08:13:22Z</time>
      </trkpt>
      <trkpt lat="47.38106" lon="-0.65914">
        <ele>9</ele>
        <time>2013-08-28T08:13:27Z</time>
      </trkpt>
      <trkpt lat="47.38119" lon="-0.65931">
        <ele>9</ele>
        <time>2013-08-28T08:13:28Z</time>
      </trkpt>
      <trkpt lat="47.38121" lon="-0.65936">
        <ele>9</ele>
        <time>2013-08-28T08:13:29Z</time>
      </trkpt>
      <trkpt lat="47.38122" lon="-0.65942">
        <ele>9</ele>
        <time>2013-08-28T08:13:30Z</time>
      </trkpt>
      <trkpt lat="47.38127" lon="-0.65952">
        <ele>9</ele>
        <time>2013-08-28T08:13:35Z</time>
      </trkpt>
      <trkpt lat="47.38132" lon="-0.65966">
        <ele>9</ele>
        <time>2013-08-28T08:13:35Z</time>
      </trkpt>
      <trkpt lat="47.38134" lon="-0.65971">
        <ele>9</ele>
        <time>2013-08-28T08:13:36Z</time>
      </trkpt>
      <trkpt lat="47.38137" lon="-0.65982">
        <ele>9</ele>
        <time>2013-08-28T08:13:41Z</time>
      </trkpt>
      <trkpt lat="47.38147" lon="-0.66006">
        <ele>10</ele>
        <time>2013-08-28T08:13:42Z</time>
      </trkpt>
      <trkpt lat="47.38149" lon="-0.66011">
        <ele>11</ele>
        <time>2013-08-28T08:13:43Z</time>
      </trkpt>
      <trkpt lat="47.38153" lon="-0.66023">
        <ele>11</ele>
        <time>2013-08-28T08:13:47Z</time>
      </trkpt>
      <trkpt lat="47.38151" lon="-0.66041">
        <ele>11</ele>
        <time>2013-08-28T08:13:48Z</time>
      </trkpt>
      <trkpt lat="47.38148" lon="-0.66047">
        <ele>11</ele>
        <time>2013-08-28T08:13:49Z</time>
      </trkpt>
      <trkpt lat="47.38145" lon="-0.66052">
        <ele>11</ele>
        <time>2013-08-28T08:13:50Z</time>
      </trkpt>
      <trkpt lat="47.38139" lon="-0.66065">
        <ele>11</ele>
        <time>2013-08-28T08:13:54Z</time>
      </trkpt>
      <trkpt lat="47.3813" lon="-0.66086">
        <ele>11</ele>
        <time>2013-08-28T08:13:55Z</time>
      </trkpt>
      <trkpt lat="47.38128" lon="-0.66094">
        <ele>11</ele>
        <time>2013-08-28T08:13:56Z</time>
      </trkpt>
      <trkpt lat="47.38124" lon="-0.66109">
        <ele>11</ele>
        <time>2013-08-28T08:14:01Z</time>
      </trkpt>
      <trkpt lat="47.38117" lon="-0.66134">
        <ele>11</ele>
        <time>2013-08-28T08:14:02Z</time>
      </trkpt>
      <trkpt lat="47.38116" lon="-0.6614">
        <ele>11</ele>
        <time>2013-08-28T08:14:03Z</time>
      </trkpt>
      <trkpt lat="47.38113" lon="-0.66151">
        <ele>11</ele>
        <time>2013-08-28T08:14:07Z</time>
      </trkpt>
      <trkpt lat="47.38112" lon="-0.66167">
        <ele>12</ele>
        <time>2013-08-28T08:14:08Z</time>
      </trkpt>
      <trkpt lat="47.38111" lon="-0.66173">
        <ele>13</ele>
        <time>2013-08-28T08:14:09Z</time>
      </trkpt>
      <trkpt lat="47.38108" lon="-0.66186">
        <ele>13</ele>
        <time>2013-08-28T08:14:14Z</time>
      </trkpt>
      <trkpt lat="47.38101" lon="-0.66209">
        <ele>14</ele>
        <time>2013-08-28T08:14:15Z</time>
      </trkpt>
      <trkpt lat="47.38099" lon="-0.66214">
        <ele>14</ele>
        <time>2013-08-28T08:14:16Z</time>
      </trkpt>
      <trkpt lat="47.38095" lon="-0.66226">
        <ele>15</ele>
        <time>2013-08-28T08:14:20Z</time>
      </trkpt>
      <trkpt lat="47.38088" lon="-0.66242">
        <ele>15</ele>
        <time>2013-08-28T08:14:21Z</time>
      </trkpt>
      <trkpt lat="47.38085" lon="-0.66248">
        <ele>16</ele>
        <time>2013-08-28T08:14:22Z</time>
      </trkpt>
      <trkpt lat="47.3808" lon="-0.66258">
        <ele>16</ele>
        <time>2013-08-28T08:14:27Z</time>
      </trkpt>
      <trkpt lat="47.38068" lon="-0.66281">
        <ele>16</ele>
        <time>2013-08-28T08:14:28Z</time>
      </trkpt>
      <trkpt lat="47.38065" lon="-0.66286">
        <ele>16</ele>
        <time>2013-08-28T08:14:29Z</time>
      </trkpt>
      <trkpt lat="47.38059" lon="-0.66298">
        <ele>16</ele>
        <time>2013-08-28T08:14:33Z</time>
      </trkpt>
      <trkpt lat="47.38051" lon="-0.66314">
        <ele>16</ele>
        <time>2013-08-28T08:14:34Z</time>
      </trkpt>
      <trkpt lat="47.38048" lon="-0.6632">
        <ele>16</ele>
        <time>2013-08-28T08:14:35Z</time>
      </trkpt>
      <trkpt lat="47.38041" lon="-0.66333">
        <ele>16</ele>
        <time>2013-08-28T08:14:40Z</time>
      </trkpt>
      <trkpt lat="47.38024" lon="-0.66354">
        <ele>16</ele>
        <time>2013-08-28T08:14:41Z</time>
      </trkpt>
      <trkpt lat="47.38019" lon="-0.66359">
        <ele>16</ele>
        <time>2013-08-28T08:14:42Z</time>
      </trkpt>
      <trkpt lat="47.38014" lon="-0.66363">
        <ele>16</ele>
        <time>2013-08-28T08:14:43Z</time>
      </trkpt>
      <trkpt lat="47.37986" lon="-0.66383">
        <ele>16</ele>
        <time>2013-08-28T08:14:48Z</time>
      </trkpt>
      <trkpt lat="47.37981" lon="-0.66387">
        <ele>16</ele>
        <time>2013-08-28T08:14:49Z</time>
      </trkpt>
      <trkpt lat="47.37976" lon="-0.66391">
        <ele>16</ele>
        <time>2013-08-28T08:14:50Z</time>
      </trkpt>
      <trkpt lat="47.37966" lon="-0.66399">
        <ele>17</ele>
        <time>2013-08-28T08:14:54Z</time>
      </trkpt>
      <trkpt lat="47.37951" lon="-0.66412">
        <ele>17</ele>
        <time>2013-08-28T08:14:55Z</time>
      </trkpt>
      <trkpt lat="47.37946" lon="-0.66416">
        <ele>18</ele>
        <time>2013-08-28T08:14:56Z</time>
      </trkpt>
      <trkpt lat="47.37934" lon="-0.66426">
        <ele>18</ele>
        <time>2013-08-28T08:15:01Z</time>
      </trkpt>
      <trkpt lat="47.37908" lon="-0.66451">
        <ele>18</ele>
        <time>2013-08-28T08:15:02Z</time>
      </trkpt>
      <trkpt lat="47.37901" lon="-0.66458">
        <ele>18</ele>
        <time>2013-08-28T08:15:03Z</time>
      </trkpt>
      <trkpt lat="47.37888" lon="-0.66476">
        <ele>18</ele>
        <time>2013-08-28T08:15:07Z</time>
      </trkpt>
      <trkpt lat="47.37878" lon="-0.66511">
        <ele>18</ele>
        <time>2013-08-28T08:15:08Z</time>
      </trkpt>
      <trkpt lat="47.37879" lon="-0.66524">
        <ele>18</ele>
        <time>2013-08-28T08:15:09Z</time>
      </trkpt>
      <trkpt lat="47.37879" lon="-0.66536">
        <ele>18</ele>
        <time>2013-08-28T08:15:10Z</time>
      </trkpt>
      <trkpt lat="47.37881" lon="-0.66558">
        <ele>18</ele>
        <time>2013-08-28T08:15:15Z</time>
      </trkpt>
      <trkpt lat="47.37885" lon="-0.66593">
        <ele>18</ele>
        <time>2013-08-28T08:15:16Z</time>
      </trkpt>
      <trkpt lat="47.37885" lon="-0.66601">
        <ele>17</ele>
        <time>2013-08-28T08:15:17Z</time>
      </trkpt>
      <trkpt lat="47.37884" lon="-0.66617">
        <ele>17</ele>
        <time>2013-08-28T08:15:21Z</time>
      </trkpt>
      <trkpt lat="47.37879" lon="-0.66641">
        <ele>17</ele>
        <time>2013-08-28T08:15:22Z</time>
      </trkpt>
      <trkpt lat="47.37878" lon="-0.66647">
        <ele>17</ele>
        <time>2013-08-28T08:15:23Z</time>
      </trkpt>
      <trkpt lat="47.37875" lon="-0.6666">
        <ele>17</ele>
        <time>2013-08-28T08:15:28Z</time>
      </trkpt>
      <trkpt lat="47.37867" lon="-0.66686">
        <ele>17</ele>
        <time>2013-08-28T08:15:29Z</time>
      </trkpt>
      <trkpt lat="47.37864" lon="-0.66693">
        <ele>17</ele>
        <time>2013-08-28T08:15:30Z</time>
      </trkpt>
      <trkpt lat="47.37858" lon="-0.66706">
        <ele>17</ele>
        <time>2013-08-28T08:15:34Z</time>
      </trkpt>
      <trkpt lat="47.37848" lon="-0.66727">
        <ele>18</ele>
        <time>2013-08-28T08:15:35Z</time>
      </trkpt>
      <trkpt lat="47.37844" lon="-0.66734">
        <ele>19</ele>
        <time>2013-08-28T08:15:36Z</time>
      </trkpt>
      <trkpt lat="47.37837" lon="-0.6675">
        <ele>19</ele>
        <time>2013-08-28T08:15:41Z</time>
      </trkpt>
      <trkpt lat="47.37822" lon="-0.66782">
        <ele>20</ele>
        <time>2013-08-28T08:15:42Z</time>
      </trkpt>
      <trkpt lat="47.37819" lon="-0.6679">
        <ele>20</ele>
        <time>2013-08-28T08:15:43Z</time>
      </trkpt>
      <trkpt lat="47.37812" lon="-0.66808">
        <ele>20</ele>
        <time>2013-08-28T08:15:47Z</time>
      </trkpt>
      <trkpt lat="47.37804" lon="-0.66835">
        <ele>21</ele>
        <time>2013-08-28T08:15:48Z</time>
      </trkpt>
      <trkpt lat="47.37802" lon="-0.66844">
        <ele>21</ele>
        <time>2013-08-28T08:15:49Z</time>
      </trkpt>
      <trkpt lat="47.37797" lon="-0.66861">
        <ele>21</ele>
        <time>2013-08-28T08:15:54Z</time>
      </trkpt>
      <trkpt lat="47.3779" lon="-0.66895">
        <ele>22</ele>
        <time>2013-08-28T08:15:55Z</time>
      </trkpt>
      <trkpt lat="47.37788" lon="-0.66904">
        <ele>22</ele>
        <time>2013-08-28T08:15:56Z</time>
      </trkpt>
      <trkpt lat="47.37785" lon="-0.6692">
        <ele>22</ele>
        <time>2013-08-28T08:16:00Z</time>
      </trkpt>
      <trkpt lat="47.37781" lon="-0.66945">
        <ele>22</ele>
        <time>2013-08-28T08:16:01Z</time>
      </trkpt>
      <trkpt lat="47.37779" lon="-0.66954">
        <ele>23</ele>
        <time>2013-08-28T08:16:02Z</time>
      </trkpt>
      <trkpt lat="47.37776" lon="-0.66971">
        <ele>23</ele>
        <time>2013-08-28T08:16:07Z</time>
      </trkpt>
      <trkpt lat="47.37769" lon="-0.67004">
        <ele>23</ele>
        <time>2013-08-28T08:16:08Z</time>
      </trkpt>
      <trkpt lat="47.37766" lon="-0.67012">
        <ele>23</ele>
        <time>2013-08-28T08:16:09Z</time>
      </trkpt>
      <trkpt lat="47.37762" lon="-0.67027">
        <ele>23</ele>
        <time>2013-08-28T08:16:13Z</time>
      </trkpt>
      <trkpt lat="47.37751" lon="-0.67047">
        <ele>24</ele>
        <time>2013-08-28T08:16:14Z</time>
      </trkpt>
      <trkpt lat="47.37746" lon="-0.67054">
        <ele>24</ele>
        <time>2013-08-28T08:16:15Z</time>
      </trkpt>
      <trkpt lat="47.3774" lon="-0.6706">
        <ele>24</ele>
        <time>2013-08-28T08:16:16Z</time>
      </trkpt>
      <trkpt lat="47.37731" lon="-0.67075">
        <ele>25</ele>
        <time>2013-08-28T08:16:21Z</time>
      </trkpt>
      <trkpt lat="47.37714" lon="-0.67109">
        <ele>25</ele>
        <time>2013-08-28T08:16:22Z</time>
      </trkpt>
      <trkpt lat="47.37711" lon="-0.67118">
        <ele>25</ele>
        <time>2013-08-28T08:16:23Z</time>
      </trkpt>
      <trkpt lat="47.37703" lon="-0.67136">
        <ele>25</ele>
        <time>2013-08-28T08:16:27Z</time>
      </trkpt>
      <trkpt lat="47.37693" lon="-0.67163">
        <ele>25</ele>
        <time>2013-08-28T08:16:28Z</time>
      </trkpt>
      <trkpt lat="47.3769" lon="-0.67172">
        <ele>25</ele>
        <time>2013-08-28T08:16:29Z</time>
      </trkpt>
      <trkpt lat="47.37683" lon="-0.6719">
        <ele>25</ele>
        <time>2013-08-28T08:16:34Z</time>
      </trkpt>
      <trkpt lat="47.37671" lon="-0.67223">
        <ele>25</ele>
        <time>2013-08-28T08:16:35Z</time>
      </trkpt>
      <trkpt lat="47.37668" lon="-0.67231">
        <ele>25</ele>
        <time>2013-08-28T08:16:36Z</time>
      </trkpt>
      <trkpt lat="47.37662" lon="-0.67247">
        <ele>25</ele>
        <time>2013-08-28T08:16:40Z</time>
      </trkpt>
      <trkpt lat="47.37653" lon="-0.67272">
        <ele>25</ele>
        <time>2013-08-28T08:16:41Z</time>
      </trkpt>
      <trkpt lat="47.3765" lon="-0.67281">
        <ele>26</ele>
        <time>2013-08-28T08:16:42Z</time>
      </trkpt>
      <trkpt lat="47.37643" lon="-0.67298">
        <ele>26</ele>
        <time>2013-08-28T08:16:47Z</time>
      </trkpt>
      <trkpt lat="47.37627" lon="-0.67334">
        <ele>26</ele>
        <time>2013-08-28T08:16:48Z</time>
      </trkpt>
      <trkpt lat="47.37622" lon="-0.67343">
        <ele>26</ele>
        <time>2013-08-28T08:16:49Z</time>
      </trkpt>
      <trkpt lat="47.37613" lon="-0.67361">
        <ele>26</ele>
        <time>2013-08-28T08:16:53Z</time>
      </trkpt>
      <trkpt lat="47.37598" lon="-0.67391">
        <ele>26</ele>
        <time>2013-08-28T08:16:54Z</time>
      </trkpt>
      <trkpt lat="47.37592" lon="-0.67401">
        <ele>26</ele>
        <time>2013-08-28T08:16:55Z</time>
      </trkpt>
      <trkpt lat="47.37581" lon="-0.67422">
        <ele>26</ele>
        <time>2013-08-28T08:17:00Z</time>
      </trkpt>
      <trkpt lat="47.37552" lon="-0.67461">
        <ele>26</ele>
        <time>2013-08-28T08:17:01Z</time>
      </trkpt>
      <trkpt lat="47.37544" lon="-0.6747">
        <ele>26</ele>
        <time>2013-08-28T08:17:02Z</time>
      </trkpt>
      <trkpt lat="47.37528" lon="-0.67489">
        <ele>25</ele>
        <time>2013-08-28T08:17:06Z</time>
      </trkpt>
      <trkpt lat="47.37503" lon="-0.67519">
        <ele>24</ele>
        <time>2013-08-28T08:17:07Z</time>
      </trkpt>
      <trkpt lat="47.37496" lon="-0.6753">
        <ele>23</ele>
        <time>2013-08-28T08:17:08Z</time>
      </trkpt>
      <trkpt lat="47.37482" lon="-0.67557">
        <ele>22</ele>
        <time>2013-08-28T08:17:13Z</time>
      </trkpt>
      <trkpt lat="47.37466" lon="-0.6761">
        <ele>21</ele>
        <time>2013-08-28T08:17:14Z</time>
      </trkpt>
      <trkpt lat="47.37463" lon="-0.67622">
        <ele>21</ele>
        <time>2013-08-28T08:17:15Z</time>
      </trkpt>
      <trkpt lat="47.3746" lon="-0.67633">
        <ele>20</ele>
        <time>2013-08-28T08:17:16Z</time>
      </trkpt>
      <trkpt lat="47.37458" lon="-0.67643">
        <ele>20</ele>
        <time>2013-08-28T08:17:17Z</time>
      </trkpt>
      <trkpt lat="47.37454" lon="-0.67663">
        <ele>20</ele>
        <time>2013-08-28T08:17:21Z</time>
      </trkpt>
      <trkpt lat="47.37447" lon="-0.67689">
        <ele>20</ele>
        <time>2013-08-28T08:17:22Z</time>
      </trkpt>
      <trkpt lat="47.37444" lon="-0.67698">
        <ele>20</ele>
        <time>2013-08-28T08:17:23Z</time>
      </trkpt>
      <trkpt lat="47.37439" lon="-0.67715">
        <ele>20</ele>
        <time>2013-08-28T08:17:28Z</time>
      </trkpt>
      <trkpt lat="47.37431" lon="-0.6775">
        <ele>20</ele>
        <time>2013-08-28T08:17:29Z</time>
      </trkpt>
      <trkpt lat="47.3743" lon="-0.67758">
        <ele>20</ele>
        <time>2013-08-28T08:17:30Z</time>
      </trkpt>
      <trkpt lat="47.37426" lon="-0.67774">
        <ele>20</ele>
        <time>2013-08-28T08:17:34Z</time>
      </trkpt>
      <trkpt lat="47.3742" lon="-0.67799">
        <ele>20</ele>
        <time>2013-08-28T08:17:35Z</time>
      </trkpt>
      <trkpt lat="47.37418" lon="-0.67807">
        <ele>20</ele>
        <time>2013-08-28T08:17:36Z</time>
      </trkpt>
      <trkpt lat="47.37413" lon="-0.67824">
        <ele>20</ele>
        <time>2013-08-28T08:17:41Z</time>
      </trkpt>
      <trkpt lat="47.37406" lon="-0.67861">
        <ele>20</ele>
        <time>2013-08-28T08:17:42Z</time>
      </trkpt>
      <trkpt lat="47.37405" lon="-0.67871">
        <ele>20</ele>
        <time>2013-08-28T08:17:43Z</time>
      </trkpt>
      <trkpt lat="47.37401" lon="-0.67891">
        <ele>20</ele>
        <time>2013-08-28T08:17:47Z</time>
      </trkpt>
      <trkpt lat="47.37396" lon="-0.6792">
        <ele>20</ele>
        <time>2013-08-28T08:17:48Z</time>
      </trkpt>
      <trkpt lat="47.37394" lon="-0.6793">
        <ele>20</ele>
        <time>2013-08-28T08:17:49Z</time>
      </trkpt>
      <trkpt lat="47.37391" lon="-0.67952">
        <ele>20</ele>
        <time>2013-08-28T08:17:54Z</time>
      </trkpt>
      <trkpt lat="47.37386" lon="-0.67997">
        <ele>20</ele>
        <time>2013-08-28T08:17:55Z</time>
      </trkpt>
      <trkpt lat="47.37385" lon="-0.68009">
        <ele>20</ele>
        <time>2013-08-28T08:17:56Z</time>
      </trkpt>
      <trkpt lat="47.37382" lon="-0.6803">
        <ele>20</ele>
        <time>2013-08-28T08:18:00Z</time>
      </trkpt>
      <trkpt lat="47.3738" lon="-0.68063">
        <ele>20</ele>
        <time>2013-08-28T08:18:01Z</time>
      </trkpt>
      <trkpt lat="47.37379" lon="-0.68073">
        <ele>20</ele>
        <time>2013-08-28T08:18:02Z</time>
      </trkpt>
      <trkpt lat="47.37378" lon="-0.68093">
        <ele>20</ele>
        <time>2013-08-28T08:18:07Z</time>
      </trkpt>
      <trkpt lat="47.37379" lon="-0.68132">
        <ele>20</ele>
        <time>2013-08-28T08:18:08Z</time>
      </trkpt>
      <trkpt lat="47.3738" lon="-0.68142">
        <ele>20</ele>
        <time>2013-08-28T08:18:09Z</time>
      </trkpt>
      <trkpt lat="47.37382" lon="-0.68162">
        <ele>20</ele>
        <time>2013-08-28T08:18:13Z</time>
      </trkpt>
      <trkpt lat="47.37383" lon="-0.68193">
        <ele>20</ele>
        <time>2013-08-28T08:18:14Z</time>
      </trkpt>
      <trkpt lat="47.37384" lon="-0.68203">
        <ele>20</ele>
        <time>2013-08-28T08:18:15Z</time>
      </trkpt>
      <trkpt lat="47.37386" lon="-0.68224">
        <ele>20</ele>
        <time>2013-08-28T08:18:20Z</time>
      </trkpt>
      <trkpt lat="47.37392" lon="-0.68265">
        <ele>20</ele>
        <time>2013-08-28T08:18:21Z</time>
      </trkpt>
      <trkpt lat="47.37392" lon="-0.68274">
        <ele>20</ele>
        <time>2013-08-28T08:18:22Z</time>
      </trkpt>
      <trkpt lat="47.37393" lon="-0.68294">
        <ele>20</ele>
        <time>2013-08-28T08:18:26Z</time>
      </trkpt>
      <trkpt lat="47.37395" lon="-0.68324">
        <ele>20</ele>
        <time>2013-08-28T08:18:27Z</time>
      </trkpt>
      <trkpt lat="47.37395" lon="-0.68334">
        <ele>20</ele>
        <time>2013-08-28T08:18:28Z</time>
      </trkpt>
      <trkpt lat="47.37396" lon="-0.68353">
        <ele>20</ele>
        <time>2013-08-28T08:18:33Z</time>
      </trkpt>
      <trkpt lat="47.374" lon="-0.68393">
        <ele>20</ele>
        <time>2013-08-28T08:18:34Z</time>
      </trkpt>
      <trkpt lat="47.37401" lon="-0.68404">
        <ele>20</ele>
        <time>2013-08-28T08:18:35Z</time>
      </trkpt>
      <trkpt lat="47.37403" lon="-0.68424">
        <ele>20</ele>
        <time>2013-08-28T08:18:39Z</time>
      </trkpt>
      <trkpt lat="47.37405" lon="-0.68453">
        <ele>20</ele>
        <time>2013-08-28T08:18:40Z</time>
      </trkpt>
      <trkpt lat="47.37405" lon="-0.68462">
        <ele>20</ele>
        <time>2013-08-28T08:18:41Z</time>
      </trkpt>
      <trkpt lat="47.37404" lon="-0.68479">
        <ele>20</ele>
        <time>2013-08-28T08:18:46Z</time>
      </trkpt>
      <trkpt lat="47.37399" lon="-0.68514">
        <ele>20</ele>
        <time>2013-08-28T08:18:47Z</time>
      </trkpt>
      <trkpt lat="47.37399" lon="-0.68522">
        <ele>20</ele>
        <time>2013-08-28T08:18:48Z</time>
      </trkpt>
      <trkpt lat="47.374" lon="-0.68531">
        <ele>20</ele>
        <time>2013-08-28T08:18:49Z</time>
      </trkpt>
      <trkpt lat="47.37405" lon="-0.68546">
        <ele>20</ele>
        <time>2013-08-28T08:18:53Z</time>
      </trkpt>
      <trkpt lat="47.37416" lon="-0.68563">
        <ele>20</ele>
        <time>2013-08-28T08:18:54Z</time>
      </trkpt>
      <trkpt lat="47.3742" lon="-0.68567">
        <ele>20</ele>
        <time>2013-08-28T08:18:55Z</time>
      </trkpt>
      <trkpt lat="47.37422" lon="-0.68571">
        <ele>20</ele>
        <time>2013-08-28T08:18:56Z</time>
      </trkpt>
      <trkpt lat="47.37422" lon="-0.68606">
        <ele>20</ele>
        <time>2013-08-28T08:19:01Z</time>
      </trkpt>
      <trkpt lat="47.37423" lon="-0.68614">
        <ele>20</ele>
        <time>2013-08-28T08:19:02Z</time>
      </trkpt>
      <trkpt lat="47.37424" lon="-0.68622">
        <ele>20</ele>
        <time>2013-08-28T08:19:03Z</time>
      </trkpt>
      <trkpt lat="47.3743" lon="-0.68639">
        <ele>20</ele>
        <time>2013-08-28T08:19:08Z</time>
      </trkpt>
      <trkpt lat="47.37436" lon="-0.68667">
        <ele>20</ele>
        <time>2013-08-28T08:19:09Z</time>
      </trkpt>
      <trkpt lat="47.37439" lon="-0.68673">
        <ele>20</ele>
        <time>2013-08-28T08:19:10Z</time>
      </trkpt>
      <trkpt lat="47.37459" lon="-0.68722">
        <ele>20</ele>
        <time>2013-08-28T08:19:16Z</time>
      </trkpt>
      <trkpt lat="47.37461" lon="-0.68731">
        <ele>20</ele>
        <time>2013-08-28T08:19:17Z</time>
      </trkpt>
      <trkpt lat="47.37461" lon="-0.68739">
        <ele>20</ele>
        <time>2013-08-28T08:19:18Z</time>
      </trkpt>
      <trkpt lat="47.3747" lon="-0.68777">
        <ele>19</ele>
        <time>2013-08-28T08:19:23Z</time>
      </trkpt>
      <trkpt lat="47.37471" lon="-0.68784">
        <ele>18</ele>
        <time>2013-08-28T08:19:24Z</time>
      </trkpt>
      <trkpt lat="47.37471" lon="-0.68798">
        <ele>17</ele>
        <time>2013-08-28T08:19:29Z</time>
      </trkpt>
      <trkpt lat="47.37471" lon="-0.68823">
        <ele>17</ele>
        <time>2013-08-28T08:19:30Z</time>
      </trkpt>
      <trkpt lat="47.3747" lon="-0.68829">
        <ele>16</ele>
        <time>2013-08-28T08:19:31Z</time>
      </trkpt>
      <trkpt lat="47.37461" lon="-0.68859">
        <ele>16</ele>
        <time>2013-08-28T08:19:36Z</time>
      </trkpt>
      <trkpt lat="47.37458" lon="-0.68865">
        <ele>16</ele>
        <time>2013-08-28T08:19:37Z</time>
      </trkpt>
      <trkpt lat="47.37455" lon="-0.68871">
        <ele>16</ele>
        <time>2013-08-28T08:19:38Z</time>
      </trkpt>
      <trkpt lat="47.37448" lon="-0.68909">
        <ele>16</ele>
        <time>2013-08-28T08:19:43Z</time>
      </trkpt>
      <trkpt lat="47.37446" lon="-0.68916">
        <ele>16</ele>
        <time>2013-08-28T08:19:44Z</time>
      </trkpt>
      <trkpt lat="47.37444" lon="-0.68923">
        <ele>16</ele>
        <time>2013-08-28T08:19:45Z</time>
      </trkpt>
      <trkpt lat="47.37433" lon="-0.68963">
        <ele>16</ele>
        <time>2013-08-28T08:19:50Z</time>
      </trkpt>
      <trkpt lat="47.37431" lon="-0.68971">
        <ele>16</ele>
        <time>2013-08-28T08:19:51Z</time>
      </trkpt>
      <trkpt lat="47.37426" lon="-0.68987">
        <ele>16</ele>
        <time>2013-08-28T08:19:56Z</time>
      </trkpt>
      <trkpt lat="47.37415" lon="-0.6902">
        <ele>16</ele>
        <time>2013-08-28T08:19:57Z</time>
      </trkpt>
      <trkpt lat="47.37412" lon="-0.69028">
        <ele>16</ele>
        <time>2013-08-28T08:19:58Z</time>
      </trkpt>
      <trkpt lat="47.37398" lon="-0.69064">
        <ele>17</ele>
        <time>2013-08-28T08:20:03Z</time>
      </trkpt>
      <trkpt lat="47.37395" lon="-0.69071">
        <ele>17</ele>
        <time>2013-08-28T08:20:04Z</time>
      </trkpt>
      <trkpt lat="47.37393" lon="-0.69078">
        <ele>17</ele>
        <time>2013-08-28T08:20:05Z</time>
      </trkpt>
      <trkpt lat="47.37388" lon="-0.69091">
        <ele>17</ele>
        <time>2013-08-28T08:20:09Z</time>
      </trkpt>
      <trkpt lat="47.37381" lon="-0.69108">
        <ele>18</ele>
        <time>2013-08-28T08:20:10Z</time>
      </trkpt>
      <trkpt lat="47.37378" lon="-0.69112">
        <ele>18</ele>
        <time>2013-08-28T08:20:11Z</time>
      </trkpt>
      <trkpt lat="47.37375" lon="-0.69122">
        <ele>18</ele>
        <time>2013-08-28T08:20:16Z</time>
      </trkpt>
      <trkpt lat="47.37369" lon="-0.69144">
        <ele>19</ele>
        <time>2013-08-28T08:20:17Z</time>
      </trkpt>
      <trkpt lat="47.37368" lon="-0.6915">
        <ele>19</ele>
        <time>2013-08-28T08:20:18Z</time>
      </trkpt>
      <trkpt lat="47.37365" lon="-0.69163">
        <ele>19</ele>
        <time>2013-08-28T08:20:22Z</time>
      </trkpt>
      <trkpt lat="47.3736" lon="-0.69184">
        <ele>20</ele>
        <time>2013-08-28T08:20:23Z</time>
      </trkpt>
      <trkpt lat="47.37358" lon="-0.69191">
        <ele>21</ele>
        <time>2013-08-28T08:20:24Z</time>
      </trkpt>
      <trkpt lat="47.37355" lon="-0.69206">
        <ele>21</ele>
        <time>2013-08-28T08:20:29Z</time>
      </trkpt>
      <trkpt lat="47.37349" lon="-0.69236">
        <ele>22</ele>
        <time>2013-08-28T08:20:30Z</time>
      </trkpt>
      <trkpt lat="47.37347" lon="-0.69244">
        <ele>22</ele>
        <time>2013-08-28T08:20:31Z</time>
      </trkpt>
      <trkpt lat="47.37344" lon="-0.6926">
        <ele>23</ele>
        <time>2013-08-28T08:20:35Z</time>
      </trkpt>
      <trkpt lat="47.3734" lon="-0.69285">
        <ele>23</ele>
        <time>2013-08-28T08:20:36Z</time>
      </trkpt>
      <trkpt lat="47.37338" lon="-0.69293">
        <ele>23</ele>
        <time>2013-08-28T08:20:37Z</time>
      </trkpt>
      <trkpt lat="47.37334" lon="-0.69309">
        <ele>24</ele>
        <time>2013-08-28T08:20:42Z</time>
      </trkpt>
      <trkpt lat="47.37323" lon="-0.6934">
        <ele>24</ele>
        <time>2013-08-28T08:20:43Z</time>
      </trkpt>
      <trkpt lat="47.3732" lon="-0.69348">
        <ele>24</ele>
        <time>2013-08-28T08:20:44Z</time>
      </trkpt>
      <trkpt lat="47.37313" lon="-0.69364">
        <ele>24</ele>
        <time>2013-08-28T08:20:49Z</time>
      </trkpt>
      <trkpt lat="47.37304" lon="-0.69388">
        <ele>25</ele>
        <time>2013-08-28T08:20:49Z</time>
      </trkpt>
      <trkpt lat="47.373" lon="-0.69396">
        <ele>25</ele>
        <time>2013-08-28T08:20:50Z</time>
      </trkpt>
      <trkpt lat="47.37292" lon="-0.69412">
        <ele>25</ele>
        <time>2013-08-28T08:20:55Z</time>
      </trkpt>
      <trkpt lat="47.37279" lon="-0.69446">
        <ele>25</ele>
        <time>2013-08-28T08:20:56Z</time>
      </trkpt>
      <trkpt lat="47.37276" lon="-0.69455">
        <ele>25</ele>
        <time>2013-08-28T08:20:57Z</time>
      </trkpt>
      <trkpt lat="47.37265" lon="-0.69501">
        <ele>25</ele>
        <time>2013-08-28T08:21:02Z</time>
      </trkpt>
      <trkpt lat="47.37262" lon="-0.6951">
        <ele>25</ele>
        <time>2013-08-28T08:21:03Z</time>
      </trkpt>
      <trkpt lat="47.37258" lon="-0.69529">
        <ele>25</ele>
        <time>2013-08-28T08:21:08Z</time>
      </trkpt>
      <trkpt lat="47.37248" lon="-0.69566">
        <ele>25</ele>
        <time>2013-08-28T08:21:09Z</time>
      </trkpt>
      <trkpt lat="47.37245" lon="-0.69575">
        <ele>25</ele>
        <time>2013-08-28T08:21:10Z</time>
      </trkpt>
      <trkpt lat="47.37231" lon="-0.69623">
        <ele>25</ele>
        <time>2013-08-28T08:21:15Z</time>
      </trkpt>
      <trkpt lat="47.37228" lon="-0.69632">
        <ele>25</ele>
        <time>2013-08-28T08:21:16Z</time>
      </trkpt>
      <trkpt lat="47.37223" lon="-0.69652">
        <ele>25</ele>
        <time>2013-08-28T08:21:21Z</time>
      </trkpt>
      <trkpt lat="47.37212" lon="-0.69694">
        <ele>25</ele>
        <time>2013-08-28T08:21:22Z</time>
      </trkpt>
      <trkpt lat="47.37209" lon="-0.69705">
        <ele>25</ele>
        <time>2013-08-28T08:21:23Z</time>
      </trkpt>
      <trkpt lat="47.37197" lon="-0.69762">
        <ele>24</ele>
        <time>2013-08-28T08:21:28Z</time>
      </trkpt>
      <trkpt lat="47.37195" lon="-0.69774">
        <ele>24</ele>
        <time>2013-08-28T08:21:29Z</time>
      </trkpt>
      <trkpt lat="47.37193" lon="-0.69785">
        <ele>24</ele>
        <time>2013-08-28T08:21:30Z</time>
      </trkpt>
      <trkpt lat="47.37192" lon="-0.6981">
        <ele>23</ele>
        <time>2013-08-28T08:21:34Z</time>
      </trkpt>
      <trkpt lat="47.37191" lon="-0.69845">
        <ele>22</ele>
        <time>2013-08-28T08:21:35Z</time>
      </trkpt>
      <trkpt lat="47.37191" lon="-0.69857">
        <ele>22</ele>
        <time>2013-08-28T08:21:36Z</time>
      </trkpt>
      <trkpt lat="47.37191" lon="-0.69879">
        <ele>22</ele>
        <time>2013-08-28T08:21:41Z</time>
      </trkpt>
      <trkpt lat="47.37191" lon="-0.69922">
        <ele>21</ele>
        <time>2013-08-28T08:21:42Z</time>
      </trkpt>
      <trkpt lat="47.37191" lon="-0.69932">
        <ele>21</ele>
        <time>2013-08-28T08:21:43Z</time>
      </trkpt>
      <trkpt lat="47.37191" lon="-0.69983">
        <ele>21</ele>
        <time>2013-08-28T08:21:48Z</time>
      </trkpt>
      <trkpt lat="47.37191" lon="-0.69992">
        <ele>21</ele>
        <time>2013-08-28T08:21:49Z</time>
      </trkpt>
      <trkpt lat="47.37191" lon="-0.70011">
        <ele>21</ele>
        <time>2013-08-28T08:21:54Z</time>
      </trkpt>
      <trkpt lat="47.37191" lon="-0.70045">
        <ele>21</ele>
        <time>2013-08-28T08:21:55Z</time>
      </trkpt>
      <trkpt lat="47.3719" lon="-0.70053">
        <ele>20</ele>
        <time>2013-08-28T08:21:56Z</time>
      </trkpt>
      <trkpt lat="47.37186" lon="-0.70089">
        <ele>20</ele>
        <time>2013-08-28T08:22:01Z</time>
      </trkpt>
      <trkpt lat="47.37185" lon="-0.70097">
        <ele>20</ele>
        <time>2013-08-28T08:22:02Z</time>
      </trkpt>
      <trkpt lat="47.37183" lon="-0.7011">
        <ele>20</ele>
        <time>2013-08-28T08:22:07Z</time>
      </trkpt>
      <trkpt lat="47.37178" lon="-0.70141">
        <ele>20</ele>
        <time>2013-08-28T08:22:08Z</time>
      </trkpt>
      <trkpt lat="47.37176" lon="-0.70148">
        <ele>20</ele>
        <time>2013-08-28T08:22:09Z</time>
      </trkpt>
      <trkpt lat="47.37172" lon="-0.70163">
        <ele>20</ele>
        <time>2013-08-28T08:22:14Z</time>
      </trkpt>
      <trkpt lat="47.37162" lon="-0.70194">
        <ele>20</ele>
        <time>2013-08-28T08:22:15Z</time>
      </trkpt>
      <trkpt lat="47.37159" lon="-0.70201">
        <ele>20</ele>
        <time>2013-08-28T08:22:16Z</time>
      </trkpt>
      <trkpt lat="47.37153" lon="-0.70215">
        <ele>20</ele>
        <time>2013-08-28T08:22:20Z</time>
      </trkpt>
      <trkpt lat="47.37143" lon="-0.70235">
        <ele>20</ele>
        <time>2013-08-28T08:22:21Z</time>
      </trkpt>
      <trkpt lat="47.3714" lon="-0.70242">
        <ele>20</ele>
        <time>2013-08-28T08:22:22Z</time>
      </trkpt>
      <trkpt lat="47.37135" lon="-0.70254">
        <ele>20</ele>
        <time>2013-08-28T08:22:27Z</time>
      </trkpt>
      <trkpt lat="47.37125" lon="-0.70274">
        <ele>20</ele>
        <time>2013-08-28T08:22:28Z</time>
      </trkpt>
      <trkpt lat="47.37121" lon="-0.70274">
        <ele>20</ele>
        <time>2013-08-28T08:22:29Z</time>
      </trkpt>
      <trkpt lat="47.37117" lon="-0.70272">
        <ele>20</ele>
        <time>2013-08-28T08:22:30Z</time>
      </trkpt>
      <trkpt lat="47.37113" lon="-0.70269">
        <ele>20</ele>
        <time>2013-08-28T08:22:31Z</time>
      </trkpt>
      <trkpt lat="47.37105" lon="-0.70262">
        <ele>20</ele>
        <time>2013-08-28T08:22:36Z</time>
      </trkpt>
      <trkpt lat="47.37086" lon="-0.70251">
        <ele>20</ele>
        <time>2013-08-28T08:22:37Z</time>
      </trkpt>
      <trkpt lat="47.3708" lon="-0.70249">
        <ele>20</ele>
        <time>2013-08-28T08:22:38Z</time>
      </trkpt>
      <trkpt lat="47.37075" lon="-0.70246">
        <ele>20</ele>
        <time>2013-08-28T08:22:39Z</time>
      </trkpt>
      <trkpt lat="47.37063" lon="-0.70243">
        <ele>21</ele>
        <time>2013-08-28T08:22:43Z</time>
      </trkpt>
      <trkpt lat="47.37047" lon="-0.70239">
        <ele>22</ele>
        <time>2013-08-28T08:22:44Z</time>
      </trkpt>
      <trkpt lat="47.37042" lon="-0.70238">
        <ele>23</ele>
        <time>2013-08-28T08:22:45Z</time>
      </trkpt>
      <trkpt lat="47.37033" lon="-0.70235">
        <ele>24</ele>
        <time>2013-08-28T08:22:50Z</time>
      </trkpt>
      <trkpt lat="47.37016" lon="-0.70229">
        <ele>24</ele>
        <time>2013-08-28T08:22:51Z</time>
      </trkpt>
      <trkpt lat="47.37012" lon="-0.70225">
        <ele>25</ele>
        <time>2013-08-28T08:22:52Z</time>
      </trkpt>
      <trkpt lat="47.37008" lon="-0.7022">
        <ele>25</ele>
        <time>2013-08-28T08:22:53Z</time>
      </trkpt>
      <trkpt lat="47.37004" lon="-0.70207">
        <ele>25</ele>
        <time>2013-08-28T08:22:59Z</time>
      </trkpt>
      <trkpt lat="47.37008" lon="-0.70159">
        <ele>25</ele>
        <time>2013-08-28T08:23:00Z</time>
      </trkpt>
      <trkpt lat="47.37009" lon="-0.70149">
        <ele>25</ele>
        <time>2013-08-28T08:23:01Z</time>
      </trkpt>
      <trkpt lat="47.37012" lon="-0.70087">
        <ele>25</ele>
        <time>2013-08-28T08:23:07Z</time>
      </trkpt>
      <trkpt lat="47.37012" lon="-0.70077">
        <ele>25</ele>
        <time>2013-08-28T08:23:08Z</time>
      </trkpt>
      <trkpt lat="47.37007" lon="-0.70041">
        <ele>25</ele>
        <time>2013-08-28T08:23:13Z</time>
      </trkpt>
      <trkpt lat="47.37003" lon="-0.70038">
        <ele>24</ele>
        <time>2013-08-28T08:23:14Z</time>
      </trkpt>
      <trkpt lat="47.36998" lon="-0.70037">
        <ele>23</ele>
        <time>2013-08-28T08:23:15Z</time>
      </trkpt>
      <trkpt lat="47.36993" lon="-0.70036">
        <ele>23</ele>
        <time>2013-08-28T08:23:16Z</time>
      </trkpt>
      <trkpt lat="47.36958" lon="-0.70051">
        <ele>23</ele>
        <time>2013-08-28T08:23:22Z</time>
      </trkpt>
      <trkpt lat="47.36951" lon="-0.70054">
        <ele>23</ele>
        <time>2013-08-28T08:23:23Z</time>
      </trkpt>
      <trkpt lat="47.36943" lon="-0.70057">
        <ele>23</ele>
        <time>2013-08-28T08:23:24Z</time>
      </trkpt>
      <trkpt lat="47.3691" lon="-0.70066">
        <ele>23</ele>
        <time>2013-08-28T08:23:29Z</time>
      </trkpt>
      <trkpt lat="47.36903" lon="-0.70067">
        <ele>23</ele>
        <time>2013-08-28T08:23:30Z</time>
      </trkpt>
      <trkpt lat="47.36895" lon="-0.70066">
        <ele>23</ele>
        <time>2013-08-28T08:23:31Z</time>
      </trkpt>
      <trkpt lat="47.36881" lon="-0.70064">
        <ele>23</ele>
        <time>2013-08-28T08:23:36Z</time>
      </trkpt>
      <trkpt lat="47.36856" lon="-0.70057">
        <ele>22</ele>
        <time>2013-08-28T08:23:37Z</time>
      </trkpt>
      <trkpt lat="47.3685" lon="-0.70055">
        <ele>22</ele>
        <time>2013-08-28T08:23:38Z</time>
      </trkpt>
      <trkpt lat="47.36818" lon="-0.7005">
        <ele>22</ele>
        <time>2013-08-28T08:23:43Z</time>
      </trkpt>
      <trkpt lat="47.36811" lon="-0.70049">
        <ele>22</ele>
        <time>2013-08-28T08:23:44Z</time>
      </trkpt>
      <trkpt lat="47.36799" lon="-0.70047">
        <ele>21</ele>
        <time>2013-08-28T08:23:49Z</time>
      </trkpt>
      <trkpt lat="47.36772" lon="-0.70043">
        <ele>21</ele>
        <time>2013-08-28T08:23:50Z</time>
      </trkpt>
      <trkpt lat="47.36765" lon="-0.70043">
        <ele>21</ele>
        <time>2013-08-28T08:23:51Z</time>
      </trkpt>
      <trkpt lat="47.36731" lon="-0.70041">
        <ele>21</ele>
        <time>2013-08-28T08:23:56Z</time>
      </trkpt>
      <trkpt lat="47.36725" lon="-0.70041">
        <ele>21</ele>
        <time>2013-08-28T08:23:57Z</time>
      </trkpt>
      <trkpt lat="47.36718" lon="-0.7004">
        <ele>21</ele>
        <time>2013-08-28T08:23:58Z</time>
      </trkpt>
      <trkpt lat="47.36704" lon="-0.70038">
        <ele>21</ele>
        <time>2013-08-28T08:24:02Z</time>
      </trkpt>
      <trkpt lat="47.36685" lon="-0.70037">
        <ele>21</ele>
        <time>2013-08-28T08:24:03Z</time>
      </trkpt>
      <trkpt lat="47.36678" lon="-0.70037">
        <ele>21</ele>
        <time>2013-08-28T08:24:04Z</time>
      </trkpt>
      <trkpt lat="47.36666" lon="-0.70035">
        <ele>21</ele>
        <time>2013-08-28T08:24:09Z</time>
      </trkpt>
      <trkpt lat="47.36638" lon="-0.70033">
        <ele>21</ele>
        <time>2013-08-28T08:24:10Z</time>
      </trkpt>
      <trkpt lat="47.36631" lon="-0.70034">
        <ele>21</ele>
        <time>2013-08-28T08:24:11Z</time>
      </trkpt>
      <trkpt lat="47.36602" lon="-0.70058">
        <ele>21</ele>
        <time>2013-08-28T08:24:16Z</time>
      </trkpt>
      <trkpt lat="47.36599" lon="-0.70068">
        <ele>21</ele>
        <time>2013-08-28T08:24:17Z</time>
      </trkpt>
      <trkpt lat="47.36597" lon="-0.70078">
        <ele>21</ele>
        <time>2013-08-28T08:24:18Z</time>
      </trkpt>
      <trkpt lat="47.36595" lon="-0.70098">
        <ele>21</ele>
        <time>2013-08-28T08:24:24Z</time>
      </trkpt>
      <trkpt lat="47.36591" lon="-0.70148">
        <ele>21</ele>
        <time>2013-08-28T08:24:25Z</time>
      </trkpt>
      <trkpt lat="47.36589" lon="-0.70167">
        <ele>21</ele>
        <time>2013-08-28T08:24:30Z</time>
      </trkpt>
      <trkpt lat="47.36585" lon="-0.70205">
        <ele>20</ele>
        <time>2013-08-28T08:24:31Z</time>
      </trkpt>
      <trkpt lat="47.36583" lon="-0.70214">
        <ele>20</ele>
        <time>2013-08-28T08:24:32Z</time>
      </trkpt>
      <trkpt lat="47.3658" lon="-0.70232">
        <ele>19</ele>
        <time>2013-08-28T08:24:36Z</time>
      </trkpt>
      <trkpt lat="47.36574" lon="-0.70259">
        <ele>18</ele>
        <time>2013-08-28T08:24:37Z</time>
      </trkpt>
      <trkpt lat="47.36572" lon="-0.70268">
        <ele>17</ele>
        <time>2013-08-28T08:24:38Z</time>
      </trkpt>
      <trkpt lat="47.36568" lon="-0.70286">
        <ele>17</ele>
        <time>2013-08-28T08:24:43Z</time>
      </trkpt>
      <trkpt lat="47.36561" lon="-0.70323">
        <ele>17</ele>
        <time>2013-08-28T08:24:44Z</time>
      </trkpt>
      <trkpt lat="47.36559" lon="-0.70332">
        <ele>16</ele>
        <time>2013-08-28T08:24:45Z</time>
      </trkpt>
      <trkpt lat="47.36555" lon="-0.70381">
        <ele>16</ele>
        <time>2013-08-28T08:24:50Z</time>
      </trkpt>
      <trkpt lat="47.36555" lon="-0.7039">
        <ele>15</ele>
        <time>2013-08-28T08:24:51Z</time>
      </trkpt>
      <trkpt lat="47.36554" lon="-0.7041">
        <ele>15</ele>
        <time>2013-08-28T08:24:56Z</time>
      </trkpt>
      <trkpt lat="47.36553" lon="-0.70448">
        <ele>15</ele>
        <time>2013-08-28T08:24:57Z</time>
      </trkpt>
      <trkpt lat="47.36552" lon="-0.70458">
        <ele>14</ele>
        <time>2013-08-28T08:24:58Z</time>
      </trkpt>
      <trkpt lat="47.36551" lon="-0.70476">
        <ele>14</ele>
        <time>2013-08-28T08:25:03Z</time>
      </trkpt>
      <trkpt lat="47.3655" lon="-0.70513">
        <ele>14</ele>
        <time>2013-08-28T08:25:04Z</time>
      </trkpt>
      <trkpt lat="47.3655" lon="-0.70523">
        <ele>14</ele>
        <time>2013-08-28T08:25:05Z</time>
      </trkpt>
      <trkpt lat="47.36549" lon="-0.70542">
        <ele>14</ele>
        <time>2013-08-28T08:25:09Z</time>
      </trkpt>
      <trkpt lat="47.36548" lon="-0.70571">
        <ele>14</ele>
        <time>2013-08-28T08:25:10Z</time>
      </trkpt>
      <trkpt lat="47.36548" lon="-0.70581">
        <ele>14</ele>
        <time>2013-08-28T08:25:11Z</time>
      </trkpt>
      <trkpt lat="47.36547" lon="-0.706">
        <ele>14</ele>
        <time>2013-08-28T08:25:16Z</time>
      </trkpt>
      <trkpt lat="47.36545" lon="-0.70634">
        <ele>14</ele>
        <time>2013-08-28T08:25:17Z</time>
      </trkpt>
      <trkpt lat="47.36544" lon="-0.70642">
        <ele>14</ele>
        <time>2013-08-28T08:25:18Z</time>
      </trkpt>
      <trkpt lat="47.36544" lon="-0.70661">
        <ele>14</ele>
        <time>2013-08-28T08:25:23Z</time>
      </trkpt>
      <trkpt lat="47.36543" lon="-0.70662">
        <ele>14</ele>
        <time>2013-08-28T08:25:25Z</time>
      </trkpt>
      <trkpt lat="47.36543" lon="-0.70665">
        <ele>14</ele>
        <time>2013-08-28T08:25:31Z</time>
      </trkpt>
      <trkpt lat="47.36542" lon="-0.70667">
        <ele>14</ele>
        <time>2013-08-28T08:25:32Z</time>
      </trkpt>
      <trkpt lat="47.36543" lon="-0.70676">
        <ele>13</ele>
        <time>2013-08-28T08:25:37Z</time>
      </trkpt>
      <trkpt lat="47.36543" lon="-0.70679">
        <ele>13</ele>
        <time>2013-08-28T08:25:38Z</time>
      </trkpt>
      <trkpt lat="47.36543" lon="-0.70682">
        <ele>13</ele>
        <time>2013-08-28T08:25:39Z</time>
      </trkpt>
      <trkpt lat="47.36543" lon="-0.70686">
        <ele>12</ele>
        <time>2013-08-28T08:25:40Z</time>
      </trkpt>
      <trkpt lat="47.36542" lon="-0.70697">
        <ele>12</ele>
        <time>2013-08-28T08:25:44Z</time>
      </trkpt>
      <trkpt lat="47.36541" lon="-0.70714">
        <ele>12</ele>
        <time>2013-08-28T08:25:45Z</time>
      </trkpt>
      <trkpt lat="47.36541" lon="-0.7072">
        <ele>12</ele>
        <time>2013-08-28T08:25:46Z</time>
      </trkpt>
      <trkpt lat="47.3654" lon="-0.70735">
        <ele>12</ele>
        <time>2013-08-28T08:25:51Z</time>
      </trkpt>
      <trkpt lat="47.36538" lon="-0.70767">
        <ele>12</ele>
        <time>2013-08-28T08:25:52Z</time>
      </trkpt>
      <trkpt lat="47.36538" lon="-0.70776">
        <ele>12</ele>
        <time>2013-08-28T08:25:53Z</time>
      </trkpt>
      <trkpt lat="47.36537" lon="-0.70817">
        <ele>12</ele>
        <time>2013-08-28T08:25:58Z</time>
      </trkpt>
      <trkpt lat="47.36537" lon="-0.70825">
        <ele>12</ele>
        <time>2013-08-28T08:25:59Z</time>
      </trkpt>
      <trkpt lat="47.36536" lon="-0.70841">
        <ele>12</ele>
        <time>2013-08-28T08:26:04Z</time>
      </trkpt>
      <trkpt lat="47.36534" lon="-0.70874">
        <ele>12</ele>
        <time>2013-08-28T08:26:05Z</time>
      </trkpt>
      <trkpt lat="47.36533" lon="-0.70882">
        <ele>12</ele>
        <time>2013-08-28T08:26:06Z</time>
      </trkpt>
      <trkpt lat="47.36532" lon="-0.70899">
        <ele>12</ele>
        <time>2013-08-28T08:26:11Z</time>
      </trkpt>
      <trkpt lat="47.3653" lon="-0.70932">
        <ele>12</ele>
        <time>2013-08-28T08:26:12Z</time>
      </trkpt>
      <trkpt lat="47.3653" lon="-0.7094">
        <ele>12</ele>
        <time>2013-08-28T08:26:13Z</time>
      </trkpt>
      <trkpt lat="47.36529" lon="-0.70958">
        <ele>12</ele>
        <time>2013-08-28T08:26:17Z</time>
      </trkpt>
      <trkpt lat="47.36528" lon="-0.70984">
        <ele>12</ele>
        <time>2013-08-28T08:26:18Z</time>
      </trkpt>
      <trkpt lat="47.36528" lon="-0.70994">
        <ele>12</ele>
        <time>2013-08-28T08:26:19Z</time>
      </trkpt>
      <trkpt lat="47.36527" lon="-0.71012">
        <ele>12</ele>
        <time>2013-08-28T08:26:24Z</time>
      </trkpt>
      <trkpt lat="47.36526" lon="-0.71051">
        <ele>12</ele>
        <time>2013-08-28T08:26:25Z</time>
      </trkpt>
      <trkpt lat="47.36525" lon="-0.7106">
        <ele>12</ele>
        <time>2013-08-28T08:26:26Z</time>
      </trkpt>
      <trkpt lat="47.36525" lon="-0.71108">
        <ele>12</ele>
        <time>2013-08-28T08:26:31Z</time>
      </trkpt>
      <trkpt lat="47.36524" lon="-0.71118">
        <ele>12</ele>
        <time>2013-08-28T08:26:32Z</time>
      </trkpt>
      <trkpt lat="47.36524" lon="-0.71136">
        <ele>12</ele>
        <time>2013-08-28T08:26:37Z</time>
      </trkpt>
      <trkpt lat="47.36523" lon="-0.71173">
        <ele>11</ele>
        <time>2013-08-28T08:26:38Z</time>
      </trkpt>
      <trkpt lat="47.36523" lon="-0.71182">
        <ele>11</ele>
        <time>2013-08-28T08:26:39Z</time>
      </trkpt>
      <trkpt lat="47.36522" lon="-0.71201">
        <ele>10</ele>
        <time>2013-08-28T08:26:44Z</time>
      </trkpt>
      <trkpt lat="47.36521" lon="-0.71238">
        <ele>10</ele>
        <time>2013-08-28T08:26:45Z</time>
      </trkpt>
      <trkpt lat="47.36521" lon="-0.71248">
        <ele>10</ele>
        <time>2013-08-28T08:26:46Z</time>
      </trkpt>
      <trkpt lat="47.3652" lon="-0.71266">
        <ele>10</ele>
        <time>2013-08-28T08:26:50Z</time>
      </trkpt>
      <trkpt lat="47.36519" lon="-0.71293">
        <ele>9</ele>
        <time>2013-08-28T08:26:51Z</time>
      </trkpt>
      <trkpt lat="47.36518" lon="-0.71302">
        <ele>9</ele>
        <time>2013-08-28T08:26:52Z</time>
      </trkpt>
      <trkpt lat="47.36517" lon="-0.7132">
        <ele>9</ele>
        <time>2013-08-28T08:26:57Z</time>
      </trkpt>
      <trkpt lat="47.36515" lon="-0.71357">
        <ele>9</ele>
        <time>2013-08-28T08:26:58Z</time>
      </trkpt>
      <trkpt lat="47.36515" lon="-0.71367">
        <ele>9</ele>
        <time>2013-08-28T08:26:59Z</time>
      </trkpt>
      <trkpt lat="47.36513" lon="-0.71414">
        <ele>9</ele>
        <time>2013-08-28T08:27:04Z</time>
      </trkpt>
      <trkpt lat="47.36512" lon="-0.71424">
        <ele>9</ele>
        <time>2013-08-28T08:27:05Z</time>
      </trkpt>
      <trkpt lat="47.36512" lon="-0.71443">
        <ele>9</ele>
        <time>2013-08-28T08:27:10Z</time>
      </trkpt>
      <trkpt lat="47.3651" lon="-0.71481">
        <ele>9</ele>
        <time>2013-08-28T08:27:11Z</time>
      </trkpt>
      <trkpt lat="47.36509" lon="-0.71491">
        <ele>9</ele>
        <time>2013-08-28T08:27:12Z</time>
      </trkpt>
      <trkpt lat="47.36508" lon="-0.71541">
        <ele>9</ele>
        <time>2013-08-28T08:27:17Z</time>
      </trkpt>
      <trkpt lat="47.36507" lon="-0.71551">
        <ele>9</ele>
        <time>2013-08-28T08:27:18Z</time>
      </trkpt>
      <trkpt lat="47.36507" lon="-0.71561">
        <ele>9</ele>
        <time>2013-08-28T08:27:19Z</time>
      </trkpt>
      <trkpt lat="47.36506" lon="-0.71581">
        <ele>9</ele>
        <time>2013-08-28T08:27:23Z</time>
      </trkpt>
      <trkpt lat="47.36504" lon="-0.71611">
        <ele>9</ele>
        <time>2013-08-28T08:27:24Z</time>
      </trkpt>
      <trkpt lat="47.36503" lon="-0.71621">
        <ele>9</ele>
        <time>2013-08-28T08:27:25Z</time>
      </trkpt>
      <trkpt lat="47.36501" lon="-0.71641">
        <ele>9</ele>
        <time>2013-08-28T08:27:30Z</time>
      </trkpt>
      <trkpt lat="47.36495" lon="-0.7168">
        <ele>9</ele>
        <time>2013-08-28T08:27:31Z</time>
      </trkpt>
      <trkpt lat="47.36492" lon="-0.71689">
        <ele>9</ele>
        <time>2013-08-28T08:27:32Z</time>
      </trkpt>
      <trkpt lat="47.36489" lon="-0.71698">
        <ele>9</ele>
        <time>2013-08-28T08:27:33Z</time>
      </trkpt>
      <trkpt lat="47.36483" lon="-0.71715">
        <ele>9</ele>
        <time>2013-08-28T08:27:37Z</time>
      </trkpt>
      <trkpt lat="47.36474" lon="-0.71741">
        <ele>9</ele>
        <time>2013-08-28T08:27:38Z</time>
      </trkpt>
      <trkpt lat="47.36471" lon="-0.71749">
        <ele>9</ele>
        <time>2013-08-28T08:27:39Z</time>
      </trkpt>
      <trkpt lat="47.36465" lon="-0.71766">
        <ele>9</ele>
        <time>2013-08-28T08:27:44Z</time>
      </trkpt>
      <trkpt lat="47.36453" lon="-0.718">
        <ele>9</ele>
        <time>2013-08-28T08:27:45Z</time>
      </trkpt>
      <trkpt lat="47.36451" lon="-0.71809">
        <ele>9</ele>
        <time>2013-08-28T08:27:46Z</time>
      </trkpt>
      <trkpt lat="47.36441" lon="-0.71856">
        <ele>9</ele>
        <time>2013-08-28T08:27:51Z</time>
      </trkpt>
      <trkpt lat="47.3644" lon="-0.71865">
        <ele>9</ele>
        <time>2013-08-28T08:27:52Z</time>
      </trkpt>
      <trkpt lat="47.36439" lon="-0.71875">
        <ele>9</ele>
        <time>2013-08-28T08:27:53Z</time>
      </trkpt>
      <trkpt lat="47.36439" lon="-0.71895">
        <ele>9</ele>
        <time>2013-08-28T08:27:58Z</time>
      </trkpt>
      <trkpt lat="47.36439" lon="-0.71933">
        <ele>9</ele>
        <time>2013-08-28T08:27:59Z</time>
      </trkpt>
      <trkpt lat="47.36439" lon="-0.71943">
        <ele>9</ele>
        <time>2013-08-28T08:28:00Z</time>
      </trkpt>
      <trkpt lat="47.36438" lon="-0.71961">
        <ele>9</ele>
        <time>2013-08-28T08:28:05Z</time>
      </trkpt>
      <trkpt lat="47.3644" lon="-0.71988">
        <ele>9</ele>
        <time>2013-08-28T08:28:05Z</time>
      </trkpt>
      <trkpt lat="47.36439" lon="-0.71998">
        <ele>9</ele>
        <time>2013-08-28T08:28:06Z</time>
      </trkpt>
      <trkpt lat="47.36439" lon="-0.72018">
        <ele>9</ele>
        <time>2013-08-28T08:28:11Z</time>
      </trkpt>
      <trkpt lat="47.3644" lon="-0.72057">
        <ele>10</ele>
        <time>2013-08-28T08:28:12Z</time>
      </trkpt>
      <trkpt lat="47.36441" lon="-0.72067">
        <ele>10</ele>
        <time>2013-08-28T08:28:13Z</time>
      </trkpt>
      <trkpt lat="47.36446" lon="-0.72117">
        <ele>10</ele>
        <time>2013-08-28T08:28:18Z</time>
      </trkpt>
      <trkpt lat="47.36447" lon="-0.72127">
        <ele>10</ele>
        <time>2013-08-28T08:28:19Z</time>
      </trkpt>
      <trkpt lat="47.36448" lon="-0.72137">
        <ele>10</ele>
        <time>2013-08-28T08:28:20Z</time>
      </trkpt>
      <trkpt lat="47.3645" lon="-0.72156">
        <ele>10</ele>
        <time>2013-08-28T08:28:24Z</time>
      </trkpt>
      <trkpt lat="47.36453" lon="-0.72183">
        <ele>10</ele>
        <time>2013-08-28T08:28:25Z</time>
      </trkpt>
      <trkpt lat="47.36454" lon="-0.72192">
        <ele>10</ele>
        <time>2013-08-28T08:28:26Z</time>
      </trkpt>
      <trkpt lat="47.36455" lon="-0.7221">
        <ele>10</ele>
        <time>2013-08-28T08:28:31Z</time>
      </trkpt>
      <trkpt lat="47.36457" lon="-0.72246">
        <ele>10</ele>
        <time>2013-08-28T08:28:32Z</time>
      </trkpt>
      <trkpt lat="47.36457" lon="-0.72255">
        <ele>11</ele>
        <time>2013-08-28T08:28:33Z</time>
      </trkpt>
      <trkpt lat="47.36456" lon="-0.72305">
        <ele>12</ele>
        <time>2013-08-28T08:28:38Z</time>
      </trkpt>
      <trkpt lat="47.36456" lon="-0.72315">
        <ele>13</ele>
        <time>2013-08-28T08:28:39Z</time>
      </trkpt>
      <trkpt lat="47.36455" lon="-0.72325">
        <ele>13</ele>
        <time>2013-08-28T08:28:40Z</time>
      </trkpt>
      <trkpt lat="47.36453" lon="-0.72345">
        <ele>14</ele>
        <time>2013-08-28T08:28:44Z</time>
      </trkpt>
      <trkpt lat="47.36449" lon="-0.72375">
        <ele>14</ele>
        <time>2013-08-28T08:28:45Z</time>
      </trkpt>
      <trkpt lat="47.36447" lon="-0.72385">
        <ele>14</ele>
        <time>2013-08-28T08:28:46Z</time>
      </trkpt>
      <trkpt lat="47.36443" lon="-0.72404">
        <ele>14</ele>
        <time>2013-08-28T08:28:51Z</time>
      </trkpt>
      <trkpt lat="47.36434" lon="-0.72443">
        <ele>14</ele>
        <time>2013-08-28T08:28:52Z</time>
      </trkpt>
      <trkpt lat="47.36432" lon="-0.72453">
        <ele>14</ele>
        <time>2013-08-28T08:28:53Z</time>
      </trkpt>
      <trkpt lat="47.36419" lon="-0.72502">
        <ele>14</ele>
        <time>2013-08-28T08:28:58Z</time>
      </trkpt>
      <trkpt lat="47.36416" lon="-0.72511">
        <ele>14</ele>
        <time>2013-08-28T08:28:59Z</time>
      </trkpt>
      <trkpt lat="47.36414" lon="-0.72521">
        <ele>14</ele>
        <time>2013-08-28T08:29:00Z</time>
      </trkpt>
      <trkpt lat="47.36409" lon="-0.7254">
        <ele>14</ele>
        <time>2013-08-28T08:29:04Z</time>
      </trkpt>
      <trkpt lat="47.36402" lon="-0.72568">
        <ele>14</ele>
        <time>2013-08-28T08:29:05Z</time>
      </trkpt>
      <trkpt lat="47.36399" lon="-0.72578">
        <ele>14</ele>
        <time>2013-08-28T08:29:06Z</time>
      </trkpt>
      <trkpt lat="47.36395" lon="-0.72596">
        <ele>14</ele>
        <time>2013-08-28T08:29:11Z</time>
      </trkpt>
      <trkpt lat="47.36385" lon="-0.72634">
        <ele>14</ele>
        <time>2013-08-28T08:29:12Z</time>
      </trkpt>
      <trkpt lat="47.36383" lon="-0.72644">
        <ele>14</ele>
        <time>2013-08-28T08:29:13Z</time>
      </trkpt>
      <trkpt lat="47.36383" lon="-0.72694">
        <ele>14</ele>
        <time>2013-08-28T08:29:18Z</time>
      </trkpt>
      <trkpt lat="47.36386" lon="-0.72703">
        <ele>14</ele>
        <time>2013-08-28T08:29:19Z</time>
      </trkpt>
      <trkpt lat="47.3639" lon="-0.72712">
        <ele>14</ele>
        <time>2013-08-28T08:29:20Z</time>
      </trkpt>
      <trkpt lat="47.36394" lon="-0.7272">
        <ele>14</ele>
        <time>2013-08-28T08:29:21Z</time>
      </trkpt>
      <trkpt lat="47.36403" lon="-0.72736">
        <ele>14</ele>
        <time>2013-08-28T08:29:26Z</time>
      </trkpt>
      <trkpt lat="47.36421" lon="-0.72767">
        <ele>14</ele>
        <time>2013-08-28T08:29:27Z</time>
      </trkpt>
      <trkpt lat="47.36425" lon="-0.72776">
        <ele>14</ele>
        <time>2013-08-28T08:29:28Z</time>
      </trkpt>
      <trkpt lat="47.36433" lon="-0.72794">
        <ele>14</ele>
        <time>2013-08-28T08:29:33Z</time>
      </trkpt>
      <trkpt lat="47.36443" lon="-0.72821">
        <ele>14</ele>
        <time>2013-08-28T08:29:33Z</time>
      </trkpt>
      <trkpt lat="47.36447" lon="-0.7283">
        <ele>14</ele>
        <time>2013-08-28T08:29:34Z</time>
      </trkpt>
      <trkpt lat="47.36454" lon="-0.72847">
        <ele>14</ele>
        <time>2013-08-28T08:29:39Z</time>
      </trkpt>
      <trkpt lat="47.36468" lon="-0.72882">
        <ele>14</ele>
        <time>2013-08-28T08:29:40Z</time>
      </trkpt>
      <trkpt lat="47.36472" lon="-0.72891">
        <ele>14</ele>
        <time>2013-08-28T08:29:41Z</time>
      </trkpt>
      <trkpt lat="47.36479" lon="-0.7291">
        <ele>14</ele>
        <time>2013-08-28T08:29:46Z</time>
      </trkpt>
      <trkpt lat="47.36494" lon="-0.72945">
        <ele>14</ele>
        <time>2013-08-28T08:29:47Z</time>
      </trkpt>
      <trkpt lat="47.36497" lon="-0.72954">
        <ele>14</ele>
        <time>2013-08-28T08:29:48Z</time>
      </trkpt>
      <trkpt lat="47.36504" lon="-0.72973">
        <ele>14</ele>
        <time>2013-08-28T08:29:53Z</time>
      </trkpt>
      <trkpt lat="47.36514" lon="-0.73001">
        <ele>14</ele>
        <time>2013-08-28T08:29:53Z</time>
      </trkpt>
      <trkpt lat="47.36517" lon="-0.7301">
        <ele>14</ele>
        <time>2013-08-28T08:29:54Z</time>
      </trkpt>
      <trkpt lat="47.3652" lon="-0.73031">
        <ele>13</ele>
        <time>2013-08-28T08:29:59Z</time>
      </trkpt>
      <trkpt lat="47.36527" lon="-0.73073">
        <ele>13</ele>
        <time>2013-08-28T08:30:00Z</time>
      </trkpt>
      <trkpt lat="47.36529" lon="-0.73083">
        <ele>13</ele>
        <time>2013-08-28T08:30:01Z</time>
      </trkpt>
      <trkpt lat="47.36536" lon="-0.73102">
        <ele>12</ele>
        <time>2013-08-28T08:30:06Z</time>
      </trkpt>
      <trkpt lat="47.36553" lon="-0.73136">
        <ele>12</ele>
        <time>2013-08-28T08:30:07Z</time>
      </trkpt>
      <trkpt lat="47.36556" lon="-0.73144">
        <ele>12</ele>
        <time>2013-08-28T08:30:08Z</time>
      </trkpt>
      <trkpt lat="47.36562" lon="-0.73162">
        <ele>12</ele>
        <time>2013-08-28T08:30:13Z</time>
      </trkpt>
      <trkpt lat="47.36571" lon="-0.73189">
        <ele>12</ele>
        <time>2013-08-28T08:30:13Z</time>
      </trkpt>
      <trkpt lat="47.36573" lon="-0.73198">
        <ele>12</ele>
        <time>2013-08-28T08:30:14Z</time>
      </trkpt>
      <trkpt lat="47.36578" lon="-0.73216">
        <ele>12</ele>
        <time>2013-08-28T08:30:19Z</time>
      </trkpt>
      <trkpt lat="47.36587" lon="-0.73254">
        <ele>12</ele>
        <time>2013-08-28T08:30:20Z</time>
      </trkpt>
      <trkpt lat="47.3659" lon="-0.73263">
        <ele>12</ele>
        <time>2013-08-28T08:30:21Z</time>
      </trkpt>
      <trkpt lat="47.36597" lon="-0.73281">
        <ele>12</ele>
        <time>2013-08-28T08:30:26Z</time>
      </trkpt>
      <trkpt lat="47.3661" lon="-0.73317">
        <ele>12</ele>
        <time>2013-08-28T08:30:27Z</time>
      </trkpt>
      <trkpt lat="47.36614" lon="-0.73327">
        <ele>12</ele>
        <time>2013-08-28T08:30:28Z</time>
      </trkpt>
      <trkpt lat="47.3662" lon="-0.73345">
        <ele>12</ele>
        <time>2013-08-28T08:30:32Z</time>
      </trkpt>
      <trkpt lat="47.36629" lon="-0.73373">
        <ele>12</ele>
        <time>2013-08-28T08:30:33Z</time>
      </trkpt>
      <trkpt lat="47.36633" lon="-0.73382">
        <ele>12</ele>
        <time>2013-08-28T08:30:34Z</time>
      </trkpt>
      <trkpt lat="47.36639" lon="-0.734">
        <ele>12</ele>
        <time>2013-08-28T08:30:39Z</time>
      </trkpt>
      <trkpt lat="47.36652" lon="-0.73436">
        <ele>12</ele>
        <time>2013-08-28T08:30:40Z</time>
      </trkpt>
      <trkpt lat="47.36655" lon="-0.73445">
        <ele>12</ele>
        <time>2013-08-28T08:30:41Z</time>
      </trkpt>
      <trkpt lat="47.3666" lon="-0.73463">
        <ele>12</ele>
        <time>2013-08-28T08:30:46Z</time>
      </trkpt>
      <trkpt lat="47.36669" lon="-0.73501">
        <ele>12</ele>
        <time>2013-08-28T08:30:47Z</time>
      </trkpt>
      <trkpt lat="47.36671" lon="-0.73511">
        <ele>12</ele>
        <time>2013-08-28T08:30:48Z</time>
      </trkpt>
      <trkpt lat="47.36682" lon="-0.73559">
        <ele>12</ele>
        <time>2013-08-28T08:30:53Z</time>
      </trkpt>
      <trkpt lat="47.36684" lon="-0.73569">
        <ele>12</ele>
        <time>2013-08-28T08:30:54Z</time>
      </trkpt>
      <trkpt lat="47.36688" lon="-0.73588">
        <ele>12</ele>
        <time>2013-08-28T08:30:59Z</time>
      </trkpt>
      <trkpt lat="47.36697" lon="-0.73626">
        <ele>12</ele>
        <time>2013-08-28T08:31:00Z</time>
      </trkpt>
      <trkpt lat="47.36698" lon="-0.73636">
        <ele>12</ele>
        <time>2013-08-28T08:31:01Z</time>
      </trkpt>
      <trkpt lat="47.36702" lon="-0.73655">
        <ele>12</ele>
        <time>2013-08-28T08:31:06Z</time>
      </trkpt>
      <trkpt lat="47.36708" lon="-0.73695">
        <ele>12</ele>
        <time>2013-08-28T08:31:07Z</time>
      </trkpt>
      <trkpt lat="47.3671" lon="-0.73706">
        <ele>12</ele>
        <time>2013-08-28T08:31:08Z</time>
      </trkpt>
      <trkpt lat="47.36714" lon="-0.73725">
        <ele>12</ele>
        <time>2013-08-28T08:31:13Z</time>
      </trkpt>
      <trkpt lat="47.3672" lon="-0.73755">
        <ele>12</ele>
        <time>2013-08-28T08:31:13Z</time>
      </trkpt>
      <trkpt lat="47.36722" lon="-0.73764">
        <ele>12</ele>
        <time>2013-08-28T08:31:14Z</time>
      </trkpt>
      <trkpt lat="47.36726" lon="-0.73784">
        <ele>12</ele>
        <time>2013-08-28T08:31:19Z</time>
      </trkpt>
      <trkpt lat="47.36733" lon="-0.73823">
        <ele>12</ele>
        <time>2013-08-28T08:31:20Z</time>
      </trkpt>
      <trkpt lat="47.36734" lon="-0.73833">
        <ele>12</ele>
        <time>2013-08-28T08:31:21Z</time>
      </trkpt>
      <trkpt lat="47.36738" lon="-0.73853">
        <ele>12</ele>
        <time>2013-08-28T08:31:26Z</time>
      </trkpt>
      <trkpt lat="47.36746" lon="-0.73892">
        <ele>12</ele>
        <time>2013-08-28T08:31:27Z</time>
      </trkpt>
      <trkpt lat="47.36748" lon="-0.73902">
        <ele>12</ele>
        <time>2013-08-28T08:31:28Z</time>
      </trkpt>
      <trkpt lat="47.36752" lon="-0.73922">
        <ele>12</ele>
        <time>2013-08-28T08:31:33Z</time>
      </trkpt>
      <trkpt lat="47.36757" lon="-0.73951">
        <ele>12</ele>
        <time>2013-08-28T08:31:33Z</time>
      </trkpt>
      <trkpt lat="47.36758" lon="-0.73961">
        <ele>12</ele>
        <time>2013-08-28T08:31:34Z</time>
      </trkpt>
      <trkpt lat="47.36762" lon="-0.73981">
        <ele>12</ele>
        <time>2013-08-28T08:31:39Z</time>
      </trkpt>
      <trkpt lat="47.36771" lon="-0.74023">
        <ele>12</ele>
        <time>2013-08-28T08:31:40Z</time>
      </trkpt>
      <trkpt lat="47.36774" lon="-0.74032">
        <ele>12</ele>
        <time>2013-08-28T08:31:41Z</time>
      </trkpt>
      <trkpt lat="47.36779" lon="-0.74052">
        <ele>12</ele>
        <time>2013-08-28T08:31:46Z</time>
      </trkpt>
      <trkpt lat="47.36788" lon="-0.74092">
        <ele>12</ele>
        <time>2013-08-28T08:31:47Z</time>
      </trkpt>
      <trkpt lat="47.3679" lon="-0.74102">
        <ele>12</ele>
        <time>2013-08-28T08:31:48Z</time>
      </trkpt>
      <trkpt lat="47.36796" lon="-0.74121">
        <ele>12</ele>
        <time>2013-08-28T08:31:52Z</time>
      </trkpt>
      <trkpt lat="47.36805" lon="-0.7415">
        <ele>12</ele>
        <time>2013-08-28T08:31:53Z</time>
      </trkpt>
      <trkpt lat="47.36808" lon="-0.74159">
        <ele>12</ele>
        <time>2013-08-28T08:31:54Z</time>
      </trkpt>
      <trkpt lat="47.36815" lon="-0.74178">
        <ele>12</ele>
        <time>2013-08-28T08:31:59Z</time>
      </trkpt>
      <trkpt lat="47.36829" lon="-0.74215">
        <ele>12</ele>
        <time>2013-08-28T08:32:00Z</time>
      </trkpt>
      <trkpt lat="47.36832" lon="-0.74225">
        <ele>12</ele>
        <time>2013-08-28T08:32:01Z</time>
      </trkpt>
      <trkpt lat="47.36839" lon="-0.74244">
        <ele>12</ele>
        <time>2013-08-28T08:32:06Z</time>
      </trkpt>
      <trkpt lat="47.36843" lon="-0.74284">
        <ele>12</ele>
        <time>2013-08-28T08:32:07Z</time>
      </trkpt>
      <trkpt lat="47.36842" lon="-0.74295">
        <ele>12</ele>
        <time>2013-08-28T08:32:08Z</time>
      </trkpt>
      <trkpt lat="47.3684" lon="-0.74305">
        <ele>12</ele>
        <time>2013-08-28T08:32:09Z</time>
      </trkpt>
      <trkpt lat="47.36825" lon="-0.74352">
        <ele>12</ele>
        <time>2013-08-28T08:32:14Z</time>
      </trkpt>
      <trkpt lat="47.36822" lon="-0.7436">
        <ele>12</ele>
        <time>2013-08-28T08:32:15Z</time>
      </trkpt>
      <trkpt lat="47.36818" lon="-0.7437">
        <ele>12</ele>
        <time>2013-08-28T08:32:16Z</time>
      </trkpt>
      <trkpt lat="47.36813" lon="-0.74389">
        <ele>12</ele>
        <time>2013-08-28T08:32:21Z</time>
      </trkpt>
      <trkpt lat="47.3681" lon="-0.7443">
        <ele>12</ele>
        <time>2013-08-28T08:32:22Z</time>
      </trkpt>
      <trkpt lat="47.3681" lon="-0.7444">
        <ele>12</ele>
        <time>2013-08-28T08:32:23Z</time>
      </trkpt>
      <trkpt lat="47.3681" lon="-0.7445">
        <ele>12</ele>
        <time>2013-08-28T08:32:24Z</time>
      </trkpt>
      <trkpt lat="47.36814" lon="-0.745">
        <ele>12</ele>
        <time>2013-08-28T08:32:29Z</time>
      </trkpt>
      <trkpt lat="47.36817" lon="-0.74509">
        <ele>12</ele>
        <time>2013-08-28T08:32:30Z</time>
      </trkpt>
      <trkpt lat="47.3682" lon="-0.74519">
        <ele>12</ele>
        <time>2013-08-28T08:32:31Z</time>
      </trkpt>
      <trkpt lat="47.36827" lon="-0.74537">
        <ele>12</ele>
        <time>2013-08-28T08:32:36Z</time>
      </trkpt>
      <trkpt lat="47.36842" lon="-0.74573">
        <ele>12</ele>
        <time>2013-08-28T08:32:37Z</time>
      </trkpt>
      <trkpt lat="47.36845" lon="-0.74582">
        <ele>12</ele>
        <time>2013-08-28T08:32:38Z</time>
      </trkpt>
      <trkpt lat="47.36861" lon="-0.74628">
        <ele>12</ele>
        <time>2013-08-28T08:32:43Z</time>
      </trkpt>
      <trkpt lat="47.36864" lon="-0.74637">
        <ele>12</ele>
        <time>2013-08-28T08:32:44Z</time>
      </trkpt>
      <trkpt lat="47.36867" lon="-0.74646">
        <ele>12</ele>
        <time>2013-08-28T08:32:45Z</time>
      </trkpt>
      <trkpt lat="47.36883" lon="-0.74691">
        <ele>12</ele>
        <time>2013-08-28T08:32:50Z</time>
      </trkpt>
      <trkpt lat="47.36886" lon="-0.74701">
        <ele>12</ele>
        <time>2013-08-28T08:32:51Z</time>
      </trkpt>
      <trkpt lat="47.36892" lon="-0.74719">
        <ele>12</ele>
        <time>2013-08-28T08:32:56Z</time>
      </trkpt>
      <trkpt lat="47.36905" lon="-0.74756">
        <ele>12</ele>
        <time>2013-08-28T08:32:57Z</time>
      </trkpt>
      <trkpt lat="47.36908" lon="-0.74765">
        <ele>12</ele>
        <time>2013-08-28T08:32:58Z</time>
      </trkpt>
      <trkpt lat="47.36914" lon="-0.74784">
        <ele>12</ele>
        <time>2013-08-28T08:33:03Z</time>
      </trkpt>
      <trkpt lat="47.36926" lon="-0.74822">
        <ele>12</ele>
        <time>2013-08-28T08:33:04Z</time>
      </trkpt>
      <trkpt lat="47.36929" lon="-0.74831">
        <ele>12</ele>
        <time>2013-08-28T08:33:05Z</time>
      </trkpt>
      <trkpt lat="47.36943" lon="-0.74878">
        <ele>12</ele>
        <time>2013-08-28T08:33:10Z</time>
      </trkpt>
      <trkpt lat="47.36946" lon="-0.74887">
        <ele>12</ele>
        <time>2013-08-28T08:33:11Z</time>
      </trkpt>
      <trkpt lat="47.36951" lon="-0.74906">
        <ele>12</ele>
        <time>2013-08-28T08:33:16Z</time>
      </trkpt>
      <trkpt lat="47.36959" lon="-0.74945">
        <ele>12</ele>
        <time>2013-08-28T08:33:17Z</time>
      </trkpt>
      <trkpt lat="47.36961" lon="-0.74955">
        <ele>12</ele>
        <time>2013-08-28T08:33:18Z</time>
      </trkpt>
      <trkpt lat="47.36964" lon="-0.74974">
        <ele>12</ele>
        <time>2013-08-28T08:33:23Z</time>
      </trkpt>
      <trkpt lat="47.36972" lon="-0.75012">
        <ele>12</ele>
        <time>2013-08-28T08:33:24Z</time>
      </trkpt>
      <trkpt lat="47.36974" lon="-0.75022">
        <ele>11</ele>
        <time>2013-08-28T08:33:25Z</time>
      </trkpt>
      <trkpt lat="47.36983" lon="-0.75071">
        <ele>11</ele>
        <time>2013-08-28T08:33:30Z</time>
      </trkpt>
      <trkpt lat="47.36985" lon="-0.75081">
        <ele>10</ele>
        <time>2013-08-28T08:33:31Z</time>
      </trkpt>
      <trkpt lat="47.36989" lon="-0.751">
        <ele>10</ele>
        <time>2013-08-28T08:33:36Z</time>
      </trkpt>
      <trkpt lat="47.36996" lon="-0.75138">
        <ele>10</ele>
        <time>2013-08-28T08:33:37Z</time>
      </trkpt>
      <trkpt lat="47.36998" lon="-0.75147">
        <ele>10</ele>
        <time>2013-08-28T08:33:38Z</time>
      </trkpt>
      <trkpt lat="47.37001" lon="-0.75166">
        <ele>10</ele>
        <time>2013-08-28T08:33:43Z</time>
      </trkpt>
      <trkpt lat="47.37008" lon="-0.75203">
        <ele>9</ele>
        <time>2013-08-28T08:33:44Z</time>
      </trkpt>
      <trkpt lat="47.3701" lon="-0.75213">
        <ele>9</ele>
        <time>2013-08-28T08:33:45Z</time>
      </trkpt>
      <trkpt lat="47.3702" lon="-0.75256">
        <ele>9</ele>
        <time>2013-08-28T08:33:50Z</time>
      </trkpt>
      <trkpt lat="47.37023" lon="-0.75263">
        <ele>8</ele>
        <time>2013-08-28T08:33:51Z</time>
      </trkpt>
      <trkpt lat="47.37029" lon="-0.75275">
        <ele>8</ele>
        <time>2013-08-28T08:33:56Z</time>
      </trkpt>
      <trkpt lat="47.37038" lon="-0.7529">
        <ele>8</ele>
        <time>2013-08-28T08:33:57Z</time>
      </trkpt>
      <trkpt lat="47.37039" lon="-0.75293">
        <ele>8</ele>
        <time>2013-08-28T08:33:58Z</time>
      </trkpt>
      <trkpt lat="47.3704" lon="-0.75296">
        <ele>8</ele>
        <time>2013-08-28T08:34:03Z</time>
      </trkpt>
      <trkpt lat="47.3704" lon="-0.75298">
        <ele>8</ele>
        <time>2013-08-28T08:34:04Z</time>
      </trkpt>
      <trkpt lat="47.37041" lon="-0.75302">
        <ele>8</ele>
        <time>2013-08-28T08:34:11Z</time>
      </trkpt>
      <trkpt lat="47.37041" lon="-0.75318">
        <ele>7</ele>
        <time>2013-08-28T08:34:12Z</time>
      </trkpt>
      <trkpt lat="47.37041" lon="-0.75323">
        <ele>7</ele>
        <time>2013-08-28T08:34:13Z</time>
      </trkpt>
      <trkpt lat="47.37041" lon="-0.75328">
        <ele>7</ele>
        <time>2013-08-28T08:34:14Z</time>
      </trkpt>
      <trkpt lat="47.3704" lon="-0.75339">
        <ele>7</ele>
        <time>2013-08-28T08:34:19Z</time>
      </trkpt>
      <trkpt lat="47.37042" lon="-0.75366">
        <ele>7</ele>
        <time>2013-08-28T08:34:20Z</time>
      </trkpt>
      <trkpt lat="47.37044" lon="-0.75373">
        <ele>7</ele>
        <time>2013-08-28T08:34:21Z</time>
      </trkpt>
      <trkpt lat="47.37046" lon="-0.75381">
        <ele>7</ele>
        <time>2013-08-28T08:34:22Z</time>
      </trkpt>
      <trkpt lat="47.37055" lon="-0.75422">
        <ele>7</ele>
        <time>2013-08-28T08:34:27Z</time>
      </trkpt>
      <trkpt lat="47.37056" lon="-0.75429">
        <ele>7</ele>
        <time>2013-08-28T08:34:28Z</time>
      </trkpt>
      <trkpt lat="47.37059" lon="-0.75445">
        <ele>7</ele>
        <time>2013-08-28T08:34:33Z</time>
      </trkpt>
      <trkpt lat="47.37066" lon="-0.75479">
        <ele>7</ele>
        <time>2013-08-28T08:34:34Z</time>
      </trkpt>
      <trkpt lat="47.37067" lon="-0.75487">
        <ele>7</ele>
        <time>2013-08-28T08:34:35Z</time>
      </trkpt>
      <trkpt lat="47.37071" lon="-0.75504">
        <ele>7</ele>
        <time>2013-08-28T08:34:40Z</time>
      </trkpt>
      <trkpt lat="47.37079" lon="-0.75536">
        <ele>7</ele>
        <time>2013-08-28T08:34:41Z</time>
      </trkpt>
      <trkpt lat="47.37081" lon="-0.75545">
        <ele>7</ele>
        <time>2013-08-28T08:34:42Z</time>
      </trkpt>
      <trkpt lat="47.37089" lon="-0.7559">
        <ele>7</ele>
        <time>2013-08-28T08:34:47Z</time>
      </trkpt>
      <trkpt lat="47.37091" lon="-0.756">
        <ele>7</ele>
        <time>2013-08-28T08:34:48Z</time>
      </trkpt>
      <trkpt lat="47.37095" lon="-0.75618">
        <ele>7</ele>
        <time>2013-08-28T08:34:53Z</time>
      </trkpt>
      <trkpt lat="47.37103" lon="-0.75656">
        <ele>7</ele>
        <time>2013-08-28T08:34:54Z</time>
      </trkpt>
      <trkpt lat="47.37105" lon="-0.75665">
        <ele>7</ele>
        <time>2013-08-28T08:34:55Z</time>
      </trkpt>
      <trkpt lat="47.37109" lon="-0.75684">
        <ele>7</ele>
        <time>2013-08-28T08:35:00Z</time>
      </trkpt>
      <trkpt lat="47.37116" lon="-0.75722">
        <ele>7</ele>
        <time>2013-08-28T08:35:01Z</time>
      </trkpt>
      <trkpt lat="47.37118" lon="-0.75732">
        <ele>7</ele>
        <time>2013-08-28T08:35:02Z</time>
      </trkpt>
      <trkpt lat="47.37128" lon="-0.75782">
        <ele>7</ele>
        <time>2013-08-28T08:35:07Z</time>
      </trkpt>
      <trkpt lat="47.3713" lon="-0.75792">
        <ele>7</ele>
        <time>2013-08-28T08:35:08Z</time>
      </trkpt>
      <trkpt lat="47.37132" lon="-0.75802">
        <ele>7</ele>
        <time>2013-08-28T08:35:09Z</time>
      </trkpt>
      <trkpt lat="47.37143" lon="-0.75853">
        <ele>7</ele>
        <time>2013-08-28T08:35:14Z</time>
      </trkpt>
      <trkpt lat="47.37145" lon="-0.75863">
        <ele>6</ele>
        <time>2013-08-28T08:35:15Z</time>
      </trkpt>
      <trkpt lat="47.37149" lon="-0.75883">
        <ele>5</ele>
        <time>2013-08-28T08:35:20Z</time>
      </trkpt>
      <trkpt lat="47.37157" lon="-0.75921">
        <ele>5</ele>
        <time>2013-08-28T08:35:21Z</time>
      </trkpt>
      <trkpt lat="47.37159" lon="-0.75931">
        <ele>5</ele>
        <time>2013-08-28T08:35:22Z</time>
      </trkpt>
      <trkpt lat="47.37162" lon="-0.7595">
        <ele>5</ele>
        <time>2013-08-28T08:35:27Z</time>
      </trkpt>
      <trkpt lat="47.3717" lon="-0.75989">
        <ele>5</ele>
        <time>2013-08-28T08:35:28Z</time>
      </trkpt>
      <trkpt lat="47.37173" lon="-0.75999">
        <ele>5</ele>
        <time>2013-08-28T08:35:29Z</time>
      </trkpt>
      <trkpt lat="47.37183" lon="-0.76048">
        <ele>5</ele>
        <time>2013-08-28T08:35:34Z</time>
      </trkpt>
      <trkpt lat="47.37185" lon="-0.76058">
        <ele>5</ele>
        <time>2013-08-28T08:35:35Z</time>
      </trkpt>
      <trkpt lat="47.37187" lon="-0.76068">
        <ele>5</ele>
        <time>2013-08-28T08:35:36Z</time>
      </trkpt>
      <trkpt lat="47.37198" lon="-0.76119">
        <ele>5</ele>
        <time>2013-08-28T08:35:41Z</time>
      </trkpt>
      <trkpt lat="47.372" lon="-0.76129">
        <ele>5</ele>
        <time>2013-08-28T08:35:42Z</time>
      </trkpt>
      <trkpt lat="47.37205" lon="-0.7615">
        <ele>5</ele>
        <time>2013-08-28T08:35:47Z</time>
      </trkpt>
      <trkpt lat="47.37213" lon="-0.76191">
        <ele>5</ele>
        <time>2013-08-28T08:35:48Z</time>
      </trkpt>
      <trkpt lat="47.37215" lon="-0.762">
        <ele>5</ele>
        <time>2013-08-28T08:35:49Z</time>
      </trkpt>
      <trkpt lat="47.37219" lon="-0.76221">
        <ele>5</ele>
        <time>2013-08-28T08:35:54Z</time>
      </trkpt>
      <trkpt lat="47.37227" lon="-0.76261">
        <ele>5</ele>
        <time>2013-08-28T08:35:55Z</time>
      </trkpt>
      <trkpt lat="47.37229" lon="-0.7627">
        <ele>5</ele>
        <time>2013-08-28T08:35:56Z</time>
      </trkpt>
      <trkpt lat="47.37233" lon="-0.7629">
        <ele>5</ele>
        <time>2013-08-28T08:36:01Z</time>
      </trkpt>
      <trkpt lat="47.37241" lon="-0.7633">
        <ele>5</ele>
        <time>2013-08-28T08:36:02Z</time>
      </trkpt>
      <trkpt lat="47.37243" lon="-0.7634">
        <ele>5</ele>
        <time>2013-08-28T08:36:03Z</time>
      </trkpt>
      <trkpt lat="47.37254" lon="-0.76389">
        <ele>5</ele>
        <time>2013-08-28T08:36:08Z</time>
      </trkpt>
      <trkpt lat="47.37256" lon="-0.76399">
        <ele>5</ele>
        <time>2013-08-28T08:36:09Z</time>
      </trkpt>
      <trkpt lat="47.37261" lon="-0.76419">
        <ele>5</ele>
        <time>2013-08-28T08:36:14Z</time>
      </trkpt>
      <trkpt lat="47.37269" lon="-0.76459">
        <ele>5</ele>
        <time>2013-08-28T08:36:15Z</time>
      </trkpt>
      <trkpt lat="47.37271" lon="-0.76469">
        <ele>5</ele>
        <time>2013-08-28T08:36:16Z</time>
      </trkpt>
      <trkpt lat="47.37276" lon="-0.76489">
        <ele>5</ele>
        <time>2013-08-28T08:36:21Z</time>
      </trkpt>
      <trkpt lat="47.37285" lon="-0.76529">
        <ele>5</ele>
        <time>2013-08-28T08:36:22Z</time>
      </trkpt>
      <trkpt lat="47.37287" lon="-0.76539">
        <ele>5</ele>
        <time>2013-08-28T08:36:23Z</time>
      </trkpt>
      <trkpt lat="47.37291" lon="-0.7656">
        <ele>5</ele>
        <time>2013-08-28T08:36:28Z</time>
      </trkpt>
      <trkpt lat="47.373" lon="-0.766">
        <ele>5</ele>
        <time>2013-08-28T08:36:29Z</time>
      </trkpt>
      <trkpt lat="47.37303" lon="-0.7661">
        <ele>5</ele>
        <time>2013-08-28T08:36:30Z</time>
      </trkpt>
      <trkpt lat="47.37315" lon="-0.7666">
        <ele>5</ele>
        <time>2013-08-28T08:36:35Z</time>
      </trkpt>
      <trkpt lat="47.37318" lon="-0.7667">
        <ele>5</ele>
        <time>2013-08-28T08:36:36Z</time>
      </trkpt>
      <trkpt lat="47.37321" lon="-0.7669">
        <ele>5</ele>
        <time>2013-08-28T08:36:41Z</time>
      </trkpt>
      <trkpt lat="47.3733" lon="-0.76731">
        <ele>5</ele>
        <time>2013-08-28T08:36:42Z</time>
      </trkpt>
      <trkpt lat="47.37332" lon="-0.76741">
        <ele>5</ele>
        <time>2013-08-28T08:36:43Z</time>
      </trkpt>
      <trkpt lat="47.37337" lon="-0.76762">
        <ele>5</ele>
        <time>2013-08-28T08:36:48Z</time>
      </trkpt>
      <trkpt lat="47.37346" lon="-0.76801">
        <ele>5</ele>
        <time>2013-08-28T08:36:49Z</time>
      </trkpt>
      <trkpt lat="47.37349" lon="-0.7681">
        <ele>5</ele>
        <time>2013-08-28T08:36:50Z</time>
      </trkpt>
      <trkpt lat="47.37363" lon="-0.76859">
        <ele>6</ele>
        <time>2013-08-28T08:36:55Z</time>
      </trkpt>
      <trkpt lat="47.37367" lon="-0.76867">
        <ele>6</ele>
        <time>2013-08-28T08:36:56Z</time>
      </trkpt>
      <trkpt lat="47.37371" lon="-0.76876">
        <ele>7</ele>
        <time>2013-08-28T08:36:57Z</time>
      </trkpt>
      <trkpt lat="47.37393" lon="-0.76915">
        <ele>7</ele>
        <time>2013-08-28T08:37:02Z</time>
      </trkpt>
      <trkpt lat="47.37398" lon="-0.76923">
        <ele>7</ele>
        <time>2013-08-28T08:37:03Z</time>
      </trkpt>
      <trkpt lat="47.37408" lon="-0.76938">
        <ele>7</ele>
        <time>2013-08-28T08:37:08Z</time>
      </trkpt>
      <trkpt lat="47.37426" lon="-0.7697">
        <ele>7</ele>
        <time>2013-08-28T08:37:09Z</time>
      </trkpt>
      <trkpt lat="47.37429" lon="-0.76978">
        <ele>7</ele>
        <time>2013-08-28T08:37:10Z</time>
      </trkpt>
      <trkpt lat="47.37436" lon="-0.76996">
        <ele>7</ele>
        <time>2013-08-28T08:37:15Z</time>
      </trkpt>
      <trkpt lat="47.3745" lon="-0.77035">
        <ele>7</ele>
        <time>2013-08-28T08:37:16Z</time>
      </trkpt>
      <trkpt lat="47.37453" lon="-0.77045">
        <ele>7</ele>
        <time>2013-08-28T08:37:17Z</time>
      </trkpt>
      <trkpt lat="47.3747" lon="-0.77092">
        <ele>7</ele>
        <time>2013-08-28T08:37:22Z</time>
      </trkpt>
      <trkpt lat="47.37474" lon="-0.77101">
        <ele>7</ele>
        <time>2013-08-28T08:37:23Z</time>
      </trkpt>
      <trkpt lat="47.37478" lon="-0.7711">
        <ele>7</ele>
        <time>2013-08-28T08:37:24Z</time>
      </trkpt>
      <trkpt lat="47.375" lon="-0.77152">
        <ele>7</ele>
        <time>2013-08-28T08:37:29Z</time>
      </trkpt>
      <trkpt lat="47.37504" lon="-0.7716">
        <ele>7</ele>
        <time>2013-08-28T08:37:30Z</time>
      </trkpt>
      <trkpt lat="47.37514" lon="-0.77176">
        <ele>8</ele>
        <time>2013-08-28T08:37:35Z</time>
      </trkpt>
      <trkpt lat="47.37532" lon="-0.7721">
        <ele>8</ele>
        <time>2013-08-28T08:37:36Z</time>
      </trkpt>
      <trkpt lat="47.37537" lon="-0.77218">
        <ele>9</ele>
        <time>2013-08-28T08:37:37Z</time>
      </trkpt>
      <trkpt lat="47.37546" lon="-0.77235">
        <ele>9</ele>
        <time>2013-08-28T08:37:42Z</time>
      </trkpt>
      <trkpt lat="47.37565" lon="-0.77267">
        <ele>10</ele>
        <time>2013-08-28T08:37:43Z</time>
      </trkpt>
      <trkpt lat="47.37569" lon="-0.77275">
        <ele>10</ele>
        <time>2013-08-28T08:37:44Z</time>
      </trkpt>
      <trkpt lat="47.37579" lon="-0.77291">
        <ele>10</ele>
        <time>2013-08-28T08:37:49Z</time>
      </trkpt>
      <trkpt lat="47.37596" lon="-0.77324">
        <ele>11</ele>
        <time>2013-08-28T08:37:50Z</time>
      </trkpt>
      <trkpt lat="47.37601" lon="-0.77332">
        <ele>11</ele>
        <time>2013-08-28T08:37:51Z</time>
      </trkpt>
      <trkpt lat="47.37624" lon="-0.77373">
        <ele>11</ele>
        <time>2013-08-28T08:37:56Z</time>
      </trkpt>
      <trkpt lat="47.37629" lon="-0.77381">
        <ele>11</ele>
        <time>2013-08-28T08:37:57Z</time>
      </trkpt>
      <trkpt lat="47.37638" lon="-0.77398">
        <ele>11</ele>
        <time>2013-08-28T08:38:02Z</time>
      </trkpt>
      <trkpt lat="47.37655" lon="-0.77432">
        <ele>11</ele>
        <time>2013-08-28T08:38:03Z</time>
      </trkpt>
      <trkpt lat="47.37659" lon="-0.7744">
        <ele>11</ele>
        <time>2013-08-28T08:38:04Z</time>
      </trkpt>
      <trkpt lat="47.37666" lon="-0.77459">
        <ele>11</ele>
        <time>2013-08-28T08:38:09Z</time>
      </trkpt>
      <trkpt lat="47.3768" lon="-0.77496">
        <ele>11</ele>
        <time>2013-08-28T08:38:10Z</time>
      </trkpt>
      <trkpt lat="47.37682" lon="-0.77506">
        <ele>11</ele>
        <time>2013-08-28T08:38:11Z</time>
      </trkpt>
      <trkpt lat="47.37687" lon="-0.77525">
        <ele>11</ele>
        <time>2013-08-28T08:38:16Z</time>
      </trkpt>
      <trkpt lat="47.37698" lon="-0.77564">
        <ele>11</ele>
        <time>2013-08-28T08:38:17Z</time>
      </trkpt>
      <trkpt lat="47.377" lon="-0.77573">
        <ele>11</ele>
        <time>2013-08-28T08:38:18Z</time>
      </trkpt>
      <trkpt lat="47.37713" lon="-0.77622">
        <ele>11</ele>
        <time>2013-08-28T08:38:23Z</time>
      </trkpt>
      <trkpt lat="47.37715" lon="-0.77631">
        <ele>11</ele>
        <time>2013-08-28T08:38:24Z</time>
      </trkpt>
      <trkpt lat="47.37721" lon="-0.77651">
        <ele>11</ele>
        <time>2013-08-28T08:38:29Z</time>
      </trkpt>
      <trkpt lat="47.3773" lon="-0.77692">
        <ele>11</ele>
        <time>2013-08-28T08:38:30Z</time>
      </trkpt>
      <trkpt lat="47.37732" lon="-0.77702">
        <ele>11</ele>
        <time>2013-08-28T08:38:31Z</time>
      </trkpt>
      <trkpt lat="47.37737" lon="-0.77722">
        <ele>10</ele>
        <time>2013-08-28T08:38:36Z</time>
      </trkpt>
      <trkpt lat="47.37746" lon="-0.77762">
        <ele>9</ele>
        <time>2013-08-28T08:38:37Z</time>
      </trkpt>
      <trkpt lat="47.37748" lon="-0.77772">
        <ele>8</ele>
        <time>2013-08-28T08:38:38Z</time>
      </trkpt>
      <trkpt lat="47.37753" lon="-0.77792">
        <ele>7</ele>
        <time>2013-08-28T08:38:43Z</time>
      </trkpt>
      <trkpt lat="47.37762" lon="-0.77832">
        <ele>7</ele>
        <time>2013-08-28T08:38:44Z</time>
      </trkpt>
      <trkpt lat="47.37765" lon="-0.77842">
        <ele>7</ele>
        <time>2013-08-28T08:38:45Z</time>
      </trkpt>
      <trkpt lat="47.37777" lon="-0.7789">
        <ele>7</ele>
        <time>2013-08-28T08:38:50Z</time>
      </trkpt>
      <trkpt lat="47.3778" lon="-0.77899">
        <ele>7</ele>
        <time>2013-08-28T08:38:51Z</time>
      </trkpt>
      <trkpt lat="47.37785" lon="-0.77919">
        <ele>7</ele>
        <time>2013-08-28T08:38:56Z</time>
      </trkpt>
      <trkpt lat="47.37794" lon="-0.77957">
        <ele>7</ele>
        <time>2013-08-28T08:38:57Z</time>
      </trkpt>
      <trkpt lat="47.37797" lon="-0.77967">
        <ele>7</ele>
        <time>2013-08-28T08:38:58Z</time>
      </trkpt>
      <trkpt lat="47.37801" lon="-0.77987">
        <ele>7</ele>
        <time>2013-08-28T08:39:03Z</time>
      </trkpt>
      <trkpt lat="47.37812" lon="-0.78027">
        <ele>6</ele>
        <time>2013-08-28T08:39:04Z</time>
      </trkpt>
      <trkpt lat="47.37815" lon="-0.78037">
        <ele>6</ele>
        <time>2013-08-28T08:39:05Z</time>
      </trkpt>
      <trkpt lat="47.37831" lon="-0.78083">
        <ele>6</ele>
        <time>2013-08-28T08:39:10Z</time>
      </trkpt>
      <trkpt lat="47.37834" lon="-0.78093">
        <ele>6</ele>
        <time>2013-08-28T08:39:11Z</time>
      </trkpt>
      <trkpt lat="47.37838" lon="-0.78102">
        <ele>6</ele>
        <time>2013-08-28T08:39:12Z</time>
      </trkpt>
      <trkpt lat="47.37854" lon="-0.78149">
        <ele>6</ele>
        <time>2013-08-28T08:39:17Z</time>
      </trkpt>
      <trkpt lat="47.37859" lon="-0.78159">
        <ele>6</ele>
        <time>2013-08-28T08:39:18Z</time>
      </trkpt>
      <trkpt lat="47.37867" lon="-0.78179">
        <ele>6</ele>
        <time>2013-08-28T08:39:23Z</time>
      </trkpt>
      <trkpt lat="47.37878" lon="-0.78217">
        <ele>6</ele>
        <time>2013-08-28T08:39:24Z</time>
      </trkpt>
      <trkpt lat="47.3788" lon="-0.78227">
        <ele>6</ele>
        <time>2013-08-28T08:39:25Z</time>
      </trkpt>
      <trkpt lat="47.37885" lon="-0.78246">
        <ele>6</ele>
        <time>2013-08-28T08:39:30Z</time>
      </trkpt>
      <trkpt lat="47.37896" lon="-0.78283">
        <ele>6</ele>
        <time>2013-08-28T08:39:31Z</time>
      </trkpt>
      <trkpt lat="47.37898" lon="-0.78293">
        <ele>6</ele>
        <time>2013-08-28T08:39:32Z</time>
      </trkpt>
      <trkpt lat="47.37903" lon="-0.78311">
        <ele>6</ele>
        <time>2013-08-28T08:39:37Z</time>
      </trkpt>
      <trkpt lat="47.37914" lon="-0.78348">
        <ele>6</ele>
        <time>2013-08-28T08:39:38Z</time>
      </trkpt>
      <trkpt lat="47.37917" lon="-0.78358">
        <ele>6</ele>
        <time>2013-08-28T08:39:39Z</time>
      </trkpt>
      <trkpt lat="47.37933" lon="-0.78405">
        <ele>6</ele>
        <time>2013-08-28T08:39:44Z</time>
      </trkpt>
      <trkpt lat="47.37936" lon="-0.78414">
        <ele>6</ele>
        <time>2013-08-28T08:39:45Z</time>
      </trkpt>
      <trkpt lat="47.37943" lon="-0.78433">
        <ele>6</ele>
        <time>2013-08-28T08:39:50Z</time>
      </trkpt>
      <trkpt lat="47.37955" lon="-0.78473">
        <ele>6</ele>
        <time>2013-08-28T08:39:51Z</time>
      </trkpt>
      <trkpt lat="47.37958" lon="-0.78483">
        <ele>6</ele>
        <time>2013-08-28T08:39:52Z</time>
      </trkpt>
      <trkpt lat="47.37964" lon="-0.78503">
        <ele>6</ele>
        <time>2013-08-28T08:39:57Z</time>
      </trkpt>
      <trkpt lat="47.37975" lon="-0.78541">
        <ele>6</ele>
        <time>2013-08-28T08:39:58Z</time>
      </trkpt>
      <trkpt lat="47.37977" lon="-0.78552">
        <ele>6</ele>
        <time>2013-08-28T08:39:59Z</time>
      </trkpt>
      <trkpt lat="47.37983" lon="-0.78571">
        <ele>6</ele>
        <time>2013-08-28T08:40:04Z</time>
      </trkpt>
      <trkpt lat="47.37994" lon="-0.78611">
        <ele>6</ele>
        <time>2013-08-28T08:40:05Z</time>
      </trkpt>
      <trkpt lat="47.37997" lon="-0.78621">
        <ele>6</ele>
        <time>2013-08-28T08:40:06Z</time>
      </trkpt>
      <trkpt lat="47.38009" lon="-0.78668">
        <ele>6</ele>
        <time>2013-08-28T08:40:11Z</time>
      </trkpt>
      <trkpt lat="47.38012" lon="-0.78677">
        <ele>6</ele>
        <time>2013-08-28T08:40:12Z</time>
      </trkpt>
      <trkpt lat="47.38017" lon="-0.78697">
        <ele>6</ele>
        <time>2013-08-28T08:40:17Z</time>
      </trkpt>
      <trkpt lat="47.38028" lon="-0.78734">
        <ele>6</ele>
        <time>2013-08-28T08:40:18Z</time>
      </trkpt>
      <trkpt lat="47.38031" lon="-0.78744">
        <ele>7</ele>
        <time>2013-08-28T08:40:19Z</time>
      </trkpt>
      <trkpt lat="47.38037" lon="-0.78763">
        <ele>8</ele>
        <time>2013-08-28T08:40:24Z</time>
      </trkpt>
      <trkpt lat="47.38048" lon="-0.78803">
        <ele>8</ele>
        <time>2013-08-28T08:40:25Z</time>
      </trkpt>
      <trkpt lat="47.38051" lon="-0.78813">
        <ele>8</ele>
        <time>2013-08-28T08:40:26Z</time>
      </trkpt>
      <trkpt lat="47.38055" lon="-0.78834">
        <ele>8</ele>
        <time>2013-08-28T08:40:31Z</time>
      </trkpt>
      <trkpt lat="47.38063" lon="-0.78873">
        <ele>8</ele>
        <time>2013-08-28T08:40:32Z</time>
      </trkpt>
      <trkpt lat="47.38065" lon="-0.78883">
        <ele>8</ele>
        <time>2013-08-28T08:40:33Z</time>
      </trkpt>
      <trkpt lat="47.38077" lon="-0.78932">
        <ele>8</ele>
        <time>2013-08-28T08:40:38Z</time>
      </trkpt>
      <trkpt lat="47.3808" lon="-0.78942">
        <ele>8</ele>
        <time>2013-08-28T08:40:39Z</time>
      </trkpt>
      <trkpt lat="47.38084" lon="-0.78962">
        <ele>8</ele>
        <time>2013-08-28T08:40:44Z</time>
      </trkpt>
      <trkpt lat="47.38091" lon="-0.79003">
        <ele>8</ele>
        <time>2013-08-28T08:40:45Z</time>
      </trkpt>
      <trkpt lat="47.38093" lon="-0.79013">
        <ele>8</ele>
        <time>2013-08-28T08:40:46Z</time>
      </trkpt>
      <trkpt lat="47.38097" lon="-0.79034">
        <ele>8</ele>
        <time>2013-08-28T08:40:51Z</time>
      </trkpt>
      <trkpt lat="47.38106" lon="-0.79076">
        <ele>8</ele>
        <time>2013-08-28T08:40:52Z</time>
      </trkpt>
      <trkpt lat="47.38109" lon="-0.79086">
        <ele>8</ele>
        <time>2013-08-28T08:40:53Z</time>
      </trkpt>
      <trkpt lat="47.38113" lon="-0.79106">
        <ele>8</ele>
        <time>2013-08-28T08:40:58Z</time>
      </trkpt>
      <trkpt lat="47.38118" lon="-0.79146">
        <ele>8</ele>
        <time>2013-08-28T08:40:59Z</time>
      </trkpt>
      <trkpt lat="47.38121" lon="-0.79157">
        <ele>8</ele>
        <time>2013-08-28T08:41:00Z</time>
      </trkpt>
      <trkpt lat="47.38131" lon="-0.79206">
        <ele>7</ele>
        <time>2013-08-28T08:41:05Z</time>
      </trkpt>
      <trkpt lat="47.38133" lon="-0.79215">
        <ele>6</ele>
        <time>2013-08-28T08:41:06Z</time>
      </trkpt>
      <trkpt lat="47.38137" lon="-0.79235">
        <ele>6</ele>
        <time>2013-08-28T08:41:11Z</time>
      </trkpt>
      <trkpt lat="47.38145" lon="-0.79275">
        <ele>5</ele>
        <time>2013-08-28T08:41:12Z</time>
      </trkpt>
      <trkpt lat="47.38147" lon="-0.79285">
        <ele>5</ele>
        <time>2013-08-28T08:41:13Z</time>
      </trkpt>
      <trkpt lat="47.38152" lon="-0.79304">
        <ele>5</ele>
        <time>2013-08-28T08:41:18Z</time>
      </trkpt>
      <trkpt lat="47.38161" lon="-0.79343">
        <ele>5</ele>
        <time>2013-08-28T08:41:19Z</time>
      </trkpt>
      <trkpt lat="47.38163" lon="-0.79353">
        <ele>5</ele>
        <time>2013-08-28T08:41:20Z</time>
      </trkpt>
      <trkpt lat="47.38168" lon="-0.79372">
        <ele>5</ele>
        <time>2013-08-28T08:41:25Z</time>
      </trkpt>
      <trkpt lat="47.38181" lon="-0.79409">
        <ele>5</ele>
        <time>2013-08-28T08:41:26Z</time>
      </trkpt>
      <trkpt lat="47.38184" lon="-0.79419">
        <ele>5</ele>
        <time>2013-08-28T08:41:27Z</time>
      </trkpt>
      <trkpt lat="47.38199" lon="-0.79465">
        <ele>5</ele>
        <time>2013-08-28T08:41:32Z</time>
      </trkpt>
      <trkpt lat="47.38202" lon="-0.79474">
        <ele>5</ele>
        <time>2013-08-28T08:41:33Z</time>
      </trkpt>
      <trkpt lat="47.38208" lon="-0.79493">
        <ele>5</ele>
        <time>2013-08-28T08:41:38Z</time>
      </trkpt>
      <trkpt lat="47.38221" lon="-0.79531">
        <ele>5</ele>
        <time>2013-08-28T08:41:39Z</time>
      </trkpt>
      <trkpt lat="47.38224" lon="-0.7954">
        <ele>5</ele>
        <time>2013-08-28T08:41:40Z</time>
      </trkpt>
      <trkpt lat="47.38229" lon="-0.79559">
        <ele>5</ele>
        <time>2013-08-28T08:41:45Z</time>
      </trkpt>
      <trkpt lat="47.38242" lon="-0.79597">
        <ele>5</ele>
        <time>2013-08-28T08:41:46Z</time>
      </trkpt>
      <trkpt lat="47.38245" lon="-0.79606">
        <ele>5</ele>
        <time>2013-08-28T08:41:47Z</time>
      </trkpt>
      <trkpt lat="47.38251" lon="-0.79625">
        <ele>5</ele>
        <time>2013-08-28T08:41:52Z</time>
      </trkpt>
      <trkpt lat="47.38263" lon="-0.79661">
        <ele>5</ele>
        <time>2013-08-28T08:41:53Z</time>
      </trkpt>
      <trkpt lat="47.38265" lon="-0.7967">
        <ele>5</ele>
        <time>2013-08-28T08:41:54Z</time>
      </trkpt>
      <trkpt lat="47.38277" lon="-0.79718">
        <ele>5</ele>
        <time>2013-08-28T08:41:59Z</time>
      </trkpt>
      <trkpt lat="47.38279" lon="-0.79728">
        <ele>5</ele>
        <time>2013-08-28T08:42:00Z</time>
      </trkpt>
      <trkpt lat="47.38284" lon="-0.79749">
        <ele>5</ele>
        <time>2013-08-28T08:42:05Z</time>
      </trkpt>
      <trkpt lat="47.38293" lon="-0.79787">
        <ele>5</ele>
        <time>2013-08-28T08:42:06Z</time>
      </trkpt>
      <trkpt lat="47.38295" lon="-0.79796">
        <ele>5</ele>
        <time>2013-08-28T08:42:07Z</time>
      </trkpt>
      <trkpt lat="47.383" lon="-0.79816">
        <ele>5</ele>
        <time>2013-08-28T08:42:12Z</time>
      </trkpt>
      <trkpt lat="47.38307" lon="-0.79855">
        <ele>5</ele>
        <time>2013-08-28T08:42:13Z</time>
      </trkpt>
      <trkpt lat="47.38309" lon="-0.79865">
        <ele>5</ele>
        <time>2013-08-28T08:42:14Z</time>
      </trkpt>
      <trkpt lat="47.38313" lon="-0.79885">
        <ele>5</ele>
        <time>2013-08-28T08:42:19Z</time>
      </trkpt>
      <trkpt lat="47.38322" lon="-0.79923">
        <ele>5</ele>
        <time>2013-08-28T08:42:20Z</time>
      </trkpt>
      <trkpt lat="47.38324" lon="-0.79932">
        <ele>5</ele>
        <time>2013-08-28T08:42:21Z</time>
      </trkpt>
      <trkpt lat="47.38326" lon="-0.79952">
        <ele>5</ele>
        <time>2013-08-28T08:42:26Z</time>
      </trkpt>
      <trkpt lat="47.38327" lon="-0.79992">
        <ele>5</ele>
        <time>2013-08-28T08:42:27Z</time>
      </trkpt>
      <trkpt lat="47.38326" lon="-0.80002">
        <ele>6</ele>
        <time>2013-08-28T08:42:28Z</time>
      </trkpt>
      <trkpt lat="47.38322" lon="-0.80054">
        <ele>6</ele>
        <time>2013-08-28T08:42:33Z</time>
      </trkpt>
      <trkpt lat="47.38322" lon="-0.80064">
        <ele>7</ele>
        <time>2013-08-28T08:42:34Z</time>
      </trkpt>
      <trkpt lat="47.3832" lon="-0.80084">
        <ele>7</ele>
        <time>2013-08-28T08:42:39Z</time>
      </trkpt>
      <trkpt lat="47.38318" lon="-0.80126">
        <ele>8</ele>
        <time>2013-08-28T08:42:40Z</time>
      </trkpt>
      <trkpt lat="47.38317" lon="-0.80137">
        <ele>8</ele>
        <time>2013-08-28T08:42:41Z</time>
      </trkpt>
      <trkpt lat="47.38317" lon="-0.80158">
        <ele>9</ele>
        <time>2013-08-28T08:42:46Z</time>
      </trkpt>
      <trkpt lat="47.38317" lon="-0.80199">
        <ele>9</ele>
        <time>2013-08-28T08:42:47Z</time>
      </trkpt>
      <trkpt lat="47.38317" lon="-0.80209">
        <ele>9</ele>
        <time>2013-08-28T08:42:48Z</time>
      </trkpt>
      <trkpt lat="47.38316" lon="-0.8023">
        <ele>9</ele>
        <time>2013-08-28T08:42:53Z</time>
      </trkpt>
      <trkpt lat="47.38319" lon="-0.80271">
        <ele>9</ele>
        <time>2013-08-28T08:42:54Z</time>
      </trkpt>
      <trkpt lat="47.3832" lon="-0.80282">
        <ele>9</ele>
        <time>2013-08-28T08:42:55Z</time>
      </trkpt>
      <trkpt lat="47.38322" lon="-0.80303">
        <ele>9</ele>
        <time>2013-08-28T08:43:00Z</time>
      </trkpt>
      <trkpt lat="47.38327" lon="-0.80344">
        <ele>9</ele>
        <time>2013-08-28T08:43:01Z</time>
      </trkpt>
      <trkpt lat="47.38328" lon="-0.80354">
        <ele>10</ele>
        <time>2013-08-28T08:43:02Z</time>
      </trkpt>
      <trkpt lat="47.38342" lon="-0.80406">
        <ele>10</ele>
        <time>2013-08-28T08:43:07Z</time>
      </trkpt>
      <trkpt lat="47.38346" lon="-0.80416">
        <ele>10</ele>
        <time>2013-08-28T08:43:08Z</time>
      </trkpt>
      <trkpt lat="47.3835" lon="-0.80425">
        <ele>10</ele>
        <time>2013-08-28T08:43:09Z</time>
      </trkpt>
      <trkpt lat="47.38359" lon="-0.80444">
        <ele>10</ele>
        <time>2013-08-28T08:43:14Z</time>
      </trkpt>
      <trkpt lat="47.38377" lon="-0.80479">
        <ele>10</ele>
        <time>2013-08-28T08:43:15Z</time>
      </trkpt>
      <trkpt lat="47.38381" lon="-0.80488">
        <ele>10</ele>
        <time>2013-08-28T08:43:16Z</time>
      </trkpt>
      <trkpt lat="47.38389" lon="-0.80504">
        <ele>10</ele>
        <time>2013-08-28T08:43:21Z</time>
      </trkpt>
      <trkpt lat="47.38406" lon="-0.80538">
        <ele>10</ele>
        <time>2013-08-28T08:43:22Z</time>
      </trkpt>
      <trkpt lat="47.3841" lon="-0.80547">
        <ele>10</ele>
        <time>2013-08-28T08:43:23Z</time>
      </trkpt>
      <trkpt lat="47.38431" lon="-0.80588">
        <ele>10</ele>
        <time>2013-08-28T08:43:28Z</time>
      </trkpt>
      <trkpt lat="47.38435" lon="-0.80597">
        <ele>10</ele>
        <time>2013-08-28T08:43:29Z</time>
      </trkpt>
      <trkpt lat="47.38439" lon="-0.80604">
        <ele>9</ele>
        <time>2013-08-28T08:43:30Z</time>
      </trkpt>
      <trkpt lat="47.38458" lon="-0.80648">
        <ele>9</ele>
        <time>2013-08-28T08:43:35Z</time>
      </trkpt>
      <trkpt lat="47.38462" lon="-0.80657">
        <ele>9</ele>
        <time>2013-08-28T08:43:36Z</time>
      </trkpt>
      <trkpt lat="47.38466" lon="-0.80665">
        <ele>9</ele>
        <time>2013-08-28T08:43:37Z</time>
      </trkpt>
      <trkpt lat="47.38486" lon="-0.80708">
        <ele>9</ele>
        <time>2013-08-28T08:43:42Z</time>
      </trkpt>
      <trkpt lat="47.3849" lon="-0.80716">
        <ele>9</ele>
        <time>2013-08-28T08:43:43Z</time>
      </trkpt>
      <trkpt lat="47.38494" lon="-0.80725">
        <ele>9</ele>
        <time>2013-08-28T08:43:44Z</time>
      </trkpt>
      <trkpt lat="47.38514" lon="-0.80767">
        <ele>9</ele>
        <time>2013-08-28T08:43:49Z</time>
      </trkpt>
      <trkpt lat="47.38518" lon="-0.80775">
        <ele>9</ele>
        <time>2013-08-28T08:43:50Z</time>
      </trkpt>
      <trkpt lat="47.38522" lon="-0.80784">
        <ele>9</ele>
        <time>2013-08-28T08:43:51Z</time>
      </trkpt>
      <trkpt lat="47.38538" lon="-0.80832">
        <ele>9</ele>
        <time>2013-08-28T08:43:56Z</time>
      </trkpt>
      <trkpt lat="47.38541" lon="-0.80841">
        <ele>9</ele>
        <time>2013-08-28T08:43:57Z</time>
      </trkpt>
      <trkpt lat="47.38543" lon="-0.80851">
        <ele>9</ele>
        <time>2013-08-28T08:43:58Z</time>
      </trkpt>
      <trkpt lat="47.38557" lon="-0.809">
        <ele>9</ele>
        <time>2013-08-28T08:44:03Z</time>
      </trkpt>
      <trkpt lat="47.3856" lon="-0.8091">
        <ele>9</ele>
        <time>2013-08-28T08:44:04Z</time>
      </trkpt>
      <trkpt lat="47.38563" lon="-0.80919">
        <ele>9</ele>
        <time>2013-08-28T08:44:05Z</time>
      </trkpt>
      <trkpt lat="47.38578" lon="-0.80967">
        <ele>9</ele>
        <time>2013-08-28T08:44:10Z</time>
      </trkpt>
      <trkpt lat="47.3858" lon="-0.80977">
        <ele>9</ele>
        <time>2013-08-28T08:44:11Z</time>
      </trkpt>
      <trkpt lat="47.38583" lon="-0.80987">
        <ele>8</ele>
        <time>2013-08-28T08:44:12Z</time>
      </trkpt>
      <trkpt lat="47.38599" lon="-0.81036">
        <ele>7</ele>
        <time>2013-08-28T08:44:17Z</time>
      </trkpt>
      <trkpt lat="47.38602" lon="-0.81045">
        <ele>6</ele>
        <time>2013-08-28T08:44:18Z</time>
      </trkpt>
      <trkpt lat="47.38604" lon="-0.81055">
        <ele>5</ele>
        <time>2013-08-28T08:44:19Z</time>
      </trkpt>
      <trkpt lat="47.38615" lon="-0.81104">
        <ele>4</ele>
        <time>2013-08-28T08:44:24Z</time>
      </trkpt>
      <trkpt lat="47.38616" lon="-0.81113">
        <ele>4</ele>
        <time>2013-08-28T08:44:25Z</time>
      </trkpt>
      <trkpt lat="47.38617" lon="-0.81122">
        <ele>4</ele>
        <time>2013-08-28T08:44:26Z</time>
      </trkpt>
      <trkpt lat="47.38619" lon="-0.81169">
        <ele>4</ele>
        <time>2013-08-28T08:44:31Z</time>
      </trkpt>
      <trkpt lat="47.38619" lon="-0.81178">
        <ele>4</ele>
        <time>2013-08-28T08:44:32Z</time>
      </trkpt>
      <trkpt lat="47.38619" lon="-0.81188">
        <ele>4</ele>
        <time>2013-08-28T08:44:33Z</time>
      </trkpt>
      <trkpt lat="47.38623" lon="-0.81239">
        <ele>4</ele>
        <time>2013-08-28T08:44:38Z</time>
      </trkpt>
      <trkpt lat="47.38625" lon="-0.81248">
        <ele>4</ele>
        <time>2013-08-28T08:44:39Z</time>
      </trkpt>
      <trkpt lat="47.38628" lon="-0.81258">
        <ele>6</ele>
        <time>2013-08-28T08:44:40Z</time>
      </trkpt>
      <trkpt lat="47.38635" lon="-0.81277">
        <ele>7</ele>
        <time>2013-08-28T08:44:45Z</time>
      </trkpt>
      <trkpt lat="47.3865" lon="-0.81314">
        <ele>7</ele>
        <time>2013-08-28T08:44:46Z</time>
      </trkpt>
      <trkpt lat="47.38654" lon="-0.81323">
        <ele>8</ele>
        <time>2013-08-28T08:44:47Z</time>
      </trkpt>
      <trkpt lat="47.38662" lon="-0.81341">
        <ele>8</ele>
        <time>2013-08-28T08:44:52Z</time>
      </trkpt>
      <trkpt lat="47.38676" lon="-0.81377">
        <ele>8</ele>
        <time>2013-08-28T08:44:53Z</time>
      </trkpt>
      <trkpt lat="47.3868" lon="-0.81386">
        <ele>8</ele>
        <time>2013-08-28T08:44:54Z</time>
      </trkpt>
      <trkpt lat="47.38687" lon="-0.81404">
        <ele>8</ele>
        <time>2013-08-28T08:44:59Z</time>
      </trkpt>
      <trkpt lat="47.38701" lon="-0.81439">
        <ele>8</ele>
        <time>2013-08-28T08:45:00Z</time>
      </trkpt>
      <trkpt lat="47.38705" lon="-0.81448">
        <ele>8</ele>
        <time>2013-08-28T08:45:01Z</time>
      </trkpt>
      <trkpt lat="47.38723" lon="-0.81494">
        <ele>8</ele>
        <time>2013-08-28T08:45:06Z</time>
      </trkpt>
      <trkpt lat="47.38726" lon="-0.81503">
        <ele>8</ele>
        <time>2013-08-28T08:45:07Z</time>
      </trkpt>
      <trkpt lat="47.38729" lon="-0.81512">
        <ele>8</ele>
        <time>2013-08-28T08:45:08Z</time>
      </trkpt>
      <trkpt lat="47.38743" lon="-0.81559">
        <ele>8</ele>
        <time>2013-08-28T08:45:13Z</time>
      </trkpt>
      <trkpt lat="47.38746" lon="-0.81568">
        <ele>7</ele>
        <time>2013-08-28T08:45:14Z</time>
      </trkpt>
      <trkpt lat="47.38749" lon="-0.81578">
        <ele>7</ele>
        <time>2013-08-28T08:45:15Z</time>
      </trkpt>
      <trkpt lat="47.38754" lon="-0.81597">
        <ele>7</ele>
        <time>2013-08-28T08:45:20Z</time>
      </trkpt>
      <trkpt lat="47.38765" lon="-0.81634">
        <ele>7</ele>
        <time>2013-08-28T08:45:21Z</time>
      </trkpt>
      <trkpt lat="47.38768" lon="-0.81644">
        <ele>7</ele>
        <time>2013-08-28T08:45:22Z</time>
      </trkpt>
      <trkpt lat="47.38774" lon="-0.81662">
        <ele>6</ele>
        <time>2013-08-28T08:45:27Z</time>
      </trkpt>
      <trkpt lat="47.38786" lon="-0.81703">
        <ele>6</ele>
        <time>2013-08-28T08:45:28Z</time>
      </trkpt>
      <trkpt lat="47.38789" lon="-0.81713">
        <ele>5</ele>
        <time>2013-08-28T08:45:29Z</time>
      </trkpt>
      <trkpt lat="47.38795" lon="-0.81732">
        <ele>4</ele>
        <time>2013-08-28T08:45:34Z</time>
      </trkpt>
      <trkpt lat="47.38808" lon="-0.8177">
        <ele>4</ele>
        <time>2013-08-28T08:45:35Z</time>
      </trkpt>
      <trkpt lat="47.3881" lon="-0.81779">
        <ele>4</ele>
        <time>2013-08-28T08:45:36Z</time>
      </trkpt>
      <trkpt lat="47.38816" lon="-0.81798">
        <ele>4</ele>
        <time>2013-08-28T08:45:41Z</time>
      </trkpt>
      <trkpt lat="47.38827" lon="-0.81836">
        <ele>4</ele>
        <time>2013-08-28T08:45:42Z</time>
      </trkpt>
      <trkpt lat="47.38829" lon="-0.81846">
        <ele>4</ele>
        <time>2013-08-28T08:45:43Z</time>
      </trkpt>
      <trkpt lat="47.38831" lon="-0.81865">
        <ele>4</ele>
        <time>2013-08-28T08:45:48Z</time>
      </trkpt>
      <trkpt lat="47.38838" lon="-0.81903">
        <ele>4</ele>
        <time>2013-08-28T08:45:49Z</time>
      </trkpt>
      <trkpt lat="47.3884" lon="-0.81913">
        <ele>4</ele>
        <time>2013-08-28T08:45:50Z</time>
      </trkpt>
      <trkpt lat="47.38842" lon="-0.81933">
        <ele>4</ele>
        <time>2013-08-28T08:45:55Z</time>
      </trkpt>
      <trkpt lat="47.38842" lon="-0.81972">
        <ele>4</ele>
        <time>2013-08-28T08:45:56Z</time>
      </trkpt>
      <trkpt lat="47.38842" lon="-0.81981">
        <ele>6</ele>
        <time>2013-08-28T08:45:57Z</time>
      </trkpt>
      <trkpt lat="47.38843" lon="-0.82001">
        <ele>7</ele>
        <time>2013-08-28T08:46:02Z</time>
      </trkpt>
      <trkpt lat="47.38846" lon="-0.82041">
        <ele>8</ele>
        <time>2013-08-28T08:46:03Z</time>
      </trkpt>
      <trkpt lat="47.38848" lon="-0.82051">
        <ele>9</ele>
        <time>2013-08-28T08:46:04Z</time>
      </trkpt>
      <trkpt lat="47.3886" lon="-0.821">
        <ele>10</ele>
        <time>2013-08-28T08:46:09Z</time>
      </trkpt>
      <trkpt lat="47.38863" lon="-0.8211">
        <ele>11</ele>
        <time>2013-08-28T08:46:10Z</time>
      </trkpt>
      <trkpt lat="47.38866" lon="-0.82119">
        <ele>12</ele>
        <time>2013-08-28T08:46:11Z</time>
      </trkpt>
      <trkpt lat="47.38873" lon="-0.82139">
        <ele>13</ele>
        <time>2013-08-28T08:46:16Z</time>
      </trkpt>
      <trkpt lat="47.38881" lon="-0.82179">
        <ele>14</ele>
        <time>2013-08-28T08:46:17Z</time>
      </trkpt>
      <trkpt lat="47.38882" lon="-0.82189">
        <ele>14</ele>
        <time>2013-08-28T08:46:18Z</time>
      </trkpt>
      <trkpt lat="47.38884" lon="-0.82249">
        <ele>14</ele>
        <time>2013-08-28T08:46:24Z</time>
      </trkpt>
      <trkpt lat="47.38885" lon="-0.8226">
        <ele>14</ele>
        <time>2013-08-28T08:46:25Z</time>
      </trkpt>
      <trkpt lat="47.38887" lon="-0.82279">
        <ele>14</ele>
        <time>2013-08-28T08:46:30Z</time>
      </trkpt>
      <trkpt lat="47.38896" lon="-0.82319">
        <ele>14</ele>
        <time>2013-08-28T08:46:31Z</time>
      </trkpt>
      <trkpt lat="47.38899" lon="-0.82328">
        <ele>14</ele>
        <time>2013-08-28T08:46:32Z</time>
      </trkpt>
      <trkpt lat="47.38903" lon="-0.8235">
        <ele>13</ele>
        <time>2013-08-28T08:46:37Z</time>
      </trkpt>
      <trkpt lat="47.38911" lon="-0.82391">
        <ele>13</ele>
        <time>2013-08-28T08:46:38Z</time>
      </trkpt>
      <trkpt lat="47.38913" lon="-0.82401">
        <ele>12</ele>
        <time>2013-08-28T08:46:39Z</time>
      </trkpt>
      <trkpt lat="47.38917" lon="-0.82422">
        <ele>12</ele>
        <time>2013-08-28T08:46:44Z</time>
      </trkpt>
      <trkpt lat="47.38922" lon="-0.82464">
        <ele>11</ele>
        <time>2013-08-28T08:46:45Z</time>
      </trkpt>
      <trkpt lat="47.38924" lon="-0.82474">
        <ele>10</ele>
        <time>2013-08-28T08:46:46Z</time>
      </trkpt>
      <trkpt lat="47.38926" lon="-0.82526">
        <ele>10</ele>
        <time>2013-08-28T08:46:51Z</time>
      </trkpt>
      <trkpt lat="47.38926" lon="-0.82537">
        <ele>10</ele>
        <time>2013-08-28T08:46:52Z</time>
      </trkpt>
      <trkpt lat="47.38926" lon="-0.82547">
        <ele>10</ele>
        <time>2013-08-28T08:46:53Z</time>
      </trkpt>
      <trkpt lat="47.38927" lon="-0.82569">
        <ele>10</ele>
        <time>2013-08-28T08:46:58Z</time>
      </trkpt>
      <trkpt lat="47.38931" lon="-0.82611">
        <ele>10</ele>
        <time>2013-08-28T08:46:59Z</time>
      </trkpt>
      <trkpt lat="47.38933" lon="-0.82622">
        <ele>10</ele>
        <time>2013-08-28T08:47:00Z</time>
      </trkpt>
      <trkpt lat="47.38942" lon="-0.82673">
        <ele>10</ele>
        <time>2013-08-28T08:47:05Z</time>
      </trkpt>
      <trkpt lat="47.38944" lon="-0.82683">
        <ele>10</ele>
        <time>2013-08-28T08:47:06Z</time>
      </trkpt>
      <trkpt lat="47.38945" lon="-0.82694">
        <ele>10</ele>
        <time>2013-08-28T08:47:07Z</time>
      </trkpt>
      <trkpt lat="47.38946" lon="-0.82716">
        <ele>10</ele>
        <time>2013-08-28T08:47:12Z</time>
      </trkpt>
      <trkpt lat="47.38954" lon="-0.82759">
        <ele>10</ele>
        <time>2013-08-28T08:47:13Z</time>
      </trkpt>
      <trkpt lat="47.38957" lon="-0.82769">
        <ele>10</ele>
        <time>2013-08-28T08:47:14Z</time>
      </trkpt>
      <trkpt lat="47.38962" lon="-0.82789">
        <ele>10</ele>
        <time>2013-08-28T08:47:19Z</time>
      </trkpt>
      <trkpt lat="47.38972" lon="-0.82829">
        <ele>10</ele>
        <time>2013-08-28T08:47:20Z</time>
      </trkpt>
      <trkpt lat="47.38975" lon="-0.82839">
        <ele>10</ele>
        <time>2013-08-28T08:47:21Z</time>
      </trkpt>
      <trkpt lat="47.38988" lon="-0.82891">
        <ele>10</ele>
        <time>2013-08-28T08:47:26Z</time>
      </trkpt>
      <trkpt lat="47.38991" lon="-0.82902">
        <ele>10</ele>
        <time>2013-08-28T08:47:27Z</time>
      </trkpt>
      <trkpt lat="47.38994" lon="-0.82912">
        <ele>10</ele>
        <time>2013-08-28T08:47:28Z</time>
      </trkpt>
      <trkpt lat="47.39" lon="-0.82933">
        <ele>10</ele>
        <time>2013-08-28T08:47:33Z</time>
      </trkpt>
      <trkpt lat="47.39013" lon="-0.8297">
        <ele>10</ele>
        <time>2013-08-28T08:47:34Z</time>
      </trkpt>
      <trkpt lat="47.39017" lon="-0.82979">
        <ele>10</ele>
        <time>2013-08-28T08:47:35Z</time>
      </trkpt>
      <trkpt lat="47.39038" lon="-0.83022">
        <ele>10</ele>
        <time>2013-08-28T08:47:40Z</time>
      </trkpt>
      <trkpt lat="47.39042" lon="-0.8303">
        <ele>10</ele>
        <time>2013-08-28T08:47:41Z</time>
      </trkpt>
      <trkpt lat="47.39045" lon="-0.83039">
        <ele>10</ele>
        <time>2013-08-28T08:47:42Z</time>
      </trkpt>
      <trkpt lat="47.39056" lon="-0.83088">
        <ele>10</ele>
        <time>2013-08-28T08:47:47Z</time>
      </trkpt>
      <trkpt lat="47.39057" lon="-0.83099">
        <ele>10</ele>
        <time>2013-08-28T08:47:48Z</time>
      </trkpt>
      <trkpt lat="47.39059" lon="-0.83109">
        <ele>10</ele>
        <time>2013-08-28T08:47:49Z</time>
      </trkpt>
      <trkpt lat="47.39062" lon="-0.83129">
        <ele>10</ele>
        <time>2013-08-28T08:47:54Z</time>
      </trkpt>
      <trkpt lat="47.39069" lon="-0.83168">
        <ele>10</ele>
        <time>2013-08-28T08:47:55Z</time>
      </trkpt>
      <trkpt lat="47.39071" lon="-0.83179">
        <ele>10</ele>
        <time>2013-08-28T08:47:56Z</time>
      </trkpt>
      <trkpt lat="47.39075" lon="-0.83199">
        <ele>10</ele>
        <time>2013-08-28T08:48:01Z</time>
      </trkpt>
      <trkpt lat="47.39084" lon="-0.83239">
        <ele>10</ele>
        <time>2013-08-28T08:48:02Z</time>
      </trkpt>
      <trkpt lat="47.39087" lon="-0.83249">
        <ele>10</ele>
        <time>2013-08-28T08:48:03Z</time>
      </trkpt>
      <trkpt lat="47.39092" lon="-0.83268">
        <ele>9</ele>
        <time>2013-08-28T08:48:08Z</time>
      </trkpt>
      <trkpt lat="47.39101" lon="-0.83307">
        <ele>9</ele>
        <time>2013-08-28T08:48:09Z</time>
      </trkpt>
      <trkpt lat="47.39103" lon="-0.83317">
        <ele>9</ele>
        <time>2013-08-28T08:48:10Z</time>
      </trkpt>
      <trkpt lat="47.39112" lon="-0.83368">
        <ele>9</ele>
        <time>2013-08-28T08:48:15Z</time>
      </trkpt>
      <trkpt lat="47.39114" lon="-0.83378">
        <ele>9</ele>
        <time>2013-08-28T08:48:16Z</time>
      </trkpt>
      <trkpt lat="47.39118" lon="-0.83388">
        <ele>9</ele>
        <time>2013-08-28T08:48:17Z</time>
      </trkpt>
      <trkpt lat="47.39125" lon="-0.83407">
        <ele>9</ele>
        <time>2013-08-28T08:48:22Z</time>
      </trkpt>
      <trkpt lat="47.39139" lon="-0.83445">
        <ele>9</ele>
        <time>2013-08-28T08:48:23Z</time>
      </trkpt>
      <trkpt lat="47.39143" lon="-0.83455">
        <ele>9</ele>
        <time>2013-08-28T08:48:24Z</time>
      </trkpt>
      <trkpt lat="47.39161" lon="-0.83501">
        <ele>9</ele>
        <time>2013-08-28T08:48:29Z</time>
      </trkpt>
      <trkpt lat="47.39165" lon="-0.8351">
        <ele>9</ele>
        <time>2013-08-28T08:48:30Z</time>
      </trkpt>
      <trkpt lat="47.39168" lon="-0.83519">
        <ele>9</ele>
        <time>2013-08-28T08:48:31Z</time>
      </trkpt>
      <trkpt lat="47.39175" lon="-0.83537">
        <ele>9</ele>
        <time>2013-08-28T08:48:36Z</time>
      </trkpt>
      <trkpt lat="47.3919" lon="-0.83573">
        <ele>9</ele>
        <time>2013-08-28T08:48:37Z</time>
      </trkpt>
      <trkpt lat="47.39194" lon="-0.83581">
        <ele>9</ele>
        <time>2013-08-28T08:48:38Z</time>
      </trkpt>
      <trkpt lat="47.39201" lon="-0.83599">
        <ele>9</ele>
        <time>2013-08-28T08:48:43Z</time>
      </trkpt>
      <trkpt lat="47.39217" lon="-0.83635">
        <ele>9</ele>
        <time>2013-08-28T08:48:44Z</time>
      </trkpt>
      <trkpt lat="47.3922" lon="-0.83644">
        <ele>9</ele>
        <time>2013-08-28T08:48:45Z</time>
      </trkpt>
      <trkpt lat="47.39228" lon="-0.83662">
        <ele>9</ele>
        <time>2013-08-28T08:48:50Z</time>
      </trkpt>
      <trkpt lat="47.39243" lon="-0.837">
        <ele>9</ele>
        <time>2013-08-28T08:48:51Z</time>
      </trkpt>
      <trkpt lat="47.39247" lon="-0.8371">
        <ele>9</ele>
        <time>2013-08-28T08:48:52Z</time>
      </trkpt>
      <trkpt lat="47.39254" lon="-0.83728">
        <ele>9</ele>
        <time>2013-08-28T08:48:57Z</time>
      </trkpt>
      <trkpt lat="47.39271" lon="-0.83762">
        <ele>9</ele>
        <time>2013-08-28T08:48:58Z</time>
      </trkpt>
      <trkpt lat="47.39275" lon="-0.83771">
        <ele>9</ele>
        <time>2013-08-28T08:48:59Z</time>
      </trkpt>
      <trkpt lat="47.39299" lon="-0.83809">
        <ele>8</ele>
        <time>2013-08-28T08:49:04Z</time>
      </trkpt>
      <trkpt lat="47.39305" lon="-0.83816">
        <ele>8</ele>
        <time>2013-08-28T08:49:05Z</time>
      </trkpt>
      <trkpt lat="47.3931" lon="-0.83824">
        <ele>8</ele>
        <time>2013-08-28T08:49:06Z</time>
      </trkpt>
      <trkpt lat="47.3932" lon="-0.83839">
        <ele>8</ele>
        <time>2013-08-28T08:49:11Z</time>
      </trkpt>
      <trkpt lat="47.39341" lon="-0.83867">
        <ele>8</ele>
        <time>2013-08-28T08:49:12Z</time>
      </trkpt>
      <trkpt lat="47.39346" lon="-0.83875">
        <ele>8</ele>
        <time>2013-08-28T08:49:13Z</time>
      </trkpt>
      <trkpt lat="47.39356" lon="-0.8389">
        <ele>8</ele>
        <time>2013-08-28T08:49:18Z</time>
      </trkpt>
      <trkpt lat="47.39376" lon="-0.83921">
        <ele>8</ele>
        <time>2013-08-28T08:49:19Z</time>
      </trkpt>
      <trkpt lat="47.3938" lon="-0.8393">
        <ele>8</ele>
        <time>2013-08-28T08:49:20Z</time>
      </trkpt>
      <trkpt lat="47.39389" lon="-0.83947">
        <ele>8</ele>
        <time>2013-08-28T08:49:25Z</time>
      </trkpt>
      <trkpt lat="47.39405" lon="-0.83982">
        <ele>8</ele>
        <time>2013-08-28T08:49:26Z</time>
      </trkpt>
      <trkpt lat="47.3941" lon="-0.8399">
        <ele>8</ele>
        <time>2013-08-28T08:49:27Z</time>
      </trkpt>
      <trkpt lat="47.39417" lon="-0.84008">
        <ele>8</ele>
        <time>2013-08-28T08:49:32Z</time>
      </trkpt>
      <trkpt lat="47.39433" lon="-0.84042">
        <ele>8</ele>
        <time>2013-08-28T08:49:33Z</time>
      </trkpt>
      <trkpt lat="47.39437" lon="-0.8405">
        <ele>8</ele>
        <time>2013-08-28T08:49:34Z</time>
      </trkpt>
      <trkpt lat="47.39445" lon="-0.84067">
        <ele>8</ele>
        <time>2013-08-28T08:49:39Z</time>
      </trkpt>
      <trkpt lat="47.39461" lon="-0.84101">
        <ele>8</ele>
        <time>2013-08-28T08:49:40Z</time>
      </trkpt>
      <trkpt lat="47.39465" lon="-0.84109">
        <ele>8</ele>
        <time>2013-08-28T08:49:41Z</time>
      </trkpt>
      <trkpt lat="47.39472" lon="-0.84125">
        <ele>8</ele>
        <time>2013-08-28T08:49:46Z</time>
      </trkpt>
      <trkpt lat="47.39486" lon="-0.84159">
        <ele>8</ele>
        <time>2013-08-28T08:49:47Z</time>
      </trkpt>
      <trkpt lat="47.3949" lon="-0.84167">
        <ele>8</ele>
        <time>2013-08-28T08:49:48Z</time>
      </trkpt>
      <trkpt lat="47.39497" lon="-0.84184">
        <ele>8</ele>
        <time>2013-08-28T08:49:53Z</time>
      </trkpt>
      <trkpt lat="47.3951" lon="-0.84219">
        <ele>8</ele>
        <time>2013-08-28T08:49:54Z</time>
      </trkpt>
      <trkpt lat="47.39513" lon="-0.84229">
        <ele>8</ele>
        <time>2013-08-28T08:49:55Z</time>
      </trkpt>
      <trkpt lat="47.39518" lon="-0.84248">
        <ele>8</ele>
        <time>2013-08-28T08:50:00Z</time>
      </trkpt>
      <trkpt lat="47.39522" lon="-0.84288">
        <ele>8</ele>
        <time>2013-08-28T08:50:01Z</time>
      </trkpt>
      <trkpt lat="47.39523" lon="-0.84298">
        <ele>8</ele>
        <time>2013-08-28T08:50:02Z</time>
      </trkpt>
      <trkpt lat="47.39523" lon="-0.84317">
        <ele>8</ele>
        <time>2013-08-28T08:50:07Z</time>
      </trkpt>
      <trkpt lat="47.39519" lon="-0.84357">
        <ele>8</ele>
        <time>2013-08-28T08:50:08Z</time>
      </trkpt>
      <trkpt lat="47.39518" lon="-0.84367">
        <ele>8</ele>
        <time>2013-08-28T08:50:09Z</time>
      </trkpt>
      <trkpt lat="47.39513" lon="-0.84386">
        <ele>8</ele>
        <time>2013-08-28T08:50:15Z</time>
      </trkpt>
      <trkpt lat="47.39504" lon="-0.84434">
        <ele>8</ele>
        <time>2013-08-28T08:50:16Z</time>
      </trkpt>
      <trkpt lat="47.39502" lon="-0.84454">
        <ele>8</ele>
        <time>2013-08-28T08:50:21Z</time>
      </trkpt>
      <trkpt lat="47.395" lon="-0.84491">
        <ele>8</ele>
        <time>2013-08-28T08:50:22Z</time>
      </trkpt>
      <trkpt lat="47.395" lon="-0.84501">
        <ele>8</ele>
        <time>2013-08-28T08:50:23Z</time>
      </trkpt>
      <trkpt lat="47.395" lon="-0.8452">
        <ele>8</ele>
        <time>2013-08-28T08:50:28Z</time>
      </trkpt>
      <trkpt lat="47.39502" lon="-0.84558">
        <ele>8</ele>
        <time>2013-08-28T08:50:29Z</time>
      </trkpt>
      <trkpt lat="47.39502" lon="-0.84569">
        <ele>9</ele>
        <time>2013-08-28T08:50:30Z</time>
      </trkpt>
      <trkpt lat="47.39501" lon="-0.84588">
        <ele>10</ele>
        <time>2013-08-28T08:50:35Z</time>
      </trkpt>
      <trkpt lat="47.395" lon="-0.84628">
        <ele>11</ele>
        <time>2013-08-28T08:50:36Z</time>
      </trkpt>
      <trkpt lat="47.395" lon="-0.84638">
        <ele>11</ele>
        <time>2013-08-28T08:50:37Z</time>
      </trkpt>
      <trkpt lat="47.395" lon="-0.84659">
        <ele>11</ele>
        <time>2013-08-28T08:50:42Z</time>
      </trkpt>
      <trkpt lat="47.39502" lon="-0.84697">
        <ele>11</ele>
        <time>2013-08-28T08:50:43Z</time>
      </trkpt>
      <trkpt lat="47.39502" lon="-0.84707">
        <ele>11</ele>
        <time>2013-08-28T08:50:44Z</time>
      </trkpt>
      <trkpt lat="47.39504" lon="-0.84725">
        <ele>11</ele>
        <time>2013-08-28T08:50:49Z</time>
      </trkpt>
      <trkpt lat="47.39507" lon="-0.84766">
        <ele>11</ele>
        <time>2013-08-28T08:50:50Z</time>
      </trkpt>
      <trkpt lat="47.39506" lon="-0.84776">
        <ele>11</ele>
        <time>2013-08-28T08:50:51Z</time>
      </trkpt>
      <trkpt lat="47.39507" lon="-0.84797">
        <ele>11</ele>
        <time>2013-08-28T08:50:56Z</time>
      </trkpt>
      <trkpt lat="47.39508" lon="-0.8484">
        <ele>11</ele>
        <time>2013-08-28T08:50:57Z</time>
      </trkpt>
      <trkpt lat="47.39509" lon="-0.84851">
        <ele>11</ele>
        <time>2013-08-28T08:50:58Z</time>
      </trkpt>
      <trkpt lat="47.39512" lon="-0.84872">
        <ele>11</ele>
        <time>2013-08-28T08:51:03Z</time>
      </trkpt>
      <trkpt lat="47.39523" lon="-0.8491">
        <ele>11</ele>
        <time>2013-08-28T08:51:04Z</time>
      </trkpt>
      <trkpt lat="47.39526" lon="-0.84919">
        <ele>10</ele>
        <time>2013-08-28T08:51:05Z</time>
      </trkpt>
      <trkpt lat="47.39532" lon="-0.84938">
        <ele>9</ele>
        <time>2013-08-28T08:51:10Z</time>
      </trkpt>
      <trkpt lat="47.39545" lon="-0.84975">
        <ele>8</ele>
        <time>2013-08-28T08:51:11Z</time>
      </trkpt>
      <trkpt lat="47.39547" lon="-0.84985">
        <ele>8</ele>
        <time>2013-08-28T08:51:12Z</time>
      </trkpt>
      <trkpt lat="47.39553" lon="-0.85003">
        <ele>8</ele>
        <time>2013-08-28T08:51:17Z</time>
      </trkpt>
      <trkpt lat="47.39564" lon="-0.8504">
        <ele>8</ele>
        <time>2013-08-28T08:51:18Z</time>
      </trkpt>
      <trkpt lat="47.39566" lon="-0.85049">
        <ele>8</ele>
        <time>2013-08-28T08:51:19Z</time>
      </trkpt>
      <trkpt lat="47.39571" lon="-0.85069">
        <ele>8</ele>
        <time>2013-08-28T08:51:24Z</time>
      </trkpt>
      <trkpt lat="47.39581" lon="-0.85106">
        <ele>8</ele>
        <time>2013-08-28T08:51:25Z</time>
      </trkpt>
      <trkpt lat="47.39584" lon="-0.85115">
        <ele>8</ele>
        <time>2013-08-28T08:51:26Z</time>
      </trkpt>
      <trkpt lat="47.39588" lon="-0.85135">
        <ele>8</ele>
        <time>2013-08-28T08:51:31Z</time>
      </trkpt>
      <trkpt lat="47.39591" lon="-0.85174">
        <ele>8</ele>
        <time>2013-08-28T08:51:32Z</time>
      </trkpt>
      <trkpt lat="47.39591" lon="-0.85184">
        <ele>8</ele>
        <time>2013-08-28T08:51:33Z</time>
      </trkpt>
      <trkpt lat="47.39593" lon="-0.85202">
        <ele>8</ele>
        <time>2013-08-28T08:51:38Z</time>
      </trkpt>
      <trkpt lat="47.39596" lon="-0.85238">
        <ele>8</ele>
        <time>2013-08-28T08:51:39Z</time>
      </trkpt>
      <trkpt lat="47.39596" lon="-0.85248">
        <ele>8</ele>
        <time>2013-08-28T08:51:40Z</time>
      </trkpt>
      <trkpt lat="47.39598" lon="-0.85267">
        <ele>8</ele>
        <time>2013-08-28T08:51:45Z</time>
      </trkpt>
      <trkpt lat="47.396" lon="-0.85305">
        <ele>8</ele>
        <time>2013-08-28T08:51:46Z</time>
      </trkpt>
      <trkpt lat="47.396" lon="-0.85314">
        <ele>8</ele>
        <time>2013-08-28T08:51:47Z</time>
      </trkpt>
      <trkpt lat="47.39602" lon="-0.85334">
        <ele>8</ele>
        <time>2013-08-28T08:51:52Z</time>
      </trkpt>
      <trkpt lat="47.39603" lon="-0.85372">
        <ele>9</ele>
        <time>2013-08-28T08:51:53Z</time>
      </trkpt>
      <trkpt lat="47.39603" lon="-0.85381">
        <ele>10</ele>
        <time>2013-08-28T08:51:54Z</time>
      </trkpt>
      <trkpt lat="47.39604" lon="-0.854">
        <ele>11</ele>
        <time>2013-08-28T08:51:59Z</time>
      </trkpt>
      <trkpt lat="47.39606" lon="-0.85439">
        <ele>12</ele>
        <time>2013-08-28T08:52:00Z</time>
      </trkpt>
      <trkpt lat="47.39606" lon="-0.85448">
        <ele>13</ele>
        <time>2013-08-28T08:52:01Z</time>
      </trkpt>
      <trkpt lat="47.39607" lon="-0.85468">
        <ele>13</ele>
        <time>2013-08-28T08:52:06Z</time>
      </trkpt>
      <trkpt lat="47.39609" lon="-0.85508">
        <ele>14</ele>
        <time>2013-08-28T08:52:07Z</time>
      </trkpt>
      <trkpt lat="47.3961" lon="-0.85519">
        <ele>14</ele>
        <time>2013-08-28T08:52:08Z</time>
      </trkpt>
      <trkpt lat="47.39611" lon="-0.85539">
        <ele>14</ele>
        <time>2013-08-28T08:52:13Z</time>
      </trkpt>
      <trkpt lat="47.39611" lon="-0.85582">
        <ele>14</ele>
        <time>2013-08-28T08:52:14Z</time>
      </trkpt>
      <trkpt lat="47.39611" lon="-0.85592">
        <ele>14</ele>
        <time>2013-08-28T08:52:15Z</time>
      </trkpt>
      <trkpt lat="47.39612" lon="-0.85612">
        <ele>14</ele>
        <time>2013-08-28T08:52:20Z</time>
      </trkpt>
      <trkpt lat="47.39612" lon="-0.8565">
        <ele>14</ele>
        <time>2013-08-28T08:52:21Z</time>
      </trkpt>
      <trkpt lat="47.39611" lon="-0.8566">
        <ele>14</ele>
        <time>2013-08-28T08:52:22Z</time>
      </trkpt>
      <trkpt lat="47.39611" lon="-0.85677">
        <ele>13</ele>
        <time>2013-08-28T08:52:27Z</time>
      </trkpt>
      <trkpt lat="47.39616" lon="-0.85713">
        <ele>12</ele>
        <time>2013-08-28T08:52:28Z</time>
      </trkpt>
      <trkpt lat="47.3962" lon="-0.85721">
        <ele>12</ele>
        <time>2013-08-28T08:52:29Z</time>
      </trkpt>
      <trkpt lat="47.39625" lon="-0.85727">
        <ele>12</ele>
        <time>2013-08-28T08:52:30Z</time>
      </trkpt>
      <trkpt lat="47.39636" lon="-0.85733">
        <ele>12</ele>
        <time>2013-08-28T08:52:35Z</time>
      </trkpt>
      <trkpt lat="47.3966" lon="-0.8574">
        <ele>12</ele>
        <time>2013-08-28T08:52:36Z</time>
      </trkpt>
      <trkpt lat="47.39665" lon="-0.85742">
        <ele>12</ele>
        <time>2013-08-28T08:52:37Z</time>
      </trkpt>
      <trkpt lat="47.39674" lon="-0.85747">
        <ele>12</ele>
        <time>2013-08-28T08:52:42Z</time>
      </trkpt>
      <trkpt lat="47.39683" lon="-0.85756">
        <ele>12</ele>
        <time>2013-08-28T08:52:43Z</time>
      </trkpt>
      <trkpt lat="47.39684" lon="-0.85758">
        <ele>12</ele>
        <time>2013-08-28T08:52:44Z</time>
      </trkpt>
      <trkpt lat="47.39685" lon="-0.85759">
        <ele>12</ele>
        <time>2013-08-28T08:52:45Z</time>
      </trkpt>
      <trkpt lat="47.39687" lon="-0.85761">
        <ele>12</ele>
        <time>2013-08-28T08:52:50Z</time>
      </trkpt>
      <trkpt lat="47.39685" lon="-0.85761">
        <ele>12</ele>
        <time>2013-08-28T08:52:53Z</time>
      </trkpt>
      <trkpt lat="47.39684" lon="-0.85764">
        <ele>12</ele>
        <time>2013-08-28T08:53:00Z</time>
      </trkpt>
      <trkpt lat="47.39684" lon="-0.85766">
        <ele>12</ele>
        <time>2013-08-28T08:53:01Z</time>
      </trkpt>
      <trkpt lat="47.39683" lon="-0.85766">
        <ele>14</ele>
        <time>2013-08-28T08:53:03Z</time>
      </trkpt>
      <trkpt lat="47.39684" lon="-0.8577">
        <ele>14</ele>
        <time>2013-08-28T08:53:09Z</time>
      </trkpt>
      <trkpt lat="47.39682" lon="-0.85772">
        <ele>14</ele>
        <time>2013-08-28T08:53:11Z</time>
      </trkpt>
      <trkpt lat="47.39689" lon="-0.85769">
        <ele>14</ele>
        <time>2013-08-28T08:53:17Z</time>
      </trkpt>
      <trkpt lat="47.3969" lon="-0.85769">
        <ele>14</ele>
        <time>2013-08-28T08:53:18Z</time>
      </trkpt>
      <trkpt lat="47.39691" lon="-0.85771">
        <ele>14</ele>
        <time>2013-08-28T08:53:19Z</time>
      </trkpt>
      <trkpt lat="47.39692" lon="-0.85773">
        <ele>14</ele>
        <time>2013-08-28T08:53:20Z</time>
      </trkpt>
      <trkpt lat="47.39693" lon="-0.85778">
        <ele>15</ele>
        <time>2013-08-28T08:53:26Z</time>
      </trkpt>
      <trkpt lat="47.39694" lon="-0.85778">
        <ele>17</ele>
        <time>2013-08-28T08:53:28Z</time>
      </trkpt>
      <trkpt lat="47.39698" lon="-0.85774">
        <ele>19</ele>
        <time>2013-08-28T08:53:34Z</time>
      </trkpt>
      <trkpt lat="47.397" lon="-0.85771">
        <ele>20</ele>
        <time>2013-08-28T08:53:35Z</time>
      </trkpt>
      <trkpt lat="47.397" lon="-0.85769">
        <ele>21</ele>
        <time>2013-08-28T08:53:36Z</time>
      </trkpt>
      <trkpt lat="47.397" lon="-0.85767">
        <ele>24</ele>
        <time>2013-08-28T08:53:45Z</time>
      </trkpt>
      <trkpt lat="47.39698" lon="-0.85767">
        <ele>24</ele>
        <time>2013-08-28T08:53:46Z</time>
      </trkpt>
      <trkpt lat="47.39693" lon="-0.85762">
        <ele>24</ele>
        <time>2013-08-28T08:53:52Z</time>
      </trkpt>
      <trkpt lat="47.39692" lon="-0.85762">
        <ele>23</ele>
        <time>2013-08-28T08:53:59Z</time>
      </trkpt>
      <trkpt lat="47.39692" lon="-0.85764">
        <ele>20</ele>
        <time>2013-08-28T08:54:02Z</time>
      </trkpt>
      <trkpt lat="47.39691" lon="-0.85766">
        <ele>19</ele>
        <time>2013-08-28T08:54:08Z</time>
      </trkpt>
      <trkpt lat="47.39689" lon="-0.85765">
        <ele>19</ele>
        <time>2013-08-28T08:54:09Z</time>
      </trkpt>
      <trkpt lat="47.39688" lon="-0.85764">
        <ele>19</ele>
        <time>2013-08-28T08:54:16Z</time>
      </trkpt>
      <trkpt lat="47.39688" lon="-0.85761">
        <ele>19</ele>
        <time>2013-08-28T08:54:17Z</time>
      </trkpt>
      <trkpt lat="47.39689" lon="-0.85758">
        <ele>19</ele>
        <time>2013-08-28T08:54:19Z</time>
      </trkpt>
      <trkpt lat="47.39687" lon="-0.8576">
        <ele>17</ele>
        <time>2013-08-28T08:54:25Z</time>
      </trkpt>
      <trkpt lat="47.39687" lon="-0.85762">
        <ele>13</ele>
        <time>2013-08-28T08:54:41Z</time>
      </trkpt>
      <trkpt lat="47.3969" lon="-0.85761">
        <ele>12</ele>
        <time>2013-08-28T08:54:42Z</time>
      </trkpt>
      <trkpt lat="47.3969" lon="-0.85764">
        <ele>11</ele>
        <time>2013-08-28T08:54:44Z</time>
      </trkpt>
      <trkpt lat="47.3969" lon="-0.85761">
        <ele>10</ele>
        <time>2013-08-28T08:54:50Z</time>
      </trkpt>
      <trkpt lat="47.39688" lon="-0.85761">
        <ele>7</ele>
        <time>2013-08-28T08:54:52Z</time>
      </trkpt>
      <trkpt lat="47.39693" lon="-0.85756">
        <ele>5</ele>
        <time>2013-08-28T08:54:59Z</time>
      </trkpt>
      <trkpt lat="47.39696" lon="-0.85752">
        <ele>4</ele>
        <time>2013-08-28T08:55:06Z</time>
      </trkpt>
      <trkpt lat="47.39697" lon="-0.85747">
        <ele>4</ele>
        <time>2013-08-28T08:55:07Z</time>
      </trkpt>
      <trkpt lat="47.39697" lon="-0.85746">
        <ele>4</ele>
        <time>2013-08-28T08:55:09Z</time>
      </trkpt>
      <trkpt lat="47.39693" lon="-0.85748">
        <ele>4</ele>
        <time>2013-08-28T08:55:15Z</time>
      </trkpt>
      <trkpt lat="47.39696" lon="-0.85748">
        <ele>2</ele>
        <time>2013-08-28T08:55:24Z</time>
      </trkpt>
      <trkpt lat="47.39699" lon="-0.85749">
        <ele>15.1</ele>
        <time>2013-08-28T08:55:31Z</time>
      </trkpt>
      <trkpt lat="47.39702" lon="-0.85753">
        <ele>15.2</ele>
        <time>2013-08-28T08:55:32Z</time>
      </trkpt>
      <trkpt lat="47.39703" lon="-0.85755">
        <ele>15.2</ele>
        <time>2013-08-28T08:55:34Z</time>
      </trkpt>
      <trkpt lat="47.39705" lon="-0.85755">
        <ele>15.3</ele>
        <time>2013-08-28T08:55:39Z</time>
      </trkpt>
      <trkpt lat="47.39716" lon="-0.85748">
        <ele>1</ele>
        <time>2013-08-28T08:55:39Z</time>
      </trkpt>
      <trkpt lat="47.3972" lon="-0.85746">
        <ele>2</ele>
        <time>2013-08-28T08:55:40Z</time>
      </trkpt>
      <trkpt lat="47.39729" lon="-0.8574">
        <ele>3</ele>
        <time>2013-08-28T08:55:46Z</time>
      </trkpt>
      <trkpt lat="47.39745" lon="-0.85728">
        <ele>4</ele>
        <time>2013-08-28T08:55:46Z</time>
      </trkpt>
      <trkpt lat="47.3975" lon="-0.85724">
        <ele>4</ele>
        <time>2013-08-28T08:55:47Z</time>
      </trkpt>
      <trkpt lat="47.39759" lon="-0.85718">
        <ele>4</ele>
        <time>2013-08-28T08:55:53Z</time>
      </trkpt>
      <trkpt lat="47.39781" lon="-0.85705">
        <ele>4</ele>
        <time>2013-08-28T08:55:53Z</time>
      </trkpt>
      <trkpt lat="47.39786" lon="-0.85701">
        <ele>5</ele>
        <time>2013-08-28T08:55:54Z</time>
      </trkpt>
      <trkpt lat="47.39795" lon="-0.85694">
        <ele>5</ele>
        <time>2013-08-28T08:56:00Z</time>
      </trkpt>
      <trkpt lat="47.39816" lon="-0.85678">
        <ele>5</ele>
        <time>2013-08-28T08:56:00Z</time>
      </trkpt>
      <trkpt lat="47.39822" lon="-0.85674">
        <ele>5</ele>
        <time>2013-08-28T08:56:02Z</time>
      </trkpt>
      <trkpt lat="47.39833" lon="-0.85666">
        <ele>5</ele>
        <time>2013-08-28T08:56:07Z</time>
      </trkpt>
      <trkpt lat="47.39857" lon="-0.8565">
        <ele>5</ele>
        <time>2013-08-28T08:56:07Z</time>
      </trkpt>
      <trkpt lat="47.39862" lon="-0.85646">
        <ele>5</ele>
        <time>2013-08-28T08:56:08Z</time>
      </trkpt>
      <trkpt lat="47.39873" lon="-0.85638">
        <ele>5</ele>
        <time>2013-08-28T08:56:14Z</time>
      </trkpt>
      <trkpt lat="47.39898" lon="-0.8562">
        <ele>5</ele>
        <time>2013-08-28T08:56:14Z</time>
      </trkpt>
      <trkpt lat="47.39905" lon="-0.85615">
        <ele>5</ele>
        <time>2013-08-28T08:56:15Z</time>
      </trkpt>
      <trkpt lat="47.3992" lon="-0.85606">
        <ele>5</ele>
        <time>2013-08-28T08:56:21Z</time>
      </trkpt>
      <trkpt lat="47.39947" lon="-0.85587">
        <ele>5</ele>
        <time>2013-08-28T08:56:21Z</time>
      </trkpt>
      <trkpt lat="47.39952" lon="-0.85583">
        <ele>5</ele>
        <time>2013-08-28T08:56:22Z</time>
      </trkpt>
      <trkpt lat="47.39965" lon="-0.85575">
        <ele>5</ele>
        <time>2013-08-28T08:56:28Z</time>
      </trkpt>
      <trkpt lat="47.3999" lon="-0.85557">
        <ele>6</ele>
        <time>2013-08-28T08:56:28Z</time>
      </trkpt>
      <trkpt lat="47.39996" lon="-0.85553">
        <ele>6</ele>
        <time>2013-08-28T08:56:29Z</time>
      </trkpt>
      <trkpt lat="47.40009" lon="-0.85544">
        <ele>6</ele>
        <time>2013-08-28T08:56:35Z</time>
      </trkpt>
      <trkpt lat="47.40032" lon="-0.85528">
        <ele>6</ele>
        <time>2013-08-28T08:56:35Z</time>
      </trkpt>
      <trkpt lat="47.40038" lon="-0.85523">
        <ele>6</ele>
        <time>2013-08-28T08:56:36Z</time>
      </trkpt>
      <trkpt lat="47.4005" lon="-0.85515">
        <ele>6</ele>
        <time>2013-08-28T08:56:42Z</time>
      </trkpt>
      <trkpt lat="47.40075" lon="-0.85497">
        <ele>6</ele>
        <time>2013-08-28T08:56:42Z</time>
      </trkpt>
      <trkpt lat="47.40081" lon="-0.85492">
        <ele>6</ele>
        <time>2013-08-28T08:56:43Z</time>
      </trkpt>
      <trkpt lat="47.40094" lon="-0.85484">
        <ele>6</ele>
        <time>2013-08-28T08:56:49Z</time>
      </trkpt>
      <trkpt lat="47.40119" lon="-0.85466">
        <ele>6</ele>
        <time>2013-08-28T08:56:49Z</time>
      </trkpt>
      <trkpt lat="47.40126" lon="-0.85461">
        <ele>6</ele>
        <time>2013-08-28T08:56:50Z</time>
      </trkpt>
      <trkpt lat="47.4014" lon="-0.85452">
        <ele>6</ele>
        <time>2013-08-28T08:56:56Z</time>
      </trkpt>
      <trkpt lat="47.40165" lon="-0.85434">
        <ele>6</ele>
        <time>2013-08-28T08:56:56Z</time>
      </trkpt>
      <trkpt lat="47.40171" lon="-0.8543">
        <ele>6</ele>
        <time>2013-08-28T08:56:57Z</time>
      </trkpt>
      <trkpt lat="47.40184" lon="-0.85421">
        <ele>6</ele>
        <time>2013-08-28T08:57:03Z</time>
      </trkpt>
      <trkpt lat="47.40209" lon="-0.85404">
        <ele>6</ele>
        <time>2013-08-28T08:57:03Z</time>
      </trkpt>
      <trkpt lat="47.40216" lon="-0.85399">
        <ele>6</ele>
        <time>2013-08-28T08:57:04Z</time>
      </trkpt>
      <trkpt lat="47.40227" lon="-0.85391">
        <ele>6</ele>
        <time>2013-08-28T08:57:10Z</time>
      </trkpt>
      <trkpt lat="47.40248" lon="-0.85379">
        <ele>6</ele>
        <time>2013-08-28T08:57:10Z</time>
      </trkpt>
      <trkpt lat="47.40252" lon="-0.85376">
        <ele>6</ele>
        <time>2013-08-28T08:57:11Z</time>
      </trkpt>
      <trkpt lat="47.40258" lon="-0.85372">
        <ele>6</ele>
        <time>2013-08-28T08:57:17Z</time>
      </trkpt>
      <trkpt lat="47.40273" lon="-0.85368">
        <ele>6</ele>
        <time>2013-08-28T08:57:17Z</time>
      </trkpt>
      <trkpt lat="47.40276" lon="-0.85372">
        <ele>6</ele>
        <time>2013-08-28T08:57:19Z</time>
      </trkpt>
      <trkpt lat="47.40278" lon="-0.85376">
        <ele>6</ele>
        <time>2013-08-28T08:57:20Z</time>
      </trkpt>
      <trkpt lat="47.40284" lon="-0.85388">
        <ele>6</ele>
        <time>2013-08-28T08:57:26Z</time>
      </trkpt>
      <trkpt lat="47.40296" lon="-0.85427">
        <ele>6</ele>
        <time>2013-08-28T08:57:26Z</time>
      </trkpt>
      <trkpt lat="47.40303" lon="-0.85444">
        <ele>6</ele>
        <time>2013-08-28T08:57:32Z</time>
      </trkpt>
      <trkpt lat="47.40316" lon="-0.85482">
        <ele>6</ele>
        <time>2013-08-28T08:57:32Z</time>
      </trkpt>
      <trkpt lat="47.40318" lon="-0.85492">
        <ele>6</ele>
        <time>2013-08-28T08:57:33Z</time>
      </trkpt>
      <trkpt lat="47.40324" lon="-0.8551">
        <ele>6</ele>
        <time>2013-08-28T08:57:39Z</time>
      </trkpt>
      <trkpt lat="47.40336" lon="-0.85548">
        <ele>6</ele>
        <time>2013-08-28T08:57:39Z</time>
      </trkpt>
      <trkpt lat="47.40339" lon="-0.85558">
        <ele>6</ele>
        <time>2013-08-28T08:57:40Z</time>
      </trkpt>
      <trkpt lat="47.40345" lon="-0.85577">
        <ele>6</ele>
        <time>2013-08-28T08:57:46Z</time>
      </trkpt>
      <trkpt lat="47.40356" lon="-0.85617">
        <ele>6</ele>
        <time>2013-08-28T08:57:46Z</time>
      </trkpt>
      <trkpt lat="47.40359" lon="-0.85627">
        <ele>6</ele>
        <time>2013-08-28T08:57:47Z</time>
      </trkpt>
      <trkpt lat="47.40364" lon="-0.85646">
        <ele>6</ele>
        <time>2013-08-28T08:57:53Z</time>
      </trkpt>
      <trkpt lat="47.40376" lon="-0.85687">
        <ele>6</ele>
        <time>2013-08-28T08:57:53Z</time>
      </trkpt>
      <trkpt lat="47.40379" lon="-0.85697">
        <ele>6</ele>
        <time>2013-08-28T08:57:54Z</time>
      </trkpt>
      <trkpt lat="47.40384" lon="-0.85716">
        <ele>6</ele>
        <time>2013-08-28T08:58:00Z</time>
      </trkpt>
      <trkpt lat="47.40397" lon="-0.85755">
        <ele>6</ele>
        <time>2013-08-28T08:58:00Z</time>
      </trkpt>
      <trkpt lat="47.404" lon="-0.85765">
        <ele>6</ele>
        <time>2013-08-28T08:58:01Z</time>
      </trkpt>
      <trkpt lat="47.40411" lon="-0.8578">
        <ele>6</ele>
        <time>2013-08-28T08:58:07Z</time>
      </trkpt>
      <trkpt lat="47.40435" lon="-0.85801">
        <ele>6</ele>
        <time>2013-08-28T08:58:07Z</time>
      </trkpt>
      <trkpt lat="47.40441" lon="-0.85807">
        <ele>6</ele>
        <time>2013-08-28T08:58:09Z</time>
      </trkpt>
      <trkpt lat="47.40447" lon="-0.85812">
        <ele>6</ele>
        <time>2013-08-28T08:58:10Z</time>
      </trkpt>
      <trkpt lat="47.40459" lon="-0.85822">
        <ele>6</ele>
        <time>2013-08-28T08:58:15Z</time>
      </trkpt>
      <trkpt lat="47.40484" lon="-0.85841">
        <ele>6</ele>
        <time>2013-08-28T08:58:16Z</time>
      </trkpt>
      <trkpt lat="47.4049" lon="-0.85846">
        <ele>6</ele>
        <time>2013-08-28T08:58:16Z</time>
      </trkpt>
      <trkpt lat="47.40501" lon="-0.85856">
        <ele>7</ele>
        <time>2013-08-28T08:58:22Z</time>
      </trkpt>
      <trkpt lat="47.40526" lon="-0.85876">
        <ele>8</ele>
        <time>2013-08-28T08:58:22Z</time>
      </trkpt>
      <trkpt lat="47.40532" lon="-0.85881">
        <ele>9</ele>
        <time>2013-08-28T08:58:23Z</time>
      </trkpt>
      <trkpt lat="47.40545" lon="-0.85892">
        <ele>10</ele>
        <time>2013-08-28T08:58:29Z</time>
      </trkpt>
      <trkpt lat="47.40569" lon="-0.85915">
        <ele>10</ele>
        <time>2013-08-28T08:58:29Z</time>
      </trkpt>
      <trkpt lat="47.40575" lon="-0.8592">
        <ele>10</ele>
        <time>2013-08-28T08:58:30Z</time>
      </trkpt>
      <trkpt lat="47.40587" lon="-0.8593">
        <ele>10</ele>
        <time>2013-08-28T08:58:36Z</time>
      </trkpt>
      <trkpt lat="47.40611" lon="-0.85951">
        <ele>10</ele>
        <time>2013-08-28T08:58:36Z</time>
      </trkpt>
      <trkpt lat="47.40617" lon="-0.85956">
        <ele>10</ele>
        <time>2013-08-28T08:58:37Z</time>
      </trkpt>
      <trkpt lat="47.40629" lon="-0.85966">
        <ele>10</ele>
        <time>2013-08-28T08:58:43Z</time>
      </trkpt>
      <trkpt lat="47.40653" lon="-0.85985">
        <ele>10</ele>
        <time>2013-08-28T08:58:43Z</time>
      </trkpt>
      <trkpt lat="47.40659" lon="-0.85991">
        <ele>10</ele>
        <time>2013-08-28T08:58:44Z</time>
      </trkpt>
      <trkpt lat="47.40672" lon="-0.86002">
        <ele>11</ele>
        <time>2013-08-28T08:58:50Z</time>
      </trkpt>
      <trkpt lat="47.40697" lon="-0.86021">
        <ele>12</ele>
        <time>2013-08-28T08:58:50Z</time>
      </trkpt>
      <trkpt lat="47.40704" lon="-0.86026">
        <ele>13</ele>
        <time>2013-08-28T08:58:51Z</time>
      </trkpt>
      <trkpt lat="47.40716" lon="-0.86034">
        <ele>13</ele>
        <time>2013-08-28T08:58:57Z</time>
      </trkpt>
      <trkpt lat="47.40741" lon="-0.86058">
        <ele>13</ele>
        <time>2013-08-28T08:58:57Z</time>
      </trkpt>
      <trkpt lat="47.40747" lon="-0.86063">
        <ele>13</ele>
        <time>2013-08-28T08:58:58Z</time>
      </trkpt>
      <trkpt lat="47.40759" lon="-0.86074">
        <ele>13</ele>
        <time>2013-08-28T08:59:04Z</time>
      </trkpt>
      <trkpt lat="47.40786" lon="-0.86098">
        <ele>13</ele>
        <time>2013-08-28T08:59:04Z</time>
      </trkpt>
      <trkpt lat="47.40792" lon="-0.86104">
        <ele>13</ele>
        <time>2013-08-28T08:59:05Z</time>
      </trkpt>
      <trkpt lat="47.40805" lon="-0.86115">
        <ele>13</ele>
        <time>2013-08-28T08:59:11Z</time>
      </trkpt>
      <trkpt lat="47.4083" lon="-0.86138">
        <ele>13</ele>
        <time>2013-08-28T08:59:11Z</time>
      </trkpt>
      <trkpt lat="47.40836" lon="-0.86144">
        <ele>13</ele>
        <time>2013-08-28T08:59:12Z</time>
      </trkpt>
      <trkpt lat="47.40848" lon="-0.86155">
        <ele>13</ele>
        <time>2013-08-28T08:59:18Z</time>
      </trkpt>
      <trkpt lat="47.40872" lon="-0.86176">
        <ele>13</ele>
        <time>2013-08-28T08:59:18Z</time>
      </trkpt>
      <trkpt lat="47.40878" lon="-0.86181">
        <ele>13</ele>
        <time>2013-08-28T08:59:19Z</time>
      </trkpt>
      <trkpt lat="47.4089" lon="-0.86192">
        <ele>13</ele>
        <time>2013-08-28T08:59:25Z</time>
      </trkpt>
      <trkpt lat="47.40913" lon="-0.86212">
        <ele>13</ele>
        <time>2013-08-28T08:59:25Z</time>
      </trkpt>
      <trkpt lat="47.40918" lon="-0.86218">
        <ele>12</ele>
        <time>2013-08-28T08:59:26Z</time>
      </trkpt>
      <trkpt lat="47.40928" lon="-0.86231">
        <ele>12</ele>
        <time>2013-08-28T08:59:32Z</time>
      </trkpt>
      <trkpt lat="47.40947" lon="-0.86257">
        <ele>11</ele>
        <time>2013-08-28T08:59:32Z</time>
      </trkpt>
      <trkpt lat="47.40953" lon="-0.8626">
        <ele>11</ele>
        <time>2013-08-28T08:59:34Z</time>
      </trkpt>
      <trkpt lat="47.4096" lon="-0.86262">
        <ele>10</ele>
        <time>2013-08-28T08:59:35Z</time>
      </trkpt>
      <trkpt lat="47.40969" lon="-0.86262">
        <ele>10</ele>
        <time>2013-08-28T08:59:41Z</time>
      </trkpt>
      <trkpt lat="47.40985" lon="-0.86263">
        <ele>9</ele>
        <time>2013-08-28T08:59:41Z</time>
      </trkpt>
      <trkpt lat="47.40993" lon="-0.86265">
        <ele>9</ele>
        <time>2013-08-28T08:59:47Z</time>
      </trkpt>
      <trkpt lat="47.4101" lon="-0.86263">
        <ele>9</ele>
        <time>2013-08-28T08:59:47Z</time>
      </trkpt>
      <trkpt lat="47.41014" lon="-0.86262">
        <ele>9</ele>
        <time>2013-08-28T08:59:48Z</time>
      </trkpt>
      <trkpt lat="47.41022" lon="-0.86261">
        <ele>9</ele>
        <time>2013-08-28T08:59:54Z</time>
      </trkpt>
      <trkpt lat="47.41038" lon="-0.86262">
        <ele>10</ele>
        <time>2013-08-28T08:59:54Z</time>
      </trkpt>
      <trkpt lat="47.41042" lon="-0.86262">
        <ele>11</ele>
        <time>2013-08-28T08:59:55Z</time>
      </trkpt>
      <trkpt lat="47.41051" lon="-0.86262">
        <ele>12</ele>
        <time>2013-08-28T09:00:01Z</time>
      </trkpt>
      <trkpt lat="47.41067" lon="-0.86266">
        <ele>13</ele>
        <time>2013-08-28T09:00:01Z</time>
      </trkpt>
      <trkpt lat="47.41071" lon="-0.86269">
        <ele>14</ele>
        <time>2013-08-28T09:00:02Z</time>
      </trkpt>
      <trkpt lat="47.41075" lon="-0.86271">
        <ele>15</ele>
        <time>2013-08-28T09:00:04Z</time>
      </trkpt>
      <trkpt lat="47.41082" lon="-0.86276">
        <ele>16</ele>
        <time>2013-08-28T09:00:09Z</time>
      </trkpt>
      <trkpt lat="47.41093" lon="-0.86292">
        <ele>17</ele>
        <time>2013-08-28T09:00:09Z</time>
      </trkpt>
      <trkpt lat="47.41097" lon="-0.86297">
        <ele>17</ele>
        <time>2013-08-28T09:00:11Z</time>
      </trkpt>
      <trkpt lat="47.411" lon="-0.86301">
        <ele>17</ele>
        <time>2013-08-28T09:00:12Z</time>
      </trkpt>
      <trkpt lat="47.41106" lon="-0.8631">
        <ele>17</ele>
        <time>2013-08-28T09:00:17Z</time>
      </trkpt>
      <trkpt lat="47.41117" lon="-0.8633">
        <ele>17</ele>
        <time>2013-08-28T09:00:18Z</time>
      </trkpt>
      <trkpt lat="47.4112" lon="-0.86336">
        <ele>17</ele>
        <time>2013-08-28T09:00:18Z</time>
      </trkpt>
      <trkpt lat="47.41125" lon="-0.86346">
        <ele>17</ele>
        <time>2013-08-28T09:00:24Z</time>
      </trkpt>
      <trkpt lat="47.41137" lon="-0.86367">
        <ele>17</ele>
        <time>2013-08-28T09:00:25Z</time>
      </trkpt>
      <trkpt lat="47.4114" lon="-0.86373">
        <ele>17</ele>
        <time>2013-08-28T09:00:25Z</time>
      </trkpt>
      <trkpt lat="47.41146" lon="-0.86383">
        <ele>17</ele>
        <time>2013-08-28T09:00:31Z</time>
      </trkpt>
      <trkpt lat="47.41159" lon="-0.86403">
        <ele>17</ele>
        <time>2013-08-28T09:00:32Z</time>
      </trkpt>
      <trkpt lat="47.41162" lon="-0.86407">
        <ele>18</ele>
        <time>2013-08-28T09:00:33Z</time>
      </trkpt>
      <trkpt lat="47.41166" lon="-0.86411">
        <ele>18</ele>
        <time>2013-08-28T09:00:34Z</time>
      </trkpt>
      <trkpt lat="47.41174" lon="-0.86419">
        <ele>19</ele>
        <time>2013-08-28T09:00:39Z</time>
      </trkpt>
      <trkpt lat="47.4119" lon="-0.86431">
        <ele>20</ele>
        <time>2013-08-28T09:00:39Z</time>
      </trkpt>
      <trkpt lat="47.41194" lon="-0.86431">
        <ele>21</ele>
        <time>2013-08-28T09:00:41Z</time>
      </trkpt>
      <trkpt lat="47.41198" lon="-0.86431">
        <ele>22</ele>
        <time>2013-08-28T09:00:42Z</time>
      </trkpt>
      <trkpt lat="47.41206" lon="-0.86433">
        <ele>23</ele>
        <time>2013-08-28T09:00:47Z</time>
      </trkpt>
      <trkpt lat="47.4122" lon="-0.86435">
        <ele>24</ele>
        <time>2013-08-28T09:00:47Z</time>
      </trkpt>
      <trkpt lat="47.41223" lon="-0.86436">
        <ele>25</ele>
        <time>2013-08-28T09:00:48Z</time>
      </trkpt>
      <trkpt lat="47.41227" lon="-0.86436">
        <ele>26</ele>
        <time>2013-08-28T09:00:54Z</time>
      </trkpt>
      <trkpt lat="47.41233" lon="-0.86434">
        <ele>27</ele>
        <time>2013-08-28T09:00:54Z</time>
      </trkpt>
      <trkpt lat="47.41237" lon="-0.86433">
        <ele>30</ele>
        <time>2013-08-28T09:01:02Z</time>
      </trkpt>
      <trkpt lat="47.41238" lon="-0.86431">
        <ele>30</ele>
        <time>2013-08-28T09:01:02Z</time>
      </trkpt>
      <trkpt lat="47.4124" lon="-0.86431">
        <ele>30</ele>
        <time>2013-08-28T09:01:04Z</time>
      </trkpt>
      <trkpt lat="47.41242" lon="-0.8643">
        <ele>30</ele>
        <time>2013-08-28T09:01:05Z</time>
      </trkpt>
      <trkpt lat="47.41243" lon="-0.8643">
        <ele>30</ele>
        <time>2013-08-28T09:01:06Z</time>
      </trkpt>
      <trkpt lat="47.41244" lon="-0.86432">
        <ele>30</ele>
        <time>2013-08-28T09:01:11Z</time>
      </trkpt>
      <trkpt lat="47.41246" lon="-0.86447">
        <ele>29</ele>
        <time>2013-08-28T09:01:12Z</time>
      </trkpt>
      <trkpt lat="47.41246" lon="-0.86453">
        <ele>28</ele>
        <time>2013-08-28T09:01:13Z</time>
      </trkpt>
      <trkpt lat="47.41248" lon="-0.86459">
        <ele>27</ele>
        <time>2013-08-28T09:01:14Z</time>
      </trkpt>
      <trkpt lat="47.41249" lon="-0.86472">
        <ele>26</ele>
        <time>2013-08-28T09:01:19Z</time>
      </trkpt>
      <trkpt lat="47.41252" lon="-0.86504">
        <ele>25</ele>
        <time>2013-08-28T09:01:19Z</time>
      </trkpt>
      <trkpt lat="47.41254" lon="-0.86512">
        <ele>24</ele>
        <time>2013-08-28T09:01:20Z</time>
      </trkpt>
      <trkpt lat="47.41259" lon="-0.86528">
        <ele>23</ele>
        <time>2013-08-28T09:01:26Z</time>
      </trkpt>
      <trkpt lat="47.41269" lon="-0.86554">
        <ele>22</ele>
        <time>2013-08-28T09:01:26Z</time>
      </trkpt>
      <trkpt lat="47.41272" lon="-0.86561">
        <ele>21</ele>
        <time>2013-08-28T09:01:27Z</time>
      </trkpt>
      <trkpt lat="47.41274" lon="-0.86577">
        <ele>20</ele>
        <time>2013-08-28T09:01:33Z</time>
      </trkpt>
      <trkpt lat="47.41272" lon="-0.8661">
        <ele>19</ele>
        <time>2013-08-28T09:01:33Z</time>
      </trkpt>
      <trkpt lat="47.41272" lon="-0.86618">
        <ele>19</ele>
        <time>2013-08-28T09:01:35Z</time>
      </trkpt>
      <trkpt lat="47.41273" lon="-0.86634">
        <ele>19</ele>
        <time>2013-08-28T09:01:40Z</time>
      </trkpt>
      <trkpt lat="47.41275" lon="-0.86665">
        <ele>19</ele>
        <time>2013-08-28T09:01:41Z</time>
      </trkpt>
      <trkpt lat="47.41276" lon="-0.86673">
        <ele>19</ele>
        <time>2013-08-28T09:01:41Z</time>
      </trkpt>
      <trkpt lat="47.41277" lon="-0.86688">
        <ele>20</ele>
        <time>2013-08-28T09:01:47Z</time>
      </trkpt>
      <trkpt lat="47.41278" lon="-0.86717">
        <ele>21</ele>
        <time>2013-08-28T09:01:48Z</time>
      </trkpt>
      <trkpt lat="47.41278" lon="-0.86724">
        <ele>22</ele>
        <time>2013-08-28T09:01:48Z</time>
      </trkpt>
      <trkpt lat="47.41283" lon="-0.86768">
        <ele>23</ele>
        <time>2013-08-28T09:01:54Z</time>
      </trkpt>
      <trkpt lat="47.41284" lon="-0.86775">
        <ele>24</ele>
        <time>2013-08-28T09:01:55Z</time>
      </trkpt>
      <trkpt lat="47.41288" lon="-0.8682">
        <ele>25</ele>
        <time>2013-08-28T09:02:02Z</time>
      </trkpt>
      <trkpt lat="47.41288" lon="-0.86828">
        <ele>26</ele>
        <time>2013-08-28T09:02:03Z</time>
      </trkpt>
      <trkpt lat="47.41291" lon="-0.86883">
        <ele>27</ele>
        <time>2013-08-28T09:02:09Z</time>
      </trkpt>
      <trkpt lat="47.41292" lon="-0.86891">
        <ele>28</ele>
        <time>2013-08-28T09:02:10Z</time>
      </trkpt>
      <trkpt lat="47.41297" lon="-0.86946">
        <ele>28</ele>
        <time>2013-08-28T09:02:16Z</time>
      </trkpt>
      <trkpt lat="47.41297" lon="-0.86957">
        <ele>28</ele>
        <time>2013-08-28T09:02:16Z</time>
      </trkpt>
      <trkpt lat="47.41303" lon="-0.87011">
        <ele>28</ele>
        <time>2013-08-28T09:02:23Z</time>
      </trkpt>
      <trkpt lat="47.41304" lon="-0.87021">
        <ele>28</ele>
        <time>2013-08-28T09:02:23Z</time>
      </trkpt>
      <trkpt lat="47.41305" lon="-0.87029">
        <ele>28</ele>
        <time>2013-08-28T09:02:24Z</time>
      </trkpt>
      <trkpt lat="47.41307" lon="-0.87048">
        <ele>28</ele>
        <time>2013-08-28T09:02:30Z</time>
      </trkpt>
      <trkpt lat="47.41311" lon="-0.87091">
        <ele>27</ele>
        <time>2013-08-28T09:02:30Z</time>
      </trkpt>
      <trkpt lat="47.41312" lon="-0.87102">
        <ele>26</ele>
        <time>2013-08-28T09:02:31Z</time>
      </trkpt>
      <trkpt lat="47.41312" lon="-0.87126">
        <ele>25</ele>
        <time>2013-08-28T09:02:37Z</time>
      </trkpt>
      <trkpt lat="47.41319" lon="-0.87175">
        <ele>24</ele>
        <time>2013-08-28T09:02:37Z</time>
      </trkpt>
      <trkpt lat="47.41321" lon="-0.87185">
        <ele>23</ele>
        <time>2013-08-28T09:02:38Z</time>
      </trkpt>
      <trkpt lat="47.41324" lon="-0.87206">
        <ele>21</ele>
        <time>2013-08-28T09:02:44Z</time>
      </trkpt>
      <trkpt lat="47.41329" lon="-0.87246">
        <ele>20</ele>
        <time>2013-08-28T09:02:44Z</time>
      </trkpt>
      <trkpt lat="47.4133" lon="-0.87255">
        <ele>19</ele>
        <time>2013-08-28T09:02:45Z</time>
      </trkpt>
      <trkpt lat="47.41333" lon="-0.87274">
        <ele>18</ele>
        <time>2013-08-28T09:02:51Z</time>
      </trkpt>
      <trkpt lat="47.41336" lon="-0.87312">
        <ele>17</ele>
        <time>2013-08-28T09:02:51Z</time>
      </trkpt>
      <trkpt lat="47.41337" lon="-0.87322">
        <ele>17</ele>
        <time>2013-08-28T09:02:52Z</time>
      </trkpt>
      <trkpt lat="47.41339" lon="-0.87341">
        <ele>17</ele>
        <time>2013-08-28T09:02:58Z</time>
      </trkpt>
      <trkpt lat="47.41343" lon="-0.87381">
        <ele>17</ele>
        <time>2013-08-28T09:02:58Z</time>
      </trkpt>
      <trkpt lat="47.41344" lon="-0.87392">
        <ele>17</ele>
        <time>2013-08-28T09:02:59Z</time>
      </trkpt>
      <trkpt lat="47.41346" lon="-0.87411">
        <ele>17</ele>
        <time>2013-08-28T09:03:05Z</time>
      </trkpt>
      <trkpt lat="47.4135" lon="-0.87451">
        <ele>17</ele>
        <time>2013-08-28T09:03:05Z</time>
      </trkpt>
      <trkpt lat="47.41351" lon="-0.87461">
        <ele>17</ele>
        <time>2013-08-28T09:03:06Z</time>
      </trkpt>
      <trkpt lat="47.41353" lon="-0.8748">
        <ele>17</ele>
        <time>2013-08-28T09:03:12Z</time>
      </trkpt>
      <trkpt lat="47.41356" lon="-0.8752">
        <ele>18</ele>
        <time>2013-08-28T09:03:12Z</time>
      </trkpt>
      <trkpt lat="47.41357" lon="-0.8753">
        <ele>19</ele>
        <time>2013-08-28T09:03:13Z</time>
      </trkpt>
      <trkpt lat="47.41359" lon="-0.87548">
        <ele>19</ele>
        <time>2013-08-28T09:03:19Z</time>
      </trkpt>
      <trkpt lat="47.41363" lon="-0.87589">
        <ele>20</ele>
        <time>2013-08-28T09:03:19Z</time>
      </trkpt>
      <trkpt lat="47.41364" lon="-0.876">
        <ele>20</ele>
        <time>2013-08-28T09:03:20Z</time>
      </trkpt>
      <trkpt lat="47.41366" lon="-0.87621">
        <ele>20</ele>
        <time>2013-08-28T09:03:26Z</time>
      </trkpt>
      <trkpt lat="47.4137" lon="-0.87665">
        <ele>20</ele>
        <time>2013-08-28T09:03:26Z</time>
      </trkpt>
      <trkpt lat="47.41371" lon="-0.87675">
        <ele>20</ele>
        <time>2013-08-28T09:03:27Z</time>
      </trkpt>
      <trkpt lat="47.41373" lon="-0.87698">
        <ele>20</ele>
        <time>2013-08-28T09:03:33Z</time>
      </trkpt>
      <trkpt lat="47.41377" lon="-0.87744">
        <ele>20</ele>
        <time>2013-08-28T09:03:33Z</time>
      </trkpt>
      <trkpt lat="47.41378" lon="-0.87755">
        <ele>20</ele>
        <time>2013-08-28T09:03:34Z</time>
      </trkpt>
      <trkpt lat="47.4138" lon="-0.87778">
        <ele>20</ele>
        <time>2013-08-28T09:03:40Z</time>
      </trkpt>
      <trkpt lat="47.41385" lon="-0.87824">
        <ele>20</ele>
        <time>2013-08-28T09:03:40Z</time>
      </trkpt>
      <trkpt lat="47.41386" lon="-0.87836">
        <ele>19</ele>
        <time>2013-08-28T09:03:41Z</time>
      </trkpt>
      <trkpt lat="47.41388" lon="-0.8786">
        <ele>19</ele>
        <time>2013-08-28T09:03:47Z</time>
      </trkpt>
      <trkpt lat="47.41391" lon="-0.87906">
        <ele>19</ele>
        <time>2013-08-28T09:03:47Z</time>
      </trkpt>
      <trkpt lat="47.41392" lon="-0.87916">
        <ele>19</ele>
        <time>2013-08-28T09:03:48Z</time>
      </trkpt>
      <trkpt lat="47.41395" lon="-0.8794">
        <ele>19</ele>
        <time>2013-08-28T09:03:54Z</time>
      </trkpt>
      <trkpt lat="47.414" lon="-0.87983">
        <ele>19</ele>
        <time>2013-08-28T09:03:54Z</time>
      </trkpt>
      <trkpt lat="47.41402" lon="-0.87993">
        <ele>19</ele>
        <time>2013-08-28T09:03:55Z</time>
      </trkpt>
      <trkpt lat="47.41403" lon="-0.88011">
        <ele>19</ele>
        <time>2013-08-28T09:04:01Z</time>
      </trkpt>
      <trkpt lat="47.41406" lon="-0.88047">
        <ele>19</ele>
        <time>2013-08-28T09:04:01Z</time>
      </trkpt>
      <trkpt lat="47.41407" lon="-0.88056">
        <ele>19</ele>
        <time>2013-08-28T09:04:02Z</time>
      </trkpt>
      <trkpt lat="47.41409" lon="-0.88074">
        <ele>19</ele>
        <time>2013-08-28T09:04:08Z</time>
      </trkpt>
      <trkpt lat="47.41412" lon="-0.88113">
        <ele>19</ele>
        <time>2013-08-28T09:04:08Z</time>
      </trkpt>
      <trkpt lat="47.41413" lon="-0.88123">
        <ele>19</ele>
        <time>2013-08-28T09:04:09Z</time>
      </trkpt>
      <trkpt lat="47.41415" lon="-0.88144">
        <ele>19</ele>
        <time>2013-08-28T09:04:15Z</time>
      </trkpt>
      <trkpt lat="47.41419" lon="-0.88191">
        <ele>19</ele>
        <time>2013-08-28T09:04:15Z</time>
      </trkpt>
      <trkpt lat="47.4142" lon="-0.88203">
        <ele>19</ele>
        <time>2013-08-28T09:04:16Z</time>
      </trkpt>
      <trkpt lat="47.41421" lon="-0.8823">
        <ele>19</ele>
        <time>2013-08-28T09:04:22Z</time>
      </trkpt>
      <trkpt lat="47.41425" lon="-0.88287">
        <ele>18</ele>
        <time>2013-08-28T09:04:22Z</time>
      </trkpt>
      <trkpt lat="47.41425" lon="-0.88302">
        <ele>17</ele>
        <time>2013-08-28T09:04:23Z</time>
      </trkpt>
      <trkpt lat="47.41429" lon="-0.88334">
        <ele>16</ele>
        <time>2013-08-28T09:04:29Z</time>
      </trkpt>
      <trkpt lat="47.41434" lon="-0.88403">
        <ele>15</ele>
        <time>2013-08-28T09:04:29Z</time>
      </trkpt>
      <trkpt lat="47.41436" lon="-0.88421">
        <ele>14</ele>
        <time>2013-08-28T09:04:30Z</time>
      </trkpt>
      <trkpt lat="47.41447" lon="-0.88516">
        <ele>12</ele>
        <time>2013-08-28T09:04:37Z</time>
      </trkpt>
      <trkpt lat="47.41448" lon="-0.8853">
        <ele>10</ele>
        <time>2013-08-28T09:04:37Z</time>
      </trkpt>
      <trkpt lat="47.41456" lon="-0.88595">
        <ele>8</ele>
        <time>2013-08-28T09:04:44Z</time>
      </trkpt>
      <trkpt lat="47.41458" lon="-0.88604">
        <ele>7</ele>
        <time>2013-08-28T09:04:44Z</time>
      </trkpt>
      <trkpt lat="47.41462" lon="-0.88657">
        <ele>6</ele>
        <time>2013-08-28T09:04:51Z</time>
      </trkpt>
      <trkpt lat="47.41462" lon="-0.88665">
        <ele>5</ele>
        <time>2013-08-28T09:04:51Z</time>
      </trkpt>
      <trkpt lat="47.41463" lon="-0.88672">
        <ele>5</ele>
        <time>2013-08-28T09:04:52Z</time>
      </trkpt>
      <trkpt lat="47.41465" lon="-0.88688">
        <ele>5</ele>
        <time>2013-08-28T09:04:58Z</time>
      </trkpt>
      <trkpt lat="47.41468" lon="-0.8872">
        <ele>5</ele>
        <time>2013-08-28T09:04:58Z</time>
      </trkpt>
      <trkpt lat="47.41468" lon="-0.88729">
        <ele>6</ele>
        <time>2013-08-28T09:04:59Z</time>
      </trkpt>
      <trkpt lat="47.4147" lon="-0.88747">
        <ele>7</ele>
        <time>2013-08-28T09:05:05Z</time>
      </trkpt>
      <trkpt lat="47.41472" lon="-0.88783">
        <ele>8</ele>
        <time>2013-08-28T09:05:05Z</time>
      </trkpt>
      <trkpt lat="47.41473" lon="-0.88792">
        <ele>9</ele>
        <time>2013-08-28T09:05:06Z</time>
      </trkpt>
      <trkpt lat="47.41474" lon="-0.88813">
        <ele>10</ele>
        <time>2013-08-28T09:05:12Z</time>
      </trkpt>
      <trkpt lat="47.41477" lon="-0.88858">
        <ele>10</ele>
        <time>2013-08-28T09:05:12Z</time>
      </trkpt>
      <trkpt lat="47.41478" lon="-0.8887">
        <ele>10</ele>
        <time>2013-08-28T09:05:13Z</time>
      </trkpt>
      <trkpt lat="47.4148" lon="-0.88893">
        <ele>10</ele>
        <time>2013-08-28T09:05:19Z</time>
      </trkpt>
      <trkpt lat="47.41484" lon="-0.88939">
        <ele>10</ele>
        <time>2013-08-28T09:05:19Z</time>
      </trkpt>
      <trkpt lat="47.41486" lon="-0.8895">
        <ele>10</ele>
        <time>2013-08-28T09:05:20Z</time>
      </trkpt>
      <trkpt lat="47.41488" lon="-0.88971">
        <ele>10</ele>
        <time>2013-08-28T09:05:26Z</time>
      </trkpt>
      <trkpt lat="47.41493" lon="-0.89009">
        <ele>10</ele>
        <time>2013-08-28T09:05:26Z</time>
      </trkpt>
      <trkpt lat="47.41494" lon="-0.89018">
        <ele>10</ele>
        <time>2013-08-28T09:05:27Z</time>
      </trkpt>
      <trkpt lat="47.41496" lon="-0.89036">
        <ele>10</ele>
        <time>2013-08-28T09:05:33Z</time>
      </trkpt>
      <trkpt lat="47.41499" lon="-0.89073">
        <ele>10</ele>
        <time>2013-08-28T09:05:33Z</time>
      </trkpt>
      <trkpt lat="47.415" lon="-0.89081">
        <ele>10</ele>
        <time>2013-08-28T09:05:34Z</time>
      </trkpt>
      <trkpt lat="47.415" lon="-0.891">
        <ele>11</ele>
        <time>2013-08-28T09:05:40Z</time>
      </trkpt>
      <trkpt lat="47.41503" lon="-0.89138">
        <ele>11</ele>
        <time>2013-08-28T09:05:40Z</time>
      </trkpt>
      <trkpt lat="47.41504" lon="-0.89146">
        <ele>11</ele>
        <time>2013-08-28T09:05:41Z</time>
      </trkpt>
      <trkpt lat="47.41506" lon="-0.89165">
        <ele>11</ele>
        <time>2013-08-28T09:05:47Z</time>
      </trkpt>
      <trkpt lat="47.4151" lon="-0.89203">
        <ele>11</ele>
        <time>2013-08-28T09:05:47Z</time>
      </trkpt>
      <trkpt lat="47.41512" lon="-0.89212">
        <ele>11</ele>
        <time>2013-08-28T09:05:48Z</time>
      </trkpt>
      <trkpt lat="47.41513" lon="-0.89232">
        <ele>11</ele>
        <time>2013-08-28T09:05:54Z</time>
      </trkpt>
      <trkpt lat="47.41517" lon="-0.89269">
        <ele>11</ele>
        <time>2013-08-28T09:05:54Z</time>
      </trkpt>
      <trkpt lat="47.41518" lon="-0.89278">
        <ele>11</ele>
        <time>2013-08-28T09:05:55Z</time>
      </trkpt>
      <trkpt lat="47.41519" lon="-0.89297">
        <ele>11</ele>
        <time>2013-08-28T09:06:01Z</time>
      </trkpt>
      <trkpt lat="47.41523" lon="-0.89336">
        <ele>11</ele>
        <time>2013-08-28T09:06:01Z</time>
      </trkpt>
      <trkpt lat="47.41523" lon="-0.89346">
        <ele>11</ele>
        <time>2013-08-28T09:06:02Z</time>
      </trkpt>
      <trkpt lat="47.41525" lon="-0.89366">
        <ele>11</ele>
        <time>2013-08-28T09:06:08Z</time>
      </trkpt>
      <trkpt lat="47.41528" lon="-0.89406">
        <ele>11</ele>
        <time>2013-08-28T09:06:09Z</time>
      </trkpt>
      <trkpt lat="47.41529" lon="-0.89416">
        <ele>11</ele>
        <time>2013-08-28T09:06:09Z</time>
      </trkpt>
      <trkpt lat="47.41534" lon="-0.89475">
        <ele>11</ele>
        <time>2013-08-28T09:06:15Z</time>
      </trkpt>
      <trkpt lat="47.41535" lon="-0.89485">
        <ele>11</ele>
        <time>2013-08-28T09:06:16Z</time>
      </trkpt>
      <trkpt lat="47.4154" lon="-0.89552">
        <ele>11</ele>
        <time>2013-08-28T09:06:23Z</time>
      </trkpt>
      <trkpt lat="47.41541" lon="-0.89565">
        <ele>11</ele>
        <time>2013-08-28T09:06:23Z</time>
      </trkpt>
      <trkpt lat="47.41548" lon="-0.89649">
        <ele>11</ele>
        <time>2013-08-28T09:06:30Z</time>
      </trkpt>
      <trkpt lat="47.41549" lon="-0.89665">
        <ele>11</ele>
        <time>2013-08-28T09:06:30Z</time>
      </trkpt>
      <trkpt lat="47.4156" lon="-0.89766">
        <ele>11</ele>
        <time>2013-08-28T09:06:37Z</time>
      </trkpt>
      <trkpt lat="47.41561" lon="-0.89783">
        <ele>10</ele>
        <time>2013-08-28T09:06:37Z</time>
      </trkpt>
      <trkpt lat="47.41562" lon="-0.89798">
        <ele>9</ele>
        <time>2013-08-28T09:06:38Z</time>
      </trkpt>
      <trkpt lat="47.41565" lon="-0.89827">
        <ele>8</ele>
        <time>2013-08-28T09:06:44Z</time>
      </trkpt>
      <trkpt lat="47.41572" lon="-0.89874">
        <ele>7</ele>
        <time>2013-08-28T09:06:44Z</time>
      </trkpt>
      <trkpt lat="47.41573" lon="-0.89884">
        <ele>6</ele>
        <time>2013-08-28T09:06:45Z</time>
      </trkpt>
      <trkpt lat="47.41574" lon="-0.89903">
        <ele>5</ele>
        <time>2013-08-28T09:06:51Z</time>
      </trkpt>
      <trkpt lat="47.41578" lon="-0.89936">
        <ele>4</ele>
        <time>2013-08-28T09:06:51Z</time>
      </trkpt>
      <trkpt lat="47.41579" lon="-0.89944">
        <ele>4</ele>
        <time>2013-08-28T09:06:52Z</time>
      </trkpt>
      <trkpt lat="47.41581" lon="-0.89959">
        <ele>4</ele>
        <time>2013-08-28T09:06:58Z</time>
      </trkpt>
      <trkpt lat="47.41585" lon="-0.89988">
        <ele>4</ele>
        <time>2013-08-28T09:06:58Z</time>
      </trkpt>
      <trkpt lat="47.41586" lon="-0.89995">
        <ele>4</ele>
        <time>2013-08-28T09:06:59Z</time>
      </trkpt>
      <trkpt lat="47.41587" lon="-0.90008">
        <ele>6</ele>
        <time>2013-08-28T09:07:05Z</time>
      </trkpt>
      <trkpt lat="47.4159" lon="-0.90035">
        <ele>7</ele>
        <time>2013-08-28T09:07:05Z</time>
      </trkpt>
      <trkpt lat="47.41591" lon="-0.90042">
        <ele>8</ele>
        <time>2013-08-28T09:07:06Z</time>
      </trkpt>
      <trkpt lat="47.41593" lon="-0.90058">
        <ele>9</ele>
        <time>2013-08-28T09:07:12Z</time>
      </trkpt>
      <trkpt lat="47.41597" lon="-0.9009">
        <ele>10</ele>
        <time>2013-08-28T09:07:12Z</time>
      </trkpt>
      <trkpt lat="47.41598" lon="-0.90098">
        <ele>11</ele>
        <time>2013-08-28T09:07:13Z</time>
      </trkpt>
      <trkpt lat="47.416" lon="-0.90114">
        <ele>12</ele>
        <time>2013-08-28T09:07:19Z</time>
      </trkpt>
      <trkpt lat="47.41603" lon="-0.90149">
        <ele>13</ele>
        <time>2013-08-28T09:07:19Z</time>
      </trkpt>
      <trkpt lat="47.41604" lon="-0.90158">
        <ele>14</ele>
        <time>2013-08-28T09:07:20Z</time>
      </trkpt>
      <trkpt lat="47.41605" lon="-0.90175">
        <ele>15</ele>
        <time>2013-08-28T09:07:26Z</time>
      </trkpt>
      <trkpt lat="47.41606" lon="-0.9021">
        <ele>16</ele>
        <time>2013-08-28T09:07:26Z</time>
      </trkpt>
      <trkpt lat="47.41607" lon="-0.90219">
        <ele>17</ele>
        <time>2013-08-28T09:07:27Z</time>
      </trkpt>
      <trkpt lat="47.41607" lon="-0.90236">
        <ele>18</ele>
        <time>2013-08-28T09:07:33Z</time>
      </trkpt>
      <trkpt lat="47.41606" lon="-0.90272">
        <ele>19</ele>
        <time>2013-08-28T09:07:33Z</time>
      </trkpt>
      <trkpt lat="47.41606" lon="-0.90282">
        <ele>20</ele>
        <time>2013-08-28T09:07:34Z</time>
      </trkpt>
      <trkpt lat="47.41603" lon="-0.9034">
        <ele>21</ele>
        <time>2013-08-28T09:07:40Z</time>
      </trkpt>
      <trkpt lat="47.41602" lon="-0.9035">
        <ele>21</ele>
        <time>2013-08-28T09:07:41Z</time>
      </trkpt>
      <trkpt lat="47.41595" lon="-0.90411">
        <ele>21</ele>
        <time>2013-08-28T09:07:48Z</time>
      </trkpt>
      <trkpt lat="47.41594" lon="-0.90421">
        <ele>21</ele>
        <time>2013-08-28T09:07:48Z</time>
      </trkpt>
      <trkpt lat="47.4159" lon="-0.90443">
        <ele>21</ele>
        <time>2013-08-28T09:07:55Z</time>
      </trkpt>
      <trkpt lat="47.41581" lon="-0.90501">
        <ele>21</ele>
        <time>2013-08-28T09:07:55Z</time>
      </trkpt>
      <trkpt lat="47.41578" lon="-0.90514">
        <ele>21</ele>
        <time>2013-08-28T09:07:56Z</time>
      </trkpt>
      <trkpt lat="47.41573" lon="-0.9054">
        <ele>21</ele>
        <time>2013-08-28T09:08:02Z</time>
      </trkpt>
      <trkpt lat="47.41563" lon="-0.90598">
        <ele>21</ele>
        <time>2013-08-28T09:08:02Z</time>
      </trkpt>
      <trkpt lat="47.4156" lon="-0.90614">
        <ele>21</ele>
        <time>2013-08-28T09:08:03Z</time>
      </trkpt>
      <trkpt lat="47.41555" lon="-0.90644">
        <ele>21</ele>
        <time>2013-08-28T09:08:09Z</time>
      </trkpt>
      <trkpt lat="47.41544" lon="-0.90704">
        <ele>20</ele>
        <time>2013-08-28T09:08:09Z</time>
      </trkpt>
      <trkpt lat="47.41542" lon="-0.90719">
        <ele>19</ele>
        <time>2013-08-28T09:08:10Z</time>
      </trkpt>
      <trkpt lat="47.41536" lon="-0.90748">
        <ele>18</ele>
        <time>2013-08-28T09:08:16Z</time>
      </trkpt>
      <trkpt lat="47.41526" lon="-0.90805">
        <ele>17</ele>
        <time>2013-08-28T09:08:16Z</time>
      </trkpt>
      <trkpt lat="47.41523" lon="-0.90819">
        <ele>16</ele>
        <time>2013-08-28T09:08:17Z</time>
      </trkpt>
      <trkpt lat="47.41518" lon="-0.90848">
        <ele>15</ele>
        <time>2013-08-28T09:08:23Z</time>
      </trkpt>
      <trkpt lat="47.41508" lon="-0.90904">
        <ele>14</ele>
        <time>2013-08-28T09:08:23Z</time>
      </trkpt>
      <trkpt lat="47.41506" lon="-0.90917">
        <ele>13</ele>
        <time>2013-08-28T09:08:24Z</time>
      </trkpt>
      <trkpt lat="47.41502" lon="-0.90942">
        <ele>12</ele>
        <time>2013-08-28T09:08:30Z</time>
      </trkpt>
      <trkpt lat="47.41495" lon="-0.90985">
        <ele>11</ele>
        <time>2013-08-28T09:08:30Z</time>
      </trkpt>
      <trkpt lat="47.41493" lon="-0.90995">
        <ele>10</ele>
        <time>2013-08-28T09:08:31Z</time>
      </trkpt>
      <trkpt lat="47.4149" lon="-0.91015">
        <ele>10</ele>
        <time>2013-08-28T09:08:37Z</time>
      </trkpt>
      <trkpt lat="47.41484" lon="-0.91054">
        <ele>10</ele>
        <time>2013-08-28T09:08:38Z</time>
      </trkpt>
      <trkpt lat="47.41482" lon="-0.91063">
        <ele>10</ele>
        <time>2013-08-28T09:08:38Z</time>
      </trkpt>
      <trkpt lat="47.41472" lon="-0.9112">
        <ele>10</ele>
        <time>2013-08-28T09:08:44Z</time>
      </trkpt>
      <trkpt lat="47.4147" lon="-0.91129">
        <ele>10</ele>
        <time>2013-08-28T09:08:45Z</time>
      </trkpt>
      <trkpt lat="47.41457" lon="-0.91193">
        <ele>10</ele>
        <time>2013-08-28T09:08:52Z</time>
      </trkpt>
      <trkpt lat="47.41455" lon="-0.91204">
        <ele>10</ele>
        <time>2013-08-28T09:08:52Z</time>
      </trkpt>
      <trkpt lat="47.41453" lon="-0.91214">
        <ele>10</ele>
        <time>2013-08-28T09:08:53Z</time>
      </trkpt>
      <trkpt lat="47.41449" lon="-0.91236">
        <ele>10</ele>
        <time>2013-08-28T09:08:59Z</time>
      </trkpt>
      <trkpt lat="47.41442" lon="-0.91277">
        <ele>10</ele>
        <time>2013-08-28T09:08:59Z</time>
      </trkpt>
      <trkpt lat="47.4144" lon="-0.91288">
        <ele>10</ele>
        <time>2013-08-28T09:09:00Z</time>
      </trkpt>
      <trkpt lat="47.41436" lon="-0.91308">
        <ele>10</ele>
        <time>2013-08-28T09:09:06Z</time>
      </trkpt>
      <trkpt lat="47.41429" lon="-0.91349">
        <ele>10</ele>
        <time>2013-08-28T09:09:06Z</time>
      </trkpt>
      <trkpt lat="47.41427" lon="-0.9136">
        <ele>10</ele>
        <time>2013-08-28T09:09:07Z</time>
      </trkpt>
      <trkpt lat="47.41424" lon="-0.9138">
        <ele>10</ele>
        <time>2013-08-28T09:09:13Z</time>
      </trkpt>
      <trkpt lat="47.41415" lon="-0.91416">
        <ele>10</ele>
        <time>2013-08-28T09:09:13Z</time>
      </trkpt>
      <trkpt lat="47.41414" lon="-0.91425">
        <ele>10</ele>
        <time>2013-08-28T09:09:14Z</time>
      </trkpt>
      <trkpt lat="47.4141" lon="-0.9144">
        <ele>10</ele>
        <time>2013-08-28T09:09:20Z</time>
      </trkpt>
      <trkpt lat="47.41404" lon="-0.91473">
        <ele>10</ele>
        <time>2013-08-28T09:09:20Z</time>
      </trkpt>
      <trkpt lat="47.41403" lon="-0.91482">
        <ele>10</ele>
        <time>2013-08-28T09:09:21Z</time>
      </trkpt>
      <trkpt lat="47.414" lon="-0.91497">
        <ele>10</ele>
        <time>2013-08-28T09:09:27Z</time>
      </trkpt>
      <trkpt lat="47.41381" lon="-0.91503">
        <ele>10</ele>
        <time>2013-08-28T09:09:27Z</time>
      </trkpt>
      <trkpt lat="47.41376" lon="-0.91501">
        <ele>10</ele>
        <time>2013-08-28T09:09:28Z</time>
      </trkpt>
      <trkpt lat="47.4137" lon="-0.91498">
        <ele>10</ele>
        <time>2013-08-28T09:09:30Z</time>
      </trkpt>
      <trkpt lat="47.41358" lon="-0.91492">
        <ele>10</ele>
        <time>2013-08-28T09:09:35Z</time>
      </trkpt>
      <trkpt lat="47.41331" lon="-0.91483">
        <ele>10</ele>
        <time>2013-08-28T09:09:35Z</time>
      </trkpt>
      <trkpt lat="47.41324" lon="-0.91483">
        <ele>10</ele>
        <time>2013-08-28T09:09:36Z</time>
      </trkpt>
      <trkpt lat="47.41317" lon="-0.91483">
        <ele>10</ele>
        <time>2013-08-28T09:09:37Z</time>
      </trkpt>
      <trkpt lat="47.41301" lon="-0.91487">
        <ele>10</ele>
        <time>2013-08-28T09:09:43Z</time>
      </trkpt>
      <trkpt lat="47.4127" lon="-0.91504">
        <ele>10</ele>
        <time>2013-08-28T09:09:43Z</time>
      </trkpt>
      <trkpt lat="47.41263" lon="-0.9151">
        <ele>10</ele>
        <time>2013-08-28T09:09:44Z</time>
      </trkpt>
      <trkpt lat="47.41255" lon="-0.91515">
        <ele>10</ele>
        <time>2013-08-28T09:09:45Z</time>
      </trkpt>
      <trkpt lat="47.41239" lon="-0.91525">
        <ele>10</ele>
        <time>2013-08-28T09:09:51Z</time>
      </trkpt>
      <trkpt lat="47.41208" lon="-0.91545">
        <ele>10</ele>
        <time>2013-08-28T09:09:51Z</time>
      </trkpt>
      <trkpt lat="47.41201" lon="-0.91551">
        <ele>10</ele>
        <time>2013-08-28T09:09:52Z</time>
      </trkpt>
      <trkpt lat="47.41185" lon="-0.91562">
        <ele>10</ele>
        <time>2013-08-28T09:09:58Z</time>
      </trkpt>
      <trkpt lat="47.4115" lon="-0.91584">
        <ele>10</ele>
        <time>2013-08-28T09:09:58Z</time>
      </trkpt>
      <trkpt lat="47.41141" lon="-0.9159">
        <ele>10</ele>
        <time>2013-08-28T09:09:59Z</time>
      </trkpt>
      <trkpt lat="47.41123" lon="-0.91602">
        <ele>10</ele>
        <time>2013-08-28T09:10:05Z</time>
      </trkpt>
      <trkpt lat="47.41088" lon="-0.91626">
        <ele>10</ele>
        <time>2013-08-28T09:10:05Z</time>
      </trkpt>
      <trkpt lat="47.41079" lon="-0.91631">
        <ele>9</ele>
        <time>2013-08-28T09:10:06Z</time>
      </trkpt>
      <trkpt lat="47.41061" lon="-0.91643">
        <ele>8</ele>
        <time>2013-08-28T09:10:12Z</time>
      </trkpt>
      <trkpt lat="47.41027" lon="-0.91666">
        <ele>7</ele>
        <time>2013-08-28T09:10:12Z</time>
      </trkpt>
      <trkpt lat="47.41019" lon="-0.91671">
        <ele>6</ele>
        <time>2013-08-28T09:10:13Z</time>
      </trkpt>
      <trkpt lat="47.41001" lon="-0.9168">
        <ele>5</ele>
        <time>2013-08-28T09:10:19Z</time>
      </trkpt>
      <trkpt lat="47.40963" lon="-0.91695">
        <ele>5</ele>
        <time>2013-08-28T09:10:19Z</time>
      </trkpt>
      <trkpt lat="47.40954" lon="-0.91699">
        <ele>5</ele>
        <time>2013-08-28T09:10:20Z</time>
      </trkpt>
      <trkpt lat="47.40936" lon="-0.91705">
        <ele>4</ele>
        <time>2013-08-28T09:10:26Z</time>
      </trkpt>
      <trkpt lat="47.40901" lon="-0.91709">
        <ele>4</ele>
        <time>2013-08-28T09:10:26Z</time>
      </trkpt>
      <trkpt lat="47.40892" lon="-0.91709">
        <ele>4</ele>
        <time>2013-08-28T09:10:28Z</time>
      </trkpt>
      <trkpt lat="47.40884" lon="-0.91708">
        <ele>3</ele>
        <time>2013-08-28T09:10:29Z</time>
      </trkpt>
      <trkpt lat="47.40868" lon="-0.91707">
        <ele>3</ele>
        <time>2013-08-28T09:10:34Z</time>
      </trkpt>
      <trkpt lat="47.40834" lon="-0.91705">
        <ele>2</ele>
        <time>2013-08-28T09:10:34Z</time>
      </trkpt>
      <trkpt lat="47.40826" lon="-0.91705">
        <ele>2</ele>
        <time>2013-08-28T09:10:35Z</time>
      </trkpt>
      <trkpt lat="47.40782" lon="-0.91738">
        <ele>2</ele>
        <time>2013-08-28T09:10:41Z</time>
      </trkpt>
      <trkpt lat="47.40778" lon="-0.91749">
        <ele>2</ele>
        <time>2013-08-28T09:10:43Z</time>
      </trkpt>
      <trkpt lat="47.40774" lon="-0.9176">
        <ele>2</ele>
        <time>2013-08-28T09:10:44Z</time>
      </trkpt>
      <trkpt lat="47.40768" lon="-0.91782">
        <ele>2</ele>
        <time>2013-08-28T09:10:49Z</time>
      </trkpt>
      <trkpt lat="47.40755" lon="-0.91822">
        <ele>2</ele>
        <time>2013-08-28T09:10:49Z</time>
      </trkpt>
      <trkpt lat="47.40752" lon="-0.91832">
        <ele>2</ele>
        <time>2013-08-28T09:10:50Z</time>
      </trkpt>
      <trkpt lat="47.40731" lon="-0.9189">
        <ele>2</ele>
        <time>2013-08-28T09:10:56Z</time>
      </trkpt>
      <trkpt lat="47.40728" lon="-0.919">
        <ele>2</ele>
        <time>2013-08-28T09:10:57Z</time>
      </trkpt>
      <trkpt lat="47.40703" lon="-0.91953">
        <ele>1</ele>
        <time>2013-08-28T09:11:04Z</time>
      </trkpt>
      <trkpt lat="47.40698" lon="-0.91962">
        <ele>1</ele>
        <time>2013-08-28T09:11:04Z</time>
      </trkpt>
      <trkpt lat="47.40693" lon="-0.9197">
        <ele>1</ele>
        <time>2013-08-28T09:11:05Z</time>
      </trkpt>
      <trkpt lat="47.40684" lon="-0.91986">
        <ele>1</ele>
        <time>2013-08-28T09:11:11Z</time>
      </trkpt>
      <trkpt lat="47.40665" lon="-0.92016">
        <ele>1</ele>
        <time>2013-08-28T09:11:11Z</time>
      </trkpt>
      <trkpt lat="47.4066" lon="-0.92023">
        <ele>1</ele>
        <time>2013-08-28T09:11:12Z</time>
      </trkpt>
      <trkpt lat="47.40651" lon="-0.92036">
        <ele>1</ele>
        <time>2013-08-28T09:11:18Z</time>
      </trkpt>
      <trkpt lat="47.40634" lon="-0.92062">
        <ele>1</ele>
        <time>2013-08-28T09:11:18Z</time>
      </trkpt>
      <trkpt lat="47.40629" lon="-0.92068">
        <ele>1</ele>
        <time>2013-08-28T09:11:19Z</time>
      </trkpt>
      <trkpt lat="47.40621" lon="-0.9208">
        <ele>1</ele>
        <time>2013-08-28T09:11:25Z</time>
      </trkpt>
      <trkpt lat="47.40604" lon="-0.92107">
        <ele>1</ele>
        <time>2013-08-28T09:11:25Z</time>
      </trkpt>
      <trkpt lat="47.40599" lon="-0.92114">
        <ele>1</ele>
        <time>2013-08-28T09:11:26Z</time>
      </trkpt>
      <trkpt lat="47.4059" lon="-0.92127">
        <ele>1</ele>
        <time>2013-08-28T09:11:32Z</time>
      </trkpt>
      <trkpt lat="47.40575" lon="-0.92155">
        <ele>1</ele>
        <time>2013-08-28T09:11:32Z</time>
      </trkpt>
      <trkpt lat="47.40571" lon="-0.92163">
        <ele>1</ele>
        <time>2013-08-28T09:11:33Z</time>
      </trkpt>
      <trkpt lat="47.40548" lon="-0.92202">
        <ele>1</ele>
        <time>2013-08-28T09:11:39Z</time>
      </trkpt>
      <trkpt lat="47.40544" lon="-0.92208">
        <ele>1</ele>
        <time>2013-08-28T09:11:40Z</time>
      </trkpt>
      <trkpt lat="47.40537" lon="-0.92222">
        <ele>1</ele>
        <time>2013-08-28T09:11:47Z</time>
      </trkpt>
      <trkpt lat="47.40522" lon="-0.92253">
        <ele>1</ele>
        <time>2013-08-28T09:11:47Z</time>
      </trkpt>
      <trkpt lat="47.40519" lon="-0.92257">
        <ele>1</ele>
        <time>2013-08-28T09:11:48Z</time>
      </trkpt>
      <trkpt lat="47.40515" lon="-0.92266">
        <ele>2</ele>
        <time>2013-08-28T09:11:54Z</time>
      </trkpt>
      <trkpt lat="47.40507" lon="-0.92279">
        <ele>2</ele>
        <time>2013-08-28T09:11:54Z</time>
      </trkpt>
      <trkpt lat="47.40504" lon="-0.92278">
        <ele>3</ele>
        <time>2013-08-28T09:11:55Z</time>
      </trkpt>
      <trkpt lat="47.40501" lon="-0.92275">
        <ele>3</ele>
        <time>2013-08-28T09:11:56Z</time>
      </trkpt>
      <trkpt lat="47.40494" lon="-0.92268">
        <ele>4</ele>
        <time>2013-08-28T09:12:03Z</time>
      </trkpt>
      <trkpt lat="47.40477" lon="-0.9225">
        <ele>4</ele>
        <time>2013-08-28T09:12:03Z</time>
      </trkpt>
      <trkpt lat="47.40474" lon="-0.92246">
        <ele>4</ele>
        <time>2013-08-28T09:12:04Z</time>
      </trkpt>
      <trkpt lat="47.40468" lon="-0.92238">
        <ele>4</ele>
        <time>2013-08-28T09:12:10Z</time>
      </trkpt>
      <trkpt lat="47.40453" lon="-0.92224">
        <ele>5</ele>
        <time>2013-08-28T09:12:10Z</time>
      </trkpt>
      <trkpt lat="47.4045" lon="-0.9222">
        <ele>6</ele>
        <time>2013-08-28T09:12:11Z</time>
      </trkpt>
      <trkpt lat="47.40444" lon="-0.92213">
        <ele>6</ele>
        <time>2013-08-28T09:12:17Z</time>
      </trkpt>
      <trkpt lat="47.40432" lon="-0.92201">
        <ele>7</ele>
        <time>2013-08-28T09:12:17Z</time>
      </trkpt>
      <trkpt lat="47.40428" lon="-0.92197">
        <ele>7</ele>
        <time>2013-08-28T09:12:18Z</time>
      </trkpt>
      <trkpt lat="47.40421" lon="-0.9219">
        <ele>8</ele>
        <time>2013-08-28T09:12:24Z</time>
      </trkpt>
      <trkpt lat="47.40404" lon="-0.92175">
        <ele>8</ele>
        <time>2013-08-28T09:12:24Z</time>
      </trkpt>
      <trkpt lat="47.40401" lon="-0.92172">
        <ele>9</ele>
        <time>2013-08-28T09:12:25Z</time>
      </trkpt>
      <trkpt lat="47.40374" lon="-0.92143">
        <ele>10</ele>
        <time>2013-08-28T09:12:31Z</time>
      </trkpt>
      <trkpt lat="47.40371" lon="-0.92139">
        <ele>11</ele>
        <time>2013-08-28T09:12:32Z</time>
      </trkpt>
      <trkpt lat="47.40365" lon="-0.9213">
        <ele>12</ele>
        <time>2013-08-28T09:12:39Z</time>
      </trkpt>
      <trkpt lat="47.40338" lon="-0.92104">
        <ele>13</ele>
        <time>2013-08-28T09:12:39Z</time>
      </trkpt>
      <trkpt lat="47.40333" lon="-0.921">
        <ele>13</ele>
        <time>2013-08-28T09:12:40Z</time>
      </trkpt>
      <trkpt lat="47.40324" lon="-0.9209">
        <ele>13</ele>
        <time>2013-08-28T09:12:46Z</time>
      </trkpt>
      <trkpt lat="47.40305" lon="-0.92079">
        <ele>14</ele>
        <time>2013-08-28T09:12:46Z</time>
      </trkpt>
      <trkpt lat="47.403" lon="-0.9208">
        <ele>14</ele>
        <time>2013-08-28T09:12:48Z</time>
      </trkpt>
      <trkpt lat="47.40294" lon="-0.9208">
        <ele>14</ele>
        <time>2013-08-28T09:12:49Z</time>
      </trkpt>
      <trkpt lat="47.40288" lon="-0.92083">
        <ele>15</ele>
        <time>2013-08-28T09:12:50Z</time>
      </trkpt>
      <trkpt lat="47.40265" lon="-0.92123">
        <ele>15</ele>
        <time>2013-08-28T09:12:55Z</time>
      </trkpt>
      <trkpt lat="47.40261" lon="-0.92129">
        <ele>15</ele>
        <time>2013-08-28T09:12:57Z</time>
      </trkpt>
      <trkpt lat="47.40257" lon="-0.92136">
        <ele>14</ele>
        <time>2013-08-28T09:12:58Z</time>
      </trkpt>
      <trkpt lat="47.40249" lon="-0.92149">
        <ele>13</ele>
        <time>2013-08-28T09:13:03Z</time>
      </trkpt>
      <trkpt lat="47.40233" lon="-0.92177">
        <ele>12</ele>
        <time>2013-08-28T09:13:03Z</time>
      </trkpt>
      <trkpt lat="47.40231" lon="-0.92185">
        <ele>11</ele>
        <time>2013-08-28T09:13:04Z</time>
      </trkpt>
      <trkpt lat="47.40224" lon="-0.92198">
        <ele>10</ele>
        <time>2013-08-28T09:13:10Z</time>
      </trkpt>
      <trkpt lat="47.40206" lon="-0.92242">
        <ele>9</ele>
        <time>2013-08-28T09:13:12Z</time>
      </trkpt>
      <trkpt lat="47.40205" lon="-0.92251">
        <ele>9</ele>
        <time>2013-08-28T09:13:14Z</time>
      </trkpt>
      <trkpt lat="47.40204" lon="-0.92267">
        <ele>9</ele>
        <time>2013-08-28T09:13:20Z</time>
      </trkpt>
      <trkpt lat="47.40182" lon="-0.92295">
        <ele>9</ele>
        <time>2013-08-28T09:13:20Z</time>
      </trkpt>
      <trkpt lat="47.40179" lon="-0.92301">
        <ele>9</ele>
        <time>2013-08-28T09:13:22Z</time>
      </trkpt>
      <trkpt lat="47.40174" lon="-0.92312">
        <ele>8</ele>
        <time>2013-08-28T09:13:28Z</time>
      </trkpt>
      <trkpt lat="47.40169" lon="-0.92324">
        <ele>8</ele>
        <time>2013-08-28T09:13:28Z</time>
      </trkpt>
      <trkpt lat="47.40166" lon="-0.92323">
        <ele>9</ele>
        <time>2013-08-28T09:13:37Z</time>
      </trkpt>
      <trkpt lat="47.40151" lon="-0.92343">
        <ele>10</ele>
        <time>2013-08-28T09:13:37Z</time>
      </trkpt>
      <trkpt lat="47.40149" lon="-0.9235">
        <ele>11</ele>
        <time>2013-08-28T09:13:38Z</time>
      </trkpt>
      <trkpt lat="47.40146" lon="-0.92356">
        <ele>11</ele>
        <time>2013-08-28T09:13:40Z</time>
      </trkpt>
      <trkpt lat="47.40142" lon="-0.92366">
        <ele>11</ele>
        <time>2013-08-28T09:13:45Z</time>
      </trkpt>
      <trkpt lat="47.4014" lon="-0.92384">
        <ele>11</ele>
        <time>2013-08-28T09:13:45Z</time>
      </trkpt>
      <trkpt lat="47.40142" lon="-0.92387">
        <ele>11</ele>
        <time>2013-08-28T09:13:46Z</time>
      </trkpt>
      <trkpt lat="47.40144" lon="-0.9239">
        <ele>11</ele>
        <time>2013-08-28T09:13:48Z</time>
      </trkpt>
      <trkpt lat="47.4015" lon="-0.92406">
        <ele>11</ele>
        <time>2013-08-28T09:13:55Z</time>
      </trkpt>
      <trkpt lat="47.4015" lon="-0.92409">
        <ele>11</ele>
        <time>2013-08-28T09:13:56Z</time>
      </trkpt>
      <trkpt lat="47.40148" lon="-0.92413">
        <ele>11</ele>
        <time>2013-08-28T09:13:57Z</time>
      </trkpt>
      <trkpt lat="47.40144" lon="-0.92428">
        <ele>11</ele>
        <time>2013-08-28T09:14:03Z</time>
      </trkpt>
      <trkpt lat="47.40136" lon="-0.92449">
        <ele>11</ele>
        <time>2013-08-28T09:14:03Z</time>
      </trkpt>
      <trkpt lat="47.40134" lon="-0.92455">
        <ele>11</ele>
        <time>2013-08-28T09:14:04Z</time>
      </trkpt>
      <trkpt lat="47.40131" lon="-0.92463">
        <ele>11</ele>
        <time>2013-08-28T09:14:10Z</time>
      </trkpt>
      <trkpt lat="47.40127" lon="-0.92474">
        <ele>11</ele>
        <time>2013-08-28T09:14:10Z</time>
      </trkpt>
      <trkpt lat="47.40125" lon="-0.92474">
        <ele>11</ele>
        <time>2013-08-28T09:14:12Z</time>
      </trkpt>
      <trkpt lat="47.40121" lon="-0.92474">
        <ele>11</ele>
        <time>2013-08-28T09:14:13Z</time>
      </trkpt>
      <trkpt lat="47.40118" lon="-0.92471">
        <ele>10</ele>
        <time>2013-08-28T09:14:14Z</time>
      </trkpt>
      <trkpt lat="47.40112" lon="-0.92466">
        <ele>9</ele>
        <time>2013-08-28T09:14:21Z</time>
      </trkpt>
      <trkpt lat="47.40098" lon="-0.92486">
        <ele>9</ele>
        <time>2013-08-28T09:14:21Z</time>
      </trkpt>
      <trkpt lat="47.40094" lon="-0.92493">
        <ele>9</ele>
        <time>2013-08-28T09:14:23Z</time>
      </trkpt>
      <trkpt lat="47.40092" lon="-0.92501">
        <ele>9</ele>
        <time>2013-08-28T09:14:24Z</time>
      </trkpt>
      <trkpt lat="47.40085" lon="-0.92517">
        <ele>9</ele>
        <time>2013-08-28T09:14:29Z</time>
      </trkpt>
      <trkpt lat="47.40075" lon="-0.92547">
        <ele>8</ele>
        <time>2013-08-28T09:14:29Z</time>
      </trkpt>
      <trkpt lat="47.40074" lon="-0.92556">
        <ele>7</ele>
        <time>2013-08-28T09:14:30Z</time>
      </trkpt>
      <trkpt lat="47.40057" lon="-0.92592">
        <ele>6</ele>
        <time>2013-08-28T09:14:36Z</time>
      </trkpt>
      <trkpt lat="47.40054" lon="-0.92597">
        <ele>5</ele>
        <time>2013-08-28T09:14:37Z</time>
      </trkpt>
      <trkpt lat="47.40051" lon="-0.92602">
        <ele>4</ele>
        <time>2013-08-28T09:14:39Z</time>
      </trkpt>
      <trkpt lat="47.40034" lon="-0.92636">
        <ele>3</ele>
        <time>2013-08-28T09:14:45Z</time>
      </trkpt>
      <trkpt lat="47.40031" lon="-0.92642">
        <ele>3</ele>
        <time>2013-08-28T09:14:45Z</time>
      </trkpt>
      <trkpt lat="47.40029" lon="-0.92649">
        <ele>3</ele>
        <time>2013-08-28T09:14:46Z</time>
      </trkpt>
      <trkpt lat="47.40025" lon="-0.92665">
        <ele>3</ele>
        <time>2013-08-28T09:14:52Z</time>
      </trkpt>
      <trkpt lat="47.40014" lon="-0.92695">
        <ele>3</ele>
        <time>2013-08-28T09:14:52Z</time>
      </trkpt>
      <trkpt lat="47.40012" lon="-0.92703">
        <ele>3</ele>
        <time>2013-08-28T09:14:53Z</time>
      </trkpt>
      <trkpt lat="47.40008" lon="-0.92719">
        <ele>3</ele>
        <time>2013-08-28T09:14:59Z</time>
      </trkpt>
      <trkpt lat="47.40001" lon="-0.92752">
        <ele>3</ele>
        <time>2013-08-28T09:14:59Z</time>
      </trkpt>
      <trkpt lat="47.39999" lon="-0.9276">
        <ele>3</ele>
        <time>2013-08-28T09:15:00Z</time>
      </trkpt>
      <trkpt lat="47.39997" lon="-0.92775">
        <ele>3</ele>
        <time>2013-08-28T09:15:06Z</time>
      </trkpt>
      <trkpt lat="47.39989" lon="-0.9281">
        <ele>3</ele>
        <time>2013-08-28T09:15:06Z</time>
      </trkpt>
      <trkpt lat="47.39987" lon="-0.92819">
        <ele>3</ele>
        <time>2013-08-28T09:15:07Z</time>
      </trkpt>
      <trkpt lat="47.39977" lon="-0.92872">
        <ele>3</ele>
        <time>2013-08-28T09:15:13Z</time>
      </trkpt>
      <trkpt lat="47.39976" lon="-0.92881">
        <ele>3</ele>
        <time>2013-08-28T09:15:14Z</time>
      </trkpt>
      <trkpt lat="47.39971" lon="-0.92899">
        <ele>3</ele>
        <time>2013-08-28T09:15:21Z</time>
      </trkpt>
      <trkpt lat="47.39959" lon="-0.92944">
        <ele>3</ele>
        <time>2013-08-28T09:15:21Z</time>
      </trkpt>
      <trkpt lat="47.39957" lon="-0.92953">
        <ele>3</ele>
        <time>2013-08-28T09:15:22Z</time>
      </trkpt>
      <trkpt lat="47.39955" lon="-0.9297">
        <ele>3</ele>
        <time>2013-08-28T09:15:28Z</time>
      </trkpt>
      <trkpt lat="47.39953" lon="-0.92999">
        <ele>3</ele>
        <time>2013-08-28T09:15:28Z</time>
      </trkpt>
      <trkpt lat="47.39955" lon="-0.93006">
        <ele>3</ele>
        <time>2013-08-28T09:15:30Z</time>
      </trkpt>
      <trkpt lat="47.39959" lon="-0.93011">
        <ele>3</ele>
        <time>2013-08-28T09:15:31Z</time>
      </trkpt>
      <trkpt lat="47.39963" lon="-0.93015">
        <ele>2</ele>
        <time>2013-08-28T09:15:32Z</time>
      </trkpt>
      <trkpt lat="47.39972" lon="-0.93022">
        <ele>1</ele>
        <time>2013-08-28T09:15:38Z</time>
      </trkpt>
      <trkpt lat="47.39994" lon="-0.93036">
        <ele>1</ele>
        <time>2013-08-28T09:15:39Z</time>
      </trkpt>
      <trkpt lat="47.40002" lon="-0.93042">
        <ele>1</ele>
        <time>2013-08-28T09:15:45Z</time>
      </trkpt>
      <trkpt lat="47.40023" lon="-0.93054">
        <ele>1</ele>
        <time>2013-08-28T09:15:45Z</time>
      </trkpt>
      <trkpt lat="47.40026" lon="-0.93057">
        <ele>1</ele>
        <time>2013-08-28T09:15:46Z</time>
      </trkpt>
      <trkpt lat="47.40034" lon="-0.93063">
        <ele>1</ele>
        <time>2013-08-28T09:15:52Z</time>
      </trkpt>
      <trkpt lat="47.40049" lon="-0.93076">
        <ele>2</ele>
        <time>2013-08-28T09:15:52Z</time>
      </trkpt>
      <trkpt lat="47.40052" lon="-0.93078">
        <ele>3</ele>
        <time>2013-08-28T09:15:53Z</time>
      </trkpt>
      <trkpt lat="47.40059" lon="-0.93084">
        <ele>4</ele>
        <time>2013-08-28T09:15:59Z</time>
      </trkpt>
      <trkpt lat="47.40062" lon="-0.93105">
        <ele>6</ele>
        <time>2013-08-28T09:15:59Z</time>
      </trkpt>
      <trkpt lat="47.40059" lon="-0.93111">
        <ele>6</ele>
        <time>2013-08-28T09:16:00Z</time>
      </trkpt>
      <trkpt lat="47.40056" lon="-0.93117">
        <ele>6</ele>
        <time>2013-08-28T09:16:01Z</time>
      </trkpt>
      <trkpt lat="47.40052" lon="-0.93123">
        <ele>6</ele>
        <time>2013-08-28T09:16:03Z</time>
      </trkpt>
      <trkpt lat="47.40045" lon="-0.93135">
        <ele>6</ele>
        <time>2013-08-28T09:16:08Z</time>
      </trkpt>
      <trkpt lat="47.40031" lon="-0.93159">
        <ele>6</ele>
        <time>2013-08-28T09:16:08Z</time>
      </trkpt>
      <trkpt lat="47.40027" lon="-0.93165">
        <ele>6</ele>
        <time>2013-08-28T09:16:09Z</time>
      </trkpt>
      <trkpt lat="47.4002" lon="-0.93177">
        <ele>6</ele>
        <time>2013-08-28T09:16:15Z</time>
      </trkpt>
      <trkpt lat="47.40006" lon="-0.93202">
        <ele>6</ele>
        <time>2013-08-28T09:16:15Z</time>
      </trkpt>
      <trkpt lat="47.40002" lon="-0.93209">
        <ele>6</ele>
        <time>2013-08-28T09:16:16Z</time>
      </trkpt>
      <trkpt lat="47.39978" lon="-0.93251">
        <ele>6</ele>
        <time>2013-08-28T09:16:23Z</time>
      </trkpt>
      <trkpt lat="47.39973" lon="-0.93258">
        <ele>6</ele>
        <time>2013-08-28T09:16:23Z</time>
      </trkpt>
      <trkpt lat="47.39969" lon="-0.93265">
        <ele>6</ele>
        <time>2013-08-28T09:16:24Z</time>
      </trkpt>
      <trkpt lat="47.3996" lon="-0.93281">
        <ele>6</ele>
        <time>2013-08-28T09:16:30Z</time>
      </trkpt>
      <trkpt lat="47.39941" lon="-0.93313">
        <ele>6</ele>
        <time>2013-08-28T09:16:30Z</time>
      </trkpt>
      <trkpt lat="47.39936" lon="-0.93321">
        <ele>6</ele>
        <time>2013-08-28T09:16:31Z</time>
      </trkpt>
      <trkpt lat="47.39926" lon="-0.93339">
        <ele>6</ele>
        <time>2013-08-28T09:16:37Z</time>
      </trkpt>
      <trkpt lat="47.39902" lon="-0.93378">
        <ele>6</ele>
        <time>2013-08-28T09:16:37Z</time>
      </trkpt>
      <trkpt lat="47.39896" lon="-0.93388">
        <ele>5</ele>
        <time>2013-08-28T09:16:38Z</time>
      </trkpt>
      <trkpt lat="47.39883" lon="-0.93411">
        <ele>4</ele>
        <time>2013-08-28T09:16:44Z</time>
      </trkpt>
      <trkpt lat="47.39858" lon="-0.9346">
        <ele>3</ele>
        <time>2013-08-28T09:16:44Z</time>
      </trkpt>
      <trkpt lat="47.39853" lon="-0.93473">
        <ele>2</ele>
        <time>2013-08-28T09:16:45Z</time>
      </trkpt>
      <trkpt lat="47.39843" lon="-0.93499">
        <ele>1</ele>
        <time>2013-08-28T09:16:52Z</time>
      </trkpt>
      <trkpt lat="47.39823" lon="-0.93563">
        <ele>16.4</ele>
        <time>2013-08-28T09:16:52Z</time>
      </trkpt>
      <trkpt lat="47.39819" lon="-0.93576">
        <ele>15.8</ele>
        <time>2013-08-28T09:16:53Z</time>
      </trkpt>
      <trkpt lat="47.39813" lon="-0.93601">
        <ele>15</ele>
        <time>2013-08-28T09:16:59Z</time>
      </trkpt>
      <trkpt lat="47.39801" lon="-0.93653">
        <ele>14.4</ele>
        <time>2013-08-28T09:16:59Z</time>
      </trkpt>
      <trkpt lat="47.39797" lon="-0.93666">
        <ele>14.4</ele>
        <time>2013-08-28T09:17:00Z</time>
      </trkpt>
      <trkpt lat="47.3979" lon="-0.93693">
        <ele>14.1</ele>
        <time>2013-08-28T09:17:06Z</time>
      </trkpt>
      <trkpt lat="47.39776" lon="-0.93744">
        <ele>13.6</ele>
        <time>2013-08-28T09:17:06Z</time>
      </trkpt>
      <trkpt lat="47.39772" lon="-0.93757">
        <ele>14.3</ele>
        <time>2013-08-28T09:17:07Z</time>
      </trkpt>
      <trkpt lat="47.39749" lon="-0.93826">
        <ele>12</ele>
        <time>2013-08-28T09:17:13Z</time>
      </trkpt>
      <trkpt lat="47.39745" lon="-0.93838">
        <ele>12.2</ele>
        <time>2013-08-28T09:17:14Z</time>
      </trkpt>
      <trkpt lat="47.39739" lon="-0.93861">
        <ele>12.8</ele>
        <time>2013-08-28T09:17:21Z</time>
      </trkpt>
      <trkpt lat="47.39727" lon="-0.9392">
        <ele>13.5</ele>
        <time>2013-08-28T09:17:21Z</time>
      </trkpt>
      <trkpt lat="47.39724" lon="-0.93932">
        <ele>13.3</ele>
        <time>2013-08-28T09:17:22Z</time>
      </trkpt>
      <trkpt lat="47.39719" lon="-0.93956">
        <ele>13.1</ele>
        <time>2013-08-28T09:17:28Z</time>
      </trkpt>
      <trkpt lat="47.39708" lon="-0.94007">
        <ele>12.8</ele>
        <time>2013-08-28T09:17:28Z</time>
      </trkpt>
      <trkpt lat="47.39705" lon="-0.94019">
        <ele>12.4</ele>
        <time>2013-08-28T09:17:29Z</time>
      </trkpt>
      <trkpt lat="47.397" lon="-0.94043">
        <ele>-1</ele>
        <time>2013-08-28T09:17:35Z</time>
      </trkpt>
      <trkpt lat="47.39693" lon="-0.94089">
        <ele>-1</ele>
        <time>2013-08-28T09:17:35Z</time>
      </trkpt>
      <trkpt lat="47.39691" lon="-0.94101">
        <ele>-1</ele>
        <time>2013-08-28T09:17:36Z</time>
      </trkpt>
      <trkpt lat="47.39677" lon="-0.9417">
        <ele>-1</ele>
        <time>2013-08-28T09:17:42Z</time>
      </trkpt>
      <trkpt lat="47.39674" lon="-0.94182">
        <ele>-1</ele>
        <time>2013-08-28T09:17:43Z</time>
      </trkpt>
      <trkpt lat="47.39669" lon="-0.94205">
        <ele>-1</ele>
        <time>2013-08-28T09:17:50Z</time>
      </trkpt>
      <trkpt lat="47.39659" lon="-0.94264">
        <ele>-1</ele>
        <time>2013-08-28T09:17:50Z</time>
      </trkpt>
      <trkpt lat="47.39657" lon="-0.94276">
        <ele>-1</ele>
        <time>2013-08-28T09:17:51Z</time>
      </trkpt>
      <trkpt lat="47.39652" lon="-0.94299">
        <ele>-1</ele>
        <time>2013-08-28T09:17:57Z</time>
      </trkpt>
      <trkpt lat="47.39641" lon="-0.94344">
        <ele>-1</ele>
        <time>2013-08-28T09:17:57Z</time>
      </trkpt>
      <trkpt lat="47.39639" lon="-0.94354">
        <ele>-1</ele>
        <time>2013-08-28T09:17:58Z</time>
      </trkpt>
      <trkpt lat="47.39633" lon="-0.94376">
        <ele>-1</ele>
        <time>2013-08-28T09:18:04Z</time>
      </trkpt>
      <trkpt lat="47.39621" lon="-0.94419">
        <ele>-1</ele>
        <time>2013-08-28T09:18:04Z</time>
      </trkpt>
      <trkpt lat="47.39619" lon="-0.9443">
        <ele>-1</ele>
        <time>2013-08-28T09:18:05Z</time>
      </trkpt>
      <trkpt lat="47.39605" lon="-0.94493">
        <ele>-1</ele>
        <time>2013-08-28T09:18:11Z</time>
      </trkpt>
      <trkpt lat="47.39602" lon="-0.94504">
        <ele>-1</ele>
        <time>2013-08-28T09:18:12Z</time>
      </trkpt>
      <trkpt lat="47.39596" lon="-0.94525">
        <ele>-1</ele>
        <time>2013-08-28T09:18:19Z</time>
      </trkpt>
      <trkpt lat="47.39582" lon="-0.94581">
        <ele>12</ele>
        <time>2013-08-28T09:18:19Z</time>
      </trkpt>
      <trkpt lat="47.39579" lon="-0.94592">
        <ele>-2</ele>
        <time>2013-08-28T09:18:20Z</time>
      </trkpt>
      <trkpt lat="47.39574" lon="-0.94613">
        <ele>-2</ele>
        <time>2013-08-28T09:18:26Z</time>
      </trkpt>
      <trkpt lat="47.39562" lon="-0.94656">
        <ele>-1</ele>
        <time>2013-08-28T09:18:26Z</time>
      </trkpt>
      <trkpt lat="47.39559" lon="-0.94667">
        <ele>-3</ele>
        <time>2013-08-28T09:18:27Z</time>
      </trkpt>
      <trkpt lat="47.39552" lon="-0.94689">
        <ele>-3</ele>
        <time>2013-08-28T09:18:33Z</time>
      </trkpt>
      <trkpt lat="47.39537" lon="-0.94731">
        <ele>-3</ele>
        <time>2013-08-28T09:18:33Z</time>
      </trkpt>
      <trkpt lat="47.39532" lon="-0.94741">
        <ele>-3</ele>
        <time>2013-08-28T09:18:34Z</time>
      </trkpt>
      <trkpt lat="47.39505" lon="-0.94797">
        <ele>-3</ele>
        <time>2013-08-28T09:18:41Z</time>
      </trkpt>
      <trkpt lat="47.395" lon="-0.94806">
        <ele>-3</ele>
        <time>2013-08-28T09:18:41Z</time>
      </trkpt>
      <trkpt lat="47.3949" lon="-0.94825">
        <ele>-3</ele>
        <time>2013-08-28T09:18:48Z</time>
      </trkpt>
      <trkpt lat="47.39466" lon="-0.94871">
        <ele>-3</ele>
        <time>2013-08-28T09:18:48Z</time>
      </trkpt>
      <trkpt lat="47.39462" lon="-0.9488">
        <ele>-3</ele>
        <time>2013-08-28T09:18:49Z</time>
      </trkpt>
      <trkpt lat="47.39452" lon="-0.94898">
        <ele>-3</ele>
        <time>2013-08-28T09:18:55Z</time>
      </trkpt>
      <trkpt lat="47.39434" lon="-0.94934">
        <ele>-3</ele>
        <time>2013-08-28T09:18:55Z</time>
      </trkpt>
      <trkpt lat="47.39429" lon="-0.94943">
        <ele>-3</ele>
        <time>2013-08-28T09:18:56Z</time>
      </trkpt>
      <trkpt lat="47.3942" lon="-0.9496">
        <ele>-3</ele>
        <time>2013-08-28T09:19:02Z</time>
      </trkpt>
      <trkpt lat="47.39402" lon="-0.94995">
        <ele>-3</ele>
        <time>2013-08-28T09:19:02Z</time>
      </trkpt>
      <trkpt lat="47.39398" lon="-0.95004">
        <ele>-3</ele>
        <time>2013-08-28T09:19:03Z</time>
      </trkpt>
      <trkpt lat="47.39391" lon="-0.95024">
        <ele>-3</ele>
        <time>2013-08-28T09:19:10Z</time>
      </trkpt>
      <trkpt lat="47.39376" lon="-0.95073">
        <ele>-3</ele>
        <time>2013-08-28T09:19:10Z</time>
      </trkpt>
      <trkpt lat="47.39373" lon="-0.95082">
        <ele>-3</ele>
        <time>2013-08-28T09:19:11Z</time>
      </trkpt>
      <trkpt lat="47.39369" lon="-0.951">
        <ele>-2</ele>
        <time>2013-08-28T09:19:17Z</time>
      </trkpt>
      <trkpt lat="47.39358" lon="-0.95117">
        <ele>-2</ele>
        <time>2013-08-28T09:19:17Z</time>
      </trkpt>
      <trkpt lat="47.39354" lon="-0.95115">
        <ele>-2</ele>
        <time>2013-08-28T09:19:18Z</time>
      </trkpt>
      <trkpt lat="47.3935" lon="-0.95113">
        <ele>-1</ele>
        <time>2013-08-28T09:19:20Z</time>
      </trkpt>
      <trkpt lat="47.39347" lon="-0.9511">
        <ele>-1</ele>
        <time>2013-08-28T09:19:21Z</time>
      </trkpt>
      <trkpt lat="47.3932" lon="-0.95109">
        <ele>-1</ele>
        <time>2013-08-28T09:19:26Z</time>
      </trkpt>
      <trkpt lat="47.39315" lon="-0.95112">
        <ele>12</ele>
        <time>2013-08-28T09:19:27Z</time>
      </trkpt>
      <trkpt lat="47.39311" lon="-0.95115">
        <ele>12.1</ele>
        <time>2013-08-28T09:19:28Z</time>
      </trkpt>
      <trkpt lat="47.39301" lon="-0.95126">
        <ele>12</ele>
        <time>2013-08-28T09:19:34Z</time>
      </trkpt>
      <trkpt lat="47.39281" lon="-0.95151">
        <ele>12</ele>
        <time>2013-08-28T09:19:34Z</time>
      </trkpt>
      <trkpt lat="47.39275" lon="-0.95158">
        <ele>12</ele>
        <time>2013-08-28T09:19:35Z</time>
      </trkpt>
      <trkpt lat="47.39265" lon="-0.95173">
        <ele>12</ele>
        <time>2013-08-28T09:19:41Z</time>
      </trkpt>
      <trkpt lat="47.39243" lon="-0.95202">
        <ele>11.8</ele>
        <time>2013-08-28T09:19:41Z</time>
      </trkpt>
      <trkpt lat="47.39237" lon="-0.95209">
        <ele>11.8</ele>
        <time>2013-08-28T09:19:42Z</time>
      </trkpt>
      <trkpt lat="47.39226" lon="-0.95224">
        <ele>12</ele>
        <time>2013-08-28T09:19:49Z</time>
      </trkpt>
      <trkpt lat="47.39198" lon="-0.95262">
        <ele>12</ele>
        <time>2013-08-28T09:19:49Z</time>
      </trkpt>
      <trkpt lat="47.39192" lon="-0.95269">
        <ele>12</ele>
        <time>2013-08-28T09:19:50Z</time>
      </trkpt>
      <trkpt lat="47.39181" lon="-0.95284">
        <ele>12</ele>
        <time>2013-08-28T09:19:56Z</time>
      </trkpt>
      <trkpt lat="47.39159" lon="-0.95314">
        <ele>12.4</ele>
        <time>2013-08-28T09:19:56Z</time>
      </trkpt>
      <trkpt lat="47.39153" lon="-0.95322">
        <ele>12.4</ele>
        <time>2013-08-28T09:19:57Z</time>
      </trkpt>
      <trkpt lat="47.39141" lon="-0.95337">
        <ele>12</ele>
        <time>2013-08-28T09:20:03Z</time>
      </trkpt>
      <trkpt lat="47.39119" lon="-0.95367">
        <ele>12.6</ele>
        <time>2013-08-28T09:20:03Z</time>
      </trkpt>
      <trkpt lat="47.39113" lon="-0.95375">
        <ele>12.5</ele>
        <time>2013-08-28T09:20:04Z</time>
      </trkpt>
      <trkpt lat="47.39102" lon="-0.9539">
        <ele>12.3</ele>
        <time>2013-08-28T09:20:11Z</time>
      </trkpt>
      <trkpt lat="47.39076" lon="-0.95432">
        <ele>12</ele>
        <time>2013-08-28T09:20:11Z</time>
      </trkpt>
      <trkpt lat="47.39072" lon="-0.95442">
        <ele>12</ele>
        <time>2013-08-28T09:20:12Z</time>
      </trkpt>
      <trkpt lat="47.39065" lon="-0.95463">
        <ele>12.4</ele>
        <time>2013-08-28T09:20:18Z</time>
      </trkpt>
      <trkpt lat="47.39054" lon="-0.95504">
        <ele>12</ele>
        <time>2013-08-28T09:20:18Z</time>
      </trkpt>
      <trkpt lat="47.39052" lon="-0.95514">
        <ele>11.9</ele>
        <time>2013-08-28T09:20:19Z</time>
      </trkpt>
      <trkpt lat="47.39046" lon="-0.95536">
        <ele>12</ele>
        <time>2013-08-28T09:20:25Z</time>
      </trkpt>
      <trkpt lat="47.39034" lon="-0.95578">
        <ele>11.8</ele>
        <time>2013-08-28T09:20:25Z</time>
      </trkpt>
      <trkpt lat="47.39031" lon="-0.95588">
        <ele>11.9</ele>
        <time>2013-08-28T09:20:26Z</time>
      </trkpt>
      <trkpt lat="47.39027" lon="-0.95608">
        <ele>12</ele>
        <time>2013-08-28T09:20:33Z</time>
      </trkpt>
      <trkpt lat="47.39014" lon="-0.95658">
        <ele>12</ele>
        <time>2013-08-28T09:20:33Z</time>
      </trkpt>
      <trkpt lat="47.39012" lon="-0.95668">
        <ele>12</ele>
        <time>2013-08-28T09:20:34Z</time>
      </trkpt>
      <trkpt lat="47.39007" lon="-0.95691">
        <ele>12</ele>
        <time>2013-08-28T09:20:40Z</time>
      </trkpt>
      <trkpt lat="47.39" lon="-0.95737">
        <ele>12</ele>
        <time>2013-08-28T09:20:40Z</time>
      </trkpt>
      <trkpt lat="47.38998" lon="-0.95749">
        <ele>12</ele>
        <time>2013-08-28T09:20:41Z</time>
      </trkpt>
      <trkpt lat="47.38994" lon="-0.95772">
        <ele>12</ele>
        <time>2013-08-28T09:20:47Z</time>
      </trkpt>
      <trkpt lat="47.38987" lon="-0.95819">
        <ele>11.7</ele>
        <time>2013-08-28T09:20:47Z</time>
      </trkpt>
      <trkpt lat="47.38986" lon="-0.9583">
        <ele>11.6</ele>
        <time>2013-08-28T09:20:48Z</time>
      </trkpt>
      <trkpt lat="47.38983" lon="-0.95852">
        <ele>11.6</ele>
        <time>2013-08-28T09:20:55Z</time>
      </trkpt>
      <trkpt lat="47.38976" lon="-0.95909">
        <ele>11.9</ele>
        <time>2013-08-28T09:20:55Z</time>
      </trkpt>
      <trkpt lat="47.38975" lon="-0.9592">
        <ele>11.9</ele>
        <time>2013-08-28T09:20:56Z</time>
      </trkpt>
      <trkpt lat="47.38973" lon="-0.95943">
        <ele>12</ele>
        <time>2013-08-28T09:21:02Z</time>
      </trkpt>
      <trkpt lat="47.38969" lon="-0.9599">
        <ele>11.4</ele>
        <time>2013-08-28T09:21:02Z</time>
      </trkpt>
      <trkpt lat="47.3897" lon="-0.96002">
        <ele>11.1</ele>
        <time>2013-08-28T09:21:03Z</time>
      </trkpt>
      <trkpt lat="47.38971" lon="-0.96025">
        <ele>11.9</ele>
        <time>2013-08-28T09:21:09Z</time>
      </trkpt>
      <trkpt lat="47.38975" lon="-0.96071">
        <ele>11.3</ele>
        <time>2013-08-28T09:21:09Z</time>
      </trkpt>
      <trkpt lat="47.38976" lon="-0.96082">
        <ele>10.9</ele>
        <time>2013-08-28T09:21:10Z</time>
      </trkpt>
      <trkpt lat="47.38978" lon="-0.96105">
        <ele>10.8</ele>
        <time>2013-08-28T09:21:17Z</time>
      </trkpt>
      <trkpt lat="47.38976" lon="-0.9616">
        <ele>11.7</ele>
        <time>2013-08-28T09:21:17Z</time>
      </trkpt>
      <trkpt lat="47.38975" lon="-0.9617">
        <ele>11.8</ele>
        <time>2013-08-28T09:21:18Z</time>
      </trkpt>
      <trkpt lat="47.38974" lon="-0.96181">
        <ele>11.5</ele>
        <time>2013-08-28T09:21:19Z</time>
      </trkpt>
      <trkpt lat="47.38971" lon="-0.96202">
        <ele>11.2</ele>
        <time>2013-08-28T09:21:25Z</time>
      </trkpt>
      <trkpt lat="47.3896" lon="-0.96244">
        <ele>11.9</ele>
        <time>2013-08-28T09:21:25Z</time>
      </trkpt>
      <trkpt lat="47.38957" lon="-0.96255">
        <ele>12</ele>
        <time>2013-08-28T09:21:26Z</time>
      </trkpt>
      <trkpt lat="47.3895" lon="-0.96276">
        <ele>12</ele>
        <time>2013-08-28T09:21:32Z</time>
      </trkpt>
      <trkpt lat="47.38939" lon="-0.96317">
        <ele>11.8</ele>
        <time>2013-08-28T09:21:32Z</time>
      </trkpt>
      <trkpt lat="47.38936" lon="-0.96327">
        <ele>11.7</ele>
        <time>2013-08-28T09:21:33Z</time>
      </trkpt>
      <trkpt lat="47.3893" lon="-0.96347">
        <ele>11.7</ele>
        <time>2013-08-28T09:21:40Z</time>
      </trkpt>
      <trkpt lat="47.38913" lon="-0.96394">
        <ele>12.9</ele>
        <time>2013-08-28T09:21:40Z</time>
      </trkpt>
      <trkpt lat="47.38909" lon="-0.96403">
        <ele>12.7</ele>
        <time>2013-08-28T09:21:41Z</time>
      </trkpt>
      <trkpt lat="47.389" lon="-0.96418">
        <ele>12.4</ele>
        <time>2013-08-28T09:21:47Z</time>
      </trkpt>
      <trkpt lat="47.38876" lon="-0.96443">
        <ele>12.5</ele>
        <time>2013-08-28T09:21:47Z</time>
      </trkpt>
      <trkpt lat="47.38869" lon="-0.96448">
        <ele>12.4</ele>
        <time>2013-08-28T09:21:49Z</time>
      </trkpt>
      <trkpt lat="47.38862" lon="-0.96453">
        <ele>12.3</ele>
        <time>2013-08-28T09:21:50Z</time>
      </trkpt>
      <trkpt lat="47.38848" lon="-0.96463">
        <ele>12.2</ele>
        <time>2013-08-28T09:21:55Z</time>
      </trkpt>
      <trkpt lat="47.38823" lon="-0.96486">
        <ele>12.2</ele>
        <time>2013-08-28T09:21:55Z</time>
      </trkpt>
      <trkpt lat="47.38817" lon="-0.96492">
        <ele>12.4</ele>
        <time>2013-08-28T09:21:56Z</time>
      </trkpt>
      <trkpt lat="47.38788" lon="-0.96541">
        <ele>12.7</ele>
        <time>2013-08-28T09:22:02Z</time>
      </trkpt>
      <trkpt lat="47.38785" lon="-0.96551">
        <ele>12.9</ele>
        <time>2013-08-28T09:22:04Z</time>
      </trkpt>
      <trkpt lat="47.38782" lon="-0.9656">
        <ele>13.2</ele>
        <time>2013-08-28T09:22:05Z</time>
      </trkpt>
      <trkpt lat="47.38771" lon="-0.96621">
        <ele>13.5</ele>
        <time>2013-08-28T09:22:10Z</time>
      </trkpt>
      <trkpt lat="47.3877" lon="-0.96631">
        <ele>13.6</ele>
        <time>2013-08-28T09:22:11Z</time>
      </trkpt>
      <trkpt lat="47.38768" lon="-0.96653">
        <ele>12.8</ele>
        <time>2013-08-28T09:22:18Z</time>
      </trkpt>
      <trkpt lat="47.38763" lon="-0.96708">
        <ele>12</ele>
        <time>2013-08-28T09:22:18Z</time>
      </trkpt>
      <trkpt lat="47.38762" lon="-0.96719">
        <ele>12</ele>
        <time>2013-08-28T09:22:19Z</time>
      </trkpt>
      <trkpt lat="47.3876" lon="-0.96741">
        <ele>12.4</ele>
        <time>2013-08-28T09:22:25Z</time>
      </trkpt>
      <trkpt lat="47.38757" lon="-0.96785">
        <ele>13.7</ele>
        <time>2013-08-28T09:22:25Z</time>
      </trkpt>
      <trkpt lat="47.38757" lon="-0.96795">
        <ele>14</ele>
        <time>2013-08-28T09:22:26Z</time>
      </trkpt>
      <trkpt lat="47.38757" lon="-0.96816">
        <ele>14</ele>
        <time>2013-08-28T09:22:32Z</time>
      </trkpt>
      <trkpt lat="47.38763" lon="-0.96853">
        <ele>13.9</ele>
        <time>2013-08-28T09:22:32Z</time>
      </trkpt>
      <trkpt lat="47.38765" lon="-0.96861">
        <ele>14</ele>
        <time>2013-08-28T09:22:34Z</time>
      </trkpt>
      <trkpt lat="47.38767" lon="-0.96868">
        <ele>14.6</ele>
        <time>2013-08-28T09:22:35Z</time>
      </trkpt>
      <trkpt lat="47.38785" lon="-0.96907">
        <ele>17.6</ele>
        <time>2013-08-28T09:22:40Z</time>
      </trkpt>
      <trkpt lat="47.38789" lon="-0.96913">
        <ele>17.4</ele>
        <time>2013-08-28T09:22:42Z</time>
      </trkpt>
      <trkpt lat="47.38793" lon="-0.96919">
        <ele>17.4</ele>
        <time>2013-08-28T09:22:43Z</time>
      </trkpt>
      <trkpt lat="47.38803" lon="-0.9693">
        <ele>18.6</ele>
        <time>2013-08-28T09:22:49Z</time>
      </trkpt>
      <trkpt lat="47.38829" lon="-0.9695">
        <ele>17.1</ele>
        <time>2013-08-28T09:22:49Z</time>
      </trkpt>
      <trkpt lat="47.38834" lon="-0.96952">
        <ele>16.5</ele>
        <time>2013-08-28T09:22:51Z</time>
      </trkpt>
      <trkpt lat="47.38839" lon="-0.96955">
        <ele>16.7</ele>
        <time>2013-08-28T09:22:52Z</time>
      </trkpt>
      <trkpt lat="47.3885" lon="-0.96962">
        <ele>18.1</ele>
        <time>2013-08-28T09:22:57Z</time>
      </trkpt>
      <trkpt lat="47.3887" lon="-0.96975">
        <ele>20.2</ele>
        <time>2013-08-28T09:22:57Z</time>
      </trkpt>
      <trkpt lat="47.38875" lon="-0.96978">
        <ele>19.3</ele>
        <time>2013-08-28T09:22:58Z</time>
      </trkpt>
      <trkpt lat="47.38908" lon="-0.96997">
        <ele>18.4</ele>
        <time>2013-08-28T09:23:04Z</time>
      </trkpt>
      <trkpt lat="47.38913" lon="-0.96998">
        <ele>18.7</ele>
        <time>2013-08-28T09:23:05Z</time>
      </trkpt>
      <trkpt lat="47.38922" lon="-0.97">
        <ele>18.4</ele>
        <time>2013-08-28T09:23:12Z</time>
      </trkpt>
      <trkpt lat="47.38935" lon="-0.97013">
        <ele>16.7</ele>
        <time>2013-08-28T09:23:12Z</time>
      </trkpt>
      <trkpt lat="47.38936" lon="-0.97019">
        <ele>16.5</ele>
        <time>2013-08-28T09:23:14Z</time>
      </trkpt>
      <trkpt lat="47.38937" lon="-0.97026">
        <ele>16.3</ele>
        <time>2013-08-28T09:23:15Z</time>
      </trkpt>
      <trkpt lat="47.38936" lon="-0.97041">
        <ele>17</ele>
        <time>2013-08-28T09:23:21Z</time>
      </trkpt>
      <trkpt lat="47.38935" lon="-0.97083">
        <ele>17.7</ele>
        <time>2013-08-28T09:23:21Z</time>
      </trkpt>
      <trkpt lat="47.38935" lon="-0.97092">
        <ele>17.7</ele>
        <time>2013-08-28T09:23:22Z</time>
      </trkpt>
      <trkpt lat="47.38935" lon="-0.97111">
        <ele>17.6</ele>
        <time>2013-08-28T09:23:28Z</time>
      </trkpt>
      <trkpt lat="47.38934" lon="-0.97149">
        <ele>18.8</ele>
        <time>2013-08-28T09:23:28Z</time>
      </trkpt>
      <trkpt lat="47.38933" lon="-0.97159">
        <ele>18.9</ele>
        <time>2013-08-28T09:23:29Z</time>
      </trkpt>
      <trkpt lat="47.38924" lon="-0.9722">
        <ele>19</ele>
        <time>2013-08-28T09:23:35Z</time>
      </trkpt>
      <trkpt lat="47.38922" lon="-0.9723">
        <ele>19</ele>
        <time>2013-08-28T09:23:36Z</time>
      </trkpt>
      <trkpt lat="47.38919" lon="-0.97251">
        <ele>19</ele>
        <time>2013-08-28T09:23:43Z</time>
      </trkpt>
      <trkpt lat="47.38909" lon="-0.97304">
        <ele>19.7</ele>
        <time>2013-08-28T09:23:43Z</time>
      </trkpt>
      <trkpt lat="47.38908" lon="-0.97315">
        <ele>19.7</ele>
        <time>2013-08-28T09:23:44Z</time>
      </trkpt>
      <trkpt lat="47.38904" lon="-0.97337">
        <ele>19.6</ele>
        <time>2013-08-28T09:23:50Z</time>
      </trkpt>
      <trkpt lat="47.38897" lon="-0.9738">
        <ele>19.3</ele>
        <time>2013-08-28T09:23:50Z</time>
      </trkpt>
      <trkpt lat="47.38895" lon="-0.9739">
        <ele>19.3</ele>
        <time>2013-08-28T09:23:51Z</time>
      </trkpt>
      <trkpt lat="47.38885" lon="-0.97455">
        <ele>19.8</ele>
        <time>2013-08-28T09:23:57Z</time>
      </trkpt>
      <trkpt lat="47.38883" lon="-0.97466">
        <ele>19.7</ele>
        <time>2013-08-28T09:23:58Z</time>
      </trkpt>
      <trkpt lat="47.38879" lon="-0.97488">
        <ele>19.7</ele>
        <time>2013-08-28T09:24:05Z</time>
      </trkpt>
      <trkpt lat="47.38867" lon="-0.97541">
        <ele>18.7</ele>
        <time>2013-08-28T09:24:05Z</time>
      </trkpt>
      <trkpt lat="47.38864" lon="-0.97552">
        <ele>18.2</ele>
        <time>2013-08-28T09:24:06Z</time>
      </trkpt>
      <trkpt lat="47.38858" lon="-0.97574">
        <ele>17.9</ele>
        <time>2013-08-28T09:24:12Z</time>
      </trkpt>
      <trkpt lat="47.38846" lon="-0.97619">
        <ele>17.4</ele>
        <time>2013-08-28T09:24:12Z</time>
      </trkpt>
      <trkpt lat="47.38842" lon="-0.9763">
        <ele>17.3</ele>
        <time>2013-08-28T09:24:13Z</time>
      </trkpt>
      <trkpt lat="47.38825" lon="-0.97701">
        <ele>15.6</ele>
        <time>2013-08-28T09:24:19Z</time>
      </trkpt>
      <trkpt lat="47.38823" lon="-0.97712">
        <ele>15.4</ele>
        <time>2013-08-28T09:24:20Z</time>
      </trkpt>
      <trkpt lat="47.3882" lon="-0.97737">
        <ele>15</ele>
        <time>2013-08-28T09:24:27Z</time>
      </trkpt>
      <trkpt lat="47.38812" lon="-0.97799">
        <ele>15.6</ele>
        <time>2013-08-28T09:24:27Z</time>
      </trkpt>
      <trkpt lat="47.3881" lon="-0.97811">
        <ele>15.5</ele>
        <time>2013-08-28T09:24:28Z</time>
      </trkpt>
      <trkpt lat="47.38808" lon="-0.97836">
        <ele>15.2</ele>
        <time>2013-08-28T09:24:34Z</time>
      </trkpt>
      <trkpt lat="47.38803" lon="-0.97885">
        <ele>14.8</ele>
        <time>2013-08-28T09:24:34Z</time>
      </trkpt>
      <trkpt lat="47.38802" lon="-0.97897">
        <ele>14.8</ele>
        <time>2013-08-28T09:24:35Z</time>
      </trkpt>
      <trkpt lat="47.38811" lon="-0.97966">
        <ele>15.2</ele>
        <time>2013-08-28T09:24:41Z</time>
      </trkpt>
      <trkpt lat="47.38813" lon="-0.97977">
        <ele>15.1</ele>
        <time>2013-08-28T09:24:42Z</time>
      </trkpt>
      <trkpt lat="47.38815" lon="-0.97988">
        <ele>15</ele>
        <time>2013-08-28T09:24:44Z</time>
      </trkpt>
      <trkpt lat="47.38819" lon="-0.98009">
        <ele>14.9</ele>
        <time>2013-08-28T09:24:50Z</time>
      </trkpt>
      <trkpt lat="47.38828" lon="-0.98061">
        <ele>15.5</ele>
        <time>2013-08-28T09:24:50Z</time>
      </trkpt>
      <trkpt lat="47.38828" lon="-0.98071">
        <ele>15.2</ele>
        <time>2013-08-28T09:24:51Z</time>
      </trkpt>
      <trkpt lat="47.38828" lon="-0.98093">
        <ele>15.2</ele>
        <time>2013-08-28T09:24:57Z</time>
      </trkpt>
      <trkpt lat="47.38827" lon="-0.98138">
        <ele>15.8</ele>
        <time>2013-08-28T09:24:57Z</time>
      </trkpt>
      <trkpt lat="47.38826" lon="-0.9815">
        <ele>15.7</ele>
        <time>2013-08-28T09:24:58Z</time>
      </trkpt>
      <trkpt lat="47.38827" lon="-0.98219">
        <ele>16</ele>
        <time>2013-08-28T09:25:04Z</time>
      </trkpt>
      <trkpt lat="47.38828" lon="-0.9823">
        <ele>16.2</ele>
        <time>2013-08-28T09:25:06Z</time>
      </trkpt>
      <trkpt lat="47.38829" lon="-0.9824">
        <ele>16.5</ele>
        <time>2013-08-28T09:25:07Z</time>
      </trkpt>
      <trkpt lat="47.38834" lon="-0.98303">
        <ele>17.9</ele>
        <time>2013-08-28T09:25:12Z</time>
      </trkpt>
      <trkpt lat="47.38832" lon="-0.98313">
        <ele>17.9</ele>
        <time>2013-08-28T09:25:13Z</time>
      </trkpt>
      <trkpt lat="47.38829" lon="-0.98324">
        <ele>17.8</ele>
        <time>2013-08-28T09:25:14Z</time>
      </trkpt>
      <trkpt lat="47.38823" lon="-0.98344">
        <ele>17.6</ele>
        <time>2013-08-28T09:25:20Z</time>
      </trkpt>
      <trkpt lat="47.38808" lon="-0.98384">
        <ele>17.1</ele>
        <time>2013-08-28T09:25:20Z</time>
      </trkpt>
      <trkpt lat="47.38803" lon="-0.98394">
        <ele>16.9</ele>
        <time>2013-08-28T09:25:21Z</time>
      </trkpt>
      <trkpt lat="47.38779" lon="-0.98454">
        <ele>16</ele>
        <time>2013-08-28T09:25:27Z</time>
      </trkpt>
      <trkpt lat="47.38775" lon="-0.98464">
        <ele>15.9</ele>
        <time>2013-08-28T09:25:28Z</time>
      </trkpt>
      <trkpt lat="47.38766" lon="-0.98484">
        <ele>15.8</ele>
        <time>2013-08-28T09:25:35Z</time>
      </trkpt>
      <trkpt lat="47.38743" lon="-0.98529">
        <ele>16</ele>
        <time>2013-08-28T09:25:35Z</time>
      </trkpt>
      <trkpt lat="47.38737" lon="-0.98537">
        <ele>16.2</ele>
        <time>2013-08-28T09:25:36Z</time>
      </trkpt>
      <trkpt lat="47.38727" lon="-0.98553">
        <ele>16.1</ele>
        <time>2013-08-28T09:25:42Z</time>
      </trkpt>
      <trkpt lat="47.38706" lon="-0.98584">
        <ele>17</ele>
        <time>2013-08-28T09:25:42Z</time>
      </trkpt>
      <trkpt lat="47.38701" lon="-0.98591">
        <ele>17</ele>
        <time>2013-08-28T09:25:43Z</time>
      </trkpt>
      <trkpt lat="47.3869" lon="-0.98607">
        <ele>17</ele>
        <time>2013-08-28T09:25:50Z</time>
      </trkpt>
      <trkpt lat="47.3867" lon="-0.9865">
        <ele>17.5</ele>
        <time>2013-08-28T09:25:50Z</time>
      </trkpt>
      <trkpt lat="47.38668" lon="-0.98661">
        <ele>17.8</ele>
        <time>2013-08-28T09:25:51Z</time>
      </trkpt>
      <trkpt lat="47.38665" lon="-0.98738">
        <ele>19</ele>
        <time>2013-08-28T09:25:58Z</time>
      </trkpt>
      <trkpt lat="47.38665" lon="-0.98748">
        <ele>19</ele>
        <time>2013-08-28T09:25:59Z</time>
      </trkpt>
      <trkpt lat="47.38665" lon="-0.9877">
        <ele>19.6</ele>
        <time>2013-08-28T09:26:05Z</time>
      </trkpt>
      <trkpt lat="47.38665" lon="-0.98813">
        <ele>20.2</ele>
        <time>2013-08-28T09:26:05Z</time>
      </trkpt>
      <trkpt lat="47.38665" lon="-0.98823">
        <ele>20.5</ele>
        <time>2013-08-28T09:26:06Z</time>
      </trkpt>
      <trkpt lat="47.38663" lon="-0.98889">
        <ele>19.9</ele>
        <time>2013-08-28T09:26:12Z</time>
      </trkpt>
      <trkpt lat="47.38662" lon="-0.989">
        <ele>20.2</ele>
        <time>2013-08-28T09:26:13Z</time>
      </trkpt>
      <trkpt lat="47.3866" lon="-0.98923">
        <ele>20.5</ele>
        <time>2013-08-28T09:26:20Z</time>
      </trkpt>
      <trkpt lat="47.38653" lon="-0.98982">
        <ele>19.5</ele>
        <time>2013-08-28T09:26:20Z</time>
      </trkpt>
      <trkpt lat="47.38652" lon="-0.98994">
        <ele>19.5</ele>
        <time>2013-08-28T09:26:21Z</time>
      </trkpt>
      <trkpt lat="47.3865" lon="-0.99019">
        <ele>19.4</ele>
        <time>2013-08-28T09:26:27Z</time>
      </trkpt>
      <trkpt lat="47.38646" lon="-0.99066">
        <ele>19.2</ele>
        <time>2013-08-28T09:26:27Z</time>
      </trkpt>
      <trkpt lat="47.38645" lon="-0.99078">
        <ele>19.2</ele>
        <time>2013-08-28T09:26:28Z</time>
      </trkpt>
      <trkpt lat="47.38643" lon="-0.99102">
        <ele>19.6</ele>
        <time>2013-08-28T09:26:35Z</time>
      </trkpt>
      <trkpt lat="47.38638" lon="-0.9916">
        <ele>20</ele>
        <time>2013-08-28T09:26:35Z</time>
      </trkpt>
      <trkpt lat="47.38637" lon="-0.99172">
        <ele>19.8</ele>
        <time>2013-08-28T09:26:36Z</time>
      </trkpt>
      <trkpt lat="47.38635" lon="-0.99195">
        <ele>19</ele>
        <time>2013-08-28T09:26:42Z</time>
      </trkpt>
      <trkpt lat="47.38626" lon="-0.99239">
        <ele>19.2</ele>
        <time>2013-08-28T09:26:42Z</time>
      </trkpt>
      <trkpt lat="47.38622" lon="-0.99249">
        <ele>19.2</ele>
        <time>2013-08-28T09:26:44Z</time>
      </trkpt>
      <trkpt lat="47.38618" lon="-0.99258">
        <ele>19.3</ele>
        <time>2013-08-28T09:26:44Z</time>
      </trkpt>
      <trkpt lat="47.38609" lon="-0.99277">
        <ele>19</ele>
        <time>2013-08-28T09:26:50Z</time>
      </trkpt>
      <trkpt lat="47.3859" lon="-0.99316">
        <ele>17.9</ele>
        <time>2013-08-28T09:26:50Z</time>
      </trkpt>
      <trkpt lat="47.38585" lon="-0.99327">
        <ele>17.3</ele>
        <time>2013-08-28T09:26:51Z</time>
      </trkpt>
      <trkpt lat="47.38577" lon="-0.99352">
        <ele>15.2</ele>
        <time>2013-08-28T09:26:58Z</time>
      </trkpt>
      <trkpt lat="47.38556" lon="-0.99422">
        <ele>10.8</ele>
        <time>2013-08-28T09:26:58Z</time>
      </trkpt>
      <trkpt lat="47.38552" lon="-0.99436">
        <ele>10.2</ele>
        <time>2013-08-28T09:26:59Z</time>
      </trkpt>
      <trkpt lat="47.38545" lon="-0.99464">
        <ele>10.3</ele>
        <time>2013-08-28T09:27:05Z</time>
      </trkpt>
      <trkpt lat="47.3853" lon="-0.99516">
        <ele>12.1</ele>
        <time>2013-08-28T09:27:05Z</time>
      </trkpt>
      <trkpt lat="47.38527" lon="-0.99528">
        <ele>11.9</ele>
        <time>2013-08-28T09:27:06Z</time>
      </trkpt>
      <trkpt lat="47.38505" lon="-0.99594">
        <ele>12.9</ele>
        <time>2013-08-28T09:27:12Z</time>
      </trkpt>
      <trkpt lat="47.38501" lon="-0.99604">
        <ele>12.8</ele>
        <time>2013-08-28T09:27:13Z</time>
      </trkpt>
      <trkpt lat="47.38494" lon="-0.99626">
        <ele>13.3</ele>
        <time>2013-08-28T09:27:20Z</time>
      </trkpt>
      <trkpt lat="47.38474" lon="-0.99676">
        <ele>14</ele>
        <time>2013-08-28T09:27:20Z</time>
      </trkpt>
      <trkpt lat="47.38471" lon="-0.99686">
        <ele>14</ele>
        <time>2013-08-28T09:27:21Z</time>
      </trkpt>
      <trkpt lat="47.38464" lon="-0.99705">
        <ele>14.4</ele>
        <time>2013-08-28T09:27:27Z</time>
      </trkpt>
      <trkpt lat="47.38451" lon="-0.9974">
        <ele>15.7</ele>
        <time>2013-08-28T09:27:27Z</time>
      </trkpt>
      <trkpt lat="47.38448" lon="-0.99749">
        <ele>16</ele>
        <time>2013-08-28T09:27:28Z</time>
      </trkpt>
      <trkpt lat="47.38429" lon="-0.998">
        <ele>17.8</ele>
        <time>2013-08-28T09:27:34Z</time>
      </trkpt>
      <trkpt lat="47.38426" lon="-0.99807">
        <ele>18</ele>
        <time>2013-08-28T09:27:35Z</time>
      </trkpt>
      <trkpt lat="47.38423" lon="-0.99815">
        <ele>18.3</ele>
        <time>2013-08-28T09:27:36Z</time>
      </trkpt>
      <trkpt lat="47.38418" lon="-0.99831">
        <ele>18.9</ele>
        <time>2013-08-28T09:27:42Z</time>
      </trkpt>
      <trkpt lat="47.38406" lon="-0.99861">
        <ele>20</ele>
        <time>2013-08-28T09:27:42Z</time>
      </trkpt>
      <trkpt lat="47.38402" lon="-0.99868">
        <ele>20.3</ele>
        <time>2013-08-28T09:27:43Z</time>
      </trkpt>
      <trkpt lat="47.38374" lon="-0.99903">
        <ele>21.8</ele>
        <time>2013-08-28T09:27:49Z</time>
      </trkpt>
      <trkpt lat="47.38368" lon="-0.99908">
        <ele>21.9</ele>
        <time>2013-08-28T09:27:50Z</time>
      </trkpt>
      <trkpt lat="47.38362" lon="-0.99913">
        <ele>22</ele>
        <time>2013-08-28T09:27:52Z</time>
      </trkpt>
      <trkpt lat="47.3833" lon="-0.99947">
        <ele>21.8</ele>
        <time>2013-08-28T09:27:57Z</time>
      </trkpt>
      <trkpt lat="47.38326" lon="-0.99956">
        <ele>21.6</ele>
        <time>2013-08-28T09:27:58Z</time>
      </trkpt>
      <trkpt lat="47.38322" lon="-0.99966">
        <ele>1</ele>
        <time>2013-08-28T09:27:59Z</time>
      </trkpt>
      <trkpt lat="47.38316" lon="-0.99987">
        <ele>2</ele>
        <time>2013-08-28T09:28:05Z</time>
      </trkpt>
      <trkpt lat="47.38317" lon="-1.00031">
        <ele>2</ele>
        <time>2013-08-28T09:28:05Z</time>
      </trkpt>
      <trkpt lat="47.38317" lon="-1.00042">
        <ele>2</ele>
        <time>2013-08-28T09:28:07Z</time>
      </trkpt>
      <trkpt lat="47.38319" lon="-1.00052">
        <ele>2</ele>
        <time>2013-08-28T09:28:08Z</time>
      </trkpt>
      <trkpt lat="47.38321" lon="-1.00072">
        <ele>2</ele>
        <time>2013-08-28T09:28:13Z</time>
      </trkpt>
      <trkpt lat="47.38327" lon="-1.0011">
        <ele>2</ele>
        <time>2013-08-28T09:28:13Z</time>
      </trkpt>
      <trkpt lat="47.38328" lon="-1.0012">
        <ele>2</ele>
        <time>2013-08-28T09:28:14Z</time>
      </trkpt>
      <trkpt lat="47.38331" lon="-1.00138">
        <ele>3</ele>
        <time>2013-08-28T09:28:21Z</time>
      </trkpt>
      <trkpt lat="47.38338" lon="-1.00186">
        <ele>4</ele>
        <time>2013-08-28T09:28:21Z</time>
      </trkpt>
      <trkpt lat="47.38339" lon="-1.00196">
        <ele>4</ele>
        <time>2013-08-28T09:28:22Z</time>
      </trkpt>
      <trkpt lat="47.38342" lon="-1.00217">
        <ele>5</ele>
        <time>2013-08-28T09:28:28Z</time>
      </trkpt>
      <trkpt lat="47.38348" lon="-1.00258">
        <ele>5</ele>
        <time>2013-08-28T09:28:28Z</time>
      </trkpt>
      <trkpt lat="47.38349" lon="-1.00269">
        <ele>5</ele>
        <time>2013-08-28T09:28:29Z</time>
      </trkpt>
      <trkpt lat="47.38358" lon="-1.00332">
        <ele>5</ele>
        <time>2013-08-28T09:28:35Z</time>
      </trkpt>
      <trkpt lat="47.38359" lon="-1.00343">
        <ele>5</ele>
        <time>2013-08-28T09:28:36Z</time>
      </trkpt>
      <trkpt lat="47.38361" lon="-1.00365">
        <ele>5</ele>
        <time>2013-08-28T09:28:43Z</time>
      </trkpt>
      <trkpt lat="47.38364" lon="-1.00421">
        <ele>5</ele>
        <time>2013-08-28T09:28:43Z</time>
      </trkpt>
      <trkpt lat="47.38364" lon="-1.00432">
        <ele>5</ele>
        <time>2013-08-28T09:28:44Z</time>
      </trkpt>
      <trkpt lat="47.38366" lon="-1.00454">
        <ele>5</ele>
        <time>2013-08-28T09:28:50Z</time>
      </trkpt>
      <trkpt lat="47.38368" lon="-1.00494">
        <ele>4</ele>
        <time>2013-08-28T09:28:50Z</time>
      </trkpt>
      <trkpt lat="47.38369" lon="-1.00505">
        <ele>3</ele>
        <time>2013-08-28T09:28:51Z</time>
      </trkpt>
      <trkpt lat="47.38369" lon="-1.00525">
        <ele>3</ele>
        <time>2013-08-28T09:28:58Z</time>
      </trkpt>
      <trkpt lat="47.38374" lon="-1.00576">
        <ele>3</ele>
        <time>2013-08-28T09:28:58Z</time>
      </trkpt>
      <trkpt lat="47.38376" lon="-1.00586">
        <ele>3</ele>
        <time>2013-08-28T09:28:59Z</time>
      </trkpt>
      <trkpt lat="47.38379" lon="-1.00606">
        <ele>3</ele>
        <time>2013-08-28T09:29:05Z</time>
      </trkpt>
      <trkpt lat="47.38386" lon="-1.00646">
        <ele>3</ele>
        <time>2013-08-28T09:29:05Z</time>
      </trkpt>
      <trkpt lat="47.38388" lon="-1.00658">
        <ele>3</ele>
        <time>2013-08-28T09:29:06Z</time>
      </trkpt>
      <trkpt lat="47.38395" lon="-1.00723">
        <ele>3</ele>
        <time>2013-08-28T09:29:12Z</time>
      </trkpt>
      <trkpt lat="47.38396" lon="-1.00734">
        <ele>3</ele>
        <time>2013-08-28T09:29:13Z</time>
      </trkpt>
      <trkpt lat="47.38398" lon="-1.00756">
        <ele>2</ele>
        <time>2013-08-28T09:29:20Z</time>
      </trkpt>
      <trkpt lat="47.38401" lon="-1.00808">
        <ele>1</ele>
        <time>2013-08-28T09:29:20Z</time>
      </trkpt>
      <trkpt lat="47.38401" lon="-1.00818">
        <ele>1</ele>
        <time>2013-08-28T09:29:21Z</time>
      </trkpt>
      <trkpt lat="47.38403" lon="-1.00838">
        <ele>26.9</ele>
        <time>2013-08-28T09:29:27Z</time>
      </trkpt>
      <trkpt lat="47.38406" lon="-1.00879">
        <ele>26.6</ele>
        <time>2013-08-28T09:29:27Z</time>
      </trkpt>
      <trkpt lat="47.38407" lon="-1.00888">
        <ele>26.6</ele>
        <time>2013-08-28T09:29:28Z</time>
      </trkpt>
      <trkpt lat="47.38409" lon="-1.00909">
        <ele>26.7</ele>
        <time>2013-08-28T09:29:35Z</time>
      </trkpt>
      <trkpt lat="47.38414" lon="-1.00964">
        <ele>26.8</ele>
        <time>2013-08-28T09:29:35Z</time>
      </trkpt>
      <trkpt lat="47.38415" lon="-1.00976">
        <ele>26.7</ele>
        <time>2013-08-28T09:29:36Z</time>
      </trkpt>
      <trkpt lat="47.38416" lon="-1.00997">
        <ele>26.1</ele>
        <time>2013-08-28T09:29:42Z</time>
      </trkpt>
      <trkpt lat="47.3842" lon="-1.01045">
        <ele>26</ele>
        <time>2013-08-28T09:29:42Z</time>
      </trkpt>
      <trkpt lat="47.38421" lon="-1.01057">
        <ele>26</ele>
        <time>2013-08-28T09:29:43Z</time>
      </trkpt>
      <trkpt lat="47.38425" lon="-1.01127">
        <ele>26</ele>
        <time>2013-08-28T09:29:49Z</time>
      </trkpt>
      <trkpt lat="47.38425" lon="-1.01137">
        <ele>26</ele>
        <time>2013-08-28T09:29:50Z</time>
      </trkpt>
      <trkpt lat="47.38425" lon="-1.01148">
        <ele>26</ele>
        <time>2013-08-28T09:29:51Z</time>
      </trkpt>
      <trkpt lat="47.38425" lon="-1.01171">
        <ele>26</ele>
        <time>2013-08-28T09:29:57Z</time>
      </trkpt>
      <trkpt lat="47.38423" lon="-1.01216">
        <ele>26.2</ele>
        <time>2013-08-28T09:29:57Z</time>
      </trkpt>
      <trkpt lat="47.38422" lon="-1.01227">
        <ele>26.3</ele>
        <time>2013-08-28T09:29:58Z</time>
      </trkpt>
      <trkpt lat="47.38417" lon="-1.01292">
        <ele>27</ele>
        <time>2013-08-28T09:30:04Z</time>
      </trkpt>
      <trkpt lat="47.38416" lon="-1.01302">
        <ele>27</ele>
        <time>2013-08-28T09:30:05Z</time>
      </trkpt>
      <trkpt lat="47.38415" lon="-1.01312">
        <ele>27</ele>
        <time>2013-08-28T09:30:06Z</time>
      </trkpt>
      <trkpt lat="47.38413" lon="-1.01334">
        <ele>27</ele>
        <time>2013-08-28T09:30:12Z</time>
      </trkpt>
      <trkpt lat="47.38409" lon="-1.01377">
        <ele>27</ele>
        <time>2013-08-28T09:30:12Z</time>
      </trkpt>
      <trkpt lat="47.38409" lon="-1.01387">
        <ele>27</ele>
        <time>2013-08-28T09:30:13Z</time>
      </trkpt>
      <trkpt lat="47.38404" lon="-1.01452">
        <ele>27.1</ele>
        <time>2013-08-28T09:30:19Z</time>
      </trkpt>
      <trkpt lat="47.38403" lon="-1.01463">
        <ele>27.3</ele>
        <time>2013-08-28T09:30:20Z</time>
      </trkpt>
      <trkpt lat="47.38402" lon="-1.01475">
        <ele>27.5</ele>
        <time>2013-08-28T09:30:21Z</time>
      </trkpt>
      <trkpt lat="47.384" lon="-1.01497">
        <ele>27.6</ele>
        <time>2013-08-28T09:30:27Z</time>
      </trkpt>
      <trkpt lat="47.38397" lon="-1.01542">
        <ele>27.7</ele>
        <time>2013-08-28T09:30:27Z</time>
      </trkpt>
      <trkpt lat="47.38396" lon="-1.01554">
        <ele>27.8</ele>
        <time>2013-08-28T09:30:28Z</time>
      </trkpt>
      <trkpt lat="47.3839" lon="-1.01618">
        <ele>29</ele>
        <time>2013-08-28T09:30:34Z</time>
      </trkpt>
      <trkpt lat="47.3839" lon="-1.01628">
        <ele>29</ele>
        <time>2013-08-28T09:30:35Z</time>
      </trkpt>
      <trkpt lat="47.38389" lon="-1.01639">
        <ele>29</ele>
        <time>2013-08-28T09:30:36Z</time>
      </trkpt>
      <trkpt lat="47.38388" lon="-1.0166">
        <ele>29.7</ele>
        <time>2013-08-28T09:30:42Z</time>
      </trkpt>
      <trkpt lat="47.38384" lon="-1.01702">
        <ele>30.2</ele>
        <time>2013-08-28T09:30:42Z</time>
      </trkpt>
      <trkpt lat="47.38384" lon="-1.01713">
        <ele>30.2</ele>
        <time>2013-08-28T09:30:43Z</time>
      </trkpt>
      <trkpt lat="47.3838" lon="-1.01773">
        <ele>32.2</ele>
        <time>2013-08-28T09:30:49Z</time>
      </trkpt>
      <trkpt lat="47.38379" lon="-1.01784">
        <ele>32.4</ele>
        <time>2013-08-28T09:30:50Z</time>
      </trkpt>
      <trkpt lat="47.38378" lon="-1.01793">
        <ele>32.4</ele>
        <time>2013-08-28T09:30:51Z</time>
      </trkpt>
      <trkpt lat="47.38377" lon="-1.01813">
        <ele>32.6</ele>
        <time>2013-08-28T09:30:57Z</time>
      </trkpt>
      <trkpt lat="47.38373" lon="-1.01852">
        <ele>33</ele>
        <time>2013-08-28T09:30:57Z</time>
      </trkpt>
      <trkpt lat="47.38372" lon="-1.01861">
        <ele>33</ele>
        <time>2013-08-28T09:30:58Z</time>
      </trkpt>
      <trkpt lat="47.38373" lon="-1.01917">
        <ele>34</ele>
        <time>2013-08-28T09:31:04Z</time>
      </trkpt>
      <trkpt lat="47.38373" lon="-1.01927">
        <ele>33.6</ele>
        <time>2013-08-28T09:31:05Z</time>
      </trkpt>
      <trkpt lat="47.38374" lon="-1.01936">
        <ele>1</ele>
        <time>2013-08-28T09:31:06Z</time>
      </trkpt>
      <trkpt lat="47.38375" lon="-1.01956">
        <ele>1</ele>
        <time>2013-08-28T09:31:12Z</time>
      </trkpt>
      <trkpt lat="47.38377" lon="-1.01994">
        <ele>1</ele>
        <time>2013-08-28T09:31:12Z</time>
      </trkpt>
      <trkpt lat="47.38378" lon="-1.02003">
        <ele>2</ele>
        <time>2013-08-28T09:31:13Z</time>
      </trkpt>
      <trkpt lat="47.38382" lon="-1.02056">
        <ele>2</ele>
        <time>2013-08-28T09:31:19Z</time>
      </trkpt>
      <trkpt lat="47.38383" lon="-1.02065">
        <ele>2</ele>
        <time>2013-08-28T09:31:20Z</time>
      </trkpt>
      <trkpt lat="47.38385" lon="-1.02083">
        <ele>3</ele>
        <time>2013-08-28T09:31:27Z</time>
      </trkpt>
      <trkpt lat="47.38392" lon="-1.02128">
        <ele>3</ele>
        <time>2013-08-28T09:31:27Z</time>
      </trkpt>
      <trkpt lat="47.38393" lon="-1.02137">
        <ele>4</ele>
        <time>2013-08-28T09:31:28Z</time>
      </trkpt>
      <trkpt lat="47.38397" lon="-1.02156">
        <ele>4</ele>
        <time>2013-08-28T09:31:34Z</time>
      </trkpt>
      <trkpt lat="47.38404" lon="-1.02195">
        <ele>4</ele>
        <time>2013-08-28T09:31:34Z</time>
      </trkpt>
      <trkpt lat="47.38406" lon="-1.02205">
        <ele>4</ele>
        <time>2013-08-28T09:31:35Z</time>
      </trkpt>
      <trkpt lat="47.38409" lon="-1.02225">
        <ele>4</ele>
        <time>2013-08-28T09:31:42Z</time>
      </trkpt>
      <trkpt lat="47.38419" lon="-1.02276">
        <ele>4</ele>
        <time>2013-08-28T09:31:42Z</time>
      </trkpt>
      <trkpt lat="47.38421" lon="-1.02286">
        <ele>4</ele>
        <time>2013-08-28T09:31:43Z</time>
      </trkpt>
      <trkpt lat="47.38425" lon="-1.02306">
        <ele>4</ele>
        <time>2013-08-28T09:31:49Z</time>
      </trkpt>
      <trkpt lat="47.38432" lon="-1.02349">
        <ele>4</ele>
        <time>2013-08-28T09:31:49Z</time>
      </trkpt>
      <trkpt lat="47.38434" lon="-1.0236">
        <ele>4</ele>
        <time>2013-08-28T09:31:50Z</time>
      </trkpt>
      <trkpt lat="47.38451" lon="-1.02425">
        <ele>4</ele>
        <time>2013-08-28T09:31:56Z</time>
      </trkpt>
      <trkpt lat="47.38455" lon="-1.02436">
        <ele>4</ele>
        <time>2013-08-28T09:31:57Z</time>
      </trkpt>
      <trkpt lat="47.38459" lon="-1.02447">
        <ele>4</ele>
        <time>2013-08-28T09:31:59Z</time>
      </trkpt>
      <trkpt lat="47.38467" lon="-1.02468">
        <ele>4</ele>
        <time>2013-08-28T09:32:04Z</time>
      </trkpt>
      <trkpt lat="47.38481" lon="-1.02509">
        <ele>4</ele>
        <time>2013-08-28T09:32:04Z</time>
      </trkpt>
      <trkpt lat="47.38484" lon="-1.02519">
        <ele>4</ele>
        <time>2013-08-28T09:32:05Z</time>
      </trkpt>
      <trkpt lat="47.3849" lon="-1.02538">
        <ele>4</ele>
        <time>2013-08-28T09:32:12Z</time>
      </trkpt>
      <trkpt lat="47.38501" lon="-1.02587">
        <ele>4</ele>
        <time>2013-08-28T09:32:12Z</time>
      </trkpt>
      <trkpt lat="47.38501" lon="-1.02597">
        <ele>4</ele>
        <time>2013-08-28T09:32:13Z</time>
      </trkpt>
      <trkpt lat="47.38502" lon="-1.02607">
        <ele>4</ele>
        <time>2013-08-28T09:32:15Z</time>
      </trkpt>
      <trkpt lat="47.38502" lon="-1.02627">
        <ele>4</ele>
        <time>2013-08-28T09:32:20Z</time>
      </trkpt>
      <trkpt lat="47.38503" lon="-1.02663">
        <ele>4</ele>
        <time>2013-08-28T09:32:20Z</time>
      </trkpt>
      <trkpt lat="47.38503" lon="-1.02672">
        <ele>4</ele>
        <time>2013-08-28T09:32:21Z</time>
      </trkpt>
      <trkpt lat="47.38504" lon="-1.02689">
        <ele>4</ele>
        <time>2013-08-28T09:32:28Z</time>
      </trkpt>
      <trkpt lat="47.38506" lon="-1.02729">
        <ele>6</ele>
        <time>2013-08-28T09:32:28Z</time>
      </trkpt>
      <trkpt lat="47.38507" lon="-1.02737">
        <ele>7</ele>
        <time>2013-08-28T09:32:29Z</time>
      </trkpt>
      <trkpt lat="47.38508" lon="-1.02751">
        <ele>8</ele>
        <time>2013-08-28T09:32:35Z</time>
      </trkpt>
      <trkpt lat="47.38511" lon="-1.02766">
        <ele>9</ele>
        <time>2013-08-28T09:32:35Z</time>
      </trkpt>
      <trkpt lat="47.38513" lon="-1.02767">
        <ele>12</ele>
        <time>2013-08-28T09:32:38Z</time>
      </trkpt>
      <trkpt lat="47.38514" lon="-1.0277">
        <ele>14</ele>
        <time>2013-08-28T09:32:46Z</time>
      </trkpt>
      <trkpt lat="47.38517" lon="-1.02769">
        <ele>18</ele>
        <time>2013-08-28T09:32:54Z</time>
      </trkpt>
      <trkpt lat="47.38518" lon="-1.02772">
        <ele>20</ele>
        <time>2013-08-28T09:32:57Z</time>
      </trkpt>
      <trkpt lat="47.38511" lon="-1.02796">
        <ele>21</ele>
        <time>2013-08-28T09:33:03Z</time>
      </trkpt>
      <trkpt lat="47.38509" lon="-1.02801">
        <ele>22</ele>
        <time>2013-08-28T09:33:05Z</time>
      </trkpt>
      <trkpt lat="47.38508" lon="-1.02806">
        <ele>22</ele>
        <time>2013-08-28T09:33:06Z</time>
      </trkpt>
      <trkpt lat="47.38506" lon="-1.02817">
        <ele>22</ele>
        <time>2013-08-28T09:33:11Z</time>
      </trkpt>
      <trkpt lat="47.38501" lon="-1.02846">
        <ele>22</ele>
        <time>2013-08-28T09:33:12Z</time>
      </trkpt>
      <trkpt lat="47.38499" lon="-1.02851">
        <ele>22</ele>
        <time>2013-08-28T09:33:13Z</time>
      </trkpt>
      <trkpt lat="47.38496" lon="-1.02861">
        <ele>22</ele>
        <time>2013-08-28T09:33:19Z</time>
      </trkpt>
      <trkpt lat="47.38489" lon="-1.02871">
        <ele>22</ele>
        <time>2013-08-28T09:33:19Z</time>
      </trkpt>
      <trkpt lat="47.38487" lon="-1.0287">
        <ele>22</ele>
        <time>2013-08-28T09:33:20Z</time>
      </trkpt>
      <trkpt lat="47.38485" lon="-1.02869">
        <ele>22</ele>
        <time>2013-08-28T09:33:22Z</time>
      </trkpt>
      <trkpt lat="47.38483" lon="-1.02871">
        <ele>21</ele>
        <time>2013-08-28T09:33:23Z</time>
      </trkpt>
      <trkpt lat="47.3848" lon="-1.02875">
        <ele>20</ele>
        <time>2013-08-28T09:33:29Z</time>
      </trkpt>
      <trkpt lat="47.3847" lon="-1.0288">
        <ele>19</ele>
        <time>2013-08-28T09:33:30Z</time>
      </trkpt>
      <trkpt lat="47.38467" lon="-1.02879">
        <ele>19</ele>
        <time>2013-08-28T09:33:31Z</time>
      </trkpt>
      <trkpt lat="47.38465" lon="-1.02879">
        <ele>18</ele>
        <time>2013-08-28T09:33:32Z</time>
      </trkpt>
      <trkpt lat="47.38463" lon="-1.02879">
        <ele>18</ele>
        <time>2013-08-28T09:33:37Z</time>
      </trkpt>
      <trkpt lat="47.38446" lon="-1.02879">
        <ele>10</ele>
        <time>2013-08-28T09:33:46Z</time>
      </trkpt>
      <trkpt lat="47.38442" lon="-1.02875">
        <ele>10</ele>
        <time>2013-08-28T09:33:47Z</time>
      </trkpt>
      <trkpt lat="47.38437" lon="-1.02871">
        <ele>10</ele>
        <time>2013-08-28T09:33:48Z</time>
      </trkpt>
      <trkpt lat="47.38433" lon="-1.02868">
        <ele>10</ele>
        <time>2013-08-28T09:33:49Z</time>
      </trkpt>
      <trkpt lat="47.38428" lon="-1.02864">
        <ele>10</ele>
        <time>2013-08-28T09:33:50Z</time>
      </trkpt>
      <trkpt lat="47.3842" lon="-1.02854">
        <ele>10</ele>
        <time>2013-08-28T09:33:56Z</time>
      </trkpt>
      <trkpt lat="47.38391" lon="-1.02823">
        <ele>10</ele>
        <time>2013-08-28T09:33:57Z</time>
      </trkpt>
      <trkpt lat="47.38384" lon="-1.02817">
        <ele>10</ele>
        <time>2013-08-28T09:33:58Z</time>
      </trkpt>
      <trkpt lat="47.3837" lon="-1.02802">
        <ele>10</ele>
        <time>2013-08-28T09:34:04Z</time>
      </trkpt>
      <trkpt lat="47.38344" lon="-1.02769">
        <ele>10</ele>
        <time>2013-08-28T09:34:04Z</time>
      </trkpt>
      <trkpt lat="47.38338" lon="-1.02761">
        <ele>10</ele>
        <time>2013-08-28T09:34:05Z</time>
      </trkpt>
      <trkpt lat="47.38326" lon="-1.02743">
        <ele>10</ele>
        <time>2013-08-28T09:34:11Z</time>
      </trkpt>
      <trkpt lat="47.38291" lon="-1.02696">
        <ele>10</ele>
        <time>2013-08-28T09:34:12Z</time>
      </trkpt>
      <trkpt lat="47.38284" lon="-1.02685">
        <ele>10</ele>
        <time>2013-08-28T09:34:13Z</time>
      </trkpt>
      <trkpt lat="47.38267" lon="-1.02667">
        <ele>10</ele>
        <time>2013-08-28T09:34:19Z</time>
      </trkpt>
      <trkpt lat="47.38229" lon="-1.02647">
        <ele>10</ele>
        <time>2013-08-28T09:34:19Z</time>
      </trkpt>
      <trkpt lat="47.38219" lon="-1.02646">
        <ele>10</ele>
        <time>2013-08-28T09:34:20Z</time>
      </trkpt>
      <trkpt lat="47.38209" lon="-1.02646">
        <ele>10</ele>
        <time>2013-08-28T09:34:21Z</time>
      </trkpt>
      <trkpt lat="47.38189" lon="-1.02647">
        <ele>9</ele>
        <time>2013-08-28T09:34:27Z</time>
      </trkpt>
      <trkpt lat="47.38153" lon="-1.0265">
        <ele>8</ele>
        <time>2013-08-28T09:34:27Z</time>
      </trkpt>
      <trkpt lat="47.38145" lon="-1.0265">
        <ele>7</ele>
        <time>2013-08-28T09:34:28Z</time>
      </trkpt>
      <trkpt lat="47.38128" lon="-1.02651">
        <ele>6</ele>
        <time>2013-08-28T09:34:34Z</time>
      </trkpt>
      <trkpt lat="47.38081" lon="-1.02653">
        <ele>5</ele>
        <time>2013-08-28T09:34:35Z</time>
      </trkpt>
      <trkpt lat="47.38071" lon="-1.02654">
        <ele>5</ele>
        <time>2013-08-28T09:34:36Z</time>
      </trkpt>
      <trkpt lat="47.38052" lon="-1.02654">
        <ele>4</ele>
        <time>2013-08-28T09:34:42Z</time>
      </trkpt>
      <trkpt lat="47.38012" lon="-1.02656">
        <ele>4</ele>
        <time>2013-08-28T09:34:42Z</time>
      </trkpt>
      <trkpt lat="47.38003" lon="-1.02656">
        <ele>3</ele>
        <time>2013-08-28T09:34:43Z</time>
      </trkpt>
      <trkpt lat="47.37984" lon="-1.02656">
        <ele>3</ele>
        <time>2013-08-28T09:34:49Z</time>
      </trkpt>
      <trkpt lat="47.37936" lon="-1.02657">
        <ele>3</ele>
        <time>2013-08-28T09:34:50Z</time>
      </trkpt>
      <trkpt lat="47.37927" lon="-1.02656">
        <ele>3</ele>
        <time>2013-08-28T09:34:51Z</time>
      </trkpt>
      <trkpt lat="47.37909" lon="-1.02652">
        <ele>3</ele>
        <time>2013-08-28T09:34:57Z</time>
      </trkpt>
      <trkpt lat="47.37874" lon="-1.02637">
        <ele>3</ele>
        <time>2013-08-28T09:34:57Z</time>
      </trkpt>
      <trkpt lat="47.37865" lon="-1.02632">
        <ele>3</ele>
        <time>2013-08-28T09:34:58Z</time>
      </trkpt>
      <trkpt lat="47.37849" lon="-1.0262">
        <ele>3</ele>
        <time>2013-08-28T09:35:04Z</time>
      </trkpt>
      <trkpt lat="47.37814" lon="-1.02581">
        <ele>3</ele>
        <time>2013-08-28T09:35:05Z</time>
      </trkpt>
      <trkpt lat="47.37808" lon="-1.02571">
        <ele>3</ele>
        <time>2013-08-28T09:35:06Z</time>
      </trkpt>
      <trkpt lat="47.37774" lon="-1.02496">
        <ele>3</ele>
        <time>2013-08-28T09:35:13Z</time>
      </trkpt>
      <trkpt lat="47.3777" lon="-1.02484">
        <ele>3</ele>
        <time>2013-08-28T09:35:15Z</time>
      </trkpt>
      <trkpt lat="47.37767" lon="-1.02472">
        <ele>3</ele>
        <time>2013-08-28T09:35:15Z</time>
      </trkpt>
      <trkpt lat="47.37763" lon="-1.02446">
        <ele>3</ele>
        <time>2013-08-28T09:35:21Z</time>
      </trkpt>
      <trkpt lat="47.37753" lon="-1.02397">
        <ele>3</ele>
        <time>2013-08-28T09:35:21Z</time>
      </trkpt>
      <trkpt lat="47.37751" lon="-1.02384">
        <ele>3</ele>
        <time>2013-08-28T09:35:22Z</time>
      </trkpt>
      <trkpt lat="47.37746" lon="-1.02359">
        <ele>3</ele>
        <time>2013-08-28T09:35:28Z</time>
      </trkpt>
      <trkpt lat="47.37735" lon="-1.02299">
        <ele>3</ele>
        <time>2013-08-28T09:35:29Z</time>
      </trkpt>
      <trkpt lat="47.37733" lon="-1.02287">
        <ele>3</ele>
        <time>2013-08-28T09:35:30Z</time>
      </trkpt>
      <trkpt lat="47.37729" lon="-1.02264">
        <ele>3</ele>
        <time>2013-08-28T09:35:36Z</time>
      </trkpt>
      <trkpt lat="47.3772" lon="-1.02216">
        <ele>3</ele>
        <time>2013-08-28T09:35:36Z</time>
      </trkpt>
      <trkpt lat="47.37718" lon="-1.02205">
        <ele>3</ele>
        <time>2013-08-28T09:35:37Z</time>
      </trkpt>
      <trkpt lat="47.37712" lon="-1.02181">
        <ele>3</ele>
        <time>2013-08-28T09:35:43Z</time>
      </trkpt>
      <trkpt lat="47.37694" lon="-1.02125">
        <ele>3</ele>
        <time>2013-08-28T09:35:44Z</time>
      </trkpt>
      <trkpt lat="47.37689" lon="-1.02114">
        <ele>3</ele>
        <time>2013-08-28T09:35:45Z</time>
      </trkpt>
      <trkpt lat="47.3768" lon="-1.02093">
        <ele>3</ele>
        <time>2013-08-28T09:35:51Z</time>
      </trkpt>
      <trkpt lat="47.3766" lon="-1.02054">
        <ele>3</ele>
        <time>2013-08-28T09:35:51Z</time>
      </trkpt>
      <trkpt lat="47.37655" lon="-1.02045">
        <ele>3</ele>
        <time>2013-08-28T09:35:52Z</time>
      </trkpt>
      <trkpt lat="47.37644" lon="-1.02027">
        <ele>3</ele>
        <time>2013-08-28T09:35:58Z</time>
      </trkpt>
      <trkpt lat="47.37615" lon="-1.01985">
        <ele>3</ele>
        <time>2013-08-28T09:35:59Z</time>
      </trkpt>
      <trkpt lat="47.37609" lon="-1.01978">
        <ele>3</ele>
        <time>2013-08-28T09:36:00Z</time>
      </trkpt>
      <trkpt lat="47.37598" lon="-1.01966">
        <ele>3</ele>
        <time>2013-08-28T09:36:06Z</time>
      </trkpt>
      <trkpt lat="47.37576" lon="-1.01943">
        <ele>3</ele>
        <time>2013-08-28T09:36:06Z</time>
      </trkpt>
      <trkpt lat="47.37571" lon="-1.01938">
        <ele>3</ele>
        <time>2013-08-28T09:36:07Z</time>
      </trkpt>
      <trkpt lat="47.37559" lon="-1.01929">
        <ele>3</ele>
        <time>2013-08-28T09:36:13Z</time>
      </trkpt>
      <trkpt lat="47.37532" lon="-1.01911">
        <ele>3</ele>
        <time>2013-08-28T09:36:14Z</time>
      </trkpt>
      <trkpt lat="47.37527" lon="-1.01907">
        <ele>4</ele>
        <time>2013-08-28T09:36:15Z</time>
      </trkpt>
      <trkpt lat="47.37516" lon="-1.019">
        <ele>6</ele>
        <time>2013-08-28T09:36:21Z</time>
      </trkpt>
      <trkpt lat="47.37495" lon="-1.01887">
        <ele>7</ele>
        <time>2013-08-28T09:36:21Z</time>
      </trkpt>
      <trkpt lat="47.37489" lon="-1.01883">
        <ele>8</ele>
        <time>2013-08-28T09:36:22Z</time>
      </trkpt>
      <trkpt lat="47.37478" lon="-1.01877">
        <ele>9</ele>
        <time>2013-08-28T09:36:28Z</time>
      </trkpt>
      <trkpt lat="47.37449" lon="-1.01858">
        <ele>10</ele>
        <time>2013-08-28T09:36:29Z</time>
      </trkpt>
      <trkpt lat="47.37442" lon="-1.01855">
        <ele>10</ele>
        <time>2013-08-28T09:36:30Z</time>
      </trkpt>
      <trkpt lat="47.37429" lon="-1.01848">
        <ele>10</ele>
        <time>2013-08-28T09:36:36Z</time>
      </trkpt>
      <trkpt lat="47.374" lon="-1.0183">
        <ele>10</ele>
        <time>2013-08-28T09:36:36Z</time>
      </trkpt>
      <trkpt lat="47.37392" lon="-1.01826">
        <ele>10</ele>
        <time>2013-08-28T09:36:37Z</time>
      </trkpt>
      <trkpt lat="47.37376" lon="-1.01817">
        <ele>10</ele>
        <time>2013-08-28T09:36:43Z</time>
      </trkpt>
      <trkpt lat="47.37332" lon="-1.0179">
        <ele>10</ele>
        <time>2013-08-28T09:36:44Z</time>
      </trkpt>
      <trkpt lat="47.37323" lon="-1.01785">
        <ele>10</ele>
        <time>2013-08-28T09:36:45Z</time>
      </trkpt>
      <trkpt lat="47.37307" lon="-1.01774">
        <ele>10</ele>
        <time>2013-08-28T09:36:51Z</time>
      </trkpt>
      <trkpt lat="47.37273" lon="-1.01754">
        <ele>10</ele>
        <time>2013-08-28T09:36:51Z</time>
      </trkpt>
      <trkpt lat="47.37265" lon="-1.0175">
        <ele>10</ele>
        <time>2013-08-28T09:36:52Z</time>
      </trkpt>
      <trkpt lat="47.3725" lon="-1.0174">
        <ele>10</ele>
        <time>2013-08-28T09:36:58Z</time>
      </trkpt>
      <trkpt lat="47.37212" lon="-1.01717">
        <ele>10</ele>
        <time>2013-08-28T09:36:59Z</time>
      </trkpt>
      <trkpt lat="47.37205" lon="-1.01713">
        <ele>10</ele>
        <time>2013-08-28T09:37:00Z</time>
      </trkpt>
      <trkpt lat="47.3719" lon="-1.01704">
        <ele>10</ele>
        <time>2013-08-28T09:37:06Z</time>
      </trkpt>
      <trkpt lat="47.3716" lon="-1.01686">
        <ele>10</ele>
        <time>2013-08-28T09:37:06Z</time>
      </trkpt>
      <trkpt lat="47.37153" lon="-1.01681">
        <ele>9</ele>
        <time>2013-08-28T09:37:07Z</time>
      </trkpt>
      <trkpt lat="47.37138" lon="-1.01672">
        <ele>9</ele>
        <time>2013-08-28T09:37:13Z</time>
      </trkpt>
      <trkpt lat="47.37105" lon="-1.01652">
        <ele>9</ele>
        <time>2013-08-28T09:37:14Z</time>
      </trkpt>
      <trkpt lat="47.37098" lon="-1.01648">
        <ele>9</ele>
        <time>2013-08-28T09:37:15Z</time>
      </trkpt>
      <trkpt lat="47.37061" lon="-1.01627">
        <ele>9</ele>
        <time>2013-08-28T09:37:21Z</time>
      </trkpt>
      <trkpt lat="47.37055" lon="-1.01624">
        <ele>9</ele>
        <time>2013-08-28T09:37:22Z</time>
      </trkpt>
      <trkpt lat="47.37043" lon="-1.01617">
        <ele>9</ele>
        <time>2013-08-28T09:37:28Z</time>
      </trkpt>
      <trkpt lat="47.37012" lon="-1.01598">
        <ele>9</ele>
        <time>2013-08-28T09:37:29Z</time>
      </trkpt>
      <trkpt lat="47.37006" lon="-1.01594">
        <ele>9</ele>
        <time>2013-08-28T09:37:30Z</time>
      </trkpt>
      <trkpt lat="47.36966" lon="-1.01571">
        <ele>10</ele>
        <time>2013-08-28T09:37:36Z</time>
      </trkpt>
      <trkpt lat="47.36959" lon="-1.01567">
        <ele>10</ele>
        <time>2013-08-28T09:37:37Z</time>
      </trkpt>
      <trkpt lat="47.36945" lon="-1.0156">
        <ele>10</ele>
        <time>2013-08-28T09:37:44Z</time>
      </trkpt>
      <trkpt lat="47.36912" lon="-1.01539">
        <ele>10</ele>
        <time>2013-08-28T09:37:44Z</time>
      </trkpt>
      <trkpt lat="47.36905" lon="-1.01535">
        <ele>10</ele>
        <time>2013-08-28T09:37:45Z</time>
      </trkpt>
      <trkpt lat="47.36861" lon="-1.01509">
        <ele>10</ele>
        <time>2013-08-28T09:37:51Z</time>
      </trkpt>
      <trkpt lat="47.36854" lon="-1.01505">
        <ele>10</ele>
        <time>2013-08-28T09:37:52Z</time>
      </trkpt>
      <trkpt lat="47.36839" lon="-1.01495">
        <ele>10</ele>
        <time>2013-08-28T09:37:59Z</time>
      </trkpt>
      <trkpt lat="47.368" lon="-1.01471">
        <ele>10</ele>
        <time>2013-08-28T09:37:59Z</time>
      </trkpt>
      <trkpt lat="47.36793" lon="-1.01467">
        <ele>10</ele>
        <time>2013-08-28T09:38:00Z</time>
      </trkpt>
      <trkpt lat="47.36778" lon="-1.01459">
        <ele>10</ele>
        <time>2013-08-28T09:38:06Z</time>
      </trkpt>
      <trkpt lat="47.36742" lon="-1.01445">
        <ele>10</ele>
        <time>2013-08-28T09:38:07Z</time>
      </trkpt>
      <trkpt lat="47.36735" lon="-1.01443">
        <ele>10</ele>
        <time>2013-08-28T09:38:08Z</time>
      </trkpt>
      <trkpt lat="47.3672" lon="-1.01439">
        <ele>10</ele>
        <time>2013-08-28T09:38:14Z</time>
      </trkpt>
      <trkpt lat="47.36692" lon="-1.01437">
        <ele>10</ele>
        <time>2013-08-28T09:38:14Z</time>
      </trkpt>
      <trkpt lat="47.36685" lon="-1.01437">
        <ele>10</ele>
        <time>2013-08-28T09:38:15Z</time>
      </trkpt>
      <trkpt lat="47.36671" lon="-1.01438">
        <ele>10</ele>
        <time>2013-08-28T09:38:21Z</time>
      </trkpt>
      <trkpt lat="47.36638" lon="-1.01436">
        <ele>10</ele>
        <time>2013-08-28T09:38:22Z</time>
      </trkpt>
      <trkpt lat="47.36631" lon="-1.01436">
        <ele>10</ele>
        <time>2013-08-28T09:38:23Z</time>
      </trkpt>
      <trkpt lat="47.36618" lon="-1.01437">
        <ele>10</ele>
        <time>2013-08-28T09:38:29Z</time>
      </trkpt>
      <trkpt lat="47.36592" lon="-1.01438">
        <ele>10</ele>
        <time>2013-08-28T09:38:29Z</time>
      </trkpt>
      <trkpt lat="47.36586" lon="-1.01439">
        <ele>10</ele>
        <time>2013-08-28T09:38:30Z</time>
      </trkpt>
      <trkpt lat="47.36573" lon="-1.0144">
        <ele>10</ele>
        <time>2013-08-28T09:38:36Z</time>
      </trkpt>
      <trkpt lat="47.36542" lon="-1.01443">
        <ele>10</ele>
        <time>2013-08-28T09:38:37Z</time>
      </trkpt>
      <trkpt lat="47.36536" lon="-1.01443">
        <ele>10</ele>
        <time>2013-08-28T09:38:38Z</time>
      </trkpt>
      <trkpt lat="47.36497" lon="-1.01445">
        <ele>10</ele>
        <time>2013-08-28T09:38:44Z</time>
      </trkpt>
      <trkpt lat="47.36491" lon="-1.01445">
        <ele>10</ele>
        <time>2013-08-28T09:38:45Z</time>
      </trkpt>
      <trkpt lat="47.36478" lon="-1.01446">
        <ele>10</ele>
        <time>2013-08-28T09:38:52Z</time>
      </trkpt>
      <trkpt lat="47.36444" lon="-1.01449">
        <ele>10</ele>
        <time>2013-08-28T09:38:52Z</time>
      </trkpt>
      <trkpt lat="47.36437" lon="-1.01449">
        <ele>10</ele>
        <time>2013-08-28T09:38:53Z</time>
      </trkpt>
      <trkpt lat="47.36396" lon="-1.01458">
        <ele>10</ele>
        <time>2013-08-28T09:38:59Z</time>
      </trkpt>
      <trkpt lat="47.36389" lon="-1.01462">
        <ele>10</ele>
        <time>2013-08-28T09:39:00Z</time>
      </trkpt>
      <trkpt lat="47.36382" lon="-1.01468">
        <ele>10</ele>
        <time>2013-08-28T09:39:01Z</time>
      </trkpt>
      <trkpt lat="47.36343" lon="-1.01488">
        <ele>10</ele>
        <time>2013-08-28T09:39:07Z</time>
      </trkpt>
      <trkpt lat="47.36336" lon="-1.0149">
        <ele>10</ele>
        <time>2013-08-28T09:39:08Z</time>
      </trkpt>
      <trkpt lat="47.36324" lon="-1.01496">
        <ele>10</ele>
        <time>2013-08-28T09:39:15Z</time>
      </trkpt>
      <trkpt lat="47.36297" lon="-1.01509">
        <ele>10</ele>
        <time>2013-08-28T09:39:15Z</time>
      </trkpt>
      <trkpt lat="47.36292" lon="-1.01512">
        <ele>10</ele>
        <time>2013-08-28T09:39:16Z</time>
      </trkpt>
      <trkpt lat="47.3628" lon="-1.01518">
        <ele>10</ele>
        <time>2013-08-28T09:39:22Z</time>
      </trkpt>
      <trkpt lat="47.36254" lon="-1.01532">
        <ele>10</ele>
        <time>2013-08-28T09:39:23Z</time>
      </trkpt>
      <trkpt lat="47.36248" lon="-1.01535">
        <ele>10</ele>
        <time>2013-08-28T09:39:24Z</time>
      </trkpt>
      <trkpt lat="47.36237" lon="-1.01541">
        <ele>11</ele>
        <time>2013-08-28T09:39:30Z</time>
      </trkpt>
      <trkpt lat="47.36216" lon="-1.01552">
        <ele>11</ele>
        <time>2013-08-28T09:39:30Z</time>
      </trkpt>
      <trkpt lat="47.3621" lon="-1.01555">
        <ele>11</ele>
        <time>2013-08-28T09:39:31Z</time>
      </trkpt>
      <trkpt lat="47.362" lon="-1.0156">
        <ele>11</ele>
        <time>2013-08-28T09:39:37Z</time>
      </trkpt>
      <trkpt lat="47.36175" lon="-1.01571">
        <ele>11</ele>
        <time>2013-08-28T09:39:38Z</time>
      </trkpt>
      <trkpt lat="47.36171" lon="-1.01574">
        <ele>12</ele>
        <time>2013-08-28T09:39:39Z</time>
      </trkpt>
      <trkpt lat="47.36155" lon="-1.01582">
        <ele>12</ele>
        <time>2013-08-28T09:39:45Z</time>
      </trkpt>
      <trkpt lat="47.36153" lon="-1.0158">
        <ele>12</ele>
        <time>2013-08-28T09:39:47Z</time>
      </trkpt>
      <trkpt lat="47.36152" lon="-1.01578">
        <ele>12</ele>
        <time>2013-08-28T09:39:47Z</time>
      </trkpt>
      <trkpt lat="47.36151" lon="-1.01574">
        <ele>12</ele>
        <time>2013-08-28T09:39:48Z</time>
      </trkpt>
      <trkpt lat="47.36151" lon="-1.01563">
        <ele>12</ele>
        <time>2013-08-28T09:39:55Z</time>
      </trkpt>
      <trkpt lat="47.36151" lon="-1.01522">
        <ele>12</ele>
        <time>2013-08-28T09:39:56Z</time>
      </trkpt>
      <trkpt lat="47.36149" lon="-1.01507">
        <ele>13</ele>
        <time>2013-08-28T09:40:02Z</time>
      </trkpt>
      <trkpt lat="47.36144" lon="-1.0147">
        <ele>13</ele>
        <time>2013-08-28T09:40:03Z</time>
      </trkpt>
      <trkpt lat="47.36143" lon="-1.01462">
        <ele>14</ele>
        <time>2013-08-28T09:40:04Z</time>
      </trkpt>
      <trkpt lat="47.36141" lon="-1.01447">
        <ele>14</ele>
        <time>2013-08-28T09:40:10Z</time>
      </trkpt>
      <trkpt lat="47.36138" lon="-1.01417">
        <ele>14</ele>
        <time>2013-08-28T09:40:10Z</time>
      </trkpt>
      <trkpt lat="47.36137" lon="-1.01409">
        <ele>14</ele>
        <time>2013-08-28T09:40:11Z</time>
      </trkpt>
      <trkpt lat="47.36135" lon="-1.01394">
        <ele>14</ele>
        <time>2013-08-28T09:40:17Z</time>
      </trkpt>
      <trkpt lat="47.36129" lon="-1.01353">
        <ele>14</ele>
        <time>2013-08-28T09:40:18Z</time>
      </trkpt>
      <trkpt lat="47.36128" lon="-1.01344">
        <ele>14</ele>
        <time>2013-08-28T09:40:19Z</time>
      </trkpt>
      <trkpt lat="47.36126" lon="-1.01294">
        <ele>14</ele>
        <time>2013-08-28T09:40:25Z</time>
      </trkpt>
      <trkpt lat="47.36125" lon="-1.01286">
        <ele>14</ele>
        <time>2013-08-28T09:40:26Z</time>
      </trkpt>
      <trkpt lat="47.36124" lon="-1.01269">
        <ele>14</ele>
        <time>2013-08-28T09:40:33Z</time>
      </trkpt>
      <trkpt lat="47.36117" lon="-1.01227">
        <ele>14</ele>
        <time>2013-08-28T09:40:33Z</time>
      </trkpt>
      <trkpt lat="47.36116" lon="-1.01218">
        <ele>14</ele>
        <time>2013-08-28T09:40:34Z</time>
      </trkpt>
      <trkpt lat="47.36112" lon="-1.01202">
        <ele>14</ele>
        <time>2013-08-28T09:40:40Z</time>
      </trkpt>
      <trkpt lat="47.36105" lon="-1.0116">
        <ele>14</ele>
        <time>2013-08-28T09:40:41Z</time>
      </trkpt>
      <trkpt lat="47.36103" lon="-1.01152">
        <ele>14</ele>
        <time>2013-08-28T09:40:42Z</time>
      </trkpt>
      <trkpt lat="47.361" lon="-1.01135">
        <ele>14</ele>
        <time>2013-08-28T09:40:48Z</time>
      </trkpt>
      <trkpt lat="47.36094" lon="-1.01102">
        <ele>14</ele>
        <time>2013-08-28T09:40:48Z</time>
      </trkpt>
      <trkpt lat="47.36092" lon="-1.01093">
        <ele>14</ele>
        <time>2013-08-28T09:40:49Z</time>
      </trkpt>
      <trkpt lat="47.36089" lon="-1.01076">
        <ele>14</ele>
        <time>2013-08-28T09:40:55Z</time>
      </trkpt>
      <trkpt lat="47.36081" lon="-1.01034">
        <ele>14</ele>
        <time>2013-08-28T09:40:56Z</time>
      </trkpt>
      <trkpt lat="47.3608" lon="-1.01026">
        <ele>14</ele>
        <time>2013-08-28T09:40:57Z</time>
      </trkpt>
      <trkpt lat="47.36071" lon="-1.00975">
        <ele>13</ele>
        <time>2013-08-28T09:41:03Z</time>
      </trkpt>
      <trkpt lat="47.36069" lon="-1.00967">
        <ele>13</ele>
        <time>2013-08-28T09:41:04Z</time>
      </trkpt>
      <trkpt lat="47.36066" lon="-1.0095">
        <ele>12</ele>
        <time>2013-08-28T09:41:11Z</time>
      </trkpt>
      <trkpt lat="47.36058" lon="-1.00906">
        <ele>12</ele>
        <time>2013-08-28T09:41:11Z</time>
      </trkpt>
      <trkpt lat="47.36057" lon="-1.00898">
        <ele>12</ele>
        <time>2013-08-28T09:41:12Z</time>
      </trkpt>
      <trkpt lat="47.3606" lon="-1.00847">
        <ele>12</ele>
        <time>2013-08-28T09:41:18Z</time>
      </trkpt>
      <trkpt lat="47.3606" lon="-1.00838">
        <ele>12</ele>
        <time>2013-08-28T09:41:19Z</time>
      </trkpt>
      <trkpt lat="47.36061" lon="-1.0083">
        <ele>12</ele>
        <time>2013-08-28T09:41:20Z</time>
      </trkpt>
      <trkpt lat="47.36066" lon="-1.00776">
        <ele>12</ele>
        <time>2013-08-28T09:41:26Z</time>
      </trkpt>
      <trkpt lat="47.36066" lon="-1.00767">
        <ele>12</ele>
        <time>2013-08-28T09:41:27Z</time>
      </trkpt>
      <trkpt lat="47.36065" lon="-1.00757">
        <ele>12</ele>
        <time>2013-08-28T09:41:28Z</time>
      </trkpt>
      <trkpt lat="47.36065" lon="-1.00738">
        <ele>12</ele>
        <time>2013-08-28T09:41:34Z</time>
      </trkpt>
      <trkpt lat="47.36062" lon="-1.00699">
        <ele>12</ele>
        <time>2013-08-28T09:41:34Z</time>
      </trkpt>
      <trkpt lat="47.36061" lon="-1.0069">
        <ele>12</ele>
        <time>2013-08-28T09:41:35Z</time>
      </trkpt>
      <trkpt lat="47.36058" lon="-1.0067">
        <ele>12</ele>
        <time>2013-08-28T09:41:41Z</time>
      </trkpt>
      <trkpt lat="47.36051" lon="-1.00629">
        <ele>12</ele>
        <time>2013-08-28T09:41:42Z</time>
      </trkpt>
      <trkpt lat="47.3605" lon="-1.00623">
        <ele>12</ele>
        <time>2013-08-28T09:41:43Z</time>
      </trkpt>
      <trkpt lat="47.36051" lon="-1.00616">
        <ele>12</ele>
        <time>2013-08-28T09:41:49Z</time>
      </trkpt>
      <trkpt lat="47.36051" lon="-1.00619">
        <ele>12</ele>
        <time>2013-08-28T09:41:51Z</time>
      </trkpt>
      <trkpt lat="47.36051" lon="-1.00623">
        <ele>12</ele>
        <time>2013-08-28T09:41:52Z</time>
      </trkpt>
      <trkpt lat="47.36052" lon="-1.00631">
        <ele>12</ele>
        <time>2013-08-28T09:41:59Z</time>
      </trkpt>
      <trkpt lat="47.36057" lon="-1.00656">
        <ele>12</ele>
        <time>2013-08-28T09:41:59Z</time>
      </trkpt>
      <trkpt lat="47.3606" lon="-1.00657">
        <ele>12</ele>
        <time>2013-08-28T09:42:00Z</time>
      </trkpt>
      <trkpt lat="47.36063" lon="-1.00657">
        <ele>12</ele>
        <time>2013-08-28T09:42:01Z</time>
      </trkpt>
      <trkpt lat="47.36066" lon="-1.00655">
        <ele>12</ele>
        <time>2013-08-28T09:42:02Z</time>
      </trkpt>
      <trkpt lat="47.36074" lon="-1.00651">
        <ele>12</ele>
        <time>2013-08-28T09:42:09Z</time>
      </trkpt>
      <trkpt lat="47.36095" lon="-1.00644">
        <ele>12</ele>
        <time>2013-08-28T09:42:09Z</time>
      </trkpt>
      <trkpt lat="47.36104" lon="-1.0064">
        <ele>12</ele>
        <time>2013-08-28T09:42:15Z</time>
      </trkpt>
      <trkpt lat="47.36128" lon="-1.00631">
        <ele>12</ele>
        <time>2013-08-28T09:42:16Z</time>
      </trkpt>
      <trkpt lat="47.36133" lon="-1.00629">
        <ele>12</ele>
        <time>2013-08-28T09:42:17Z</time>
      </trkpt>
      <trkpt lat="47.36165" lon="-1.00617">
        <ele>12</ele>
        <time>2013-08-28T09:42:23Z</time>
      </trkpt>
      <trkpt lat="47.3617" lon="-1.00616">
        <ele>12</ele>
        <time>2013-08-28T09:42:24Z</time>
      </trkpt>
      <trkpt lat="47.36182" lon="-1.00612">
        <ele>12</ele>
        <time>2013-08-28T09:42:31Z</time>
      </trkpt>
      <trkpt lat="47.3621" lon="-1.00591">
        <ele>12</ele>
        <time>2013-08-28T09:42:31Z</time>
      </trkpt>
      <trkpt lat="47.36216" lon="-1.00585">
        <ele>13</ele>
        <time>2013-08-28T09:42:32Z</time>
      </trkpt>
      <trkpt lat="47.36223" lon="-1.0058">
        <ele>14</ele>
        <time>2013-08-28T09:42:33Z</time>
      </trkpt>
      <trkpt lat="47.36261" lon="-1.00538">
        <ele>14</ele>
        <time>2013-08-28T09:42:39Z</time>
      </trkpt>
      <trkpt lat="47.36267" lon="-1.00528">
        <ele>14</ele>
        <time>2013-08-28T09:42:41Z</time>
      </trkpt>
      <trkpt lat="47.36272" lon="-1.00517">
        <ele>14</ele>
        <time>2013-08-28T09:42:41Z</time>
      </trkpt>
      <trkpt lat="47.3628" lon="-1.00493">
        <ele>13</ele>
        <time>2013-08-28T09:42:47Z</time>
      </trkpt>
      <trkpt lat="47.3629" lon="-1.0044">
        <ele>12</ele>
        <time>2013-08-28T09:42:48Z</time>
      </trkpt>
      <trkpt lat="47.36293" lon="-1.00431">
        <ele>11</ele>
        <time>2013-08-28T09:42:49Z</time>
      </trkpt>
      <trkpt lat="47.36313" lon="-1.00378">
        <ele>10</ele>
        <time>2013-08-28T09:42:55Z</time>
      </trkpt>
      <trkpt lat="47.36317" lon="-1.0037">
        <ele>9</ele>
        <time>2013-08-28T09:42:56Z</time>
      </trkpt>
      <trkpt lat="47.36324" lon="-1.00354">
        <ele>8</ele>
        <time>2013-08-28T09:43:03Z</time>
      </trkpt>
      <trkpt lat="47.36345" lon="-1.00312">
        <ele>7</ele>
        <time>2013-08-28T09:43:03Z</time>
      </trkpt>
      <trkpt lat="47.36349" lon="-1.00303">
        <ele>6</ele>
        <time>2013-08-28T09:43:04Z</time>
      </trkpt>
      <trkpt lat="47.36356" lon="-1.00286">
        <ele>5</ele>
        <time>2013-08-28T09:43:10Z</time>
      </trkpt>
      <trkpt lat="47.36376" lon="-1.00241">
        <ele>5</ele>
        <time>2013-08-28T09:43:11Z</time>
      </trkpt>
      <trkpt lat="47.3638" lon="-1.00232">
        <ele>5</ele>
        <time>2013-08-28T09:43:12Z</time>
      </trkpt>
      <trkpt lat="47.36387" lon="-1.00214">
        <ele>5</ele>
        <time>2013-08-28T09:43:18Z</time>
      </trkpt>
      <trkpt lat="47.36403" lon="-1.00179">
        <ele>5</ele>
        <time>2013-08-28T09:43:18Z</time>
      </trkpt>
      <trkpt lat="47.36407" lon="-1.0017">
        <ele>5</ele>
        <time>2013-08-28T09:43:19Z</time>
      </trkpt>
      <trkpt lat="47.36414" lon="-1.00152">
        <ele>5</ele>
        <time>2013-08-28T09:43:25Z</time>
      </trkpt>
      <trkpt lat="47.36434" lon="-1.00109">
        <ele>5</ele>
        <time>2013-08-28T09:43:26Z</time>
      </trkpt>
      <trkpt lat="47.36437" lon="-1.001">
        <ele>5</ele>
        <time>2013-08-28T09:43:27Z</time>
      </trkpt>
      <trkpt lat="47.36459" lon="-1.00047">
        <ele>5</ele>
        <time>2013-08-28T09:43:33Z</time>
      </trkpt>
      <trkpt lat="47.36464" lon="-1.00039">
        <ele>5</ele>
        <time>2013-08-28T09:43:34Z</time>
      </trkpt>
      <trkpt lat="47.36472" lon="-1.0002">
        <ele>5</ele>
        <time>2013-08-28T09:43:41Z</time>
      </trkpt>
      <trkpt lat="47.36492" lon="-0.99972">
        <ele>5</ele>
        <time>2013-08-28T09:43:41Z</time>
      </trkpt>
      <trkpt lat="47.36496" lon="-0.99962">
        <ele>5</ele>
        <time>2013-08-28T09:43:42Z</time>
      </trkpt>
      <trkpt lat="47.36503" lon="-0.99941">
        <ele>5</ele>
        <time>2013-08-28T09:43:48Z</time>
      </trkpt>
      <trkpt lat="47.36521" lon="-0.99891">
        <ele>5</ele>
        <time>2013-08-28T09:43:49Z</time>
      </trkpt>
      <trkpt lat="47.36524" lon="-0.99881">
        <ele>5</ele>
        <time>2013-08-28T09:43:50Z</time>
      </trkpt>
      <trkpt lat="47.3653" lon="-0.99861">
        <ele>5</ele>
        <time>2013-08-28T09:43:56Z</time>
      </trkpt>
      <trkpt lat="47.36542" lon="-0.9982">
        <ele>5</ele>
        <time>2013-08-28T09:43:56Z</time>
      </trkpt>
      <trkpt lat="47.36545" lon="-0.9981">
        <ele>5</ele>
        <time>2013-08-28T09:43:57Z</time>
      </trkpt>
      <trkpt lat="47.36552" lon="-0.9979">
        <ele>5</ele>
        <time>2013-08-28T09:44:03Z</time>
      </trkpt>
      <trkpt lat="47.36564" lon="-0.99739">
        <ele>5</ele>
        <time>2013-08-28T09:44:04Z</time>
      </trkpt>
      <trkpt lat="47.36567" lon="-0.99729">
        <ele>5</ele>
        <time>2013-08-28T09:44:05Z</time>
      </trkpt>
      <trkpt lat="47.36586" lon="-0.9967">
        <ele>5</ele>
        <time>2013-08-28T09:44:11Z</time>
      </trkpt>
      <trkpt lat="47.36589" lon="-0.9966">
        <ele>5</ele>
        <time>2013-08-28T09:44:12Z</time>
      </trkpt>
      <trkpt lat="47.36595" lon="-0.99641">
        <ele>5</ele>
        <time>2013-08-28T09:44:19Z</time>
      </trkpt>
      <trkpt lat="47.3661" lon="-0.99592">
        <ele>5</ele>
        <time>2013-08-28T09:44:19Z</time>
      </trkpt>
      <trkpt lat="47.36614" lon="-0.99582">
        <ele>5</ele>
        <time>2013-08-28T09:44:20Z</time>
      </trkpt>
      <trkpt lat="47.3662" lon="-0.99563">
        <ele>5</ele>
        <time>2013-08-28T09:44:26Z</time>
      </trkpt>
      <trkpt lat="47.36634" lon="-0.99513">
        <ele>5</ele>
        <time>2013-08-28T09:44:27Z</time>
      </trkpt>
      <trkpt lat="47.36636" lon="-0.99503">
        <ele>5</ele>
        <time>2013-08-28T09:44:28Z</time>
      </trkpt>
      <trkpt lat="47.36642" lon="-0.99483">
        <ele>5</ele>
        <time>2013-08-28T09:44:34Z</time>
      </trkpt>
      <trkpt lat="47.36654" lon="-0.99444">
        <ele>5</ele>
        <time>2013-08-28T09:44:34Z</time>
      </trkpt>
      <trkpt lat="47.36656" lon="-0.99434">
        <ele>5</ele>
        <time>2013-08-28T09:44:35Z</time>
      </trkpt>
      <trkpt lat="47.36662" lon="-0.99415">
        <ele>5</ele>
        <time>2013-08-28T09:44:41Z</time>
      </trkpt>
      <trkpt lat="47.36674" lon="-0.99366">
        <ele>5</ele>
        <time>2013-08-28T09:44:42Z</time>
      </trkpt>
      <trkpt lat="47.36676" lon="-0.99357">
        <ele>5</ele>
        <time>2013-08-28T09:44:43Z</time>
      </trkpt>
      <trkpt lat="47.36692" lon="-0.99299">
        <ele>5</ele>
        <time>2013-08-28T09:44:49Z</time>
      </trkpt>
      <trkpt lat="47.36694" lon="-0.9929">
        <ele>5</ele>
        <time>2013-08-28T09:44:50Z</time>
      </trkpt>
      <trkpt lat="47.36697" lon="-0.9928">
        <ele>5</ele>
        <time>2013-08-28T09:44:51Z</time>
      </trkpt>
      <trkpt lat="47.36702" lon="-0.9926">
        <ele>5</ele>
        <time>2013-08-28T09:44:57Z</time>
      </trkpt>
      <trkpt lat="47.36713" lon="-0.99221">
        <ele>5</ele>
        <time>2013-08-28T09:44:57Z</time>
      </trkpt>
      <trkpt lat="47.36716" lon="-0.99212">
        <ele>5</ele>
        <time>2013-08-28T09:44:58Z</time>
      </trkpt>
      <trkpt lat="47.36723" lon="-0.99192">
        <ele>5</ele>
        <time>2013-08-28T09:45:05Z</time>
      </trkpt>
      <trkpt lat="47.36737" lon="-0.99143">
        <ele>5</ele>
        <time>2013-08-28T09:45:05Z</time>
      </trkpt>
      <trkpt lat="47.3674" lon="-0.99133">
        <ele>5</ele>
        <time>2013-08-28T09:45:06Z</time>
      </trkpt>
      <trkpt lat="47.36745" lon="-0.99113">
        <ele>5</ele>
        <time>2013-08-28T09:45:12Z</time>
      </trkpt>
      <trkpt lat="47.3676" lon="-0.99063">
        <ele>5</ele>
        <time>2013-08-28T09:45:13Z</time>
      </trkpt>
      <trkpt lat="47.36763" lon="-0.99054">
        <ele>5</ele>
        <time>2013-08-28T09:45:14Z</time>
      </trkpt>
      <trkpt lat="47.36769" lon="-0.99033">
        <ele>5</ele>
        <time>2013-08-28T09:45:20Z</time>
      </trkpt>
      <trkpt lat="47.36781" lon="-0.98993">
        <ele>5</ele>
        <time>2013-08-28T09:45:20Z</time>
      </trkpt>
      <trkpt lat="47.36784" lon="-0.98983">
        <ele>5</ele>
        <time>2013-08-28T09:45:21Z</time>
      </trkpt>
      <trkpt lat="47.3679" lon="-0.98962">
        <ele>5</ele>
        <time>2013-08-28T09:45:28Z</time>
      </trkpt>
      <trkpt lat="47.36805" lon="-0.98911">
        <ele>5</ele>
        <time>2013-08-28T09:45:28Z</time>
      </trkpt>
      <trkpt lat="47.36808" lon="-0.989">
        <ele>5</ele>
        <time>2013-08-28T09:45:29Z</time>
      </trkpt>
      <trkpt lat="47.36815" lon="-0.9888">
        <ele>5</ele>
        <time>2013-08-28T09:45:35Z</time>
      </trkpt>
      <trkpt lat="47.36831" lon="-0.9883">
        <ele>6</ele>
        <time>2013-08-28T09:45:36Z</time>
      </trkpt>
      <trkpt lat="47.36834" lon="-0.9882">
        <ele>6</ele>
        <time>2013-08-28T09:45:37Z</time>
      </trkpt>
      <trkpt lat="47.3684" lon="-0.98801">
        <ele>7</ele>
        <time>2013-08-28T09:45:43Z</time>
      </trkpt>
      <trkpt lat="47.36851" lon="-0.98761">
        <ele>7</ele>
        <time>2013-08-28T09:45:43Z</time>
      </trkpt>
      <trkpt lat="47.36853" lon="-0.98751">
        <ele>7</ele>
        <time>2013-08-28T09:45:44Z</time>
      </trkpt>
      <trkpt lat="47.36857" lon="-0.98731">
        <ele>7</ele>
        <time>2013-08-28T09:45:51Z</time>
      </trkpt>
      <trkpt lat="47.36869" lon="-0.98683">
        <ele>7</ele>
        <time>2013-08-28T09:45:51Z</time>
      </trkpt>
      <trkpt lat="47.36871" lon="-0.98673">
        <ele>7</ele>
        <time>2013-08-28T09:45:52Z</time>
      </trkpt>
      <trkpt lat="47.36876" lon="-0.98654">
        <ele>7</ele>
        <time>2013-08-28T09:45:58Z</time>
      </trkpt>
      <trkpt lat="47.36888" lon="-0.98607">
        <ele>6</ele>
        <time>2013-08-28T09:45:59Z</time>
      </trkpt>
      <trkpt lat="47.36892" lon="-0.98598">
        <ele>5</ele>
        <time>2013-08-28T09:46:00Z</time>
      </trkpt>
      <trkpt lat="47.36897" lon="-0.9858">
        <ele>5</ele>
        <time>2013-08-28T09:46:06Z</time>
      </trkpt>
      <trkpt lat="47.36906" lon="-0.98541">
        <ele>5</ele>
        <time>2013-08-28T09:46:06Z</time>
      </trkpt>
      <trkpt lat="47.36908" lon="-0.98531">
        <ele>5</ele>
        <time>2013-08-28T09:46:07Z</time>
      </trkpt>
      <trkpt lat="47.36913" lon="-0.98511">
        <ele>5</ele>
        <time>2013-08-28T09:46:14Z</time>
      </trkpt>
      <trkpt lat="47.36923" lon="-0.98459">
        <ele>5</ele>
        <time>2013-08-28T09:46:14Z</time>
      </trkpt>
      <trkpt lat="47.36926" lon="-0.98448">
        <ele>5</ele>
        <time>2013-08-28T09:46:15Z</time>
      </trkpt>
      <trkpt lat="47.36931" lon="-0.98427">
        <ele>5</ele>
        <time>2013-08-28T09:46:21Z</time>
      </trkpt>
      <trkpt lat="47.36942" lon="-0.98373">
        <ele>5</ele>
        <time>2013-08-28T09:46:22Z</time>
      </trkpt>
      <trkpt lat="47.36943" lon="-0.98362">
        <ele>5</ele>
        <time>2013-08-28T09:46:23Z</time>
      </trkpt>
      <trkpt lat="47.36946" lon="-0.9834">
        <ele>5</ele>
        <time>2013-08-28T09:46:29Z</time>
      </trkpt>
      <trkpt lat="47.36952" lon="-0.98296">
        <ele>5</ele>
        <time>2013-08-28T09:46:29Z</time>
      </trkpt>
      <trkpt lat="47.36953" lon="-0.98285">
        <ele>5</ele>
        <time>2013-08-28T09:46:30Z</time>
      </trkpt>
      <trkpt lat="47.36956" lon="-0.98263">
        <ele>5</ele>
        <time>2013-08-28T09:46:37Z</time>
      </trkpt>
      <trkpt lat="47.36965" lon="-0.98208">
        <ele>4</ele>
        <time>2013-08-28T09:46:37Z</time>
      </trkpt>
      <trkpt lat="47.36966" lon="-0.98197">
        <ele>4</ele>
        <time>2013-08-28T09:46:38Z</time>
      </trkpt>
      <trkpt lat="47.3697" lon="-0.98175">
        <ele>4</ele>
        <time>2013-08-28T09:46:44Z</time>
      </trkpt>
      <trkpt lat="47.36978" lon="-0.9812">
        <ele>3</ele>
        <time>2013-08-28T09:46:45Z</time>
      </trkpt>
      <trkpt lat="47.36979" lon="-0.9811">
        <ele>3</ele>
        <time>2013-08-28T09:46:46Z</time>
      </trkpt>
      <trkpt lat="47.36982" lon="-0.98088">
        <ele>3</ele>
        <time>2013-08-28T09:46:52Z</time>
      </trkpt>
      <trkpt lat="47.36988" lon="-0.98046">
        <ele>3</ele>
        <time>2013-08-28T09:46:52Z</time>
      </trkpt>
      <trkpt lat="47.3699" lon="-0.98035">
        <ele>3</ele>
        <time>2013-08-28T09:46:53Z</time>
      </trkpt>
      <trkpt lat="47.36993" lon="-0.98014">
        <ele>3</ele>
        <time>2013-08-28T09:47:00Z</time>
      </trkpt>
      <trkpt lat="47.37001" lon="-0.97962">
        <ele>3</ele>
        <time>2013-08-28T09:47:00Z</time>
      </trkpt>
      <trkpt lat="47.37002" lon="-0.97952">
        <ele>3</ele>
        <time>2013-08-28T09:47:01Z</time>
      </trkpt>
      <trkpt lat="47.37005" lon="-0.9793">
        <ele>3</ele>
        <time>2013-08-28T09:47:07Z</time>
      </trkpt>
      <trkpt lat="47.37012" lon="-0.97881">
        <ele>3</ele>
        <time>2013-08-28T09:47:08Z</time>
      </trkpt>
      <trkpt lat="47.37013" lon="-0.9787">
        <ele>3</ele>
        <time>2013-08-28T09:47:09Z</time>
      </trkpt>
      <trkpt lat="47.37016" lon="-0.97849">
        <ele>3</ele>
        <time>2013-08-28T09:47:15Z</time>
      </trkpt>
      <trkpt lat="47.37022" lon="-0.97807">
        <ele>3</ele>
        <time>2013-08-28T09:47:15Z</time>
      </trkpt>
      <trkpt lat="47.37024" lon="-0.97797">
        <ele>3</ele>
        <time>2013-08-28T09:47:16Z</time>
      </trkpt>
      <trkpt lat="47.37027" lon="-0.97775">
        <ele>3</ele>
        <time>2013-08-28T09:47:23Z</time>
      </trkpt>
      <trkpt lat="47.37036" lon="-0.97721">
        <ele>3</ele>
        <time>2013-08-28T09:47:23Z</time>
      </trkpt>
      <trkpt lat="47.37037" lon="-0.9771">
        <ele>3</ele>
        <time>2013-08-28T09:47:24Z</time>
      </trkpt>
      <trkpt lat="47.37041" lon="-0.97689">
        <ele>4</ele>
        <time>2013-08-28T09:47:30Z</time>
      </trkpt>
      <trkpt lat="47.37049" lon="-0.97638">
        <ele>4</ele>
        <time>2013-08-28T09:47:31Z</time>
      </trkpt>
      <trkpt lat="47.37051" lon="-0.97627">
        <ele>4</ele>
        <time>2013-08-28T09:47:32Z</time>
      </trkpt>
      <trkpt lat="47.37054" lon="-0.97605">
        <ele>4</ele>
        <time>2013-08-28T09:47:38Z</time>
      </trkpt>
      <trkpt lat="47.37061" lon="-0.97561">
        <ele>4</ele>
        <time>2013-08-28T09:47:38Z</time>
      </trkpt>
      <trkpt lat="47.37063" lon="-0.9755">
        <ele>4</ele>
        <time>2013-08-28T09:47:39Z</time>
      </trkpt>
      <trkpt lat="47.37067" lon="-0.97528">
        <ele>4</ele>
        <time>2013-08-28T09:47:46Z</time>
      </trkpt>
      <trkpt lat="47.37075" lon="-0.97473">
        <ele>4</ele>
        <time>2013-08-28T09:47:46Z</time>
      </trkpt>
      <trkpt lat="47.37076" lon="-0.97461">
        <ele>4</ele>
        <time>2013-08-28T09:47:47Z</time>
      </trkpt>
      <trkpt lat="47.3708" lon="-0.97439">
        <ele>4</ele>
        <time>2013-08-28T09:47:53Z</time>
      </trkpt>
      <trkpt lat="47.37088" lon="-0.97383">
        <ele>4</ele>
        <time>2013-08-28T09:47:54Z</time>
      </trkpt>
      <trkpt lat="47.37089" lon="-0.97372">
        <ele>4</ele>
        <time>2013-08-28T09:47:55Z</time>
      </trkpt>
      <trkpt lat="47.37093" lon="-0.97349">
        <ele>4</ele>
        <time>2013-08-28T09:48:01Z</time>
      </trkpt>
      <trkpt lat="47.37099" lon="-0.97306">
        <ele>4</ele>
        <time>2013-08-28T09:48:01Z</time>
      </trkpt>
      <trkpt lat="47.37101" lon="-0.97295">
        <ele>4</ele>
        <time>2013-08-28T09:48:02Z</time>
      </trkpt>
      <trkpt lat="47.37104" lon="-0.97274">
        <ele>4</ele>
        <time>2013-08-28T09:48:09Z</time>
      </trkpt>
      <trkpt lat="47.37111" lon="-0.97221">
        <ele>4</ele>
        <time>2013-08-28T09:48:09Z</time>
      </trkpt>
      <trkpt lat="47.37113" lon="-0.9721">
        <ele>4</ele>
        <time>2013-08-28T09:48:10Z</time>
      </trkpt>
      <trkpt lat="47.37116" lon="-0.9719">
        <ele>4</ele>
        <time>2013-08-28T09:48:16Z</time>
      </trkpt>
      <trkpt lat="47.37124" lon="-0.97137">
        <ele>4</ele>
        <time>2013-08-28T09:48:17Z</time>
      </trkpt>
      <trkpt lat="47.37126" lon="-0.97127">
        <ele>4</ele>
        <time>2013-08-28T09:48:18Z</time>
      </trkpt>
      <trkpt lat="47.37129" lon="-0.97106">
        <ele>6</ele>
        <time>2013-08-28T09:48:24Z</time>
      </trkpt>
      <trkpt lat="47.37136" lon="-0.97062">
        <ele>6</ele>
        <time>2013-08-28T09:48:24Z</time>
      </trkpt>
      <trkpt lat="47.37138" lon="-0.97052">
        <ele>7</ele>
        <time>2013-08-28T09:48:25Z</time>
      </trkpt>
      <trkpt lat="47.37141" lon="-0.9703">
        <ele>7</ele>
        <time>2013-08-28T09:48:32Z</time>
      </trkpt>
      <trkpt lat="47.3715" lon="-0.96976">
        <ele>7</ele>
        <time>2013-08-28T09:48:32Z</time>
      </trkpt>
      <trkpt lat="47.37151" lon="-0.96965">
        <ele>7</ele>
        <time>2013-08-28T09:48:33Z</time>
      </trkpt>
      <trkpt lat="47.37155" lon="-0.96944">
        <ele>7</ele>
        <time>2013-08-28T09:48:39Z</time>
      </trkpt>
      <trkpt lat="47.37162" lon="-0.96891">
        <ele>7</ele>
        <time>2013-08-28T09:48:40Z</time>
      </trkpt>
      <trkpt lat="47.37164" lon="-0.9688">
        <ele>7</ele>
        <time>2013-08-28T09:48:41Z</time>
      </trkpt>
      <trkpt lat="47.37167" lon="-0.96861">
        <ele>7</ele>
        <time>2013-08-28T09:48:47Z</time>
      </trkpt>
      <trkpt lat="47.37173" lon="-0.9682">
        <ele>7</ele>
        <time>2013-08-28T09:48:47Z</time>
      </trkpt>
      <trkpt lat="47.37175" lon="-0.9681">
        <ele>7</ele>
        <time>2013-08-28T09:48:48Z</time>
      </trkpt>
      <trkpt lat="47.37178" lon="-0.96789">
        <ele>7</ele>
        <time>2013-08-28T09:48:55Z</time>
      </trkpt>
      <trkpt lat="47.37185" lon="-0.96736">
        <ele>7</ele>
        <time>2013-08-28T09:48:55Z</time>
      </trkpt>
      <trkpt lat="47.37187" lon="-0.96725">
        <ele>7</ele>
        <time>2013-08-28T09:48:56Z</time>
      </trkpt>
      <trkpt lat="47.3719" lon="-0.96704">
        <ele>7</ele>
        <time>2013-08-28T09:49:02Z</time>
      </trkpt>
      <trkpt lat="47.37197" lon="-0.96654">
        <ele>7</ele>
        <time>2013-08-28T09:49:03Z</time>
      </trkpt>
      <trkpt lat="47.37199" lon="-0.96644">
        <ele>7</ele>
        <time>2013-08-28T09:49:04Z</time>
      </trkpt>
      <trkpt lat="47.37202" lon="-0.96624">
        <ele>7</ele>
        <time>2013-08-28T09:49:10Z</time>
      </trkpt>
      <trkpt lat="47.37209" lon="-0.96582">
        <ele>7</ele>
        <time>2013-08-28T09:49:10Z</time>
      </trkpt>
      <trkpt lat="47.3721" lon="-0.96572">
        <ele>7</ele>
        <time>2013-08-28T09:49:11Z</time>
      </trkpt>
      <trkpt lat="47.37214" lon="-0.96551">
        <ele>7</ele>
        <time>2013-08-28T09:49:18Z</time>
      </trkpt>
      <trkpt lat="47.37221" lon="-0.965">
        <ele>7</ele>
        <time>2013-08-28T09:49:18Z</time>
      </trkpt>
      <trkpt lat="47.37223" lon="-0.96489">
        <ele>7</ele>
        <time>2013-08-28T09:49:19Z</time>
      </trkpt>
      <trkpt lat="47.37228" lon="-0.96467">
        <ele>7</ele>
        <time>2013-08-28T09:49:25Z</time>
      </trkpt>
      <trkpt lat="47.37236" lon="-0.96414">
        <ele>7</ele>
        <time>2013-08-28T09:49:26Z</time>
      </trkpt>
      <trkpt lat="47.37237" lon="-0.96403">
        <ele>7</ele>
        <time>2013-08-28T09:49:27Z</time>
      </trkpt>
      <trkpt lat="47.3724" lon="-0.96382">
        <ele>7</ele>
        <time>2013-08-28T09:49:33Z</time>
      </trkpt>
      <trkpt lat="47.37246" lon="-0.9634">
        <ele>7</ele>
        <time>2013-08-28T09:49:33Z</time>
      </trkpt>
      <trkpt lat="47.37247" lon="-0.96329">
        <ele>7</ele>
        <time>2013-08-28T09:49:34Z</time>
      </trkpt>
      <trkpt lat="47.3725" lon="-0.96309">
        <ele>7</ele>
        <time>2013-08-28T09:49:41Z</time>
      </trkpt>
      <trkpt lat="47.37258" lon="-0.96257">
        <ele>7</ele>
        <time>2013-08-28T09:49:41Z</time>
      </trkpt>
      <trkpt lat="47.3726" lon="-0.96247">
        <ele>7</ele>
        <time>2013-08-28T09:49:42Z</time>
      </trkpt>
      <trkpt lat="47.37264" lon="-0.96226">
        <ele>7</ele>
        <time>2013-08-28T09:49:48Z</time>
      </trkpt>
      <trkpt lat="47.37274" lon="-0.96178">
        <ele>7</ele>
        <time>2013-08-28T09:49:49Z</time>
      </trkpt>
      <trkpt lat="47.37276" lon="-0.96167">
        <ele>7</ele>
        <time>2013-08-28T09:49:50Z</time>
      </trkpt>
      <trkpt lat="47.37292" lon="-0.96106">
        <ele>7</ele>
        <time>2013-08-28T09:49:56Z</time>
      </trkpt>
      <trkpt lat="47.37296" lon="-0.96097">
        <ele>7</ele>
        <time>2013-08-28T09:49:57Z</time>
      </trkpt>
      <trkpt lat="47.37302" lon="-0.96077">
        <ele>7</ele>
        <time>2013-08-28T09:50:04Z</time>
      </trkpt>
      <trkpt lat="47.3732" lon="-0.96028">
        <ele>7</ele>
        <time>2013-08-28T09:50:04Z</time>
      </trkpt>
      <trkpt lat="47.37323" lon="-0.96018">
        <ele>7</ele>
        <time>2013-08-28T09:50:05Z</time>
      </trkpt>
      <trkpt lat="47.37331" lon="-0.95999">
        <ele>7</ele>
        <time>2013-08-28T09:50:11Z</time>
      </trkpt>
      <trkpt lat="47.37349" lon="-0.95952">
        <ele>7</ele>
        <time>2013-08-28T09:50:12Z</time>
      </trkpt>
      <trkpt lat="47.37353" lon="-0.95942">
        <ele>7</ele>
        <time>2013-08-28T09:50:13Z</time>
      </trkpt>
      <trkpt lat="47.37375" lon="-0.95886">
        <ele>7</ele>
        <time>2013-08-28T09:50:19Z</time>
      </trkpt>
      <trkpt lat="47.37378" lon="-0.95877">
        <ele>7</ele>
        <time>2013-08-28T09:50:20Z</time>
      </trkpt>
      <trkpt lat="47.37386" lon="-0.95858">
        <ele>7</ele>
        <time>2013-08-28T09:50:27Z</time>
      </trkpt>
      <trkpt lat="47.37402" lon="-0.9581">
        <ele>7</ele>
        <time>2013-08-28T09:50:27Z</time>
      </trkpt>
      <trkpt lat="47.37406" lon="-0.95801">
        <ele>7</ele>
        <time>2013-08-28T09:50:28Z</time>
      </trkpt>
      <trkpt lat="47.37413" lon="-0.95782">
        <ele>7</ele>
        <time>2013-08-28T09:50:34Z</time>
      </trkpt>
      <trkpt lat="47.3743" lon="-0.95735">
        <ele>7</ele>
        <time>2013-08-28T09:50:35Z</time>
      </trkpt>
      <trkpt lat="47.37434" lon="-0.95725">
        <ele>7</ele>
        <time>2013-08-28T09:50:36Z</time>
      </trkpt>
      <trkpt lat="47.37454" lon="-0.9567">
        <ele>7</ele>
        <time>2013-08-28T09:50:42Z</time>
      </trkpt>
      <trkpt lat="47.37458" lon="-0.95661">
        <ele>7</ele>
        <time>2013-08-28T09:50:43Z</time>
      </trkpt>
      <trkpt lat="47.37464" lon="-0.95642">
        <ele>7</ele>
        <time>2013-08-28T09:50:50Z</time>
      </trkpt>
      <trkpt lat="47.37481" lon="-0.95596">
        <ele>7</ele>
        <time>2013-08-28T09:50:50Z</time>
      </trkpt>
      <trkpt lat="47.37484" lon="-0.95587">
        <ele>7</ele>
        <time>2013-08-28T09:50:51Z</time>
      </trkpt>
      <trkpt lat="47.3749" lon="-0.95568">
        <ele>7</ele>
        <time>2013-08-28T09:50:57Z</time>
      </trkpt>
      <trkpt lat="47.37508" lon="-0.9552">
        <ele>7</ele>
        <time>2013-08-28T09:50:58Z</time>
      </trkpt>
      <trkpt lat="47.37512" lon="-0.9551">
        <ele>7</ele>
        <time>2013-08-28T09:50:59Z</time>
      </trkpt>
      <trkpt lat="47.37519" lon="-0.95491">
        <ele>7</ele>
        <time>2013-08-28T09:51:05Z</time>
      </trkpt>
      <trkpt lat="47.37536" lon="-0.95442">
        <ele>7</ele>
        <time>2013-08-28T09:51:06Z</time>
      </trkpt>
      <trkpt lat="47.3754" lon="-0.95433">
        <ele>7</ele>
        <time>2013-08-28T09:51:07Z</time>
      </trkpt>
      <trkpt lat="47.37561" lon="-0.95376">
        <ele>7</ele>
        <time>2013-08-28T09:51:13Z</time>
      </trkpt>
      <trkpt lat="47.37565" lon="-0.95367">
        <ele>7</ele>
        <time>2013-08-28T09:51:14Z</time>
      </trkpt>
      <trkpt lat="47.37572" lon="-0.95349">
        <ele>7</ele>
        <time>2013-08-28T09:51:21Z</time>
      </trkpt>
      <trkpt lat="47.37592" lon="-0.95304">
        <ele>7</ele>
        <time>2013-08-28T09:51:21Z</time>
      </trkpt>
      <trkpt lat="47.37597" lon="-0.95295">
        <ele>7</ele>
        <time>2013-08-28T09:51:22Z</time>
      </trkpt>
      <trkpt lat="47.37605" lon="-0.95278">
        <ele>7</ele>
        <time>2013-08-28T09:51:28Z</time>
      </trkpt>
      <trkpt lat="47.37626" lon="-0.95235">
        <ele>7</ele>
        <time>2013-08-28T09:51:29Z</time>
      </trkpt>
      <trkpt lat="47.3763" lon="-0.95226">
        <ele>7</ele>
        <time>2013-08-28T09:51:30Z</time>
      </trkpt>
      <trkpt lat="47.37639" lon="-0.95208">
        <ele>7</ele>
        <time>2013-08-28T09:51:36Z</time>
      </trkpt>
      <trkpt lat="47.37662" lon="-0.95164">
        <ele>7</ele>
        <time>2013-08-28T09:51:37Z</time>
      </trkpt>
      <trkpt lat="47.37666" lon="-0.95154">
        <ele>7</ele>
        <time>2013-08-28T09:51:38Z</time>
      </trkpt>
      <trkpt lat="47.37691" lon="-0.951">
        <ele>7</ele>
        <time>2013-08-28T09:51:44Z</time>
      </trkpt>
      <trkpt lat="47.37695" lon="-0.95091">
        <ele>7</ele>
        <time>2013-08-28T09:51:45Z</time>
      </trkpt>
      <trkpt lat="47.37705" lon="-0.95073">
        <ele>7</ele>
        <time>2013-08-28T09:51:52Z</time>
      </trkpt>
      <trkpt lat="47.37726" lon="-0.9503">
        <ele>7</ele>
        <time>2013-08-28T09:51:52Z</time>
      </trkpt>
      <trkpt lat="47.3773" lon="-0.95022">
        <ele>8</ele>
        <time>2013-08-28T09:51:53Z</time>
      </trkpt>
      <trkpt lat="47.37738" lon="-0.95005">
        <ele>8</ele>
        <time>2013-08-28T09:51:57Z</time>
      </trkpt>
      <trkpt lat="47.37751" lon="-0.94978">
        <ele>8</ele>
        <time>2013-08-28T09:52:02Z</time>
      </trkpt>
      <trkpt lat="47.37774" lon="-0.94933">
        <ele>8</ele>
        <time>2013-08-28T09:52:03Z</time>
      </trkpt>
      <trkpt lat="47.378" lon="-0.9488">
        <ele>9</ele>
        <time>2013-08-28T09:52:09Z</time>
      </trkpt>
      <trkpt lat="47.37804" lon="-0.94871">
        <ele>9</ele>
        <time>2013-08-28T09:52:10Z</time>
      </trkpt>
      <trkpt lat="47.37813" lon="-0.94853">
        <ele>9</ele>
        <time>2013-08-28T09:52:17Z</time>
      </trkpt>
      <trkpt lat="47.37835" lon="-0.94809">
        <ele>9</ele>
        <time>2013-08-28T09:52:17Z</time>
      </trkpt>
      <trkpt lat="47.37839" lon="-0.94801">
        <ele>9</ele>
        <time>2013-08-28T09:52:18Z</time>
      </trkpt>
      <trkpt lat="47.37848" lon="-0.94783">
        <ele>9</ele>
        <time>2013-08-28T09:52:24Z</time>
      </trkpt>
      <trkpt lat="47.37867" lon="-0.94739">
        <ele>9</ele>
        <time>2013-08-28T09:52:25Z</time>
      </trkpt>
      <trkpt lat="47.37871" lon="-0.9473">
        <ele>9</ele>
        <time>2013-08-28T09:52:26Z</time>
      </trkpt>
      <trkpt lat="47.37896" lon="-0.94676">
        <ele>9</ele>
        <time>2013-08-28T09:52:32Z</time>
      </trkpt>
      <trkpt lat="47.379" lon="-0.94667">
        <ele>9</ele>
        <time>2013-08-28T09:52:33Z</time>
      </trkpt>
      <trkpt lat="47.37904" lon="-0.94658">
        <ele>9</ele>
        <time>2013-08-28T09:52:34Z</time>
      </trkpt>
      <trkpt lat="47.37931" lon="-0.94603">
        <ele>9</ele>
        <time>2013-08-28T09:52:40Z</time>
      </trkpt>
      <trkpt lat="47.37936" lon="-0.94594">
        <ele>9</ele>
        <time>2013-08-28T09:52:41Z</time>
      </trkpt>
      <trkpt lat="47.37944" lon="-0.94575">
        <ele>8</ele>
        <time>2013-08-28T09:52:48Z</time>
      </trkpt>
      <trkpt lat="47.37966" lon="-0.9453">
        <ele>8</ele>
        <time>2013-08-28T09:52:48Z</time>
      </trkpt>
      <trkpt lat="47.3797" lon="-0.94521">
        <ele>8</ele>
        <time>2013-08-28T09:52:49Z</time>
      </trkpt>
      <trkpt lat="47.37978" lon="-0.94503">
        <ele>8</ele>
        <time>2013-08-28T09:52:55Z</time>
      </trkpt>
      <trkpt lat="47.38" lon="-0.94459">
        <ele>8</ele>
        <time>2013-08-28T09:52:56Z</time>
      </trkpt>
      <trkpt lat="47.38005" lon="-0.9445">
        <ele>7</ele>
        <time>2013-08-28T09:52:57Z</time>
      </trkpt>
      <trkpt lat="47.38013" lon="-0.94432">
        <ele>7</ele>
        <time>2013-08-28T09:53:03Z</time>
      </trkpt>
      <trkpt lat="47.38035" lon="-0.94388">
        <ele>7</ele>
        <time>2013-08-28T09:53:04Z</time>
      </trkpt>
      <trkpt lat="47.38039" lon="-0.94379">
        <ele>6</ele>
        <time>2013-08-28T09:53:05Z</time>
      </trkpt>
      <trkpt lat="47.38064" lon="-0.94326">
        <ele>6</ele>
        <time>2013-08-28T09:53:11Z</time>
      </trkpt>
      <trkpt lat="47.38068" lon="-0.94317">
        <ele>6</ele>
        <time>2013-08-28T09:53:12Z</time>
      </trkpt>
      <trkpt lat="47.38077" lon="-0.94299">
        <ele>6</ele>
        <time>2013-08-28T09:53:19Z</time>
      </trkpt>
      <trkpt lat="47.38099" lon="-0.94254">
        <ele>6</ele>
        <time>2013-08-28T09:53:19Z</time>
      </trkpt>
      <trkpt lat="47.38103" lon="-0.94245">
        <ele>6</ele>
        <time>2013-08-28T09:53:20Z</time>
      </trkpt>
      <trkpt lat="47.38113" lon="-0.94226">
        <ele>6</ele>
        <time>2013-08-28T09:53:26Z</time>
      </trkpt>
      <trkpt lat="47.38135" lon="-0.94181">
        <ele>6</ele>
        <time>2013-08-28T09:53:27Z</time>
      </trkpt>
      <trkpt lat="47.38139" lon="-0.94171">
        <ele>6</ele>
        <time>2013-08-28T09:53:28Z</time>
      </trkpt>
      <trkpt lat="47.38164" lon="-0.94115">
        <ele>6</ele>
        <time>2013-08-28T09:53:34Z</time>
      </trkpt>
      <trkpt lat="47.38168" lon="-0.94106">
        <ele>5</ele>
        <time>2013-08-28T09:53:35Z</time>
      </trkpt>
      <trkpt lat="47.38173" lon="-0.94097">
        <ele>5</ele>
        <time>2013-08-28T09:53:36Z</time>
      </trkpt>
      <trkpt lat="47.38198" lon="-0.94044">
        <ele>5</ele>
        <time>2013-08-28T09:53:42Z</time>
      </trkpt>
      <trkpt lat="47.38203" lon="-0.94035">
        <ele>5</ele>
        <time>2013-08-28T09:53:43Z</time>
      </trkpt>
      <trkpt lat="47.38212" lon="-0.94017">
        <ele>5</ele>
        <time>2013-08-28T09:53:50Z</time>
      </trkpt>
      <trkpt lat="47.38233" lon="-0.93971">
        <ele>5</ele>
        <time>2013-08-28T09:53:50Z</time>
      </trkpt>
      <trkpt lat="47.38237" lon="-0.93963">
        <ele>5</ele>
        <time>2013-08-28T09:53:51Z</time>
      </trkpt>
      <trkpt lat="47.38246" lon="-0.93944">
        <ele>5</ele>
        <time>2013-08-28T09:53:57Z</time>
      </trkpt>
      <trkpt lat="47.38268" lon="-0.93899">
        <ele>5</ele>
        <time>2013-08-28T09:53:58Z</time>
      </trkpt>
      <trkpt lat="47.38272" lon="-0.9389">
        <ele>5</ele>
        <time>2013-08-28T09:53:59Z</time>
      </trkpt>
      <trkpt lat="47.38298" lon="-0.93836">
        <ele>5</ele>
        <time>2013-08-28T09:54:05Z</time>
      </trkpt>
      <trkpt lat="47.38302" lon="-0.93827">
        <ele>5</ele>
        <time>2013-08-28T09:54:06Z</time>
      </trkpt>
      <trkpt lat="47.38306" lon="-0.93817">
        <ele>5</ele>
        <time>2013-08-28T09:54:07Z</time>
      </trkpt>
      <trkpt lat="47.38333" lon="-0.93763">
        <ele>5</ele>
        <time>2013-08-28T09:54:13Z</time>
      </trkpt>
      <trkpt lat="47.38337" lon="-0.93753">
        <ele>5</ele>
        <time>2013-08-28T09:54:14Z</time>
      </trkpt>
      <trkpt lat="47.38346" lon="-0.93735">
        <ele>5</ele>
        <time>2013-08-28T09:54:21Z</time>
      </trkpt>
      <trkpt lat="47.38369" lon="-0.93687">
        <ele>5</ele>
        <time>2013-08-28T09:54:21Z</time>
      </trkpt>
      <trkpt lat="47.38374" lon="-0.93678">
        <ele>5</ele>
        <time>2013-08-28T09:54:22Z</time>
      </trkpt>
      <trkpt lat="47.38382" lon="-0.93659">
        <ele>5</ele>
        <time>2013-08-28T09:54:28Z</time>
      </trkpt>
      <trkpt lat="47.38406" lon="-0.93612">
        <ele>5</ele>
        <time>2013-08-28T09:54:29Z</time>
      </trkpt>
      <trkpt lat="47.38411" lon="-0.93602">
        <ele>5</ele>
        <time>2013-08-28T09:54:30Z</time>
      </trkpt>
      <trkpt lat="47.38441" lon="-0.93548">
        <ele>5</ele>
        <time>2013-08-28T09:54:36Z</time>
      </trkpt>
      <trkpt lat="47.38447" lon="-0.93539">
        <ele>5</ele>
        <time>2013-08-28T09:54:37Z</time>
      </trkpt>
      <trkpt lat="47.38459" lon="-0.93523">
        <ele>5</ele>
        <time>2013-08-28T09:54:44Z</time>
      </trkpt>
      <trkpt lat="47.38489" lon="-0.93486">
        <ele>5</ele>
        <time>2013-08-28T09:54:44Z</time>
      </trkpt>
      <trkpt lat="47.38495" lon="-0.93478">
        <ele>5</ele>
        <time>2013-08-28T09:54:45Z</time>
      </trkpt>
      <trkpt lat="47.38508" lon="-0.93464">
        <ele>5</ele>
        <time>2013-08-28T09:54:51Z</time>
      </trkpt>
      <trkpt lat="47.38541" lon="-0.93433">
        <ele>5</ele>
        <time>2013-08-28T09:54:52Z</time>
      </trkpt>
      <trkpt lat="47.38548" lon="-0.93427">
        <ele>5</ele>
        <time>2013-08-28T09:54:53Z</time>
      </trkpt>
      <trkpt lat="47.38561" lon="-0.93416">
        <ele>5</ele>
        <time>2013-08-28T09:54:59Z</time>
      </trkpt>
      <trkpt lat="47.38594" lon="-0.93393">
        <ele>4</ele>
        <time>2013-08-28T09:55:00Z</time>
      </trkpt>
      <trkpt lat="47.38601" lon="-0.93389">
        <ele>3</ele>
        <time>2013-08-28T09:55:01Z</time>
      </trkpt>
      <trkpt lat="47.38642" lon="-0.93363">
        <ele>2</ele>
        <time>2013-08-28T09:55:07Z</time>
      </trkpt>
      <trkpt lat="47.38649" lon="-0.93359">
        <ele>1</ele>
        <time>2013-08-28T09:55:08Z</time>
      </trkpt>
      <trkpt lat="47.38662" lon="-0.93351">
        <ele>13.2</ele>
        <time>2013-08-28T09:55:15Z</time>
      </trkpt>
      <trkpt lat="47.38696" lon="-0.9333">
        <ele>15.3</ele>
        <time>2013-08-28T09:55:15Z</time>
      </trkpt>
      <trkpt lat="47.38703" lon="-0.93325">
        <ele>14</ele>
        <time>2013-08-28T09:55:16Z</time>
      </trkpt>
      <trkpt lat="47.38716" lon="-0.93317">
        <ele>13</ele>
        <time>2013-08-28T09:55:22Z</time>
      </trkpt>
      <trkpt lat="47.38749" lon="-0.93293">
        <ele>13</ele>
        <time>2013-08-28T09:55:23Z</time>
      </trkpt>
      <trkpt lat="47.38756" lon="-0.93288">
        <ele>13.2</ele>
        <time>2013-08-28T09:55:24Z</time>
      </trkpt>
      <trkpt lat="47.38796" lon="-0.93256">
        <ele>13.6</ele>
        <time>2013-08-28T09:55:30Z</time>
      </trkpt>
      <trkpt lat="47.38802" lon="-0.93251">
        <ele>14.6</ele>
        <time>2013-08-28T09:55:31Z</time>
      </trkpt>
      <trkpt lat="47.38815" lon="-0.93239">
        <ele>13.2</ele>
        <time>2013-08-28T09:55:38Z</time>
      </trkpt>
      <trkpt lat="47.38845" lon="-0.9321">
        <ele>13.3</ele>
        <time>2013-08-28T09:55:38Z</time>
      </trkpt>
      <trkpt lat="47.38851" lon="-0.93204">
        <ele>13.5</ele>
        <time>2013-08-28T09:55:39Z</time>
      </trkpt>
      <trkpt lat="47.38863" lon="-0.93191">
        <ele>14.5</ele>
        <time>2013-08-28T09:55:45Z</time>
      </trkpt>
      <trkpt lat="47.38892" lon="-0.93158">
        <ele>14</ele>
        <time>2013-08-28T09:55:46Z</time>
      </trkpt>
      <trkpt lat="47.38897" lon="-0.93151">
        <ele>13.2</ele>
        <time>2013-08-28T09:55:47Z</time>
      </trkpt>
      <trkpt lat="47.38909" lon="-0.93138">
        <ele>13</ele>
        <time>2013-08-28T09:55:53Z</time>
      </trkpt>
      <trkpt lat="47.38938" lon="-0.93102">
        <ele>13.3</ele>
        <time>2013-08-28T09:55:54Z</time>
      </trkpt>
      <trkpt lat="47.38944" lon="-0.93095">
        <ele>13.6</ele>
        <time>2013-08-28T09:55:55Z</time>
      </trkpt>
      <trkpt lat="47.3898" lon="-0.93052">
        <ele>-1</ele>
        <time>2013-08-28T09:56:01Z</time>
      </trkpt>
      <trkpt lat="47.38986" lon="-0.93045">
        <ele>-1</ele>
        <time>2013-08-28T09:56:02Z</time>
      </trkpt>
      <trkpt lat="47.38998" lon="-0.93029">
        <ele>-1</ele>
        <time>2013-08-28T09:56:09Z</time>
      </trkpt>
      <trkpt lat="47.39027" lon="-0.92993">
        <ele>-1</ele>
        <time>2013-08-28T09:56:09Z</time>
      </trkpt>
      <trkpt lat="47.39033" lon="-0.92986">
        <ele>-1</ele>
        <time>2013-08-28T09:56:10Z</time>
      </trkpt>
      <trkpt lat="47.39045" lon="-0.92971">
        <ele>-1</ele>
        <time>2013-08-28T09:56:16Z</time>
      </trkpt>
      <trkpt lat="47.39074" lon="-0.92935">
        <ele>-1</ele>
        <time>2013-08-28T09:56:17Z</time>
      </trkpt>
      <trkpt lat="47.3908" lon="-0.92928">
        <ele>-1</ele>
        <time>2013-08-28T09:56:18Z</time>
      </trkpt>
      <trkpt lat="47.39091" lon="-0.92914">
        <ele>-1</ele>
        <time>2013-08-28T09:56:24Z</time>
      </trkpt>
      <trkpt lat="47.39119" lon="-0.92879">
        <ele>-1</ele>
        <time>2013-08-28T09:56:25Z</time>
      </trkpt>
      <trkpt lat="47.39125" lon="-0.92873">
        <ele>-1</ele>
        <time>2013-08-28T09:56:26Z</time>
      </trkpt>
      <trkpt lat="47.39159" lon="-0.9283">
        <ele>-1</ele>
        <time>2013-08-28T09:56:32Z</time>
      </trkpt>
      <trkpt lat="47.39165" lon="-0.92823">
        <ele>-1</ele>
        <time>2013-08-28T09:56:33Z</time>
      </trkpt>
      <trkpt lat="47.39177" lon="-0.92809">
        <ele>-1</ele>
        <time>2013-08-28T09:56:40Z</time>
      </trkpt>
      <trkpt lat="47.39206" lon="-0.92773">
        <ele>-1</ele>
        <time>2013-08-28T09:56:40Z</time>
      </trkpt>
      <trkpt lat="47.39212" lon="-0.92765">
        <ele>-1</ele>
        <time>2013-08-28T09:56:41Z</time>
      </trkpt>
      <trkpt lat="47.39225" lon="-0.92751">
        <ele>-1</ele>
        <time>2013-08-28T09:56:47Z</time>
      </trkpt>
      <trkpt lat="47.39254" lon="-0.92716">
        <ele>-1</ele>
        <time>2013-08-28T09:56:48Z</time>
      </trkpt>
      <trkpt lat="47.39259" lon="-0.92709">
        <ele>-1</ele>
        <time>2013-08-28T09:56:49Z</time>
      </trkpt>
      <trkpt lat="47.3927" lon="-0.92695">
        <ele>-1</ele>
        <time>2013-08-28T09:56:55Z</time>
      </trkpt>
      <trkpt lat="47.39299" lon="-0.9266">
        <ele>-1</ele>
        <time>2013-08-28T09:56:56Z</time>
      </trkpt>
      <trkpt lat="47.39305" lon="-0.92652">
        <ele>-1</ele>
        <time>2013-08-28T09:56:57Z</time>
      </trkpt>
      <trkpt lat="47.39341" lon="-0.92607">
        <ele>14.3</ele>
        <time>2013-08-28T09:57:03Z</time>
      </trkpt>
      <trkpt lat="47.39347" lon="-0.92599">
        <ele>-1</ele>
        <time>2013-08-28T09:57:04Z</time>
      </trkpt>
      <trkpt lat="47.3936" lon="-0.92585">
        <ele>-2</ele>
        <time>2013-08-28T09:57:11Z</time>
      </trkpt>
      <trkpt lat="47.3939" lon="-0.92549">
        <ele>-3</ele>
        <time>2013-08-28T09:57:11Z</time>
      </trkpt>
      <trkpt lat="47.39396" lon="-0.92542">
        <ele>-4</ele>
        <time>2013-08-28T09:57:12Z</time>
      </trkpt>
      <trkpt lat="47.39408" lon="-0.92527">
        <ele>-7</ele>
        <time>2013-08-28T09:57:18Z</time>
      </trkpt>
      <trkpt lat="47.39438" lon="-0.92491">
        <ele>-8</ele>
        <time>2013-08-28T09:57:19Z</time>
      </trkpt>
      <trkpt lat="47.39445" lon="-0.92483">
        <ele>-9</ele>
        <time>2013-08-28T09:57:20Z</time>
      </trkpt>
      <trkpt lat="47.39456" lon="-0.9247">
        <ele>-10</ele>
        <time>2013-08-28T09:57:26Z</time>
      </trkpt>
      <trkpt lat="47.39485" lon="-0.92435">
        <ele>-12</ele>
        <time>2013-08-28T09:57:27Z</time>
      </trkpt>
      <trkpt lat="47.39491" lon="-0.92427">
        <ele>-12</ele>
        <time>2013-08-28T09:57:28Z</time>
      </trkpt>
      <trkpt lat="47.39526" lon="-0.92385">
        <ele>-12</ele>
        <time>2013-08-28T09:57:34Z</time>
      </trkpt>
      <trkpt lat="47.39533" lon="-0.92378">
        <ele>-12</ele>
        <time>2013-08-28T09:57:35Z</time>
      </trkpt>
      <trkpt lat="47.39545" lon="-0.92363">
        <ele>-12</ele>
        <time>2013-08-28T09:57:42Z</time>
      </trkpt>
      <trkpt lat="47.39573" lon="-0.92325">
        <ele>-12</ele>
        <time>2013-08-28T09:57:42Z</time>
      </trkpt>
      <trkpt lat="47.39579" lon="-0.92317">
        <ele>-12</ele>
        <time>2013-08-28T09:57:43Z</time>
      </trkpt>
      <trkpt lat="47.39589" lon="-0.92301">
        <ele>-12</ele>
        <time>2013-08-28T09:57:49Z</time>
      </trkpt>
      <trkpt lat="47.39614" lon="-0.9226">
        <ele>-12</ele>
        <time>2013-08-28T09:57:50Z</time>
      </trkpt>
      <trkpt lat="47.39619" lon="-0.92251">
        <ele>-12</ele>
        <time>2013-08-28T09:57:51Z</time>
      </trkpt>
      <trkpt lat="47.39627" lon="-0.92235">
        <ele>-12</ele>
        <time>2013-08-28T09:57:57Z</time>
      </trkpt>
      <trkpt lat="47.39647" lon="-0.92192">
        <ele>-12</ele>
        <time>2013-08-28T09:57:58Z</time>
      </trkpt>
      <trkpt lat="47.39651" lon="-0.92184">
        <ele>-10</ele>
        <time>2013-08-28T09:57:59Z</time>
      </trkpt>
      <trkpt lat="47.39673" lon="-0.92133">
        <ele>-9</ele>
        <time>2013-08-28T09:58:05Z</time>
      </trkpt>
      <trkpt lat="47.39677" lon="-0.92125">
        <ele>-8</ele>
        <time>2013-08-28T09:58:06Z</time>
      </trkpt>
      <trkpt lat="47.39686" lon="-0.92108">
        <ele>-7</ele>
        <time>2013-08-28T09:58:13Z</time>
      </trkpt>
      <trkpt lat="47.39706" lon="-0.92063">
        <ele>-6</ele>
        <time>2013-08-28T09:58:13Z</time>
      </trkpt>
      <trkpt lat="47.3971" lon="-0.92054">
        <ele>-4</ele>
        <time>2013-08-28T09:58:14Z</time>
      </trkpt>
      <trkpt lat="47.39718" lon="-0.92037">
        <ele>-3</ele>
        <time>2013-08-28T09:58:20Z</time>
      </trkpt>
      <trkpt lat="47.39736" lon="-0.91992">
        <ele>-2</ele>
        <time>2013-08-28T09:58:21Z</time>
      </trkpt>
      <trkpt lat="47.3974" lon="-0.91983">
        <ele>-1</ele>
        <time>2013-08-28T09:58:22Z</time>
      </trkpt>
      <trkpt lat="47.39748" lon="-0.91964">
        <ele>13.2</ele>
        <time>2013-08-28T09:58:28Z</time>
      </trkpt>
      <trkpt lat="47.39766" lon="-0.91919">
        <ele>13.4</ele>
        <time>2013-08-28T09:58:29Z</time>
      </trkpt>
      <trkpt lat="47.39769" lon="-0.9191">
        <ele>13.4</ele>
        <time>2013-08-28T09:58:30Z</time>
      </trkpt>
      <trkpt lat="47.39793" lon="-0.91856">
        <ele>13.4</ele>
        <time>2013-08-28T09:58:36Z</time>
      </trkpt>
      <trkpt lat="47.39797" lon="-0.91847">
        <ele>13.1</ele>
        <time>2013-08-28T09:58:37Z</time>
      </trkpt>
      <trkpt lat="47.39803" lon="-0.91832">
        <ele>13.2</ele>
        <time>2013-08-28T09:58:44Z</time>
      </trkpt>
      <trkpt lat="47.39819" lon="-0.9179">
        <ele>1</ele>
        <time>2013-08-28T09:58:44Z</time>
      </trkpt>
      <trkpt lat="47.39821" lon="-0.91781">
        <ele>2</ele>
        <time>2013-08-28T09:58:45Z</time>
      </trkpt>
      <trkpt lat="47.39827" lon="-0.91764">
        <ele>3</ele>
        <time>2013-08-28T09:58:51Z</time>
      </trkpt>
      <trkpt lat="47.39842" lon="-0.9173">
        <ele>4</ele>
        <time>2013-08-28T09:58:52Z</time>
      </trkpt>
      <trkpt lat="47.39845" lon="-0.91724">
        <ele>6</ele>
        <time>2013-08-28T09:58:53Z</time>
      </trkpt>
      <trkpt lat="47.39849" lon="-0.91712">
        <ele>7</ele>
        <time>2013-08-28T09:58:59Z</time>
      </trkpt>
      <trkpt lat="47.39854" lon="-0.91692">
        <ele>8</ele>
        <time>2013-08-28T09:59:00Z</time>
      </trkpt>
      <trkpt lat="47.39855" lon="-0.9169">
        <ele>9</ele>
        <time>2013-08-28T09:59:02Z</time>
      </trkpt>
      <trkpt lat="47.39855" lon="-0.91688">
        <ele>10</ele>
        <time>2013-08-28T09:59:02Z</time>
      </trkpt>
      <trkpt lat="47.39857" lon="-0.91684">
        <ele>11</ele>
        <time>2013-08-28T09:59:09Z</time>
      </trkpt>
      <trkpt lat="47.39864" lon="-0.91664">
        <ele>12</ele>
        <time>2013-08-28T09:59:10Z</time>
      </trkpt>
      <trkpt lat="47.3987" lon="-0.91652">
        <ele>13</ele>
        <time>2013-08-28T09:59:16Z</time>
      </trkpt>
      <trkpt lat="47.39883" lon="-0.9162">
        <ele>13</ele>
        <time>2013-08-28T09:59:17Z</time>
      </trkpt>
      <trkpt lat="47.39886" lon="-0.91614">
        <ele>13</ele>
        <time>2013-08-28T09:59:18Z</time>
      </trkpt>
      <trkpt lat="47.39906" lon="-0.9157">
        <ele>13</ele>
        <time>2013-08-28T09:59:24Z</time>
      </trkpt>
      <trkpt lat="47.39909" lon="-0.91562">
        <ele>13</ele>
        <time>2013-08-28T09:59:25Z</time>
      </trkpt>
      <trkpt lat="47.39915" lon="-0.91546">
        <ele>13</ele>
        <time>2013-08-28T09:59:32Z</time>
      </trkpt>
      <trkpt lat="47.39933" lon="-0.91504">
        <ele>13</ele>
        <time>2013-08-28T09:59:32Z</time>
      </trkpt>
      <trkpt lat="47.39936" lon="-0.91496">
        <ele>13</ele>
        <time>2013-08-28T09:59:33Z</time>
      </trkpt>
      <trkpt lat="47.39943" lon="-0.91479">
        <ele>13</ele>
        <time>2013-08-28T09:59:39Z</time>
      </trkpt>
      <trkpt lat="47.3996" lon="-0.91436">
        <ele>12</ele>
        <time>2013-08-28T09:59:40Z</time>
      </trkpt>
      <trkpt lat="47.39963" lon="-0.91426">
        <ele>12</ele>
        <time>2013-08-28T09:59:41Z</time>
      </trkpt>
      <trkpt lat="47.39969" lon="-0.91408">
        <ele>11</ele>
        <time>2013-08-28T09:59:47Z</time>
      </trkpt>
      <trkpt lat="47.39983" lon="-0.91359">
        <ele>11</ele>
        <time>2013-08-28T09:59:48Z</time>
      </trkpt>
      <trkpt lat="47.39986" lon="-0.9135">
        <ele>10</ele>
        <time>2013-08-28T09:59:49Z</time>
      </trkpt>
      <trkpt lat="47.39997" lon="-0.91289">
        <ele>10</ele>
        <time>2013-08-28T09:59:55Z</time>
      </trkpt>
      <trkpt lat="47.39998" lon="-0.91279">
        <ele>10</ele>
        <time>2013-08-28T09:59:56Z</time>
      </trkpt>
      <trkpt lat="47.40001" lon="-0.91258">
        <ele>10</ele>
        <time>2013-08-28T10:00:03Z</time>
      </trkpt>
      <trkpt lat="47.40006" lon="-0.91205">
        <ele>10</ele>
        <time>2013-08-28T10:00:03Z</time>
      </trkpt>
      <trkpt lat="47.40006" lon="-0.91194">
        <ele>10</ele>
        <time>2013-08-28T10:00:04Z</time>
      </trkpt>
      <trkpt lat="47.40007" lon="-0.91173">
        <ele>10</ele>
        <time>2013-08-28T10:00:10Z</time>
      </trkpt>
      <trkpt lat="47.40008" lon="-0.9112">
        <ele>10</ele>
        <time>2013-08-28T10:00:11Z</time>
      </trkpt>
      <trkpt lat="47.40009" lon="-0.91109">
        <ele>10</ele>
        <time>2013-08-28T10:00:12Z</time>
      </trkpt>
      <trkpt lat="47.40009" lon="-0.91087">
        <ele>10</ele>
        <time>2013-08-28T10:00:18Z</time>
      </trkpt>
      <trkpt lat="47.4001" lon="-0.91031">
        <ele>10</ele>
        <time>2013-08-28T10:00:19Z</time>
      </trkpt>
      <trkpt lat="47.4001" lon="-0.9102">
        <ele>10</ele>
        <time>2013-08-28T10:00:20Z</time>
      </trkpt>
      <trkpt lat="47.4001" lon="-0.90953">
        <ele>10</ele>
        <time>2013-08-28T10:00:26Z</time>
      </trkpt>
      <trkpt lat="47.4001" lon="-0.90942">
        <ele>10</ele>
        <time>2013-08-28T10:00:27Z</time>
      </trkpt>
      <trkpt lat="47.40011" lon="-0.90921">
        <ele>9</ele>
        <time>2013-08-28T10:00:34Z</time>
      </trkpt>
      <trkpt lat="47.40012" lon="-0.90864">
        <ele>9</ele>
        <time>2013-08-28T10:00:34Z</time>
      </trkpt>
      <trkpt lat="47.40012" lon="-0.90853">
        <ele>9</ele>
        <time>2013-08-28T10:00:35Z</time>
      </trkpt>
      <trkpt lat="47.40013" lon="-0.9083">
        <ele>9</ele>
        <time>2013-08-28T10:00:41Z</time>
      </trkpt>
      <trkpt lat="47.40014" lon="-0.90775">
        <ele>9</ele>
        <time>2013-08-28T10:00:42Z</time>
      </trkpt>
      <trkpt lat="47.40014" lon="-0.90764">
        <ele>9</ele>
        <time>2013-08-28T10:00:43Z</time>
      </trkpt>
      <trkpt lat="47.40015" lon="-0.90741">
        <ele>9</ele>
        <time>2013-08-28T10:00:49Z</time>
      </trkpt>
      <trkpt lat="47.40016" lon="-0.90685">
        <ele>9</ele>
        <time>2013-08-28T10:00:50Z</time>
      </trkpt>
      <trkpt lat="47.40017" lon="-0.90675">
        <ele>9</ele>
        <time>2013-08-28T10:00:51Z</time>
      </trkpt>
      <trkpt lat="47.40017" lon="-0.90609">
        <ele>9</ele>
        <time>2013-08-28T10:00:57Z</time>
      </trkpt>
      <trkpt lat="47.40016" lon="-0.90598">
        <ele>9</ele>
        <time>2013-08-28T10:00:58Z</time>
      </trkpt>
      <trkpt lat="47.40016" lon="-0.90575">
        <ele>9</ele>
        <time>2013-08-28T10:01:05Z</time>
      </trkpt>
      <trkpt lat="47.40014" lon="-0.9052">
        <ele>9</ele>
        <time>2013-08-28T10:01:05Z</time>
      </trkpt>
      <trkpt lat="47.40013" lon="-0.90509">
        <ele>9</ele>
        <time>2013-08-28T10:01:06Z</time>
      </trkpt>
      <trkpt lat="47.40011" lon="-0.90487">
        <ele>9</ele>
        <time>2013-08-28T10:01:12Z</time>
      </trkpt>
      <trkpt lat="47.40003" lon="-0.90435">
        <ele>9</ele>
        <time>2013-08-28T10:01:13Z</time>
      </trkpt>
      <trkpt lat="47.40001" lon="-0.90425">
        <ele>9</ele>
        <time>2013-08-28T10:01:14Z</time>
      </trkpt>
      <trkpt lat="47.39996" lon="-0.90402">
        <ele>9</ele>
        <time>2013-08-28T10:01:20Z</time>
      </trkpt>
      <trkpt lat="47.39982" lon="-0.9035">
        <ele>9</ele>
        <time>2013-08-28T10:01:21Z</time>
      </trkpt>
      <trkpt lat="47.39979" lon="-0.9034">
        <ele>9</ele>
        <time>2013-08-28T10:01:22Z</time>
      </trkpt>
      <trkpt lat="47.3996" lon="-0.9028">
        <ele>9</ele>
        <time>2013-08-28T10:01:28Z</time>
      </trkpt>
      <trkpt lat="47.39957" lon="-0.9027">
        <ele>9</ele>
        <time>2013-08-28T10:01:29Z</time>
      </trkpt>
      <trkpt lat="47.3995" lon="-0.9025">
        <ele>9</ele>
        <time>2013-08-28T10:01:36Z</time>
      </trkpt>
      <trkpt lat="47.39935" lon="-0.90201">
        <ele>9</ele>
        <time>2013-08-28T10:01:36Z</time>
      </trkpt>
      <trkpt lat="47.39932" lon="-0.90192">
        <ele>9</ele>
        <time>2013-08-28T10:01:37Z</time>
      </trkpt>
      <trkpt lat="47.39925" lon="-0.90171">
        <ele>9</ele>
        <time>2013-08-28T10:01:43Z</time>
      </trkpt>
      <trkpt lat="47.39909" lon="-0.90122">
        <ele>8</ele>
        <time>2013-08-28T10:01:44Z</time>
      </trkpt>
      <trkpt lat="47.39906" lon="-0.90112">
        <ele>7</ele>
        <time>2013-08-28T10:01:45Z</time>
      </trkpt>
      <trkpt lat="47.39899" lon="-0.90092">
        <ele>6</ele>
        <time>2013-08-28T10:01:51Z</time>
      </trkpt>
      <trkpt lat="47.3988" lon="-0.90042">
        <ele>6</ele>
        <time>2013-08-28T10:01:52Z</time>
      </trkpt>
      <trkpt lat="47.39876" lon="-0.90032">
        <ele>5</ele>
        <time>2013-08-28T10:01:53Z</time>
      </trkpt>
      <trkpt lat="47.39855" lon="-0.89969">
        <ele>5</ele>
        <time>2013-08-28T10:01:59Z</time>
      </trkpt>
      <trkpt lat="47.39851" lon="-0.89959">
        <ele>5</ele>
        <time>2013-08-28T10:02:00Z</time>
      </trkpt>
      <trkpt lat="47.39845" lon="-0.89938">
        <ele>5</ele>
        <time>2013-08-28T10:02:07Z</time>
      </trkpt>
      <trkpt lat="47.39827" lon="-0.89886">
        <ele>5</ele>
        <time>2013-08-28T10:02:07Z</time>
      </trkpt>
      <trkpt lat="47.39824" lon="-0.89876">
        <ele>5</ele>
        <time>2013-08-28T10:02:08Z</time>
      </trkpt>
      <trkpt lat="47.39816" lon="-0.89855">
        <ele>5</ele>
        <time>2013-08-28T10:02:14Z</time>
      </trkpt>
      <trkpt lat="47.39796" lon="-0.898">
        <ele>5</ele>
        <time>2013-08-28T10:02:15Z</time>
      </trkpt>
      <trkpt lat="47.39793" lon="-0.8979">
        <ele>5</ele>
        <time>2013-08-28T10:02:16Z</time>
      </trkpt>
      <trkpt lat="47.39785" lon="-0.89769">
        <ele>5</ele>
        <time>2013-08-28T10:02:22Z</time>
      </trkpt>
      <trkpt lat="47.39768" lon="-0.89718">
        <ele>5</ele>
        <time>2013-08-28T10:02:23Z</time>
      </trkpt>
      <trkpt lat="47.39765" lon="-0.89707">
        <ele>5</ele>
        <time>2013-08-28T10:02:24Z</time>
      </trkpt>
      <trkpt lat="47.39744" lon="-0.89645">
        <ele>5</ele>
        <time>2013-08-28T10:02:30Z</time>
      </trkpt>
      <trkpt lat="47.3974" lon="-0.89635">
        <ele>5</ele>
        <time>2013-08-28T10:02:31Z</time>
      </trkpt>
      <trkpt lat="47.39733" lon="-0.89613">
        <ele>5</ele>
        <time>2013-08-28T10:02:38Z</time>
      </trkpt>
      <trkpt lat="47.39716" lon="-0.8956">
        <ele>5</ele>
        <time>2013-08-28T10:02:38Z</time>
      </trkpt>
      <trkpt lat="47.39711" lon="-0.89548">
        <ele>5</ele>
        <time>2013-08-28T10:02:39Z</time>
      </trkpt>
      <trkpt lat="47.39703" lon="-0.89527">
        <ele>4</ele>
        <time>2013-08-28T10:02:45Z</time>
      </trkpt>
      <trkpt lat="47.39684" lon="-0.89475">
        <ele>4</ele>
        <time>2013-08-28T10:02:46Z</time>
      </trkpt>
      <trkpt lat="47.39681" lon="-0.89465">
        <ele>4</ele>
        <time>2013-08-28T10:02:47Z</time>
      </trkpt>
      <trkpt lat="47.39674" lon="-0.89445">
        <ele>4</ele>
        <time>2013-08-28T10:02:53Z</time>
      </trkpt>
      <trkpt lat="47.39658" lon="-0.89393">
        <ele>4</ele>
        <time>2013-08-28T10:02:54Z</time>
      </trkpt>
      <trkpt lat="47.39655" lon="-0.89383">
        <ele>4</ele>
        <time>2013-08-28T10:02:55Z</time>
      </trkpt>
      <trkpt lat="47.39638" lon="-0.89314">
        <ele>4</ele>
        <time>2013-08-28T10:03:01Z</time>
      </trkpt>
      <trkpt lat="47.39635" lon="-0.89302">
        <ele>4</ele>
        <time>2013-08-28T10:03:02Z</time>
      </trkpt>
      <trkpt lat="47.39632" lon="-0.89279">
        <ele>4</ele>
        <time>2013-08-28T10:03:09Z</time>
      </trkpt>
      <trkpt lat="47.39625" lon="-0.89222">
        <ele>4</ele>
        <time>2013-08-28T10:03:09Z</time>
      </trkpt>
      <trkpt lat="47.39624" lon="-0.8921">
        <ele>4</ele>
        <time>2013-08-28T10:03:10Z</time>
      </trkpt>
      <trkpt lat="47.39622" lon="-0.89187">
        <ele>6</ele>
        <time>2013-08-28T10:03:16Z</time>
      </trkpt>
      <trkpt lat="47.39617" lon="-0.89127">
        <ele>7</ele>
        <time>2013-08-28T10:03:17Z</time>
      </trkpt>
      <trkpt lat="47.39616" lon="-0.89116">
        <ele>8</ele>
        <time>2013-08-28T10:03:18Z</time>
      </trkpt>
      <trkpt lat="47.39615" lon="-0.89093">
        <ele>8</ele>
        <time>2013-08-28T10:03:24Z</time>
      </trkpt>
      <trkpt lat="47.39612" lon="-0.89034">
        <ele>8</ele>
        <time>2013-08-28T10:03:25Z</time>
      </trkpt>
      <trkpt lat="47.39611" lon="-0.89023">
        <ele>9</ele>
        <time>2013-08-28T10:03:26Z</time>
      </trkpt>
      <trkpt lat="47.39607" lon="-0.88954">
        <ele>9</ele>
        <time>2013-08-28T10:03:32Z</time>
      </trkpt>
      <trkpt lat="47.39606" lon="-0.88942">
        <ele>9</ele>
        <time>2013-08-28T10:03:33Z</time>
      </trkpt>
      <trkpt lat="47.39604" lon="-0.88919">
        <ele>9</ele>
        <time>2013-08-28T10:03:40Z</time>
      </trkpt>
      <trkpt lat="47.39595" lon="-0.8886">
        <ele>9</ele>
        <time>2013-08-28T10:03:40Z</time>
      </trkpt>
      <trkpt lat="47.39593" lon="-0.88849">
        <ele>9</ele>
        <time>2013-08-28T10:03:41Z</time>
      </trkpt>
      <trkpt lat="47.39588" lon="-0.88827">
        <ele>9</ele>
        <time>2013-08-28T10:03:47Z</time>
      </trkpt>
      <trkpt lat="47.39571" lon="-0.88774">
        <ele>9</ele>
        <time>2013-08-28T10:03:48Z</time>
      </trkpt>
      <trkpt lat="47.39568" lon="-0.88763">
        <ele>9</ele>
        <time>2013-08-28T10:03:49Z</time>
      </trkpt>
      <trkpt lat="47.39561" lon="-0.88743">
        <ele>9</ele>
        <time>2013-08-28T10:03:55Z</time>
      </trkpt>
      <trkpt lat="47.39544" lon="-0.88691">
        <ele>9</ele>
        <time>2013-08-28T10:03:56Z</time>
      </trkpt>
      <trkpt lat="47.3954" lon="-0.88681">
        <ele>9</ele>
        <time>2013-08-28T10:03:57Z</time>
      </trkpt>
      <trkpt lat="47.39516" lon="-0.8862">
        <ele>9</ele>
        <time>2013-08-28T10:04:03Z</time>
      </trkpt>
      <trkpt lat="47.39513" lon="-0.8861">
        <ele>8</ele>
        <time>2013-08-28T10:04:04Z</time>
      </trkpt>
      <trkpt lat="47.39506" lon="-0.8859">
        <ele>7</ele>
        <time>2013-08-28T10:04:09Z</time>
      </trkpt>
      <trkpt lat="47.39489" lon="-0.88548">
        <ele>7</ele>
        <time>2013-08-28T10:04:10Z</time>
      </trkpt>
      <trkpt lat="47.39486" lon="-0.88538">
        <ele>6</ele>
        <time>2013-08-28T10:04:11Z</time>
      </trkpt>
      <trkpt lat="47.39479" lon="-0.88518">
        <ele>5</ele>
        <time>2013-08-28T10:04:16Z</time>
      </trkpt>
      <trkpt lat="47.39469" lon="-0.88488">
        <ele>5</ele>
        <time>2013-08-28T10:04:16Z</time>
      </trkpt>
      <trkpt lat="47.39465" lon="-0.88477">
        <ele>5</ele>
        <time>2013-08-28T10:04:17Z</time>
      </trkpt>
      <trkpt lat="47.39459" lon="-0.88456">
        <ele>5</ele>
        <time>2013-08-28T10:04:22Z</time>
      </trkpt>
      <trkpt lat="47.39449" lon="-0.88411">
        <ele>5</ele>
        <time>2013-08-28T10:04:23Z</time>
      </trkpt>
      <trkpt lat="47.39446" lon="-0.88399">
        <ele>5</ele>
        <time>2013-08-28T10:04:24Z</time>
      </trkpt>
      <trkpt lat="47.39442" lon="-0.88376">
        <ele>5</ele>
        <time>2013-08-28T10:04:29Z</time>
      </trkpt>
      <trkpt lat="47.39438" lon="-0.88342">
        <ele>5</ele>
        <time>2013-08-28T10:04:29Z</time>
      </trkpt>
      <trkpt lat="47.39436" lon="-0.88331">
        <ele>5</ele>
        <time>2013-08-28T10:04:30Z</time>
      </trkpt>
      <trkpt lat="47.39428" lon="-0.88275">
        <ele>5</ele>
        <time>2013-08-28T10:04:35Z</time>
      </trkpt>
      <trkpt lat="47.39427" lon="-0.88263">
        <ele>5</ele>
        <time>2013-08-28T10:04:36Z</time>
      </trkpt>
      <trkpt lat="47.39426" lon="-0.88251">
        <ele>5</ele>
        <time>2013-08-28T10:04:37Z</time>
      </trkpt>
      <trkpt lat="47.39423" lon="-0.88229">
        <ele>5</ele>
        <time>2013-08-28T10:04:42Z</time>
      </trkpt>
      <trkpt lat="47.39418" lon="-0.88196">
        <ele>5</ele>
        <time>2013-08-28T10:04:42Z</time>
      </trkpt>
      <trkpt lat="47.39417" lon="-0.88185">
        <ele>5</ele>
        <time>2013-08-28T10:04:43Z</time>
      </trkpt>
      <trkpt lat="47.39408" lon="-0.8813">
        <ele>5</ele>
        <time>2013-08-28T10:04:48Z</time>
      </trkpt>
      <trkpt lat="47.39405" lon="-0.88119">
        <ele>5</ele>
        <time>2013-08-28T10:04:49Z</time>
      </trkpt>
      <trkpt lat="47.39402" lon="-0.88108">
        <ele>5</ele>
        <time>2013-08-28T10:04:50Z</time>
      </trkpt>
      <trkpt lat="47.39397" lon="-0.88086">
        <ele>5</ele>
        <time>2013-08-28T10:04:55Z</time>
      </trkpt>
      <trkpt lat="47.39389" lon="-0.88054">
        <ele>5</ele>
        <time>2013-08-28T10:04:55Z</time>
      </trkpt>
      <trkpt lat="47.39386" lon="-0.88043">
        <ele>5</ele>
        <time>2013-08-28T10:04:56Z</time>
      </trkpt>
      <trkpt lat="47.39372" lon="-0.87989">
        <ele>5</ele>
        <time>2013-08-28T10:05:01Z</time>
      </trkpt>
      <trkpt lat="47.39369" lon="-0.87979">
        <ele>5</ele>
        <time>2013-08-28T10:05:02Z</time>
      </trkpt>
      <trkpt lat="47.39366" lon="-0.87968">
        <ele>5</ele>
        <time>2013-08-28T10:05:03Z</time>
      </trkpt>
      <trkpt lat="47.3936" lon="-0.87946">
        <ele>5</ele>
        <time>2013-08-28T10:05:08Z</time>
      </trkpt>
      <trkpt lat="47.39352" lon="-0.87914">
        <ele>5</ele>
        <time>2013-08-28T10:05:08Z</time>
      </trkpt>
      <trkpt lat="47.39349" lon="-0.87903">
        <ele>5</ele>
        <time>2013-08-28T10:05:09Z</time>
      </trkpt>
      <trkpt lat="47.39343" lon="-0.87881">
        <ele>5</ele>
        <time>2013-08-28T10:05:14Z</time>
      </trkpt>
      <trkpt lat="47.39331" lon="-0.87839">
        <ele>5</ele>
        <time>2013-08-28T10:05:15Z</time>
      </trkpt>
      <trkpt lat="47.39328" lon="-0.87828">
        <ele>5</ele>
        <time>2013-08-28T10:05:16Z</time>
      </trkpt>
      <trkpt lat="47.39321" lon="-0.87805">
        <ele>5</ele>
        <time>2013-08-28T10:05:21Z</time>
      </trkpt>
      <trkpt lat="47.39312" lon="-0.87772">
        <ele>5</ele>
        <time>2013-08-28T10:05:21Z</time>
      </trkpt>
      <trkpt lat="47.39309" lon="-0.87761">
        <ele>5</ele>
        <time>2013-08-28T10:05:22Z</time>
      </trkpt>
      <trkpt lat="47.39303" lon="-0.8774">
        <ele>5</ele>
        <time>2013-08-28T10:05:27Z</time>
      </trkpt>
      <trkpt lat="47.39291" lon="-0.87697">
        <ele>5</ele>
        <time>2013-08-28T10:05:28Z</time>
      </trkpt>
      <trkpt lat="47.39289" lon="-0.87687">
        <ele>5</ele>
        <time>2013-08-28T10:05:29Z</time>
      </trkpt>
      <trkpt lat="47.39283" lon="-0.87666">
        <ele>5</ele>
        <time>2013-08-28T10:05:34Z</time>
      </trkpt>
      <trkpt lat="47.39275" lon="-0.87633">
        <ele>5</ele>
        <time>2013-08-28T10:05:34Z</time>
      </trkpt>
      <trkpt lat="47.39272" lon="-0.87621">
        <ele>5</ele>
        <time>2013-08-28T10:05:35Z</time>
      </trkpt>
      <trkpt lat="47.39266" lon="-0.87599">
        <ele>5</ele>
        <time>2013-08-28T10:05:40Z</time>
      </trkpt>
      <trkpt lat="47.39254" lon="-0.87555">
        <ele>5</ele>
        <time>2013-08-28T10:05:41Z</time>
      </trkpt>
      <trkpt lat="47.39251" lon="-0.87544">
        <ele>5</ele>
        <time>2013-08-28T10:05:42Z</time>
      </trkpt>
      <trkpt lat="47.39246" lon="-0.87522">
        <ele>5</ele>
        <time>2013-08-28T10:05:47Z</time>
      </trkpt>
      <trkpt lat="47.39239" lon="-0.87489">
        <ele>5</ele>
        <time>2013-08-28T10:05:47Z</time>
      </trkpt>
      <trkpt lat="47.39237" lon="-0.87478">
        <ele>5</ele>
        <time>2013-08-28T10:05:48Z</time>
      </trkpt>
      <trkpt lat="47.39233" lon="-0.87455">
        <ele>5</ele>
        <time>2013-08-28T10:05:53Z</time>
      </trkpt>
      <trkpt lat="47.39229" lon="-0.87409">
        <ele>5</ele>
        <time>2013-08-28T10:05:54Z</time>
      </trkpt>
      <trkpt lat="47.39228" lon="-0.87397">
        <ele>5</ele>
        <time>2013-08-28T10:05:55Z</time>
      </trkpt>
      <trkpt lat="47.39228" lon="-0.87374">
        <ele>5</ele>
        <time>2013-08-28T10:06:00Z</time>
      </trkpt>
      <trkpt lat="47.39227" lon="-0.87338">
        <ele>6</ele>
        <time>2013-08-28T10:06:00Z</time>
      </trkpt>
      <trkpt lat="47.39226" lon="-0.87326">
        <ele>6</ele>
        <time>2013-08-28T10:06:01Z</time>
      </trkpt>
      <trkpt lat="47.39225" lon="-0.87303">
        <ele>7</ele>
        <time>2013-08-28T10:06:06Z</time>
      </trkpt>
      <trkpt lat="47.39224" lon="-0.87256">
        <ele>7</ele>
        <time>2013-08-28T10:06:07Z</time>
      </trkpt>
      <trkpt lat="47.39224" lon="-0.87244">
        <ele>7</ele>
        <time>2013-08-28T10:06:08Z</time>
      </trkpt>
      <trkpt lat="47.39222" lon="-0.8722">
        <ele>7</ele>
        <time>2013-08-28T10:06:13Z</time>
      </trkpt>
      <trkpt lat="47.39221" lon="-0.87186">
        <ele>7</ele>
        <time>2013-08-28T10:06:13Z</time>
      </trkpt>
      <trkpt lat="47.3922" lon="-0.87174">
        <ele>7</ele>
        <time>2013-08-28T10:06:14Z</time>
      </trkpt>
      <trkpt lat="47.39219" lon="-0.87151">
        <ele>8</ele>
        <time>2013-08-28T10:06:19Z</time>
      </trkpt>
      <trkpt lat="47.39217" lon="-0.87105">
        <ele>8</ele>
        <time>2013-08-28T10:06:20Z</time>
      </trkpt>
      <trkpt lat="47.39217" lon="-0.87094">
        <ele>9</ele>
        <time>2013-08-28T10:06:21Z</time>
      </trkpt>
      <trkpt lat="47.39216" lon="-0.8707">
        <ele>10</ele>
        <time>2013-08-28T10:06:26Z</time>
      </trkpt>
      <trkpt lat="47.39215" lon="-0.87035">
        <ele>10</ele>
        <time>2013-08-28T10:06:26Z</time>
      </trkpt>
      <trkpt lat="47.39215" lon="-0.87023">
        <ele>11</ele>
        <time>2013-08-28T10:06:27Z</time>
      </trkpt>
      <trkpt lat="47.39215" lon="-0.86999">
        <ele>11</ele>
        <time>2013-08-28T10:06:32Z</time>
      </trkpt>
      <trkpt lat="47.39212" lon="-0.86952">
        <ele>11</ele>
        <time>2013-08-28T10:06:33Z</time>
      </trkpt>
      <trkpt lat="47.39211" lon="-0.8694">
        <ele>11</ele>
        <time>2013-08-28T10:06:34Z</time>
      </trkpt>
      <trkpt lat="47.3921" lon="-0.86917">
        <ele>11</ele>
        <time>2013-08-28T10:06:39Z</time>
      </trkpt>
      <trkpt lat="47.39209" lon="-0.86882">
        <ele>11</ele>
        <time>2013-08-28T10:06:39Z</time>
      </trkpt>
      <trkpt lat="47.39209" lon="-0.8687">
        <ele>11</ele>
        <time>2013-08-28T10:06:40Z</time>
      </trkpt>
      <trkpt lat="47.39208" lon="-0.86847">
        <ele>12</ele>
        <time>2013-08-28T10:06:45Z</time>
      </trkpt>
      <trkpt lat="47.39207" lon="-0.868">
        <ele>12</ele>
        <time>2013-08-28T10:06:46Z</time>
      </trkpt>
      <trkpt lat="47.39206" lon="-0.86788">
        <ele>12</ele>
        <time>2013-08-28T10:06:47Z</time>
      </trkpt>
      <trkpt lat="47.39205" lon="-0.86765">
        <ele>13</ele>
        <time>2013-08-28T10:06:52Z</time>
      </trkpt>
      <trkpt lat="47.39204" lon="-0.86729">
        <ele>13</ele>
        <time>2013-08-28T10:06:52Z</time>
      </trkpt>
      <trkpt lat="47.39204" lon="-0.86718">
        <ele>13</ele>
        <time>2013-08-28T10:06:53Z</time>
      </trkpt>
      <trkpt lat="47.39204" lon="-0.86694">
        <ele>13</ele>
        <time>2013-08-28T10:06:58Z</time>
      </trkpt>
      <trkpt lat="47.39206" lon="-0.86646">
        <ele>13</ele>
        <time>2013-08-28T10:06:59Z</time>
      </trkpt>
      <trkpt lat="47.39207" lon="-0.86634">
        <ele>13</ele>
        <time>2013-08-28T10:07:00Z</time>
      </trkpt>
      <trkpt lat="47.39209" lon="-0.86611">
        <ele>13</ele>
        <time>2013-08-28T10:07:05Z</time>
      </trkpt>
      <trkpt lat="47.39212" lon="-0.86578">
        <ele>13</ele>
        <time>2013-08-28T10:07:05Z</time>
      </trkpt>
      <trkpt lat="47.39212" lon="-0.86567">
        <ele>13</ele>
        <time>2013-08-28T10:07:06Z</time>
      </trkpt>
      <trkpt lat="47.39214" lon="-0.86544">
        <ele>13</ele>
        <time>2013-08-28T10:07:11Z</time>
      </trkpt>
      <trkpt lat="47.39215" lon="-0.86499">
        <ele>13</ele>
        <time>2013-08-28T10:07:12Z</time>
      </trkpt>
      <trkpt lat="47.39216" lon="-0.86488">
        <ele>13</ele>
        <time>2013-08-28T10:07:13Z</time>
      </trkpt>
      <trkpt lat="47.39217" lon="-0.86467">
        <ele>13</ele>
        <time>2013-08-28T10:07:18Z</time>
      </trkpt>
      <trkpt lat="47.39219" lon="-0.86435">
        <ele>13</ele>
        <time>2013-08-28T10:07:18Z</time>
      </trkpt>
      <trkpt lat="47.39219" lon="-0.86424">
        <ele>13</ele>
        <time>2013-08-28T10:07:19Z</time>
      </trkpt>
      <trkpt lat="47.39221" lon="-0.86404">
        <ele>13</ele>
        <time>2013-08-28T10:07:24Z</time>
      </trkpt>
      <trkpt lat="47.39224" lon="-0.86366">
        <ele>13</ele>
        <time>2013-08-28T10:07:25Z</time>
      </trkpt>
      <trkpt lat="47.39224" lon="-0.86357">
        <ele>13</ele>
        <time>2013-08-28T10:07:26Z</time>
      </trkpt>
      <trkpt lat="47.39225" lon="-0.86339">
        <ele>13</ele>
        <time>2013-08-28T10:07:31Z</time>
      </trkpt>
      <trkpt lat="47.39227" lon="-0.86311">
        <ele>13</ele>
        <time>2013-08-28T10:07:31Z</time>
      </trkpt>
      <trkpt lat="47.39228" lon="-0.86302">
        <ele>13</ele>
        <time>2013-08-28T10:07:32Z</time>
      </trkpt>
      <trkpt lat="47.39229" lon="-0.86286">
        <ele>13</ele>
        <time>2013-08-28T10:07:37Z</time>
      </trkpt>
      <trkpt lat="47.3923" lon="-0.8625">
        <ele>13</ele>
        <time>2013-08-28T10:07:38Z</time>
      </trkpt>
      <trkpt lat="47.39229" lon="-0.86241">
        <ele>13</ele>
        <time>2013-08-28T10:07:39Z</time>
      </trkpt>
      <trkpt lat="47.39228" lon="-0.86222">
        <ele>13</ele>
        <time>2013-08-28T10:07:44Z</time>
      </trkpt>
      <trkpt lat="47.39224" lon="-0.86197">
        <ele>13</ele>
        <time>2013-08-28T10:07:44Z</time>
      </trkpt>
      <trkpt lat="47.39222" lon="-0.86189">
        <ele>13</ele>
        <time>2013-08-28T10:07:45Z</time>
      </trkpt>
      <trkpt lat="47.39219" lon="-0.86182">
        <ele>13</ele>
        <time>2013-08-28T10:07:46Z</time>
      </trkpt>
      <trkpt lat="47.39207" lon="-0.86149">
        <ele>12</ele>
        <time>2013-08-28T10:07:51Z</time>
      </trkpt>
      <trkpt lat="47.39206" lon="-0.86143">
        <ele>11</ele>
        <time>2013-08-28T10:07:52Z</time>
      </trkpt>
      <trkpt lat="47.39204" lon="-0.86138">
        <ele>11</ele>
        <time>2013-08-28T10:07:53Z</time>
      </trkpt>
      <trkpt lat="47.39198" lon="-0.86129">
        <ele>11</ele>
        <time>2013-08-28T10:07:58Z</time>
      </trkpt>
      <trkpt lat="47.39195" lon="-0.86119">
        <ele>11</ele>
        <time>2013-08-28T10:07:58Z</time>
      </trkpt>
      <trkpt lat="47.39196" lon="-0.86119">
        <ele>8</ele>
        <time>2013-08-28T10:08:06Z</time>
      </trkpt>
      <trkpt lat="47.39195" lon="-0.86118">
        <ele>8</ele>
        <time>2013-08-28T10:08:07Z</time>
      </trkpt>
      <trkpt lat="47.39196" lon="-0.86119">
        <ele>8</ele>
        <time>2013-08-28T10:08:09Z</time>
      </trkpt>
      <trkpt lat="47.39195" lon="-0.86119">
        <ele>8</ele>
        <time>2013-08-28T10:08:10Z</time>
      </trkpt>
      <trkpt lat="47.39197" lon="-0.86117">
        <ele>8</ele>
        <time>2013-08-28T10:08:16Z</time>
      </trkpt>
      <trkpt lat="47.39199" lon="-0.86117">
        <ele>8</ele>
        <time>2013-08-28T10:08:24Z</time>
      </trkpt>
      <trkpt lat="47.39195" lon="-0.86113">
        <ele>7</ele>
        <time>2013-08-28T10:08:33Z</time>
      </trkpt>
      <trkpt lat="47.39194" lon="-0.8611">
        <ele>7</ele>
        <time>2013-08-28T10:08:33Z</time>
      </trkpt>
      <trkpt lat="47.39193" lon="-0.86107">
        <ele>7</ele>
        <time>2013-08-28T10:08:34Z</time>
      </trkpt>
      <trkpt lat="47.39191" lon="-0.861">
        <ele>7</ele>
        <time>2013-08-28T10:08:39Z</time>
      </trkpt>
      <trkpt lat="47.39185" lon="-0.8608">
        <ele>8</ele>
        <time>2013-08-28T10:08:41Z</time>
      </trkpt>
      <trkpt lat="47.39182" lon="-0.86075">
        <ele>9</ele>
        <time>2013-08-28T10:08:41Z</time>
      </trkpt>
      <trkpt lat="47.39178" lon="-0.86068">
        <ele>10</ele>
        <time>2013-08-28T10:08:46Z</time>
      </trkpt>
      <trkpt lat="47.39173" lon="-0.86062">
        <ele>11</ele>
        <time>2013-08-28T10:08:47Z</time>
      </trkpt>
      <trkpt lat="47.3917" lon="-0.86062">
        <ele>12</ele>
        <time>2013-08-28T10:08:49Z</time>
      </trkpt>
      <trkpt lat="47.39172" lon="-0.86068">
        <ele>11</ele>
        <time>2013-08-28T10:08:55Z</time>
      </trkpt>
      <trkpt lat="47.39173" lon="-0.86069">
        <ele>8</ele>
        <time>2013-08-28T10:09:02Z</time>
      </trkpt>
      <trkpt lat="47.39171" lon="-0.86069">
        <ele>7</ele>
        <time>2013-08-28T10:09:03Z</time>
      </trkpt>
      <trkpt lat="47.39172" lon="-0.86071">
        <ele>4</ele>
        <time>2013-08-28T10:09:10Z</time>
      </trkpt>
      <trkpt lat="47.39168" lon="-0.86067">
        <ele>3</ele>
        <time>2013-08-28T10:09:11Z</time>
      </trkpt>
      <trkpt lat="47.39171" lon="-0.86066">
        <ele>15.6</ele>
        <time>2013-08-28T10:09:18Z</time>
      </trkpt>
      <trkpt lat="47.39173" lon="-0.86069">
        <ele>15.5</ele>
        <time>2013-08-28T10:09:19Z</time>
      </trkpt>
      <trkpt lat="47.39168" lon="-0.86066">
        <ele>-2</ele>
        <time>2013-08-28T10:09:35Z</time>
      </trkpt>
      <trkpt lat="47.39167" lon="-0.86067">
        <ele>16</ele>
        <time>2013-08-28T10:09:43Z</time>
      </trkpt>
      <trkpt lat="47.39163" lon="-0.86062">
        <ele>1</ele>
        <time>2013-08-28T10:09:44Z</time>
      </trkpt>
      <trkpt lat="47.39163" lon="-0.8606">
        <ele>2</ele>
        <time>2013-08-28T10:09:44Z</time>
      </trkpt>
      <trkpt lat="47.39163" lon="-0.86059">
        <ele>6</ele>
        <time>2013-08-28T10:09:51Z</time>
      </trkpt>
      <trkpt lat="47.39164" lon="-0.86057">
        <ele>6</ele>
        <time>2013-08-28T10:09:59Z</time>
      </trkpt>
      <trkpt lat="47.39165" lon="-0.86055">
        <ele>6</ele>
        <time>2013-08-28T10:10:07Z</time>
      </trkpt>
      <trkpt lat="47.39164" lon="-0.86053">
        <ele>6</ele>
        <time>2013-08-28T10:10:09Z</time>
      </trkpt>
      <trkpt lat="47.39165" lon="-0.86051">
        <ele>6</ele>
        <time>2013-08-28T10:10:10Z</time>
      </trkpt>
      <trkpt lat="47.39165" lon="-0.86047">
        <ele>6</ele>
        <time>2013-08-28T10:10:16Z</time>
      </trkpt>
      <trkpt lat="47.39162" lon="-0.86039">
        <ele>6</ele>
        <time>2013-08-28T10:10:16Z</time>
      </trkpt>
      <trkpt lat="47.39161" lon="-0.86035">
        <ele>6</ele>
        <time>2013-08-28T10:10:17Z</time>
      </trkpt>
      <trkpt lat="47.39159" lon="-0.86031">
        <ele>6</ele>
        <time>2013-08-28T10:10:19Z</time>
      </trkpt>
      <trkpt lat="47.39155" lon="-0.86023">
        <ele>6</ele>
        <time>2013-08-28T10:10:23Z</time>
      </trkpt>
      <trkpt lat="47.39143" lon="-0.86006">
        <ele>6</ele>
        <time>2013-08-28T10:10:24Z</time>
      </trkpt>
      <trkpt lat="47.39139" lon="-0.86001">
        <ele>6</ele>
        <time>2013-08-28T10:10:25Z</time>
      </trkpt>
      <trkpt lat="47.39135" lon="-0.85997">
        <ele>6</ele>
        <time>2013-08-28T10:10:26Z</time>
      </trkpt>
      <trkpt lat="47.39115" lon="-0.85979">
        <ele>6</ele>
        <time>2013-08-28T10:10:31Z</time>
      </trkpt>
      <trkpt lat="47.39111" lon="-0.85975">
        <ele>6</ele>
        <time>2013-08-28T10:10:32Z</time>
      </trkpt>
      <trkpt lat="47.39107" lon="-0.85971">
        <ele>6</ele>
        <time>2013-08-28T10:10:33Z</time>
      </trkpt>
      <trkpt lat="47.391" lon="-0.85962">
        <ele>6</ele>
        <time>2013-08-28T10:10:38Z</time>
      </trkpt>
      <trkpt lat="47.39088" lon="-0.85954">
        <ele>6</ele>
        <time>2013-08-28T10:10:38Z</time>
      </trkpt>
      <trkpt lat="47.39083" lon="-0.8595">
        <ele>6</ele>
        <time>2013-08-28T10:10:40Z</time>
      </trkpt>
      <trkpt lat="47.39074" lon="-0.8594">
        <ele>6</ele>
        <time>2013-08-28T10:10:44Z</time>
      </trkpt>
      <trkpt lat="47.39058" lon="-0.85923">
        <ele>6</ele>
        <time>2013-08-28T10:10:45Z</time>
      </trkpt>
      <trkpt lat="47.39053" lon="-0.85918">
        <ele>6</ele>
        <time>2013-08-28T10:10:46Z</time>
      </trkpt>
      <trkpt lat="47.39042" lon="-0.85908">
        <ele>6</ele>
        <time>2013-08-28T10:10:51Z</time>
      </trkpt>
      <trkpt lat="47.39026" lon="-0.85896">
        <ele>6</ele>
        <time>2013-08-28T10:10:51Z</time>
      </trkpt>
      <trkpt lat="47.39021" lon="-0.8589">
        <ele>6</ele>
        <time>2013-08-28T10:10:52Z</time>
      </trkpt>
      <trkpt lat="47.39011" lon="-0.85879">
        <ele>6</ele>
        <time>2013-08-28T10:10:57Z</time>
      </trkpt>
      <trkpt lat="47.38995" lon="-0.85851">
        <ele>6</ele>
        <time>2013-08-28T10:10:58Z</time>
      </trkpt>
      <trkpt lat="47.38991" lon="-0.85844">
        <ele>6</ele>
        <time>2013-08-28T10:10:59Z</time>
      </trkpt>
      <trkpt lat="47.38982" lon="-0.85829">
        <ele>6</ele>
        <time>2013-08-28T10:11:04Z</time>
      </trkpt>
      <trkpt lat="47.3897" lon="-0.85805">
        <ele>6</ele>
        <time>2013-08-28T10:11:04Z</time>
      </trkpt>
      <trkpt lat="47.38967" lon="-0.85797">
        <ele>5</ele>
        <time>2013-08-28T10:11:05Z</time>
      </trkpt>
      <trkpt lat="47.38961" lon="-0.85781">
        <ele>5</ele>
        <time>2013-08-28T10:11:10Z</time>
      </trkpt>
      <trkpt lat="47.38953" lon="-0.85748">
        <ele>5</ele>
        <time>2013-08-28T10:11:11Z</time>
      </trkpt>
      <trkpt lat="47.38951" lon="-0.8574">
        <ele>5</ele>
        <time>2013-08-28T10:11:12Z</time>
      </trkpt>
      <trkpt lat="47.38946" lon="-0.85723">
        <ele>5</ele>
        <time>2013-08-28T10:11:17Z</time>
      </trkpt>
      <trkpt lat="47.38938" lon="-0.85699">
        <ele>5</ele>
        <time>2013-08-28T10:11:17Z</time>
      </trkpt>
      <trkpt lat="47.38935" lon="-0.85691">
        <ele>5</ele>
        <time>2013-08-28T10:11:18Z</time>
      </trkpt>
      <trkpt lat="47.3893" lon="-0.85676">
        <ele>4</ele>
        <time>2013-08-28T10:11:23Z</time>
      </trkpt>
      <trkpt lat="47.3892" lon="-0.85641">
        <ele>4</ele>
        <time>2013-08-28T10:11:24Z</time>
      </trkpt>
      <trkpt lat="47.38918" lon="-0.85632">
        <ele>4</ele>
        <time>2013-08-28T10:11:25Z</time>
      </trkpt>
      <trkpt lat="47.38911" lon="-0.85615">
        <ele>4</ele>
        <time>2013-08-28T10:11:30Z</time>
      </trkpt>
      <trkpt lat="47.38902" lon="-0.85589">
        <ele>4</ele>
        <time>2013-08-28T10:11:30Z</time>
      </trkpt>
      <trkpt lat="47.38898" lon="-0.8558">
        <ele>4</ele>
        <time>2013-08-28T10:11:31Z</time>
      </trkpt>
      <trkpt lat="47.38892" lon="-0.85563">
        <ele>4</ele>
        <time>2013-08-28T10:11:36Z</time>
      </trkpt>
      <trkpt lat="47.3888" lon="-0.85527">
        <ele>4</ele>
        <time>2013-08-28T10:11:37Z</time>
      </trkpt>
      <trkpt lat="47.38877" lon="-0.85518">
        <ele>4</ele>
        <time>2013-08-28T10:11:38Z</time>
      </trkpt>
      <trkpt lat="47.38872" lon="-0.85501">
        <ele>4</ele>
        <time>2013-08-28T10:11:43Z</time>
      </trkpt>
      <trkpt lat="47.38864" lon="-0.85474">
        <ele>4</ele>
        <time>2013-08-28T10:11:43Z</time>
      </trkpt>
      <trkpt lat="47.38861" lon="-0.85466">
        <ele>4</ele>
        <time>2013-08-28T10:11:44Z</time>
      </trkpt>
      <trkpt lat="47.38855" lon="-0.85448">
        <ele>4</ele>
        <time>2013-08-28T10:11:49Z</time>
      </trkpt>
      <trkpt lat="47.38844" lon="-0.85416">
        <ele>4</ele>
        <time>2013-08-28T10:11:50Z</time>
      </trkpt>
      <trkpt lat="47.38841" lon="-0.85408">
        <ele>4</ele>
        <time>2013-08-28T10:11:51Z</time>
      </trkpt>
      <trkpt lat="47.38825" lon="-0.85363">
        <ele>4</ele>
        <time>2013-08-28T10:11:56Z</time>
      </trkpt>
      <trkpt lat="47.38822" lon="-0.85354">
        <ele>4</ele>
        <time>2013-08-28T10:11:57Z</time>
      </trkpt>
      <trkpt lat="47.38816" lon="-0.85336">
        <ele>4</ele>
        <time>2013-08-28T10:12:02Z</time>
      </trkpt>
      <trkpt lat="47.38802" lon="-0.85299">
        <ele>4</ele>
        <time>2013-08-28T10:12:03Z</time>
      </trkpt>
      <trkpt lat="47.38799" lon="-0.8529">
        <ele>4</ele>
        <time>2013-08-28T10:12:04Z</time>
      </trkpt>
      <trkpt lat="47.38783" lon="-0.85246">
        <ele>4</ele>
        <time>2013-08-28T10:12:09Z</time>
      </trkpt>
      <trkpt lat="47.38779" lon="-0.85237">
        <ele>4</ele>
        <time>2013-08-28T10:12:10Z</time>
      </trkpt>
      <trkpt lat="47.3877" lon="-0.85219">
        <ele>5</ele>
        <time>2013-08-28T10:12:15Z</time>
      </trkpt>
      <trkpt lat="47.38754" lon="-0.85185">
        <ele>5</ele>
        <time>2013-08-28T10:12:16Z</time>
      </trkpt>
      <trkpt lat="47.38749" lon="-0.85178">
        <ele>5</ele>
        <time>2013-08-28T10:12:17Z</time>
      </trkpt>
      <trkpt lat="47.38728" lon="-0.85136">
        <ele>5</ele>
        <time>2013-08-28T10:12:22Z</time>
      </trkpt>
      <trkpt lat="47.38724" lon="-0.85128">
        <ele>5</ele>
        <time>2013-08-28T10:12:23Z</time>
      </trkpt>
      <trkpt lat="47.38715" lon="-0.85112">
        <ele>5</ele>
        <time>2013-08-28T10:12:28Z</time>
      </trkpt>
      <trkpt lat="47.38699" lon="-0.85084">
        <ele>5</ele>
        <time>2013-08-28T10:12:29Z</time>
      </trkpt>
      <trkpt lat="47.38696" lon="-0.85078">
        <ele>5</ele>
        <time>2013-08-28T10:12:30Z</time>
      </trkpt>
      <trkpt lat="47.3868" lon="-0.85049">
        <ele>5</ele>
        <time>2013-08-28T10:12:35Z</time>
      </trkpt>
      <trkpt lat="47.38679" lon="-0.85045">
        <ele>5</ele>
        <time>2013-08-28T10:12:36Z</time>
      </trkpt>
      <trkpt lat="47.38681" lon="-0.8504">
        <ele>6</ele>
        <time>2013-08-28T10:12:37Z</time>
      </trkpt>
      <trkpt lat="47.38683" lon="-0.85036">
        <ele>6</ele>
        <time>2013-08-28T10:12:38Z</time>
      </trkpt>
      <trkpt lat="47.38685" lon="-0.85032">
        <ele>6</ele>
        <time>2013-08-28T10:12:44Z</time>
      </trkpt>
      <trkpt lat="47.38692" lon="-0.8502">
        <ele>7</ele>
        <time>2013-08-28T10:12:44Z</time>
      </trkpt>
      <trkpt lat="47.38695" lon="-0.85017">
        <ele>8</ele>
        <time>2013-08-28T10:12:45Z</time>
      </trkpt>
      <trkpt lat="47.38698" lon="-0.85014">
        <ele>9</ele>
        <time>2013-08-28T10:12:46Z</time>
      </trkpt>
      <trkpt lat="47.38712" lon="-0.84995">
        <ele>9</ele>
        <time>2013-08-28T10:12:51Z</time>
      </trkpt>
      <trkpt lat="47.38716" lon="-0.8499">
        <ele>10</ele>
        <time>2013-08-28T10:12:52Z</time>
      </trkpt>
      <trkpt lat="47.38725" lon="-0.84981">
        <ele>10</ele>
        <time>2013-08-28T10:12:57Z</time>
      </trkpt>
      <trkpt lat="47.38741" lon="-0.84963">
        <ele>11</ele>
        <time>2013-08-28T10:12:58Z</time>
      </trkpt>
      <trkpt lat="47.38745" lon="-0.84958">
        <ele>12</ele>
        <time>2013-08-28T10:12:59Z</time>
      </trkpt>
      <trkpt lat="47.38774" lon="-0.84917">
        <ele>12</ele>
        <time>2013-08-28T10:13:04Z</time>
      </trkpt>
      <trkpt lat="47.3878" lon="-0.84909">
        <ele>12</ele>
        <time>2013-08-28T10:13:05Z</time>
      </trkpt>
      <trkpt lat="47.38786" lon="-0.84901">
        <ele>11</ele>
        <time>2013-08-28T10:13:06Z</time>
      </trkpt>
      <trkpt lat="47.38798" lon="-0.84891">
        <ele>10</ele>
        <time>2013-08-28T10:13:11Z</time>
      </trkpt>
      <trkpt lat="47.38818" lon="-0.84898">
        <ele>8</ele>
        <time>2013-08-28T10:13:11Z</time>
      </trkpt>
      <trkpt lat="47.38825" lon="-0.84901">
        <ele>6</ele>
        <time>2013-08-28T10:13:12Z</time>
      </trkpt>
      <trkpt lat="47.38831" lon="-0.84905">
        <ele>5</ele>
        <time>2013-08-28T10:13:13Z</time>
      </trkpt>
      <trkpt lat="47.38845" lon="-0.84912">
        <ele>4</ele>
        <time>2013-08-28T10:13:18Z</time>
      </trkpt>
      <trkpt lat="47.38874" lon="-0.84923">
        <ele>3</ele>
        <time>2013-08-28T10:13:19Z</time>
      </trkpt>
      <trkpt lat="47.38882" lon="-0.84921">
        <ele>2</ele>
        <time>2013-08-28T10:13:20Z</time>
      </trkpt>
      <trkpt lat="47.38895" lon="-0.8491">
        <ele>1</ele>
        <time>2013-08-28T10:13:26Z</time>
      </trkpt>
      <trkpt lat="47.38917" lon="-0.84871">
        <ele>14</ele>
        <time>2013-08-28T10:13:27Z</time>
      </trkpt>
      <trkpt lat="47.38919" lon="-0.84861">
        <ele>13.9</ele>
        <time>2013-08-28T10:13:28Z</time>
      </trkpt>
      <trkpt lat="47.38921" lon="-0.84851">
        <ele>13.5</ele>
        <time>2013-08-28T10:13:29Z</time>
      </trkpt>
      <trkpt lat="47.38925" lon="-0.8483">
        <ele>12.6</ele>
        <time>2013-08-28T10:13:34Z</time>
      </trkpt>
      <trkpt lat="47.38931" lon="-0.84795">
        <ele>12.7</ele>
        <time>2013-08-28T10:13:34Z</time>
      </trkpt>
      <trkpt lat="47.38931" lon="-0.84782">
        <ele>12.9</ele>
        <time>2013-08-28T10:13:35Z</time>
      </trkpt>
      <trkpt lat="47.38934" lon="-0.84759">
        <ele>13</ele>
        <time>2013-08-28T10:13:40Z</time>
      </trkpt>
      <trkpt lat="47.38935" lon="-0.84701">
        <ele>13</ele>
        <time>2013-08-28T10:13:42Z</time>
      </trkpt>
      <trkpt lat="47.38935" lon="-0.8469">
        <ele>1</ele>
        <time>2013-08-28T10:13:43Z</time>
      </trkpt>
      <trkpt lat="47.38935" lon="-0.8468">
        <ele>2</ele>
        <time>2013-08-28T10:13:44Z</time>
      </trkpt>
      <trkpt lat="47.38935" lon="-0.8467">
        <ele>3</ele>
        <time>2013-08-28T10:13:45Z</time>
      </trkpt>
      <trkpt lat="47.38935" lon="-0.8466">
        <ele>4</ele>
        <time>2013-08-28T10:13:46Z</time>
      </trkpt>
      <trkpt lat="47.38935" lon="-0.8465">
        <ele>6</ele>
        <time>2013-08-28T10:13:47Z</time>
      </trkpt>
      <trkpt lat="47.38935" lon="-0.8464">
        <ele>7</ele>
        <time>2013-08-28T10:13:48Z</time>
      </trkpt>
      <trkpt lat="47.38934" lon="-0.84629">
        <ele>8</ele>
        <time>2013-08-28T10:13:49Z</time>
      </trkpt>
      <trkpt lat="47.38933" lon="-0.84617">
        <ele>9</ele>
        <time>2013-08-28T10:13:50Z</time>
      </trkpt>
      <trkpt lat="47.38932" lon="-0.84606">
        <ele>10</ele>
        <time>2013-08-28T10:13:51Z</time>
      </trkpt>
      <trkpt lat="47.38932" lon="-0.84595">
        <ele>10</ele>
        <time>2013-08-28T10:13:52Z</time>
      </trkpt>
      <trkpt lat="47.38931" lon="-0.84584">
        <ele>10</ele>
        <time>2013-08-28T10:13:53Z</time>
      </trkpt>
      <trkpt lat="47.38929" lon="-0.84574">
        <ele>10</ele>
        <time>2013-08-28T10:13:54Z</time>
      </trkpt>
      <trkpt lat="47.38928" lon="-0.84564">
        <ele>10</ele>
        <time>2013-08-28T10:13:55Z</time>
      </trkpt>
      <trkpt lat="47.38926" lon="-0.84554">
        <ele>10</ele>
        <time>2013-08-28T10:13:56Z</time>
      </trkpt>
      <trkpt lat="47.38925" lon="-0.84544">
        <ele>10</ele>
        <time>2013-08-28T10:13:57Z</time>
      </trkpt>
      <trkpt lat="47.38924" lon="-0.84533">
        <ele>10</ele>
        <time>2013-08-28T10:13:58Z</time>
      </trkpt>
      <trkpt lat="47.38923" lon="-0.84523">
        <ele>10</ele>
        <time>2013-08-28T10:13:59Z</time>
      </trkpt>
      <trkpt lat="47.38921" lon="-0.84513">
        <ele>10</ele>
        <time>2013-08-28T10:14:00Z</time>
      </trkpt>
      <trkpt lat="47.3892" lon="-0.84503">
        <ele>10</ele>
        <time>2013-08-28T10:14:01Z</time>
      </trkpt>
      <trkpt lat="47.3892" lon="-0.84493">
        <ele>10</ele>
        <time>2013-08-28T10:14:02Z</time>
      </trkpt>
      <trkpt lat="47.38919" lon="-0.84483">
        <ele>10</ele>
        <time>2013-08-28T10:14:03Z</time>
      </trkpt>
      <trkpt lat="47.38918" lon="-0.84474">
        <ele>10</ele>
        <time>2013-08-28T10:14:04Z</time>
      </trkpt>
      <trkpt lat="47.38918" lon="-0.84465">
        <ele>10</ele>
        <time>2013-08-28T10:14:05Z</time>
      </trkpt>
      <trkpt lat="47.38917" lon="-0.84455">
        <ele>10</ele>
        <time>2013-08-28T10:14:06Z</time>
      </trkpt>
      <trkpt lat="47.38916" lon="-0.84445">
        <ele>10</ele>
        <time>2013-08-28T10:14:07Z</time>
      </trkpt>
      <trkpt lat="47.38915" lon="-0.84435">
        <ele>10</ele>
        <time>2013-08-28T10:14:08Z</time>
      </trkpt>
      <trkpt lat="47.38915" lon="-0.84427">
        <ele>10</ele>
        <time>2013-08-28T10:14:09Z</time>
      </trkpt>
      <trkpt lat="47.38915" lon="-0.8442">
        <ele>10</ele>
        <time>2013-08-28T10:14:10Z</time>
      </trkpt>
      <trkpt lat="47.38914" lon="-0.84411">
        <ele>10</ele>
        <time>2013-08-28T10:14:11Z</time>
      </trkpt>
      <trkpt lat="47.38913" lon="-0.84402">
        <ele>10</ele>
        <time>2013-08-28T10:14:12Z</time>
      </trkpt>
      <trkpt lat="47.38911" lon="-0.8439">
        <ele>10</ele>
        <time>2013-08-28T10:14:13Z</time>
      </trkpt>
      <trkpt lat="47.38908" lon="-0.8438">
        <ele>10</ele>
        <time>2013-08-28T10:14:14Z</time>
      </trkpt>
      <trkpt lat="47.38905" lon="-0.84369">
        <ele>10</ele>
        <time>2013-08-28T10:14:15Z</time>
      </trkpt>
      <trkpt lat="47.38903" lon="-0.84358">
        <ele>10</ele>
        <time>2013-08-28T10:14:16Z</time>
      </trkpt>
      <trkpt lat="47.38898" lon="-0.84347">
        <ele>10</ele>
        <time>2013-08-28T10:14:17Z</time>
      </trkpt>
      <trkpt lat="47.38894" lon="-0.84338">
        <ele>10</ele>
        <time>2013-08-28T10:14:18Z</time>
      </trkpt>
      <trkpt lat="47.3889" lon="-0.84329">
        <ele>10</ele>
        <time>2013-08-28T10:14:19Z</time>
      </trkpt>
      <trkpt lat="47.38885" lon="-0.84321">
        <ele>9</ele>
        <time>2013-08-28T10:14:20Z</time>
      </trkpt>
      <trkpt lat="47.38881" lon="-0.84314">
        <ele>9</ele>
        <time>2013-08-28T10:14:21Z</time>
      </trkpt>
      <trkpt lat="47.38875" lon="-0.84308">
        <ele>9</ele>
        <time>2013-08-28T10:14:22Z</time>
      </trkpt>
      <trkpt lat="47.38869" lon="-0.84301">
        <ele>9</ele>
        <time>2013-08-28T10:14:23Z</time>
      </trkpt>
      <trkpt lat="47.38863" lon="-0.84293">
        <ele>9</ele>
        <time>2013-08-28T10:14:24Z</time>
      </trkpt>
      <trkpt lat="47.38857" lon="-0.84285">
        <ele>8</ele>
        <time>2013-08-28T10:14:25Z</time>
      </trkpt>
      <trkpt lat="47.3885" lon="-0.84276">
        <ele>8</ele>
        <time>2013-08-28T10:14:26Z</time>
      </trkpt>
      <trkpt lat="47.38844" lon="-0.84269">
        <ele>7</ele>
        <time>2013-08-28T10:14:27Z</time>
      </trkpt>
      <trkpt lat="47.38839" lon="-0.84261">
        <ele>7</ele>
        <time>2013-08-28T10:14:28Z</time>
      </trkpt>
      <trkpt lat="47.38833" lon="-0.84253">
        <ele>6</ele>
        <time>2013-08-28T10:14:29Z</time>
      </trkpt>
      <trkpt lat="47.38827" lon="-0.84246">
        <ele>6</ele>
        <time>2013-08-28T10:14:30Z</time>
      </trkpt>
      <trkpt lat="47.38822" lon="-0.84238">
        <ele>6</ele>
        <time>2013-08-28T10:14:31Z</time>
      </trkpt>
      <trkpt lat="47.38816" lon="-0.8423">
        <ele>5</ele>
        <time>2013-08-28T10:14:32Z</time>
      </trkpt>
      <trkpt lat="47.38811" lon="-0.84223">
        <ele>5</ele>
        <time>2013-08-28T10:14:33Z</time>
      </trkpt>
      <trkpt lat="47.38805" lon="-0.84216">
        <ele>5</ele>
        <time>2013-08-28T10:14:34Z</time>
      </trkpt>
      <trkpt lat="47.38799" lon="-0.84208">
        <ele>5</ele>
        <time>2013-08-28T10:14:35Z</time>
      </trkpt>
      <trkpt lat="47.38793" lon="-0.842">
        <ele>5</ele>
        <time>2013-08-28T10:14:36Z</time>
      </trkpt>
      <trkpt lat="47.38787" lon="-0.84193">
        <ele>5</ele>
        <time>2013-08-28T10:14:37Z</time>
      </trkpt>
      <trkpt lat="47.38782" lon="-0.84185">
        <ele>5</ele>
        <time>2013-08-28T10:14:38Z</time>
      </trkpt>
      <trkpt lat="47.38776" lon="-0.84177">
        <ele>4</ele>
        <time>2013-08-28T10:14:39Z</time>
      </trkpt>
      <trkpt lat="47.3877" lon="-0.8417">
        <ele>4</ele>
        <time>2013-08-28T10:14:40Z</time>
      </trkpt>
      <trkpt lat="47.38765" lon="-0.84162">
        <ele>4</ele>
        <time>2013-08-28T10:14:41Z</time>
      </trkpt>
      <trkpt lat="47.38759" lon="-0.84154">
        <ele>4</ele>
        <time>2013-08-28T10:14:42Z</time>
      </trkpt>
      <trkpt lat="47.38754" lon="-0.84146">
        <ele>3</ele>
        <time>2013-08-28T10:14:43Z</time>
      </trkpt>
      <trkpt lat="47.38748" lon="-0.84138">
        <ele>3</ele>
        <time>2013-08-28T10:14:44Z</time>
      </trkpt>
      <trkpt lat="47.38742" lon="-0.84129">
        <ele>3</ele>
        <time>2013-08-28T10:14:45Z</time>
      </trkpt>
      <trkpt lat="47.38737" lon="-0.8412">
        <ele>3</ele>
        <time>2013-08-28T10:14:46Z</time>
      </trkpt>
      <trkpt lat="47.38732" lon="-0.84111">
        <ele>3</ele>
        <time>2013-08-28T10:14:47Z</time>
      </trkpt>
      <trkpt lat="47.38727" lon="-0.84102">
        <ele>3</ele>
        <time>2013-08-28T10:14:48Z</time>
      </trkpt>
      <trkpt lat="47.38723" lon="-0.84093">
        <ele>3</ele>
        <time>2013-08-28T10:14:49Z</time>
      </trkpt>
      <trkpt lat="47.38719" lon="-0.84084">
        <ele>3</ele>
        <time>2013-08-28T10:14:50Z</time>
      </trkpt>
      <trkpt lat="47.38715" lon="-0.84076">
        <ele>3</ele>
        <time>2013-08-28T10:14:51Z</time>
      </trkpt>
      <trkpt lat="47.38711" lon="-0.84067">
        <ele>2</ele>
        <time>2013-08-28T10:14:52Z</time>
      </trkpt>
      <trkpt lat="47.38706" lon="-0.8406">
        <ele>2</ele>
        <time>2013-08-28T10:14:53Z</time>
      </trkpt>
      <trkpt lat="47.38701" lon="-0.84052">
        <ele>2</ele>
        <time>2013-08-28T10:14:54Z</time>
      </trkpt>
      <trkpt lat="47.38696" lon="-0.84045">
        <ele>2</ele>
        <time>2013-08-28T10:14:55Z</time>
      </trkpt>
      <trkpt lat="47.38691" lon="-0.84037">
        <ele>2</ele>
        <time>2013-08-28T10:14:56Z</time>
      </trkpt>
      <trkpt lat="47.38686" lon="-0.8403">
        <ele>2</ele>
        <time>2013-08-28T10:14:57Z</time>
      </trkpt>
      <trkpt lat="47.38681" lon="-0.84023">
        <ele>2</ele>
        <time>2013-08-28T10:14:58Z</time>
      </trkpt>
      <trkpt lat="47.38676" lon="-0.84016">
        <ele>2</ele>
        <time>2013-08-28T10:14:59Z</time>
      </trkpt>
      <trkpt lat="47.38671" lon="-0.84009">
        <ele>2</ele>
        <time>2013-08-28T10:15:00Z</time>
      </trkpt>
      <trkpt lat="47.38666" lon="-0.84001">
        <ele>2</ele>
        <time>2013-08-28T10:15:01Z</time>
      </trkpt>
      <trkpt lat="47.38661" lon="-0.83994">
        <ele>2</ele>
        <time>2013-08-28T10:15:02Z</time>
      </trkpt>
      <trkpt lat="47.38655" lon="-0.83987">
        <ele>2</ele>
        <time>2013-08-28T10:15:03Z</time>
      </trkpt>
      <trkpt lat="47.3865" lon="-0.8398">
        <ele>2</ele>
        <time>2013-08-28T10:15:04Z</time>
      </trkpt>
      <trkpt lat="47.38645" lon="-0.83973">
        <ele>2</ele>
        <time>2013-08-28T10:15:05Z</time>
      </trkpt>
      <trkpt lat="47.38639" lon="-0.83966">
        <ele>2</ele>
        <time>2013-08-28T10:15:06Z</time>
      </trkpt>
      <trkpt lat="47.38634" lon="-0.8396">
        <ele>2</ele>
        <time>2013-08-28T10:15:07Z</time>
      </trkpt>
      <trkpt lat="47.3863" lon="-0.83953">
        <ele>2</ele>
        <time>2013-08-28T10:15:08Z</time>
      </trkpt>
      <trkpt lat="47.38625" lon="-0.83946">
        <ele>1</ele>
        <time>2013-08-28T10:15:09Z</time>
      </trkpt>
      <trkpt lat="47.38621" lon="-0.8394">
        <ele>1</ele>
        <time>2013-08-28T10:15:10Z</time>
      </trkpt>
      <trkpt lat="47.38617" lon="-0.83934">
        <ele>1</ele>
        <time>2013-08-28T10:15:11Z</time>
      </trkpt>
      <trkpt lat="47.38616" lon="-0.8393">
        <ele>12.9</ele>
        <time>2013-08-28T10:15:12Z</time>
      </trkpt>
      <trkpt lat="47.38614" lon="-0.83926">
        <ele>12.9</ele>
        <time>2013-08-28T10:15:14Z</time>
      </trkpt>
      <trkpt lat="47.38611" lon="-0.83922">
        <ele>13</ele>
        <time>2013-08-28T10:15:15Z</time>
      </trkpt>
      <trkpt lat="47.38607" lon="-0.8392">
        <ele>13</ele>
        <time>2013-08-28T10:15:16Z</time>
      </trkpt>
      <trkpt lat="47.38603" lon="-0.83919">
        <ele>13</ele>
        <time>2013-08-28T10:15:17Z</time>
      </trkpt>
      <trkpt lat="47.38599" lon="-0.83919">
        <ele>13</ele>
        <time>2013-08-28T10:15:18Z</time>
      </trkpt>
      <trkpt lat="47.38595" lon="-0.8392">
        <ele>13</ele>
        <time>2013-08-28T10:15:19Z</time>
      </trkpt>
      <trkpt lat="47.38591" lon="-0.83921">
        <ele>13</ele>
        <time>2013-08-28T10:15:20Z</time>
      </trkpt>
      <trkpt lat="47.38588" lon="-0.83923">
        <ele>13</ele>
        <time>2013-08-28T10:15:21Z</time>
      </trkpt>
      <trkpt lat="47.38583" lon="-0.83926">
        <ele>13</ele>
        <time>2013-08-28T10:15:22Z</time>
      </trkpt>
      <trkpt lat="47.38578" lon="-0.83929">
        <ele>13.1</ele>
        <time>2013-08-28T10:15:23Z</time>
      </trkpt>
      <trkpt lat="47.38572" lon="-0.83931">
        <ele>13.2</ele>
        <time>2013-08-28T10:15:24Z</time>
      </trkpt>
      <trkpt lat="47.38567" lon="-0.83933">
        <ele>13.3</ele>
        <time>2013-08-28T10:15:25Z</time>
      </trkpt>
      <trkpt lat="47.38561" lon="-0.83932">
        <ele>13.5</ele>
        <time>2013-08-28T10:15:26Z</time>
      </trkpt>
      <trkpt lat="47.38555" lon="-0.8393">
        <ele>13.5</ele>
        <time>2013-08-28T10:15:27Z</time>
      </trkpt>
      <trkpt lat="47.3855" lon="-0.83927">
        <ele>13.5</ele>
        <time>2013-08-28T10:15:28Z</time>
      </trkpt>
      <trkpt lat="47.38544" lon="-0.83923">
        <ele>13.5</ele>
        <time>2013-08-28T10:15:29Z</time>
      </trkpt>
      <trkpt lat="47.38539" lon="-0.83919">
        <ele>13.6</ele>
        <time>2013-08-28T10:15:30Z</time>
      </trkpt>
      <trkpt lat="47.38534" lon="-0.83915">
        <ele>13.7</ele>
        <time>2013-08-28T10:15:31Z</time>
      </trkpt>
      <trkpt lat="47.38528" lon="-0.8391">
        <ele>13.7</ele>
        <time>2013-08-28T10:15:32Z</time>
      </trkpt>
      <trkpt lat="47.38524" lon="-0.83905">
        <ele>13.6</ele>
        <time>2013-08-28T10:15:33Z</time>
      </trkpt>
      <trkpt lat="47.38519" lon="-0.83899">
        <ele>13.6</ele>
        <time>2013-08-28T10:15:34Z</time>
      </trkpt>
      <trkpt lat="47.38514" lon="-0.83894">
        <ele>13.6</ele>
        <time>2013-08-28T10:15:35Z</time>
      </trkpt>
      <trkpt lat="47.38509" lon="-0.83888">
        <ele>13.6</ele>
        <time>2013-08-28T10:15:36Z</time>
      </trkpt>
      <trkpt lat="47.38505" lon="-0.83882">
        <ele>13.6</ele>
        <time>2013-08-28T10:15:37Z</time>
      </trkpt>
      <trkpt lat="47.385" lon="-0.83875">
        <ele>13.5</ele>
        <time>2013-08-28T10:15:38Z</time>
      </trkpt>
      <trkpt lat="47.38496" lon="-0.83868">
        <ele>13.4</ele>
        <time>2013-08-28T10:15:39Z</time>
      </trkpt>
      <trkpt lat="47.38491" lon="-0.83861">
        <ele>13.3</ele>
        <time>2013-08-28T10:15:40Z</time>
      </trkpt>
      <trkpt lat="47.38487" lon="-0.83853">
        <ele>13.5</ele>
        <time>2013-08-28T10:15:41Z</time>
      </trkpt>
      <trkpt lat="47.38483" lon="-0.83844">
        <ele>13.6</ele>
        <time>2013-08-28T10:15:42Z</time>
      </trkpt>
      <trkpt lat="47.3848" lon="-0.83835">
        <ele>13.7</ele>
        <time>2013-08-28T10:15:43Z</time>
      </trkpt>
      <trkpt lat="47.38478" lon="-0.83825">
        <ele>13.8</ele>
        <time>2013-08-28T10:15:44Z</time>
      </trkpt>
      <trkpt lat="47.38477" lon="-0.83816">
        <ele>13.8</ele>
        <time>2013-08-28T10:15:45Z</time>
      </trkpt>
      <trkpt lat="47.38475" lon="-0.83807">
        <ele>13.9</ele>
        <time>2013-08-28T10:15:46Z</time>
      </trkpt>
      <trkpt lat="47.38473" lon="-0.83797">
        <ele>14</ele>
        <time>2013-08-28T10:15:47Z</time>
      </trkpt>
      <trkpt lat="47.38471" lon="-0.83788">
        <ele>14</ele>
        <time>2013-08-28T10:15:48Z</time>
      </trkpt>
      <trkpt lat="47.38468" lon="-0.83779">
        <ele>14.2</ele>
        <time>2013-08-28T10:15:49Z</time>
      </trkpt>
      <trkpt lat="47.38464" lon="-0.8377">
        <ele>14</ele>
        <time>2013-08-28T10:15:50Z</time>
      </trkpt>
      <trkpt lat="47.38461" lon="-0.83761">
        <ele>13.8</ele>
        <time>2013-08-28T10:15:51Z</time>
      </trkpt>
      <trkpt lat="47.38457" lon="-0.83752">
        <ele>13.6</ele>
        <time>2013-08-28T10:15:52Z</time>
      </trkpt>
      <trkpt lat="47.38454" lon="-0.83743">
        <ele>13.7</ele>
        <time>2013-08-28T10:15:53Z</time>
      </trkpt>
      <trkpt lat="47.3845" lon="-0.83734">
        <ele>13.9</ele>
        <time>2013-08-28T10:15:54Z</time>
      </trkpt>
      <trkpt lat="47.38446" lon="-0.83725">
        <ele>14</ele>
        <time>2013-08-28T10:15:55Z</time>
      </trkpt>
      <trkpt lat="47.38443" lon="-0.83716">
        <ele>13.7</ele>
        <time>2013-08-28T10:15:56Z</time>
      </trkpt>
      <trkpt lat="47.3844" lon="-0.83706">
        <ele>13.5</ele>
        <time>2013-08-28T10:15:57Z</time>
      </trkpt>
      <trkpt lat="47.38436" lon="-0.83697">
        <ele>13.3</ele>
        <time>2013-08-28T10:15:58Z</time>
      </trkpt>
      <trkpt lat="47.38432" lon="-0.83686">
        <ele>13.6</ele>
        <time>2013-08-28T10:15:59Z</time>
      </trkpt>
      <trkpt lat="47.38428" lon="-0.83676">
        <ele>14</ele>
        <time>2013-08-28T10:16:00Z</time>
      </trkpt>
      <trkpt lat="47.38424" lon="-0.83667">
        <ele>14.5</ele>
        <time>2013-08-28T10:16:01Z</time>
      </trkpt>
      <trkpt lat="47.3842" lon="-0.83658">
        <ele>14.2</ele>
        <time>2013-08-28T10:16:02Z</time>
      </trkpt>
      <trkpt lat="47.38416" lon="-0.83649">
        <ele>13.7</ele>
        <time>2013-08-28T10:16:03Z</time>
      </trkpt>
      <trkpt lat="47.38413" lon="-0.83639">
        <ele>12.9</ele>
        <time>2013-08-28T10:16:04Z</time>
      </trkpt>
      <trkpt lat="47.38408" lon="-0.83629">
        <ele>13.1</ele>
        <time>2013-08-28T10:16:05Z</time>
      </trkpt>
      <trkpt lat="47.38404" lon="-0.83619">
        <ele>13.3</ele>
        <time>2013-08-28T10:16:06Z</time>
      </trkpt>
      <trkpt lat="47.38399" lon="-0.8361">
        <ele>13.4</ele>
        <time>2013-08-28T10:16:07Z</time>
      </trkpt>
      <trkpt lat="47.38395" lon="-0.836">
        <ele>13.4</ele>
        <time>2013-08-28T10:16:08Z</time>
      </trkpt>
      <trkpt lat="47.38391" lon="-0.8359">
        <ele>13.7</ele>
        <time>2013-08-28T10:16:09Z</time>
      </trkpt>
      <trkpt lat="47.38387" lon="-0.83581">
        <ele>13.8</ele>
        <time>2013-08-28T10:16:10Z</time>
      </trkpt>
      <trkpt lat="47.38382" lon="-0.83572">
        <ele>13.5</ele>
        <time>2013-08-28T10:16:11Z</time>
      </trkpt>
      <trkpt lat="47.38379" lon="-0.83562">
        <ele>13.3</ele>
        <time>2013-08-28T10:16:12Z</time>
      </trkpt>
      <trkpt lat="47.38376" lon="-0.83553">
        <ele>13.2</ele>
        <time>2013-08-28T10:16:13Z</time>
      </trkpt>
      <trkpt lat="47.38373" lon="-0.83543">
        <ele>13.4</ele>
        <time>2013-08-28T10:16:14Z</time>
      </trkpt>
      <trkpt lat="47.3837" lon="-0.83534">
        <ele>13.7</ele>
        <time>2013-08-28T10:16:15Z</time>
      </trkpt>
      <trkpt lat="47.38368" lon="-0.83525">
        <ele>14.1</ele>
        <time>2013-08-28T10:16:16Z</time>
      </trkpt>
      <trkpt lat="47.38365" lon="-0.83513">
        <ele>1</ele>
        <time>2013-08-28T10:16:17Z</time>
      </trkpt>
      <trkpt lat="47.38363" lon="-0.83503">
        <ele>2</ele>
        <time>2013-08-28T10:16:18Z</time>
      </trkpt>
      <trkpt lat="47.38361" lon="-0.83492">
        <ele>2</ele>
        <time>2013-08-28T10:16:19Z</time>
      </trkpt>
      <trkpt lat="47.38359" lon="-0.8348">
        <ele>3</ele>
        <time>2013-08-28T10:16:20Z</time>
      </trkpt>
      <trkpt lat="47.38356" lon="-0.83469">
        <ele>3</ele>
        <time>2013-08-28T10:16:21Z</time>
      </trkpt>
      <trkpt lat="47.38354" lon="-0.83458">
        <ele>3</ele>
        <time>2013-08-28T10:16:22Z</time>
      </trkpt>
      <trkpt lat="47.38351" lon="-0.83447">
        <ele>3</ele>
        <time>2013-08-28T10:16:23Z</time>
      </trkpt>
      <trkpt lat="47.38349" lon="-0.83437">
        <ele>3</ele>
        <time>2013-08-28T10:16:24Z</time>
      </trkpt>
      <trkpt lat="47.38345" lon="-0.83426">
        <ele>3</ele>
        <time>2013-08-28T10:16:25Z</time>
      </trkpt>
      <trkpt lat="47.38341" lon="-0.83416">
        <ele>3</ele>
        <time>2013-08-28T10:16:26Z</time>
      </trkpt>
      <trkpt lat="47.38336" lon="-0.83407">
        <ele>3</ele>
        <time>2013-08-28T10:16:27Z</time>
      </trkpt>
      <trkpt lat="47.38331" lon="-0.83396">
        <ele>3</ele>
        <time>2013-08-28T10:16:28Z</time>
      </trkpt>
      <trkpt lat="47.38327" lon="-0.83386">
        <ele>3</ele>
        <time>2013-08-28T10:16:29Z</time>
      </trkpt>
      <trkpt lat="47.38322" lon="-0.83377">
        <ele>3</ele>
        <time>2013-08-28T10:16:30Z</time>
      </trkpt>
      <trkpt lat="47.38319" lon="-0.83368">
        <ele>3</ele>
        <time>2013-08-28T10:16:31Z</time>
      </trkpt>
      <trkpt lat="47.38315" lon="-0.83359">
        <ele>3</ele>
        <time>2013-08-28T10:16:32Z</time>
      </trkpt>
      <trkpt lat="47.3831" lon="-0.83349">
        <ele>3</ele>
        <time>2013-08-28T10:16:33Z</time>
      </trkpt>
      <trkpt lat="47.38306" lon="-0.83339">
        <ele>3</ele>
        <time>2013-08-28T10:16:34Z</time>
      </trkpt>
      <trkpt lat="47.383" lon="-0.8333">
        <ele>3</ele>
        <time>2013-08-28T10:16:35Z</time>
      </trkpt>
      <trkpt lat="47.38295" lon="-0.8332">
        <ele>3</ele>
        <time>2013-08-28T10:16:36Z</time>
      </trkpt>
      <trkpt lat="47.3829" lon="-0.8331">
        <ele>3</ele>
        <time>2013-08-28T10:16:37Z</time>
      </trkpt>
      <trkpt lat="47.38285" lon="-0.833">
        <ele>3</ele>
        <time>2013-08-28T10:16:38Z</time>
      </trkpt>
      <trkpt lat="47.3828" lon="-0.83291">
        <ele>3</ele>
        <time>2013-08-28T10:16:39Z</time>
      </trkpt>
      <trkpt lat="47.38277" lon="-0.83283">
        <ele>3</ele>
        <time>2013-08-28T10:16:40Z</time>
      </trkpt>
      <trkpt lat="47.38273" lon="-0.83274">
        <ele>3</ele>
        <time>2013-08-28T10:16:41Z</time>
      </trkpt>
      <trkpt lat="47.38268" lon="-0.83266">
        <ele>3</ele>
        <time>2013-08-28T10:16:42Z</time>
      </trkpt>
      <trkpt lat="47.38261" lon="-0.83256">
        <ele>3</ele>
        <time>2013-08-28T10:16:43Z</time>
      </trkpt>
      <trkpt lat="47.38254" lon="-0.83247">
        <ele>3</ele>
        <time>2013-08-28T10:16:44Z</time>
      </trkpt>
      <trkpt lat="47.38249" lon="-0.83239">
        <ele>3</ele>
        <time>2013-08-28T10:16:45Z</time>
      </trkpt>
      <trkpt lat="47.38243" lon="-0.83232">
        <ele>3</ele>
        <time>2013-08-28T10:16:46Z</time>
      </trkpt>
      <trkpt lat="47.38237" lon="-0.83224">
        <ele>3</ele>
        <time>2013-08-28T10:16:47Z</time>
      </trkpt>
      <trkpt lat="47.38231" lon="-0.83218">
        <ele>3</ele>
        <time>2013-08-28T10:16:48Z</time>
      </trkpt>
      <trkpt lat="47.38224" lon="-0.83211">
        <ele>3</ele>
        <time>2013-08-28T10:16:49Z</time>
      </trkpt>
      <trkpt lat="47.38219" lon="-0.83203">
        <ele>3</ele>
        <time>2013-08-28T10:16:50Z</time>
      </trkpt>
      <trkpt lat="47.38213" lon="-0.83196">
        <ele>3</ele>
        <time>2013-08-28T10:16:51Z</time>
      </trkpt>
      <trkpt lat="47.38208" lon="-0.83188">
        <ele>3</ele>
        <time>2013-08-28T10:16:52Z</time>
      </trkpt>
      <trkpt lat="47.38203" lon="-0.8318">
        <ele>3</ele>
        <time>2013-08-28T10:16:53Z</time>
      </trkpt>
      <trkpt lat="47.38198" lon="-0.83173">
        <ele>3</ele>
        <time>2013-08-28T10:16:54Z</time>
      </trkpt>
      <trkpt lat="47.38192" lon="-0.83165">
        <ele>3</ele>
        <time>2013-08-28T10:16:55Z</time>
      </trkpt>
      <trkpt lat="47.38186" lon="-0.83157">
        <ele>3</ele>
        <time>2013-08-28T10:16:56Z</time>
      </trkpt>
      <trkpt lat="47.3818" lon="-0.83149">
        <ele>3</ele>
        <time>2013-08-28T10:16:57Z</time>
      </trkpt>
      <trkpt lat="47.38174" lon="-0.83141">
        <ele>3</ele>
        <time>2013-08-28T10:16:58Z</time>
      </trkpt>
      <trkpt lat="47.38168" lon="-0.83134">
        <ele>3</ele>
        <time>2013-08-28T10:16:59Z</time>
      </trkpt>
      <trkpt lat="47.38162" lon="-0.83127">
        <ele>3</ele>
        <time>2013-08-28T10:17:00Z</time>
      </trkpt>
      <trkpt lat="47.38157" lon="-0.8312">
        <ele>3</ele>
        <time>2013-08-28T10:17:01Z</time>
      </trkpt>
      <trkpt lat="47.38149" lon="-0.83113">
        <ele>3</ele>
        <time>2013-08-28T10:17:02Z</time>
      </trkpt>
      <trkpt lat="47.38143" lon="-0.83106">
        <ele>3</ele>
        <time>2013-08-28T10:17:03Z</time>
      </trkpt>
      <trkpt lat="47.38138" lon="-0.831">
        <ele>3</ele>
        <time>2013-08-28T10:17:04Z</time>
      </trkpt>
      <trkpt lat="47.38133" lon="-0.83095">
        <ele>3</ele>
        <time>2013-08-28T10:17:05Z</time>
      </trkpt>
      <trkpt lat="47.38127" lon="-0.83088">
        <ele>3</ele>
        <time>2013-08-28T10:17:06Z</time>
      </trkpt>
      <trkpt lat="47.3812" lon="-0.83082">
        <ele>3</ele>
        <time>2013-08-28T10:17:07Z</time>
      </trkpt>
      <trkpt lat="47.38115" lon="-0.83077">
        <ele>3</ele>
        <time>2013-08-28T10:17:08Z</time>
      </trkpt>
      <trkpt lat="47.38109" lon="-0.83071">
        <ele>3</ele>
        <time>2013-08-28T10:17:09Z</time>
      </trkpt>
      <trkpt lat="47.38103" lon="-0.83064">
        <ele>3</ele>
        <time>2013-08-28T10:17:10Z</time>
      </trkpt>
      <trkpt lat="47.38098" lon="-0.83059">
        <ele>2</ele>
        <time>2013-08-28T10:17:11Z</time>
      </trkpt>
      <trkpt lat="47.3809" lon="-0.83051">
        <ele>2</ele>
        <time>2013-08-28T10:17:12Z</time>
      </trkpt>
      <trkpt lat="47.38082" lon="-0.83044">
        <ele>2</ele>
        <time>2013-08-28T10:17:13Z</time>
      </trkpt>
      <trkpt lat="47.38076" lon="-0.83039">
        <ele>2</ele>
        <time>2013-08-28T10:17:14Z</time>
      </trkpt>
      <trkpt lat="47.38068" lon="-0.83034">
        <ele>2</ele>
        <time>2013-08-28T10:17:15Z</time>
      </trkpt>
      <trkpt lat="47.38063" lon="-0.8303">
        <ele>2</ele>
        <time>2013-08-28T10:17:16Z</time>
      </trkpt>
      <trkpt lat="47.38058" lon="-0.83025">
        <ele>2</ele>
        <time>2013-08-28T10:17:17Z</time>
      </trkpt>
      <trkpt lat="47.38052" lon="-0.83019">
        <ele>2</ele>
        <time>2013-08-28T10:17:18Z</time>
      </trkpt>
      <trkpt lat="47.38045" lon="-0.83012">
        <ele>2</ele>
        <time>2013-08-28T10:17:19Z</time>
      </trkpt>
      <trkpt lat="47.38039" lon="-0.83007">
        <ele>2</ele>
        <time>2013-08-28T10:17:20Z</time>
      </trkpt>
      <trkpt lat="47.38031" lon="-0.83002">
        <ele>2</ele>
        <time>2013-08-28T10:17:21Z</time>
      </trkpt>
      <trkpt lat="47.38027" lon="-0.82997">
        <ele>2</ele>
        <time>2013-08-28T10:17:22Z</time>
      </trkpt>
      <trkpt lat="47.38021" lon="-0.82992">
        <ele>2</ele>
        <time>2013-08-28T10:17:23Z</time>
      </trkpt>
      <trkpt lat="47.38015" lon="-0.82987">
        <ele>2</ele>
        <time>2013-08-28T10:17:24Z</time>
      </trkpt>
      <trkpt lat="47.38009" lon="-0.8298">
        <ele>2</ele>
        <time>2013-08-28T10:17:25Z</time>
      </trkpt>
      <trkpt lat="47.38002" lon="-0.82975">
        <ele>2</ele>
        <time>2013-08-28T10:17:26Z</time>
      </trkpt>
      <trkpt lat="47.37995" lon="-0.82971">
        <ele>2</ele>
        <time>2013-08-28T10:17:27Z</time>
      </trkpt>
      <trkpt lat="47.37988" lon="-0.82966">
        <ele>2</ele>
        <time>2013-08-28T10:17:28Z</time>
      </trkpt>
      <trkpt lat="47.37981" lon="-0.82959">
        <ele>2</ele>
        <time>2013-08-28T10:17:29Z</time>
      </trkpt>
      <trkpt lat="47.37973" lon="-0.82954">
        <ele>2</ele>
        <time>2013-08-28T10:17:30Z</time>
      </trkpt>
      <trkpt lat="47.37966" lon="-0.82947">
        <ele>2</ele>
        <time>2013-08-28T10:17:31Z</time>
      </trkpt>
      <trkpt lat="47.3796" lon="-0.82941">
        <ele>2</ele>
        <time>2013-08-28T10:17:32Z</time>
      </trkpt>
      <trkpt lat="47.37954" lon="-0.82936">
        <ele>2</ele>
        <time>2013-08-28T10:17:33Z</time>
      </trkpt>
      <trkpt lat="47.37947" lon="-0.8293">
        <ele>2</ele>
        <time>2013-08-28T10:17:34Z</time>
      </trkpt>
      <trkpt lat="47.37941" lon="-0.82925">
        <ele>2</ele>
        <time>2013-08-28T10:17:35Z</time>
      </trkpt>
      <trkpt lat="47.37933" lon="-0.82919">
        <ele>2</ele>
        <time>2013-08-28T10:17:36Z</time>
      </trkpt>
      <trkpt lat="47.37926" lon="-0.82912">
        <ele>2</ele>
        <time>2013-08-28T10:17:37Z</time>
      </trkpt>
      <trkpt lat="47.37919" lon="-0.82905">
        <ele>2</ele>
        <time>2013-08-28T10:17:38Z</time>
      </trkpt>
      <trkpt lat="47.37911" lon="-0.82898">
        <ele>2</ele>
        <time>2013-08-28T10:17:39Z</time>
      </trkpt>
      <trkpt lat="47.37905" lon="-0.8289">
        <ele>1</ele>
        <time>2013-08-28T10:17:40Z</time>
      </trkpt>
      <trkpt lat="47.37899" lon="-0.82883">
        <ele>1</ele>
        <time>2013-08-28T10:17:41Z</time>
      </trkpt>
      <trkpt lat="47.37892" lon="-0.82876">
        <ele>1</ele>
        <time>2013-08-28T10:17:42Z</time>
      </trkpt>
      <trkpt lat="47.37886" lon="-0.82868">
        <ele>1</ele>
        <time>2013-08-28T10:17:43Z</time>
      </trkpt>
      <trkpt lat="47.37881" lon="-0.8286">
        <ele>1</ele>
        <time>2013-08-28T10:17:44Z</time>
      </trkpt>
      <trkpt lat="47.37875" lon="-0.82851">
        <ele>1</ele>
        <time>2013-08-28T10:17:45Z</time>
      </trkpt>
      <trkpt lat="47.37868" lon="-0.82844">
        <ele>1</ele>
        <time>2013-08-28T10:17:46Z</time>
      </trkpt>
      <trkpt lat="47.37862" lon="-0.82836">
        <ele>1</ele>
        <time>2013-08-28T10:17:47Z</time>
      </trkpt>
      <trkpt lat="47.37855" lon="-0.82827">
        <ele>1</ele>
        <time>2013-08-28T10:17:48Z</time>
      </trkpt>
      <trkpt lat="47.37849" lon="-0.82819">
        <ele>1</ele>
        <time>2013-08-28T10:17:49Z</time>
      </trkpt>
      <trkpt lat="47.37844" lon="-0.82811">
        <ele>1</ele>
        <time>2013-08-28T10:17:50Z</time>
      </trkpt>
      <trkpt lat="47.37838" lon="-0.82802">
        <ele>1</ele>
        <time>2013-08-28T10:17:51Z</time>
      </trkpt>
      <trkpt lat="47.37832" lon="-0.82793">
        <ele>1</ele>
        <time>2013-08-28T10:17:52Z</time>
      </trkpt>
      <trkpt lat="47.37826" lon="-0.82784">
        <ele>1</ele>
        <time>2013-08-28T10:17:53Z</time>
      </trkpt>
      <trkpt lat="47.37821" lon="-0.82775">
        <ele>1</ele>
        <time>2013-08-28T10:17:54Z</time>
      </trkpt>
      <trkpt lat="47.37816" lon="-0.82766">
        <ele>2</ele>
        <time>2013-08-28T10:17:55Z</time>
      </trkpt>
      <trkpt lat="47.37811" lon="-0.82756">
        <ele>2</ele>
        <time>2013-08-28T10:17:56Z</time>
      </trkpt>
      <trkpt lat="47.37807" lon="-0.82746">
        <ele>2</ele>
        <time>2013-08-28T10:17:57Z</time>
      </trkpt>
      <trkpt lat="47.37803" lon="-0.82736">
        <ele>2</ele>
        <time>2013-08-28T10:17:58Z</time>
      </trkpt>
      <trkpt lat="47.37798" lon="-0.82726">
        <ele>2</ele>
        <time>2013-08-28T10:17:59Z</time>
      </trkpt>
      <trkpt lat="47.37794" lon="-0.82715">
        <ele>2</ele>
        <time>2013-08-28T10:18:00Z</time>
      </trkpt>
      <trkpt lat="47.37789" lon="-0.82705">
        <ele>2</ele>
        <time>2013-08-28T10:18:01Z</time>
      </trkpt>
      <trkpt lat="47.37784" lon="-0.82695">
        <ele>3</ele>
        <time>2013-08-28T10:18:02Z</time>
      </trkpt>
      <trkpt lat="47.3778" lon="-0.82686">
        <ele>4</ele>
        <time>2013-08-28T10:18:03Z</time>
      </trkpt>
      <trkpt lat="47.37775" lon="-0.82675">
        <ele>4</ele>
        <time>2013-08-28T10:18:04Z</time>
      </trkpt>
      <trkpt lat="47.37771" lon="-0.82665">
        <ele>5</ele>
        <time>2013-08-28T10:18:05Z</time>
      </trkpt>
      <trkpt lat="47.37767" lon="-0.82655">
        <ele>5</ele>
        <time>2013-08-28T10:18:06Z</time>
      </trkpt>
      <trkpt lat="47.37764" lon="-0.82644">
        <ele>5</ele>
        <time>2013-08-28T10:18:07Z</time>
      </trkpt>
      <trkpt lat="47.37761" lon="-0.82635">
        <ele>5</ele>
        <time>2013-08-28T10:18:08Z</time>
      </trkpt>
      <trkpt lat="47.37758" lon="-0.82626">
        <ele>5</ele>
        <time>2013-08-28T10:18:09Z</time>
      </trkpt>
      <trkpt lat="47.37755" lon="-0.82618">
        <ele>5</ele>
        <time>2013-08-28T10:18:10Z</time>
      </trkpt>
      <trkpt lat="47.37752" lon="-0.82609">
        <ele>5</ele>
        <time>2013-08-28T10:18:11Z</time>
      </trkpt>
      <trkpt lat="47.37749" lon="-0.826">
        <ele>5</ele>
        <time>2013-08-28T10:18:12Z</time>
      </trkpt>
      <trkpt lat="47.37746" lon="-0.8259">
        <ele>5</ele>
        <time>2013-08-28T10:18:13Z</time>
      </trkpt>
      <trkpt lat="47.37743" lon="-0.8258">
        <ele>5</ele>
        <time>2013-08-28T10:18:14Z</time>
      </trkpt>
      <trkpt lat="47.3774" lon="-0.82569">
        <ele>5</ele>
        <time>2013-08-28T10:18:15Z</time>
      </trkpt>
      <trkpt lat="47.37735" lon="-0.82559">
        <ele>5</ele>
        <time>2013-08-28T10:18:16Z</time>
      </trkpt>
      <trkpt lat="47.37733" lon="-0.82548">
        <ele>5</ele>
        <time>2013-08-28T10:18:17Z</time>
      </trkpt>
      <trkpt lat="47.3773" lon="-0.82538">
        <ele>5</ele>
        <time>2013-08-28T10:18:18Z</time>
      </trkpt>
      <trkpt lat="47.37727" lon="-0.82528">
        <ele>5</ele>
        <time>2013-08-28T10:18:19Z</time>
      </trkpt>
      <trkpt lat="47.37725" lon="-0.82518">
        <ele>5</ele>
        <time>2013-08-28T10:18:20Z</time>
      </trkpt>
      <trkpt lat="47.37721" lon="-0.82507">
        <ele>5</ele>
        <time>2013-08-28T10:18:21Z</time>
      </trkpt>
      <trkpt lat="47.37716" lon="-0.82495">
        <ele>5</ele>
        <time>2013-08-28T10:18:22Z</time>
      </trkpt>
      <trkpt lat="47.37712" lon="-0.82484">
        <ele>5</ele>
        <time>2013-08-28T10:18:23Z</time>
      </trkpt>
      <trkpt lat="47.37708" lon="-0.8247">
        <ele>5</ele>
        <time>2013-08-28T10:18:24Z</time>
      </trkpt>
      <trkpt lat="47.37705" lon="-0.82458">
        <ele>5</ele>
        <time>2013-08-28T10:18:25Z</time>
      </trkpt>
      <trkpt lat="47.37702" lon="-0.82447">
        <ele>5</ele>
        <time>2013-08-28T10:18:26Z</time>
      </trkpt>
      <trkpt lat="47.37698" lon="-0.82435">
        <ele>5</ele>
        <time>2013-08-28T10:18:27Z</time>
      </trkpt>
      <trkpt lat="47.37696" lon="-0.82424">
        <ele>5</ele>
        <time>2013-08-28T10:18:28Z</time>
      </trkpt>
      <trkpt lat="47.37695" lon="-0.82413">
        <ele>5</ele>
        <time>2013-08-28T10:18:29Z</time>
      </trkpt>
      <trkpt lat="47.37691" lon="-0.82401">
        <ele>5</ele>
        <time>2013-08-28T10:18:30Z</time>
      </trkpt>
      <trkpt lat="47.3769" lon="-0.82389">
        <ele>5</ele>
        <time>2013-08-28T10:18:31Z</time>
      </trkpt>
      <trkpt lat="47.37688" lon="-0.82378">
        <ele>5</ele>
        <time>2013-08-28T10:18:32Z</time>
      </trkpt>
      <trkpt lat="47.37685" lon="-0.82366">
        <ele>5</ele>
        <time>2013-08-28T10:18:33Z</time>
      </trkpt>
      <trkpt lat="47.37683" lon="-0.82353">
        <ele>4</ele>
        <time>2013-08-28T10:18:34Z</time>
      </trkpt>
      <trkpt lat="47.37681" lon="-0.82341">
        <ele>4</ele>
        <time>2013-08-28T10:18:35Z</time>
      </trkpt>
      <trkpt lat="47.37677" lon="-0.82328">
        <ele>4</ele>
        <time>2013-08-28T10:18:36Z</time>
      </trkpt>
      <trkpt lat="47.37675" lon="-0.82317">
        <ele>4</ele>
        <time>2013-08-28T10:18:37Z</time>
      </trkpt>
      <trkpt lat="47.37673" lon="-0.82305">
        <ele>4</ele>
        <time>2013-08-28T10:18:38Z</time>
      </trkpt>
      <trkpt lat="47.37672" lon="-0.82293">
        <ele>4</ele>
        <time>2013-08-28T10:18:39Z</time>
      </trkpt>
      <trkpt lat="47.37669" lon="-0.82281">
        <ele>4</ele>
        <time>2013-08-28T10:18:40Z</time>
      </trkpt>
      <trkpt lat="47.37667" lon="-0.82269">
        <ele>4</ele>
        <time>2013-08-28T10:18:41Z</time>
      </trkpt>
      <trkpt lat="47.37666" lon="-0.82258">
        <ele>4</ele>
        <time>2013-08-28T10:18:42Z</time>
      </trkpt>
      <trkpt lat="47.37664" lon="-0.82247">
        <ele>4</ele>
        <time>2013-08-28T10:18:43Z</time>
      </trkpt>
      <trkpt lat="47.37661" lon="-0.82236">
        <ele>4</ele>
        <time>2013-08-28T10:18:44Z</time>
      </trkpt>
      <trkpt lat="47.37658" lon="-0.82224">
        <ele>4</ele>
        <time>2013-08-28T10:18:45Z</time>
      </trkpt>
      <trkpt lat="47.37657" lon="-0.82213">
        <ele>4</ele>
        <time>2013-08-28T10:18:46Z</time>
      </trkpt>
      <trkpt lat="47.37655" lon="-0.82202">
        <ele>4</ele>
        <time>2013-08-28T10:18:47Z</time>
      </trkpt>
      <trkpt lat="47.37653" lon="-0.82191">
        <ele>4</ele>
        <time>2013-08-28T10:18:48Z</time>
      </trkpt>
      <trkpt lat="47.37651" lon="-0.8218">
        <ele>4</ele>
        <time>2013-08-28T10:18:49Z</time>
      </trkpt>
      <trkpt lat="47.3765" lon="-0.82169">
        <ele>4</ele>
        <time>2013-08-28T10:18:50Z</time>
      </trkpt>
      <trkpt lat="47.37647" lon="-0.82159">
        <ele>4</ele>
        <time>2013-08-28T10:18:51Z</time>
      </trkpt>
      <trkpt lat="47.37645" lon="-0.82149">
        <ele>4</ele>
        <time>2013-08-28T10:18:52Z</time>
      </trkpt>
      <trkpt lat="47.37642" lon="-0.82138">
        <ele>4</ele>
        <time>2013-08-28T10:18:53Z</time>
      </trkpt>
      <trkpt lat="47.37639" lon="-0.82127">
        <ele>4</ele>
        <time>2013-08-28T10:18:54Z</time>
      </trkpt>
      <trkpt lat="47.37637" lon="-0.82117">
        <ele>4</ele>
        <time>2013-08-28T10:18:55Z</time>
      </trkpt>
      <trkpt lat="47.37634" lon="-0.82106">
        <ele>4</ele>
        <time>2013-08-28T10:18:56Z</time>
      </trkpt>
      <trkpt lat="47.37632" lon="-0.82095">
        <ele>4</ele>
        <time>2013-08-28T10:18:57Z</time>
      </trkpt>
      <trkpt lat="47.3763" lon="-0.82082">
        <ele>4</ele>
        <time>2013-08-28T10:18:58Z</time>
      </trkpt>
      <trkpt lat="47.37628" lon="-0.8207">
        <ele>4</ele>
        <time>2013-08-28T10:18:59Z</time>
      </trkpt>
      <trkpt lat="47.37625" lon="-0.82058">
        <ele>4</ele>
        <time>2013-08-28T10:19:00Z</time>
      </trkpt>
      <trkpt lat="47.37623" lon="-0.82046">
        <ele>4</ele>
        <time>2013-08-28T10:19:01Z</time>
      </trkpt>
      <trkpt lat="47.37622" lon="-0.82034">
        <ele>4</ele>
        <time>2013-08-28T10:19:02Z</time>
      </trkpt>
      <trkpt lat="47.37619" lon="-0.82021">
        <ele>4</ele>
        <time>2013-08-28T10:19:03Z</time>
      </trkpt>
      <trkpt lat="47.37616" lon="-0.82011">
        <ele>4</ele>
        <time>2013-08-28T10:19:04Z</time>
      </trkpt>
      <trkpt lat="47.37613" lon="-0.82">
        <ele>4</ele>
        <time>2013-08-28T10:19:05Z</time>
      </trkpt>
      <trkpt lat="47.3761" lon="-0.8199">
        <ele>4</ele>
        <time>2013-08-28T10:19:06Z</time>
      </trkpt>
      <trkpt lat="47.37608" lon="-0.8198">
        <ele>4</ele>
        <time>2013-08-28T10:19:07Z</time>
      </trkpt>
      <trkpt lat="47.37603" lon="-0.81969">
        <ele>4</ele>
        <time>2013-08-28T10:19:08Z</time>
      </trkpt>
      <trkpt lat="47.376" lon="-0.81959">
        <ele>4</ele>
        <time>2013-08-28T10:19:09Z</time>
      </trkpt>
      <trkpt lat="47.37598" lon="-0.81951">
        <ele>4</ele>
        <time>2013-08-28T10:19:10Z</time>
      </trkpt>
      <trkpt lat="47.37594" lon="-0.81941">
        <ele>4</ele>
        <time>2013-08-28T10:19:11Z</time>
      </trkpt>
      <trkpt lat="47.37589" lon="-0.81929">
        <ele>4</ele>
        <time>2013-08-28T10:19:12Z</time>
      </trkpt>
      <trkpt lat="47.37587" lon="-0.8192">
        <ele>4</ele>
        <time>2013-08-28T10:19:13Z</time>
      </trkpt>
      <trkpt lat="47.37583" lon="-0.81909">
        <ele>4</ele>
        <time>2013-08-28T10:19:14Z</time>
      </trkpt>
      <trkpt lat="47.3758" lon="-0.81898">
        <ele>4</ele>
        <time>2013-08-28T10:19:15Z</time>
      </trkpt>
      <trkpt lat="47.37577" lon="-0.81886">
        <ele>4</ele>
        <time>2013-08-28T10:19:16Z</time>
      </trkpt>
      <trkpt lat="47.37572" lon="-0.81872">
        <ele>4</ele>
        <time>2013-08-28T10:19:17Z</time>
      </trkpt>
      <trkpt lat="47.37567" lon="-0.81859">
        <ele>4</ele>
        <time>2013-08-28T10:19:18Z</time>
      </trkpt>
      <trkpt lat="47.37563" lon="-0.81846">
        <ele>4</ele>
        <time>2013-08-28T10:19:19Z</time>
      </trkpt>
      <trkpt lat="47.37561" lon="-0.81836">
        <ele>4</ele>
        <time>2013-08-28T10:19:20Z</time>
      </trkpt>
      <trkpt lat="47.37558" lon="-0.81826">
        <ele>4</ele>
        <time>2013-08-28T10:19:21Z</time>
      </trkpt>
      <trkpt lat="47.37556" lon="-0.81816">
        <ele>4</ele>
        <time>2013-08-28T10:19:22Z</time>
      </trkpt>
      <trkpt lat="47.37553" lon="-0.81805">
        <ele>4</ele>
        <time>2013-08-28T10:19:23Z</time>
      </trkpt>
      <trkpt lat="47.37549" lon="-0.81793">
        <ele>4</ele>
        <time>2013-08-28T10:19:24Z</time>
      </trkpt>
      <trkpt lat="47.37545" lon="-0.81783">
        <ele>4</ele>
        <time>2013-08-28T10:19:25Z</time>
      </trkpt>
      <trkpt lat="47.37541" lon="-0.81771">
        <ele>4</ele>
        <time>2013-08-28T10:19:26Z</time>
      </trkpt>
      <trkpt lat="47.37539" lon="-0.81761">
        <ele>4</ele>
        <time>2013-08-28T10:19:27Z</time>
      </trkpt>
      <trkpt lat="47.37537" lon="-0.8175">
        <ele>4</ele>
        <time>2013-08-28T10:19:28Z</time>
      </trkpt>
      <trkpt lat="47.37533" lon="-0.81739">
        <ele>4</ele>
        <time>2013-08-28T10:19:29Z</time>
      </trkpt>
      <trkpt lat="47.37529" lon="-0.81726">
        <ele>4</ele>
        <time>2013-08-28T10:19:30Z</time>
      </trkpt>
      <trkpt lat="47.37525" lon="-0.81715">
        <ele>4</ele>
        <time>2013-08-28T10:19:31Z</time>
      </trkpt>
      <trkpt lat="47.37522" lon="-0.81705">
        <ele>4</ele>
        <time>2013-08-28T10:19:32Z</time>
      </trkpt>
      <trkpt lat="47.37519" lon="-0.81694">
        <ele>4</ele>
        <time>2013-08-28T10:19:33Z</time>
      </trkpt>
      <trkpt lat="47.37514" lon="-0.81683">
        <ele>4</ele>
        <time>2013-08-28T10:19:34Z</time>
      </trkpt>
      <trkpt lat="47.3751" lon="-0.81672">
        <ele>4</ele>
        <time>2013-08-28T10:19:35Z</time>
      </trkpt>
      <trkpt lat="47.37506" lon="-0.81662">
        <ele>4</ele>
        <time>2013-08-28T10:19:36Z</time>
      </trkpt>
      <trkpt lat="47.37503" lon="-0.81652">
        <ele>4</ele>
        <time>2013-08-28T10:19:37Z</time>
      </trkpt>
      <trkpt lat="47.37499" lon="-0.81643">
        <ele>4</ele>
        <time>2013-08-28T10:19:38Z</time>
      </trkpt>
      <trkpt lat="47.37495" lon="-0.81633">
        <ele>4</ele>
        <time>2013-08-28T10:19:39Z</time>
      </trkpt>
      <trkpt lat="47.37492" lon="-0.81622">
        <ele>4</ele>
        <time>2013-08-28T10:19:40Z</time>
      </trkpt>
      <trkpt lat="47.37487" lon="-0.81611">
        <ele>4</ele>
        <time>2013-08-28T10:19:41Z</time>
      </trkpt>
      <trkpt lat="47.37483" lon="-0.816">
        <ele>4</ele>
        <time>2013-08-28T10:19:42Z</time>
      </trkpt>
      <trkpt lat="47.3748" lon="-0.81589">
        <ele>4</ele>
        <time>2013-08-28T10:19:43Z</time>
      </trkpt>
      <trkpt lat="47.37476" lon="-0.81578">
        <ele>4</ele>
        <time>2013-08-28T10:19:44Z</time>
      </trkpt>
      <trkpt lat="47.37473" lon="-0.81567">
        <ele>4</ele>
        <time>2013-08-28T10:19:45Z</time>
      </trkpt>
      <trkpt lat="47.3747" lon="-0.81556">
        <ele>4</ele>
        <time>2013-08-28T10:19:46Z</time>
      </trkpt>
      <trkpt lat="47.37467" lon="-0.81545">
        <ele>4</ele>
        <time>2013-08-28T10:19:47Z</time>
      </trkpt>
      <trkpt lat="47.37464" lon="-0.81535">
        <ele>4</ele>
        <time>2013-08-28T10:19:48Z</time>
      </trkpt>
      <trkpt lat="47.3746" lon="-0.81524">
        <ele>4</ele>
        <time>2013-08-28T10:19:49Z</time>
      </trkpt>
      <trkpt lat="47.37456" lon="-0.81511">
        <ele>4</ele>
        <time>2013-08-28T10:19:50Z</time>
      </trkpt>
      <trkpt lat="47.37452" lon="-0.81499">
        <ele>4</ele>
        <time>2013-08-28T10:19:51Z</time>
      </trkpt>
      <trkpt lat="47.37448" lon="-0.81488">
        <ele>4</ele>
        <time>2013-08-28T10:19:52Z</time>
      </trkpt>
      <trkpt lat="47.37444" lon="-0.81476">
        <ele>4</ele>
        <time>2013-08-28T10:19:53Z</time>
      </trkpt>
      <trkpt lat="47.37441" lon="-0.81465">
        <ele>4</ele>
        <time>2013-08-28T10:19:54Z</time>
      </trkpt>
      <trkpt lat="47.37437" lon="-0.81453">
        <ele>4</ele>
        <time>2013-08-28T10:19:55Z</time>
      </trkpt>
      <trkpt lat="47.37434" lon="-0.81442">
        <ele>4</ele>
        <time>2013-08-28T10:19:56Z</time>
      </trkpt>
      <trkpt lat="47.3743" lon="-0.8143">
        <ele>4</ele>
        <time>2013-08-28T10:19:57Z</time>
      </trkpt>
      <trkpt lat="47.37426" lon="-0.81419">
        <ele>4</ele>
        <time>2013-08-28T10:19:58Z</time>
      </trkpt>
      <trkpt lat="47.37423" lon="-0.81408">
        <ele>4</ele>
        <time>2013-08-28T10:19:59Z</time>
      </trkpt>
      <trkpt lat="47.37421" lon="-0.81397">
        <ele>4</ele>
        <time>2013-08-28T10:20:00Z</time>
      </trkpt>
      <trkpt lat="47.37418" lon="-0.81387">
        <ele>4</ele>
        <time>2013-08-28T10:20:01Z</time>
      </trkpt>
      <trkpt lat="47.37415" lon="-0.81376">
        <ele>4</ele>
        <time>2013-08-28T10:20:02Z</time>
      </trkpt>
      <trkpt lat="47.37412" lon="-0.81366">
        <ele>4</ele>
        <time>2013-08-28T10:20:03Z</time>
      </trkpt>
      <trkpt lat="47.3741" lon="-0.81356">
        <ele>4</ele>
        <time>2013-08-28T10:20:04Z</time>
      </trkpt>
      <trkpt lat="47.37407" lon="-0.81345">
        <ele>4</ele>
        <time>2013-08-28T10:20:05Z</time>
      </trkpt>
      <trkpt lat="47.37405" lon="-0.81335">
        <ele>4</ele>
        <time>2013-08-28T10:20:06Z</time>
      </trkpt>
      <trkpt lat="47.37404" lon="-0.81324">
        <ele>4</ele>
        <time>2013-08-28T10:20:07Z</time>
      </trkpt>
      <trkpt lat="47.37402" lon="-0.81313">
        <ele>4</ele>
        <time>2013-08-28T10:20:08Z</time>
      </trkpt>
      <trkpt lat="47.37402" lon="-0.81301">
        <ele>4</ele>
        <time>2013-08-28T10:20:09Z</time>
      </trkpt>
      <trkpt lat="47.37401" lon="-0.81288">
        <ele>4</ele>
        <time>2013-08-28T10:20:10Z</time>
      </trkpt>
      <trkpt lat="47.37401" lon="-0.81276">
        <ele>4</ele>
        <time>2013-08-28T10:20:11Z</time>
      </trkpt>
      <trkpt lat="47.37401" lon="-0.81264">
        <ele>4</ele>
        <time>2013-08-28T10:20:12Z</time>
      </trkpt>
      <trkpt lat="47.37402" lon="-0.81252">
        <ele>4</ele>
        <time>2013-08-28T10:20:13Z</time>
      </trkpt>
      <trkpt lat="47.37402" lon="-0.8124">
        <ele>4</ele>
        <time>2013-08-28T10:20:14Z</time>
      </trkpt>
      <trkpt lat="47.37402" lon="-0.81228">
        <ele>4</ele>
        <time>2013-08-28T10:20:15Z</time>
      </trkpt>
      <trkpt lat="47.37401" lon="-0.81216">
        <ele>4</ele>
        <time>2013-08-28T10:20:16Z</time>
      </trkpt>
      <trkpt lat="47.374" lon="-0.81203">
        <ele>4</ele>
        <time>2013-08-28T10:20:17Z</time>
      </trkpt>
      <trkpt lat="47.37399" lon="-0.81191">
        <ele>4</ele>
        <time>2013-08-28T10:20:18Z</time>
      </trkpt>
      <trkpt lat="47.37397" lon="-0.81178">
        <ele>4</ele>
        <time>2013-08-28T10:20:19Z</time>
      </trkpt>
      <trkpt lat="47.37396" lon="-0.81167">
        <ele>4</ele>
        <time>2013-08-28T10:20:20Z</time>
      </trkpt>
      <trkpt lat="47.37394" lon="-0.81155">
        <ele>4</ele>
        <time>2013-08-28T10:20:21Z</time>
      </trkpt>
      <trkpt lat="47.37392" lon="-0.81144">
        <ele>4</ele>
        <time>2013-08-28T10:20:22Z</time>
      </trkpt>
      <trkpt lat="47.37391" lon="-0.81133">
        <ele>4</ele>
        <time>2013-08-28T10:20:23Z</time>
      </trkpt>
      <trkpt lat="47.37388" lon="-0.81121">
        <ele>4</ele>
        <time>2013-08-28T10:20:24Z</time>
      </trkpt>
      <trkpt lat="47.37387" lon="-0.81111">
        <ele>4</ele>
        <time>2013-08-28T10:20:25Z</time>
      </trkpt>
      <trkpt lat="47.37386" lon="-0.811">
        <ele>4</ele>
        <time>2013-08-28T10:20:26Z</time>
      </trkpt>
      <trkpt lat="47.37384" lon="-0.81087">
        <ele>4</ele>
        <time>2013-08-28T10:20:27Z</time>
      </trkpt>
      <trkpt lat="47.37382" lon="-0.81075">
        <ele>4</ele>
        <time>2013-08-28T10:20:28Z</time>
      </trkpt>
      <trkpt lat="47.3738" lon="-0.81063">
        <ele>4</ele>
        <time>2013-08-28T10:20:29Z</time>
      </trkpt>
      <trkpt lat="47.37377" lon="-0.81051">
        <ele>4</ele>
        <time>2013-08-28T10:20:30Z</time>
      </trkpt>
      <trkpt lat="47.37376" lon="-0.8104">
        <ele>4</ele>
        <time>2013-08-28T10:20:31Z</time>
      </trkpt>
      <trkpt lat="47.37374" lon="-0.81027">
        <ele>4</ele>
        <time>2013-08-28T10:20:32Z</time>
      </trkpt>
      <trkpt lat="47.37371" lon="-0.81015">
        <ele>4</ele>
        <time>2013-08-28T10:20:33Z</time>
      </trkpt>
      <trkpt lat="47.37369" lon="-0.81003">
        <ele>4</ele>
        <time>2013-08-28T10:20:34Z</time>
      </trkpt>
      <trkpt lat="47.37367" lon="-0.80993">
        <ele>4</ele>
        <time>2013-08-28T10:20:35Z</time>
      </trkpt>
      <trkpt lat="47.37364" lon="-0.80982">
        <ele>4</ele>
        <time>2013-08-28T10:20:36Z</time>
      </trkpt>
      <trkpt lat="47.37361" lon="-0.8097">
        <ele>4</ele>
        <time>2013-08-28T10:20:37Z</time>
      </trkpt>
      <trkpt lat="47.37358" lon="-0.80959">
        <ele>4</ele>
        <time>2013-08-28T10:20:38Z</time>
      </trkpt>
      <trkpt lat="47.37355" lon="-0.80949">
        <ele>4</ele>
        <time>2013-08-28T10:20:39Z</time>
      </trkpt>
      <trkpt lat="47.37352" lon="-0.80938">
        <ele>4</ele>
        <time>2013-08-28T10:20:40Z</time>
      </trkpt>
      <trkpt lat="47.37349" lon="-0.80927">
        <ele>4</ele>
        <time>2013-08-28T10:20:41Z</time>
      </trkpt>
      <trkpt lat="47.37346" lon="-0.80917">
        <ele>4</ele>
        <time>2013-08-28T10:20:42Z</time>
      </trkpt>
      <trkpt lat="47.37342" lon="-0.80906">
        <ele>4</ele>
        <time>2013-08-28T10:20:43Z</time>
      </trkpt>
      <trkpt lat="47.37339" lon="-0.80896">
        <ele>4</ele>
        <time>2013-08-28T10:20:44Z</time>
      </trkpt>
      <trkpt lat="47.37335" lon="-0.80885">
        <ele>4</ele>
        <time>2013-08-28T10:20:45Z</time>
      </trkpt>
      <trkpt lat="47.37331" lon="-0.80875">
        <ele>4</ele>
        <time>2013-08-28T10:20:46Z</time>
      </trkpt>
      <trkpt lat="47.37328" lon="-0.80865">
        <ele>4</ele>
        <time>2013-08-28T10:20:47Z</time>
      </trkpt>
      <trkpt lat="47.37323" lon="-0.80853">
        <ele>4</ele>
        <time>2013-08-28T10:20:48Z</time>
      </trkpt>
      <trkpt lat="47.37318" lon="-0.80843">
        <ele>4</ele>
        <time>2013-08-28T10:20:49Z</time>
      </trkpt>
      <trkpt lat="47.37314" lon="-0.80833">
        <ele>4</ele>
        <time>2013-08-28T10:20:50Z</time>
      </trkpt>
      <trkpt lat="47.37309" lon="-0.80822">
        <ele>4</ele>
        <time>2013-08-28T10:20:51Z</time>
      </trkpt>
      <trkpt lat="47.37304" lon="-0.80811">
        <ele>4</ele>
        <time>2013-08-28T10:20:52Z</time>
      </trkpt>
      <trkpt lat="47.37299" lon="-0.808">
        <ele>4</ele>
        <time>2013-08-28T10:20:53Z</time>
      </trkpt>
      <trkpt lat="47.37295" lon="-0.80791">
        <ele>4</ele>
        <time>2013-08-28T10:20:54Z</time>
      </trkpt>
      <trkpt lat="47.3729" lon="-0.8078">
        <ele>4</ele>
        <time>2013-08-28T10:20:55Z</time>
      </trkpt>
      <trkpt lat="47.37286" lon="-0.80769">
        <ele>4</ele>
        <time>2013-08-28T10:20:56Z</time>
      </trkpt>
      <trkpt lat="47.37283" lon="-0.80759">
        <ele>4</ele>
        <time>2013-08-28T10:20:57Z</time>
      </trkpt>
      <trkpt lat="47.37279" lon="-0.80748">
        <ele>4</ele>
        <time>2013-08-28T10:20:58Z</time>
      </trkpt>
      <trkpt lat="47.37275" lon="-0.80737">
        <ele>4</ele>
        <time>2013-08-28T10:20:59Z</time>
      </trkpt>
      <trkpt lat="47.37272" lon="-0.80726">
        <ele>4</ele>
        <time>2013-08-28T10:21:00Z</time>
      </trkpt>
      <trkpt lat="47.37269" lon="-0.80713">
        <ele>4</ele>
        <time>2013-08-28T10:21:01Z</time>
      </trkpt>
      <trkpt lat="47.37265" lon="-0.80702">
        <ele>4</ele>
        <time>2013-08-28T10:21:02Z</time>
      </trkpt>
      <trkpt lat="47.37262" lon="-0.8069">
        <ele>4</ele>
        <time>2013-08-28T10:21:03Z</time>
      </trkpt>
      <trkpt lat="47.37259" lon="-0.80678">
        <ele>4</ele>
        <time>2013-08-28T10:21:04Z</time>
      </trkpt>
      <trkpt lat="47.37256" lon="-0.80666">
        <ele>4</ele>
        <time>2013-08-28T10:21:05Z</time>
      </trkpt>
      <trkpt lat="47.37253" lon="-0.80655">
        <ele>4</ele>
        <time>2013-08-28T10:21:06Z</time>
      </trkpt>
      <trkpt lat="47.3725" lon="-0.80642">
        <ele>4</ele>
        <time>2013-08-28T10:21:07Z</time>
      </trkpt>
      <trkpt lat="47.37247" lon="-0.80631">
        <ele>4</ele>
        <time>2013-08-28T10:21:08Z</time>
      </trkpt>
      <trkpt lat="47.37245" lon="-0.8062">
        <ele>4</ele>
        <time>2013-08-28T10:21:09Z</time>
      </trkpt>
      <trkpt lat="47.37242" lon="-0.80608">
        <ele>4</ele>
        <time>2013-08-28T10:21:10Z</time>
      </trkpt>
      <trkpt lat="47.37239" lon="-0.80597">
        <ele>4</ele>
        <time>2013-08-28T10:21:11Z</time>
      </trkpt>
      <trkpt lat="47.37237" lon="-0.80586">
        <ele>4</ele>
        <time>2013-08-28T10:21:12Z</time>
      </trkpt>
      <trkpt lat="47.37234" lon="-0.80575">
        <ele>4</ele>
        <time>2013-08-28T10:21:13Z</time>
      </trkpt>
      <trkpt lat="47.37231" lon="-0.80563">
        <ele>4</ele>
        <time>2013-08-28T10:21:14Z</time>
      </trkpt>
      <trkpt lat="47.37228" lon="-0.80553">
        <ele>4</ele>
        <time>2013-08-28T10:21:15Z</time>
      </trkpt>
      <trkpt lat="47.37225" lon="-0.80542">
        <ele>4</ele>
        <time>2013-08-28T10:21:16Z</time>
      </trkpt>
      <trkpt lat="47.37222" lon="-0.80531">
        <ele>4</ele>
        <time>2013-08-28T10:21:17Z</time>
      </trkpt>
      <trkpt lat="47.3722" lon="-0.8052">
        <ele>4</ele>
        <time>2013-08-28T10:21:18Z</time>
      </trkpt>
      <trkpt lat="47.37217" lon="-0.80509">
        <ele>4</ele>
        <time>2013-08-28T10:21:19Z</time>
      </trkpt>
      <trkpt lat="47.37214" lon="-0.80498">
        <ele>4</ele>
        <time>2013-08-28T10:21:20Z</time>
      </trkpt>
      <trkpt lat="47.37212" lon="-0.80488">
        <ele>4</ele>
        <time>2013-08-28T10:21:21Z</time>
      </trkpt>
      <trkpt lat="47.37209" lon="-0.80477">
        <ele>4</ele>
        <time>2013-08-28T10:21:22Z</time>
      </trkpt>
      <trkpt lat="47.37205" lon="-0.80465">
        <ele>4</ele>
        <time>2013-08-28T10:21:23Z</time>
      </trkpt>
      <trkpt lat="47.37202" lon="-0.80453">
        <ele>4</ele>
        <time>2013-08-28T10:21:24Z</time>
      </trkpt>
      <trkpt lat="47.372" lon="-0.80442">
        <ele>4</ele>
        <time>2013-08-28T10:21:25Z</time>
      </trkpt>
      <trkpt lat="47.37197" lon="-0.80431">
        <ele>4</ele>
        <time>2013-08-28T10:21:26Z</time>
      </trkpt>
      <trkpt lat="47.37194" lon="-0.80419">
        <ele>4</ele>
        <time>2013-08-28T10:21:27Z</time>
      </trkpt>
      <trkpt lat="47.37192" lon="-0.80408">
        <ele>4</ele>
        <time>2013-08-28T10:21:28Z</time>
      </trkpt>
      <trkpt lat="47.3719" lon="-0.80396">
        <ele>4</ele>
        <time>2013-08-28T10:21:29Z</time>
      </trkpt>
      <trkpt lat="47.37188" lon="-0.80385">
        <ele>4</ele>
        <time>2013-08-28T10:21:30Z</time>
      </trkpt>
      <trkpt lat="47.37187" lon="-0.80374">
        <ele>4</ele>
        <time>2013-08-28T10:21:31Z</time>
      </trkpt>
      <trkpt lat="47.37185" lon="-0.80362">
        <ele>4</ele>
        <time>2013-08-28T10:21:32Z</time>
      </trkpt>
      <trkpt lat="47.37183" lon="-0.8035">
        <ele>4</ele>
        <time>2013-08-28T10:21:33Z</time>
      </trkpt>
      <trkpt lat="47.37181" lon="-0.8034">
        <ele>4</ele>
        <time>2013-08-28T10:21:34Z</time>
      </trkpt>
      <trkpt lat="47.37179" lon="-0.80329">
        <ele>5</ele>
        <time>2013-08-28T10:21:35Z</time>
      </trkpt>
      <trkpt lat="47.37176" lon="-0.80318">
        <ele>5</ele>
        <time>2013-08-28T10:21:36Z</time>
      </trkpt>
      <trkpt lat="47.37175" lon="-0.80308">
        <ele>5</ele>
        <time>2013-08-28T10:21:37Z</time>
      </trkpt>
      <trkpt lat="47.37173" lon="-0.80297">
        <ele>5</ele>
        <time>2013-08-28T10:21:38Z</time>
      </trkpt>
      <trkpt lat="47.37171" lon="-0.80287">
        <ele>5</ele>
        <time>2013-08-28T10:21:39Z</time>
      </trkpt>
      <trkpt lat="47.37168" lon="-0.80277">
        <ele>5</ele>
        <time>2013-08-28T10:21:40Z</time>
      </trkpt>
      <trkpt lat="47.37165" lon="-0.80266">
        <ele>5</ele>
        <time>2013-08-28T10:21:41Z</time>
      </trkpt>
      <trkpt lat="47.37163" lon="-0.80256">
        <ele>5</ele>
        <time>2013-08-28T10:21:42Z</time>
      </trkpt>
      <trkpt lat="47.3716" lon="-0.80246">
        <ele>5</ele>
        <time>2013-08-28T10:21:43Z</time>
      </trkpt>
      <trkpt lat="47.37159" lon="-0.80236">
        <ele>5</ele>
        <time>2013-08-28T10:21:44Z</time>
      </trkpt>
      <trkpt lat="47.37157" lon="-0.80227">
        <ele>5</ele>
        <time>2013-08-28T10:21:45Z</time>
      </trkpt>
      <trkpt lat="47.37156" lon="-0.80216">
        <ele>5</ele>
        <time>2013-08-28T10:21:46Z</time>
      </trkpt>
      <trkpt lat="47.37155" lon="-0.80207">
        <ele>5</ele>
        <time>2013-08-28T10:21:47Z</time>
      </trkpt>
      <trkpt lat="47.37156" lon="-0.80199">
        <ele>5</ele>
        <time>2013-08-28T10:21:48Z</time>
      </trkpt>
      <trkpt lat="47.37155" lon="-0.80189">
        <ele>5</ele>
        <time>2013-08-28T10:21:49Z</time>
      </trkpt>
      <trkpt lat="47.37155" lon="-0.8018">
        <ele>5</ele>
        <time>2013-08-28T10:21:50Z</time>
      </trkpt>
      <trkpt lat="47.37155" lon="-0.8017">
        <ele>5</ele>
        <time>2013-08-28T10:21:51Z</time>
      </trkpt>
      <trkpt lat="47.37154" lon="-0.8016">
        <ele>5</ele>
        <time>2013-08-28T10:21:52Z</time>
      </trkpt>
      <trkpt lat="47.37153" lon="-0.8015">
        <ele>5</ele>
        <time>2013-08-28T10:21:53Z</time>
      </trkpt>
      <trkpt lat="47.37152" lon="-0.80141">
        <ele>5</ele>
        <time>2013-08-28T10:21:54Z</time>
      </trkpt>
      <trkpt lat="47.37152" lon="-0.80132">
        <ele>5</ele>
        <time>2013-08-28T10:21:55Z</time>
      </trkpt>
      <trkpt lat="47.37151" lon="-0.80122">
        <ele>5</ele>
        <time>2013-08-28T10:21:56Z</time>
      </trkpt>
      <trkpt lat="47.37149" lon="-0.80111">
        <ele>5</ele>
        <time>2013-08-28T10:21:57Z</time>
      </trkpt>
      <trkpt lat="47.37147" lon="-0.80101">
        <ele>5</ele>
        <time>2013-08-28T10:21:58Z</time>
      </trkpt>
      <trkpt lat="47.37145" lon="-0.80092">
        <ele>5</ele>
        <time>2013-08-28T10:21:59Z</time>
      </trkpt>
      <trkpt lat="47.37143" lon="-0.80081">
        <ele>5</ele>
        <time>2013-08-28T10:22:00Z</time>
      </trkpt>
      <trkpt lat="47.3714" lon="-0.80072">
        <ele>5</ele>
        <time>2013-08-28T10:22:01Z</time>
      </trkpt>
      <trkpt lat="47.37138" lon="-0.80063">
        <ele>5</ele>
        <time>2013-08-28T10:22:02Z</time>
      </trkpt>
      <trkpt lat="47.37136" lon="-0.80054">
        <ele>5</ele>
        <time>2013-08-28T10:22:03Z</time>
      </trkpt>
      <trkpt lat="47.37134" lon="-0.80045">
        <ele>5</ele>
        <time>2013-08-28T10:22:04Z</time>
      </trkpt>
      <trkpt lat="47.37131" lon="-0.80037">
        <ele>5</ele>
        <time>2013-08-28T10:22:05Z</time>
      </trkpt>
      <trkpt lat="47.37129" lon="-0.80029">
        <ele>5</ele>
        <time>2013-08-28T10:22:06Z</time>
      </trkpt>
      <trkpt lat="47.37126" lon="-0.8002">
        <ele>5</ele>
        <time>2013-08-28T10:22:07Z</time>
      </trkpt>
      <trkpt lat="47.37125" lon="-0.80013">
        <ele>5</ele>
        <time>2013-08-28T10:22:08Z</time>
      </trkpt>
      <trkpt lat="47.37122" lon="-0.80004">
        <ele>5</ele>
        <time>2013-08-28T10:22:09Z</time>
      </trkpt>
      <trkpt lat="47.3712" lon="-0.79996">
        <ele>5</ele>
        <time>2013-08-28T10:22:10Z</time>
      </trkpt>
      <trkpt lat="47.37118" lon="-0.79988">
        <ele>5</ele>
        <time>2013-08-28T10:22:11Z</time>
      </trkpt>
      <trkpt lat="47.37115" lon="-0.79979">
        <ele>5</ele>
        <time>2013-08-28T10:22:12Z</time>
      </trkpt>
      <trkpt lat="47.37112" lon="-0.7997">
        <ele>4</ele>
        <time>2013-08-28T10:22:13Z</time>
      </trkpt>
      <trkpt lat="47.37109" lon="-0.79961">
        <ele>4</ele>
        <time>2013-08-28T10:22:14Z</time>
      </trkpt>
      <trkpt lat="47.37107" lon="-0.79953">
        <ele>4</ele>
        <time>2013-08-28T10:22:15Z</time>
      </trkpt>
      <trkpt lat="47.37105" lon="-0.79944">
        <ele>4</ele>
        <time>2013-08-28T10:22:16Z</time>
      </trkpt>
      <trkpt lat="47.37103" lon="-0.79935">
        <ele>3</ele>
        <time>2013-08-28T10:22:17Z</time>
      </trkpt>
      <trkpt lat="47.37101" lon="-0.79927">
        <ele>3</ele>
        <time>2013-08-28T10:22:18Z</time>
      </trkpt>
      <trkpt lat="47.37099" lon="-0.79918">
        <ele>3</ele>
        <time>2013-08-28T10:22:19Z</time>
      </trkpt>
      <trkpt lat="47.37097" lon="-0.7991">
        <ele>2</ele>
        <time>2013-08-28T10:22:20Z</time>
      </trkpt>
      <trkpt lat="47.37095" lon="-0.79902">
        <ele>2</ele>
        <time>2013-08-28T10:22:21Z</time>
      </trkpt>
      <trkpt lat="47.37093" lon="-0.79893">
        <ele>2</ele>
        <time>2013-08-28T10:22:22Z</time>
      </trkpt>
      <trkpt lat="47.3709" lon="-0.79885">
        <ele>2</ele>
        <time>2013-08-28T10:22:23Z</time>
      </trkpt>
      <trkpt lat="47.37088" lon="-0.79876">
        <ele>2</ele>
        <time>2013-08-28T10:22:24Z</time>
      </trkpt>
      <trkpt lat="47.37086" lon="-0.79868">
        <ele>2</ele>
        <time>2013-08-28T10:22:25Z</time>
      </trkpt>
      <trkpt lat="47.37085" lon="-0.79861">
        <ele>2</ele>
        <time>2013-08-28T10:22:26Z</time>
      </trkpt>
      <trkpt lat="47.37083" lon="-0.79853">
        <ele>2</ele>
        <time>2013-08-28T10:22:27Z</time>
      </trkpt>
      <trkpt lat="47.3708" lon="-0.79845">
        <ele>2</ele>
        <time>2013-08-28T10:22:28Z</time>
      </trkpt>
      <trkpt lat="47.37078" lon="-0.79837">
        <ele>2</ele>
        <time>2013-08-28T10:22:29Z</time>
      </trkpt>
      <trkpt lat="47.37076" lon="-0.7983">
        <ele>2</ele>
        <time>2013-08-28T10:22:30Z</time>
      </trkpt>
      <trkpt lat="47.37075" lon="-0.79823">
        <ele>2</ele>
        <time>2013-08-28T10:22:31Z</time>
      </trkpt>
      <trkpt lat="47.37074" lon="-0.79816">
        <ele>2</ele>
        <time>2013-08-28T10:22:32Z</time>
      </trkpt>
      <trkpt lat="47.37072" lon="-0.79808">
        <ele>2</ele>
        <time>2013-08-28T10:22:33Z</time>
      </trkpt>
      <trkpt lat="47.3707" lon="-0.79799">
        <ele>2</ele>
        <time>2013-08-28T10:22:34Z</time>
      </trkpt>
      <trkpt lat="47.37067" lon="-0.79791">
        <ele>2</ele>
        <time>2013-08-28T10:22:35Z</time>
      </trkpt>
      <trkpt lat="47.37064" lon="-0.79782">
        <ele>2</ele>
        <time>2013-08-28T10:22:36Z</time>
      </trkpt>
      <trkpt lat="47.37062" lon="-0.79773">
        <ele>2</ele>
        <time>2013-08-28T10:22:37Z</time>
      </trkpt>
      <trkpt lat="47.37059" lon="-0.79765">
        <ele>2</ele>
        <time>2013-08-28T10:22:38Z</time>
      </trkpt>
      <trkpt lat="47.37057" lon="-0.79756">
        <ele>2</ele>
        <time>2013-08-28T10:22:39Z</time>
      </trkpt>
      <trkpt lat="47.37055" lon="-0.79748">
        <ele>2</ele>
        <time>2013-08-28T10:22:40Z</time>
      </trkpt>
      <trkpt lat="47.37053" lon="-0.7974">
        <ele>2</ele>
        <time>2013-08-28T10:22:41Z</time>
      </trkpt>
      <trkpt lat="47.37051" lon="-0.79732">
        <ele>2</ele>
        <time>2013-08-28T10:22:42Z</time>
      </trkpt>
      <trkpt lat="47.37048" lon="-0.79723">
        <ele>2</ele>
        <time>2013-08-28T10:22:43Z</time>
      </trkpt>
      <trkpt lat="47.37046" lon="-0.79714">
        <ele>2</ele>
        <time>2013-08-28T10:22:44Z</time>
      </trkpt>
      <trkpt lat="47.37043" lon="-0.79705">
        <ele>2</ele>
        <time>2013-08-28T10:22:45Z</time>
      </trkpt>
      <trkpt lat="47.37041" lon="-0.79696">
        <ele>2</ele>
        <time>2013-08-28T10:22:46Z</time>
      </trkpt>
      <trkpt lat="47.37039" lon="-0.79687">
        <ele>2</ele>
        <time>2013-08-28T10:22:47Z</time>
      </trkpt>
      <trkpt lat="47.37036" lon="-0.79677">
        <ele>2</ele>
        <time>2013-08-28T10:22:48Z</time>
      </trkpt>
      <trkpt lat="47.37033" lon="-0.79668">
        <ele>2</ele>
        <time>2013-08-28T10:22:49Z</time>
      </trkpt>
      <trkpt lat="47.3703" lon="-0.79659">
        <ele>2</ele>
        <time>2013-08-28T10:22:50Z</time>
      </trkpt>
      <trkpt lat="47.37027" lon="-0.7965">
        <ele>2</ele>
        <time>2013-08-28T10:22:51Z</time>
      </trkpt>
      <trkpt lat="47.37024" lon="-0.7964">
        <ele>2</ele>
        <time>2013-08-28T10:22:52Z</time>
      </trkpt>
      <trkpt lat="47.37022" lon="-0.7963">
        <ele>2</ele>
        <time>2013-08-28T10:22:53Z</time>
      </trkpt>
      <trkpt lat="47.37019" lon="-0.7962">
        <ele>2</ele>
        <time>2013-08-28T10:22:54Z</time>
      </trkpt>
      <trkpt lat="47.37016" lon="-0.79611">
        <ele>2</ele>
        <time>2013-08-28T10:22:55Z</time>
      </trkpt>
      <trkpt lat="47.37013" lon="-0.796">
        <ele>2</ele>
        <time>2013-08-28T10:22:56Z</time>
      </trkpt>
      <trkpt lat="47.37011" lon="-0.79591">
        <ele>2</ele>
        <time>2013-08-28T10:22:57Z</time>
      </trkpt>
      <trkpt lat="47.37009" lon="-0.79582">
        <ele>2</ele>
        <time>2013-08-28T10:22:58Z</time>
      </trkpt>
      <trkpt lat="47.37006" lon="-0.79572">
        <ele>2</ele>
        <time>2013-08-28T10:22:59Z</time>
      </trkpt>
      <trkpt lat="47.37003" lon="-0.79562">
        <ele>2</ele>
        <time>2013-08-28T10:23:00Z</time>
      </trkpt>
      <trkpt lat="47.37001" lon="-0.79553">
        <ele>2</ele>
        <time>2013-08-28T10:23:01Z</time>
      </trkpt>
      <trkpt lat="47.36998" lon="-0.79544">
        <ele>2</ele>
        <time>2013-08-28T10:23:02Z</time>
      </trkpt>
      <trkpt lat="47.36995" lon="-0.79533">
        <ele>2</ele>
        <time>2013-08-28T10:23:03Z</time>
      </trkpt>
      <trkpt lat="47.36993" lon="-0.79523">
        <ele>2</ele>
        <time>2013-08-28T10:23:04Z</time>
      </trkpt>
      <trkpt lat="47.36991" lon="-0.79514">
        <ele>2</ele>
        <time>2013-08-28T10:23:05Z</time>
      </trkpt>
      <trkpt lat="47.36988" lon="-0.79505">
        <ele>2</ele>
        <time>2013-08-28T10:23:06Z</time>
      </trkpt>
      <trkpt lat="47.36985" lon="-0.79495">
        <ele>2</ele>
        <time>2013-08-28T10:23:07Z</time>
      </trkpt>
      <trkpt lat="47.36983" lon="-0.79485">
        <ele>2</ele>
        <time>2013-08-28T10:23:08Z</time>
      </trkpt>
      <trkpt lat="47.3698" lon="-0.79475">
        <ele>2</ele>
        <time>2013-08-28T10:23:09Z</time>
      </trkpt>
      <trkpt lat="47.36977" lon="-0.79464">
        <ele>2</ele>
        <time>2013-08-28T10:23:10Z</time>
      </trkpt>
      <trkpt lat="47.36974" lon="-0.79454">
        <ele>2</ele>
        <time>2013-08-28T10:23:11Z</time>
      </trkpt>
      <trkpt lat="47.36972" lon="-0.79445">
        <ele>2</ele>
        <time>2013-08-28T10:23:12Z</time>
      </trkpt>
      <trkpt lat="47.36969" lon="-0.79436">
        <ele>2</ele>
        <time>2013-08-28T10:23:13Z</time>
      </trkpt>
      <trkpt lat="47.36967" lon="-0.79426">
        <ele>2</ele>
        <time>2013-08-28T10:23:14Z</time>
      </trkpt>
      <trkpt lat="47.36964" lon="-0.79417">
        <ele>2</ele>
        <time>2013-08-28T10:23:15Z</time>
      </trkpt>
      <trkpt lat="47.36961" lon="-0.79407">
        <ele>2</ele>
        <time>2013-08-28T10:23:16Z</time>
      </trkpt>
      <trkpt lat="47.36959" lon="-0.79398">
        <ele>2</ele>
        <time>2013-08-28T10:23:17Z</time>
      </trkpt>
      <trkpt lat="47.36956" lon="-0.79388">
        <ele>2</ele>
        <time>2013-08-28T10:23:18Z</time>
      </trkpt>
      <trkpt lat="47.36954" lon="-0.79379">
        <ele>2</ele>
        <time>2013-08-28T10:23:19Z</time>
      </trkpt>
      <trkpt lat="47.36952" lon="-0.79369">
        <ele>2</ele>
        <time>2013-08-28T10:23:20Z</time>
      </trkpt>
      <trkpt lat="47.36949" lon="-0.7936">
        <ele>2</ele>
        <time>2013-08-28T10:23:21Z</time>
      </trkpt>
      <trkpt lat="47.36946" lon="-0.7935">
        <ele>2</ele>
        <time>2013-08-28T10:23:22Z</time>
      </trkpt>
      <trkpt lat="47.36943" lon="-0.7934">
        <ele>2</ele>
        <time>2013-08-28T10:23:23Z</time>
      </trkpt>
      <trkpt lat="47.36941" lon="-0.79331">
        <ele>2</ele>
        <time>2013-08-28T10:23:24Z</time>
      </trkpt>
      <trkpt lat="47.36938" lon="-0.79321">
        <ele>2</ele>
        <time>2013-08-28T10:23:25Z</time>
      </trkpt>
      <trkpt lat="47.36936" lon="-0.79312">
        <ele>2</ele>
        <time>2013-08-28T10:23:26Z</time>
      </trkpt>
      <trkpt lat="47.36934" lon="-0.79303">
        <ele>2</ele>
        <time>2013-08-28T10:23:27Z</time>
      </trkpt>
      <trkpt lat="47.36931" lon="-0.79294">
        <ele>2</ele>
        <time>2013-08-28T10:23:28Z</time>
      </trkpt>
      <trkpt lat="47.36929" lon="-0.79284">
        <ele>2</ele>
        <time>2013-08-28T10:23:29Z</time>
      </trkpt>
      <trkpt lat="47.36926" lon="-0.79274">
        <ele>2</ele>
        <time>2013-08-28T10:23:30Z</time>
      </trkpt>
      <trkpt lat="47.36924" lon="-0.79264">
        <ele>1</ele>
        <time>2013-08-28T10:23:31Z</time>
      </trkpt>
      <trkpt lat="47.36921" lon="-0.79254">
        <ele>1</ele>
        <time>2013-08-28T10:23:32Z</time>
      </trkpt>
      <trkpt lat="47.36918" lon="-0.79244">
        <ele>1</ele>
        <time>2013-08-28T10:23:33Z</time>
      </trkpt>
      <trkpt lat="47.36915" lon="-0.79234">
        <ele>1</ele>
        <time>2013-08-28T10:23:34Z</time>
      </trkpt>
      <trkpt lat="47.36913" lon="-0.79223">
        <ele>1</ele>
        <time>2013-08-28T10:23:35Z</time>
      </trkpt>
      <trkpt lat="47.36912" lon="-0.79213">
        <ele>1</ele>
        <time>2013-08-28T10:23:36Z</time>
      </trkpt>
      <trkpt lat="47.3691" lon="-0.79202">
        <ele>1</ele>
        <time>2013-08-28T10:23:37Z</time>
      </trkpt>
      <trkpt lat="47.36909" lon="-0.79192">
        <ele>1</ele>
        <time>2013-08-28T10:23:38Z</time>
      </trkpt>
      <trkpt lat="47.36908" lon="-0.79181">
        <ele>1</ele>
        <time>2013-08-28T10:23:39Z</time>
      </trkpt>
      <trkpt lat="47.36908" lon="-0.79171">
        <ele>1</ele>
        <time>2013-08-28T10:23:40Z</time>
      </trkpt>
      <trkpt lat="47.36908" lon="-0.7916">
        <ele>1</ele>
        <time>2013-08-28T10:23:41Z</time>
      </trkpt>
      <trkpt lat="47.36908" lon="-0.79149">
        <ele>1</ele>
        <time>2013-08-28T10:23:42Z</time>
      </trkpt>
      <trkpt lat="47.36909" lon="-0.79139">
        <ele>1</ele>
        <time>2013-08-28T10:23:43Z</time>
      </trkpt>
      <trkpt lat="47.36909" lon="-0.79128">
        <ele>1</ele>
        <time>2013-08-28T10:23:44Z</time>
      </trkpt>
      <trkpt lat="47.3691" lon="-0.79118">
        <ele>1</ele>
        <time>2013-08-28T10:23:45Z</time>
      </trkpt>
      <trkpt lat="47.3691" lon="-0.79107">
        <ele>2</ele>
        <time>2013-08-28T10:23:46Z</time>
      </trkpt>
      <trkpt lat="47.36911" lon="-0.79096">
        <ele>2</ele>
        <time>2013-08-28T10:23:47Z</time>
      </trkpt>
      <trkpt lat="47.36911" lon="-0.79086">
        <ele>3</ele>
        <time>2013-08-28T10:23:48Z</time>
      </trkpt>
      <trkpt lat="47.36911" lon="-0.79076">
        <ele>3</ele>
        <time>2013-08-28T10:23:49Z</time>
      </trkpt>
      <trkpt lat="47.3691" lon="-0.79065">
        <ele>3</ele>
        <time>2013-08-28T10:23:50Z</time>
      </trkpt>
      <trkpt lat="47.3691" lon="-0.79055">
        <ele>4</ele>
        <time>2013-08-28T10:23:51Z</time>
      </trkpt>
      <trkpt lat="47.36909" lon="-0.79044">
        <ele>4</ele>
        <time>2013-08-28T10:23:52Z</time>
      </trkpt>
      <trkpt lat="47.36909" lon="-0.79033">
        <ele>4</ele>
        <time>2013-08-28T10:23:53Z</time>
      </trkpt>
      <trkpt lat="47.36909" lon="-0.79022">
        <ele>4</ele>
        <time>2013-08-28T10:23:54Z</time>
      </trkpt>
      <trkpt lat="47.36908" lon="-0.79011">
        <ele>4</ele>
        <time>2013-08-28T10:23:55Z</time>
      </trkpt>
      <trkpt lat="47.36907" lon="-0.79">
        <ele>4</ele>
        <time>2013-08-28T10:23:56Z</time>
      </trkpt>
      <trkpt lat="47.36906" lon="-0.7899">
        <ele>4</ele>
        <time>2013-08-28T10:23:57Z</time>
      </trkpt>
      <trkpt lat="47.36905" lon="-0.78979">
        <ele>4</ele>
        <time>2013-08-28T10:23:58Z</time>
      </trkpt>
      <trkpt lat="47.36904" lon="-0.78968">
        <ele>4</ele>
        <time>2013-08-28T10:23:59Z</time>
      </trkpt>
      <trkpt lat="47.36903" lon="-0.78957">
        <ele>4</ele>
        <time>2013-08-28T10:24:00Z</time>
      </trkpt>
      <trkpt lat="47.36902" lon="-0.78946">
        <ele>4</ele>
        <time>2013-08-28T10:24:01Z</time>
      </trkpt>
      <trkpt lat="47.36901" lon="-0.78936">
        <ele>4</ele>
        <time>2013-08-28T10:24:02Z</time>
      </trkpt>
      <trkpt lat="47.369" lon="-0.78925">
        <ele>4</ele>
        <time>2013-08-28T10:24:03Z</time>
      </trkpt>
      <trkpt lat="47.36898" lon="-0.78916">
        <ele>4</ele>
        <time>2013-08-28T10:24:04Z</time>
      </trkpt>
      <trkpt lat="47.36898" lon="-0.78905">
        <ele>4</ele>
        <time>2013-08-28T10:24:05Z</time>
      </trkpt>
      <trkpt lat="47.36897" lon="-0.78895">
        <ele>4</ele>
        <time>2013-08-28T10:24:06Z</time>
      </trkpt>
      <trkpt lat="47.36897" lon="-0.78885">
        <ele>4</ele>
        <time>2013-08-28T10:24:07Z</time>
      </trkpt>
      <trkpt lat="47.36895" lon="-0.78875">
        <ele>4</ele>
        <time>2013-08-28T10:24:08Z</time>
      </trkpt>
      <trkpt lat="47.36895" lon="-0.78865">
        <ele>4</ele>
        <time>2013-08-28T10:24:09Z</time>
      </trkpt>
      <trkpt lat="47.36894" lon="-0.78856">
        <ele>4</ele>
        <time>2013-08-28T10:24:10Z</time>
      </trkpt>
      <trkpt lat="47.36893" lon="-0.78846">
        <ele>4</ele>
        <time>2013-08-28T10:24:11Z</time>
      </trkpt>
      <trkpt lat="47.36892" lon="-0.78836">
        <ele>4</ele>
        <time>2013-08-28T10:24:12Z</time>
      </trkpt>
      <trkpt lat="47.36891" lon="-0.78826">
        <ele>4</ele>
        <time>2013-08-28T10:24:13Z</time>
      </trkpt>
      <trkpt lat="47.3689" lon="-0.78816">
        <ele>4</ele>
        <time>2013-08-28T10:24:14Z</time>
      </trkpt>
      <trkpt lat="47.36889" lon="-0.78806">
        <ele>4</ele>
        <time>2013-08-28T10:24:15Z</time>
      </trkpt>
      <trkpt lat="47.36889" lon="-0.78796">
        <ele>4</ele>
        <time>2013-08-28T10:24:16Z</time>
      </trkpt>
      <trkpt lat="47.36888" lon="-0.78787">
        <ele>4</ele>
        <time>2013-08-28T10:24:17Z</time>
      </trkpt>
      <trkpt lat="47.36887" lon="-0.78778">
        <ele>4</ele>
        <time>2013-08-28T10:24:18Z</time>
      </trkpt>
      <trkpt lat="47.36885" lon="-0.78768">
        <ele>4</ele>
        <time>2013-08-28T10:24:19Z</time>
      </trkpt>
      <trkpt lat="47.36883" lon="-0.78759">
        <ele>4</ele>
        <time>2013-08-28T10:24:20Z</time>
      </trkpt>
      <trkpt lat="47.36881" lon="-0.78749">
        <ele>4</ele>
        <time>2013-08-28T10:24:21Z</time>
      </trkpt>
      <trkpt lat="47.36879" lon="-0.7874">
        <ele>4</ele>
        <time>2013-08-28T10:24:22Z</time>
      </trkpt>
      <trkpt lat="47.36877" lon="-0.7873">
        <ele>4</ele>
        <time>2013-08-28T10:24:23Z</time>
      </trkpt>
      <trkpt lat="47.36876" lon="-0.78721">
        <ele>4</ele>
        <time>2013-08-28T10:24:24Z</time>
      </trkpt>
      <trkpt lat="47.36874" lon="-0.78712">
        <ele>4</ele>
        <time>2013-08-28T10:24:25Z</time>
      </trkpt>
      <trkpt lat="47.36872" lon="-0.78703">
        <ele>4</ele>
        <time>2013-08-28T10:24:26Z</time>
      </trkpt>
      <trkpt lat="47.36871" lon="-0.78694">
        <ele>4</ele>
        <time>2013-08-28T10:24:27Z</time>
      </trkpt>
      <trkpt lat="47.36869" lon="-0.78685">
        <ele>4</ele>
        <time>2013-08-28T10:24:28Z</time>
      </trkpt>
      <trkpt lat="47.36867" lon="-0.78677">
        <ele>4</ele>
        <time>2013-08-28T10:24:29Z</time>
      </trkpt>
      <trkpt lat="47.36865" lon="-0.78668">
        <ele>4</ele>
        <time>2013-08-28T10:24:30Z</time>
      </trkpt>
      <trkpt lat="47.36862" lon="-0.78659">
        <ele>3</ele>
        <time>2013-08-28T10:24:31Z</time>
      </trkpt>
      <trkpt lat="47.3686" lon="-0.7865">
        <ele>3</ele>
        <time>2013-08-28T10:24:32Z</time>
      </trkpt>
      <trkpt lat="47.36857" lon="-0.78641">
        <ele>3</ele>
        <time>2013-08-28T10:24:33Z</time>
      </trkpt>
      <trkpt lat="47.36854" lon="-0.78632">
        <ele>3</ele>
        <time>2013-08-28T10:24:34Z</time>
      </trkpt>
      <trkpt lat="47.36851" lon="-0.78624">
        <ele>3</ele>
        <time>2013-08-28T10:24:35Z</time>
      </trkpt>
      <trkpt lat="47.36849" lon="-0.78616">
        <ele>3</ele>
        <time>2013-08-28T10:24:36Z</time>
      </trkpt>
      <trkpt lat="47.36846" lon="-0.78607">
        <ele>3</ele>
        <time>2013-08-28T10:24:37Z</time>
      </trkpt>
      <trkpt lat="47.36842" lon="-0.78598">
        <ele>3</ele>
        <time>2013-08-28T10:24:38Z</time>
      </trkpt>
      <trkpt lat="47.36839" lon="-0.78588">
        <ele>3</ele>
        <time>2013-08-28T10:24:39Z</time>
      </trkpt>
      <trkpt lat="47.36836" lon="-0.78578">
        <ele>3</ele>
        <time>2013-08-28T10:24:40Z</time>
      </trkpt>
      <trkpt lat="47.36833" lon="-0.78569">
        <ele>3</ele>
        <time>2013-08-28T10:24:41Z</time>
      </trkpt>
      <trkpt lat="47.3683" lon="-0.7856">
        <ele>3</ele>
        <time>2013-08-28T10:24:42Z</time>
      </trkpt>
      <trkpt lat="47.36827" lon="-0.78551">
        <ele>2</ele>
        <time>2013-08-28T10:24:43Z</time>
      </trkpt>
      <trkpt lat="47.36824" lon="-0.78542">
        <ele>2</ele>
        <time>2013-08-28T10:24:44Z</time>
      </trkpt>
      <trkpt lat="47.36822" lon="-0.78533">
        <ele>1</ele>
        <time>2013-08-28T10:24:45Z</time>
      </trkpt>
      <trkpt lat="47.36819" lon="-0.78524">
        <ele>1</ele>
        <time>2013-08-28T10:24:46Z</time>
      </trkpt>
      <trkpt lat="47.36816" lon="-0.78515">
        <ele>1</ele>
        <time>2013-08-28T10:24:47Z</time>
      </trkpt>
      <trkpt lat="47.36813" lon="-0.78506">
        <ele>1</ele>
        <time>2013-08-28T10:24:48Z</time>
      </trkpt>
      <trkpt lat="47.3681" lon="-0.78497">
        <ele>1</ele>
        <time>2013-08-28T10:24:49Z</time>
      </trkpt>
      <trkpt lat="47.36807" lon="-0.78488">
        <ele>1</ele>
        <time>2013-08-28T10:24:50Z</time>
      </trkpt>
      <trkpt lat="47.36804" lon="-0.78478">
        <ele>14</ele>
        <time>2013-08-28T10:24:51Z</time>
      </trkpt>
      <trkpt lat="47.36801" lon="-0.78469">
        <ele>14</ele>
        <time>2013-08-28T10:24:52Z</time>
      </trkpt>
      <trkpt lat="47.36798" lon="-0.7846">
        <ele>14</ele>
        <time>2013-08-28T10:24:53Z</time>
      </trkpt>
      <trkpt lat="47.36796" lon="-0.78451">
        <ele>14</ele>
        <time>2013-08-28T10:24:54Z</time>
      </trkpt>
      <trkpt lat="47.36793" lon="-0.78442">
        <ele>14</ele>
        <time>2013-08-28T10:24:55Z</time>
      </trkpt>
      <trkpt lat="47.3679" lon="-0.78433">
        <ele>14</ele>
        <time>2013-08-28T10:24:56Z</time>
      </trkpt>
      <trkpt lat="47.36787" lon="-0.78424">
        <ele>14</ele>
        <time>2013-08-28T10:24:57Z</time>
      </trkpt>
      <trkpt lat="47.36784" lon="-0.78414">
        <ele>14</ele>
        <time>2013-08-28T10:24:58Z</time>
      </trkpt>
      <trkpt lat="47.36781" lon="-0.78405">
        <ele>14</ele>
        <time>2013-08-28T10:24:59Z</time>
      </trkpt>
      <trkpt lat="47.36779" lon="-0.78396">
        <ele>14</ele>
        <time>2013-08-28T10:25:00Z</time>
      </trkpt>
      <trkpt lat="47.36776" lon="-0.78387">
        <ele>14</ele>
        <time>2013-08-28T10:25:01Z</time>
      </trkpt>
      <trkpt lat="47.36774" lon="-0.78379">
        <ele>14</ele>
        <time>2013-08-28T10:25:02Z</time>
      </trkpt>
      <trkpt lat="47.36771" lon="-0.7837">
        <ele>14</ele>
        <time>2013-08-28T10:25:03Z</time>
      </trkpt>
      <trkpt lat="47.36769" lon="-0.78361">
        <ele>14</ele>
        <time>2013-08-28T10:25:04Z</time>
      </trkpt>
      <trkpt lat="47.36766" lon="-0.78352">
        <ele>14</ele>
        <time>2013-08-28T10:25:05Z</time>
      </trkpt>
      <trkpt lat="47.36763" lon="-0.78343">
        <ele>14</ele>
        <time>2013-08-28T10:25:06Z</time>
      </trkpt>
      <trkpt lat="47.3676" lon="-0.78334">
        <ele>14</ele>
        <time>2013-08-28T10:25:07Z</time>
      </trkpt>
      <trkpt lat="47.36756" lon="-0.78325">
        <ele>14</ele>
        <time>2013-08-28T10:25:08Z</time>
      </trkpt>
      <trkpt lat="47.36753" lon="-0.78316">
        <ele>14</ele>
        <time>2013-08-28T10:25:09Z</time>
      </trkpt>
      <trkpt lat="47.36749" lon="-0.78306">
        <ele>14</ele>
        <time>2013-08-28T10:25:10Z</time>
      </trkpt>
      <trkpt lat="47.36746" lon="-0.78297">
        <ele>14</ele>
        <time>2013-08-28T10:25:11Z</time>
      </trkpt>
      <trkpt lat="47.36743" lon="-0.78288">
        <ele>14</ele>
        <time>2013-08-28T10:25:12Z</time>
      </trkpt>
      <trkpt lat="47.36741" lon="-0.78279">
        <ele>14</ele>
        <time>2013-08-28T10:25:13Z</time>
      </trkpt>
      <trkpt lat="47.36737" lon="-0.7827">
        <ele>14</ele>
        <time>2013-08-28T10:25:14Z</time>
      </trkpt>
      <trkpt lat="47.36734" lon="-0.7826">
        <ele>14</ele>
        <time>2013-08-28T10:25:15Z</time>
      </trkpt>
      <trkpt lat="47.3673" lon="-0.7825">
        <ele>14</ele>
        <time>2013-08-28T10:25:16Z</time>
      </trkpt>
      <trkpt lat="47.36726" lon="-0.78241">
        <ele>14</ele>
        <time>2013-08-28T10:25:17Z</time>
      </trkpt>
      <trkpt lat="47.36723" lon="-0.78232">
        <ele>14</ele>
        <time>2013-08-28T10:25:18Z</time>
      </trkpt>
      <trkpt lat="47.3672" lon="-0.78223">
        <ele>14</ele>
        <time>2013-08-28T10:25:19Z</time>
      </trkpt>
      <trkpt lat="47.36717" lon="-0.78214">
        <ele>14</ele>
        <time>2013-08-28T10:25:20Z</time>
      </trkpt>
      <trkpt lat="47.36715" lon="-0.78206">
        <ele>14</ele>
        <time>2013-08-28T10:25:21Z</time>
      </trkpt>
      <trkpt lat="47.36712" lon="-0.78196">
        <ele>14</ele>
        <time>2013-08-28T10:25:22Z</time>
      </trkpt>
      <trkpt lat="47.36708" lon="-0.78187">
        <ele>14</ele>
        <time>2013-08-28T10:25:23Z</time>
      </trkpt>
      <trkpt lat="47.36704" lon="-0.78177">
        <ele>14</ele>
        <time>2013-08-28T10:25:24Z</time>
      </trkpt>
      <trkpt lat="47.36699" lon="-0.78167">
        <ele>14</ele>
        <time>2013-08-28T10:25:25Z</time>
      </trkpt>
      <trkpt lat="47.36695" lon="-0.78156">
        <ele>14</ele>
        <time>2013-08-28T10:25:26Z</time>
      </trkpt>
      <trkpt lat="47.36691" lon="-0.78146">
        <ele>13.9</ele>
        <time>2013-08-28T10:25:27Z</time>
      </trkpt>
      <trkpt lat="47.36687" lon="-0.78136">
        <ele>13.7</ele>
        <time>2013-08-28T10:25:28Z</time>
      </trkpt>
      <trkpt lat="47.36685" lon="-0.78128">
        <ele>13.7</ele>
        <time>2013-08-28T10:25:29Z</time>
      </trkpt>
      <trkpt lat="47.36681" lon="-0.78118">
        <ele>13.5</ele>
        <time>2013-08-28T10:25:30Z</time>
      </trkpt>
      <trkpt lat="47.36678" lon="-0.78109">
        <ele>13.5</ele>
        <time>2013-08-28T10:25:31Z</time>
      </trkpt>
      <trkpt lat="47.36675" lon="-0.78099">
        <ele>13.6</ele>
        <time>2013-08-28T10:25:32Z</time>
      </trkpt>
      <trkpt lat="47.36672" lon="-0.78089">
        <ele>13.8</ele>
        <time>2013-08-28T10:25:33Z</time>
      </trkpt>
      <trkpt lat="47.36668" lon="-0.78079">
        <ele>14</ele>
        <time>2013-08-28T10:25:34Z</time>
      </trkpt>
      <trkpt lat="47.36664" lon="-0.78069">
        <ele>14</ele>
        <time>2013-08-28T10:25:35Z</time>
      </trkpt>
      <trkpt lat="47.3666" lon="-0.7806">
        <ele>13.8</ele>
        <time>2013-08-28T10:25:36Z</time>
      </trkpt>
      <trkpt lat="47.36657" lon="-0.78051">
        <ele>13.7</ele>
        <time>2013-08-28T10:25:37Z</time>
      </trkpt>
      <trkpt lat="47.36655" lon="-0.78043">
        <ele>13.6</ele>
        <time>2013-08-28T10:25:38Z</time>
      </trkpt>
      <trkpt lat="47.3665" lon="-0.78033">
        <ele>13.4</ele>
        <time>2013-08-28T10:25:39Z</time>
      </trkpt>
      <trkpt lat="47.36646" lon="-0.78024">
        <ele>13.4</ele>
        <time>2013-08-28T10:25:40Z</time>
      </trkpt>
      <trkpt lat="47.36643" lon="-0.78014">
        <ele>13.6</ele>
        <time>2013-08-28T10:25:41Z</time>
      </trkpt>
      <trkpt lat="47.36637" lon="-0.78004">
        <ele>13.9</ele>
        <time>2013-08-28T10:25:42Z</time>
      </trkpt>
      <trkpt lat="47.36634" lon="-0.77994">
        <ele>14</ele>
        <time>2013-08-28T10:25:43Z</time>
      </trkpt>
      <trkpt lat="47.36632" lon="-0.77984">
        <ele>13.9</ele>
        <time>2013-08-28T10:25:44Z</time>
      </trkpt>
      <trkpt lat="47.36631" lon="-0.77974">
        <ele>13.7</ele>
        <time>2013-08-28T10:25:45Z</time>
      </trkpt>
      <trkpt lat="47.3663" lon="-0.77965">
        <ele>13.7</ele>
        <time>2013-08-28T10:25:46Z</time>
      </trkpt>
      <trkpt lat="47.36629" lon="-0.77955">
        <ele>13.6</ele>
        <time>2013-08-28T10:25:47Z</time>
      </trkpt>
      <trkpt lat="47.36629" lon="-0.77944">
        <ele>13.6</ele>
        <time>2013-08-28T10:25:48Z</time>
      </trkpt>
      <trkpt lat="47.36627" lon="-0.77935">
        <ele>13.7</ele>
        <time>2013-08-28T10:25:49Z</time>
      </trkpt>
      <trkpt lat="47.36626" lon="-0.77925">
        <ele>13.9</ele>
        <time>2013-08-28T10:25:50Z</time>
      </trkpt>
      <trkpt lat="47.36624" lon="-0.77916">
        <ele>14</ele>
        <time>2013-08-28T10:25:51Z</time>
      </trkpt>
      <trkpt lat="47.36621" lon="-0.77906">
        <ele>14</ele>
        <time>2013-08-28T10:25:52Z</time>
      </trkpt>
      <trkpt lat="47.36619" lon="-0.77896">
        <ele>14</ele>
        <time>2013-08-28T10:25:53Z</time>
      </trkpt>
      <trkpt lat="47.36616" lon="-0.77886">
        <ele>14</ele>
        <time>2013-08-28T10:25:54Z</time>
      </trkpt>
      <trkpt lat="47.36613" lon="-0.77876">
        <ele>1</ele>
        <time>2013-08-28T10:25:55Z</time>
      </trkpt>
      <trkpt lat="47.3661" lon="-0.77866">
        <ele>2</ele>
        <time>2013-08-28T10:25:56Z</time>
      </trkpt>
      <trkpt lat="47.36608" lon="-0.77857">
        <ele>2</ele>
        <time>2013-08-28T10:25:57Z</time>
      </trkpt>
      <trkpt lat="47.36606" lon="-0.77847">
        <ele>2</ele>
        <time>2013-08-28T10:25:58Z</time>
      </trkpt>
      <trkpt lat="47.36603" lon="-0.77837">
        <ele>3</ele>
        <time>2013-08-28T10:25:59Z</time>
      </trkpt>
      <trkpt lat="47.366" lon="-0.77827">
        <ele>3</ele>
        <time>2013-08-28T10:26:00Z</time>
      </trkpt>
      <trkpt lat="47.36597" lon="-0.77817">
        <ele>3</ele>
        <time>2013-08-28T10:26:01Z</time>
      </trkpt>
      <trkpt lat="47.36594" lon="-0.77808">
        <ele>3</ele>
        <time>2013-08-28T10:26:02Z</time>
      </trkpt>
      <trkpt lat="47.36592" lon="-0.77799">
        <ele>3</ele>
        <time>2013-08-28T10:26:03Z</time>
      </trkpt>
      <trkpt lat="47.36589" lon="-0.77791">
        <ele>3</ele>
        <time>2013-08-28T10:26:04Z</time>
      </trkpt>
      <trkpt lat="47.36584" lon="-0.77784">
        <ele>3</ele>
        <time>2013-08-28T10:26:05Z</time>
      </trkpt>
      <trkpt lat="47.36579" lon="-0.77777">
        <ele>3</ele>
        <time>2013-08-28T10:26:06Z</time>
      </trkpt>
      <trkpt lat="47.36573" lon="-0.77772">
        <ele>3</ele>
        <time>2013-08-28T10:26:07Z</time>
      </trkpt>
      <trkpt lat="47.36567" lon="-0.77769">
        <ele>3</ele>
        <time>2013-08-28T10:26:08Z</time>
      </trkpt>
      <trkpt lat="47.36562" lon="-0.77766">
        <ele>3</ele>
        <time>2013-08-28T10:26:09Z</time>
      </trkpt>
      <trkpt lat="47.36549" lon="-0.77753">
        <ele>3</ele>
        <time>2013-08-28T10:26:11Z</time>
      </trkpt>
      <trkpt lat="47.36544" lon="-0.77746">
        <ele>3</ele>
        <time>2013-08-28T10:26:12Z</time>
      </trkpt>
      <trkpt lat="47.36539" lon="-0.77736">
        <ele>3</ele>
        <time>2013-08-28T10:26:13Z</time>
      </trkpt>
      <trkpt lat="47.36535" lon="-0.77726">
        <ele>3</ele>
        <time>2013-08-28T10:26:14Z</time>
      </trkpt>
      <trkpt lat="47.3653" lon="-0.77714">
        <ele>3</ele>
        <time>2013-08-28T10:26:15Z</time>
      </trkpt>
      <trkpt lat="47.36528" lon="-0.77703">
        <ele>3</ele>
        <time>2013-08-28T10:26:16Z</time>
      </trkpt>
      <trkpt lat="47.36525" lon="-0.77693">
        <ele>3</ele>
        <time>2013-08-28T10:26:17Z</time>
      </trkpt>
      <trkpt lat="47.36523" lon="-0.77682">
        <ele>3</ele>
        <time>2013-08-28T10:26:18Z</time>
      </trkpt>
      <trkpt lat="47.36521" lon="-0.77671">
        <ele>3</ele>
        <time>2013-08-28T10:26:19Z</time>
      </trkpt>
      <trkpt lat="47.3652" lon="-0.77661">
        <ele>3</ele>
        <time>2013-08-28T10:26:20Z</time>
      </trkpt>
      <trkpt lat="47.36518" lon="-0.7765">
        <ele>3</ele>
        <time>2013-08-28T10:26:21Z</time>
      </trkpt>
      <trkpt lat="47.36517" lon="-0.7764">
        <ele>3</ele>
        <time>2013-08-28T10:26:22Z</time>
      </trkpt>
      <trkpt lat="47.36516" lon="-0.7763">
        <ele>3</ele>
        <time>2013-08-28T10:26:23Z</time>
      </trkpt>
      <trkpt lat="47.36515" lon="-0.77619">
        <ele>3</ele>
        <time>2013-08-28T10:26:24Z</time>
      </trkpt>
      <trkpt lat="47.36514" lon="-0.77609">
        <ele>3</ele>
        <time>2013-08-28T10:26:25Z</time>
      </trkpt>
      <trkpt lat="47.36512" lon="-0.77599">
        <ele>3</ele>
        <time>2013-08-28T10:26:26Z</time>
      </trkpt>
      <trkpt lat="47.3651" lon="-0.77587">
        <ele>3</ele>
        <time>2013-08-28T10:26:27Z</time>
      </trkpt>
      <trkpt lat="47.36509" lon="-0.77577">
        <ele>3</ele>
        <time>2013-08-28T10:26:28Z</time>
      </trkpt>
      <trkpt lat="47.36507" lon="-0.77567">
        <ele>3</ele>
        <time>2013-08-28T10:26:29Z</time>
      </trkpt>
      <trkpt lat="47.36505" lon="-0.77557">
        <ele>3</ele>
        <time>2013-08-28T10:26:30Z</time>
      </trkpt>
      <trkpt lat="47.36503" lon="-0.77547">
        <ele>3</ele>
        <time>2013-08-28T10:26:31Z</time>
      </trkpt>
      <trkpt lat="47.36501" lon="-0.77539">
        <ele>3</ele>
        <time>2013-08-28T10:26:32Z</time>
      </trkpt>
      <trkpt lat="47.36499" lon="-0.77529">
        <ele>3</ele>
        <time>2013-08-28T10:26:33Z</time>
      </trkpt>
      <trkpt lat="47.36497" lon="-0.7752">
        <ele>3</ele>
        <time>2013-08-28T10:26:34Z</time>
      </trkpt>
      <trkpt lat="47.36495" lon="-0.77512">
        <ele>3</ele>
        <time>2013-08-28T10:26:35Z</time>
      </trkpt>
      <trkpt lat="47.36492" lon="-0.77502">
        <ele>3</ele>
        <time>2013-08-28T10:26:36Z</time>
      </trkpt>
      <trkpt lat="47.36489" lon="-0.77492">
        <ele>3</ele>
        <time>2013-08-28T10:26:37Z</time>
      </trkpt>
      <trkpt lat="47.36485" lon="-0.77483">
        <ele>3</ele>
        <time>2013-08-28T10:26:38Z</time>
      </trkpt>
      <trkpt lat="47.36482" lon="-0.77475">
        <ele>3</ele>
        <time>2013-08-28T10:26:39Z</time>
      </trkpt>
      <trkpt lat="47.36478" lon="-0.77465">
        <ele>3</ele>
        <time>2013-08-28T10:26:40Z</time>
      </trkpt>
      <trkpt lat="47.36475" lon="-0.77455">
        <ele>3</ele>
        <time>2013-08-28T10:26:41Z</time>
      </trkpt>
      <trkpt lat="47.36469" lon="-0.77443">
        <ele>3</ele>
        <time>2013-08-28T10:26:42Z</time>
      </trkpt>
      <trkpt lat="47.36466" lon="-0.77434">
        <ele>3</ele>
        <time>2013-08-28T10:26:43Z</time>
      </trkpt>
      <trkpt lat="47.36462" lon="-0.77425">
        <ele>3</ele>
        <time>2013-08-28T10:26:44Z</time>
      </trkpt>
      <trkpt lat="47.36458" lon="-0.77416">
        <ele>3</ele>
        <time>2013-08-28T10:26:45Z</time>
      </trkpt>
      <trkpt lat="47.36453" lon="-0.77406">
        <ele>3</ele>
        <time>2013-08-28T10:26:46Z</time>
      </trkpt>
      <trkpt lat="47.36449" lon="-0.77397">
        <ele>3</ele>
        <time>2013-08-28T10:26:47Z</time>
      </trkpt>
      <trkpt lat="47.36444" lon="-0.77386">
        <ele>3</ele>
        <time>2013-08-28T10:26:48Z</time>
      </trkpt>
      <trkpt lat="47.3644" lon="-0.77376">
        <ele>3</ele>
        <time>2013-08-28T10:26:49Z</time>
      </trkpt>
      <trkpt lat="47.36435" lon="-0.77366">
        <ele>3</ele>
        <time>2013-08-28T10:26:50Z</time>
      </trkpt>
      <trkpt lat="47.36431" lon="-0.77356">
        <ele>3</ele>
        <time>2013-08-28T10:26:51Z</time>
      </trkpt>
      <trkpt lat="47.36426" lon="-0.77346">
        <ele>3</ele>
        <time>2013-08-28T10:26:52Z</time>
      </trkpt>
      <trkpt lat="47.36423" lon="-0.77336">
        <ele>3</ele>
        <time>2013-08-28T10:26:53Z</time>
      </trkpt>
      <trkpt lat="47.3642" lon="-0.77325">
        <ele>3</ele>
        <time>2013-08-28T10:26:54Z</time>
      </trkpt>
      <trkpt lat="47.36417" lon="-0.77315">
        <ele>3</ele>
        <time>2013-08-28T10:26:55Z</time>
      </trkpt>
      <trkpt lat="47.36414" lon="-0.77305">
        <ele>3</ele>
        <time>2013-08-28T10:26:56Z</time>
      </trkpt>
      <trkpt lat="47.3641" lon="-0.77294">
        <ele>3</ele>
        <time>2013-08-28T10:26:57Z</time>
      </trkpt>
      <trkpt lat="47.36407" lon="-0.77283">
        <ele>3</ele>
        <time>2013-08-28T10:26:58Z</time>
      </trkpt>
      <trkpt lat="47.36404" lon="-0.77274">
        <ele>3</ele>
        <time>2013-08-28T10:26:59Z</time>
      </trkpt>
      <trkpt lat="47.36402" lon="-0.77264">
        <ele>3</ele>
        <time>2013-08-28T10:27:00Z</time>
      </trkpt>
      <trkpt lat="47.36399" lon="-0.77255">
        <ele>3</ele>
        <time>2013-08-28T10:27:01Z</time>
      </trkpt>
      <trkpt lat="47.36396" lon="-0.77247">
        <ele>2</ele>
        <time>2013-08-28T10:27:02Z</time>
      </trkpt>
      <trkpt lat="47.36393" lon="-0.77238">
        <ele>2</ele>
        <time>2013-08-28T10:27:03Z</time>
      </trkpt>
      <trkpt lat="47.36388" lon="-0.77229">
        <ele>1</ele>
        <time>2013-08-28T10:27:04Z</time>
      </trkpt>
      <trkpt lat="47.36385" lon="-0.77222">
        <ele>13.9</ele>
        <time>2013-08-28T10:27:05Z</time>
      </trkpt>
      <trkpt lat="47.36383" lon="-0.77213">
        <ele>13.8</ele>
        <time>2013-08-28T10:27:06Z</time>
      </trkpt>
      <trkpt lat="47.36381" lon="-0.77204">
        <ele>13.7</ele>
        <time>2013-08-28T10:27:07Z</time>
      </trkpt>
      <trkpt lat="47.36378" lon="-0.77195">
        <ele>13.6</ele>
        <time>2013-08-28T10:27:08Z</time>
      </trkpt>
      <trkpt lat="47.36375" lon="-0.77186">
        <ele>13.6</ele>
        <time>2013-08-28T10:27:09Z</time>
      </trkpt>
      <trkpt lat="47.36371" lon="-0.77177">
        <ele>13.8</ele>
        <time>2013-08-28T10:27:10Z</time>
      </trkpt>
      <trkpt lat="47.36368" lon="-0.77169">
        <ele>13.9</ele>
        <time>2013-08-28T10:27:11Z</time>
      </trkpt>
      <trkpt lat="47.36364" lon="-0.7716">
        <ele>14</ele>
        <time>2013-08-28T10:27:12Z</time>
      </trkpt>
      <trkpt lat="47.36361" lon="-0.77152">
        <ele>14</ele>
        <time>2013-08-28T10:27:13Z</time>
      </trkpt>
      <trkpt lat="47.36358" lon="-0.77143">
        <ele>13.9</ele>
        <time>2013-08-28T10:27:14Z</time>
      </trkpt>
      <trkpt lat="47.36354" lon="-0.77134">
        <ele>13.8</ele>
        <time>2013-08-28T10:27:15Z</time>
      </trkpt>
      <trkpt lat="47.36351" lon="-0.77125">
        <ele>13.8</ele>
        <time>2013-08-28T10:27:16Z</time>
      </trkpt>
      <trkpt lat="47.36347" lon="-0.77116">
        <ele>13.9</ele>
        <time>2013-08-28T10:27:17Z</time>
      </trkpt>
      <trkpt lat="47.36343" lon="-0.77106">
        <ele>14</ele>
        <time>2013-08-28T10:27:18Z</time>
      </trkpt>
      <trkpt lat="47.3634" lon="-0.77097">
        <ele>14</ele>
        <time>2013-08-28T10:27:19Z</time>
      </trkpt>
      <trkpt lat="47.36336" lon="-0.77088">
        <ele>14</ele>
        <time>2013-08-28T10:27:20Z</time>
      </trkpt>
      <trkpt lat="47.36332" lon="-0.77078">
        <ele>14</ele>
        <time>2013-08-28T10:27:21Z</time>
      </trkpt>
      <trkpt lat="47.36329" lon="-0.77069">
        <ele>14</ele>
        <time>2013-08-28T10:27:22Z</time>
      </trkpt>
      <trkpt lat="47.36326" lon="-0.7706">
        <ele>14</ele>
        <time>2013-08-28T10:27:23Z</time>
      </trkpt>
      <trkpt lat="47.36322" lon="-0.77052">
        <ele>14</ele>
        <time>2013-08-28T10:27:24Z</time>
      </trkpt>
      <trkpt lat="47.36319" lon="-0.77044">
        <ele>14</ele>
        <time>2013-08-28T10:27:25Z</time>
      </trkpt>
      <trkpt lat="47.36314" lon="-0.77036">
        <ele>14</ele>
        <time>2013-08-28T10:27:26Z</time>
      </trkpt>
      <trkpt lat="47.3631" lon="-0.77028">
        <ele>14</ele>
        <time>2013-08-28T10:27:27Z</time>
      </trkpt>
      <trkpt lat="47.36306" lon="-0.7702">
        <ele>14</ele>
        <time>2013-08-28T10:27:28Z</time>
      </trkpt>
      <trkpt lat="47.36303" lon="-0.77012">
        <ele>14</ele>
        <time>2013-08-28T10:27:29Z</time>
      </trkpt>
      <trkpt lat="47.363" lon="-0.77004">
        <ele>14</ele>
        <time>2013-08-28T10:27:30Z</time>
      </trkpt>
      <trkpt lat="47.36296" lon="-0.76995">
        <ele>14.1</ele>
        <time>2013-08-28T10:27:31Z</time>
      </trkpt>
      <trkpt lat="47.36292" lon="-0.76987">
        <ele>14.2</ele>
        <time>2013-08-28T10:27:32Z</time>
      </trkpt>
      <trkpt lat="47.36289" lon="-0.76978">
        <ele>14.3</ele>
        <time>2013-08-28T10:27:33Z</time>
      </trkpt>
      <trkpt lat="47.36286" lon="-0.7697">
        <ele>14.3</ele>
        <time>2013-08-28T10:27:34Z</time>
      </trkpt>
      <trkpt lat="47.36283" lon="-0.76961">
        <ele>14.1</ele>
        <time>2013-08-28T10:27:35Z</time>
      </trkpt>
      <trkpt lat="47.36279" lon="-0.76951">
        <ele>14</ele>
        <time>2013-08-28T10:27:36Z</time>
      </trkpt>
      <trkpt lat="47.36275" lon="-0.76941">
        <ele>14</ele>
        <time>2013-08-28T10:27:37Z</time>
      </trkpt>
      <trkpt lat="47.3627" lon="-0.7693">
        <ele>14</ele>
        <time>2013-08-28T10:27:38Z</time>
      </trkpt>
      <trkpt lat="47.36267" lon="-0.7692">
        <ele>14</ele>
        <time>2013-08-28T10:27:39Z</time>
      </trkpt>
      <trkpt lat="47.36264" lon="-0.76911">
        <ele>14.1</ele>
        <time>2013-08-28T10:27:40Z</time>
      </trkpt>
      <trkpt lat="47.3626" lon="-0.76902">
        <ele>14.3</ele>
        <time>2013-08-28T10:27:41Z</time>
      </trkpt>
      <trkpt lat="47.36256" lon="-0.76893">
        <ele>14.7</ele>
        <time>2013-08-28T10:27:42Z</time>
      </trkpt>
      <trkpt lat="47.36251" lon="-0.76883">
        <ele>14.8</ele>
        <time>2013-08-28T10:27:43Z</time>
      </trkpt>
      <trkpt lat="47.36248" lon="-0.76874">
        <ele>14.5</ele>
        <time>2013-08-28T10:27:44Z</time>
      </trkpt>
      <trkpt lat="47.36243" lon="-0.76864">
        <ele>14.3</ele>
        <time>2013-08-28T10:27:45Z</time>
      </trkpt>
      <trkpt lat="47.3624" lon="-0.76855">
        <ele>14.4</ele>
        <time>2013-08-28T10:27:46Z</time>
      </trkpt>
      <trkpt lat="47.36237" lon="-0.76846">
        <ele>14.5</ele>
        <time>2013-08-28T10:27:47Z</time>
      </trkpt>
      <trkpt lat="47.36233" lon="-0.76836">
        <ele>14.6</ele>
        <time>2013-08-28T10:27:48Z</time>
      </trkpt>
      <trkpt lat="47.36229" lon="-0.76827">
        <ele>14.6</ele>
        <time>2013-08-28T10:27:49Z</time>
      </trkpt>
      <trkpt lat="47.36226" lon="-0.76818">
        <ele>14.4</ele>
        <time>2013-08-28T10:27:50Z</time>
      </trkpt>
      <trkpt lat="47.36222" lon="-0.76809">
        <ele>14.1</ele>
        <time>2013-08-28T10:27:51Z</time>
      </trkpt>
      <trkpt lat="47.36218" lon="-0.76799">
        <ele>14.1</ele>
        <time>2013-08-28T10:27:52Z</time>
      </trkpt>
      <trkpt lat="47.36215" lon="-0.7679">
        <ele>14.3</ele>
        <time>2013-08-28T10:27:53Z</time>
      </trkpt>
      <trkpt lat="47.36211" lon="-0.76782">
        <ele>14.4</ele>
        <time>2013-08-28T10:27:54Z</time>
      </trkpt>
      <trkpt lat="47.36208" lon="-0.76773">
        <ele>14.5</ele>
        <time>2013-08-28T10:27:55Z</time>
      </trkpt>
      <trkpt lat="47.36205" lon="-0.76764">
        <ele>14.5</ele>
        <time>2013-08-28T10:27:56Z</time>
      </trkpt>
      <trkpt lat="47.36201" lon="-0.76756">
        <ele>14.4</ele>
        <time>2013-08-28T10:27:57Z</time>
      </trkpt>
      <trkpt lat="47.36198" lon="-0.76747">
        <ele>14.3</ele>
        <time>2013-08-28T10:27:58Z</time>
      </trkpt>
      <trkpt lat="47.36195" lon="-0.76739">
        <ele>14.8</ele>
        <time>2013-08-28T10:27:59Z</time>
      </trkpt>
      <trkpt lat="47.36192" lon="-0.7673">
        <ele>15.3</ele>
        <time>2013-08-28T10:28:00Z</time>
      </trkpt>
      <trkpt lat="47.36188" lon="-0.76722">
        <ele>15.5</ele>
        <time>2013-08-28T10:28:01Z</time>
      </trkpt>
      <trkpt lat="47.36185" lon="-0.76713">
        <ele>15.4</ele>
        <time>2013-08-28T10:28:02Z</time>
      </trkpt>
      <trkpt lat="47.36182" lon="-0.76704">
        <ele>15.4</ele>
        <time>2013-08-28T10:28:03Z</time>
      </trkpt>
      <trkpt lat="47.3618" lon="-0.76694">
        <ele>15.5</ele>
        <time>2013-08-28T10:28:04Z</time>
      </trkpt>
      <trkpt lat="47.3618" lon="-0.76685">
        <ele>15.3</ele>
        <time>2013-08-28T10:28:05Z</time>
      </trkpt>
      <trkpt lat="47.36182" lon="-0.76677">
        <ele>15.2</ele>
        <time>2013-08-28T10:28:06Z</time>
      </trkpt>
      <trkpt lat="47.36185" lon="-0.7667">
        <ele>15.1</ele>
        <time>2013-08-28T10:28:07Z</time>
      </trkpt>
      <trkpt lat="47.36189" lon="-0.76664">
        <ele>15</ele>
        <time>2013-08-28T10:28:08Z</time>
      </trkpt>
      <trkpt lat="47.36194" lon="-0.76658">
        <ele>15</ele>
        <time>2013-08-28T10:28:09Z</time>
      </trkpt>
      <trkpt lat="47.362" lon="-0.76652">
        <ele>15</ele>
        <time>2013-08-28T10:28:10Z</time>
      </trkpt>
      <trkpt lat="47.36205" lon="-0.76646">
        <ele>15</ele>
        <time>2013-08-28T10:28:11Z</time>
      </trkpt>
      <trkpt lat="47.3621" lon="-0.7664">
        <ele>15</ele>
        <time>2013-08-28T10:28:12Z</time>
      </trkpt>
      <trkpt lat="47.36214" lon="-0.76633">
        <ele>15</ele>
        <time>2013-08-28T10:28:13Z</time>
      </trkpt>
      <trkpt lat="47.3622" lon="-0.76627">
        <ele>15</ele>
        <time>2013-08-28T10:28:14Z</time>
      </trkpt>
      <trkpt lat="47.36225" lon="-0.7662">
        <ele>15</ele>
        <time>2013-08-28T10:28:15Z</time>
      </trkpt>
      <trkpt lat="47.3623" lon="-0.76612">
        <ele>15</ele>
        <time>2013-08-28T10:28:16Z</time>
      </trkpt>
      <trkpt lat="47.36233" lon="-0.76603">
        <ele>15</ele>
        <time>2013-08-28T10:28:17Z</time>
      </trkpt>
      <trkpt lat="47.36234" lon="-0.76593">
        <ele>15</ele>
        <time>2013-08-28T10:28:18Z</time>
      </trkpt>
      <trkpt lat="47.36233" lon="-0.76584">
        <ele>15</ele>
        <time>2013-08-28T10:28:19Z</time>
      </trkpt>
      <trkpt lat="47.36229" lon="-0.76575">
        <ele>15</ele>
        <time>2013-08-28T10:28:20Z</time>
      </trkpt>
      <trkpt lat="47.36225" lon="-0.76568">
        <ele>15</ele>
        <time>2013-08-28T10:28:21Z</time>
      </trkpt>
      <trkpt lat="47.36221" lon="-0.7656">
        <ele>15</ele>
        <time>2013-08-28T10:28:22Z</time>
      </trkpt>
      <trkpt lat="47.36217" lon="-0.76552">
        <ele>15</ele>
        <time>2013-08-28T10:28:23Z</time>
      </trkpt>
      <trkpt lat="47.36214" lon="-0.76543">
        <ele>15</ele>
        <time>2013-08-28T10:28:24Z</time>
      </trkpt>
      <trkpt lat="47.3621" lon="-0.76535">
        <ele>15</ele>
        <time>2013-08-28T10:28:25Z</time>
      </trkpt>
      <trkpt lat="47.36206" lon="-0.76526">
        <ele>15</ele>
        <time>2013-08-28T10:28:26Z</time>
      </trkpt>
      <trkpt lat="47.36201" lon="-0.76517">
        <ele>15</ele>
        <time>2013-08-28T10:28:27Z</time>
      </trkpt>
      <trkpt lat="47.36197" lon="-0.76508">
        <ele>15</ele>
        <time>2013-08-28T10:28:28Z</time>
      </trkpt>
      <trkpt lat="47.36193" lon="-0.76499">
        <ele>15</ele>
        <time>2013-08-28T10:28:29Z</time>
      </trkpt>
      <trkpt lat="47.36189" lon="-0.7649">
        <ele>15</ele>
        <time>2013-08-28T10:28:30Z</time>
      </trkpt>
      <trkpt lat="47.36185" lon="-0.7648">
        <ele>15</ele>
        <time>2013-08-28T10:28:31Z</time>
      </trkpt>
      <trkpt lat="47.36181" lon="-0.7647">
        <ele>15</ele>
        <time>2013-08-28T10:28:32Z</time>
      </trkpt>
      <trkpt lat="47.36178" lon="-0.7646">
        <ele>15</ele>
        <time>2013-08-28T10:28:33Z</time>
      </trkpt>
      <trkpt lat="47.36174" lon="-0.7645">
        <ele>15</ele>
        <time>2013-08-28T10:28:34Z</time>
      </trkpt>
      <trkpt lat="47.36171" lon="-0.76441">
        <ele>15</ele>
        <time>2013-08-28T10:28:35Z</time>
      </trkpt>
      <trkpt lat="47.36168" lon="-0.76431">
        <ele>15</ele>
        <time>2013-08-28T10:28:36Z</time>
      </trkpt>
      <trkpt lat="47.36164" lon="-0.76422">
        <ele>15</ele>
        <time>2013-08-28T10:28:37Z</time>
      </trkpt>
      <trkpt lat="47.36162" lon="-0.76412">
        <ele>15</ele>
        <time>2013-08-28T10:28:38Z</time>
      </trkpt>
      <trkpt lat="47.36159" lon="-0.76403">
        <ele>15</ele>
        <time>2013-08-28T10:28:39Z</time>
      </trkpt>
      <trkpt lat="47.36156" lon="-0.76393">
        <ele>15</ele>
        <time>2013-08-28T10:28:40Z</time>
      </trkpt>
      <trkpt lat="47.36153" lon="-0.76384">
        <ele>15</ele>
        <time>2013-08-28T10:28:41Z</time>
      </trkpt>
      <trkpt lat="47.3615" lon="-0.76374">
        <ele>15</ele>
        <time>2013-08-28T10:28:42Z</time>
      </trkpt>
      <trkpt lat="47.36147" lon="-0.76364">
        <ele>15</ele>
        <time>2013-08-28T10:28:43Z</time>
      </trkpt>
      <trkpt lat="47.36145" lon="-0.76354">
        <ele>15</ele>
        <time>2013-08-28T10:28:44Z</time>
      </trkpt>
      <trkpt lat="47.36142" lon="-0.76343">
        <ele>15</ele>
        <time>2013-08-28T10:28:45Z</time>
      </trkpt>
      <trkpt lat="47.36139" lon="-0.76333">
        <ele>15</ele>
        <time>2013-08-28T10:28:46Z</time>
      </trkpt>
      <trkpt lat="47.36135" lon="-0.76323">
        <ele>15</ele>
        <time>2013-08-28T10:28:47Z</time>
      </trkpt>
      <trkpt lat="47.36133" lon="-0.76312">
        <ele>15</ele>
        <time>2013-08-28T10:28:48Z</time>
      </trkpt>
      <trkpt lat="47.3613" lon="-0.76302">
        <ele>15</ele>
        <time>2013-08-28T10:28:49Z</time>
      </trkpt>
      <trkpt lat="47.36127" lon="-0.76292">
        <ele>15</ele>
        <time>2013-08-28T10:28:50Z</time>
      </trkpt>
      <trkpt lat="47.36124" lon="-0.76281">
        <ele>15</ele>
        <time>2013-08-28T10:28:51Z</time>
      </trkpt>
      <trkpt lat="47.36121" lon="-0.7627">
        <ele>15</ele>
        <time>2013-08-28T10:28:52Z</time>
      </trkpt>
      <trkpt lat="47.36118" lon="-0.76259">
        <ele>15</ele>
        <time>2013-08-28T10:28:53Z</time>
      </trkpt>
      <trkpt lat="47.36115" lon="-0.76249">
        <ele>15</ele>
        <time>2013-08-28T10:28:54Z</time>
      </trkpt>
      <trkpt lat="47.36113" lon="-0.76239">
        <ele>15</ele>
        <time>2013-08-28T10:28:55Z</time>
      </trkpt>
      <trkpt lat="47.3611" lon="-0.7623">
        <ele>15</ele>
        <time>2013-08-28T10:28:56Z</time>
      </trkpt>
      <trkpt lat="47.36107" lon="-0.7622">
        <ele>15</ele>
        <time>2013-08-28T10:28:57Z</time>
      </trkpt>
      <trkpt lat="47.36104" lon="-0.7621">
        <ele>15</ele>
        <time>2013-08-28T10:28:58Z</time>
      </trkpt>
      <trkpt lat="47.36101" lon="-0.76201">
        <ele>15</ele>
        <time>2013-08-28T10:28:59Z</time>
      </trkpt>
      <trkpt lat="47.36098" lon="-0.76192">
        <ele>15</ele>
        <time>2013-08-28T10:29:00Z</time>
      </trkpt>
      <trkpt lat="47.36094" lon="-0.76183">
        <ele>15</ele>
        <time>2013-08-28T10:29:01Z</time>
      </trkpt>
      <trkpt lat="47.36091" lon="-0.76174">
        <ele>15</ele>
        <time>2013-08-28T10:29:02Z</time>
      </trkpt>
      <trkpt lat="47.36087" lon="-0.76164">
        <ele>15</ele>
        <time>2013-08-28T10:29:03Z</time>
      </trkpt>
      <trkpt lat="47.36084" lon="-0.76155">
        <ele>15</ele>
        <time>2013-08-28T10:29:04Z</time>
      </trkpt>
      <trkpt lat="47.36081" lon="-0.76146">
        <ele>15</ele>
        <time>2013-08-28T10:29:05Z</time>
      </trkpt>
      <trkpt lat="47.36078" lon="-0.76137">
        <ele>15</ele>
        <time>2013-08-28T10:29:06Z</time>
      </trkpt>
      <trkpt lat="47.36075" lon="-0.76128">
        <ele>15</ele>
        <time>2013-08-28T10:29:07Z</time>
      </trkpt>
      <trkpt lat="47.36073" lon="-0.76119">
        <ele>15</ele>
        <time>2013-08-28T10:29:08Z</time>
      </trkpt>
      <trkpt lat="47.36071" lon="-0.76111">
        <ele>15</ele>
        <time>2013-08-28T10:29:09Z</time>
      </trkpt>
      <trkpt lat="47.36068" lon="-0.76101">
        <ele>15</ele>
        <time>2013-08-28T10:29:10Z</time>
      </trkpt>
      <trkpt lat="47.36066" lon="-0.76091">
        <ele>15</ele>
        <time>2013-08-28T10:29:11Z</time>
      </trkpt>
      <trkpt lat="47.36063" lon="-0.76081">
        <ele>15</ele>
        <time>2013-08-28T10:29:12Z</time>
      </trkpt>
      <trkpt lat="47.36061" lon="-0.7607">
        <ele>15</ele>
        <time>2013-08-28T10:29:13Z</time>
      </trkpt>
      <trkpt lat="47.36059" lon="-0.7606">
        <ele>15</ele>
        <time>2013-08-28T10:29:14Z</time>
      </trkpt>
      <trkpt lat="47.36056" lon="-0.7605">
        <ele>15</ele>
        <time>2013-08-28T10:29:15Z</time>
      </trkpt>
      <trkpt lat="47.36053" lon="-0.7604">
        <ele>15</ele>
        <time>2013-08-28T10:29:16Z</time>
      </trkpt>
      <trkpt lat="47.3605" lon="-0.7603">
        <ele>15</ele>
        <time>2013-08-28T10:29:17Z</time>
      </trkpt>
      <trkpt lat="47.36047" lon="-0.7602">
        <ele>15</ele>
        <time>2013-08-28T10:29:18Z</time>
      </trkpt>
      <trkpt lat="47.36044" lon="-0.7601">
        <ele>15</ele>
        <time>2013-08-28T10:29:19Z</time>
      </trkpt>
      <trkpt lat="47.36041" lon="-0.76">
        <ele>15</ele>
        <time>2013-08-28T10:29:20Z</time>
      </trkpt>
      <trkpt lat="47.36038" lon="-0.75991">
        <ele>15</ele>
        <time>2013-08-28T10:29:21Z</time>
      </trkpt>
      <trkpt lat="47.36035" lon="-0.75982">
        <ele>15</ele>
        <time>2013-08-28T10:29:22Z</time>
      </trkpt>
      <trkpt lat="47.36032" lon="-0.75972">
        <ele>15</ele>
        <time>2013-08-28T10:29:23Z</time>
      </trkpt>
      <trkpt lat="47.36029" lon="-0.75963">
        <ele>15</ele>
        <time>2013-08-28T10:29:24Z</time>
      </trkpt>
      <trkpt lat="47.36026" lon="-0.75954">
        <ele>15</ele>
        <time>2013-08-28T10:29:25Z</time>
      </trkpt>
      <trkpt lat="47.36024" lon="-0.75946">
        <ele>15</ele>
        <time>2013-08-28T10:29:26Z</time>
      </trkpt>
      <trkpt lat="47.36022" lon="-0.75937">
        <ele>14.7</ele>
        <time>2013-08-28T10:29:27Z</time>
      </trkpt>
      <trkpt lat="47.36021" lon="-0.7593">
        <ele>14.5</ele>
        <time>2013-08-28T10:29:28Z</time>
      </trkpt>
      <trkpt lat="47.36019" lon="-0.75922">
        <ele>14.2</ele>
        <time>2013-08-28T10:29:29Z</time>
      </trkpt>
      <trkpt lat="47.36018" lon="-0.75915">
        <ele>14</ele>
        <time>2013-08-28T10:29:30Z</time>
      </trkpt>
      <trkpt lat="47.36016" lon="-0.75908">
        <ele>14.3</ele>
        <time>2013-08-28T10:29:31Z</time>
      </trkpt>
      <trkpt lat="47.36015" lon="-0.75901">
        <ele>14.5</ele>
        <time>2013-08-28T10:29:32Z</time>
      </trkpt>
      <trkpt lat="47.36014" lon="-0.75895">
        <ele>14.8</ele>
        <time>2013-08-28T10:29:33Z</time>
      </trkpt>
      <trkpt lat="47.36013" lon="-0.7589">
        <ele>15</ele>
        <time>2013-08-28T10:29:34Z</time>
      </trkpt>
      <trkpt lat="47.36011" lon="-0.75885">
        <ele>15.5</ele>
        <time>2013-08-28T10:29:35Z</time>
      </trkpt>
      <trkpt lat="47.3601" lon="-0.7588">
        <ele>15.8</ele>
        <time>2013-08-28T10:29:36Z</time>
      </trkpt>
      <trkpt lat="47.36008" lon="-0.75877">
        <ele>16.1</ele>
        <time>2013-08-28T10:29:37Z</time>
      </trkpt>
      <trkpt lat="47.36006" lon="-0.75875">
        <ele>16.3</ele>
        <time>2013-08-28T10:29:38Z</time>
      </trkpt>
      <trkpt lat="47.36004" lon="-0.75872">
        <ele>16.5</ele>
        <time>2013-08-28T10:29:39Z</time>
      </trkpt>
      <trkpt lat="47.36003" lon="-0.75871">
        <ele>16.6</ele>
        <time>2013-08-28T10:29:41Z</time>
      </trkpt>
      <trkpt lat="47.36002" lon="-0.75873">
        <ele>16.5</ele>
        <time>2013-08-28T10:29:44Z</time>
      </trkpt>
      <trkpt lat="47.36003" lon="-0.75874">
        <ele>16.5</ele>
        <time>2013-08-28T10:29:45Z</time>
      </trkpt>
      <trkpt lat="47.36003" lon="-0.75876">
        <ele>16.4</ele>
        <time>2013-08-28T10:29:47Z</time>
      </trkpt>
      <trkpt lat="47.36001" lon="-0.75877">
        <ele>16.4</ele>
        <time>2013-08-28T10:29:49Z</time>
      </trkpt>
      <trkpt lat="47.35999" lon="-0.75878">
        <ele>16.4</ele>
        <time>2013-08-28T10:29:50Z</time>
      </trkpt>
      <trkpt lat="47.35997" lon="-0.75879">
        <ele>16.4</ele>
        <time>2013-08-28T10:29:51Z</time>
      </trkpt>
      <trkpt lat="47.35994" lon="-0.7588">
        <ele>16.5</ele>
        <time>2013-08-28T10:29:52Z</time>
      </trkpt>
      <trkpt lat="47.35991" lon="-0.75882">
        <ele>16.6</ele>
        <time>2013-08-28T10:29:53Z</time>
      </trkpt>
      <trkpt lat="47.35988" lon="-0.75885">
        <ele>16.8</ele>
        <time>2013-08-28T10:29:54Z</time>
      </trkpt>
      <trkpt lat="47.35984" lon="-0.75888">
        <ele>17.1</ele>
        <time>2013-08-28T10:29:55Z</time>
      </trkpt>
      <trkpt lat="47.3598" lon="-0.7589">
        <ele>17.3</ele>
        <time>2013-08-28T10:29:56Z</time>
      </trkpt>
      <trkpt lat="47.35975" lon="-0.75894">
        <ele>17.1</ele>
        <time>2013-08-28T10:29:57Z</time>
      </trkpt>
      <trkpt lat="47.3597" lon="-0.75897">
        <ele>16.8</ele>
        <time>2013-08-28T10:29:58Z</time>
      </trkpt>
      <trkpt lat="47.35965" lon="-0.759">
        <ele>16.3</ele>
        <time>2013-08-28T10:29:59Z</time>
      </trkpt>
      <trkpt lat="47.3596" lon="-0.75903">
        <ele>16</ele>
        <time>2013-08-28T10:30:00Z</time>
      </trkpt>
      <trkpt lat="47.35954" lon="-0.75905">
        <ele>15.8</ele>
        <time>2013-08-28T10:30:01Z</time>
      </trkpt>
      <trkpt lat="47.35948" lon="-0.75908">
        <ele>15.5</ele>
        <time>2013-08-28T10:30:02Z</time>
      </trkpt>
      <trkpt lat="47.35943" lon="-0.75911">
        <ele>15.4</ele>
        <time>2013-08-28T10:30:03Z</time>
      </trkpt>
      <trkpt lat="47.35936" lon="-0.75914">
        <ele>15.6</ele>
        <time>2013-08-28T10:30:04Z</time>
      </trkpt>
      <trkpt lat="47.35931" lon="-0.75917">
        <ele>16</ele>
        <time>2013-08-28T10:30:05Z</time>
      </trkpt>
      <trkpt lat="47.35925" lon="-0.7592">
        <ele>16.2</ele>
        <time>2013-08-28T10:30:06Z</time>
      </trkpt>
      <trkpt lat="47.35919" lon="-0.75923">
        <ele>16.4</ele>
        <time>2013-08-28T10:30:07Z</time>
      </trkpt>
      <trkpt lat="47.35913" lon="-0.75926">
        <ele>16.4</ele>
        <time>2013-08-28T10:30:08Z</time>
      </trkpt>
      <trkpt lat="47.35907" lon="-0.75929">
        <ele>16.4</ele>
        <time>2013-08-28T10:30:09Z</time>
      </trkpt>
      <trkpt lat="47.35901" lon="-0.75932">
        <ele>16.5</ele>
        <time>2013-08-28T10:30:10Z</time>
      </trkpt>
      <trkpt lat="47.35894" lon="-0.75936">
        <ele>16.7</ele>
        <time>2013-08-28T10:30:11Z</time>
      </trkpt>
      <trkpt lat="47.35881" lon="-0.75942">
        <ele>17</ele>
        <time>2013-08-28T10:30:16Z</time>
      </trkpt>
      <trkpt lat="47.35852" lon="-0.75959">
        <ele>16</ele>
        <time>2013-08-28T10:30:17Z</time>
      </trkpt>
      <trkpt lat="47.35845" lon="-0.75963">
        <ele>15.9</ele>
        <time>2013-08-28T10:30:18Z</time>
      </trkpt>
      <trkpt lat="47.35831" lon="-0.75971">
        <ele>16.1</ele>
        <time>2013-08-28T10:30:23Z</time>
      </trkpt>
      <trkpt lat="47.35802" lon="-0.75986">
        <ele>16.9</ele>
        <time>2013-08-28T10:30:24Z</time>
      </trkpt>
      <trkpt lat="47.35796" lon="-0.7599">
        <ele>16.9</ele>
        <time>2013-08-28T10:30:25Z</time>
      </trkpt>
      <trkpt lat="47.35782" lon="-0.75998">
        <ele>16.9</ele>
        <time>2013-08-28T10:30:30Z</time>
      </trkpt>
      <trkpt lat="47.35754" lon="-0.76013">
        <ele>16.1</ele>
        <time>2013-08-28T10:30:31Z</time>
      </trkpt>
      <trkpt lat="47.35746" lon="-0.76017">
        <ele>15.6</ele>
        <time>2013-08-28T10:30:32Z</time>
      </trkpt>
      <trkpt lat="47.35732" lon="-0.76025">
        <ele>14.4</ele>
        <time>2013-08-28T10:30:37Z</time>
      </trkpt>
      <trkpt lat="47.35705" lon="-0.76039">
        <ele>14.1</ele>
        <time>2013-08-28T10:30:39Z</time>
      </trkpt>
      <trkpt lat="47.35698" lon="-0.76043">
        <ele>14.4</ele>
        <time>2013-08-28T10:30:39Z</time>
      </trkpt>
      <trkpt lat="47.35692" lon="-0.76046">
        <ele>14.8</ele>
        <time>2013-08-28T10:30:40Z</time>
      </trkpt>
      <trkpt lat="47.35685" lon="-0.7605">
        <ele>15.3</ele>
        <time>2013-08-28T10:30:41Z</time>
      </trkpt>
      <trkpt lat="47.35678" lon="-0.76054">
        <ele>16</ele>
        <time>2013-08-28T10:30:42Z</time>
      </trkpt>
      <trkpt lat="47.35672" lon="-0.76057">
        <ele>16.5</ele>
        <time>2013-08-28T10:30:43Z</time>
      </trkpt>
      <trkpt lat="47.35665" lon="-0.7606">
        <ele>16.5</ele>
        <time>2013-08-28T10:30:44Z</time>
      </trkpt>
      <trkpt lat="47.35658" lon="-0.76065">
        <ele>16.2</ele>
        <time>2013-08-28T10:30:45Z</time>
      </trkpt>
      <trkpt lat="47.3565" lon="-0.76069">
        <ele>16.1</ele>
        <time>2013-08-28T10:30:46Z</time>
      </trkpt>
      <trkpt lat="47.35643" lon="-0.76073">
        <ele>16.2</ele>
        <time>2013-08-28T10:30:47Z</time>
      </trkpt>
      <trkpt lat="47.35635" lon="-0.76077">
        <ele>16.3</ele>
        <time>2013-08-28T10:30:48Z</time>
      </trkpt>
      <trkpt lat="47.35627" lon="-0.76081">
        <ele>16.4</ele>
        <time>2013-08-28T10:30:49Z</time>
      </trkpt>
      <trkpt lat="47.3562" lon="-0.76084">
        <ele>16.6</ele>
        <time>2013-08-28T10:30:50Z</time>
      </trkpt>
      <trkpt lat="47.35614" lon="-0.76088">
        <ele>16.4</ele>
        <time>2013-08-28T10:30:51Z</time>
      </trkpt>
      <trkpt lat="47.35607" lon="-0.76091">
        <ele>16.3</ele>
        <time>2013-08-28T10:30:52Z</time>
      </trkpt>
      <trkpt lat="47.356" lon="-0.76095">
        <ele>16.2</ele>
        <time>2013-08-28T10:30:53Z</time>
      </trkpt>
      <trkpt lat="47.35594" lon="-0.76099">
        <ele>16.4</ele>
        <time>2013-08-28T10:30:54Z</time>
      </trkpt>
      <trkpt lat="47.35587" lon="-0.76103">
        <ele>16.7</ele>
        <time>2013-08-28T10:30:55Z</time>
      </trkpt>
      <trkpt lat="47.35581" lon="-0.76107">
        <ele>17.1</ele>
        <time>2013-08-28T10:30:56Z</time>
      </trkpt>
      <trkpt lat="47.35575" lon="-0.76111">
        <ele>17.3</ele>
        <time>2013-08-28T10:30:57Z</time>
      </trkpt>
      <trkpt lat="47.35569" lon="-0.76115">
        <ele>17.3</ele>
        <time>2013-08-28T10:30:58Z</time>
      </trkpt>
      <trkpt lat="47.35563" lon="-0.76118">
        <ele>17.1</ele>
        <time>2013-08-28T10:30:59Z</time>
      </trkpt>
      <trkpt lat="47.35556" lon="-0.76122">
        <ele>16.9</ele>
        <time>2013-08-28T10:31:00Z</time>
      </trkpt>
      <trkpt lat="47.35549" lon="-0.76125">
        <ele>16.8</ele>
        <time>2013-08-28T10:31:01Z</time>
      </trkpt>
      <trkpt lat="47.35535" lon="-0.76134">
        <ele>17.4</ele>
        <time>2013-08-28T10:31:06Z</time>
      </trkpt>
      <trkpt lat="47.35509" lon="-0.76148">
        <ele>18.1</ele>
        <time>2013-08-28T10:31:07Z</time>
      </trkpt>
      <trkpt lat="47.35503" lon="-0.76151">
        <ele>18.3</ele>
        <time>2013-08-28T10:31:08Z</time>
      </trkpt>
      <trkpt lat="47.35492" lon="-0.76157">
        <ele>16.9</ele>
        <time>2013-08-28T10:31:13Z</time>
      </trkpt>
      <trkpt lat="47.35473" lon="-0.76166">
        <ele>13.2</ele>
        <time>2013-08-28T10:31:14Z</time>
      </trkpt>
      <trkpt lat="47.35467" lon="-0.76169">
        <ele>13</ele>
        <time>2013-08-28T10:31:15Z</time>
      </trkpt>
      <trkpt lat="47.35455" lon="-0.76175">
        <ele>1</ele>
        <time>2013-08-28T10:31:20Z</time>
      </trkpt>
      <trkpt lat="47.35432" lon="-0.76186">
        <ele>2</ele>
        <time>2013-08-28T10:31:21Z</time>
      </trkpt>
      <trkpt lat="47.35425" lon="-0.76189">
        <ele>3</ele>
        <time>2013-08-28T10:31:22Z</time>
      </trkpt>
      <trkpt lat="47.35414" lon="-0.76196">
        <ele>4</ele>
        <time>2013-08-28T10:31:27Z</time>
      </trkpt>
      <trkpt lat="47.35387" lon="-0.76209">
        <ele>6</ele>
        <time>2013-08-28T10:31:28Z</time>
      </trkpt>
      <trkpt lat="47.35381" lon="-0.76213">
        <ele>6</ele>
        <time>2013-08-28T10:31:29Z</time>
      </trkpt>
      <trkpt lat="47.35367" lon="-0.76221">
        <ele>6</ele>
        <time>2013-08-28T10:31:34Z</time>
      </trkpt>
      <trkpt lat="47.3534" lon="-0.76235">
        <ele>6</ele>
        <time>2013-08-28T10:31:35Z</time>
      </trkpt>
      <trkpt lat="47.35335" lon="-0.7624">
        <ele>6</ele>
        <time>2013-08-28T10:31:36Z</time>
      </trkpt>
      <trkpt lat="47.35324" lon="-0.76249">
        <ele>5</ele>
        <time>2013-08-28T10:31:41Z</time>
      </trkpt>
      <trkpt lat="47.35303" lon="-0.76262">
        <ele>4</ele>
        <time>2013-08-28T10:31:42Z</time>
      </trkpt>
      <trkpt lat="47.353" lon="-0.76264">
        <ele>4</ele>
        <time>2013-08-28T10:31:43Z</time>
      </trkpt>
      <trkpt lat="47.35291" lon="-0.76265">
        <ele>4</ele>
        <time>2013-08-28T10:31:48Z</time>
      </trkpt>
      <trkpt lat="47.3528" lon="-0.76268">
        <ele>4</ele>
        <time>2013-08-28T10:31:49Z</time>
      </trkpt>
      <trkpt lat="47.35279" lon="-0.76268">
        <ele>4</ele>
        <time>2013-08-28T10:31:50Z</time>
      </trkpt>
      <trkpt lat="47.35268" lon="-0.76265">
        <ele>7</ele>
        <time>2013-08-28T10:31:57Z</time>
      </trkpt>
      <trkpt lat="47.35266" lon="-0.76265">
        <ele>9</ele>
        <time>2013-08-28T10:31:59Z</time>
      </trkpt>
      <trkpt lat="47.35264" lon="-0.76265">
        <ele>10</ele>
        <time>2013-08-28T10:32:05Z</time>
      </trkpt>
      <trkpt lat="47.35261" lon="-0.76273">
        <ele>11</ele>
        <time>2013-08-28T10:32:06Z</time>
      </trkpt>
      <trkpt lat="47.35257" lon="-0.76278">
        <ele>12</ele>
        <time>2013-08-28T10:32:12Z</time>
      </trkpt>
      <trkpt lat="47.35244" lon="-0.76281">
        <ele>13</ele>
        <time>2013-08-28T10:32:12Z</time>
      </trkpt>
      <trkpt lat="47.35242" lon="-0.76283">
        <ele>14</ele>
        <time>2013-08-28T10:32:13Z</time>
      </trkpt>
      <trkpt lat="47.35236" lon="-0.76289">
        <ele>15</ele>
        <time>2013-08-28T10:32:19Z</time>
      </trkpt>
      <trkpt lat="47.35221" lon="-0.76301">
        <ele>16</ele>
        <time>2013-08-28T10:32:19Z</time>
      </trkpt>
      <trkpt lat="47.35218" lon="-0.76303">
        <ele>17</ele>
        <time>2013-08-28T10:32:20Z</time>
      </trkpt>
      <trkpt lat="47.3521" lon="-0.76306">
        <ele>18</ele>
        <time>2013-08-28T10:32:26Z</time>
      </trkpt>
      <trkpt lat="47.35196" lon="-0.7632">
        <ele>18</ele>
        <time>2013-08-28T10:32:26Z</time>
      </trkpt>
      <trkpt lat="47.35192" lon="-0.76324">
        <ele>18</ele>
        <time>2013-08-28T10:32:27Z</time>
      </trkpt>
      <trkpt lat="47.35188" lon="-0.76327">
        <ele>17</ele>
        <time>2013-08-28T10:32:28Z</time>
      </trkpt>
      <trkpt lat="47.35183" lon="-0.76335">
        <ele>16</ele>
        <time>2013-08-28T10:32:33Z</time>
      </trkpt>
      <trkpt lat="47.35176" lon="-0.76351">
        <ele>15</ele>
        <time>2013-08-28T10:32:34Z</time>
      </trkpt>
      <trkpt lat="47.35175" lon="-0.76357">
        <ele>14</ele>
        <time>2013-08-28T10:32:35Z</time>
      </trkpt>
      <trkpt lat="47.35173" lon="-0.76362">
        <ele>14</ele>
        <time>2013-08-28T10:32:36Z</time>
      </trkpt>
      <trkpt lat="47.35168" lon="-0.76367">
        <ele>14</ele>
        <time>2013-08-28T10:32:41Z</time>
      </trkpt>
      <trkpt lat="47.35154" lon="-0.76348">
        <ele>14</ele>
        <time>2013-08-28T10:32:42Z</time>
      </trkpt>
      <trkpt lat="47.35151" lon="-0.76342">
        <ele>14</ele>
        <time>2013-08-28T10:32:43Z</time>
      </trkpt>
      <trkpt lat="47.35147" lon="-0.76336">
        <ele>14</ele>
        <time>2013-08-28T10:32:44Z</time>
      </trkpt>
      <trkpt lat="47.35138" lon="-0.7632">
        <ele>14</ele>
        <time>2013-08-28T10:32:49Z</time>
      </trkpt>
      <trkpt lat="47.35118" lon="-0.76291">
        <ele>14</ele>
        <time>2013-08-28T10:32:50Z</time>
      </trkpt>
      <trkpt lat="47.35113" lon="-0.76284">
        <ele>15</ele>
        <time>2013-08-28T10:32:51Z</time>
      </trkpt>
      <trkpt lat="47.35104" lon="-0.76274">
        <ele>16</ele>
        <time>2013-08-28T10:32:56Z</time>
      </trkpt>
      <trkpt lat="47.35083" lon="-0.76265">
        <ele>17</ele>
        <time>2013-08-28T10:32:57Z</time>
      </trkpt>
      <trkpt lat="47.35079" lon="-0.76265">
        <ele>18</ele>
        <time>2013-08-28T10:32:58Z</time>
      </trkpt>
      <trkpt lat="47.35051" lon="-0.76264">
        <ele>19</ele>
        <time>2013-08-28T10:33:04Z</time>
      </trkpt>
      <trkpt lat="47.35044" lon="-0.76264">
        <ele>20</ele>
        <time>2013-08-28T10:33:05Z</time>
      </trkpt>
      <trkpt lat="47.35031" lon="-0.76259">
        <ele>21</ele>
        <time>2013-08-28T10:33:10Z</time>
      </trkpt>
      <trkpt lat="47.35005" lon="-0.76254">
        <ele>22</ele>
        <time>2013-08-28T10:33:11Z</time>
      </trkpt>
      <trkpt lat="47.34999" lon="-0.76253">
        <ele>22</ele>
        <time>2013-08-28T10:33:12Z</time>
      </trkpt>
      <trkpt lat="47.34988" lon="-0.76252">
        <ele>22</ele>
        <time>2013-08-28T10:33:17Z</time>
      </trkpt>
      <trkpt lat="47.34963" lon="-0.76245">
        <ele>22</ele>
        <time>2013-08-28T10:33:18Z</time>
      </trkpt>
      <trkpt lat="47.34955" lon="-0.76244">
        <ele>21</ele>
        <time>2013-08-28T10:33:19Z</time>
      </trkpt>
      <trkpt lat="47.34939" lon="-0.76239">
        <ele>20</ele>
        <time>2013-08-28T10:33:24Z</time>
      </trkpt>
      <trkpt lat="47.34906" lon="-0.76231">
        <ele>19</ele>
        <time>2013-08-28T10:33:25Z</time>
      </trkpt>
      <trkpt lat="47.34897" lon="-0.76228">
        <ele>18</ele>
        <time>2013-08-28T10:33:26Z</time>
      </trkpt>
      <trkpt lat="47.34879" lon="-0.76222">
        <ele>17</ele>
        <time>2013-08-28T10:33:31Z</time>
      </trkpt>
      <trkpt lat="47.34843" lon="-0.7621">
        <ele>16</ele>
        <time>2013-08-28T10:33:32Z</time>
      </trkpt>
      <trkpt lat="47.34834" lon="-0.76208">
        <ele>15</ele>
        <time>2013-08-28T10:33:33Z</time>
      </trkpt>
      <trkpt lat="47.34817" lon="-0.76203">
        <ele>14</ele>
        <time>2013-08-28T10:33:38Z</time>
      </trkpt>
      <trkpt lat="47.34779" lon="-0.76191">
        <ele>13</ele>
        <time>2013-08-28T10:33:39Z</time>
      </trkpt>
      <trkpt lat="47.34769" lon="-0.76188">
        <ele>12</ele>
        <time>2013-08-28T10:33:40Z</time>
      </trkpt>
      <trkpt lat="47.34752" lon="-0.76185">
        <ele>11</ele>
        <time>2013-08-28T10:33:45Z</time>
      </trkpt>
      <trkpt lat="47.34716" lon="-0.76174">
        <ele>10</ele>
        <time>2013-08-28T10:33:46Z</time>
      </trkpt>
      <trkpt lat="47.34709" lon="-0.76173">
        <ele>9</ele>
        <time>2013-08-28T10:33:47Z</time>
      </trkpt>
      <trkpt lat="47.34695" lon="-0.76173">
        <ele>8</ele>
        <time>2013-08-28T10:33:52Z</time>
      </trkpt>
      <trkpt lat="47.34666" lon="-0.7617">
        <ele>7</ele>
        <time>2013-08-28T10:33:53Z</time>
      </trkpt>
      <trkpt lat="47.34661" lon="-0.76172">
        <ele>6</ele>
        <time>2013-08-28T10:33:54Z</time>
      </trkpt>
      <trkpt lat="47.34645" lon="-0.76167">
        <ele>6</ele>
        <time>2013-08-28T10:33:59Z</time>
      </trkpt>
      <trkpt lat="47.34613" lon="-0.76156">
        <ele>6</ele>
        <time>2013-08-28T10:34:00Z</time>
      </trkpt>
      <trkpt lat="47.34607" lon="-0.76153">
        <ele>6</ele>
        <time>2013-08-28T10:34:01Z</time>
      </trkpt>
      <trkpt lat="47.34593" lon="-0.76149">
        <ele>6</ele>
        <time>2013-08-28T10:34:06Z</time>
      </trkpt>
      <trkpt lat="47.34566" lon="-0.76138">
        <ele>6</ele>
        <time>2013-08-28T10:34:07Z</time>
      </trkpt>
      <trkpt lat="47.3456" lon="-0.76134">
        <ele>6</ele>
        <time>2013-08-28T10:34:08Z</time>
      </trkpt>
      <trkpt lat="47.34548" lon="-0.7613">
        <ele>5</ele>
        <time>2013-08-28T10:34:13Z</time>
      </trkpt>
      <trkpt lat="47.34528" lon="-0.76121">
        <ele>5</ele>
        <time>2013-08-28T10:34:14Z</time>
      </trkpt>
      <trkpt lat="47.34524" lon="-0.76113">
        <ele>4</ele>
        <time>2013-08-28T10:34:15Z</time>
      </trkpt>
      <trkpt lat="47.34523" lon="-0.76105">
        <ele>4</ele>
        <time>2013-08-28T10:34:16Z</time>
      </trkpt>
      <trkpt lat="47.34524" lon="-0.76096">
        <ele>4</ele>
        <time>2013-08-28T10:34:17Z</time>
      </trkpt>
      <trkpt lat="47.34532" lon="-0.76083">
        <ele>4</ele>
        <time>2013-08-28T10:34:23Z</time>
      </trkpt>
      <trkpt lat="47.3457" lon="-0.76073">
        <ele>4</ele>
        <time>2013-08-28T10:34:24Z</time>
      </trkpt>
      <trkpt lat="47.34577" lon="-0.76068">
        <ele>4</ele>
        <time>2013-08-28T10:34:25Z</time>
      </trkpt>
      <trkpt lat="47.34591" lon="-0.76054">
        <ele>4</ele>
        <time>2013-08-28T10:34:31Z</time>
      </trkpt>
      <trkpt lat="47.34616" lon="-0.76028">
        <ele>4</ele>
        <time>2013-08-28T10:34:31Z</time>
      </trkpt>
      <trkpt lat="47.34623" lon="-0.76022">
        <ele>4</ele>
        <time>2013-08-28T10:34:32Z</time>
      </trkpt>
      <trkpt lat="47.3463" lon="-0.76015">
        <ele>4</ele>
        <time>2013-08-28T10:34:34Z</time>
      </trkpt>
      <trkpt lat="47.34636" lon="-0.76009">
        <ele>4</ele>
        <time>2013-08-28T10:34:34Z</time>
      </trkpt>
      <trkpt lat="47.34642" lon="-0.76003">
        <ele>4</ele>
        <time>2013-08-28T10:34:35Z</time>
      </trkpt>
      <trkpt lat="47.34649" lon="-0.75996">
        <ele>4</ele>
        <time>2013-08-28T10:34:36Z</time>
      </trkpt>
      <trkpt lat="47.34655" lon="-0.7599">
        <ele>4</ele>
        <time>2013-08-28T10:34:37Z</time>
      </trkpt>
      <trkpt lat="47.34661" lon="-0.75984">
        <ele>4</ele>
        <time>2013-08-28T10:34:38Z</time>
      </trkpt>
      <trkpt lat="47.34668" lon="-0.75977">
        <ele>4</ele>
        <time>2013-08-28T10:34:39Z</time>
      </trkpt>
      <trkpt lat="47.34675" lon="-0.75971">
        <ele>4</ele>
        <time>2013-08-28T10:34:40Z</time>
      </trkpt>
      <trkpt lat="47.34682" lon="-0.75964">
        <ele>4</ele>
        <time>2013-08-28T10:34:41Z</time>
      </trkpt>
      <trkpt lat="47.34689" lon="-0.75957">
        <ele>4</ele>
        <time>2013-08-28T10:34:42Z</time>
      </trkpt>
      <trkpt lat="47.34695" lon="-0.75951">
        <ele>4</ele>
        <time>2013-08-28T10:34:43Z</time>
      </trkpt>
      <trkpt lat="47.34701" lon="-0.75945">
        <ele>4</ele>
        <time>2013-08-28T10:34:44Z</time>
      </trkpt>
      <trkpt lat="47.34708" lon="-0.75939">
        <ele>4</ele>
        <time>2013-08-28T10:34:45Z</time>
      </trkpt>
      <trkpt lat="47.34714" lon="-0.75933">
        <ele>4</ele>
        <time>2013-08-28T10:34:46Z</time>
      </trkpt>
      <trkpt lat="47.34721" lon="-0.75928">
        <ele>4</ele>
        <time>2013-08-28T10:34:47Z</time>
      </trkpt>
      <trkpt lat="47.34726" lon="-0.75923">
        <ele>4</ele>
        <time>2013-08-28T10:34:48Z</time>
      </trkpt>
      <trkpt lat="47.34732" lon="-0.75918">
        <ele>4</ele>
        <time>2013-08-28T10:34:49Z</time>
      </trkpt>
      <trkpt lat="47.34739" lon="-0.75913">
        <ele>4</ele>
        <time>2013-08-28T10:34:50Z</time>
      </trkpt>
      <trkpt lat="47.34745" lon="-0.75909">
        <ele>4</ele>
        <time>2013-08-28T10:34:51Z</time>
      </trkpt>
      <trkpt lat="47.3475" lon="-0.75903">
        <ele>4</ele>
        <time>2013-08-28T10:34:52Z</time>
      </trkpt>
      <trkpt lat="47.34756" lon="-0.75897">
        <ele>4</ele>
        <time>2013-08-28T10:34:53Z</time>
      </trkpt>
      <trkpt lat="47.3476" lon="-0.7589">
        <ele>4</ele>
        <time>2013-08-28T10:34:54Z</time>
      </trkpt>
      <trkpt lat="47.34766" lon="-0.75884">
        <ele>4</ele>
        <time>2013-08-28T10:34:55Z</time>
      </trkpt>
      <trkpt lat="47.34771" lon="-0.75878">
        <ele>4</ele>
        <time>2013-08-28T10:34:56Z</time>
      </trkpt>
      <trkpt lat="47.34777" lon="-0.75873">
        <ele>4</ele>
        <time>2013-08-28T10:34:57Z</time>
      </trkpt>
      <trkpt lat="47.34784" lon="-0.7587">
        <ele>4</ele>
        <time>2013-08-28T10:34:58Z</time>
      </trkpt>
      <trkpt lat="47.34792" lon="-0.75867">
        <ele>4</ele>
        <time>2013-08-28T10:34:59Z</time>
      </trkpt>
      <trkpt lat="47.348" lon="-0.75865">
        <ele>4</ele>
        <time>2013-08-28T10:35:00Z</time>
      </trkpt>
      <trkpt lat="47.34806" lon="-0.75863">
        <ele>4</ele>
        <time>2013-08-28T10:35:01Z</time>
      </trkpt>
      <trkpt lat="47.34814" lon="-0.75862">
        <ele>4</ele>
        <time>2013-08-28T10:35:02Z</time>
      </trkpt>
      <trkpt lat="47.3482" lon="-0.7586">
        <ele>4</ele>
        <time>2013-08-28T10:35:03Z</time>
      </trkpt>
      <trkpt lat="47.34827" lon="-0.75858">
        <ele>4</ele>
        <time>2013-08-28T10:35:04Z</time>
      </trkpt>
      <trkpt lat="47.34834" lon="-0.75856">
        <ele>4</ele>
        <time>2013-08-28T10:35:05Z</time>
      </trkpt>
      <trkpt lat="47.3484" lon="-0.75853">
        <ele>4</ele>
        <time>2013-08-28T10:35:06Z</time>
      </trkpt>
      <trkpt lat="47.34847" lon="-0.75849">
        <ele>4</ele>
        <time>2013-08-28T10:35:07Z</time>
      </trkpt>
      <trkpt lat="47.34854" lon="-0.75845">
        <ele>4</ele>
        <time>2013-08-28T10:35:08Z</time>
      </trkpt>
      <trkpt lat="47.34861" lon="-0.75841">
        <ele>4</ele>
        <time>2013-08-28T10:35:09Z</time>
      </trkpt>
      <trkpt lat="47.34867" lon="-0.75836">
        <ele>4</ele>
        <time>2013-08-28T10:35:10Z</time>
      </trkpt>
      <trkpt lat="47.34874" lon="-0.75831">
        <ele>4</ele>
        <time>2013-08-28T10:35:11Z</time>
      </trkpt>
      <trkpt lat="47.3488" lon="-0.75825">
        <ele>4</ele>
        <time>2013-08-28T10:35:12Z</time>
      </trkpt>
      <trkpt lat="47.34887" lon="-0.75819">
        <ele>4</ele>
        <time>2013-08-28T10:35:13Z</time>
      </trkpt>
      <trkpt lat="47.34894" lon="-0.75813">
        <ele>4</ele>
        <time>2013-08-28T10:35:14Z</time>
      </trkpt>
      <trkpt lat="47.34901" lon="-0.75807">
        <ele>4</ele>
        <time>2013-08-28T10:35:15Z</time>
      </trkpt>
      <trkpt lat="47.34907" lon="-0.75801">
        <ele>4</ele>
        <time>2013-08-28T10:35:16Z</time>
      </trkpt>
      <trkpt lat="47.34913" lon="-0.75795">
        <ele>4</ele>
        <time>2013-08-28T10:35:17Z</time>
      </trkpt>
      <trkpt lat="47.3492" lon="-0.75788">
        <ele>4</ele>
        <time>2013-08-28T10:35:18Z</time>
      </trkpt>
      <trkpt lat="47.34926" lon="-0.75781">
        <ele>4</ele>
        <time>2013-08-28T10:35:19Z</time>
      </trkpt>
      <trkpt lat="47.34931" lon="-0.75775">
        <ele>4</ele>
        <time>2013-08-28T10:35:20Z</time>
      </trkpt>
      <trkpt lat="47.34937" lon="-0.75767">
        <ele>4</ele>
        <time>2013-08-28T10:35:21Z</time>
      </trkpt>
      <trkpt lat="47.34943" lon="-0.7576">
        <ele>4</ele>
        <time>2013-08-28T10:35:22Z</time>
      </trkpt>
      <trkpt lat="47.34948" lon="-0.75753">
        <ele>4</ele>
        <time>2013-08-28T10:35:23Z</time>
      </trkpt>
      <trkpt lat="47.34954" lon="-0.75746">
        <ele>4</ele>
        <time>2013-08-28T10:35:24Z</time>
      </trkpt>
      <trkpt lat="47.34959" lon="-0.75739">
        <ele>4</ele>
        <time>2013-08-28T10:35:25Z</time>
      </trkpt>
      <trkpt lat="47.34965" lon="-0.75731">
        <ele>4</ele>
        <time>2013-08-28T10:35:26Z</time>
      </trkpt>
      <trkpt lat="47.3497" lon="-0.75724">
        <ele>4</ele>
        <time>2013-08-28T10:35:27Z</time>
      </trkpt>
      <trkpt lat="47.34975" lon="-0.75717">
        <ele>5</ele>
        <time>2013-08-28T10:35:28Z</time>
      </trkpt>
      <trkpt lat="47.3498" lon="-0.75709">
        <ele>5</ele>
        <time>2013-08-28T10:35:29Z</time>
      </trkpt>
      <trkpt lat="47.34985" lon="-0.75702">
        <ele>5</ele>
        <time>2013-08-28T10:35:30Z</time>
      </trkpt>
      <trkpt lat="47.34991" lon="-0.75695">
        <ele>5</ele>
        <time>2013-08-28T10:35:31Z</time>
      </trkpt>
      <trkpt lat="47.34996" lon="-0.75687">
        <ele>5</ele>
        <time>2013-08-28T10:35:32Z</time>
      </trkpt>
      <trkpt lat="47.35001" lon="-0.7568">
        <ele>5</ele>
        <time>2013-08-28T10:35:33Z</time>
      </trkpt>
      <trkpt lat="47.35006" lon="-0.75673">
        <ele>5</ele>
        <time>2013-08-28T10:35:34Z</time>
      </trkpt>
      <trkpt lat="47.3501" lon="-0.75665">
        <ele>5</ele>
        <time>2013-08-28T10:35:35Z</time>
      </trkpt>
      <trkpt lat="47.35015" lon="-0.75659">
        <ele>5</ele>
        <time>2013-08-28T10:35:36Z</time>
      </trkpt>
      <trkpt lat="47.3502" lon="-0.75652">
        <ele>5</ele>
        <time>2013-08-28T10:35:37Z</time>
      </trkpt>
      <trkpt lat="47.35025" lon="-0.75647">
        <ele>5</ele>
        <time>2013-08-28T10:35:38Z</time>
      </trkpt>
      <trkpt lat="47.3503" lon="-0.75641">
        <ele>5</ele>
        <time>2013-08-28T10:35:39Z</time>
      </trkpt>
      <trkpt lat="47.35036" lon="-0.75638">
        <ele>5</ele>
        <time>2013-08-28T10:35:40Z</time>
      </trkpt>
      <trkpt lat="47.35041" lon="-0.75634">
        <ele>5</ele>
        <time>2013-08-28T10:35:41Z</time>
      </trkpt>
      <trkpt lat="47.35046" lon="-0.75629">
        <ele>5</ele>
        <time>2013-08-28T10:35:42Z</time>
      </trkpt>
      <trkpt lat="47.3505" lon="-0.75623">
        <ele>5</ele>
        <time>2013-08-28T10:35:43Z</time>
      </trkpt>
      <trkpt lat="47.35052" lon="-0.75616">
        <ele>5</ele>
        <time>2013-08-28T10:35:44Z</time>
      </trkpt>
      <trkpt lat="47.35052" lon="-0.75608">
        <ele>5</ele>
        <time>2013-08-28T10:35:45Z</time>
      </trkpt>
      <trkpt lat="47.35051" lon="-0.756">
        <ele>5</ele>
        <time>2013-08-28T10:35:46Z</time>
      </trkpt>
      <trkpt lat="47.35049" lon="-0.75593">
        <ele>5</ele>
        <time>2013-08-28T10:35:47Z</time>
      </trkpt>
      <trkpt lat="47.35049" lon="-0.75586">
        <ele>5</ele>
        <time>2013-08-28T10:35:48Z</time>
      </trkpt>
      <trkpt lat="47.35048" lon="-0.7558">
        <ele>5</ele>
        <time>2013-08-28T10:35:49Z</time>
      </trkpt>
      <trkpt lat="47.35047" lon="-0.75573">
        <ele>5</ele>
        <time>2013-08-28T10:35:50Z</time>
      </trkpt>
      <trkpt lat="47.35046" lon="-0.75568">
        <ele>5</ele>
        <time>2013-08-28T10:35:51Z</time>
      </trkpt>
      <trkpt lat="47.35045" lon="-0.75563">
        <ele>5</ele>
        <time>2013-08-28T10:35:52Z</time>
      </trkpt>
      <trkpt lat="47.35043" lon="-0.75559">
        <ele>5</ele>
        <time>2013-08-28T10:35:53Z</time>
      </trkpt>
      <trkpt lat="47.35042" lon="-0.75554">
        <ele>5</ele>
        <time>2013-08-28T10:35:54Z</time>
      </trkpt>
      <trkpt lat="47.3504" lon="-0.75549">
        <ele>5</ele>
        <time>2013-08-28T10:35:55Z</time>
      </trkpt>
      <trkpt lat="47.35038" lon="-0.75544">
        <ele>5</ele>
        <time>2013-08-28T10:35:56Z</time>
      </trkpt>
      <trkpt lat="47.35036" lon="-0.75539">
        <ele>5</ele>
        <time>2013-08-28T10:35:57Z</time>
      </trkpt>
      <trkpt lat="47.35034" lon="-0.75534">
        <ele>5</ele>
        <time>2013-08-28T10:35:58Z</time>
      </trkpt>
      <trkpt lat="47.35032" lon="-0.75529">
        <ele>5</ele>
        <time>2013-08-28T10:35:59Z</time>
      </trkpt>
      <trkpt lat="47.3503" lon="-0.75525">
        <ele>5</ele>
        <time>2013-08-28T10:36:00Z</time>
      </trkpt>
      <trkpt lat="47.35029" lon="-0.75522">
        <ele>5</ele>
        <time>2013-08-28T10:36:01Z</time>
      </trkpt>
      <trkpt lat="47.35028" lon="-0.75519">
        <ele>5</ele>
        <time>2013-08-28T10:36:02Z</time>
      </trkpt>
      <trkpt lat="47.35028" lon="-0.75517">
        <ele>5</ele>
        <time>2013-08-28T10:36:03Z</time>
      </trkpt>
      <trkpt lat="47.35029" lon="-0.75516">
        <ele>5</ele>
        <time>2013-08-28T10:36:04Z</time>
      </trkpt>
      <trkpt lat="47.35034" lon="-0.75517">
        <ele>4</ele>
        <time>2013-08-28T10:36:16Z</time>
      </trkpt>
      <trkpt lat="47.35034" lon="-0.75518">
        <ele>4</ele>
        <time>2013-08-28T10:36:17Z</time>
      </trkpt>
    </trkseg>
  </trk>
</gpx>